<?xml version="1.0" encoding="UTF-8"?>
<gpx version="1.1" creator="https://www.youtrack.es" xsi:schemaLocation="http://www.topografix.com/GPX/1/1 http://www.topografix.com/GPX/1/1/gpx.xsd http://www.garmin.com/xmlschemas/GpxExtensions/v3 http://www.garmin.com/xmlschemas/GpxExtensionsv3.xsd http://www.garmin.com/xmlschemas/TrackPointExtension/v1 http://www.garmin.com/xmlschemas/TrackPointExtensionv1.xsd" xmlns:gpxtpx="http://www.garmin.com/xmlschemas/TrackPointExtension/v1" xmlns:gpxx="http://www.garmin.com/xmlschemas/GpxExtensions/v3" xmlns:xsi="http://www.w3.org/2001/XMLSchema-instance">
  <metadata>
    <link href="https://www.youtrack.es">
      <text>YouTrack.es</text>
    </link>
    <time>2026-05-08T18:50:03Z</time>
  </metadata>
  <trk>
    <src>https://www.youtrack.es</src>
    <link href="https://www.youtrack.es/ruta/29848-pielago">
      <text>YouTrack.es</text>
    </link>
    <trkseg>
      <trkpt lat="39.8900900" lon="-4.4593400">
        <ele>442.0</ele>
        <time>2022-03-01T13:56:07Z</time>
      </trkpt>
      <trkpt lat="39.8900950" lon="-4.4593450">
        <ele>442.0</ele>
        <time>2022-03-01T13:56:08Z</time>
      </trkpt>
      <trkpt lat="39.8901000" lon="-4.4593500">
        <ele>442.0</ele>
        <time>2022-03-01T13:56:09Z</time>
      </trkpt>
      <trkpt lat="39.8901050" lon="-4.4593550">
        <ele>442.0</ele>
        <time>2022-03-01T13:56:10Z</time>
      </trkpt>
      <trkpt lat="39.8901100" lon="-4.4593600">
        <ele>442.0</ele>
        <time>2022-03-01T13:56:11Z</time>
      </trkpt>
      <trkpt lat="39.8901150" lon="-4.4593650">
        <ele>442.0</ele>
        <time>2022-03-01T13:56:12Z</time>
      </trkpt>
      <trkpt lat="39.8901200" lon="-4.4593700">
        <ele>442.0</ele>
        <time>2022-03-01T13:56:13Z</time>
      </trkpt>
      <trkpt lat="39.8901250" lon="-4.4593750">
        <ele>442.0</ele>
        <time>2022-03-01T13:56:14Z</time>
      </trkpt>
      <trkpt lat="39.8901300" lon="-4.4593800">
        <ele>442.0</ele>
        <time>2022-03-01T13:56:15Z</time>
      </trkpt>
      <trkpt lat="39.8901350" lon="-4.4593850">
        <ele>442.0</ele>
        <time>2022-03-01T13:56:16Z</time>
      </trkpt>
      <trkpt lat="39.8901400" lon="-4.4593900">
        <ele>442.0</ele>
        <time>2022-03-01T13:56:17Z</time>
      </trkpt>
      <trkpt lat="39.8901800" lon="-4.4594230">
        <ele>442.0</ele>
        <time>2022-03-01T13:56:18Z</time>
      </trkpt>
      <trkpt lat="39.8901800" lon="-4.4594230">
        <ele>442.0</ele>
        <time>2022-03-01T13:56:19Z</time>
      </trkpt>
      <trkpt lat="39.8902550" lon="-4.4595080">
        <ele>442.0</ele>
        <time>2022-03-01T13:56:20Z</time>
      </trkpt>
      <trkpt lat="39.8902550" lon="-4.4595080">
        <ele>442.0</ele>
        <time>2022-03-01T13:56:21Z</time>
      </trkpt>
      <trkpt lat="39.8903320" lon="-4.4596000">
        <ele>442.0</ele>
        <time>2022-03-01T13:56:22Z</time>
      </trkpt>
      <trkpt lat="39.8903320" lon="-4.4596000">
        <ele>442.0</ele>
        <time>2022-03-01T13:56:23Z</time>
      </trkpt>
      <trkpt lat="39.8904020" lon="-4.4596870">
        <ele>442.0</ele>
        <time>2022-03-01T13:56:24Z</time>
      </trkpt>
      <trkpt lat="39.8904020" lon="-4.4596870">
        <ele>442.0</ele>
        <time>2022-03-01T13:56:25Z</time>
      </trkpt>
      <trkpt lat="39.8904670" lon="-4.4597680">
        <ele>442.0</ele>
        <time>2022-03-01T13:56:26Z</time>
      </trkpt>
      <trkpt lat="39.8904970" lon="-4.4598020">
        <ele>442.0</ele>
        <time>2022-03-01T13:56:27Z</time>
      </trkpt>
      <trkpt lat="39.8904970" lon="-4.4598020">
        <ele>442.0</ele>
        <time>2022-03-01T13:56:28Z</time>
      </trkpt>
      <trkpt lat="39.8905600" lon="-4.4598750">
        <ele>442.0</ele>
        <time>2022-03-01T13:56:29Z</time>
      </trkpt>
      <trkpt lat="39.8905600" lon="-4.4598750">
        <ele>442.0</ele>
        <time>2022-03-01T13:56:30Z</time>
      </trkpt>
      <trkpt lat="39.8906300" lon="-4.4599580">
        <ele>442.0</ele>
        <time>2022-03-01T13:56:31Z</time>
      </trkpt>
      <trkpt lat="39.8906300" lon="-4.4599580">
        <ele>442.0</ele>
        <time>2022-03-01T13:56:32Z</time>
      </trkpt>
      <trkpt lat="39.8906970" lon="-4.4600470">
        <ele>442.0</ele>
        <time>2022-03-01T13:56:33Z</time>
      </trkpt>
      <trkpt lat="39.8907330" lon="-4.4600930">
        <ele>442.0</ele>
        <time>2022-03-01T13:56:34Z</time>
      </trkpt>
      <trkpt lat="39.8907330" lon="-4.4600930">
        <ele>442.0</ele>
        <time>2022-03-01T13:56:35Z</time>
      </trkpt>
      <trkpt lat="39.8908050" lon="-4.4601820">
        <ele>442.0</ele>
        <time>2022-03-01T13:56:36Z</time>
      </trkpt>
      <trkpt lat="39.8908050" lon="-4.4601820">
        <ele>442.0</ele>
        <time>2022-03-01T13:56:37Z</time>
      </trkpt>
      <trkpt lat="39.8908630" lon="-4.4602730">
        <ele>442.0</ele>
        <time>2022-03-01T13:56:38Z</time>
      </trkpt>
      <trkpt lat="39.8908630" lon="-4.4602730">
        <ele>442.0</ele>
        <time>2022-03-01T13:56:39Z</time>
      </trkpt>
      <trkpt lat="39.8909270" lon="-4.4603550">
        <ele>442.0</ele>
        <time>2022-03-01T13:56:40Z</time>
      </trkpt>
      <trkpt lat="39.8909270" lon="-4.4603550">
        <ele>442.0</ele>
        <time>2022-03-01T13:56:41Z</time>
      </trkpt>
      <trkpt lat="39.8909850" lon="-4.4604270">
        <ele>442.0</ele>
        <time>2022-03-01T13:56:42Z</time>
      </trkpt>
      <trkpt lat="39.8909850" lon="-4.4604270">
        <ele>442.0</ele>
        <time>2022-03-01T13:56:43Z</time>
      </trkpt>
      <trkpt lat="39.8910380" lon="-4.4604970">
        <ele>442.0</ele>
        <time>2022-03-01T13:56:44Z</time>
      </trkpt>
      <trkpt lat="39.8910380" lon="-4.4604970">
        <ele>442.0</ele>
        <time>2022-03-01T13:56:45Z</time>
      </trkpt>
      <trkpt lat="39.8910980" lon="-4.4605680">
        <ele>442.0</ele>
        <time>2022-03-01T13:56:46Z</time>
      </trkpt>
      <trkpt lat="39.8910980" lon="-4.4605680">
        <ele>442.0</ele>
        <time>2022-03-01T13:56:47Z</time>
      </trkpt>
      <trkpt lat="39.8911630" lon="-4.4606470">
        <ele>442.0</ele>
        <time>2022-03-01T13:56:48Z</time>
      </trkpt>
      <trkpt lat="39.8911630" lon="-4.4606470">
        <ele>442.0</ele>
        <time>2022-03-01T13:56:49Z</time>
      </trkpt>
      <trkpt lat="39.8912220" lon="-4.4607200">
        <ele>442.0</ele>
        <time>2022-03-01T13:56:50Z</time>
      </trkpt>
      <trkpt lat="39.8912580" lon="-4.4607620">
        <ele>442.0</ele>
        <time>2022-03-01T13:56:51Z</time>
      </trkpt>
      <trkpt lat="39.8912580" lon="-4.4607620">
        <ele>442.0</ele>
        <time>2022-03-01T13:56:52Z</time>
      </trkpt>
      <trkpt lat="39.8913330" lon="-4.4608470">
        <ele>442.0</ele>
        <time>2022-03-01T13:56:53Z</time>
      </trkpt>
      <trkpt lat="39.8913650" lon="-4.4608900">
        <ele>442.0</ele>
        <time>2022-03-01T13:56:54Z</time>
      </trkpt>
      <trkpt lat="39.8914000" lon="-4.4609350">
        <ele>442.0</ele>
        <time>2022-03-01T13:56:55Z</time>
      </trkpt>
      <trkpt lat="39.8914000" lon="-4.4609350">
        <ele>442.0</ele>
        <time>2022-03-01T13:56:56Z</time>
      </trkpt>
      <trkpt lat="39.8914700" lon="-4.4610170">
        <ele>442.0</ele>
        <time>2022-03-01T13:56:57Z</time>
      </trkpt>
      <trkpt lat="39.8915030" lon="-4.4610630">
        <ele>442.0</ele>
        <time>2022-03-01T13:56:58Z</time>
      </trkpt>
      <trkpt lat="39.8915350" lon="-4.4611120">
        <ele>442.0</ele>
        <time>2022-03-01T13:56:59Z</time>
      </trkpt>
      <trkpt lat="39.8915350" lon="-4.4611120">
        <ele>442.0</ele>
        <time>2022-03-01T13:57:00Z</time>
      </trkpt>
      <trkpt lat="39.8916020" lon="-4.4612030">
        <ele>442.0</ele>
        <time>2022-03-01T13:57:01Z</time>
      </trkpt>
      <trkpt lat="39.8916020" lon="-4.4612030">
        <ele>442.0</ele>
        <time>2022-03-01T13:57:02Z</time>
      </trkpt>
      <trkpt lat="39.8916670" lon="-4.4612880">
        <ele>442.0</ele>
        <time>2022-03-01T13:57:03Z</time>
      </trkpt>
      <trkpt lat="39.8916920" lon="-4.4613230">
        <ele>442.0</ele>
        <time>2022-03-01T13:57:04Z</time>
      </trkpt>
      <trkpt lat="39.8916920" lon="-4.4613230">
        <ele>442.0</ele>
        <time>2022-03-01T13:57:05Z</time>
      </trkpt>
      <trkpt lat="39.8917620" lon="-4.4614100">
        <ele>442.0</ele>
        <time>2022-03-01T13:57:06Z</time>
      </trkpt>
      <trkpt lat="39.8917620" lon="-4.4614100">
        <ele>442.0</ele>
        <time>2022-03-01T13:57:07Z</time>
      </trkpt>
      <trkpt lat="39.8918170" lon="-4.4614880">
        <ele>442.0</ele>
        <time>2022-03-01T13:57:08Z</time>
      </trkpt>
      <trkpt lat="39.8918170" lon="-4.4614880">
        <ele>442.0</ele>
        <time>2022-03-01T13:57:09Z</time>
      </trkpt>
      <trkpt lat="39.8918780" lon="-4.4615720">
        <ele>442.0</ele>
        <time>2022-03-01T13:57:10Z</time>
      </trkpt>
      <trkpt lat="39.8918780" lon="-4.4615720">
        <ele>442.0</ele>
        <time>2022-03-01T13:57:11Z</time>
      </trkpt>
      <trkpt lat="39.8919380" lon="-4.4616470">
        <ele>442.0</ele>
        <time>2022-03-01T13:57:12Z</time>
      </trkpt>
      <trkpt lat="39.8919380" lon="-4.4616470">
        <ele>442.0</ele>
        <time>2022-03-01T13:57:13Z</time>
      </trkpt>
      <trkpt lat="39.8919980" lon="-4.4617200">
        <ele>442.0</ele>
        <time>2022-03-01T13:57:14Z</time>
      </trkpt>
      <trkpt lat="39.8919980" lon="-4.4617200">
        <ele>442.0</ele>
        <time>2022-03-01T13:57:15Z</time>
      </trkpt>
      <trkpt lat="39.8920470" lon="-4.4617920">
        <ele>442.0</ele>
        <time>2022-03-01T13:57:16Z</time>
      </trkpt>
      <trkpt lat="39.8920470" lon="-4.4617920">
        <ele>442.0</ele>
        <time>2022-03-01T13:57:17Z</time>
      </trkpt>
      <trkpt lat="39.8921230" lon="-4.4618830">
        <ele>442.0</ele>
        <time>2022-03-01T13:57:18Z</time>
      </trkpt>
      <trkpt lat="39.8921230" lon="-4.4618830">
        <ele>442.0</ele>
        <time>2022-03-01T13:57:19Z</time>
      </trkpt>
      <trkpt lat="39.8921870" lon="-4.4619630">
        <ele>442.0</ele>
        <time>2022-03-01T13:57:20Z</time>
      </trkpt>
      <trkpt lat="39.8921870" lon="-4.4619630">
        <ele>442.0</ele>
        <time>2022-03-01T13:57:21Z</time>
      </trkpt>
      <trkpt lat="39.8922480" lon="-4.4620420">
        <ele>442.0</ele>
        <time>2022-03-01T13:57:22Z</time>
      </trkpt>
      <trkpt lat="39.8922480" lon="-4.4620420">
        <ele>442.0</ele>
        <time>2022-03-01T13:57:23Z</time>
      </trkpt>
      <trkpt lat="39.8923030" lon="-4.4621180">
        <ele>442.0</ele>
        <time>2022-03-01T13:57:24Z</time>
      </trkpt>
      <trkpt lat="39.8923030" lon="-4.4621180">
        <ele>442.0</ele>
        <time>2022-03-01T13:57:25Z</time>
      </trkpt>
      <trkpt lat="39.8923580" lon="-4.4621950">
        <ele>442.0</ele>
        <time>2022-03-01T13:57:26Z</time>
      </trkpt>
      <trkpt lat="39.8923580" lon="-4.4621950">
        <ele>442.0</ele>
        <time>2022-03-01T13:57:27Z</time>
      </trkpt>
      <trkpt lat="39.8924180" lon="-4.4622750">
        <ele>442.0</ele>
        <time>2022-03-01T13:57:28Z</time>
      </trkpt>
      <trkpt lat="39.8924530" lon="-4.4623180">
        <ele>442.0</ele>
        <time>2022-03-01T13:57:29Z</time>
      </trkpt>
      <trkpt lat="39.8924530" lon="-4.4623180">
        <ele>442.0</ele>
        <time>2022-03-01T13:57:30Z</time>
      </trkpt>
      <trkpt lat="39.8925230" lon="-4.4624000">
        <ele>442.0</ele>
        <time>2022-03-01T13:57:31Z</time>
      </trkpt>
      <trkpt lat="39.8925230" lon="-4.4624000">
        <ele>442.0</ele>
        <time>2022-03-01T13:57:32Z</time>
      </trkpt>
      <trkpt lat="39.8925900" lon="-4.4624820">
        <ele>442.0</ele>
        <time>2022-03-01T13:57:33Z</time>
      </trkpt>
      <trkpt lat="39.8926200" lon="-4.4625220">
        <ele>442.0</ele>
        <time>2022-03-01T13:57:34Z</time>
      </trkpt>
      <trkpt lat="39.8926200" lon="-4.4625220">
        <ele>442.0</ele>
        <time>2022-03-01T13:57:35Z</time>
      </trkpt>
      <trkpt lat="39.8926930" lon="-4.4626070">
        <ele>442.0</ele>
        <time>2022-03-01T13:57:36Z</time>
      </trkpt>
      <trkpt lat="39.8927320" lon="-4.4626380">
        <ele>442.0</ele>
        <time>2022-03-01T13:57:37Z</time>
      </trkpt>
      <trkpt lat="39.8927320" lon="-4.4626380">
        <ele>442.0</ele>
        <time>2022-03-01T13:57:38Z</time>
      </trkpt>
      <trkpt lat="39.8928080" lon="-4.4626770">
        <ele>442.0</ele>
        <time>2022-03-01T13:57:39Z</time>
      </trkpt>
      <trkpt lat="39.8928500" lon="-4.4626830">
        <ele>442.0</ele>
        <time>2022-03-01T13:57:40Z</time>
      </trkpt>
      <trkpt lat="39.8928500" lon="-4.4626830">
        <ele>442.0</ele>
        <time>2022-03-01T13:57:41Z</time>
      </trkpt>
      <trkpt lat="39.8929400" lon="-4.4626730">
        <ele>442.0</ele>
        <time>2022-03-01T13:57:42Z</time>
      </trkpt>
      <trkpt lat="39.8929850" lon="-4.4626650">
        <ele>442.0</ele>
        <time>2022-03-01T13:57:43Z</time>
      </trkpt>
      <trkpt lat="39.8930330" lon="-4.4626630">
        <ele>442.0</ele>
        <time>2022-03-01T13:57:44Z</time>
      </trkpt>
      <trkpt lat="39.8930330" lon="-4.4626630">
        <ele>442.0</ele>
        <time>2022-03-01T13:57:45Z</time>
      </trkpt>
      <trkpt lat="39.8931100" lon="-4.4627100">
        <ele>442.0</ele>
        <time>2022-03-01T13:57:46Z</time>
      </trkpt>
      <trkpt lat="39.8931100" lon="-4.4627100">
        <ele>442.0</ele>
        <time>2022-03-01T13:57:47Z</time>
      </trkpt>
      <trkpt lat="39.8931520" lon="-4.4628200">
        <ele>442.0</ele>
        <time>2022-03-01T13:57:48Z</time>
      </trkpt>
      <trkpt lat="39.8931520" lon="-4.4628200">
        <ele>442.0</ele>
        <time>2022-03-01T13:57:49Z</time>
      </trkpt>
      <trkpt lat="39.8931480" lon="-4.4629520">
        <ele>442.0</ele>
        <time>2022-03-01T13:57:50Z</time>
      </trkpt>
      <trkpt lat="39.8931480" lon="-4.4629520">
        <ele>442.0</ele>
        <time>2022-03-01T13:57:51Z</time>
      </trkpt>
      <trkpt lat="39.8931350" lon="-4.4630900">
        <ele>442.0</ele>
        <time>2022-03-01T13:57:52Z</time>
      </trkpt>
      <trkpt lat="39.8931350" lon="-4.4630900">
        <ele>442.0</ele>
        <time>2022-03-01T13:57:53Z</time>
      </trkpt>
      <trkpt lat="39.8931420" lon="-4.4632230">
        <ele>442.0</ele>
        <time>2022-03-01T13:57:54Z</time>
      </trkpt>
      <trkpt lat="39.8931530" lon="-4.4632870">
        <ele>442.0</ele>
        <time>2022-03-01T13:57:55Z</time>
      </trkpt>
      <trkpt lat="39.8931530" lon="-4.4632870">
        <ele>442.0</ele>
        <time>2022-03-01T13:57:56Z</time>
      </trkpt>
      <trkpt lat="39.8931830" lon="-4.4634150">
        <ele>442.0</ele>
        <time>2022-03-01T13:57:57Z</time>
      </trkpt>
      <trkpt lat="39.8932000" lon="-4.4634800">
        <ele>442.0</ele>
        <time>2022-03-01T13:57:58Z</time>
      </trkpt>
      <trkpt lat="39.8932000" lon="-4.4634800">
        <ele>442.0</ele>
        <time>2022-03-01T13:57:59Z</time>
      </trkpt>
      <trkpt lat="39.8932400" lon="-4.4636150">
        <ele>442.0</ele>
        <time>2022-03-01T13:58:00Z</time>
      </trkpt>
      <trkpt lat="39.8932400" lon="-4.4636150">
        <ele>442.0</ele>
        <time>2022-03-01T13:58:01Z</time>
      </trkpt>
      <trkpt lat="39.8932850" lon="-4.4637500">
        <ele>442.0</ele>
        <time>2022-03-01T13:58:02Z</time>
      </trkpt>
      <trkpt lat="39.8933080" lon="-4.4638170">
        <ele>442.0</ele>
        <time>2022-03-01T13:58:03Z</time>
      </trkpt>
      <trkpt lat="39.8933320" lon="-4.4638870">
        <ele>442.0</ele>
        <time>2022-03-01T13:58:04Z</time>
      </trkpt>
      <trkpt lat="39.8933320" lon="-4.4638870">
        <ele>442.0</ele>
        <time>2022-03-01T13:58:05Z</time>
      </trkpt>
      <trkpt lat="39.8933800" lon="-4.4640230">
        <ele>442.0</ele>
        <time>2022-03-01T13:58:06Z</time>
      </trkpt>
      <trkpt lat="39.8933800" lon="-4.4640230">
        <ele>442.0</ele>
        <time>2022-03-01T13:58:07Z</time>
      </trkpt>
      <trkpt lat="39.8934330" lon="-4.4641630">
        <ele>442.0</ele>
        <time>2022-03-01T13:58:08Z</time>
      </trkpt>
      <trkpt lat="39.8934330" lon="-4.4641630">
        <ele>442.0</ele>
        <time>2022-03-01T13:58:09Z</time>
      </trkpt>
      <trkpt lat="39.8934900" lon="-4.4642980">
        <ele>442.0</ele>
        <time>2022-03-01T13:58:10Z</time>
      </trkpt>
      <trkpt lat="39.8935220" lon="-4.4643620">
        <ele>442.0</ele>
        <time>2022-03-01T13:58:11Z</time>
      </trkpt>
      <trkpt lat="39.8935220" lon="-4.4643620">
        <ele>442.0</ele>
        <time>2022-03-01T13:58:12Z</time>
      </trkpt>
      <trkpt lat="39.8935880" lon="-4.4644950">
        <ele>442.0</ele>
        <time>2022-03-01T13:58:13Z</time>
      </trkpt>
      <trkpt lat="39.8935880" lon="-4.4644950">
        <ele>442.0</ele>
        <time>2022-03-01T13:58:14Z</time>
      </trkpt>
      <trkpt lat="39.8936600" lon="-4.4646320">
        <ele>442.0</ele>
        <time>2022-03-01T13:58:15Z</time>
      </trkpt>
      <trkpt lat="39.8936980" lon="-4.4647020">
        <ele>442.0</ele>
        <time>2022-03-01T13:58:16Z</time>
      </trkpt>
      <trkpt lat="39.8936980" lon="-4.4647020">
        <ele>442.0</ele>
        <time>2022-03-01T13:58:17Z</time>
      </trkpt>
      <trkpt lat="39.8937750" lon="-4.4648430">
        <ele>442.0</ele>
        <time>2022-03-01T13:58:18Z</time>
      </trkpt>
      <trkpt lat="39.8937750" lon="-4.4648430">
        <ele>442.0</ele>
        <time>2022-03-01T13:58:19Z</time>
      </trkpt>
      <trkpt lat="39.8938570" lon="-4.4649870">
        <ele>442.0</ele>
        <time>2022-03-01T13:58:20Z</time>
      </trkpt>
      <trkpt lat="39.8939000" lon="-4.4650580">
        <ele>442.0</ele>
        <time>2022-03-01T13:58:21Z</time>
      </trkpt>
      <trkpt lat="39.8939000" lon="-4.4650580">
        <ele>442.0</ele>
        <time>2022-03-01T13:58:22Z</time>
      </trkpt>
      <trkpt lat="39.8939920" lon="-4.4652030">
        <ele>442.0</ele>
        <time>2022-03-01T13:58:23Z</time>
      </trkpt>
      <trkpt lat="39.8940400" lon="-4.4652750">
        <ele>442.0</ele>
        <time>2022-03-01T13:58:24Z</time>
      </trkpt>
      <trkpt lat="39.8940400" lon="-4.4652750">
        <ele>442.0</ele>
        <time>2022-03-01T13:58:25Z</time>
      </trkpt>
      <trkpt lat="39.8941470" lon="-4.4654070">
        <ele>442.0</ele>
        <time>2022-03-01T13:58:26Z</time>
      </trkpt>
      <trkpt lat="39.8941470" lon="-4.4654070">
        <ele>442.0</ele>
        <time>2022-03-01T13:58:27Z</time>
      </trkpt>
      <trkpt lat="39.8942530" lon="-4.4655570">
        <ele>442.0</ele>
        <time>2022-03-01T13:58:28Z</time>
      </trkpt>
      <trkpt lat="39.8942530" lon="-4.4655570">
        <ele>442.0</ele>
        <time>2022-03-01T13:58:29Z</time>
      </trkpt>
      <trkpt lat="39.8943620" lon="-4.4657120">
        <ele>442.0</ele>
        <time>2022-03-01T13:58:30Z</time>
      </trkpt>
      <trkpt lat="39.8943620" lon="-4.4657120">
        <ele>442.0</ele>
        <time>2022-03-01T13:58:31Z</time>
      </trkpt>
      <trkpt lat="39.8944720" lon="-4.4658630">
        <ele>442.0</ele>
        <time>2022-03-01T13:58:32Z</time>
      </trkpt>
      <trkpt lat="39.8945250" lon="-4.4659420">
        <ele>442.0</ele>
        <time>2022-03-01T13:58:33Z</time>
      </trkpt>
      <trkpt lat="39.8945780" lon="-4.4660200">
        <ele>442.0</ele>
        <time>2022-03-01T13:58:34Z</time>
      </trkpt>
      <trkpt lat="39.8946300" lon="-4.4661000">
        <ele>442.0</ele>
        <time>2022-03-01T13:58:35Z</time>
      </trkpt>
      <trkpt lat="39.8946300" lon="-4.4661000">
        <ele>442.0</ele>
        <time>2022-03-01T13:58:36Z</time>
      </trkpt>
      <trkpt lat="39.8947380" lon="-4.4662670">
        <ele>442.0</ele>
        <time>2022-03-01T13:58:37Z</time>
      </trkpt>
      <trkpt lat="39.8947380" lon="-4.4662670">
        <ele>442.0</ele>
        <time>2022-03-01T13:58:38Z</time>
      </trkpt>
      <trkpt lat="39.8948500" lon="-4.4664430">
        <ele>442.0</ele>
        <time>2022-03-01T13:58:39Z</time>
      </trkpt>
      <trkpt lat="39.8948500" lon="-4.4664430">
        <ele>442.0</ele>
        <time>2022-03-01T13:58:40Z</time>
      </trkpt>
      <trkpt lat="39.8949550" lon="-4.4666300">
        <ele>442.0</ele>
        <time>2022-03-01T13:58:41Z</time>
      </trkpt>
      <trkpt lat="39.8949550" lon="-4.4666300">
        <ele>442.0</ele>
        <time>2022-03-01T13:58:42Z</time>
      </trkpt>
      <trkpt lat="39.8950620" lon="-4.4668230">
        <ele>442.0</ele>
        <time>2022-03-01T13:58:43Z</time>
      </trkpt>
      <trkpt lat="39.8950620" lon="-4.4668230">
        <ele>442.0</ele>
        <time>2022-03-01T13:58:44Z</time>
      </trkpt>
      <trkpt lat="39.8951650" lon="-4.4670270">
        <ele>442.0</ele>
        <time>2022-03-01T13:58:45Z</time>
      </trkpt>
      <trkpt lat="39.8952170" lon="-4.4671320">
        <ele>442.0</ele>
        <time>2022-03-01T13:58:46Z</time>
      </trkpt>
      <trkpt lat="39.8952170" lon="-4.4671320">
        <ele>442.0</ele>
        <time>2022-03-01T13:58:47Z</time>
      </trkpt>
      <trkpt lat="39.8953170" lon="-4.4673500">
        <ele>442.0</ele>
        <time>2022-03-01T13:58:48Z</time>
      </trkpt>
      <trkpt lat="39.8953170" lon="-4.4673500">
        <ele>442.0</ele>
        <time>2022-03-01T13:58:49Z</time>
      </trkpt>
      <trkpt lat="39.8954120" lon="-4.4675780">
        <ele>442.0</ele>
        <time>2022-03-01T13:58:50Z</time>
      </trkpt>
      <trkpt lat="39.8954120" lon="-4.4675780">
        <ele>442.0</ele>
        <time>2022-03-01T13:58:51Z</time>
      </trkpt>
      <trkpt lat="39.8955020" lon="-4.4678180">
        <ele>442.0</ele>
        <time>2022-03-01T13:58:52Z</time>
      </trkpt>
      <trkpt lat="39.8955020" lon="-4.4678180">
        <ele>442.0</ele>
        <time>2022-03-01T13:58:53Z</time>
      </trkpt>
      <trkpt lat="39.8955880" lon="-4.4680680">
        <ele>442.0</ele>
        <time>2022-03-01T13:58:54Z</time>
      </trkpt>
      <trkpt lat="39.8956320" lon="-4.4681970">
        <ele>442.0</ele>
        <time>2022-03-01T13:58:55Z</time>
      </trkpt>
      <trkpt lat="39.8956720" lon="-4.4683270">
        <ele>442.0</ele>
        <time>2022-03-01T13:58:56Z</time>
      </trkpt>
      <trkpt lat="39.8956720" lon="-4.4683270">
        <ele>442.0</ele>
        <time>2022-03-01T13:58:57Z</time>
      </trkpt>
      <trkpt lat="39.8957470" lon="-4.4685930">
        <ele>442.0</ele>
        <time>2022-03-01T13:58:58Z</time>
      </trkpt>
      <trkpt lat="39.8957470" lon="-4.4685930">
        <ele>442.0</ele>
        <time>2022-03-01T13:58:59Z</time>
      </trkpt>
      <trkpt lat="39.8958200" lon="-4.4688620">
        <ele>442.0</ele>
        <time>2022-03-01T13:59:00Z</time>
      </trkpt>
      <trkpt lat="39.8958570" lon="-4.4689950">
        <ele>442.0</ele>
        <time>2022-03-01T13:59:01Z</time>
      </trkpt>
      <trkpt lat="39.8958570" lon="-4.4689950">
        <ele>442.0</ele>
        <time>2022-03-01T13:59:02Z</time>
      </trkpt>
      <trkpt lat="39.8959320" lon="-4.4692620">
        <ele>442.0</ele>
        <time>2022-03-01T13:59:03Z</time>
      </trkpt>
      <trkpt lat="39.8959320" lon="-4.4692620">
        <ele>442.0</ele>
        <time>2022-03-01T13:59:04Z</time>
      </trkpt>
      <trkpt lat="39.8960070" lon="-4.4695320">
        <ele>442.0</ele>
        <time>2022-03-01T13:59:05Z</time>
      </trkpt>
      <trkpt lat="39.8960070" lon="-4.4695320">
        <ele>442.0</ele>
        <time>2022-03-01T13:59:06Z</time>
      </trkpt>
      <trkpt lat="39.8960820" lon="-4.4698030">
        <ele>442.0</ele>
        <time>2022-03-01T13:59:07Z</time>
      </trkpt>
      <trkpt lat="39.8961180" lon="-4.4699400">
        <ele>442.0</ele>
        <time>2022-03-01T13:59:08Z</time>
      </trkpt>
      <trkpt lat="39.8961550" lon="-4.4700780">
        <ele>442.0</ele>
        <time>2022-03-01T13:59:09Z</time>
      </trkpt>
      <trkpt lat="39.8961550" lon="-4.4700780">
        <ele>442.0</ele>
        <time>2022-03-01T13:59:10Z</time>
      </trkpt>
      <trkpt lat="39.8962320" lon="-4.4703520">
        <ele>442.0</ele>
        <time>2022-03-01T13:59:11Z</time>
      </trkpt>
      <trkpt lat="39.8962320" lon="-4.4703520">
        <ele>442.0</ele>
        <time>2022-03-01T13:59:12Z</time>
      </trkpt>
      <trkpt lat="39.8963050" lon="-4.4706250">
        <ele>442.0</ele>
        <time>2022-03-01T13:59:13Z</time>
      </trkpt>
      <trkpt lat="39.8963050" lon="-4.4706250">
        <ele>442.0</ele>
        <time>2022-03-01T13:59:14Z</time>
      </trkpt>
      <trkpt lat="39.8963800" lon="-4.4708970">
        <ele>442.0</ele>
        <time>2022-03-01T13:59:15Z</time>
      </trkpt>
      <trkpt lat="39.8964170" lon="-4.4710300">
        <ele>442.0</ele>
        <time>2022-03-01T13:59:16Z</time>
      </trkpt>
      <trkpt lat="39.8964170" lon="-4.4710300">
        <ele>442.0</ele>
        <time>2022-03-01T13:59:17Z</time>
      </trkpt>
      <trkpt lat="39.8964880" lon="-4.4712920">
        <ele>442.0</ele>
        <time>2022-03-01T13:59:18Z</time>
      </trkpt>
      <trkpt lat="39.8964880" lon="-4.4712920">
        <ele>442.0</ele>
        <time>2022-03-01T13:59:19Z</time>
      </trkpt>
      <trkpt lat="39.8965580" lon="-4.4715470">
        <ele>442.0</ele>
        <time>2022-03-01T13:59:20Z</time>
      </trkpt>
      <trkpt lat="39.8965930" lon="-4.4716720">
        <ele>442.0</ele>
        <time>2022-03-01T13:59:21Z</time>
      </trkpt>
      <trkpt lat="39.8965930" lon="-4.4716720">
        <ele>442.0</ele>
        <time>2022-03-01T13:59:22Z</time>
      </trkpt>
      <trkpt lat="39.8966580" lon="-4.4719200">
        <ele>442.0</ele>
        <time>2022-03-01T13:59:23Z</time>
      </trkpt>
      <trkpt lat="39.8966920" lon="-4.4720430">
        <ele>442.0</ele>
        <time>2022-03-01T13:59:24Z</time>
      </trkpt>
      <trkpt lat="39.8967270" lon="-4.4721650">
        <ele>442.0</ele>
        <time>2022-03-01T13:59:25Z</time>
      </trkpt>
      <trkpt lat="39.8967270" lon="-4.4721650">
        <ele>442.0</ele>
        <time>2022-03-01T13:59:26Z</time>
      </trkpt>
      <trkpt lat="39.8967950" lon="-4.4724050">
        <ele>442.0</ele>
        <time>2022-03-01T13:59:27Z</time>
      </trkpt>
      <trkpt lat="39.8968280" lon="-4.4725250">
        <ele>442.0</ele>
        <time>2022-03-01T13:59:28Z</time>
      </trkpt>
      <trkpt lat="39.8968280" lon="-4.4725250">
        <ele>442.0</ele>
        <time>2022-03-01T13:59:29Z</time>
      </trkpt>
      <trkpt lat="39.8968950" lon="-4.4727650">
        <ele>442.0</ele>
        <time>2022-03-01T13:59:30Z</time>
      </trkpt>
      <trkpt lat="39.8968950" lon="-4.4727650">
        <ele>442.0</ele>
        <time>2022-03-01T13:59:31Z</time>
      </trkpt>
      <trkpt lat="39.8969600" lon="-4.4730070">
        <ele>442.0</ele>
        <time>2022-03-01T13:59:32Z</time>
      </trkpt>
      <trkpt lat="39.8969600" lon="-4.4730070">
        <ele>442.0</ele>
        <time>2022-03-01T13:59:33Z</time>
      </trkpt>
      <trkpt lat="39.8970250" lon="-4.4732470">
        <ele>442.0</ele>
        <time>2022-03-01T13:59:34Z</time>
      </trkpt>
      <trkpt lat="39.8970580" lon="-4.4733670">
        <ele>442.0</ele>
        <time>2022-03-01T13:59:35Z</time>
      </trkpt>
      <trkpt lat="39.8970580" lon="-4.4733670">
        <ele>442.0</ele>
        <time>2022-03-01T13:59:36Z</time>
      </trkpt>
      <trkpt lat="39.8971270" lon="-4.4736070">
        <ele>442.0</ele>
        <time>2022-03-01T13:59:37Z</time>
      </trkpt>
      <trkpt lat="39.8971270" lon="-4.4736070">
        <ele>442.0</ele>
        <time>2022-03-01T13:59:38Z</time>
      </trkpt>
      <trkpt lat="39.8971920" lon="-4.4738500">
        <ele>442.0</ele>
        <time>2022-03-01T13:59:39Z</time>
      </trkpt>
      <trkpt lat="39.8972250" lon="-4.4739720">
        <ele>442.0</ele>
        <time>2022-03-01T13:59:40Z</time>
      </trkpt>
      <trkpt lat="39.8972250" lon="-4.4739720">
        <ele>442.0</ele>
        <time>2022-03-01T13:59:41Z</time>
      </trkpt>
      <trkpt lat="39.8972920" lon="-4.4742170">
        <ele>442.0</ele>
        <time>2022-03-01T13:59:42Z</time>
      </trkpt>
      <trkpt lat="39.8972920" lon="-4.4742170">
        <ele>442.0</ele>
        <time>2022-03-01T13:59:43Z</time>
      </trkpt>
      <trkpt lat="39.8973600" lon="-4.4744600">
        <ele>442.0</ele>
        <time>2022-03-01T13:59:44Z</time>
      </trkpt>
      <trkpt lat="39.8973600" lon="-4.4744600">
        <ele>442.0</ele>
        <time>2022-03-01T13:59:45Z</time>
      </trkpt>
      <trkpt lat="39.8974270" lon="-4.4747030">
        <ele>442.0</ele>
        <time>2022-03-01T13:59:46Z</time>
      </trkpt>
      <trkpt lat="39.8974270" lon="-4.4747030">
        <ele>442.0</ele>
        <time>2022-03-01T13:59:47Z</time>
      </trkpt>
      <trkpt lat="39.8974930" lon="-4.4749450">
        <ele>442.0</ele>
        <time>2022-03-01T13:59:48Z</time>
      </trkpt>
      <trkpt lat="39.8975270" lon="-4.4750670">
        <ele>442.0</ele>
        <time>2022-03-01T13:59:49Z</time>
      </trkpt>
      <trkpt lat="39.8975270" lon="-4.4750670">
        <ele>442.0</ele>
        <time>2022-03-01T13:59:50Z</time>
      </trkpt>
      <trkpt lat="39.8975930" lon="-4.4753100">
        <ele>442.0</ele>
        <time>2022-03-01T13:59:51Z</time>
      </trkpt>
      <trkpt lat="39.8976270" lon="-4.4754320">
        <ele>442.0</ele>
        <time>2022-03-01T13:59:52Z</time>
      </trkpt>
      <trkpt lat="39.8976270" lon="-4.4754320">
        <ele>442.0</ele>
        <time>2022-03-01T13:59:53Z</time>
      </trkpt>
      <trkpt lat="39.8976900" lon="-4.4756750">
        <ele>442.0</ele>
        <time>2022-03-01T13:59:54Z</time>
      </trkpt>
      <trkpt lat="39.8977230" lon="-4.4757980">
        <ele>442.0</ele>
        <time>2022-03-01T13:59:55Z</time>
      </trkpt>
      <trkpt lat="39.8977230" lon="-4.4757980">
        <ele>442.0</ele>
        <time>2022-03-01T13:59:56Z</time>
      </trkpt>
      <trkpt lat="39.8977930" lon="-4.4760480">
        <ele>442.0</ele>
        <time>2022-03-01T13:59:57Z</time>
      </trkpt>
      <trkpt lat="39.8977930" lon="-4.4760480">
        <ele>442.0</ele>
        <time>2022-03-01T13:59:58Z</time>
      </trkpt>
      <trkpt lat="39.8978630" lon="-4.4763000">
        <ele>442.0</ele>
        <time>2022-03-01T13:59:59Z</time>
      </trkpt>
      <trkpt lat="39.8978630" lon="-4.4763000">
        <ele>442.0</ele>
        <time>2022-03-01T14:00:00Z</time>
      </trkpt>
      <trkpt lat="39.8979320" lon="-4.4765580">
        <ele>442.0</ele>
        <time>2022-03-01T14:00:01Z</time>
      </trkpt>
      <trkpt lat="39.8979320" lon="-4.4765580">
        <ele>442.0</ele>
        <time>2022-03-01T14:00:02Z</time>
      </trkpt>
      <trkpt lat="39.8980030" lon="-4.4768220">
        <ele>442.0</ele>
        <time>2022-03-01T14:00:03Z</time>
      </trkpt>
      <trkpt lat="39.8980400" lon="-4.4769550">
        <ele>442.0</ele>
        <time>2022-03-01T14:00:04Z</time>
      </trkpt>
      <trkpt lat="39.8980400" lon="-4.4769550">
        <ele>442.0</ele>
        <time>2022-03-01T14:00:05Z</time>
      </trkpt>
      <trkpt lat="39.8981130" lon="-4.4772200">
        <ele>442.0</ele>
        <time>2022-03-01T14:00:06Z</time>
      </trkpt>
      <trkpt lat="39.8981130" lon="-4.4772200">
        <ele>441.0</ele>
        <time>2022-03-01T14:00:07Z</time>
      </trkpt>
      <trkpt lat="39.8981870" lon="-4.4774870">
        <ele>441.0</ele>
        <time>2022-03-01T14:00:08Z</time>
      </trkpt>
      <trkpt lat="39.8981870" lon="-4.4774870">
        <ele>439.0</ele>
        <time>2022-03-01T14:00:09Z</time>
      </trkpt>
      <trkpt lat="39.8982580" lon="-4.4777520">
        <ele>439.0</ele>
        <time>2022-03-01T14:00:10Z</time>
      </trkpt>
      <trkpt lat="39.8982580" lon="-4.4777520">
        <ele>437.0</ele>
        <time>2022-03-01T14:00:11Z</time>
      </trkpt>
      <trkpt lat="39.8983280" lon="-4.4780170">
        <ele>437.0</ele>
        <time>2022-03-01T14:00:12Z</time>
      </trkpt>
      <trkpt lat="39.8983650" lon="-4.4781480">
        <ele>437.0</ele>
        <time>2022-03-01T14:00:13Z</time>
      </trkpt>
      <trkpt lat="39.8983650" lon="-4.4781480">
        <ele>437.0</ele>
        <time>2022-03-01T14:00:14Z</time>
      </trkpt>
      <trkpt lat="39.8984380" lon="-4.4784120">
        <ele>436.0</ele>
        <time>2022-03-01T14:00:15Z</time>
      </trkpt>
      <trkpt lat="39.8984750" lon="-4.4785470">
        <ele>436.0</ele>
        <time>2022-03-01T14:00:16Z</time>
      </trkpt>
      <trkpt lat="39.8984750" lon="-4.4785470">
        <ele>435.0</ele>
        <time>2022-03-01T14:00:17Z</time>
      </trkpt>
      <trkpt lat="39.8985470" lon="-4.4788120">
        <ele>435.0</ele>
        <time>2022-03-01T14:00:18Z</time>
      </trkpt>
      <trkpt lat="39.8985470" lon="-4.4788120">
        <ele>435.0</ele>
        <time>2022-03-01T14:00:19Z</time>
      </trkpt>
      <trkpt lat="39.8986180" lon="-4.4790770">
        <ele>435.0</ele>
        <time>2022-03-01T14:00:20Z</time>
      </trkpt>
      <trkpt lat="39.8986180" lon="-4.4790770">
        <ele>435.0</ele>
        <time>2022-03-01T14:00:21Z</time>
      </trkpt>
      <trkpt lat="39.8986920" lon="-4.4793450">
        <ele>433.0</ele>
        <time>2022-03-01T14:00:22Z</time>
      </trkpt>
      <trkpt lat="39.8986920" lon="-4.4793450">
        <ele>433.0</ele>
        <time>2022-03-01T14:00:23Z</time>
      </trkpt>
      <trkpt lat="39.8987650" lon="-4.4796170">
        <ele>432.0</ele>
        <time>2022-03-01T14:00:24Z</time>
      </trkpt>
      <trkpt lat="39.8987650" lon="-4.4796170">
        <ele>432.0</ele>
        <time>2022-03-01T14:00:25Z</time>
      </trkpt>
      <trkpt lat="39.8988380" lon="-4.4798850">
        <ele>432.0</ele>
        <time>2022-03-01T14:00:26Z</time>
      </trkpt>
      <trkpt lat="39.8988750" lon="-4.4800220">
        <ele>432.0</ele>
        <time>2022-03-01T14:00:27Z</time>
      </trkpt>
      <trkpt lat="39.8989130" lon="-4.4801550">
        <ele>432.0</ele>
        <time>2022-03-01T14:00:28Z</time>
      </trkpt>
      <trkpt lat="39.8989130" lon="-4.4801550">
        <ele>432.0</ele>
        <time>2022-03-01T14:00:29Z</time>
      </trkpt>
      <trkpt lat="39.8989880" lon="-4.4804270">
        <ele>432.0</ele>
        <time>2022-03-01T14:00:30Z</time>
      </trkpt>
      <trkpt lat="39.8989880" lon="-4.4804270">
        <ele>432.0</ele>
        <time>2022-03-01T14:00:31Z</time>
      </trkpt>
      <trkpt lat="39.8990620" lon="-4.4806970">
        <ele>432.0</ele>
        <time>2022-03-01T14:00:32Z</time>
      </trkpt>
      <trkpt lat="39.8990620" lon="-4.4806970">
        <ele>432.0</ele>
        <time>2022-03-01T14:00:33Z</time>
      </trkpt>
      <trkpt lat="39.8991330" lon="-4.4809620">
        <ele>442.0</ele>
        <time>2022-03-01T14:00:34Z</time>
      </trkpt>
      <trkpt lat="39.8991330" lon="-4.4809620">
        <ele>442.0</ele>
        <time>2022-03-01T14:00:35Z</time>
      </trkpt>
      <trkpt lat="39.8992050" lon="-4.4812220">
        <ele>441.0</ele>
        <time>2022-03-01T14:00:36Z</time>
      </trkpt>
      <trkpt lat="39.8992050" lon="-4.4812220">
        <ele>441.0</ele>
        <time>2022-03-01T14:00:37Z</time>
      </trkpt>
      <trkpt lat="39.8992750" lon="-4.4814780">
        <ele>440.0</ele>
        <time>2022-03-01T14:00:38Z</time>
      </trkpt>
      <trkpt lat="39.8992750" lon="-4.4814780">
        <ele>440.0</ele>
        <time>2022-03-01T14:00:39Z</time>
      </trkpt>
      <trkpt lat="39.8993450" lon="-4.4817330">
        <ele>440.0</ele>
        <time>2022-03-01T14:00:40Z</time>
      </trkpt>
      <trkpt lat="39.8993800" lon="-4.4818600">
        <ele>440.0</ele>
        <time>2022-03-01T14:00:41Z</time>
      </trkpt>
      <trkpt lat="39.8993800" lon="-4.4818600">
        <ele>439.0</ele>
        <time>2022-03-01T14:00:42Z</time>
      </trkpt>
      <trkpt lat="39.8994470" lon="-4.4821130">
        <ele>439.0</ele>
        <time>2022-03-01T14:00:43Z</time>
      </trkpt>
      <trkpt lat="39.8994470" lon="-4.4821130">
        <ele>438.0</ele>
        <time>2022-03-01T14:00:44Z</time>
      </trkpt>
      <trkpt lat="39.8995130" lon="-4.4823630">
        <ele>438.0</ele>
        <time>2022-03-01T14:00:45Z</time>
      </trkpt>
      <trkpt lat="39.8995130" lon="-4.4823630">
        <ele>438.0</ele>
        <time>2022-03-01T14:00:46Z</time>
      </trkpt>
      <trkpt lat="39.8995780" lon="-4.4826080">
        <ele>437.0</ele>
        <time>2022-03-01T14:00:47Z</time>
      </trkpt>
      <trkpt lat="39.8995780" lon="-4.4826080">
        <ele>437.0</ele>
        <time>2022-03-01T14:00:48Z</time>
      </trkpt>
      <trkpt lat="39.8996450" lon="-4.4828480">
        <ele>436.0</ele>
        <time>2022-03-01T14:00:49Z</time>
      </trkpt>
      <trkpt lat="39.8996780" lon="-4.4829680">
        <ele>436.0</ele>
        <time>2022-03-01T14:00:50Z</time>
      </trkpt>
      <trkpt lat="39.8996780" lon="-4.4829680">
        <ele>435.0</ele>
        <time>2022-03-01T14:00:51Z</time>
      </trkpt>
      <trkpt lat="39.8997430" lon="-4.4832070">
        <ele>435.0</ele>
        <time>2022-03-01T14:00:52Z</time>
      </trkpt>
      <trkpt lat="39.8997430" lon="-4.4832070">
        <ele>434.0</ele>
        <time>2022-03-01T14:00:53Z</time>
      </trkpt>
      <trkpt lat="39.8998070" lon="-4.4834400">
        <ele>434.0</ele>
        <time>2022-03-01T14:00:54Z</time>
      </trkpt>
      <trkpt lat="39.8998380" lon="-4.4835570">
        <ele>434.0</ele>
        <time>2022-03-01T14:00:55Z</time>
      </trkpt>
      <trkpt lat="39.8998700" lon="-4.4836730">
        <ele>434.0</ele>
        <time>2022-03-01T14:00:56Z</time>
      </trkpt>
      <trkpt lat="39.8999020" lon="-4.4837920">
        <ele>434.0</ele>
        <time>2022-03-01T14:00:57Z</time>
      </trkpt>
      <trkpt lat="39.8999020" lon="-4.4837920">
        <ele>433.0</ele>
        <time>2022-03-01T14:00:58Z</time>
      </trkpt>
      <trkpt lat="39.8999670" lon="-4.4840270">
        <ele>433.0</ele>
        <time>2022-03-01T14:00:59Z</time>
      </trkpt>
      <trkpt lat="39.8999980" lon="-4.4841450">
        <ele>433.0</ele>
        <time>2022-03-01T14:01:00Z</time>
      </trkpt>
      <trkpt lat="39.8999980" lon="-4.4841450">
        <ele>433.0</ele>
        <time>2022-03-01T14:01:01Z</time>
      </trkpt>
      <trkpt lat="39.9000630" lon="-4.4843830">
        <ele>432.0</ele>
        <time>2022-03-01T14:01:02Z</time>
      </trkpt>
      <trkpt lat="39.9000630" lon="-4.4843830">
        <ele>432.0</ele>
        <time>2022-03-01T14:01:03Z</time>
      </trkpt>
      <trkpt lat="39.9001270" lon="-4.4846200">
        <ele>432.0</ele>
        <time>2022-03-01T14:01:04Z</time>
      </trkpt>
      <trkpt lat="39.9001270" lon="-4.4846200">
        <ele>432.0</ele>
        <time>2022-03-01T14:01:05Z</time>
      </trkpt>
      <trkpt lat="39.9001920" lon="-4.4848550">
        <ele>431.0</ele>
        <time>2022-03-01T14:01:06Z</time>
      </trkpt>
      <trkpt lat="39.9001920" lon="-4.4848550">
        <ele>431.0</ele>
        <time>2022-03-01T14:01:07Z</time>
      </trkpt>
      <trkpt lat="39.9002580" lon="-4.4850900">
        <ele>431.0</ele>
        <time>2022-03-01T14:01:08Z</time>
      </trkpt>
      <trkpt lat="39.9002580" lon="-4.4850900">
        <ele>431.0</ele>
        <time>2022-03-01T14:01:09Z</time>
      </trkpt>
      <trkpt lat="39.9003220" lon="-4.4853270">
        <ele>431.0</ele>
        <time>2022-03-01T14:01:10Z</time>
      </trkpt>
      <trkpt lat="39.9003220" lon="-4.4853270">
        <ele>431.0</ele>
        <time>2022-03-01T14:01:11Z</time>
      </trkpt>
      <trkpt lat="39.9003850" lon="-4.4855580">
        <ele>430.0</ele>
        <time>2022-03-01T14:01:12Z</time>
      </trkpt>
      <trkpt lat="39.9003850" lon="-4.4855580">
        <ele>430.0</ele>
        <time>2022-03-01T14:01:13Z</time>
      </trkpt>
      <trkpt lat="39.9004470" lon="-4.4857870">
        <ele>430.0</ele>
        <time>2022-03-01T14:01:14Z</time>
      </trkpt>
      <trkpt lat="39.9004470" lon="-4.4857870">
        <ele>430.0</ele>
        <time>2022-03-01T14:01:15Z</time>
      </trkpt>
      <trkpt lat="39.9005070" lon="-4.4860100">
        <ele>430.0</ele>
        <time>2022-03-01T14:01:16Z</time>
      </trkpt>
      <trkpt lat="39.9005070" lon="-4.4860100">
        <ele>430.0</ele>
        <time>2022-03-01T14:01:17Z</time>
      </trkpt>
      <trkpt lat="39.9005670" lon="-4.4862300">
        <ele>429.0</ele>
        <time>2022-03-01T14:01:18Z</time>
      </trkpt>
      <trkpt lat="39.9005670" lon="-4.4862300">
        <ele>429.0</ele>
        <time>2022-03-01T14:01:19Z</time>
      </trkpt>
      <trkpt lat="39.9006270" lon="-4.4864480">
        <ele>429.0</ele>
        <time>2022-03-01T14:01:20Z</time>
      </trkpt>
      <trkpt lat="39.9006270" lon="-4.4864480">
        <ele>429.0</ele>
        <time>2022-03-01T14:01:21Z</time>
      </trkpt>
      <trkpt lat="39.9006880" lon="-4.4866670">
        <ele>429.0</ele>
        <time>2022-03-01T14:01:22Z</time>
      </trkpt>
      <trkpt lat="39.9006880" lon="-4.4866670">
        <ele>429.0</ele>
        <time>2022-03-01T14:01:23Z</time>
      </trkpt>
      <trkpt lat="39.9007470" lon="-4.4868870">
        <ele>429.0</ele>
        <time>2022-03-01T14:01:24Z</time>
      </trkpt>
      <trkpt lat="39.9007470" lon="-4.4868870">
        <ele>429.0</ele>
        <time>2022-03-01T14:01:25Z</time>
      </trkpt>
      <trkpt lat="39.9008070" lon="-4.4871080">
        <ele>429.0</ele>
        <time>2022-03-01T14:01:26Z</time>
      </trkpt>
      <trkpt lat="39.9008070" lon="-4.4871080">
        <ele>429.0</ele>
        <time>2022-03-01T14:01:27Z</time>
      </trkpt>
      <trkpt lat="39.9008680" lon="-4.4873320">
        <ele>428.0</ele>
        <time>2022-03-01T14:01:28Z</time>
      </trkpt>
      <trkpt lat="39.9008680" lon="-4.4873320">
        <ele>428.0</ele>
        <time>2022-03-01T14:01:29Z</time>
      </trkpt>
      <trkpt lat="39.9009280" lon="-4.4875570">
        <ele>428.0</ele>
        <time>2022-03-01T14:01:30Z</time>
      </trkpt>
      <trkpt lat="39.9009280" lon="-4.4875570">
        <ele>428.0</ele>
        <time>2022-03-01T14:01:31Z</time>
      </trkpt>
      <trkpt lat="39.9009900" lon="-4.4877820">
        <ele>428.0</ele>
        <time>2022-03-01T14:01:32Z</time>
      </trkpt>
      <trkpt lat="39.9010220" lon="-4.4878970">
        <ele>428.0</ele>
        <time>2022-03-01T14:01:33Z</time>
      </trkpt>
      <trkpt lat="39.9010220" lon="-4.4878970">
        <ele>428.0</ele>
        <time>2022-03-01T14:01:34Z</time>
      </trkpt>
      <trkpt lat="39.9010830" lon="-4.4881250">
        <ele>428.0</ele>
        <time>2022-03-01T14:01:35Z</time>
      </trkpt>
      <trkpt lat="39.9010830" lon="-4.4881250">
        <ele>427.0</ele>
        <time>2022-03-01T14:01:36Z</time>
      </trkpt>
      <trkpt lat="39.9011470" lon="-4.4883550">
        <ele>427.0</ele>
        <time>2022-03-01T14:01:37Z</time>
      </trkpt>
      <trkpt lat="39.9011470" lon="-4.4883550">
        <ele>427.0</ele>
        <time>2022-03-01T14:01:38Z</time>
      </trkpt>
      <trkpt lat="39.9012100" lon="-4.4885820">
        <ele>427.0</ele>
        <time>2022-03-01T14:01:39Z</time>
      </trkpt>
      <trkpt lat="39.9012100" lon="-4.4885820">
        <ele>427.0</ele>
        <time>2022-03-01T14:01:40Z</time>
      </trkpt>
      <trkpt lat="39.9012700" lon="-4.4888050">
        <ele>427.0</ele>
        <time>2022-03-01T14:01:41Z</time>
      </trkpt>
      <trkpt lat="39.9012700" lon="-4.4888050">
        <ele>426.0</ele>
        <time>2022-03-01T14:01:42Z</time>
      </trkpt>
      <trkpt lat="39.9013320" lon="-4.4890300">
        <ele>426.0</ele>
        <time>2022-03-01T14:01:43Z</time>
      </trkpt>
      <trkpt lat="39.9013320" lon="-4.4890300">
        <ele>426.0</ele>
        <time>2022-03-01T14:01:44Z</time>
      </trkpt>
      <trkpt lat="39.9013920" lon="-4.4892530">
        <ele>426.0</ele>
        <time>2022-03-01T14:01:45Z</time>
      </trkpt>
      <trkpt lat="39.9014220" lon="-4.4893630">
        <ele>426.0</ele>
        <time>2022-03-01T14:01:46Z</time>
      </trkpt>
      <trkpt lat="39.9014220" lon="-4.4893630">
        <ele>426.0</ele>
        <time>2022-03-01T14:01:47Z</time>
      </trkpt>
      <trkpt lat="39.9014820" lon="-4.4895880">
        <ele>426.0</ele>
        <time>2022-03-01T14:01:48Z</time>
      </trkpt>
      <trkpt lat="39.9014820" lon="-4.4895880">
        <ele>426.0</ele>
        <time>2022-03-01T14:01:49Z</time>
      </trkpt>
      <trkpt lat="39.9015430" lon="-4.4898130">
        <ele>426.0</ele>
        <time>2022-03-01T14:01:50Z</time>
      </trkpt>
      <trkpt lat="39.9015730" lon="-4.4899250">
        <ele>425.0</ele>
        <time>2022-03-01T14:01:51Z</time>
      </trkpt>
      <trkpt lat="39.9015730" lon="-4.4899250">
        <ele>425.0</ele>
        <time>2022-03-01T14:01:52Z</time>
      </trkpt>
      <trkpt lat="39.9016330" lon="-4.4901450">
        <ele>424.0</ele>
        <time>2022-03-01T14:01:53Z</time>
      </trkpt>
      <trkpt lat="39.9016630" lon="-4.4902520">
        <ele>424.0</ele>
        <time>2022-03-01T14:01:54Z</time>
      </trkpt>
      <trkpt lat="39.9016920" lon="-4.4903600">
        <ele>424.0</ele>
        <time>2022-03-01T14:01:55Z</time>
      </trkpt>
      <trkpt lat="39.9016920" lon="-4.4903600">
        <ele>424.0</ele>
        <time>2022-03-01T14:01:56Z</time>
      </trkpt>
      <trkpt lat="39.9017500" lon="-4.4905700">
        <ele>424.0</ele>
        <time>2022-03-01T14:01:57Z</time>
      </trkpt>
      <trkpt lat="39.9017500" lon="-4.4905700">
        <ele>424.0</ele>
        <time>2022-03-01T14:01:58Z</time>
      </trkpt>
      <trkpt lat="39.9018070" lon="-4.4907780">
        <ele>424.0</ele>
        <time>2022-03-01T14:01:59Z</time>
      </trkpt>
      <trkpt lat="39.9018330" lon="-4.4908830">
        <ele>424.0</ele>
        <time>2022-03-01T14:02:00Z</time>
      </trkpt>
      <trkpt lat="39.9018330" lon="-4.4908830">
        <ele>423.0</ele>
        <time>2022-03-01T14:02:01Z</time>
      </trkpt>
      <trkpt lat="39.9018880" lon="-4.4910880">
        <ele>423.0</ele>
        <time>2022-03-01T14:02:02Z</time>
      </trkpt>
      <trkpt lat="39.9018880" lon="-4.4910880">
        <ele>423.0</ele>
        <time>2022-03-01T14:02:03Z</time>
      </trkpt>
      <trkpt lat="39.9019420" lon="-4.4912880">
        <ele>423.0</ele>
        <time>2022-03-01T14:02:04Z</time>
      </trkpt>
      <trkpt lat="39.9019420" lon="-4.4912880">
        <ele>423.0</ele>
        <time>2022-03-01T14:02:05Z</time>
      </trkpt>
      <trkpt lat="39.9019950" lon="-4.4914870">
        <ele>423.0</ele>
        <time>2022-03-01T14:02:06Z</time>
      </trkpt>
      <trkpt lat="39.9020220" lon="-4.4915850">
        <ele>423.0</ele>
        <time>2022-03-01T14:02:07Z</time>
      </trkpt>
      <trkpt lat="39.9020220" lon="-4.4915850">
        <ele>423.0</ele>
        <time>2022-03-01T14:02:08Z</time>
      </trkpt>
      <trkpt lat="39.9020730" lon="-4.4917820">
        <ele>423.0</ele>
        <time>2022-03-01T14:02:09Z</time>
      </trkpt>
      <trkpt lat="39.9021000" lon="-4.4918820">
        <ele>423.0</ele>
        <time>2022-03-01T14:02:10Z</time>
      </trkpt>
      <trkpt lat="39.9021000" lon="-4.4918820">
        <ele>423.0</ele>
        <time>2022-03-01T14:02:11Z</time>
      </trkpt>
      <trkpt lat="39.9021550" lon="-4.4920820">
        <ele>423.0</ele>
        <time>2022-03-01T14:02:12Z</time>
      </trkpt>
      <trkpt lat="39.9021550" lon="-4.4920820">
        <ele>423.0</ele>
        <time>2022-03-01T14:02:13Z</time>
      </trkpt>
      <trkpt lat="39.9022080" lon="-4.4922800">
        <ele>423.0</ele>
        <time>2022-03-01T14:02:14Z</time>
      </trkpt>
      <trkpt lat="39.9022080" lon="-4.4922800">
        <ele>423.0</ele>
        <time>2022-03-01T14:02:15Z</time>
      </trkpt>
      <trkpt lat="39.9022630" lon="-4.4924800">
        <ele>423.0</ele>
        <time>2022-03-01T14:02:16Z</time>
      </trkpt>
      <trkpt lat="39.9022630" lon="-4.4924800">
        <ele>423.0</ele>
        <time>2022-03-01T14:02:17Z</time>
      </trkpt>
      <trkpt lat="39.9023170" lon="-4.4926770">
        <ele>423.0</ele>
        <time>2022-03-01T14:02:18Z</time>
      </trkpt>
      <trkpt lat="39.9023170" lon="-4.4926770">
        <ele>423.0</ele>
        <time>2022-03-01T14:02:19Z</time>
      </trkpt>
      <trkpt lat="39.9023720" lon="-4.4928750">
        <ele>423.0</ele>
        <time>2022-03-01T14:02:20Z</time>
      </trkpt>
      <trkpt lat="39.9023980" lon="-4.4929750">
        <ele>423.0</ele>
        <time>2022-03-01T14:02:21Z</time>
      </trkpt>
      <trkpt lat="39.9023980" lon="-4.4929750">
        <ele>423.0</ele>
        <time>2022-03-01T14:02:22Z</time>
      </trkpt>
      <trkpt lat="39.9024530" lon="-4.4931750">
        <ele>423.0</ele>
        <time>2022-03-01T14:02:23Z</time>
      </trkpt>
      <trkpt lat="39.9024800" lon="-4.4932730">
        <ele>423.0</ele>
        <time>2022-03-01T14:02:24Z</time>
      </trkpt>
      <trkpt lat="39.9024800" lon="-4.4932730">
        <ele>423.0</ele>
        <time>2022-03-01T14:02:25Z</time>
      </trkpt>
      <trkpt lat="39.9025330" lon="-4.4934730">
        <ele>423.0</ele>
        <time>2022-03-01T14:02:26Z</time>
      </trkpt>
      <trkpt lat="39.9025600" lon="-4.4935730">
        <ele>422.0</ele>
        <time>2022-03-01T14:02:27Z</time>
      </trkpt>
      <trkpt lat="39.9025870" lon="-4.4936730">
        <ele>422.0</ele>
        <time>2022-03-01T14:02:28Z</time>
      </trkpt>
      <trkpt lat="39.9025870" lon="-4.4936730">
        <ele>422.0</ele>
        <time>2022-03-01T14:02:29Z</time>
      </trkpt>
      <trkpt lat="39.9026420" lon="-4.4938750">
        <ele>422.0</ele>
        <time>2022-03-01T14:02:30Z</time>
      </trkpt>
      <trkpt lat="39.9026420" lon="-4.4938750">
        <ele>422.0</ele>
        <time>2022-03-01T14:02:31Z</time>
      </trkpt>
      <trkpt lat="39.9026970" lon="-4.4940780">
        <ele>422.0</ele>
        <time>2022-03-01T14:02:32Z</time>
      </trkpt>
      <trkpt lat="39.9026970" lon="-4.4940780">
        <ele>422.0</ele>
        <time>2022-03-01T14:02:33Z</time>
      </trkpt>
      <trkpt lat="39.9027520" lon="-4.4942820">
        <ele>422.0</ele>
        <time>2022-03-01T14:02:34Z</time>
      </trkpt>
      <trkpt lat="39.9027520" lon="-4.4942820">
        <ele>421.0</ele>
        <time>2022-03-01T14:02:35Z</time>
      </trkpt>
      <trkpt lat="39.9028070" lon="-4.4944870">
        <ele>421.0</ele>
        <time>2022-03-01T14:02:36Z</time>
      </trkpt>
      <trkpt lat="39.9028350" lon="-4.4945880">
        <ele>421.0</ele>
        <time>2022-03-01T14:02:37Z</time>
      </trkpt>
      <trkpt lat="39.9028350" lon="-4.4945880">
        <ele>421.0</ele>
        <time>2022-03-01T14:02:38Z</time>
      </trkpt>
      <trkpt lat="39.9028920" lon="-4.4947930">
        <ele>421.0</ele>
        <time>2022-03-01T14:02:39Z</time>
      </trkpt>
      <trkpt lat="39.9029180" lon="-4.4948970">
        <ele>421.0</ele>
        <time>2022-03-01T14:02:40Z</time>
      </trkpt>
      <trkpt lat="39.9029180" lon="-4.4948970">
        <ele>421.0</ele>
        <time>2022-03-01T14:02:41Z</time>
      </trkpt>
      <trkpt lat="39.9029770" lon="-4.4951030">
        <ele>420.0</ele>
        <time>2022-03-01T14:02:42Z</time>
      </trkpt>
      <trkpt lat="39.9029770" lon="-4.4951030">
        <ele>420.0</ele>
        <time>2022-03-01T14:02:43Z</time>
      </trkpt>
      <trkpt lat="39.9030320" lon="-4.4953150">
        <ele>420.0</ele>
        <time>2022-03-01T14:02:44Z</time>
      </trkpt>
      <trkpt lat="39.9030320" lon="-4.4953150">
        <ele>420.0</ele>
        <time>2022-03-01T14:02:45Z</time>
      </trkpt>
      <trkpt lat="39.9030900" lon="-4.4955270">
        <ele>419.0</ele>
        <time>2022-03-01T14:02:46Z</time>
      </trkpt>
      <trkpt lat="39.9030900" lon="-4.4955270">
        <ele>419.0</ele>
        <time>2022-03-01T14:02:47Z</time>
      </trkpt>
      <trkpt lat="39.9031480" lon="-4.4957400">
        <ele>419.0</ele>
        <time>2022-03-01T14:02:48Z</time>
      </trkpt>
      <trkpt lat="39.9031480" lon="-4.4957400">
        <ele>419.0</ele>
        <time>2022-03-01T14:02:49Z</time>
      </trkpt>
      <trkpt lat="39.9032080" lon="-4.4959550">
        <ele>417.0</ele>
        <time>2022-03-01T14:02:50Z</time>
      </trkpt>
      <trkpt lat="39.9032080" lon="-4.4959550">
        <ele>417.0</ele>
        <time>2022-03-01T14:02:51Z</time>
      </trkpt>
      <trkpt lat="39.9032670" lon="-4.4961730">
        <ele>417.0</ele>
        <time>2022-03-01T14:02:52Z</time>
      </trkpt>
      <trkpt lat="39.9032670" lon="-4.4961730">
        <ele>417.0</ele>
        <time>2022-03-01T14:02:53Z</time>
      </trkpt>
      <trkpt lat="39.9033270" lon="-4.4963920">
        <ele>416.0</ele>
        <time>2022-03-01T14:02:54Z</time>
      </trkpt>
      <trkpt lat="39.9033270" lon="-4.4963920">
        <ele>416.0</ele>
        <time>2022-03-01T14:02:55Z</time>
      </trkpt>
      <trkpt lat="39.9033870" lon="-4.4966100">
        <ele>416.0</ele>
        <time>2022-03-01T14:02:56Z</time>
      </trkpt>
      <trkpt lat="39.9033870" lon="-4.4966100">
        <ele>416.0</ele>
        <time>2022-03-01T14:02:57Z</time>
      </trkpt>
      <trkpt lat="39.9034470" lon="-4.4968280">
        <ele>415.0</ele>
        <time>2022-03-01T14:02:58Z</time>
      </trkpt>
      <trkpt lat="39.9034470" lon="-4.4968280">
        <ele>415.0</ele>
        <time>2022-03-01T14:02:59Z</time>
      </trkpt>
      <trkpt lat="39.9035070" lon="-4.4970470">
        <ele>415.0</ele>
        <time>2022-03-01T14:03:00Z</time>
      </trkpt>
      <trkpt lat="39.9035070" lon="-4.4970470">
        <ele>415.0</ele>
        <time>2022-03-01T14:03:01Z</time>
      </trkpt>
      <trkpt lat="39.9035670" lon="-4.4972650">
        <ele>414.0</ele>
        <time>2022-03-01T14:03:02Z</time>
      </trkpt>
      <trkpt lat="39.9035670" lon="-4.4972650">
        <ele>414.0</ele>
        <time>2022-03-01T14:03:03Z</time>
      </trkpt>
      <trkpt lat="39.9036270" lon="-4.4974820">
        <ele>414.0</ele>
        <time>2022-03-01T14:03:04Z</time>
      </trkpt>
      <trkpt lat="39.9036270" lon="-4.4974820">
        <ele>414.0</ele>
        <time>2022-03-01T14:03:05Z</time>
      </trkpt>
      <trkpt lat="39.9036850" lon="-4.4977020">
        <ele>414.0</ele>
        <time>2022-03-01T14:03:06Z</time>
      </trkpt>
      <trkpt lat="39.9036850" lon="-4.4977020">
        <ele>414.0</ele>
        <time>2022-03-01T14:03:07Z</time>
      </trkpt>
      <trkpt lat="39.9037450" lon="-4.4979200">
        <ele>412.0</ele>
        <time>2022-03-01T14:03:08Z</time>
      </trkpt>
      <trkpt lat="39.9037450" lon="-4.4979200">
        <ele>412.0</ele>
        <time>2022-03-01T14:03:09Z</time>
      </trkpt>
      <trkpt lat="39.9038030" lon="-4.4981380">
        <ele>412.0</ele>
        <time>2022-03-01T14:03:10Z</time>
      </trkpt>
      <trkpt lat="39.9038030" lon="-4.4981380">
        <ele>412.0</ele>
        <time>2022-03-01T14:03:11Z</time>
      </trkpt>
      <trkpt lat="39.9038650" lon="-4.4983550">
        <ele>412.0</ele>
        <time>2022-03-01T14:03:12Z</time>
      </trkpt>
      <trkpt lat="39.9038930" lon="-4.4984630">
        <ele>412.0</ele>
        <time>2022-03-01T14:03:13Z</time>
      </trkpt>
      <trkpt lat="39.9038930" lon="-4.4984630">
        <ele>411.0</ele>
        <time>2022-03-01T14:03:14Z</time>
      </trkpt>
      <trkpt lat="39.9039530" lon="-4.4986780">
        <ele>411.0</ele>
        <time>2022-03-01T14:03:15Z</time>
      </trkpt>
      <trkpt lat="39.9039820" lon="-4.4987870">
        <ele>411.0</ele>
        <time>2022-03-01T14:03:16Z</time>
      </trkpt>
      <trkpt lat="39.9039820" lon="-4.4987870">
        <ele>411.0</ele>
        <time>2022-03-01T14:03:17Z</time>
      </trkpt>
      <trkpt lat="39.9040400" lon="-4.4989980">
        <ele>411.0</ele>
        <time>2022-03-01T14:03:18Z</time>
      </trkpt>
      <trkpt lat="39.9040400" lon="-4.4989980">
        <ele>411.0</ele>
        <time>2022-03-01T14:03:19Z</time>
      </trkpt>
      <trkpt lat="39.9040980" lon="-4.4992100">
        <ele>411.0</ele>
        <time>2022-03-01T14:03:20Z</time>
      </trkpt>
      <trkpt lat="39.9040980" lon="-4.4992100">
        <ele>411.0</ele>
        <time>2022-03-01T14:03:21Z</time>
      </trkpt>
      <trkpt lat="39.9041570" lon="-4.4994250">
        <ele>410.0</ele>
        <time>2022-03-01T14:03:22Z</time>
      </trkpt>
      <trkpt lat="39.9041570" lon="-4.4994250">
        <ele>410.0</ele>
        <time>2022-03-01T14:03:23Z</time>
      </trkpt>
      <trkpt lat="39.9042150" lon="-4.4996370">
        <ele>410.0</ele>
        <time>2022-03-01T14:03:24Z</time>
      </trkpt>
      <trkpt lat="39.9042150" lon="-4.4996370">
        <ele>410.0</ele>
        <time>2022-03-01T14:03:25Z</time>
      </trkpt>
      <trkpt lat="39.9042720" lon="-4.4998470">
        <ele>410.0</ele>
        <time>2022-03-01T14:03:26Z</time>
      </trkpt>
      <trkpt lat="39.9042720" lon="-4.4998470">
        <ele>410.0</ele>
        <time>2022-03-01T14:03:27Z</time>
      </trkpt>
      <trkpt lat="39.9043300" lon="-4.5000570">
        <ele>410.0</ele>
        <time>2022-03-01T14:03:28Z</time>
      </trkpt>
      <trkpt lat="39.9043300" lon="-4.5000570">
        <ele>410.0</ele>
        <time>2022-03-01T14:03:29Z</time>
      </trkpt>
      <trkpt lat="39.9043870" lon="-4.5002650">
        <ele>410.0</ele>
        <time>2022-03-01T14:03:30Z</time>
      </trkpt>
      <trkpt lat="39.9043870" lon="-4.5002650">
        <ele>410.0</ele>
        <time>2022-03-01T14:03:31Z</time>
      </trkpt>
      <trkpt lat="39.9044430" lon="-4.5004750">
        <ele>410.0</ele>
        <time>2022-03-01T14:03:32Z</time>
      </trkpt>
      <trkpt lat="39.9044430" lon="-4.5004750">
        <ele>410.0</ele>
        <time>2022-03-01T14:03:33Z</time>
      </trkpt>
      <trkpt lat="39.9044980" lon="-4.5006870">
        <ele>409.0</ele>
        <time>2022-03-01T14:03:34Z</time>
      </trkpt>
      <trkpt lat="39.9044980" lon="-4.5006870">
        <ele>409.0</ele>
        <time>2022-03-01T14:03:35Z</time>
      </trkpt>
      <trkpt lat="39.9045550" lon="-4.5009020">
        <ele>409.0</ele>
        <time>2022-03-01T14:03:36Z</time>
      </trkpt>
      <trkpt lat="39.9045830" lon="-4.5010120">
        <ele>409.0</ele>
        <time>2022-03-01T14:03:37Z</time>
      </trkpt>
      <trkpt lat="39.9045830" lon="-4.5010120">
        <ele>409.0</ele>
        <time>2022-03-01T14:03:38Z</time>
      </trkpt>
      <trkpt lat="39.9046380" lon="-4.5012330">
        <ele>408.0</ele>
        <time>2022-03-01T14:03:39Z</time>
      </trkpt>
      <trkpt lat="39.9046380" lon="-4.5012330">
        <ele>408.0</ele>
        <time>2022-03-01T14:03:40Z</time>
      </trkpt>
      <trkpt lat="39.9046880" lon="-4.5014580">
        <ele>408.0</ele>
        <time>2022-03-01T14:03:41Z</time>
      </trkpt>
      <trkpt lat="39.9046880" lon="-4.5014580">
        <ele>408.0</ele>
        <time>2022-03-01T14:03:42Z</time>
      </trkpt>
      <trkpt lat="39.9047380" lon="-4.5016880">
        <ele>407.0</ele>
        <time>2022-03-01T14:03:43Z</time>
      </trkpt>
      <trkpt lat="39.9047380" lon="-4.5016880">
        <ele>407.0</ele>
        <time>2022-03-01T14:03:44Z</time>
      </trkpt>
      <trkpt lat="39.9047880" lon="-4.5019230">
        <ele>407.0</ele>
        <time>2022-03-01T14:03:45Z</time>
      </trkpt>
      <trkpt lat="39.9048120" lon="-4.5020420">
        <ele>407.0</ele>
        <time>2022-03-01T14:03:46Z</time>
      </trkpt>
      <trkpt lat="39.9048120" lon="-4.5020420">
        <ele>406.0</ele>
        <time>2022-03-01T14:03:47Z</time>
      </trkpt>
      <trkpt lat="39.9048550" lon="-4.5022820">
        <ele>406.0</ele>
        <time>2022-03-01T14:03:48Z</time>
      </trkpt>
      <trkpt lat="39.9048550" lon="-4.5022820">
        <ele>406.0</ele>
        <time>2022-03-01T14:03:49Z</time>
      </trkpt>
      <trkpt lat="39.9048950" lon="-4.5025250">
        <ele>406.0</ele>
        <time>2022-03-01T14:03:50Z</time>
      </trkpt>
      <trkpt lat="39.9048950" lon="-4.5025250">
        <ele>405.0</ele>
        <time>2022-03-01T14:03:51Z</time>
      </trkpt>
      <trkpt lat="39.9049330" lon="-4.5027700">
        <ele>405.0</ele>
        <time>2022-03-01T14:03:52Z</time>
      </trkpt>
      <trkpt lat="39.9049330" lon="-4.5027700">
        <ele>405.0</ele>
        <time>2022-03-01T14:03:53Z</time>
      </trkpt>
      <trkpt lat="39.9049670" lon="-4.5030180">
        <ele>405.0</ele>
        <time>2022-03-01T14:03:54Z</time>
      </trkpt>
      <trkpt lat="39.9049670" lon="-4.5030180">
        <ele>403.0</ele>
        <time>2022-03-01T14:03:55Z</time>
      </trkpt>
      <trkpt lat="39.9049980" lon="-4.5032720">
        <ele>403.0</ele>
        <time>2022-03-01T14:03:56Z</time>
      </trkpt>
      <trkpt lat="39.9049980" lon="-4.5032720">
        <ele>403.0</ele>
        <time>2022-03-01T14:03:57Z</time>
      </trkpt>
      <trkpt lat="39.9050220" lon="-4.5035280">
        <ele>403.0</ele>
        <time>2022-03-01T14:03:58Z</time>
      </trkpt>
      <trkpt lat="39.9050220" lon="-4.5035280">
        <ele>402.0</ele>
        <time>2022-03-01T14:03:59Z</time>
      </trkpt>
      <trkpt lat="39.9050450" lon="-4.5037820">
        <ele>402.0</ele>
        <time>2022-03-01T14:04:00Z</time>
      </trkpt>
      <trkpt lat="39.9050450" lon="-4.5037820">
        <ele>401.0</ele>
        <time>2022-03-01T14:04:01Z</time>
      </trkpt>
      <trkpt lat="39.9050620" lon="-4.5040330">
        <ele>401.0</ele>
        <time>2022-03-01T14:04:02Z</time>
      </trkpt>
      <trkpt lat="39.9050620" lon="-4.5040330">
        <ele>401.0</ele>
        <time>2022-03-01T14:04:03Z</time>
      </trkpt>
      <trkpt lat="39.9050770" lon="-4.5042780">
        <ele>401.0</ele>
        <time>2022-03-01T14:04:04Z</time>
      </trkpt>
      <trkpt lat="39.9050770" lon="-4.5042780">
        <ele>400.0</ele>
        <time>2022-03-01T14:04:05Z</time>
      </trkpt>
      <trkpt lat="39.9050880" lon="-4.5045200">
        <ele>400.0</ele>
        <time>2022-03-01T14:04:06Z</time>
      </trkpt>
      <trkpt lat="39.9050880" lon="-4.5045200">
        <ele>400.0</ele>
        <time>2022-03-01T14:04:07Z</time>
      </trkpt>
      <trkpt lat="39.9050980" lon="-4.5047570">
        <ele>400.0</ele>
        <time>2022-03-01T14:04:08Z</time>
      </trkpt>
      <trkpt lat="39.9051050" lon="-4.5048730">
        <ele>399.0</ele>
        <time>2022-03-01T14:04:09Z</time>
      </trkpt>
      <trkpt lat="39.9051100" lon="-4.5049880">
        <ele>399.0</ele>
        <time>2022-03-01T14:04:10Z</time>
      </trkpt>
      <trkpt lat="39.9051150" lon="-4.5051020">
        <ele>399.0</ele>
        <time>2022-03-01T14:04:11Z</time>
      </trkpt>
      <trkpt lat="39.9051150" lon="-4.5051020">
        <ele>399.0</ele>
        <time>2022-03-01T14:04:12Z</time>
      </trkpt>
      <trkpt lat="39.9051270" lon="-4.5053250">
        <ele>399.0</ele>
        <time>2022-03-01T14:04:13Z</time>
      </trkpt>
      <trkpt lat="39.9051350" lon="-4.5054330">
        <ele>399.0</ele>
        <time>2022-03-01T14:04:14Z</time>
      </trkpt>
      <trkpt lat="39.9051420" lon="-4.5055380">
        <ele>399.0</ele>
        <time>2022-03-01T14:04:15Z</time>
      </trkpt>
      <trkpt lat="39.9051420" lon="-4.5055380">
        <ele>399.0</ele>
        <time>2022-03-01T14:04:16Z</time>
      </trkpt>
      <trkpt lat="39.9051530" lon="-4.5057420">
        <ele>399.0</ele>
        <time>2022-03-01T14:04:17Z</time>
      </trkpt>
      <trkpt lat="39.9051600" lon="-4.5058420">
        <ele>399.0</ele>
        <time>2022-03-01T14:04:18Z</time>
      </trkpt>
      <trkpt lat="39.9051600" lon="-4.5058420">
        <ele>399.0</ele>
        <time>2022-03-01T14:04:19Z</time>
      </trkpt>
      <trkpt lat="39.9051700" lon="-4.5060370">
        <ele>399.0</ele>
        <time>2022-03-01T14:04:20Z</time>
      </trkpt>
      <trkpt lat="39.9051700" lon="-4.5060370">
        <ele>400.0</ele>
        <time>2022-03-01T14:04:21Z</time>
      </trkpt>
      <trkpt lat="39.9051820" lon="-4.5062250">
        <ele>400.0</ele>
        <time>2022-03-01T14:04:22Z</time>
      </trkpt>
      <trkpt lat="39.9051820" lon="-4.5062250">
        <ele>400.0</ele>
        <time>2022-03-01T14:04:23Z</time>
      </trkpt>
      <trkpt lat="39.9051880" lon="-4.5064080">
        <ele>400.0</ele>
        <time>2022-03-01T14:04:24Z</time>
      </trkpt>
      <trkpt lat="39.9051880" lon="-4.5064080">
        <ele>400.0</ele>
        <time>2022-03-01T14:04:25Z</time>
      </trkpt>
      <trkpt lat="39.9051920" lon="-4.5065870">
        <ele>400.0</ele>
        <time>2022-03-01T14:04:26Z</time>
      </trkpt>
      <trkpt lat="39.9051920" lon="-4.5066750">
        <ele>400.0</ele>
        <time>2022-03-01T14:04:27Z</time>
      </trkpt>
      <trkpt lat="39.9051920" lon="-4.5066750">
        <ele>400.0</ele>
        <time>2022-03-01T14:04:28Z</time>
      </trkpt>
      <trkpt lat="39.9051920" lon="-4.5068480">
        <ele>401.0</ele>
        <time>2022-03-01T14:04:29Z</time>
      </trkpt>
      <trkpt lat="39.9051900" lon="-4.5069330">
        <ele>401.0</ele>
        <time>2022-03-01T14:04:30Z</time>
      </trkpt>
      <trkpt lat="39.9051900" lon="-4.5069330">
        <ele>401.0</ele>
        <time>2022-03-01T14:04:31Z</time>
      </trkpt>
      <trkpt lat="39.9051930" lon="-4.5071030">
        <ele>401.0</ele>
        <time>2022-03-01T14:04:32Z</time>
      </trkpt>
      <trkpt lat="39.9051970" lon="-4.5071870">
        <ele>401.0</ele>
        <time>2022-03-01T14:04:33Z</time>
      </trkpt>
      <trkpt lat="39.9051970" lon="-4.5071870">
        <ele>401.0</ele>
        <time>2022-03-01T14:04:34Z</time>
      </trkpt>
      <trkpt lat="39.9052080" lon="-4.5073520">
        <ele>401.0</ele>
        <time>2022-03-01T14:04:35Z</time>
      </trkpt>
      <trkpt lat="39.9052080" lon="-4.5073520">
        <ele>401.0</ele>
        <time>2022-03-01T14:04:36Z</time>
      </trkpt>
      <trkpt lat="39.9052220" lon="-4.5075120">
        <ele>401.0</ele>
        <time>2022-03-01T14:04:37Z</time>
      </trkpt>
      <trkpt lat="39.9052220" lon="-4.5075120">
        <ele>401.0</ele>
        <time>2022-03-01T14:04:38Z</time>
      </trkpt>
      <trkpt lat="39.9052370" lon="-4.5076750">
        <ele>401.0</ele>
        <time>2022-03-01T14:04:39Z</time>
      </trkpt>
      <trkpt lat="39.9052420" lon="-4.5077550">
        <ele>401.0</ele>
        <time>2022-03-01T14:04:40Z</time>
      </trkpt>
      <trkpt lat="39.9052420" lon="-4.5077550">
        <ele>401.0</ele>
        <time>2022-03-01T14:04:41Z</time>
      </trkpt>
      <trkpt lat="39.9052520" lon="-4.5079150">
        <ele>401.0</ele>
        <time>2022-03-01T14:04:42Z</time>
      </trkpt>
      <trkpt lat="39.9052570" lon="-4.5079950">
        <ele>401.0</ele>
        <time>2022-03-01T14:04:43Z</time>
      </trkpt>
      <trkpt lat="39.9052570" lon="-4.5079950">
        <ele>401.0</ele>
        <time>2022-03-01T14:04:44Z</time>
      </trkpt>
      <trkpt lat="39.9052630" lon="-4.5081570">
        <ele>402.0</ele>
        <time>2022-03-01T14:04:45Z</time>
      </trkpt>
      <trkpt lat="39.9052650" lon="-4.5082370">
        <ele>402.0</ele>
        <time>2022-03-01T14:04:46Z</time>
      </trkpt>
      <trkpt lat="39.9052650" lon="-4.5082370">
        <ele>402.0</ele>
        <time>2022-03-01T14:04:47Z</time>
      </trkpt>
      <trkpt lat="39.9052700" lon="-4.5083970">
        <ele>402.0</ele>
        <time>2022-03-01T14:04:48Z</time>
      </trkpt>
      <trkpt lat="39.9052700" lon="-4.5083970">
        <ele>402.0</ele>
        <time>2022-03-01T14:04:49Z</time>
      </trkpt>
      <trkpt lat="39.9052730" lon="-4.5085570">
        <ele>402.0</ele>
        <time>2022-03-01T14:04:50Z</time>
      </trkpt>
      <trkpt lat="39.9052770" lon="-4.5086400">
        <ele>402.0</ele>
        <time>2022-03-01T14:04:51Z</time>
      </trkpt>
      <trkpt lat="39.9052770" lon="-4.5086400">
        <ele>402.0</ele>
        <time>2022-03-01T14:04:52Z</time>
      </trkpt>
      <trkpt lat="39.9052830" lon="-4.5088080">
        <ele>402.0</ele>
        <time>2022-03-01T14:04:53Z</time>
      </trkpt>
      <trkpt lat="39.9052870" lon="-4.5088930">
        <ele>402.0</ele>
        <time>2022-03-01T14:04:54Z</time>
      </trkpt>
      <trkpt lat="39.9052870" lon="-4.5088930">
        <ele>402.0</ele>
        <time>2022-03-01T14:04:55Z</time>
      </trkpt>
      <trkpt lat="39.9052880" lon="-4.5090650">
        <ele>402.0</ele>
        <time>2022-03-01T14:04:56Z</time>
      </trkpt>
      <trkpt lat="39.9052880" lon="-4.5090650">
        <ele>402.0</ele>
        <time>2022-03-01T14:04:57Z</time>
      </trkpt>
      <trkpt lat="39.9052920" lon="-4.5092320">
        <ele>402.0</ele>
        <time>2022-03-01T14:04:58Z</time>
      </trkpt>
      <trkpt lat="39.9052920" lon="-4.5092320">
        <ele>402.0</ele>
        <time>2022-03-01T14:04:59Z</time>
      </trkpt>
      <trkpt lat="39.9052980" lon="-4.5094050">
        <ele>402.0</ele>
        <time>2022-03-01T14:05:00Z</time>
      </trkpt>
      <trkpt lat="39.9052980" lon="-4.5094050">
        <ele>402.0</ele>
        <time>2022-03-01T14:05:01Z</time>
      </trkpt>
      <trkpt lat="39.9053050" lon="-4.5095820">
        <ele>403.0</ele>
        <time>2022-03-01T14:05:02Z</time>
      </trkpt>
      <trkpt lat="39.9053100" lon="-4.5096730">
        <ele>403.0</ele>
        <time>2022-03-01T14:05:03Z</time>
      </trkpt>
      <trkpt lat="39.9053150" lon="-4.5097670">
        <ele>403.0</ele>
        <time>2022-03-01T14:05:04Z</time>
      </trkpt>
      <trkpt lat="39.9053150" lon="-4.5097670">
        <ele>403.0</ele>
        <time>2022-03-01T14:05:05Z</time>
      </trkpt>
      <trkpt lat="39.9053220" lon="-4.5099520">
        <ele>403.0</ele>
        <time>2022-03-01T14:05:06Z</time>
      </trkpt>
      <trkpt lat="39.9053220" lon="-4.5099520">
        <ele>403.0</ele>
        <time>2022-03-01T14:05:07Z</time>
      </trkpt>
      <trkpt lat="39.9053270" lon="-4.5101330">
        <ele>403.0</ele>
        <time>2022-03-01T14:05:08Z</time>
      </trkpt>
      <trkpt lat="39.9053270" lon="-4.5101330">
        <ele>403.0</ele>
        <time>2022-03-01T14:05:09Z</time>
      </trkpt>
      <trkpt lat="39.9053350" lon="-4.5103150">
        <ele>403.0</ele>
        <time>2022-03-01T14:05:10Z</time>
      </trkpt>
      <trkpt lat="39.9053350" lon="-4.5103150">
        <ele>403.0</ele>
        <time>2022-03-01T14:05:11Z</time>
      </trkpt>
      <trkpt lat="39.9053450" lon="-4.5104980">
        <ele>403.0</ele>
        <time>2022-03-01T14:05:12Z</time>
      </trkpt>
      <trkpt lat="39.9053480" lon="-4.5105900">
        <ele>403.0</ele>
        <time>2022-03-01T14:05:13Z</time>
      </trkpt>
      <trkpt lat="39.9053480" lon="-4.5105900">
        <ele>403.0</ele>
        <time>2022-03-01T14:05:14Z</time>
      </trkpt>
      <trkpt lat="39.9053570" lon="-4.5107730">
        <ele>403.0</ele>
        <time>2022-03-01T14:05:15Z</time>
      </trkpt>
      <trkpt lat="39.9053570" lon="-4.5107730">
        <ele>403.0</ele>
        <time>2022-03-01T14:05:16Z</time>
      </trkpt>
      <trkpt lat="39.9053630" lon="-4.5109580">
        <ele>403.0</ele>
        <time>2022-03-01T14:05:17Z</time>
      </trkpt>
      <trkpt lat="39.9053630" lon="-4.5109580">
        <ele>403.0</ele>
        <time>2022-03-01T14:05:18Z</time>
      </trkpt>
      <trkpt lat="39.9053700" lon="-4.5111470">
        <ele>403.0</ele>
        <time>2022-03-01T14:05:19Z</time>
      </trkpt>
      <trkpt lat="39.9053700" lon="-4.5111470">
        <ele>403.0</ele>
        <time>2022-03-01T14:05:20Z</time>
      </trkpt>
      <trkpt lat="39.9053780" lon="-4.5113370">
        <ele>401.0</ele>
        <time>2022-03-01T14:05:21Z</time>
      </trkpt>
      <trkpt lat="39.9053780" lon="-4.5113370">
        <ele>401.0</ele>
        <time>2022-03-01T14:05:22Z</time>
      </trkpt>
      <trkpt lat="39.9053880" lon="-4.5115280">
        <ele>401.0</ele>
        <time>2022-03-01T14:05:23Z</time>
      </trkpt>
      <trkpt lat="39.9053880" lon="-4.5115280">
        <ele>401.0</ele>
        <time>2022-03-01T14:05:24Z</time>
      </trkpt>
      <trkpt lat="39.9053970" lon="-4.5117220">
        <ele>402.0</ele>
        <time>2022-03-01T14:05:25Z</time>
      </trkpt>
      <trkpt lat="39.9054000" lon="-4.5118180">
        <ele>402.0</ele>
        <time>2022-03-01T14:05:26Z</time>
      </trkpt>
      <trkpt lat="39.9054000" lon="-4.5118180">
        <ele>402.0</ele>
        <time>2022-03-01T14:05:27Z</time>
      </trkpt>
      <trkpt lat="39.9054080" lon="-4.5120150">
        <ele>402.0</ele>
        <time>2022-03-01T14:05:28Z</time>
      </trkpt>
      <trkpt lat="39.9054080" lon="-4.5120150">
        <ele>402.0</ele>
        <time>2022-03-01T14:05:29Z</time>
      </trkpt>
      <trkpt lat="39.9054170" lon="-4.5122180">
        <ele>402.0</ele>
        <time>2022-03-01T14:05:30Z</time>
      </trkpt>
      <trkpt lat="39.9054170" lon="-4.5122180">
        <ele>402.0</ele>
        <time>2022-03-01T14:05:31Z</time>
      </trkpt>
      <trkpt lat="39.9054230" lon="-4.5124230">
        <ele>402.0</ele>
        <time>2022-03-01T14:05:32Z</time>
      </trkpt>
      <trkpt lat="39.9054230" lon="-4.5124230">
        <ele>401.0</ele>
        <time>2022-03-01T14:05:33Z</time>
      </trkpt>
      <trkpt lat="39.9054300" lon="-4.5126270">
        <ele>401.0</ele>
        <time>2022-03-01T14:05:34Z</time>
      </trkpt>
      <trkpt lat="39.9054300" lon="-4.5126270">
        <ele>401.0</ele>
        <time>2022-03-01T14:05:35Z</time>
      </trkpt>
      <trkpt lat="39.9054400" lon="-4.5128300">
        <ele>401.0</ele>
        <time>2022-03-01T14:05:36Z</time>
      </trkpt>
      <trkpt lat="39.9054430" lon="-4.5129300">
        <ele>401.0</ele>
        <time>2022-03-01T14:05:37Z</time>
      </trkpt>
      <trkpt lat="39.9054430" lon="-4.5129300">
        <ele>400.0</ele>
        <time>2022-03-01T14:05:38Z</time>
      </trkpt>
      <trkpt lat="39.9054520" lon="-4.5131330">
        <ele>400.0</ele>
        <time>2022-03-01T14:05:39Z</time>
      </trkpt>
      <trkpt lat="39.9054550" lon="-4.5132330">
        <ele>400.0</ele>
        <time>2022-03-01T14:05:40Z</time>
      </trkpt>
      <trkpt lat="39.9054550" lon="-4.5132330">
        <ele>400.0</ele>
        <time>2022-03-01T14:05:41Z</time>
      </trkpt>
      <trkpt lat="39.9054630" lon="-4.5134330">
        <ele>400.0</ele>
        <time>2022-03-01T14:05:42Z</time>
      </trkpt>
      <trkpt lat="39.9054630" lon="-4.5134330">
        <ele>400.0</ele>
        <time>2022-03-01T14:05:43Z</time>
      </trkpt>
      <trkpt lat="39.9054730" lon="-4.5136330">
        <ele>400.0</ele>
        <time>2022-03-01T14:05:44Z</time>
      </trkpt>
      <trkpt lat="39.9054730" lon="-4.5136330">
        <ele>400.0</ele>
        <time>2022-03-01T14:05:45Z</time>
      </trkpt>
      <trkpt lat="39.9054820" lon="-4.5138300">
        <ele>400.0</ele>
        <time>2022-03-01T14:05:46Z</time>
      </trkpt>
      <trkpt lat="39.9054820" lon="-4.5138300">
        <ele>400.0</ele>
        <time>2022-03-01T14:05:47Z</time>
      </trkpt>
      <trkpt lat="39.9054880" lon="-4.5140270">
        <ele>400.0</ele>
        <time>2022-03-01T14:05:48Z</time>
      </trkpt>
      <trkpt lat="39.9054930" lon="-4.5141250">
        <ele>400.0</ele>
        <time>2022-03-01T14:05:49Z</time>
      </trkpt>
      <trkpt lat="39.9054930" lon="-4.5141250">
        <ele>400.0</ele>
        <time>2022-03-01T14:05:50Z</time>
      </trkpt>
      <trkpt lat="39.9055000" lon="-4.5143200">
        <ele>400.0</ele>
        <time>2022-03-01T14:05:51Z</time>
      </trkpt>
      <trkpt lat="39.9055000" lon="-4.5143200">
        <ele>400.0</ele>
        <time>2022-03-01T14:05:52Z</time>
      </trkpt>
      <trkpt lat="39.9055080" lon="-4.5145100">
        <ele>400.0</ele>
        <time>2022-03-01T14:05:53Z</time>
      </trkpt>
      <trkpt lat="39.9055120" lon="-4.5146070">
        <ele>400.0</ele>
        <time>2022-03-01T14:05:54Z</time>
      </trkpt>
      <trkpt lat="39.9055120" lon="-4.5146070">
        <ele>400.0</ele>
        <time>2022-03-01T14:05:55Z</time>
      </trkpt>
      <trkpt lat="39.9055200" lon="-4.5147980">
        <ele>400.0</ele>
        <time>2022-03-01T14:05:56Z</time>
      </trkpt>
      <trkpt lat="39.9055200" lon="-4.5147980">
        <ele>400.0</ele>
        <time>2022-03-01T14:05:57Z</time>
      </trkpt>
      <trkpt lat="39.9055300" lon="-4.5149880">
        <ele>400.0</ele>
        <time>2022-03-01T14:05:58Z</time>
      </trkpt>
      <trkpt lat="39.9055300" lon="-4.5149880">
        <ele>400.0</ele>
        <time>2022-03-01T14:05:59Z</time>
      </trkpt>
      <trkpt lat="39.9055400" lon="-4.5151780">
        <ele>400.0</ele>
        <time>2022-03-01T14:06:00Z</time>
      </trkpt>
      <trkpt lat="39.9055400" lon="-4.5151780">
        <ele>400.0</ele>
        <time>2022-03-01T14:06:01Z</time>
      </trkpt>
      <trkpt lat="39.9055500" lon="-4.5153680">
        <ele>400.0</ele>
        <time>2022-03-01T14:06:02Z</time>
      </trkpt>
      <trkpt lat="39.9055550" lon="-4.5154630">
        <ele>400.0</ele>
        <time>2022-03-01T14:06:03Z</time>
      </trkpt>
      <trkpt lat="39.9055550" lon="-4.5154630">
        <ele>400.0</ele>
        <time>2022-03-01T14:06:04Z</time>
      </trkpt>
      <trkpt lat="39.9055650" lon="-4.5156530">
        <ele>400.0</ele>
        <time>2022-03-01T14:06:05Z</time>
      </trkpt>
      <trkpt lat="39.9055650" lon="-4.5156530">
        <ele>400.0</ele>
        <time>2022-03-01T14:06:06Z</time>
      </trkpt>
      <trkpt lat="39.9055750" lon="-4.5158430">
        <ele>400.0</ele>
        <time>2022-03-01T14:06:07Z</time>
      </trkpt>
      <trkpt lat="39.9055800" lon="-4.5159380">
        <ele>400.0</ele>
        <time>2022-03-01T14:06:08Z</time>
      </trkpt>
      <trkpt lat="39.9055800" lon="-4.5159380">
        <ele>400.0</ele>
        <time>2022-03-01T14:06:09Z</time>
      </trkpt>
      <trkpt lat="39.9055900" lon="-4.5161280">
        <ele>400.0</ele>
        <time>2022-03-01T14:06:10Z</time>
      </trkpt>
      <trkpt lat="39.9055900" lon="-4.5161280">
        <ele>400.0</ele>
        <time>2022-03-01T14:06:11Z</time>
      </trkpt>
      <trkpt lat="39.9056000" lon="-4.5163180">
        <ele>400.0</ele>
        <time>2022-03-01T14:06:12Z</time>
      </trkpt>
      <trkpt lat="39.9056000" lon="-4.5163180">
        <ele>400.0</ele>
        <time>2022-03-01T14:06:13Z</time>
      </trkpt>
      <trkpt lat="39.9056080" lon="-4.5165100">
        <ele>400.0</ele>
        <time>2022-03-01T14:06:14Z</time>
      </trkpt>
      <trkpt lat="39.9056080" lon="-4.5165100">
        <ele>400.0</ele>
        <time>2022-03-01T14:06:15Z</time>
      </trkpt>
      <trkpt lat="39.9056170" lon="-4.5167030">
        <ele>400.0</ele>
        <time>2022-03-01T14:06:16Z</time>
      </trkpt>
      <trkpt lat="39.9056170" lon="-4.5167030">
        <ele>400.0</ele>
        <time>2022-03-01T14:06:17Z</time>
      </trkpt>
      <trkpt lat="39.9056250" lon="-4.5168970">
        <ele>400.0</ele>
        <time>2022-03-01T14:06:18Z</time>
      </trkpt>
      <trkpt lat="39.9056250" lon="-4.5168970">
        <ele>400.0</ele>
        <time>2022-03-01T14:06:19Z</time>
      </trkpt>
      <trkpt lat="39.9056350" lon="-4.5170880">
        <ele>400.0</ele>
        <time>2022-03-01T14:06:20Z</time>
      </trkpt>
      <trkpt lat="39.9056350" lon="-4.5170880">
        <ele>400.0</ele>
        <time>2022-03-01T14:06:21Z</time>
      </trkpt>
      <trkpt lat="39.9056450" lon="-4.5172820">
        <ele>400.0</ele>
        <time>2022-03-01T14:06:22Z</time>
      </trkpt>
      <trkpt lat="39.9056450" lon="-4.5172820">
        <ele>400.0</ele>
        <time>2022-03-01T14:06:23Z</time>
      </trkpt>
      <trkpt lat="39.9056530" lon="-4.5174730">
        <ele>400.0</ele>
        <time>2022-03-01T14:06:24Z</time>
      </trkpt>
      <trkpt lat="39.9056530" lon="-4.5174730">
        <ele>400.0</ele>
        <time>2022-03-01T14:06:25Z</time>
      </trkpt>
      <trkpt lat="39.9056600" lon="-4.5176630">
        <ele>400.0</ele>
        <time>2022-03-01T14:06:26Z</time>
      </trkpt>
      <trkpt lat="39.9056600" lon="-4.5176630">
        <ele>400.0</ele>
        <time>2022-03-01T14:06:27Z</time>
      </trkpt>
      <trkpt lat="39.9056670" lon="-4.5178520">
        <ele>400.0</ele>
        <time>2022-03-01T14:06:28Z</time>
      </trkpt>
      <trkpt lat="39.9056670" lon="-4.5178520">
        <ele>400.0</ele>
        <time>2022-03-01T14:06:29Z</time>
      </trkpt>
      <trkpt lat="39.9056750" lon="-4.5180350">
        <ele>400.0</ele>
        <time>2022-03-01T14:06:30Z</time>
      </trkpt>
      <trkpt lat="39.9056750" lon="-4.5180350">
        <ele>400.0</ele>
        <time>2022-03-01T14:06:31Z</time>
      </trkpt>
      <trkpt lat="39.9056820" lon="-4.5182180">
        <ele>400.0</ele>
        <time>2022-03-01T14:06:32Z</time>
      </trkpt>
      <trkpt lat="39.9056820" lon="-4.5182180">
        <ele>400.0</ele>
        <time>2022-03-01T14:06:33Z</time>
      </trkpt>
      <trkpt lat="39.9056880" lon="-4.5183980">
        <ele>400.0</ele>
        <time>2022-03-01T14:06:34Z</time>
      </trkpt>
      <trkpt lat="39.9056880" lon="-4.5183980">
        <ele>400.0</ele>
        <time>2022-03-01T14:06:35Z</time>
      </trkpt>
      <trkpt lat="39.9056970" lon="-4.5185770">
        <ele>400.0</ele>
        <time>2022-03-01T14:06:36Z</time>
      </trkpt>
      <trkpt lat="39.9056980" lon="-4.5186630">
        <ele>401.0</ele>
        <time>2022-03-01T14:06:37Z</time>
      </trkpt>
      <trkpt lat="39.9057030" lon="-4.5187520">
        <ele>401.0</ele>
        <time>2022-03-01T14:06:38Z</time>
      </trkpt>
      <trkpt lat="39.9057030" lon="-4.5187520">
        <ele>401.0</ele>
        <time>2022-03-01T14:06:39Z</time>
      </trkpt>
      <trkpt lat="39.9057120" lon="-4.5189250">
        <ele>401.0</ele>
        <time>2022-03-01T14:06:40Z</time>
      </trkpt>
      <trkpt lat="39.9057150" lon="-4.5190120">
        <ele>401.0</ele>
        <time>2022-03-01T14:06:41Z</time>
      </trkpt>
      <trkpt lat="39.9057150" lon="-4.5190120">
        <ele>401.0</ele>
        <time>2022-03-01T14:06:42Z</time>
      </trkpt>
      <trkpt lat="39.9057230" lon="-4.5191830">
        <ele>403.0</ele>
        <time>2022-03-01T14:06:43Z</time>
      </trkpt>
      <trkpt lat="39.9057280" lon="-4.5192670">
        <ele>403.0</ele>
        <time>2022-03-01T14:06:44Z</time>
      </trkpt>
      <trkpt lat="39.9057280" lon="-4.5192670">
        <ele>403.0</ele>
        <time>2022-03-01T14:06:45Z</time>
      </trkpt>
      <trkpt lat="39.9057370" lon="-4.5194350">
        <ele>403.0</ele>
        <time>2022-03-01T14:06:46Z</time>
      </trkpt>
      <trkpt lat="39.9057370" lon="-4.5194350">
        <ele>403.0</ele>
        <time>2022-03-01T14:06:47Z</time>
      </trkpt>
      <trkpt lat="39.9057420" lon="-4.5196000">
        <ele>403.0</ele>
        <time>2022-03-01T14:06:48Z</time>
      </trkpt>
      <trkpt lat="39.9057420" lon="-4.5196000">
        <ele>403.0</ele>
        <time>2022-03-01T14:06:49Z</time>
      </trkpt>
      <trkpt lat="39.9057500" lon="-4.5197600">
        <ele>403.0</ele>
        <time>2022-03-01T14:06:50Z</time>
      </trkpt>
      <trkpt lat="39.9057500" lon="-4.5197600">
        <ele>403.0</ele>
        <time>2022-03-01T14:06:51Z</time>
      </trkpt>
      <trkpt lat="39.9057570" lon="-4.5199170">
        <ele>403.0</ele>
        <time>2022-03-01T14:06:52Z</time>
      </trkpt>
      <trkpt lat="39.9057570" lon="-4.5199170">
        <ele>403.0</ele>
        <time>2022-03-01T14:06:53Z</time>
      </trkpt>
      <trkpt lat="39.9057620" lon="-4.5200730">
        <ele>403.0</ele>
        <time>2022-03-01T14:06:54Z</time>
      </trkpt>
      <trkpt lat="39.9057620" lon="-4.5200730">
        <ele>403.0</ele>
        <time>2022-03-01T14:06:55Z</time>
      </trkpt>
      <trkpt lat="39.9057700" lon="-4.5202280">
        <ele>403.0</ele>
        <time>2022-03-01T14:06:56Z</time>
      </trkpt>
      <trkpt lat="39.9057700" lon="-4.5202280">
        <ele>403.0</ele>
        <time>2022-03-01T14:06:57Z</time>
      </trkpt>
      <trkpt lat="39.9057750" lon="-4.5203880">
        <ele>403.0</ele>
        <time>2022-03-01T14:06:58Z</time>
      </trkpt>
      <trkpt lat="39.9057750" lon="-4.5203880">
        <ele>403.0</ele>
        <time>2022-03-01T14:06:59Z</time>
      </trkpt>
      <trkpt lat="39.9057830" lon="-4.5205470">
        <ele>403.0</ele>
        <time>2022-03-01T14:07:00Z</time>
      </trkpt>
      <trkpt lat="39.9057830" lon="-4.5205470">
        <ele>404.0</ele>
        <time>2022-03-01T14:07:01Z</time>
      </trkpt>
      <trkpt lat="39.9057920" lon="-4.5207050">
        <ele>404.0</ele>
        <time>2022-03-01T14:07:02Z</time>
      </trkpt>
      <trkpt lat="39.9057920" lon="-4.5207050">
        <ele>404.0</ele>
        <time>2022-03-01T14:07:03Z</time>
      </trkpt>
      <trkpt lat="39.9057980" lon="-4.5208600">
        <ele>404.0</ele>
        <time>2022-03-01T14:07:04Z</time>
      </trkpt>
      <trkpt lat="39.9057980" lon="-4.5208600">
        <ele>404.0</ele>
        <time>2022-03-01T14:07:05Z</time>
      </trkpt>
      <trkpt lat="39.9058050" lon="-4.5210170">
        <ele>405.0</ele>
        <time>2022-03-01T14:07:06Z</time>
      </trkpt>
      <trkpt lat="39.9058050" lon="-4.5210170">
        <ele>405.0</ele>
        <time>2022-03-01T14:07:07Z</time>
      </trkpt>
      <trkpt lat="39.9058130" lon="-4.5211720">
        <ele>405.0</ele>
        <time>2022-03-01T14:07:08Z</time>
      </trkpt>
      <trkpt lat="39.9058130" lon="-4.5211720">
        <ele>405.0</ele>
        <time>2022-03-01T14:07:09Z</time>
      </trkpt>
      <trkpt lat="39.9058200" lon="-4.5213280">
        <ele>406.0</ele>
        <time>2022-03-01T14:07:10Z</time>
      </trkpt>
      <trkpt lat="39.9058200" lon="-4.5213280">
        <ele>406.0</ele>
        <time>2022-03-01T14:07:11Z</time>
      </trkpt>
      <trkpt lat="39.9058270" lon="-4.5214830">
        <ele>406.0</ele>
        <time>2022-03-01T14:07:12Z</time>
      </trkpt>
      <trkpt lat="39.9058270" lon="-4.5214830">
        <ele>406.0</ele>
        <time>2022-03-01T14:07:13Z</time>
      </trkpt>
      <trkpt lat="39.9058330" lon="-4.5216350">
        <ele>407.0</ele>
        <time>2022-03-01T14:07:14Z</time>
      </trkpt>
      <trkpt lat="39.9058330" lon="-4.5216350">
        <ele>407.0</ele>
        <time>2022-03-01T14:07:15Z</time>
      </trkpt>
      <trkpt lat="39.9058420" lon="-4.5217850">
        <ele>407.0</ele>
        <time>2022-03-01T14:07:16Z</time>
      </trkpt>
      <trkpt lat="39.9058420" lon="-4.5217850">
        <ele>407.0</ele>
        <time>2022-03-01T14:07:17Z</time>
      </trkpt>
      <trkpt lat="39.9058500" lon="-4.5219350">
        <ele>408.0</ele>
        <time>2022-03-01T14:07:18Z</time>
      </trkpt>
      <trkpt lat="39.9058500" lon="-4.5219350">
        <ele>408.0</ele>
        <time>2022-03-01T14:07:19Z</time>
      </trkpt>
      <trkpt lat="39.9058570" lon="-4.5220850">
        <ele>408.0</ele>
        <time>2022-03-01T14:07:20Z</time>
      </trkpt>
      <trkpt lat="39.9058620" lon="-4.5221600">
        <ele>408.0</ele>
        <time>2022-03-01T14:07:21Z</time>
      </trkpt>
      <trkpt lat="39.9058630" lon="-4.5222330">
        <ele>408.0</ele>
        <time>2022-03-01T14:07:22Z</time>
      </trkpt>
      <trkpt lat="39.9058630" lon="-4.5222330">
        <ele>408.0</ele>
        <time>2022-03-01T14:07:23Z</time>
      </trkpt>
      <trkpt lat="39.9058700" lon="-4.5223830">
        <ele>408.0</ele>
        <time>2022-03-01T14:07:24Z</time>
      </trkpt>
      <trkpt lat="39.9058700" lon="-4.5223830">
        <ele>408.0</ele>
        <time>2022-03-01T14:07:25Z</time>
      </trkpt>
      <trkpt lat="39.9058770" lon="-4.5225270">
        <ele>408.0</ele>
        <time>2022-03-01T14:07:26Z</time>
      </trkpt>
      <trkpt lat="39.9058770" lon="-4.5225270">
        <ele>408.0</ele>
        <time>2022-03-01T14:07:27Z</time>
      </trkpt>
      <trkpt lat="39.9058850" lon="-4.5226770">
        <ele>410.0</ele>
        <time>2022-03-01T14:07:28Z</time>
      </trkpt>
      <trkpt lat="39.9058850" lon="-4.5226770">
        <ele>410.0</ele>
        <time>2022-03-01T14:07:29Z</time>
      </trkpt>
      <trkpt lat="39.9058920" lon="-4.5228270">
        <ele>410.0</ele>
        <time>2022-03-01T14:07:30Z</time>
      </trkpt>
      <trkpt lat="39.9058920" lon="-4.5228270">
        <ele>410.0</ele>
        <time>2022-03-01T14:07:31Z</time>
      </trkpt>
      <trkpt lat="39.9058980" lon="-4.5229750">
        <ele>410.0</ele>
        <time>2022-03-01T14:07:32Z</time>
      </trkpt>
      <trkpt lat="39.9058980" lon="-4.5229750">
        <ele>410.0</ele>
        <time>2022-03-01T14:07:33Z</time>
      </trkpt>
      <trkpt lat="39.9059050" lon="-4.5231280">
        <ele>410.0</ele>
        <time>2022-03-01T14:07:34Z</time>
      </trkpt>
      <trkpt lat="39.9059050" lon="-4.5231280">
        <ele>410.0</ele>
        <time>2022-03-01T14:07:35Z</time>
      </trkpt>
      <trkpt lat="39.9059120" lon="-4.5232830">
        <ele>410.0</ele>
        <time>2022-03-01T14:07:36Z</time>
      </trkpt>
      <trkpt lat="39.9059120" lon="-4.5232830">
        <ele>410.0</ele>
        <time>2022-03-01T14:07:37Z</time>
      </trkpt>
      <trkpt lat="39.9059170" lon="-4.5234370">
        <ele>410.0</ele>
        <time>2022-03-01T14:07:38Z</time>
      </trkpt>
      <trkpt lat="39.9059200" lon="-4.5235130">
        <ele>410.0</ele>
        <time>2022-03-01T14:07:39Z</time>
      </trkpt>
      <trkpt lat="39.9059200" lon="-4.5235130">
        <ele>410.0</ele>
        <time>2022-03-01T14:07:40Z</time>
      </trkpt>
      <trkpt lat="39.9059270" lon="-4.5236700">
        <ele>410.0</ele>
        <time>2022-03-01T14:07:41Z</time>
      </trkpt>
      <trkpt lat="39.9059270" lon="-4.5236700">
        <ele>410.0</ele>
        <time>2022-03-01T14:07:42Z</time>
      </trkpt>
      <trkpt lat="39.9059320" lon="-4.5238230">
        <ele>410.0</ele>
        <time>2022-03-01T14:07:43Z</time>
      </trkpt>
      <trkpt lat="39.9059320" lon="-4.5238230">
        <ele>410.0</ele>
        <time>2022-03-01T14:07:44Z</time>
      </trkpt>
      <trkpt lat="39.9059380" lon="-4.5239780">
        <ele>410.0</ele>
        <time>2022-03-01T14:07:45Z</time>
      </trkpt>
      <trkpt lat="39.9059380" lon="-4.5239780">
        <ele>410.0</ele>
        <time>2022-03-01T14:07:46Z</time>
      </trkpt>
      <trkpt lat="39.9059450" lon="-4.5241350">
        <ele>410.0</ele>
        <time>2022-03-01T14:07:47Z</time>
      </trkpt>
      <trkpt lat="39.9059500" lon="-4.5242130">
        <ele>410.0</ele>
        <time>2022-03-01T14:07:48Z</time>
      </trkpt>
      <trkpt lat="39.9059500" lon="-4.5242130">
        <ele>410.0</ele>
        <time>2022-03-01T14:07:49Z</time>
      </trkpt>
      <trkpt lat="39.9059550" lon="-4.5243700">
        <ele>410.0</ele>
        <time>2022-03-01T14:07:50Z</time>
      </trkpt>
      <trkpt lat="39.9059550" lon="-4.5243700">
        <ele>410.0</ele>
        <time>2022-03-01T14:07:51Z</time>
      </trkpt>
      <trkpt lat="39.9059620" lon="-4.5245300">
        <ele>410.0</ele>
        <time>2022-03-01T14:07:52Z</time>
      </trkpt>
      <trkpt lat="39.9059670" lon="-4.5246120">
        <ele>410.0</ele>
        <time>2022-03-01T14:07:53Z</time>
      </trkpt>
      <trkpt lat="39.9059700" lon="-4.5246930">
        <ele>410.0</ele>
        <time>2022-03-01T14:07:54Z</time>
      </trkpt>
      <trkpt lat="39.9059700" lon="-4.5246930">
        <ele>410.0</ele>
        <time>2022-03-01T14:07:55Z</time>
      </trkpt>
      <trkpt lat="39.9059750" lon="-4.5248520">
        <ele>410.0</ele>
        <time>2022-03-01T14:07:56Z</time>
      </trkpt>
      <trkpt lat="39.9059750" lon="-4.5248520">
        <ele>410.0</ele>
        <time>2022-03-01T14:07:57Z</time>
      </trkpt>
      <trkpt lat="39.9059870" lon="-4.5250200">
        <ele>410.0</ele>
        <time>2022-03-01T14:07:58Z</time>
      </trkpt>
      <trkpt lat="39.9059870" lon="-4.5250200">
        <ele>410.0</ele>
        <time>2022-03-01T14:07:59Z</time>
      </trkpt>
      <trkpt lat="39.9059970" lon="-4.5251850">
        <ele>410.0</ele>
        <time>2022-03-01T14:08:00Z</time>
      </trkpt>
      <trkpt lat="39.9059970" lon="-4.5251850">
        <ele>410.0</ele>
        <time>2022-03-01T14:08:01Z</time>
      </trkpt>
      <trkpt lat="39.9060050" lon="-4.5253520">
        <ele>410.0</ele>
        <time>2022-03-01T14:08:02Z</time>
      </trkpt>
      <trkpt lat="39.9060050" lon="-4.5253520">
        <ele>410.0</ele>
        <time>2022-03-01T14:08:03Z</time>
      </trkpt>
      <trkpt lat="39.9060130" lon="-4.5255250">
        <ele>410.0</ele>
        <time>2022-03-01T14:08:04Z</time>
      </trkpt>
      <trkpt lat="39.9060150" lon="-4.5256080">
        <ele>410.0</ele>
        <time>2022-03-01T14:08:05Z</time>
      </trkpt>
      <trkpt lat="39.9060150" lon="-4.5256080">
        <ele>410.0</ele>
        <time>2022-03-01T14:08:06Z</time>
      </trkpt>
      <trkpt lat="39.9060230" lon="-4.5257820">
        <ele>410.0</ele>
        <time>2022-03-01T14:08:07Z</time>
      </trkpt>
      <trkpt lat="39.9060300" lon="-4.5258700">
        <ele>410.0</ele>
        <time>2022-03-01T14:08:08Z</time>
      </trkpt>
      <trkpt lat="39.9060300" lon="-4.5258700">
        <ele>410.0</ele>
        <time>2022-03-01T14:08:09Z</time>
      </trkpt>
      <trkpt lat="39.9060420" lon="-4.5260470">
        <ele>410.0</ele>
        <time>2022-03-01T14:08:10Z</time>
      </trkpt>
      <trkpt lat="39.9060420" lon="-4.5260470">
        <ele>410.0</ele>
        <time>2022-03-01T14:08:11Z</time>
      </trkpt>
      <trkpt lat="39.9060530" lon="-4.5262250">
        <ele>410.0</ele>
        <time>2022-03-01T14:08:12Z</time>
      </trkpt>
      <trkpt lat="39.9060530" lon="-4.5262250">
        <ele>410.0</ele>
        <time>2022-03-01T14:08:13Z</time>
      </trkpt>
      <trkpt lat="39.9060600" lon="-4.5264000">
        <ele>410.0</ele>
        <time>2022-03-01T14:08:14Z</time>
      </trkpt>
      <trkpt lat="39.9060600" lon="-4.5264000">
        <ele>409.0</ele>
        <time>2022-03-01T14:08:15Z</time>
      </trkpt>
      <trkpt lat="39.9060670" lon="-4.5265780">
        <ele>409.0</ele>
        <time>2022-03-01T14:08:16Z</time>
      </trkpt>
      <trkpt lat="39.9060670" lon="-4.5265780">
        <ele>409.0</ele>
        <time>2022-03-01T14:08:17Z</time>
      </trkpt>
      <trkpt lat="39.9060750" lon="-4.5267580">
        <ele>409.0</ele>
        <time>2022-03-01T14:08:18Z</time>
      </trkpt>
      <trkpt lat="39.9060750" lon="-4.5267580">
        <ele>409.0</ele>
        <time>2022-03-01T14:08:19Z</time>
      </trkpt>
      <trkpt lat="39.9060830" lon="-4.5269400">
        <ele>409.0</ele>
        <time>2022-03-01T14:08:20Z</time>
      </trkpt>
      <trkpt lat="39.9060830" lon="-4.5269400">
        <ele>409.0</ele>
        <time>2022-03-01T14:08:21Z</time>
      </trkpt>
      <trkpt lat="39.9060920" lon="-4.5271250">
        <ele>409.0</ele>
        <time>2022-03-01T14:08:22Z</time>
      </trkpt>
      <trkpt lat="39.9060920" lon="-4.5271250">
        <ele>409.0</ele>
        <time>2022-03-01T14:08:23Z</time>
      </trkpt>
      <trkpt lat="39.9061000" lon="-4.5273130">
        <ele>409.0</ele>
        <time>2022-03-01T14:08:24Z</time>
      </trkpt>
      <trkpt lat="39.9061050" lon="-4.5274080">
        <ele>409.0</ele>
        <time>2022-03-01T14:08:25Z</time>
      </trkpt>
      <trkpt lat="39.9061050" lon="-4.5274080">
        <ele>409.0</ele>
        <time>2022-03-01T14:08:26Z</time>
      </trkpt>
      <trkpt lat="39.9061120" lon="-4.5276000">
        <ele>409.0</ele>
        <time>2022-03-01T14:08:27Z</time>
      </trkpt>
      <trkpt lat="39.9061150" lon="-4.5276950">
        <ele>409.0</ele>
        <time>2022-03-01T14:08:28Z</time>
      </trkpt>
      <trkpt lat="39.9061150" lon="-4.5276950">
        <ele>409.0</ele>
        <time>2022-03-01T14:08:29Z</time>
      </trkpt>
      <trkpt lat="39.9061230" lon="-4.5278920">
        <ele>409.0</ele>
        <time>2022-03-01T14:08:30Z</time>
      </trkpt>
      <trkpt lat="39.9061230" lon="-4.5278920">
        <ele>408.0</ele>
        <time>2022-03-01T14:08:31Z</time>
      </trkpt>
      <trkpt lat="39.9061320" lon="-4.5280900">
        <ele>408.0</ele>
        <time>2022-03-01T14:08:32Z</time>
      </trkpt>
      <trkpt lat="39.9061370" lon="-4.5281900">
        <ele>408.0</ele>
        <time>2022-03-01T14:08:33Z</time>
      </trkpt>
      <trkpt lat="39.9061370" lon="-4.5281900">
        <ele>408.0</ele>
        <time>2022-03-01T14:08:34Z</time>
      </trkpt>
      <trkpt lat="39.9061450" lon="-4.5283930">
        <ele>408.0</ele>
        <time>2022-03-01T14:08:35Z</time>
      </trkpt>
      <trkpt lat="39.9061480" lon="-4.5284950">
        <ele>408.0</ele>
        <time>2022-03-01T14:08:36Z</time>
      </trkpt>
      <trkpt lat="39.9061520" lon="-4.5285970">
        <ele>407.0</ele>
        <time>2022-03-01T14:08:37Z</time>
      </trkpt>
      <trkpt lat="39.9061570" lon="-4.5286980">
        <ele>407.0</ele>
        <time>2022-03-01T14:08:38Z</time>
      </trkpt>
      <trkpt lat="39.9061570" lon="-4.5286980">
        <ele>407.0</ele>
        <time>2022-03-01T14:08:39Z</time>
      </trkpt>
      <trkpt lat="39.9061650" lon="-4.5289000">
        <ele>407.0</ele>
        <time>2022-03-01T14:08:40Z</time>
      </trkpt>
      <trkpt lat="39.9061650" lon="-4.5289000">
        <ele>406.0</ele>
        <time>2022-03-01T14:08:41Z</time>
      </trkpt>
      <trkpt lat="39.9061750" lon="-4.5291020">
        <ele>406.0</ele>
        <time>2022-03-01T14:08:42Z</time>
      </trkpt>
      <trkpt lat="39.9061750" lon="-4.5291020">
        <ele>406.0</ele>
        <time>2022-03-01T14:08:43Z</time>
      </trkpt>
      <trkpt lat="39.9061830" lon="-4.5293030">
        <ele>406.0</ele>
        <time>2022-03-01T14:08:44Z</time>
      </trkpt>
      <trkpt lat="39.9061830" lon="-4.5293030">
        <ele>406.0</ele>
        <time>2022-03-01T14:08:45Z</time>
      </trkpt>
      <trkpt lat="39.9061920" lon="-4.5295050">
        <ele>406.0</ele>
        <time>2022-03-01T14:08:46Z</time>
      </trkpt>
      <trkpt lat="39.9061920" lon="-4.5295050">
        <ele>406.0</ele>
        <time>2022-03-01T14:08:47Z</time>
      </trkpt>
      <trkpt lat="39.9062030" lon="-4.5297050">
        <ele>406.0</ele>
        <time>2022-03-01T14:08:48Z</time>
      </trkpt>
      <trkpt lat="39.9062030" lon="-4.5297050">
        <ele>406.0</ele>
        <time>2022-03-01T14:08:49Z</time>
      </trkpt>
      <trkpt lat="39.9062120" lon="-4.5298970">
        <ele>406.0</ele>
        <time>2022-03-01T14:08:50Z</time>
      </trkpt>
      <trkpt lat="39.9062120" lon="-4.5298970">
        <ele>406.0</ele>
        <time>2022-03-01T14:08:51Z</time>
      </trkpt>
      <trkpt lat="39.9062200" lon="-4.5300830">
        <ele>406.0</ele>
        <time>2022-03-01T14:08:52Z</time>
      </trkpt>
      <trkpt lat="39.9062200" lon="-4.5300830">
        <ele>406.0</ele>
        <time>2022-03-01T14:08:53Z</time>
      </trkpt>
      <trkpt lat="39.9062280" lon="-4.5302670">
        <ele>406.0</ele>
        <time>2022-03-01T14:08:54Z</time>
      </trkpt>
      <trkpt lat="39.9062280" lon="-4.5302670">
        <ele>406.0</ele>
        <time>2022-03-01T14:08:55Z</time>
      </trkpt>
      <trkpt lat="39.9062420" lon="-4.5304480">
        <ele>406.0</ele>
        <time>2022-03-01T14:08:56Z</time>
      </trkpt>
      <trkpt lat="39.9062420" lon="-4.5304480">
        <ele>406.0</ele>
        <time>2022-03-01T14:08:57Z</time>
      </trkpt>
      <trkpt lat="39.9062520" lon="-4.5306280">
        <ele>406.0</ele>
        <time>2022-03-01T14:08:58Z</time>
      </trkpt>
      <trkpt lat="39.9062520" lon="-4.5306280">
        <ele>406.0</ele>
        <time>2022-03-01T14:08:59Z</time>
      </trkpt>
      <trkpt lat="39.9062580" lon="-4.5308080">
        <ele>406.0</ele>
        <time>2022-03-01T14:09:00Z</time>
      </trkpt>
      <trkpt lat="39.9062600" lon="-4.5308980">
        <ele>406.0</ele>
        <time>2022-03-01T14:09:01Z</time>
      </trkpt>
      <trkpt lat="39.9062600" lon="-4.5308980">
        <ele>406.0</ele>
        <time>2022-03-01T14:09:02Z</time>
      </trkpt>
      <trkpt lat="39.9062650" lon="-4.5310770">
        <ele>406.0</ele>
        <time>2022-03-01T14:09:03Z</time>
      </trkpt>
      <trkpt lat="39.9062700" lon="-4.5311670">
        <ele>406.0</ele>
        <time>2022-03-01T14:09:04Z</time>
      </trkpt>
      <trkpt lat="39.9062700" lon="-4.5311670">
        <ele>406.0</ele>
        <time>2022-03-01T14:09:05Z</time>
      </trkpt>
      <trkpt lat="39.9062770" lon="-4.5313450">
        <ele>406.0</ele>
        <time>2022-03-01T14:09:06Z</time>
      </trkpt>
      <trkpt lat="39.9062770" lon="-4.5313450">
        <ele>406.0</ele>
        <time>2022-03-01T14:09:07Z</time>
      </trkpt>
      <trkpt lat="39.9062820" lon="-4.5315180">
        <ele>406.0</ele>
        <time>2022-03-01T14:09:08Z</time>
      </trkpt>
      <trkpt lat="39.9062820" lon="-4.5315180">
        <ele>406.0</ele>
        <time>2022-03-01T14:09:09Z</time>
      </trkpt>
      <trkpt lat="39.9062880" lon="-4.5316930">
        <ele>406.0</ele>
        <time>2022-03-01T14:09:10Z</time>
      </trkpt>
      <trkpt lat="39.9062880" lon="-4.5316930">
        <ele>406.0</ele>
        <time>2022-03-01T14:09:11Z</time>
      </trkpt>
      <trkpt lat="39.9062970" lon="-4.5318700">
        <ele>406.0</ele>
        <time>2022-03-01T14:09:12Z</time>
      </trkpt>
      <trkpt lat="39.9062970" lon="-4.5318700">
        <ele>406.0</ele>
        <time>2022-03-01T14:09:13Z</time>
      </trkpt>
      <trkpt lat="39.9063070" lon="-4.5320480">
        <ele>406.0</ele>
        <time>2022-03-01T14:09:14Z</time>
      </trkpt>
      <trkpt lat="39.9063100" lon="-4.5321370">
        <ele>406.0</ele>
        <time>2022-03-01T14:09:15Z</time>
      </trkpt>
      <trkpt lat="39.9063150" lon="-4.5322250">
        <ele>406.0</ele>
        <time>2022-03-01T14:09:16Z</time>
      </trkpt>
      <trkpt lat="39.9063150" lon="-4.5322250">
        <ele>406.0</ele>
        <time>2022-03-01T14:09:17Z</time>
      </trkpt>
      <trkpt lat="39.9063220" lon="-4.5324050">
        <ele>406.0</ele>
        <time>2022-03-01T14:09:18Z</time>
      </trkpt>
      <trkpt lat="39.9063220" lon="-4.5324050">
        <ele>406.0</ele>
        <time>2022-03-01T14:09:19Z</time>
      </trkpt>
      <trkpt lat="39.9063300" lon="-4.5325820">
        <ele>406.0</ele>
        <time>2022-03-01T14:09:20Z</time>
      </trkpt>
      <trkpt lat="39.9063300" lon="-4.5325820">
        <ele>406.0</ele>
        <time>2022-03-01T14:09:21Z</time>
      </trkpt>
      <trkpt lat="39.9063400" lon="-4.5327600">
        <ele>406.0</ele>
        <time>2022-03-01T14:09:22Z</time>
      </trkpt>
      <trkpt lat="39.9063400" lon="-4.5327600">
        <ele>406.0</ele>
        <time>2022-03-01T14:09:23Z</time>
      </trkpt>
      <trkpt lat="39.9063500" lon="-4.5329450">
        <ele>406.0</ele>
        <time>2022-03-01T14:09:24Z</time>
      </trkpt>
      <trkpt lat="39.9063550" lon="-4.5330380">
        <ele>406.0</ele>
        <time>2022-03-01T14:09:25Z</time>
      </trkpt>
      <trkpt lat="39.9063550" lon="-4.5330380">
        <ele>406.0</ele>
        <time>2022-03-01T14:09:26Z</time>
      </trkpt>
      <trkpt lat="39.9063680" lon="-4.5332250">
        <ele>406.0</ele>
        <time>2022-03-01T14:09:27Z</time>
      </trkpt>
      <trkpt lat="39.9063730" lon="-4.5333180">
        <ele>406.0</ele>
        <time>2022-03-01T14:09:28Z</time>
      </trkpt>
      <trkpt lat="39.9063730" lon="-4.5333180">
        <ele>406.0</ele>
        <time>2022-03-01T14:09:29Z</time>
      </trkpt>
      <trkpt lat="39.9063870" lon="-4.5335020">
        <ele>406.0</ele>
        <time>2022-03-01T14:09:30Z</time>
      </trkpt>
      <trkpt lat="39.9063870" lon="-4.5335020">
        <ele>406.0</ele>
        <time>2022-03-01T14:09:31Z</time>
      </trkpt>
      <trkpt lat="39.9063980" lon="-4.5336870">
        <ele>406.0</ele>
        <time>2022-03-01T14:09:32Z</time>
      </trkpt>
      <trkpt lat="39.9063980" lon="-4.5336870">
        <ele>406.0</ele>
        <time>2022-03-01T14:09:33Z</time>
      </trkpt>
      <trkpt lat="39.9064120" lon="-4.5338720">
        <ele>406.0</ele>
        <time>2022-03-01T14:09:34Z</time>
      </trkpt>
      <trkpt lat="39.9064120" lon="-4.5338720">
        <ele>406.0</ele>
        <time>2022-03-01T14:09:35Z</time>
      </trkpt>
      <trkpt lat="39.9064270" lon="-4.5340570">
        <ele>406.0</ele>
        <time>2022-03-01T14:09:36Z</time>
      </trkpt>
      <trkpt lat="39.9064330" lon="-4.5341520">
        <ele>406.0</ele>
        <time>2022-03-01T14:09:37Z</time>
      </trkpt>
      <trkpt lat="39.9064330" lon="-4.5341520">
        <ele>406.0</ele>
        <time>2022-03-01T14:09:38Z</time>
      </trkpt>
      <trkpt lat="39.9064550" lon="-4.5343370">
        <ele>406.0</ele>
        <time>2022-03-01T14:09:39Z</time>
      </trkpt>
      <trkpt lat="39.9064670" lon="-4.5344300">
        <ele>406.0</ele>
        <time>2022-03-01T14:09:40Z</time>
      </trkpt>
      <trkpt lat="39.9064670" lon="-4.5344300">
        <ele>406.0</ele>
        <time>2022-03-01T14:09:41Z</time>
      </trkpt>
      <trkpt lat="39.9064900" lon="-4.5346130">
        <ele>406.0</ele>
        <time>2022-03-01T14:09:42Z</time>
      </trkpt>
      <trkpt lat="39.9064900" lon="-4.5346130">
        <ele>406.0</ele>
        <time>2022-03-01T14:09:43Z</time>
      </trkpt>
      <trkpt lat="39.9065180" lon="-4.5347980">
        <ele>406.0</ele>
        <time>2022-03-01T14:09:44Z</time>
      </trkpt>
      <trkpt lat="39.9065350" lon="-4.5348900">
        <ele>406.0</ele>
        <time>2022-03-01T14:09:45Z</time>
      </trkpt>
      <trkpt lat="39.9065350" lon="-4.5348900">
        <ele>406.0</ele>
        <time>2022-03-01T14:09:46Z</time>
      </trkpt>
      <trkpt lat="39.9065680" lon="-4.5350730">
        <ele>406.0</ele>
        <time>2022-03-01T14:09:47Z</time>
      </trkpt>
      <trkpt lat="39.9065850" lon="-4.5351650">
        <ele>406.0</ele>
        <time>2022-03-01T14:09:48Z</time>
      </trkpt>
      <trkpt lat="39.9065850" lon="-4.5351650">
        <ele>406.0</ele>
        <time>2022-03-01T14:09:49Z</time>
      </trkpt>
      <trkpt lat="39.9066250" lon="-4.5353500">
        <ele>406.0</ele>
        <time>2022-03-01T14:09:50Z</time>
      </trkpt>
      <trkpt lat="39.9066250" lon="-4.5353500">
        <ele>406.0</ele>
        <time>2022-03-01T14:09:51Z</time>
      </trkpt>
      <trkpt lat="39.9066670" lon="-4.5355370">
        <ele>406.0</ele>
        <time>2022-03-01T14:09:52Z</time>
      </trkpt>
      <trkpt lat="39.9066670" lon="-4.5355370">
        <ele>406.0</ele>
        <time>2022-03-01T14:09:53Z</time>
      </trkpt>
      <trkpt lat="39.9067120" lon="-4.5357250">
        <ele>406.0</ele>
        <time>2022-03-01T14:09:54Z</time>
      </trkpt>
      <trkpt lat="39.9067120" lon="-4.5357250">
        <ele>405.0</ele>
        <time>2022-03-01T14:09:55Z</time>
      </trkpt>
      <trkpt lat="39.9067570" lon="-4.5359120">
        <ele>405.0</ele>
        <time>2022-03-01T14:09:56Z</time>
      </trkpt>
      <trkpt lat="39.9067570" lon="-4.5359120">
        <ele>405.0</ele>
        <time>2022-03-01T14:09:57Z</time>
      </trkpt>
      <trkpt lat="39.9068070" lon="-4.5361000">
        <ele>405.0</ele>
        <time>2022-03-01T14:09:58Z</time>
      </trkpt>
      <trkpt lat="39.9068070" lon="-4.5361000">
        <ele>405.0</ele>
        <time>2022-03-01T14:09:59Z</time>
      </trkpt>
      <trkpt lat="39.9068620" lon="-4.5362850">
        <ele>405.0</ele>
        <time>2022-03-01T14:10:00Z</time>
      </trkpt>
      <trkpt lat="39.9068620" lon="-4.5362850">
        <ele>405.0</ele>
        <time>2022-03-01T14:10:01Z</time>
      </trkpt>
      <trkpt lat="39.9069180" lon="-4.5364730">
        <ele>405.0</ele>
        <time>2022-03-01T14:10:02Z</time>
      </trkpt>
      <trkpt lat="39.9069180" lon="-4.5364730">
        <ele>405.0</ele>
        <time>2022-03-01T14:10:03Z</time>
      </trkpt>
      <trkpt lat="39.9069830" lon="-4.5366670">
        <ele>405.0</ele>
        <time>2022-03-01T14:10:04Z</time>
      </trkpt>
      <trkpt lat="39.9070150" lon="-4.5367600">
        <ele>405.0</ele>
        <time>2022-03-01T14:10:05Z</time>
      </trkpt>
      <trkpt lat="39.9070450" lon="-4.5368480">
        <ele>404.0</ele>
        <time>2022-03-01T14:10:06Z</time>
      </trkpt>
      <trkpt lat="39.9070450" lon="-4.5368480">
        <ele>404.0</ele>
        <time>2022-03-01T14:10:07Z</time>
      </trkpt>
      <trkpt lat="39.9071130" lon="-4.5370280">
        <ele>404.0</ele>
        <time>2022-03-01T14:10:08Z</time>
      </trkpt>
      <trkpt lat="39.9071520" lon="-4.5371180">
        <ele>404.0</ele>
        <time>2022-03-01T14:10:09Z</time>
      </trkpt>
      <trkpt lat="39.9071520" lon="-4.5371180">
        <ele>403.0</ele>
        <time>2022-03-01T14:10:10Z</time>
      </trkpt>
      <trkpt lat="39.9072280" lon="-4.5372970">
        <ele>403.0</ele>
        <time>2022-03-01T14:10:11Z</time>
      </trkpt>
      <trkpt lat="39.9072650" lon="-4.5373850">
        <ele>403.0</ele>
        <time>2022-03-01T14:10:12Z</time>
      </trkpt>
      <trkpt lat="39.9072650" lon="-4.5373850">
        <ele>403.0</ele>
        <time>2022-03-01T14:10:13Z</time>
      </trkpt>
      <trkpt lat="39.9073420" lon="-4.5375600">
        <ele>403.0</ele>
        <time>2022-03-01T14:10:14Z</time>
      </trkpt>
      <trkpt lat="39.9073420" lon="-4.5375600">
        <ele>403.0</ele>
        <time>2022-03-01T14:10:15Z</time>
      </trkpt>
      <trkpt lat="39.9074230" lon="-4.5377300">
        <ele>402.0</ele>
        <time>2022-03-01T14:10:16Z</time>
      </trkpt>
      <trkpt lat="39.9074230" lon="-4.5377300">
        <ele>402.0</ele>
        <time>2022-03-01T14:10:17Z</time>
      </trkpt>
      <trkpt lat="39.9074950" lon="-4.5378970">
        <ele>402.0</ele>
        <time>2022-03-01T14:10:18Z</time>
      </trkpt>
      <trkpt lat="39.9074950" lon="-4.5378970">
        <ele>402.0</ele>
        <time>2022-03-01T14:10:19Z</time>
      </trkpt>
      <trkpt lat="39.9075820" lon="-4.5380570">
        <ele>402.0</ele>
        <time>2022-03-01T14:10:20Z</time>
      </trkpt>
      <trkpt lat="39.9075820" lon="-4.5380570">
        <ele>402.0</ele>
        <time>2022-03-01T14:10:21Z</time>
      </trkpt>
      <trkpt lat="39.9076670" lon="-4.5382180">
        <ele>402.0</ele>
        <time>2022-03-01T14:10:22Z</time>
      </trkpt>
      <trkpt lat="39.9077100" lon="-4.5382950">
        <ele>402.0</ele>
        <time>2022-03-01T14:10:23Z</time>
      </trkpt>
      <trkpt lat="39.9077570" lon="-4.5383700">
        <ele>402.0</ele>
        <time>2022-03-01T14:10:24Z</time>
      </trkpt>
      <trkpt lat="39.9077570" lon="-4.5383700">
        <ele>402.0</ele>
        <time>2022-03-01T14:10:25Z</time>
      </trkpt>
      <trkpt lat="39.9078500" lon="-4.5385130">
        <ele>402.0</ele>
        <time>2022-03-01T14:10:26Z</time>
      </trkpt>
      <trkpt lat="39.9078980" lon="-4.5385830">
        <ele>402.0</ele>
        <time>2022-03-01T14:10:27Z</time>
      </trkpt>
      <trkpt lat="39.9079470" lon="-4.5386550">
        <ele>401.0</ele>
        <time>2022-03-01T14:10:28Z</time>
      </trkpt>
      <trkpt lat="39.9079470" lon="-4.5386550">
        <ele>401.0</ele>
        <time>2022-03-01T14:10:29Z</time>
      </trkpt>
      <trkpt lat="39.9080350" lon="-4.5387950">
        <ele>401.0</ele>
        <time>2022-03-01T14:10:30Z</time>
      </trkpt>
      <trkpt lat="39.9080350" lon="-4.5387950">
        <ele>401.0</ele>
        <time>2022-03-01T14:10:31Z</time>
      </trkpt>
      <trkpt lat="39.9081220" lon="-4.5389270">
        <ele>401.0</ele>
        <time>2022-03-01T14:10:32Z</time>
      </trkpt>
      <trkpt lat="39.9081680" lon="-4.5389920">
        <ele>401.0</ele>
        <time>2022-03-01T14:10:33Z</time>
      </trkpt>
      <trkpt lat="39.9081680" lon="-4.5389920">
        <ele>401.0</ele>
        <time>2022-03-01T14:10:34Z</time>
      </trkpt>
      <trkpt lat="39.9082600" lon="-4.5391230">
        <ele>401.0</ele>
        <time>2022-03-01T14:10:35Z</time>
      </trkpt>
      <trkpt lat="39.9083050" lon="-4.5391880">
        <ele>401.0</ele>
        <time>2022-03-01T14:10:36Z</time>
      </trkpt>
      <trkpt lat="39.9083050" lon="-4.5391880">
        <ele>402.0</ele>
        <time>2022-03-01T14:10:37Z</time>
      </trkpt>
      <trkpt lat="39.9083950" lon="-4.5393180">
        <ele>402.0</ele>
        <time>2022-03-01T14:10:38Z</time>
      </trkpt>
      <trkpt lat="39.9084400" lon="-4.5393820">
        <ele>402.0</ele>
        <time>2022-03-01T14:10:39Z</time>
      </trkpt>
      <trkpt lat="39.9084400" lon="-4.5393820">
        <ele>402.0</ele>
        <time>2022-03-01T14:10:40Z</time>
      </trkpt>
      <trkpt lat="39.9085300" lon="-4.5395070">
        <ele>402.0</ele>
        <time>2022-03-01T14:10:41Z</time>
      </trkpt>
      <trkpt lat="39.9085730" lon="-4.5395650">
        <ele>402.0</ele>
        <time>2022-03-01T14:10:42Z</time>
      </trkpt>
      <trkpt lat="39.9085730" lon="-4.5395650">
        <ele>402.0</ele>
        <time>2022-03-01T14:10:43Z</time>
      </trkpt>
      <trkpt lat="39.9086650" lon="-4.5396800">
        <ele>402.0</ele>
        <time>2022-03-01T14:10:44Z</time>
      </trkpt>
      <trkpt lat="39.9086650" lon="-4.5396800">
        <ele>402.0</ele>
        <time>2022-03-01T14:10:45Z</time>
      </trkpt>
      <trkpt lat="39.9087570" lon="-4.5397950">
        <ele>402.0</ele>
        <time>2022-03-01T14:10:46Z</time>
      </trkpt>
      <trkpt lat="39.9087570" lon="-4.5397950">
        <ele>402.0</ele>
        <time>2022-03-01T14:10:47Z</time>
      </trkpt>
      <trkpt lat="39.9088500" lon="-4.5399080">
        <ele>402.0</ele>
        <time>2022-03-01T14:10:48Z</time>
      </trkpt>
      <trkpt lat="39.9088500" lon="-4.5399080">
        <ele>403.0</ele>
        <time>2022-03-01T14:10:49Z</time>
      </trkpt>
      <trkpt lat="39.9089400" lon="-4.5400250">
        <ele>403.0</ele>
        <time>2022-03-01T14:10:50Z</time>
      </trkpt>
      <trkpt lat="39.9089870" lon="-4.5400820">
        <ele>403.0</ele>
        <time>2022-03-01T14:10:51Z</time>
      </trkpt>
      <trkpt lat="39.9089870" lon="-4.5400820">
        <ele>403.0</ele>
        <time>2022-03-01T14:10:52Z</time>
      </trkpt>
      <trkpt lat="39.9090780" lon="-4.5401930">
        <ele>403.0</ele>
        <time>2022-03-01T14:10:53Z</time>
      </trkpt>
      <trkpt lat="39.9091220" lon="-4.5402480">
        <ele>403.0</ele>
        <time>2022-03-01T14:10:54Z</time>
      </trkpt>
      <trkpt lat="39.9091220" lon="-4.5402480">
        <ele>403.0</ele>
        <time>2022-03-01T14:10:55Z</time>
      </trkpt>
      <trkpt lat="39.9092080" lon="-4.5403500">
        <ele>403.0</ele>
        <time>2022-03-01T14:10:56Z</time>
      </trkpt>
      <trkpt lat="39.9092080" lon="-4.5403500">
        <ele>403.0</ele>
        <time>2022-03-01T14:10:57Z</time>
      </trkpt>
      <trkpt lat="39.9092930" lon="-4.5404520">
        <ele>403.0</ele>
        <time>2022-03-01T14:10:58Z</time>
      </trkpt>
      <trkpt lat="39.9093380" lon="-4.5405000">
        <ele>404.0</ele>
        <time>2022-03-01T14:10:59Z</time>
      </trkpt>
      <trkpt lat="39.9093380" lon="-4.5405000">
        <ele>404.0</ele>
        <time>2022-03-01T14:11:00Z</time>
      </trkpt>
      <trkpt lat="39.9094270" lon="-4.5406000">
        <ele>404.0</ele>
        <time>2022-03-01T14:11:01Z</time>
      </trkpt>
      <trkpt lat="39.9094270" lon="-4.5406000">
        <ele>404.0</ele>
        <time>2022-03-01T14:11:02Z</time>
      </trkpt>
      <trkpt lat="39.9095180" lon="-4.5407050">
        <ele>404.0</ele>
        <time>2022-03-01T14:11:03Z</time>
      </trkpt>
      <trkpt lat="39.9095650" lon="-4.5407570">
        <ele>404.0</ele>
        <time>2022-03-01T14:11:04Z</time>
      </trkpt>
      <trkpt lat="39.9096120" lon="-4.5408080">
        <ele>405.0</ele>
        <time>2022-03-01T14:11:05Z</time>
      </trkpt>
      <trkpt lat="39.9096120" lon="-4.5408080">
        <ele>405.0</ele>
        <time>2022-03-01T14:11:06Z</time>
      </trkpt>
      <trkpt lat="39.9097030" lon="-4.5409120">
        <ele>405.0</ele>
        <time>2022-03-01T14:11:07Z</time>
      </trkpt>
      <trkpt lat="39.9097030" lon="-4.5409120">
        <ele>405.0</ele>
        <time>2022-03-01T14:11:08Z</time>
      </trkpt>
      <trkpt lat="39.9097980" lon="-4.5410120">
        <ele>405.0</ele>
        <time>2022-03-01T14:11:09Z</time>
      </trkpt>
      <trkpt lat="39.9098450" lon="-4.5410620">
        <ele>405.0</ele>
        <time>2022-03-01T14:11:10Z</time>
      </trkpt>
      <trkpt lat="39.9098450" lon="-4.5410620">
        <ele>405.0</ele>
        <time>2022-03-01T14:11:11Z</time>
      </trkpt>
      <trkpt lat="39.9099380" lon="-4.5411620">
        <ele>405.0</ele>
        <time>2022-03-01T14:11:12Z</time>
      </trkpt>
      <trkpt lat="39.9099850" lon="-4.5412120">
        <ele>405.0</ele>
        <time>2022-03-01T14:11:13Z</time>
      </trkpt>
      <trkpt lat="39.9099850" lon="-4.5412120">
        <ele>405.0</ele>
        <time>2022-03-01T14:11:14Z</time>
      </trkpt>
      <trkpt lat="39.9100770" lon="-4.5413120">
        <ele>405.0</ele>
        <time>2022-03-01T14:11:15Z</time>
      </trkpt>
      <trkpt lat="39.9101230" lon="-4.5413620">
        <ele>405.0</ele>
        <time>2022-03-01T14:11:16Z</time>
      </trkpt>
      <trkpt lat="39.9101230" lon="-4.5413620">
        <ele>405.0</ele>
        <time>2022-03-01T14:11:17Z</time>
      </trkpt>
      <trkpt lat="39.9102200" lon="-4.5414620">
        <ele>405.0</ele>
        <time>2022-03-01T14:11:18Z</time>
      </trkpt>
      <trkpt lat="39.9102200" lon="-4.5414620">
        <ele>405.0</ele>
        <time>2022-03-01T14:11:19Z</time>
      </trkpt>
      <trkpt lat="39.9103180" lon="-4.5415600">
        <ele>405.0</ele>
        <time>2022-03-01T14:11:20Z</time>
      </trkpt>
      <trkpt lat="39.9103180" lon="-4.5415600">
        <ele>405.0</ele>
        <time>2022-03-01T14:11:21Z</time>
      </trkpt>
      <trkpt lat="39.9104180" lon="-4.5416580">
        <ele>406.0</ele>
        <time>2022-03-01T14:11:22Z</time>
      </trkpt>
      <trkpt lat="39.9104680" lon="-4.5417070">
        <ele>406.0</ele>
        <time>2022-03-01T14:11:23Z</time>
      </trkpt>
      <trkpt lat="39.9105200" lon="-4.5417580">
        <ele>406.0</ele>
        <time>2022-03-01T14:11:24Z</time>
      </trkpt>
      <trkpt lat="39.9105200" lon="-4.5417580">
        <ele>406.0</ele>
        <time>2022-03-01T14:11:25Z</time>
      </trkpt>
      <trkpt lat="39.9106250" lon="-4.5418620">
        <ele>406.0</ele>
        <time>2022-03-01T14:11:26Z</time>
      </trkpt>
      <trkpt lat="39.9106250" lon="-4.5418620">
        <ele>406.0</ele>
        <time>2022-03-01T14:11:27Z</time>
      </trkpt>
      <trkpt lat="39.9107330" lon="-4.5419630">
        <ele>406.0</ele>
        <time>2022-03-01T14:11:28Z</time>
      </trkpt>
      <trkpt lat="39.9107330" lon="-4.5419630">
        <ele>406.0</ele>
        <time>2022-03-01T14:11:29Z</time>
      </trkpt>
      <trkpt lat="39.9108450" lon="-4.5420650">
        <ele>406.0</ele>
        <time>2022-03-01T14:11:30Z</time>
      </trkpt>
      <trkpt lat="39.9109030" lon="-4.5421150">
        <ele>406.0</ele>
        <time>2022-03-01T14:11:31Z</time>
      </trkpt>
      <trkpt lat="39.9109030" lon="-4.5421150">
        <ele>406.0</ele>
        <time>2022-03-01T14:11:32Z</time>
      </trkpt>
      <trkpt lat="39.9110170" lon="-4.5422170">
        <ele>406.0</ele>
        <time>2022-03-01T14:11:33Z</time>
      </trkpt>
      <trkpt lat="39.9110750" lon="-4.5422670">
        <ele>406.0</ele>
        <time>2022-03-01T14:11:34Z</time>
      </trkpt>
      <trkpt lat="39.9110750" lon="-4.5422670">
        <ele>406.0</ele>
        <time>2022-03-01T14:11:35Z</time>
      </trkpt>
      <trkpt lat="39.9111900" lon="-4.5423680">
        <ele>405.0</ele>
        <time>2022-03-01T14:11:36Z</time>
      </trkpt>
      <trkpt lat="39.9111900" lon="-4.5423680">
        <ele>405.0</ele>
        <time>2022-03-01T14:11:37Z</time>
      </trkpt>
      <trkpt lat="39.9113100" lon="-4.5424720">
        <ele>405.0</ele>
        <time>2022-03-01T14:11:38Z</time>
      </trkpt>
      <trkpt lat="39.9113700" lon="-4.5425230">
        <ele>405.0</ele>
        <time>2022-03-01T14:11:39Z</time>
      </trkpt>
      <trkpt lat="39.9113700" lon="-4.5425230">
        <ele>405.0</ele>
        <time>2022-03-01T14:11:40Z</time>
      </trkpt>
      <trkpt lat="39.9114930" lon="-4.5426270">
        <ele>405.0</ele>
        <time>2022-03-01T14:11:41Z</time>
      </trkpt>
      <trkpt lat="39.9114930" lon="-4.5426270">
        <ele>405.0</ele>
        <time>2022-03-01T14:11:42Z</time>
      </trkpt>
      <trkpt lat="39.9116180" lon="-4.5427280">
        <ele>405.0</ele>
        <time>2022-03-01T14:11:43Z</time>
      </trkpt>
      <trkpt lat="39.9116180" lon="-4.5427280">
        <ele>405.0</ele>
        <time>2022-03-01T14:11:44Z</time>
      </trkpt>
      <trkpt lat="39.9117470" lon="-4.5428300">
        <ele>405.0</ele>
        <time>2022-03-01T14:11:45Z</time>
      </trkpt>
      <trkpt lat="39.9118120" lon="-4.5428820">
        <ele>405.0</ele>
        <time>2022-03-01T14:11:46Z</time>
      </trkpt>
      <trkpt lat="39.9118120" lon="-4.5428820">
        <ele>405.0</ele>
        <time>2022-03-01T14:11:47Z</time>
      </trkpt>
      <trkpt lat="39.9119420" lon="-4.5429880">
        <ele>405.0</ele>
        <time>2022-03-01T14:11:48Z</time>
      </trkpt>
      <trkpt lat="39.9119420" lon="-4.5429880">
        <ele>405.0</ele>
        <time>2022-03-01T14:11:49Z</time>
      </trkpt>
      <trkpt lat="39.9120700" lon="-4.5430930">
        <ele>405.0</ele>
        <time>2022-03-01T14:11:50Z</time>
      </trkpt>
      <trkpt lat="39.9120700" lon="-4.5430930">
        <ele>405.0</ele>
        <time>2022-03-01T14:11:51Z</time>
      </trkpt>
      <trkpt lat="39.9121980" lon="-4.5432000">
        <ele>405.0</ele>
        <time>2022-03-01T14:11:52Z</time>
      </trkpt>
      <trkpt lat="39.9121980" lon="-4.5432000">
        <ele>405.0</ele>
        <time>2022-03-01T14:11:53Z</time>
      </trkpt>
      <trkpt lat="39.9123250" lon="-4.5433050">
        <ele>405.0</ele>
        <time>2022-03-01T14:11:54Z</time>
      </trkpt>
      <trkpt lat="39.9123250" lon="-4.5433050">
        <ele>405.0</ele>
        <time>2022-03-01T14:11:55Z</time>
      </trkpt>
      <trkpt lat="39.9124620" lon="-4.5434070">
        <ele>404.0</ele>
        <time>2022-03-01T14:11:56Z</time>
      </trkpt>
      <trkpt lat="39.9124620" lon="-4.5434070">
        <ele>404.0</ele>
        <time>2022-03-01T14:11:57Z</time>
      </trkpt>
      <trkpt lat="39.9125930" lon="-4.5435130">
        <ele>404.0</ele>
        <time>2022-03-01T14:11:58Z</time>
      </trkpt>
      <trkpt lat="39.9125930" lon="-4.5435130">
        <ele>404.0</ele>
        <time>2022-03-01T14:11:59Z</time>
      </trkpt>
      <trkpt lat="39.9127200" lon="-4.5436180">
        <ele>404.0</ele>
        <time>2022-03-01T14:12:00Z</time>
      </trkpt>
      <trkpt lat="39.9127200" lon="-4.5436180">
        <ele>404.0</ele>
        <time>2022-03-01T14:12:01Z</time>
      </trkpt>
      <trkpt lat="39.9128470" lon="-4.5437180">
        <ele>403.0</ele>
        <time>2022-03-01T14:12:02Z</time>
      </trkpt>
      <trkpt lat="39.9129080" lon="-4.5437680">
        <ele>403.0</ele>
        <time>2022-03-01T14:12:03Z</time>
      </trkpt>
      <trkpt lat="39.9129700" lon="-4.5438180">
        <ele>403.0</ele>
        <time>2022-03-01T14:12:04Z</time>
      </trkpt>
      <trkpt lat="39.9129700" lon="-4.5438180">
        <ele>403.0</ele>
        <time>2022-03-01T14:12:05Z</time>
      </trkpt>
      <trkpt lat="39.9130900" lon="-4.5439220">
        <ele>403.0</ele>
        <time>2022-03-01T14:12:06Z</time>
      </trkpt>
      <trkpt lat="39.9130900" lon="-4.5439220">
        <ele>403.0</ele>
        <time>2022-03-01T14:12:07Z</time>
      </trkpt>
      <trkpt lat="39.9132120" lon="-4.5440230">
        <ele>402.0</ele>
        <time>2022-03-01T14:12:08Z</time>
      </trkpt>
      <trkpt lat="39.9132720" lon="-4.5440750">
        <ele>402.0</ele>
        <time>2022-03-01T14:12:09Z</time>
      </trkpt>
      <trkpt lat="39.9132720" lon="-4.5440750">
        <ele>402.0</ele>
        <time>2022-03-01T14:12:10Z</time>
      </trkpt>
      <trkpt lat="39.9133950" lon="-4.5441730">
        <ele>402.0</ele>
        <time>2022-03-01T14:12:11Z</time>
      </trkpt>
      <trkpt lat="39.9133950" lon="-4.5441730">
        <ele>402.0</ele>
        <time>2022-03-01T14:12:12Z</time>
      </trkpt>
      <trkpt lat="39.9135180" lon="-4.5442720">
        <ele>402.0</ele>
        <time>2022-03-01T14:12:13Z</time>
      </trkpt>
      <trkpt lat="39.9135180" lon="-4.5442720">
        <ele>402.0</ele>
        <time>2022-03-01T14:12:14Z</time>
      </trkpt>
      <trkpt lat="39.9136420" lon="-4.5443670">
        <ele>402.0</ele>
        <time>2022-03-01T14:12:15Z</time>
      </trkpt>
      <trkpt lat="39.9136420" lon="-4.5443670">
        <ele>402.0</ele>
        <time>2022-03-01T14:12:16Z</time>
      </trkpt>
      <trkpt lat="39.9137650" lon="-4.5444650">
        <ele>402.0</ele>
        <time>2022-03-01T14:12:17Z</time>
      </trkpt>
      <trkpt lat="39.9138280" lon="-4.5445120">
        <ele>402.0</ele>
        <time>2022-03-01T14:12:18Z</time>
      </trkpt>
      <trkpt lat="39.9138280" lon="-4.5445120">
        <ele>402.0</ele>
        <time>2022-03-01T14:12:19Z</time>
      </trkpt>
      <trkpt lat="39.9139500" lon="-4.5446100">
        <ele>402.0</ele>
        <time>2022-03-01T14:12:20Z</time>
      </trkpt>
      <trkpt lat="39.9139500" lon="-4.5446100">
        <ele>402.0</ele>
        <time>2022-03-01T14:12:21Z</time>
      </trkpt>
      <trkpt lat="39.9140730" lon="-4.5447100">
        <ele>402.0</ele>
        <time>2022-03-01T14:12:22Z</time>
      </trkpt>
      <trkpt lat="39.9140730" lon="-4.5447100">
        <ele>402.0</ele>
        <time>2022-03-01T14:12:23Z</time>
      </trkpt>
      <trkpt lat="39.9141970" lon="-4.5448120">
        <ele>402.0</ele>
        <time>2022-03-01T14:12:24Z</time>
      </trkpt>
      <trkpt lat="39.9141970" lon="-4.5448120">
        <ele>402.0</ele>
        <time>2022-03-01T14:12:25Z</time>
      </trkpt>
      <trkpt lat="39.9143200" lon="-4.5449130">
        <ele>402.0</ele>
        <time>2022-03-01T14:12:26Z</time>
      </trkpt>
      <trkpt lat="39.9143820" lon="-4.5449630">
        <ele>402.0</ele>
        <time>2022-03-01T14:12:27Z</time>
      </trkpt>
      <trkpt lat="39.9144430" lon="-4.5450120">
        <ele>402.0</ele>
        <time>2022-03-01T14:12:28Z</time>
      </trkpt>
      <trkpt lat="39.9144430" lon="-4.5450120">
        <ele>402.0</ele>
        <time>2022-03-01T14:12:29Z</time>
      </trkpt>
      <trkpt lat="39.9145630" lon="-4.5451130">
        <ele>402.0</ele>
        <time>2022-03-01T14:12:30Z</time>
      </trkpt>
      <trkpt lat="39.9146230" lon="-4.5451630">
        <ele>402.0</ele>
        <time>2022-03-01T14:12:31Z</time>
      </trkpt>
      <trkpt lat="39.9146230" lon="-4.5451630">
        <ele>402.0</ele>
        <time>2022-03-01T14:12:32Z</time>
      </trkpt>
      <trkpt lat="39.9147420" lon="-4.5452600">
        <ele>402.0</ele>
        <time>2022-03-01T14:12:33Z</time>
      </trkpt>
      <trkpt lat="39.9148020" lon="-4.5453080">
        <ele>402.0</ele>
        <time>2022-03-01T14:12:34Z</time>
      </trkpt>
      <trkpt lat="39.9148020" lon="-4.5453080">
        <ele>402.0</ele>
        <time>2022-03-01T14:12:35Z</time>
      </trkpt>
      <trkpt lat="39.9149180" lon="-4.5454020">
        <ele>402.0</ele>
        <time>2022-03-01T14:12:36Z</time>
      </trkpt>
      <trkpt lat="39.9149180" lon="-4.5454020">
        <ele>402.0</ele>
        <time>2022-03-01T14:12:37Z</time>
      </trkpt>
      <trkpt lat="39.9150330" lon="-4.5454950">
        <ele>402.0</ele>
        <time>2022-03-01T14:12:38Z</time>
      </trkpt>
      <trkpt lat="39.9150330" lon="-4.5454950">
        <ele>402.0</ele>
        <time>2022-03-01T14:12:39Z</time>
      </trkpt>
      <trkpt lat="39.9151470" lon="-4.5455880">
        <ele>402.0</ele>
        <time>2022-03-01T14:12:40Z</time>
      </trkpt>
      <trkpt lat="39.9152030" lon="-4.5456350">
        <ele>402.0</ele>
        <time>2022-03-01T14:12:41Z</time>
      </trkpt>
      <trkpt lat="39.9152600" lon="-4.5456820">
        <ele>402.0</ele>
        <time>2022-03-01T14:12:42Z</time>
      </trkpt>
      <trkpt lat="39.9152600" lon="-4.5456820">
        <ele>402.0</ele>
        <time>2022-03-01T14:12:43Z</time>
      </trkpt>
      <trkpt lat="39.9153750" lon="-4.5457730">
        <ele>402.0</ele>
        <time>2022-03-01T14:12:44Z</time>
      </trkpt>
      <trkpt lat="39.9153750" lon="-4.5457730">
        <ele>402.0</ele>
        <time>2022-03-01T14:12:45Z</time>
      </trkpt>
      <trkpt lat="39.9154880" lon="-4.5458680">
        <ele>402.0</ele>
        <time>2022-03-01T14:12:46Z</time>
      </trkpt>
      <trkpt lat="39.9154880" lon="-4.5458680">
        <ele>402.0</ele>
        <time>2022-03-01T14:12:47Z</time>
      </trkpt>
      <trkpt lat="39.9156030" lon="-4.5459620">
        <ele>402.0</ele>
        <time>2022-03-01T14:12:48Z</time>
      </trkpt>
      <trkpt lat="39.9156030" lon="-4.5459620">
        <ele>402.0</ele>
        <time>2022-03-01T14:12:49Z</time>
      </trkpt>
      <trkpt lat="39.9157200" lon="-4.5460570">
        <ele>402.0</ele>
        <time>2022-03-01T14:12:50Z</time>
      </trkpt>
      <trkpt lat="39.9157200" lon="-4.5460570">
        <ele>402.0</ele>
        <time>2022-03-01T14:12:51Z</time>
      </trkpt>
      <trkpt lat="39.9158380" lon="-4.5461520">
        <ele>402.0</ele>
        <time>2022-03-01T14:12:52Z</time>
      </trkpt>
      <trkpt lat="39.9158380" lon="-4.5461520">
        <ele>402.0</ele>
        <time>2022-03-01T14:12:53Z</time>
      </trkpt>
      <trkpt lat="39.9159570" lon="-4.5462470">
        <ele>402.0</ele>
        <time>2022-03-01T14:12:54Z</time>
      </trkpt>
      <trkpt lat="39.9159570" lon="-4.5462470">
        <ele>402.0</ele>
        <time>2022-03-01T14:12:55Z</time>
      </trkpt>
      <trkpt lat="39.9160750" lon="-4.5463420">
        <ele>402.0</ele>
        <time>2022-03-01T14:12:56Z</time>
      </trkpt>
      <trkpt lat="39.9160750" lon="-4.5463420">
        <ele>402.0</ele>
        <time>2022-03-01T14:12:57Z</time>
      </trkpt>
      <trkpt lat="39.9161900" lon="-4.5464370">
        <ele>402.0</ele>
        <time>2022-03-01T14:12:58Z</time>
      </trkpt>
      <trkpt lat="39.9162500" lon="-4.5464830">
        <ele>402.0</ele>
        <time>2022-03-01T14:12:59Z</time>
      </trkpt>
      <trkpt lat="39.9163080" lon="-4.5465320">
        <ele>402.0</ele>
        <time>2022-03-01T14:13:00Z</time>
      </trkpt>
      <trkpt lat="39.9163080" lon="-4.5465320">
        <ele>402.0</ele>
        <time>2022-03-01T14:13:01Z</time>
      </trkpt>
      <trkpt lat="39.9164270" lon="-4.5466270">
        <ele>402.0</ele>
        <time>2022-03-01T14:13:02Z</time>
      </trkpt>
      <trkpt lat="39.9164850" lon="-4.5466750">
        <ele>402.0</ele>
        <time>2022-03-01T14:13:03Z</time>
      </trkpt>
      <trkpt lat="39.9165450" lon="-4.5467230">
        <ele>403.0</ele>
        <time>2022-03-01T14:13:04Z</time>
      </trkpt>
      <trkpt lat="39.9165450" lon="-4.5467230">
        <ele>403.0</ele>
        <time>2022-03-01T14:13:05Z</time>
      </trkpt>
      <trkpt lat="39.9166670" lon="-4.5468220">
        <ele>403.0</ele>
        <time>2022-03-01T14:13:06Z</time>
      </trkpt>
      <trkpt lat="39.9166670" lon="-4.5468220">
        <ele>403.0</ele>
        <time>2022-03-01T14:13:07Z</time>
      </trkpt>
      <trkpt lat="39.9167850" lon="-4.5469150">
        <ele>403.0</ele>
        <time>2022-03-01T14:13:08Z</time>
      </trkpt>
      <trkpt lat="39.9167850" lon="-4.5469150">
        <ele>403.0</ele>
        <time>2022-03-01T14:13:09Z</time>
      </trkpt>
      <trkpt lat="39.9169030" lon="-4.5470120">
        <ele>403.0</ele>
        <time>2022-03-01T14:13:10Z</time>
      </trkpt>
      <trkpt lat="39.9169030" lon="-4.5470120">
        <ele>403.0</ele>
        <time>2022-03-01T14:13:11Z</time>
      </trkpt>
      <trkpt lat="39.9170220" lon="-4.5471080">
        <ele>403.0</ele>
        <time>2022-03-01T14:13:12Z</time>
      </trkpt>
      <trkpt lat="39.9170220" lon="-4.5471080">
        <ele>403.0</ele>
        <time>2022-03-01T14:13:13Z</time>
      </trkpt>
      <trkpt lat="39.9171380" lon="-4.5472050">
        <ele>403.0</ele>
        <time>2022-03-01T14:13:14Z</time>
      </trkpt>
      <trkpt lat="39.9171980" lon="-4.5472550">
        <ele>403.0</ele>
        <time>2022-03-01T14:13:15Z</time>
      </trkpt>
      <trkpt lat="39.9172570" lon="-4.5473030">
        <ele>403.0</ele>
        <time>2022-03-01T14:13:16Z</time>
      </trkpt>
      <trkpt lat="39.9172570" lon="-4.5473030">
        <ele>403.0</ele>
        <time>2022-03-01T14:13:17Z</time>
      </trkpt>
      <trkpt lat="39.9173770" lon="-4.5474020">
        <ele>403.0</ele>
        <time>2022-03-01T14:13:18Z</time>
      </trkpt>
      <trkpt lat="39.9173770" lon="-4.5474020">
        <ele>403.0</ele>
        <time>2022-03-01T14:13:19Z</time>
      </trkpt>
      <trkpt lat="39.9174950" lon="-4.5474980">
        <ele>403.0</ele>
        <time>2022-03-01T14:13:20Z</time>
      </trkpt>
      <trkpt lat="39.9175500" lon="-4.5475450">
        <ele>403.0</ele>
        <time>2022-03-01T14:13:21Z</time>
      </trkpt>
      <trkpt lat="39.9175500" lon="-4.5475450">
        <ele>403.0</ele>
        <time>2022-03-01T14:13:22Z</time>
      </trkpt>
      <trkpt lat="39.9176700" lon="-4.5476400">
        <ele>403.0</ele>
        <time>2022-03-01T14:13:23Z</time>
      </trkpt>
      <trkpt lat="39.9177320" lon="-4.5476850">
        <ele>403.0</ele>
        <time>2022-03-01T14:13:24Z</time>
      </trkpt>
      <trkpt lat="39.9177320" lon="-4.5476850">
        <ele>403.0</ele>
        <time>2022-03-01T14:13:25Z</time>
      </trkpt>
      <trkpt lat="39.9178550" lon="-4.5477780">
        <ele>404.0</ele>
        <time>2022-03-01T14:13:26Z</time>
      </trkpt>
      <trkpt lat="39.9178550" lon="-4.5477780">
        <ele>404.0</ele>
        <time>2022-03-01T14:13:27Z</time>
      </trkpt>
      <trkpt lat="39.9179780" lon="-4.5478770">
        <ele>404.0</ele>
        <time>2022-03-01T14:13:28Z</time>
      </trkpt>
      <trkpt lat="39.9179780" lon="-4.5478770">
        <ele>404.0</ele>
        <time>2022-03-01T14:13:29Z</time>
      </trkpt>
      <trkpt lat="39.9181020" lon="-4.5479780">
        <ele>404.0</ele>
        <time>2022-03-01T14:13:30Z</time>
      </trkpt>
      <trkpt lat="39.9181020" lon="-4.5479780">
        <ele>404.0</ele>
        <time>2022-03-01T14:13:31Z</time>
      </trkpt>
      <trkpt lat="39.9182270" lon="-4.5480750">
        <ele>404.0</ele>
        <time>2022-03-01T14:13:32Z</time>
      </trkpt>
      <trkpt lat="39.9182270" lon="-4.5480750">
        <ele>404.0</ele>
        <time>2022-03-01T14:13:33Z</time>
      </trkpt>
      <trkpt lat="39.9183520" lon="-4.5481750">
        <ele>404.0</ele>
        <time>2022-03-01T14:13:34Z</time>
      </trkpt>
      <trkpt lat="39.9183520" lon="-4.5481750">
        <ele>404.0</ele>
        <time>2022-03-01T14:13:35Z</time>
      </trkpt>
      <trkpt lat="39.9184750" lon="-4.5482750">
        <ele>404.0</ele>
        <time>2022-03-01T14:13:36Z</time>
      </trkpt>
      <trkpt lat="39.9184750" lon="-4.5482750">
        <ele>404.0</ele>
        <time>2022-03-01T14:13:37Z</time>
      </trkpt>
      <trkpt lat="39.9185970" lon="-4.5483730">
        <ele>404.0</ele>
        <time>2022-03-01T14:13:38Z</time>
      </trkpt>
      <trkpt lat="39.9186580" lon="-4.5484230">
        <ele>404.0</ele>
        <time>2022-03-01T14:13:39Z</time>
      </trkpt>
      <trkpt lat="39.9186580" lon="-4.5484230">
        <ele>404.0</ele>
        <time>2022-03-01T14:13:40Z</time>
      </trkpt>
      <trkpt lat="39.9187800" lon="-4.5485230">
        <ele>404.0</ele>
        <time>2022-03-01T14:13:41Z</time>
      </trkpt>
      <trkpt lat="39.9188420" lon="-4.5485730">
        <ele>404.0</ele>
        <time>2022-03-01T14:13:42Z</time>
      </trkpt>
      <trkpt lat="39.9188420" lon="-4.5485730">
        <ele>404.0</ele>
        <time>2022-03-01T14:13:43Z</time>
      </trkpt>
      <trkpt lat="39.9189620" lon="-4.5486720">
        <ele>404.0</ele>
        <time>2022-03-01T14:13:44Z</time>
      </trkpt>
      <trkpt lat="39.9190220" lon="-4.5487200">
        <ele>404.0</ele>
        <time>2022-03-01T14:13:45Z</time>
      </trkpt>
      <trkpt lat="39.9190800" lon="-4.5487700">
        <ele>404.0</ele>
        <time>2022-03-01T14:13:46Z</time>
      </trkpt>
      <trkpt lat="39.9190800" lon="-4.5487700">
        <ele>404.0</ele>
        <time>2022-03-01T14:13:47Z</time>
      </trkpt>
      <trkpt lat="39.9191980" lon="-4.5488670">
        <ele>404.0</ele>
        <time>2022-03-01T14:13:48Z</time>
      </trkpt>
      <trkpt lat="39.9191980" lon="-4.5488670">
        <ele>404.0</ele>
        <time>2022-03-01T14:13:49Z</time>
      </trkpt>
      <trkpt lat="39.9193170" lon="-4.5489630">
        <ele>404.0</ele>
        <time>2022-03-01T14:13:50Z</time>
      </trkpt>
      <trkpt lat="39.9193770" lon="-4.5490120">
        <ele>404.0</ele>
        <time>2022-03-01T14:13:51Z</time>
      </trkpt>
      <trkpt lat="39.9194350" lon="-4.5490650">
        <ele>404.0</ele>
        <time>2022-03-01T14:13:52Z</time>
      </trkpt>
      <trkpt lat="39.9194350" lon="-4.5490650">
        <ele>404.0</ele>
        <time>2022-03-01T14:13:53Z</time>
      </trkpt>
      <trkpt lat="39.9195500" lon="-4.5491600">
        <ele>404.0</ele>
        <time>2022-03-01T14:13:54Z</time>
      </trkpt>
      <trkpt lat="39.9195500" lon="-4.5491600">
        <ele>405.0</ele>
        <time>2022-03-01T14:13:55Z</time>
      </trkpt>
      <trkpt lat="39.9196670" lon="-4.5492480">
        <ele>405.0</ele>
        <time>2022-03-01T14:13:56Z</time>
      </trkpt>
      <trkpt lat="39.9196670" lon="-4.5492480">
        <ele>405.0</ele>
        <time>2022-03-01T14:13:57Z</time>
      </trkpt>
      <trkpt lat="39.9197800" lon="-4.5493400">
        <ele>405.0</ele>
        <time>2022-03-01T14:13:58Z</time>
      </trkpt>
      <trkpt lat="39.9197800" lon="-4.5493400">
        <ele>405.0</ele>
        <time>2022-03-01T14:13:59Z</time>
      </trkpt>
      <trkpt lat="39.9198950" lon="-4.5494350">
        <ele>405.0</ele>
        <time>2022-03-01T14:14:00Z</time>
      </trkpt>
      <trkpt lat="39.9198950" lon="-4.5494350">
        <ele>405.0</ele>
        <time>2022-03-01T14:14:01Z</time>
      </trkpt>
      <trkpt lat="39.9200120" lon="-4.5495300">
        <ele>405.0</ele>
        <time>2022-03-01T14:14:02Z</time>
      </trkpt>
      <trkpt lat="39.9200720" lon="-4.5495770">
        <ele>405.0</ele>
        <time>2022-03-01T14:14:03Z</time>
      </trkpt>
      <trkpt lat="39.9200720" lon="-4.5495770">
        <ele>405.0</ele>
        <time>2022-03-01T14:14:04Z</time>
      </trkpt>
      <trkpt lat="39.9201870" lon="-4.5496720">
        <ele>405.0</ele>
        <time>2022-03-01T14:14:05Z</time>
      </trkpt>
      <trkpt lat="39.9202450" lon="-4.5497200">
        <ele>405.0</ele>
        <time>2022-03-01T14:14:06Z</time>
      </trkpt>
      <trkpt lat="39.9202450" lon="-4.5497200">
        <ele>405.0</ele>
        <time>2022-03-01T14:14:07Z</time>
      </trkpt>
      <trkpt lat="39.9203620" lon="-4.5498130">
        <ele>405.0</ele>
        <time>2022-03-01T14:14:08Z</time>
      </trkpt>
      <trkpt lat="39.9203620" lon="-4.5498130">
        <ele>405.0</ele>
        <time>2022-03-01T14:14:09Z</time>
      </trkpt>
      <trkpt lat="39.9204820" lon="-4.5499100">
        <ele>405.0</ele>
        <time>2022-03-01T14:14:10Z</time>
      </trkpt>
      <trkpt lat="39.9204820" lon="-4.5499100">
        <ele>406.0</ele>
        <time>2022-03-01T14:14:11Z</time>
      </trkpt>
      <trkpt lat="39.9206020" lon="-4.5500080">
        <ele>406.0</ele>
        <time>2022-03-01T14:14:12Z</time>
      </trkpt>
      <trkpt lat="39.9206020" lon="-4.5500080">
        <ele>406.0</ele>
        <time>2022-03-01T14:14:13Z</time>
      </trkpt>
      <trkpt lat="39.9207200" lon="-4.5501050">
        <ele>406.0</ele>
        <time>2022-03-01T14:14:14Z</time>
      </trkpt>
      <trkpt lat="39.9207200" lon="-4.5501050">
        <ele>406.0</ele>
        <time>2022-03-01T14:14:15Z</time>
      </trkpt>
      <trkpt lat="39.9208380" lon="-4.5502000">
        <ele>406.0</ele>
        <time>2022-03-01T14:14:16Z</time>
      </trkpt>
      <trkpt lat="39.9208380" lon="-4.5502000">
        <ele>406.0</ele>
        <time>2022-03-01T14:14:17Z</time>
      </trkpt>
      <trkpt lat="39.9209550" lon="-4.5502950">
        <ele>406.0</ele>
        <time>2022-03-01T14:14:18Z</time>
      </trkpt>
      <trkpt lat="39.9209550" lon="-4.5502950">
        <ele>406.0</ele>
        <time>2022-03-01T14:14:19Z</time>
      </trkpt>
      <trkpt lat="39.9210730" lon="-4.5503880">
        <ele>406.0</ele>
        <time>2022-03-01T14:14:20Z</time>
      </trkpt>
      <trkpt lat="39.9210730" lon="-4.5503880">
        <ele>407.0</ele>
        <time>2022-03-01T14:14:21Z</time>
      </trkpt>
      <trkpt lat="39.9211930" lon="-4.5504830">
        <ele>407.0</ele>
        <time>2022-03-01T14:14:22Z</time>
      </trkpt>
      <trkpt lat="39.9212530" lon="-4.5505330">
        <ele>407.0</ele>
        <time>2022-03-01T14:14:23Z</time>
      </trkpt>
      <trkpt lat="39.9213120" lon="-4.5505820">
        <ele>407.0</ele>
        <time>2022-03-01T14:14:24Z</time>
      </trkpt>
      <trkpt lat="39.9213120" lon="-4.5505820">
        <ele>407.0</ele>
        <time>2022-03-01T14:14:25Z</time>
      </trkpt>
      <trkpt lat="39.9214280" lon="-4.5506780">
        <ele>407.0</ele>
        <time>2022-03-01T14:14:26Z</time>
      </trkpt>
      <trkpt lat="39.9214280" lon="-4.5506780">
        <ele>407.0</ele>
        <time>2022-03-01T14:14:27Z</time>
      </trkpt>
      <trkpt lat="39.9215430" lon="-4.5507720">
        <ele>407.0</ele>
        <time>2022-03-01T14:14:28Z</time>
      </trkpt>
      <trkpt lat="39.9215430" lon="-4.5507720">
        <ele>407.0</ele>
        <time>2022-03-01T14:14:29Z</time>
      </trkpt>
      <trkpt lat="39.9216580" lon="-4.5508650">
        <ele>407.0</ele>
        <time>2022-03-01T14:14:30Z</time>
      </trkpt>
      <trkpt lat="39.9216580" lon="-4.5508650">
        <ele>407.0</ele>
        <time>2022-03-01T14:14:31Z</time>
      </trkpt>
      <trkpt lat="39.9217720" lon="-4.5509570">
        <ele>407.0</ele>
        <time>2022-03-01T14:14:32Z</time>
      </trkpt>
      <trkpt lat="39.9218270" lon="-4.5510030">
        <ele>407.0</ele>
        <time>2022-03-01T14:14:33Z</time>
      </trkpt>
      <trkpt lat="39.9218270" lon="-4.5510030">
        <ele>407.0</ele>
        <time>2022-03-01T14:14:34Z</time>
      </trkpt>
      <trkpt lat="39.9219380" lon="-4.5510900">
        <ele>407.0</ele>
        <time>2022-03-01T14:14:35Z</time>
      </trkpt>
      <trkpt lat="39.9219950" lon="-4.5511350">
        <ele>407.0</ele>
        <time>2022-03-01T14:14:36Z</time>
      </trkpt>
      <trkpt lat="39.9219950" lon="-4.5511350">
        <ele>407.0</ele>
        <time>2022-03-01T14:14:37Z</time>
      </trkpt>
      <trkpt lat="39.9221020" lon="-4.5512230">
        <ele>407.0</ele>
        <time>2022-03-01T14:14:38Z</time>
      </trkpt>
      <trkpt lat="39.9221020" lon="-4.5512230">
        <ele>407.0</ele>
        <time>2022-03-01T14:14:39Z</time>
      </trkpt>
      <trkpt lat="39.9222130" lon="-4.5513100">
        <ele>407.0</ele>
        <time>2022-03-01T14:14:40Z</time>
      </trkpt>
      <trkpt lat="39.9222130" lon="-4.5513100">
        <ele>408.0</ele>
        <time>2022-03-01T14:14:41Z</time>
      </trkpt>
      <trkpt lat="39.9223250" lon="-4.5514000">
        <ele>408.0</ele>
        <time>2022-03-01T14:14:42Z</time>
      </trkpt>
      <trkpt lat="39.9223800" lon="-4.5514470">
        <ele>408.0</ele>
        <time>2022-03-01T14:14:43Z</time>
      </trkpt>
      <trkpt lat="39.9223800" lon="-4.5514470">
        <ele>408.0</ele>
        <time>2022-03-01T14:14:44Z</time>
      </trkpt>
      <trkpt lat="39.9224880" lon="-4.5515370">
        <ele>408.0</ele>
        <time>2022-03-01T14:14:45Z</time>
      </trkpt>
      <trkpt lat="39.9225420" lon="-4.5515820">
        <ele>409.0</ele>
        <time>2022-03-01T14:14:46Z</time>
      </trkpt>
      <trkpt lat="39.9225420" lon="-4.5515820">
        <ele>409.0</ele>
        <time>2022-03-01T14:14:47Z</time>
      </trkpt>
      <trkpt lat="39.9226480" lon="-4.5516680">
        <ele>409.0</ele>
        <time>2022-03-01T14:14:48Z</time>
      </trkpt>
      <trkpt lat="39.9226480" lon="-4.5516680">
        <ele>409.0</ele>
        <time>2022-03-01T14:14:49Z</time>
      </trkpt>
      <trkpt lat="39.9227530" lon="-4.5517530">
        <ele>409.0</ele>
        <time>2022-03-01T14:14:50Z</time>
      </trkpt>
      <trkpt lat="39.9227530" lon="-4.5517530">
        <ele>409.0</ele>
        <time>2022-03-01T14:14:51Z</time>
      </trkpt>
      <trkpt lat="39.9228570" lon="-4.5518350">
        <ele>409.0</ele>
        <time>2022-03-01T14:14:52Z</time>
      </trkpt>
      <trkpt lat="39.9229080" lon="-4.5518730">
        <ele>409.0</ele>
        <time>2022-03-01T14:14:53Z</time>
      </trkpt>
      <trkpt lat="39.9229080" lon="-4.5518730">
        <ele>409.0</ele>
        <time>2022-03-01T14:14:54Z</time>
      </trkpt>
      <trkpt lat="39.9230120" lon="-4.5519530">
        <ele>409.0</ele>
        <time>2022-03-01T14:14:55Z</time>
      </trkpt>
      <trkpt lat="39.9230120" lon="-4.5519530">
        <ele>410.0</ele>
        <time>2022-03-01T14:14:56Z</time>
      </trkpt>
      <trkpt lat="39.9231170" lon="-4.5520380">
        <ele>410.0</ele>
        <time>2022-03-01T14:14:57Z</time>
      </trkpt>
      <trkpt lat="39.9231170" lon="-4.5520380">
        <ele>411.0</ele>
        <time>2022-03-01T14:14:58Z</time>
      </trkpt>
      <trkpt lat="39.9232200" lon="-4.5521220">
        <ele>411.0</ele>
        <time>2022-03-01T14:14:59Z</time>
      </trkpt>
      <trkpt lat="39.9232720" lon="-4.5521670">
        <ele>411.0</ele>
        <time>2022-03-01T14:15:00Z</time>
      </trkpt>
      <trkpt lat="39.9232720" lon="-4.5521670">
        <ele>411.0</ele>
        <time>2022-03-01T14:15:01Z</time>
      </trkpt>
      <trkpt lat="39.9233750" lon="-4.5522530">
        <ele>411.0</ele>
        <time>2022-03-01T14:15:02Z</time>
      </trkpt>
      <trkpt lat="39.9233750" lon="-4.5522530">
        <ele>411.0</ele>
        <time>2022-03-01T14:15:03Z</time>
      </trkpt>
      <trkpt lat="39.9234820" lon="-4.5523400">
        <ele>411.0</ele>
        <time>2022-03-01T14:15:04Z</time>
      </trkpt>
      <trkpt lat="39.9235370" lon="-4.5523830">
        <ele>411.0</ele>
        <time>2022-03-01T14:15:05Z</time>
      </trkpt>
      <trkpt lat="39.9235900" lon="-4.5524280">
        <ele>412.0</ele>
        <time>2022-03-01T14:15:06Z</time>
      </trkpt>
      <trkpt lat="39.9235900" lon="-4.5524280">
        <ele>412.0</ele>
        <time>2022-03-01T14:15:07Z</time>
      </trkpt>
      <trkpt lat="39.9237000" lon="-4.5525180">
        <ele>412.0</ele>
        <time>2022-03-01T14:15:08Z</time>
      </trkpt>
      <trkpt lat="39.9237550" lon="-4.5525650">
        <ele>412.0</ele>
        <time>2022-03-01T14:15:09Z</time>
      </trkpt>
      <trkpt lat="39.9237550" lon="-4.5525650">
        <ele>412.0</ele>
        <time>2022-03-01T14:15:10Z</time>
      </trkpt>
      <trkpt lat="39.9238650" lon="-4.5526570">
        <ele>412.0</ele>
        <time>2022-03-01T14:15:11Z</time>
      </trkpt>
      <trkpt lat="39.9239200" lon="-4.5527020">
        <ele>412.0</ele>
        <time>2022-03-01T14:15:12Z</time>
      </trkpt>
      <trkpt lat="39.9239200" lon="-4.5527020">
        <ele>412.0</ele>
        <time>2022-03-01T14:15:13Z</time>
      </trkpt>
      <trkpt lat="39.9240320" lon="-4.5527930">
        <ele>412.0</ele>
        <time>2022-03-01T14:15:14Z</time>
      </trkpt>
      <trkpt lat="39.9240880" lon="-4.5528380">
        <ele>412.0</ele>
        <time>2022-03-01T14:15:15Z</time>
      </trkpt>
      <trkpt lat="39.9241430" lon="-4.5528830">
        <ele>413.0</ele>
        <time>2022-03-01T14:15:16Z</time>
      </trkpt>
      <trkpt lat="39.9241430" lon="-4.5528830">
        <ele>413.0</ele>
        <time>2022-03-01T14:15:17Z</time>
      </trkpt>
      <trkpt lat="39.9242570" lon="-4.5529780">
        <ele>413.0</ele>
        <time>2022-03-01T14:15:18Z</time>
      </trkpt>
      <trkpt lat="39.9242570" lon="-4.5529780">
        <ele>413.0</ele>
        <time>2022-03-01T14:15:19Z</time>
      </trkpt>
      <trkpt lat="39.9243730" lon="-4.5530730">
        <ele>413.0</ele>
        <time>2022-03-01T14:15:20Z</time>
      </trkpt>
      <trkpt lat="39.9244320" lon="-4.5531200">
        <ele>413.0</ele>
        <time>2022-03-01T14:15:21Z</time>
      </trkpt>
      <trkpt lat="39.9244320" lon="-4.5531200">
        <ele>413.0</ele>
        <time>2022-03-01T14:15:22Z</time>
      </trkpt>
      <trkpt lat="39.9245550" lon="-4.5532200">
        <ele>413.0</ele>
        <time>2022-03-01T14:15:23Z</time>
      </trkpt>
      <trkpt lat="39.9245550" lon="-4.5532200">
        <ele>413.0</ele>
        <time>2022-03-01T14:15:24Z</time>
      </trkpt>
      <trkpt lat="39.9246820" lon="-4.5533180">
        <ele>413.0</ele>
        <time>2022-03-01T14:15:25Z</time>
      </trkpt>
      <trkpt lat="39.9246820" lon="-4.5533180">
        <ele>413.0</ele>
        <time>2022-03-01T14:15:26Z</time>
      </trkpt>
      <trkpt lat="39.9248100" lon="-4.5534200">
        <ele>413.0</ele>
        <time>2022-03-01T14:15:27Z</time>
      </trkpt>
      <trkpt lat="39.9248100" lon="-4.5534200">
        <ele>413.0</ele>
        <time>2022-03-01T14:15:28Z</time>
      </trkpt>
      <trkpt lat="39.9249370" lon="-4.5535220">
        <ele>413.0</ele>
        <time>2022-03-01T14:15:29Z</time>
      </trkpt>
      <trkpt lat="39.9250000" lon="-4.5535720">
        <ele>413.0</ele>
        <time>2022-03-01T14:15:30Z</time>
      </trkpt>
      <trkpt lat="39.9250000" lon="-4.5535720">
        <ele>413.0</ele>
        <time>2022-03-01T14:15:31Z</time>
      </trkpt>
      <trkpt lat="39.9251250" lon="-4.5536750">
        <ele>413.0</ele>
        <time>2022-03-01T14:15:32Z</time>
      </trkpt>
      <trkpt lat="39.9251870" lon="-4.5537220">
        <ele>412.0</ele>
        <time>2022-03-01T14:15:33Z</time>
      </trkpt>
      <trkpt lat="39.9251870" lon="-4.5537220">
        <ele>412.0</ele>
        <time>2022-03-01T14:15:34Z</time>
      </trkpt>
      <trkpt lat="39.9253100" lon="-4.5538270">
        <ele>412.0</ele>
        <time>2022-03-01T14:15:35Z</time>
      </trkpt>
      <trkpt lat="39.9253730" lon="-4.5538780">
        <ele>412.0</ele>
        <time>2022-03-01T14:15:36Z</time>
      </trkpt>
      <trkpt lat="39.9253730" lon="-4.5538780">
        <ele>412.0</ele>
        <time>2022-03-01T14:15:37Z</time>
      </trkpt>
      <trkpt lat="39.9254970" lon="-4.5539800">
        <ele>412.0</ele>
        <time>2022-03-01T14:15:38Z</time>
      </trkpt>
      <trkpt lat="39.9254970" lon="-4.5539800">
        <ele>412.0</ele>
        <time>2022-03-01T14:15:39Z</time>
      </trkpt>
      <trkpt lat="39.9256270" lon="-4.5540870">
        <ele>412.0</ele>
        <time>2022-03-01T14:15:40Z</time>
      </trkpt>
      <trkpt lat="39.9256270" lon="-4.5540870">
        <ele>412.0</ele>
        <time>2022-03-01T14:15:41Z</time>
      </trkpt>
      <trkpt lat="39.9257550" lon="-4.5541900">
        <ele>412.0</ele>
        <time>2022-03-01T14:15:42Z</time>
      </trkpt>
      <trkpt lat="39.9258180" lon="-4.5542400">
        <ele>412.0</ele>
        <time>2022-03-01T14:15:43Z</time>
      </trkpt>
      <trkpt lat="39.9258180" lon="-4.5542400">
        <ele>412.0</ele>
        <time>2022-03-01T14:15:44Z</time>
      </trkpt>
      <trkpt lat="39.9259450" lon="-4.5543470">
        <ele>412.0</ele>
        <time>2022-03-01T14:15:45Z</time>
      </trkpt>
      <trkpt lat="39.9260080" lon="-4.5543980">
        <ele>412.0</ele>
        <time>2022-03-01T14:15:46Z</time>
      </trkpt>
      <trkpt lat="39.9260080" lon="-4.5543980">
        <ele>412.0</ele>
        <time>2022-03-01T14:15:47Z</time>
      </trkpt>
      <trkpt lat="39.9261370" lon="-4.5545030">
        <ele>412.0</ele>
        <time>2022-03-01T14:15:48Z</time>
      </trkpt>
      <trkpt lat="39.9261370" lon="-4.5545030">
        <ele>412.0</ele>
        <time>2022-03-01T14:15:49Z</time>
      </trkpt>
      <trkpt lat="39.9262680" lon="-4.5546070">
        <ele>412.0</ele>
        <time>2022-03-01T14:15:50Z</time>
      </trkpt>
      <trkpt lat="39.9262680" lon="-4.5546070">
        <ele>412.0</ele>
        <time>2022-03-01T14:15:51Z</time>
      </trkpt>
      <trkpt lat="39.9264000" lon="-4.5547170">
        <ele>412.0</ele>
        <time>2022-03-01T14:15:52Z</time>
      </trkpt>
      <trkpt lat="39.9264000" lon="-4.5547170">
        <ele>412.0</ele>
        <time>2022-03-01T14:15:53Z</time>
      </trkpt>
      <trkpt lat="39.9265280" lon="-4.5548270">
        <ele>412.0</ele>
        <time>2022-03-01T14:15:54Z</time>
      </trkpt>
      <trkpt lat="39.9265280" lon="-4.5548270">
        <ele>412.0</ele>
        <time>2022-03-01T14:15:55Z</time>
      </trkpt>
      <trkpt lat="39.9266530" lon="-4.5549280">
        <ele>412.0</ele>
        <time>2022-03-01T14:15:56Z</time>
      </trkpt>
      <trkpt lat="39.9266530" lon="-4.5549280">
        <ele>412.0</ele>
        <time>2022-03-01T14:15:57Z</time>
      </trkpt>
      <trkpt lat="39.9267820" lon="-4.5550320">
        <ele>412.0</ele>
        <time>2022-03-01T14:15:58Z</time>
      </trkpt>
      <trkpt lat="39.9267820" lon="-4.5550320">
        <ele>412.0</ele>
        <time>2022-03-01T14:15:59Z</time>
      </trkpt>
      <trkpt lat="39.9269070" lon="-4.5551300">
        <ele>412.0</ele>
        <time>2022-03-01T14:16:00Z</time>
      </trkpt>
      <trkpt lat="39.9269070" lon="-4.5551300">
        <ele>412.0</ele>
        <time>2022-03-01T14:16:01Z</time>
      </trkpt>
      <trkpt lat="39.9270320" lon="-4.5552300">
        <ele>412.0</ele>
        <time>2022-03-01T14:16:02Z</time>
      </trkpt>
      <trkpt lat="39.9270320" lon="-4.5552300">
        <ele>412.0</ele>
        <time>2022-03-01T14:16:03Z</time>
      </trkpt>
      <trkpt lat="39.9271500" lon="-4.5553270">
        <ele>411.0</ele>
        <time>2022-03-01T14:16:04Z</time>
      </trkpt>
      <trkpt lat="39.9271500" lon="-4.5553270">
        <ele>411.0</ele>
        <time>2022-03-01T14:16:05Z</time>
      </trkpt>
      <trkpt lat="39.9272650" lon="-4.5554250">
        <ele>411.0</ele>
        <time>2022-03-01T14:16:06Z</time>
      </trkpt>
      <trkpt lat="39.9272650" lon="-4.5554250">
        <ele>411.0</ele>
        <time>2022-03-01T14:16:07Z</time>
      </trkpt>
      <trkpt lat="39.9273800" lon="-4.5555170">
        <ele>411.0</ele>
        <time>2022-03-01T14:16:08Z</time>
      </trkpt>
      <trkpt lat="39.9273800" lon="-4.5555170">
        <ele>411.0</ele>
        <time>2022-03-01T14:16:09Z</time>
      </trkpt>
      <trkpt lat="39.9274930" lon="-4.5556080">
        <ele>411.0</ele>
        <time>2022-03-01T14:16:10Z</time>
      </trkpt>
      <trkpt lat="39.9274930" lon="-4.5556080">
        <ele>411.0</ele>
        <time>2022-03-01T14:16:11Z</time>
      </trkpt>
      <trkpt lat="39.9276070" lon="-4.5557000">
        <ele>411.0</ele>
        <time>2022-03-01T14:16:12Z</time>
      </trkpt>
      <trkpt lat="39.9276630" lon="-4.5557480">
        <ele>411.0</ele>
        <time>2022-03-01T14:16:13Z</time>
      </trkpt>
      <trkpt lat="39.9276630" lon="-4.5557480">
        <ele>411.0</ele>
        <time>2022-03-01T14:16:14Z</time>
      </trkpt>
      <trkpt lat="39.9277770" lon="-4.5558400">
        <ele>411.0</ele>
        <time>2022-03-01T14:16:15Z</time>
      </trkpt>
      <trkpt lat="39.9278350" lon="-4.5558870">
        <ele>411.0</ele>
        <time>2022-03-01T14:16:16Z</time>
      </trkpt>
      <trkpt lat="39.9278350" lon="-4.5558870">
        <ele>411.0</ele>
        <time>2022-03-01T14:16:17Z</time>
      </trkpt>
      <trkpt lat="39.9279470" lon="-4.5559780">
        <ele>411.0</ele>
        <time>2022-03-01T14:16:18Z</time>
      </trkpt>
      <trkpt lat="39.9279470" lon="-4.5559780">
        <ele>411.0</ele>
        <time>2022-03-01T14:16:19Z</time>
      </trkpt>
      <trkpt lat="39.9280580" lon="-4.5560700">
        <ele>411.0</ele>
        <time>2022-03-01T14:16:20Z</time>
      </trkpt>
      <trkpt lat="39.9280580" lon="-4.5560700">
        <ele>411.0</ele>
        <time>2022-03-01T14:16:21Z</time>
      </trkpt>
      <trkpt lat="39.9281700" lon="-4.5561580">
        <ele>411.0</ele>
        <time>2022-03-01T14:16:22Z</time>
      </trkpt>
      <trkpt lat="39.9281700" lon="-4.5561580">
        <ele>411.0</ele>
        <time>2022-03-01T14:16:23Z</time>
      </trkpt>
      <trkpt lat="39.9282820" lon="-4.5562500">
        <ele>411.0</ele>
        <time>2022-03-01T14:16:24Z</time>
      </trkpt>
      <trkpt lat="39.9282820" lon="-4.5562500">
        <ele>411.0</ele>
        <time>2022-03-01T14:16:25Z</time>
      </trkpt>
      <trkpt lat="39.9283900" lon="-4.5563470">
        <ele>412.0</ele>
        <time>2022-03-01T14:16:26Z</time>
      </trkpt>
      <trkpt lat="39.9284430" lon="-4.5563920">
        <ele>412.0</ele>
        <time>2022-03-01T14:16:27Z</time>
      </trkpt>
      <trkpt lat="39.9284430" lon="-4.5563920">
        <ele>412.0</ele>
        <time>2022-03-01T14:16:28Z</time>
      </trkpt>
      <trkpt lat="39.9285530" lon="-4.5564820">
        <ele>412.0</ele>
        <time>2022-03-01T14:16:29Z</time>
      </trkpt>
      <trkpt lat="39.9286080" lon="-4.5565270">
        <ele>412.0</ele>
        <time>2022-03-01T14:16:30Z</time>
      </trkpt>
      <trkpt lat="39.9286630" lon="-4.5565720">
        <ele>412.0</ele>
        <time>2022-03-01T14:16:31Z</time>
      </trkpt>
      <trkpt lat="39.9286630" lon="-4.5565720">
        <ele>412.0</ele>
        <time>2022-03-01T14:16:32Z</time>
      </trkpt>
      <trkpt lat="39.9287720" lon="-4.5566580">
        <ele>412.0</ele>
        <time>2022-03-01T14:16:33Z</time>
      </trkpt>
      <trkpt lat="39.9287720" lon="-4.5566580">
        <ele>412.0</ele>
        <time>2022-03-01T14:16:34Z</time>
      </trkpt>
      <trkpt lat="39.9288830" lon="-4.5567470">
        <ele>412.0</ele>
        <time>2022-03-01T14:16:35Z</time>
      </trkpt>
      <trkpt lat="39.9289400" lon="-4.5567930">
        <ele>412.0</ele>
        <time>2022-03-01T14:16:36Z</time>
      </trkpt>
      <trkpt lat="39.9289400" lon="-4.5567930">
        <ele>412.0</ele>
        <time>2022-03-01T14:16:37Z</time>
      </trkpt>
      <trkpt lat="39.9290550" lon="-4.5568870">
        <ele>412.0</ele>
        <time>2022-03-01T14:16:38Z</time>
      </trkpt>
      <trkpt lat="39.9290550" lon="-4.5568870">
        <ele>413.0</ele>
        <time>2022-03-01T14:16:39Z</time>
      </trkpt>
      <trkpt lat="39.9291700" lon="-4.5569800">
        <ele>413.0</ele>
        <time>2022-03-01T14:16:40Z</time>
      </trkpt>
      <trkpt lat="39.9291700" lon="-4.5569800">
        <ele>413.0</ele>
        <time>2022-03-01T14:16:41Z</time>
      </trkpt>
      <trkpt lat="39.9292850" lon="-4.5570720">
        <ele>413.0</ele>
        <time>2022-03-01T14:16:42Z</time>
      </trkpt>
      <trkpt lat="39.9292850" lon="-4.5570720">
        <ele>413.0</ele>
        <time>2022-03-01T14:16:43Z</time>
      </trkpt>
      <trkpt lat="39.9293980" lon="-4.5571650">
        <ele>413.0</ele>
        <time>2022-03-01T14:16:44Z</time>
      </trkpt>
      <trkpt lat="39.9294550" lon="-4.5572100">
        <ele>413.0</ele>
        <time>2022-03-01T14:16:45Z</time>
      </trkpt>
      <trkpt lat="39.9294550" lon="-4.5572100">
        <ele>413.0</ele>
        <time>2022-03-01T14:16:46Z</time>
      </trkpt>
      <trkpt lat="39.9295700" lon="-4.5573030">
        <ele>413.0</ele>
        <time>2022-03-01T14:16:47Z</time>
      </trkpt>
      <trkpt lat="39.9295700" lon="-4.5573030">
        <ele>413.0</ele>
        <time>2022-03-01T14:16:48Z</time>
      </trkpt>
      <trkpt lat="39.9296820" lon="-4.5573930">
        <ele>413.0</ele>
        <time>2022-03-01T14:16:49Z</time>
      </trkpt>
      <trkpt lat="39.9297380" lon="-4.5574380">
        <ele>413.0</ele>
        <time>2022-03-01T14:16:50Z</time>
      </trkpt>
      <trkpt lat="39.9297380" lon="-4.5574380">
        <ele>414.0</ele>
        <time>2022-03-01T14:16:51Z</time>
      </trkpt>
      <trkpt lat="39.9298480" lon="-4.5575300">
        <ele>414.0</ele>
        <time>2022-03-01T14:16:52Z</time>
      </trkpt>
      <trkpt lat="39.9298480" lon="-4.5575300">
        <ele>414.0</ele>
        <time>2022-03-01T14:16:53Z</time>
      </trkpt>
      <trkpt lat="39.9299570" lon="-4.5576180">
        <ele>414.0</ele>
        <time>2022-03-01T14:16:54Z</time>
      </trkpt>
      <trkpt lat="39.9299570" lon="-4.5576180">
        <ele>414.0</ele>
        <time>2022-03-01T14:16:55Z</time>
      </trkpt>
      <trkpt lat="39.9300670" lon="-4.5577050">
        <ele>414.0</ele>
        <time>2022-03-01T14:16:56Z</time>
      </trkpt>
      <trkpt lat="39.9301200" lon="-4.5577470">
        <ele>414.0</ele>
        <time>2022-03-01T14:16:57Z</time>
      </trkpt>
      <trkpt lat="39.9301200" lon="-4.5577470">
        <ele>414.0</ele>
        <time>2022-03-01T14:16:58Z</time>
      </trkpt>
      <trkpt lat="39.9302320" lon="-4.5578370">
        <ele>415.0</ele>
        <time>2022-03-01T14:16:59Z</time>
      </trkpt>
      <trkpt lat="39.9302320" lon="-4.5578370">
        <ele>415.0</ele>
        <time>2022-03-01T14:17:00Z</time>
      </trkpt>
      <trkpt lat="39.9303450" lon="-4.5579280">
        <ele>415.0</ele>
        <time>2022-03-01T14:17:01Z</time>
      </trkpt>
      <trkpt lat="39.9303450" lon="-4.5579280">
        <ele>415.0</ele>
        <time>2022-03-01T14:17:02Z</time>
      </trkpt>
      <trkpt lat="39.9304600" lon="-4.5580220">
        <ele>415.0</ele>
        <time>2022-03-01T14:17:03Z</time>
      </trkpt>
      <trkpt lat="39.9304600" lon="-4.5580220">
        <ele>415.0</ele>
        <time>2022-03-01T14:17:04Z</time>
      </trkpt>
      <trkpt lat="39.9305750" lon="-4.5581130">
        <ele>415.0</ele>
        <time>2022-03-01T14:17:05Z</time>
      </trkpt>
      <trkpt lat="39.9306320" lon="-4.5581580">
        <ele>415.0</ele>
        <time>2022-03-01T14:17:06Z</time>
      </trkpt>
      <trkpt lat="39.9306320" lon="-4.5581580">
        <ele>415.0</ele>
        <time>2022-03-01T14:17:07Z</time>
      </trkpt>
      <trkpt lat="39.9307470" lon="-4.5582480">
        <ele>415.0</ele>
        <time>2022-03-01T14:17:08Z</time>
      </trkpt>
      <trkpt lat="39.9307470" lon="-4.5582480">
        <ele>415.0</ele>
        <time>2022-03-01T14:17:09Z</time>
      </trkpt>
      <trkpt lat="39.9308600" lon="-4.5583400">
        <ele>415.0</ele>
        <time>2022-03-01T14:17:10Z</time>
      </trkpt>
      <trkpt lat="39.9309150" lon="-4.5583850">
        <ele>415.0</ele>
        <time>2022-03-01T14:17:11Z</time>
      </trkpt>
      <trkpt lat="39.9309150" lon="-4.5583850">
        <ele>415.0</ele>
        <time>2022-03-01T14:17:12Z</time>
      </trkpt>
      <trkpt lat="39.9310230" lon="-4.5584750">
        <ele>415.0</ele>
        <time>2022-03-01T14:17:13Z</time>
      </trkpt>
      <trkpt lat="39.9310230" lon="-4.5584750">
        <ele>415.0</ele>
        <time>2022-03-01T14:17:14Z</time>
      </trkpt>
      <trkpt lat="39.9311280" lon="-4.5585580">
        <ele>415.0</ele>
        <time>2022-03-01T14:17:15Z</time>
      </trkpt>
      <trkpt lat="39.9311280" lon="-4.5585580">
        <ele>415.0</ele>
        <time>2022-03-01T14:17:16Z</time>
      </trkpt>
      <trkpt lat="39.9312330" lon="-4.5586420">
        <ele>416.0</ele>
        <time>2022-03-01T14:17:17Z</time>
      </trkpt>
      <trkpt lat="39.9312850" lon="-4.5586850">
        <ele>416.0</ele>
        <time>2022-03-01T14:17:18Z</time>
      </trkpt>
      <trkpt lat="39.9313370" lon="-4.5587270">
        <ele>416.0</ele>
        <time>2022-03-01T14:17:19Z</time>
      </trkpt>
      <trkpt lat="39.9313370" lon="-4.5587270">
        <ele>416.0</ele>
        <time>2022-03-01T14:17:20Z</time>
      </trkpt>
      <trkpt lat="39.9314400" lon="-4.5588100">
        <ele>416.0</ele>
        <time>2022-03-01T14:17:21Z</time>
      </trkpt>
      <trkpt lat="39.9314400" lon="-4.5588100">
        <ele>416.0</ele>
        <time>2022-03-01T14:17:22Z</time>
      </trkpt>
      <trkpt lat="39.9315400" lon="-4.5588920">
        <ele>416.0</ele>
        <time>2022-03-01T14:17:23Z</time>
      </trkpt>
      <trkpt lat="39.9315900" lon="-4.5589320">
        <ele>416.0</ele>
        <time>2022-03-01T14:17:24Z</time>
      </trkpt>
      <trkpt lat="39.9315900" lon="-4.5589320">
        <ele>416.0</ele>
        <time>2022-03-01T14:17:25Z</time>
      </trkpt>
      <trkpt lat="39.9316880" lon="-4.5590150">
        <ele>417.0</ele>
        <time>2022-03-01T14:17:26Z</time>
      </trkpt>
      <trkpt lat="39.9316880" lon="-4.5590150">
        <ele>417.0</ele>
        <time>2022-03-01T14:17:27Z</time>
      </trkpt>
      <trkpt lat="39.9317900" lon="-4.5590970">
        <ele>417.0</ele>
        <time>2022-03-01T14:17:28Z</time>
      </trkpt>
      <trkpt lat="39.9317900" lon="-4.5590970">
        <ele>417.0</ele>
        <time>2022-03-01T14:17:29Z</time>
      </trkpt>
      <trkpt lat="39.9318920" lon="-4.5591780">
        <ele>417.0</ele>
        <time>2022-03-01T14:17:30Z</time>
      </trkpt>
      <trkpt lat="39.9318920" lon="-4.5591780">
        <ele>417.0</ele>
        <time>2022-03-01T14:17:31Z</time>
      </trkpt>
      <trkpt lat="39.9319950" lon="-4.5592600">
        <ele>418.0</ele>
        <time>2022-03-01T14:17:32Z</time>
      </trkpt>
      <trkpt lat="39.9320470" lon="-4.5593020">
        <ele>418.0</ele>
        <time>2022-03-01T14:17:33Z</time>
      </trkpt>
      <trkpt lat="39.9320980" lon="-4.5593430">
        <ele>418.0</ele>
        <time>2022-03-01T14:17:34Z</time>
      </trkpt>
      <trkpt lat="39.9320980" lon="-4.5593430">
        <ele>418.0</ele>
        <time>2022-03-01T14:17:35Z</time>
      </trkpt>
      <trkpt lat="39.9321980" lon="-4.5594250">
        <ele>418.0</ele>
        <time>2022-03-01T14:17:36Z</time>
      </trkpt>
      <trkpt lat="39.9322480" lon="-4.5594670">
        <ele>418.0</ele>
        <time>2022-03-01T14:17:37Z</time>
      </trkpt>
      <trkpt lat="39.9322480" lon="-4.5594670">
        <ele>418.0</ele>
        <time>2022-03-01T14:17:38Z</time>
      </trkpt>
      <trkpt lat="39.9323480" lon="-4.5595470">
        <ele>418.0</ele>
        <time>2022-03-01T14:17:39Z</time>
      </trkpt>
      <trkpt lat="39.9323970" lon="-4.5595870">
        <ele>418.0</ele>
        <time>2022-03-01T14:17:40Z</time>
      </trkpt>
      <trkpt lat="39.9323970" lon="-4.5595870">
        <ele>418.0</ele>
        <time>2022-03-01T14:17:41Z</time>
      </trkpt>
      <trkpt lat="39.9324970" lon="-4.5596670">
        <ele>418.0</ele>
        <time>2022-03-01T14:17:42Z</time>
      </trkpt>
      <trkpt lat="39.9324970" lon="-4.5596670">
        <ele>418.0</ele>
        <time>2022-03-01T14:17:43Z</time>
      </trkpt>
      <trkpt lat="39.9325970" lon="-4.5597470">
        <ele>418.0</ele>
        <time>2022-03-01T14:17:44Z</time>
      </trkpt>
      <trkpt lat="39.9325970" lon="-4.5597470">
        <ele>418.0</ele>
        <time>2022-03-01T14:17:45Z</time>
      </trkpt>
      <trkpt lat="39.9326930" lon="-4.5598280">
        <ele>418.0</ele>
        <time>2022-03-01T14:17:46Z</time>
      </trkpt>
      <trkpt lat="39.9326930" lon="-4.5598280">
        <ele>418.0</ele>
        <time>2022-03-01T14:17:47Z</time>
      </trkpt>
      <trkpt lat="39.9327920" lon="-4.5599050">
        <ele>418.0</ele>
        <time>2022-03-01T14:17:48Z</time>
      </trkpt>
      <trkpt lat="39.9327920" lon="-4.5599050">
        <ele>418.0</ele>
        <time>2022-03-01T14:17:49Z</time>
      </trkpt>
      <trkpt lat="39.9328870" lon="-4.5599780">
        <ele>418.0</ele>
        <time>2022-03-01T14:17:50Z</time>
      </trkpt>
      <trkpt lat="39.9328870" lon="-4.5599780">
        <ele>418.0</ele>
        <time>2022-03-01T14:17:51Z</time>
      </trkpt>
      <trkpt lat="39.9329820" lon="-4.5600550">
        <ele>418.0</ele>
        <time>2022-03-01T14:17:52Z</time>
      </trkpt>
      <trkpt lat="39.9329820" lon="-4.5600550">
        <ele>418.0</ele>
        <time>2022-03-01T14:17:53Z</time>
      </trkpt>
      <trkpt lat="39.9330770" lon="-4.5601370">
        <ele>418.0</ele>
        <time>2022-03-01T14:17:54Z</time>
      </trkpt>
      <trkpt lat="39.9330770" lon="-4.5601370">
        <ele>418.0</ele>
        <time>2022-03-01T14:17:55Z</time>
      </trkpt>
      <trkpt lat="39.9331780" lon="-4.5602150">
        <ele>419.0</ele>
        <time>2022-03-01T14:17:56Z</time>
      </trkpt>
      <trkpt lat="39.9331780" lon="-4.5602150">
        <ele>419.0</ele>
        <time>2022-03-01T14:17:57Z</time>
      </trkpt>
      <trkpt lat="39.9332780" lon="-4.5602950">
        <ele>419.0</ele>
        <time>2022-03-01T14:17:58Z</time>
      </trkpt>
      <trkpt lat="39.9332780" lon="-4.5602950">
        <ele>419.0</ele>
        <time>2022-03-01T14:17:59Z</time>
      </trkpt>
      <trkpt lat="39.9333820" lon="-4.5603820">
        <ele>419.0</ele>
        <time>2022-03-01T14:18:00Z</time>
      </trkpt>
      <trkpt lat="39.9333820" lon="-4.5603820">
        <ele>419.0</ele>
        <time>2022-03-01T14:18:01Z</time>
      </trkpt>
      <trkpt lat="39.9334830" lon="-4.5604670">
        <ele>419.0</ele>
        <time>2022-03-01T14:18:02Z</time>
      </trkpt>
      <trkpt lat="39.9335330" lon="-4.5605080">
        <ele>419.0</ele>
        <time>2022-03-01T14:18:03Z</time>
      </trkpt>
      <trkpt lat="39.9335330" lon="-4.5605080">
        <ele>419.0</ele>
        <time>2022-03-01T14:18:04Z</time>
      </trkpt>
      <trkpt lat="39.9336350" lon="-4.5605880">
        <ele>419.0</ele>
        <time>2022-03-01T14:18:05Z</time>
      </trkpt>
      <trkpt lat="39.9336350" lon="-4.5605880">
        <ele>419.0</ele>
        <time>2022-03-01T14:18:06Z</time>
      </trkpt>
      <trkpt lat="39.9337320" lon="-4.5606680">
        <ele>419.0</ele>
        <time>2022-03-01T14:18:07Z</time>
      </trkpt>
      <trkpt lat="39.9337800" lon="-4.5607080">
        <ele>419.0</ele>
        <time>2022-03-01T14:18:08Z</time>
      </trkpt>
      <trkpt lat="39.9337800" lon="-4.5607080">
        <ele>419.0</ele>
        <time>2022-03-01T14:18:09Z</time>
      </trkpt>
      <trkpt lat="39.9338770" lon="-4.5607870">
        <ele>420.0</ele>
        <time>2022-03-01T14:18:10Z</time>
      </trkpt>
      <trkpt lat="39.9338770" lon="-4.5607870">
        <ele>420.0</ele>
        <time>2022-03-01T14:18:11Z</time>
      </trkpt>
      <trkpt lat="39.9339730" lon="-4.5608670">
        <ele>420.0</ele>
        <time>2022-03-01T14:18:12Z</time>
      </trkpt>
      <trkpt lat="39.9339730" lon="-4.5608670">
        <ele>421.0</ele>
        <time>2022-03-01T14:18:13Z</time>
      </trkpt>
      <trkpt lat="39.9340700" lon="-4.5609450">
        <ele>421.0</ele>
        <time>2022-03-01T14:18:14Z</time>
      </trkpt>
      <trkpt lat="39.9341180" lon="-4.5609830">
        <ele>421.0</ele>
        <time>2022-03-01T14:18:15Z</time>
      </trkpt>
      <trkpt lat="39.9341670" lon="-4.5610220">
        <ele>421.0</ele>
        <time>2022-03-01T14:18:16Z</time>
      </trkpt>
      <trkpt lat="39.9341670" lon="-4.5610220">
        <ele>421.0</ele>
        <time>2022-03-01T14:18:17Z</time>
      </trkpt>
      <trkpt lat="39.9342630" lon="-4.5611000">
        <ele>421.0</ele>
        <time>2022-03-01T14:18:18Z</time>
      </trkpt>
      <trkpt lat="39.9342630" lon="-4.5611000">
        <ele>422.0</ele>
        <time>2022-03-01T14:18:19Z</time>
      </trkpt>
      <trkpt lat="39.9343580" lon="-4.5611780">
        <ele>422.0</ele>
        <time>2022-03-01T14:18:20Z</time>
      </trkpt>
      <trkpt lat="39.9343580" lon="-4.5611780">
        <ele>422.0</ele>
        <time>2022-03-01T14:18:21Z</time>
      </trkpt>
      <trkpt lat="39.9344570" lon="-4.5612570">
        <ele>422.0</ele>
        <time>2022-03-01T14:18:22Z</time>
      </trkpt>
      <trkpt lat="39.9345030" lon="-4.5612970">
        <ele>422.0</ele>
        <time>2022-03-01T14:18:23Z</time>
      </trkpt>
      <trkpt lat="39.9345530" lon="-4.5613350">
        <ele>422.0</ele>
        <time>2022-03-01T14:18:24Z</time>
      </trkpt>
      <trkpt lat="39.9345530" lon="-4.5613350">
        <ele>422.0</ele>
        <time>2022-03-01T14:18:25Z</time>
      </trkpt>
      <trkpt lat="39.9346500" lon="-4.5614100">
        <ele>422.0</ele>
        <time>2022-03-01T14:18:26Z</time>
      </trkpt>
      <trkpt lat="39.9346980" lon="-4.5614480">
        <ele>422.0</ele>
        <time>2022-03-01T14:18:27Z</time>
      </trkpt>
      <trkpt lat="39.9347470" lon="-4.5614870">
        <ele>422.0</ele>
        <time>2022-03-01T14:18:28Z</time>
      </trkpt>
      <trkpt lat="39.9347470" lon="-4.5614870">
        <ele>422.0</ele>
        <time>2022-03-01T14:18:29Z</time>
      </trkpt>
      <trkpt lat="39.9348430" lon="-4.5615670">
        <ele>422.0</ele>
        <time>2022-03-01T14:18:30Z</time>
      </trkpt>
      <trkpt lat="39.9348920" lon="-4.5616070">
        <ele>423.0</ele>
        <time>2022-03-01T14:18:31Z</time>
      </trkpt>
      <trkpt lat="39.9348920" lon="-4.5616070">
        <ele>423.0</ele>
        <time>2022-03-01T14:18:32Z</time>
      </trkpt>
      <trkpt lat="39.9349900" lon="-4.5616870">
        <ele>423.0</ele>
        <time>2022-03-01T14:18:33Z</time>
      </trkpt>
      <trkpt lat="39.9349900" lon="-4.5616870">
        <ele>423.0</ele>
        <time>2022-03-01T14:18:34Z</time>
      </trkpt>
      <trkpt lat="39.9350870" lon="-4.5617650">
        <ele>424.0</ele>
        <time>2022-03-01T14:18:35Z</time>
      </trkpt>
      <trkpt lat="39.9350870" lon="-4.5617650">
        <ele>424.0</ele>
        <time>2022-03-01T14:18:36Z</time>
      </trkpt>
      <trkpt lat="39.9351850" lon="-4.5618420">
        <ele>424.0</ele>
        <time>2022-03-01T14:18:37Z</time>
      </trkpt>
      <trkpt lat="39.9351850" lon="-4.5618420">
        <ele>424.0</ele>
        <time>2022-03-01T14:18:38Z</time>
      </trkpt>
      <trkpt lat="39.9352820" lon="-4.5619200">
        <ele>424.0</ele>
        <time>2022-03-01T14:18:39Z</time>
      </trkpt>
      <trkpt lat="39.9352820" lon="-4.5619200">
        <ele>424.0</ele>
        <time>2022-03-01T14:18:40Z</time>
      </trkpt>
      <trkpt lat="39.9353750" lon="-4.5619970">
        <ele>424.0</ele>
        <time>2022-03-01T14:18:41Z</time>
      </trkpt>
      <trkpt lat="39.9353750" lon="-4.5619970">
        <ele>424.0</ele>
        <time>2022-03-01T14:18:42Z</time>
      </trkpt>
      <trkpt lat="39.9354650" lon="-4.5620720">
        <ele>424.0</ele>
        <time>2022-03-01T14:18:43Z</time>
      </trkpt>
      <trkpt lat="39.9355120" lon="-4.5621080">
        <ele>424.0</ele>
        <time>2022-03-01T14:18:44Z</time>
      </trkpt>
      <trkpt lat="39.9355120" lon="-4.5621080">
        <ele>424.0</ele>
        <time>2022-03-01T14:18:45Z</time>
      </trkpt>
      <trkpt lat="39.9356050" lon="-4.5621870">
        <ele>424.0</ele>
        <time>2022-03-01T14:18:46Z</time>
      </trkpt>
      <trkpt lat="39.9356050" lon="-4.5621870">
        <ele>424.0</ele>
        <time>2022-03-01T14:18:47Z</time>
      </trkpt>
      <trkpt lat="39.9356970" lon="-4.5622600">
        <ele>424.0</ele>
        <time>2022-03-01T14:18:48Z</time>
      </trkpt>
      <trkpt lat="39.9356970" lon="-4.5622600">
        <ele>424.0</ele>
        <time>2022-03-01T14:18:49Z</time>
      </trkpt>
      <trkpt lat="39.9357880" lon="-4.5623320">
        <ele>424.0</ele>
        <time>2022-03-01T14:18:50Z</time>
      </trkpt>
      <trkpt lat="39.9357880" lon="-4.5623320">
        <ele>426.0</ele>
        <time>2022-03-01T14:18:51Z</time>
      </trkpt>
      <trkpt lat="39.9358820" lon="-4.5624080">
        <ele>426.0</ele>
        <time>2022-03-01T14:18:52Z</time>
      </trkpt>
      <trkpt lat="39.9359280" lon="-4.5624480">
        <ele>426.0</ele>
        <time>2022-03-01T14:18:53Z</time>
      </trkpt>
      <trkpt lat="39.9359280" lon="-4.5624480">
        <ele>426.0</ele>
        <time>2022-03-01T14:18:54Z</time>
      </trkpt>
      <trkpt lat="39.9360250" lon="-4.5625280">
        <ele>426.0</ele>
        <time>2022-03-01T14:18:55Z</time>
      </trkpt>
      <trkpt lat="39.9360250" lon="-4.5625280">
        <ele>426.0</ele>
        <time>2022-03-01T14:18:56Z</time>
      </trkpt>
      <trkpt lat="39.9361180" lon="-4.5626050">
        <ele>426.0</ele>
        <time>2022-03-01T14:18:57Z</time>
      </trkpt>
      <trkpt lat="39.9361180" lon="-4.5626050">
        <ele>426.0</ele>
        <time>2022-03-01T14:18:58Z</time>
      </trkpt>
      <trkpt lat="39.9362130" lon="-4.5626820">
        <ele>427.0</ele>
        <time>2022-03-01T14:18:59Z</time>
      </trkpt>
      <trkpt lat="39.9362130" lon="-4.5626820">
        <ele>427.0</ele>
        <time>2022-03-01T14:19:00Z</time>
      </trkpt>
      <trkpt lat="39.9363100" lon="-4.5627600">
        <ele>427.0</ele>
        <time>2022-03-01T14:19:01Z</time>
      </trkpt>
      <trkpt lat="39.9363580" lon="-4.5627980">
        <ele>428.0</ele>
        <time>2022-03-01T14:19:02Z</time>
      </trkpt>
      <trkpt lat="39.9363580" lon="-4.5627980">
        <ele>428.0</ele>
        <time>2022-03-01T14:19:03Z</time>
      </trkpt>
      <trkpt lat="39.9364550" lon="-4.5628800">
        <ele>428.0</ele>
        <time>2022-03-01T14:19:04Z</time>
      </trkpt>
      <trkpt lat="39.9364550" lon="-4.5628800">
        <ele>428.0</ele>
        <time>2022-03-01T14:19:05Z</time>
      </trkpt>
      <trkpt lat="39.9365470" lon="-4.5629580">
        <ele>428.0</ele>
        <time>2022-03-01T14:19:06Z</time>
      </trkpt>
      <trkpt lat="39.9365470" lon="-4.5629580">
        <ele>428.0</ele>
        <time>2022-03-01T14:19:07Z</time>
      </trkpt>
      <trkpt lat="39.9366430" lon="-4.5630380">
        <ele>429.0</ele>
        <time>2022-03-01T14:19:08Z</time>
      </trkpt>
      <trkpt lat="39.9366430" lon="-4.5630380">
        <ele>429.0</ele>
        <time>2022-03-01T14:19:09Z</time>
      </trkpt>
      <trkpt lat="39.9367370" lon="-4.5631180">
        <ele>429.0</ele>
        <time>2022-03-01T14:19:10Z</time>
      </trkpt>
      <trkpt lat="39.9367800" lon="-4.5631570">
        <ele>429.0</ele>
        <time>2022-03-01T14:19:11Z</time>
      </trkpt>
      <trkpt lat="39.9367800" lon="-4.5631570">
        <ele>429.0</ele>
        <time>2022-03-01T14:19:12Z</time>
      </trkpt>
      <trkpt lat="39.9368670" lon="-4.5632380">
        <ele>429.0</ele>
        <time>2022-03-01T14:19:13Z</time>
      </trkpt>
      <trkpt lat="39.9368670" lon="-4.5632380">
        <ele>429.0</ele>
        <time>2022-03-01T14:19:14Z</time>
      </trkpt>
      <trkpt lat="39.9369580" lon="-4.5633170">
        <ele>429.0</ele>
        <time>2022-03-01T14:19:15Z</time>
      </trkpt>
      <trkpt lat="39.9369580" lon="-4.5633170">
        <ele>429.0</ele>
        <time>2022-03-01T14:19:16Z</time>
      </trkpt>
      <trkpt lat="39.9370500" lon="-4.5633920">
        <ele>429.0</ele>
        <time>2022-03-01T14:19:17Z</time>
      </trkpt>
      <trkpt lat="39.9370970" lon="-4.5634280">
        <ele>430.0</ele>
        <time>2022-03-01T14:19:18Z</time>
      </trkpt>
      <trkpt lat="39.9370970" lon="-4.5634280">
        <ele>430.0</ele>
        <time>2022-03-01T14:19:19Z</time>
      </trkpt>
      <trkpt lat="39.9371900" lon="-4.5635030">
        <ele>430.0</ele>
        <time>2022-03-01T14:19:20Z</time>
      </trkpt>
      <trkpt lat="39.9372380" lon="-4.5635420">
        <ele>430.0</ele>
        <time>2022-03-01T14:19:21Z</time>
      </trkpt>
      <trkpt lat="39.9372380" lon="-4.5635420">
        <ele>431.0</ele>
        <time>2022-03-01T14:19:22Z</time>
      </trkpt>
      <trkpt lat="39.9373330" lon="-4.5636200">
        <ele>431.0</ele>
        <time>2022-03-01T14:19:23Z</time>
      </trkpt>
      <trkpt lat="39.9373820" lon="-4.5636600">
        <ele>431.0</ele>
        <time>2022-03-01T14:19:24Z</time>
      </trkpt>
      <trkpt lat="39.9373820" lon="-4.5636600">
        <ele>431.0</ele>
        <time>2022-03-01T14:19:25Z</time>
      </trkpt>
      <trkpt lat="39.9374750" lon="-4.5637370">
        <ele>431.0</ele>
        <time>2022-03-01T14:19:26Z</time>
      </trkpt>
      <trkpt lat="39.9374750" lon="-4.5637370">
        <ele>431.0</ele>
        <time>2022-03-01T14:19:27Z</time>
      </trkpt>
      <trkpt lat="39.9375630" lon="-4.5638130">
        <ele>431.0</ele>
        <time>2022-03-01T14:19:28Z</time>
      </trkpt>
      <trkpt lat="39.9376080" lon="-4.5638520">
        <ele>431.0</ele>
        <time>2022-03-01T14:19:29Z</time>
      </trkpt>
      <trkpt lat="39.9376080" lon="-4.5638520">
        <ele>431.0</ele>
        <time>2022-03-01T14:19:30Z</time>
      </trkpt>
      <trkpt lat="39.9376980" lon="-4.5639230">
        <ele>431.0</ele>
        <time>2022-03-01T14:19:31Z</time>
      </trkpt>
      <trkpt lat="39.9376980" lon="-4.5639230">
        <ele>431.0</ele>
        <time>2022-03-01T14:19:32Z</time>
      </trkpt>
      <trkpt lat="39.9377850" lon="-4.5639900">
        <ele>431.0</ele>
        <time>2022-03-01T14:19:33Z</time>
      </trkpt>
      <trkpt lat="39.9377850" lon="-4.5639900">
        <ele>432.0</ele>
        <time>2022-03-01T14:19:34Z</time>
      </trkpt>
      <trkpt lat="39.9378700" lon="-4.5640550">
        <ele>432.0</ele>
        <time>2022-03-01T14:19:35Z</time>
      </trkpt>
      <trkpt lat="39.9378700" lon="-4.5640550">
        <ele>432.0</ele>
        <time>2022-03-01T14:19:36Z</time>
      </trkpt>
      <trkpt lat="39.9379570" lon="-4.5641250">
        <ele>432.0</ele>
        <time>2022-03-01T14:19:37Z</time>
      </trkpt>
      <trkpt lat="39.9380030" lon="-4.5641650">
        <ele>432.0</ele>
        <time>2022-03-01T14:19:38Z</time>
      </trkpt>
      <trkpt lat="39.9380500" lon="-4.5642030">
        <ele>432.0</ele>
        <time>2022-03-01T14:19:39Z</time>
      </trkpt>
      <trkpt lat="39.9380500" lon="-4.5642030">
        <ele>433.0</ele>
        <time>2022-03-01T14:19:40Z</time>
      </trkpt>
      <trkpt lat="39.9381450" lon="-4.5642800">
        <ele>433.0</ele>
        <time>2022-03-01T14:19:41Z</time>
      </trkpt>
      <trkpt lat="39.9381930" lon="-4.5643200">
        <ele>433.0</ele>
        <time>2022-03-01T14:19:42Z</time>
      </trkpt>
      <trkpt lat="39.9381930" lon="-4.5643200">
        <ele>433.0</ele>
        <time>2022-03-01T14:19:43Z</time>
      </trkpt>
      <trkpt lat="39.9382900" lon="-4.5643980">
        <ele>433.0</ele>
        <time>2022-03-01T14:19:44Z</time>
      </trkpt>
      <trkpt lat="39.9383380" lon="-4.5644370">
        <ele>433.0</ele>
        <time>2022-03-01T14:19:45Z</time>
      </trkpt>
      <trkpt lat="39.9383870" lon="-4.5644770">
        <ele>434.0</ele>
        <time>2022-03-01T14:19:46Z</time>
      </trkpt>
      <trkpt lat="39.9383870" lon="-4.5644770">
        <ele>434.0</ele>
        <time>2022-03-01T14:19:47Z</time>
      </trkpt>
      <trkpt lat="39.9384850" lon="-4.5645530">
        <ele>434.0</ele>
        <time>2022-03-01T14:19:48Z</time>
      </trkpt>
      <trkpt lat="39.9384850" lon="-4.5645530">
        <ele>434.0</ele>
        <time>2022-03-01T14:19:49Z</time>
      </trkpt>
      <trkpt lat="39.9385780" lon="-4.5646330">
        <ele>434.0</ele>
        <time>2022-03-01T14:19:50Z</time>
      </trkpt>
      <trkpt lat="39.9385780" lon="-4.5646330">
        <ele>434.0</ele>
        <time>2022-03-01T14:19:51Z</time>
      </trkpt>
      <trkpt lat="39.9386770" lon="-4.5647130">
        <ele>435.0</ele>
        <time>2022-03-01T14:19:52Z</time>
      </trkpt>
      <trkpt lat="39.9387270" lon="-4.5647520">
        <ele>435.0</ele>
        <time>2022-03-01T14:19:53Z</time>
      </trkpt>
      <trkpt lat="39.9387270" lon="-4.5647520">
        <ele>435.0</ele>
        <time>2022-03-01T14:19:54Z</time>
      </trkpt>
      <trkpt lat="39.9388230" lon="-4.5648350">
        <ele>435.0</ele>
        <time>2022-03-01T14:19:55Z</time>
      </trkpt>
      <trkpt lat="39.9388230" lon="-4.5648350">
        <ele>435.0</ele>
        <time>2022-03-01T14:19:56Z</time>
      </trkpt>
      <trkpt lat="39.9389220" lon="-4.5649130">
        <ele>435.0</ele>
        <time>2022-03-01T14:19:57Z</time>
      </trkpt>
      <trkpt lat="39.9389700" lon="-4.5649520">
        <ele>435.0</ele>
        <time>2022-03-01T14:19:58Z</time>
      </trkpt>
      <trkpt lat="39.9389700" lon="-4.5649520">
        <ele>435.0</ele>
        <time>2022-03-01T14:19:59Z</time>
      </trkpt>
      <trkpt lat="39.9390700" lon="-4.5650330">
        <ele>435.0</ele>
        <time>2022-03-01T14:20:00Z</time>
      </trkpt>
      <trkpt lat="39.9390700" lon="-4.5650330">
        <ele>435.0</ele>
        <time>2022-03-01T14:20:01Z</time>
      </trkpt>
      <trkpt lat="39.9391700" lon="-4.5651170">
        <ele>435.0</ele>
        <time>2022-03-01T14:20:02Z</time>
      </trkpt>
      <trkpt lat="39.9392200" lon="-4.5651570">
        <ele>435.0</ele>
        <time>2022-03-01T14:20:03Z</time>
      </trkpt>
      <trkpt lat="39.9392680" lon="-4.5651980">
        <ele>435.0</ele>
        <time>2022-03-01T14:20:04Z</time>
      </trkpt>
      <trkpt lat="39.9392680" lon="-4.5651980">
        <ele>435.0</ele>
        <time>2022-03-01T14:20:05Z</time>
      </trkpt>
      <trkpt lat="39.9393670" lon="-4.5652800">
        <ele>435.0</ele>
        <time>2022-03-01T14:20:06Z</time>
      </trkpt>
      <trkpt lat="39.9393670" lon="-4.5652800">
        <ele>435.0</ele>
        <time>2022-03-01T14:20:07Z</time>
      </trkpt>
      <trkpt lat="39.9394630" lon="-4.5653600">
        <ele>435.0</ele>
        <time>2022-03-01T14:20:08Z</time>
      </trkpt>
      <trkpt lat="39.9394630" lon="-4.5653600">
        <ele>436.0</ele>
        <time>2022-03-01T14:20:09Z</time>
      </trkpt>
      <trkpt lat="39.9395630" lon="-4.5654400">
        <ele>436.0</ele>
        <time>2022-03-01T14:20:10Z</time>
      </trkpt>
      <trkpt lat="39.9395630" lon="-4.5654400">
        <ele>436.0</ele>
        <time>2022-03-01T14:20:11Z</time>
      </trkpt>
      <trkpt lat="39.9396620" lon="-4.5655200">
        <ele>436.0</ele>
        <time>2022-03-01T14:20:12Z</time>
      </trkpt>
      <trkpt lat="39.9397120" lon="-4.5655600">
        <ele>436.0</ele>
        <time>2022-03-01T14:20:13Z</time>
      </trkpt>
      <trkpt lat="39.9397120" lon="-4.5655600">
        <ele>436.0</ele>
        <time>2022-03-01T14:20:14Z</time>
      </trkpt>
      <trkpt lat="39.9398130" lon="-4.5656400">
        <ele>436.0</ele>
        <time>2022-03-01T14:20:15Z</time>
      </trkpt>
      <trkpt lat="39.9398620" lon="-4.5656800">
        <ele>436.0</ele>
        <time>2022-03-01T14:20:16Z</time>
      </trkpt>
      <trkpt lat="39.9398620" lon="-4.5656800">
        <ele>437.0</ele>
        <time>2022-03-01T14:20:17Z</time>
      </trkpt>
      <trkpt lat="39.9399620" lon="-4.5657630">
        <ele>437.0</ele>
        <time>2022-03-01T14:20:18Z</time>
      </trkpt>
      <trkpt lat="39.9399620" lon="-4.5657630">
        <ele>437.0</ele>
        <time>2022-03-01T14:20:19Z</time>
      </trkpt>
      <trkpt lat="39.9400600" lon="-4.5658480">
        <ele>437.0</ele>
        <time>2022-03-01T14:20:20Z</time>
      </trkpt>
      <trkpt lat="39.9400600" lon="-4.5658480">
        <ele>437.0</ele>
        <time>2022-03-01T14:20:21Z</time>
      </trkpt>
      <trkpt lat="39.9401600" lon="-4.5659350">
        <ele>437.0</ele>
        <time>2022-03-01T14:20:22Z</time>
      </trkpt>
      <trkpt lat="39.9401600" lon="-4.5659350">
        <ele>437.0</ele>
        <time>2022-03-01T14:20:23Z</time>
      </trkpt>
      <trkpt lat="39.9402600" lon="-4.5660220">
        <ele>437.0</ele>
        <time>2022-03-01T14:20:24Z</time>
      </trkpt>
      <trkpt lat="39.9403100" lon="-4.5660680">
        <ele>438.0</ele>
        <time>2022-03-01T14:20:25Z</time>
      </trkpt>
      <trkpt lat="39.9403100" lon="-4.5660680">
        <ele>438.0</ele>
        <time>2022-03-01T14:20:26Z</time>
      </trkpt>
      <trkpt lat="39.9404030" lon="-4.5661630">
        <ele>438.0</ele>
        <time>2022-03-01T14:20:27Z</time>
      </trkpt>
      <trkpt lat="39.9404480" lon="-4.5662130">
        <ele>438.0</ele>
        <time>2022-03-01T14:20:28Z</time>
      </trkpt>
      <trkpt lat="39.9404970" lon="-4.5662600">
        <ele>438.0</ele>
        <time>2022-03-01T14:20:29Z</time>
      </trkpt>
      <trkpt lat="39.9404970" lon="-4.5662600">
        <ele>438.0</ele>
        <time>2022-03-01T14:20:30Z</time>
      </trkpt>
      <trkpt lat="39.9405980" lon="-4.5663430">
        <ele>438.0</ele>
        <time>2022-03-01T14:20:31Z</time>
      </trkpt>
      <trkpt lat="39.9405980" lon="-4.5663430">
        <ele>438.0</ele>
        <time>2022-03-01T14:20:32Z</time>
      </trkpt>
      <trkpt lat="39.9407080" lon="-4.5664100">
        <ele>439.0</ele>
        <time>2022-03-01T14:20:33Z</time>
      </trkpt>
      <trkpt lat="39.9407080" lon="-4.5664100">
        <ele>439.0</ele>
        <time>2022-03-01T14:20:34Z</time>
      </trkpt>
      <trkpt lat="39.9408250" lon="-4.5664550">
        <ele>439.0</ele>
        <time>2022-03-01T14:20:35Z</time>
      </trkpt>
      <trkpt lat="39.9408850" lon="-4.5664730">
        <ele>439.0</ele>
        <time>2022-03-01T14:20:36Z</time>
      </trkpt>
      <trkpt lat="39.9408850" lon="-4.5664730">
        <ele>439.0</ele>
        <time>2022-03-01T14:20:37Z</time>
      </trkpt>
      <trkpt lat="39.9410070" lon="-4.5664980">
        <ele>439.0</ele>
        <time>2022-03-01T14:20:38Z</time>
      </trkpt>
      <trkpt lat="39.9410070" lon="-4.5664980">
        <ele>439.0</ele>
        <time>2022-03-01T14:20:39Z</time>
      </trkpt>
      <trkpt lat="39.9411280" lon="-4.5665170">
        <ele>439.0</ele>
        <time>2022-03-01T14:20:40Z</time>
      </trkpt>
      <trkpt lat="39.9411280" lon="-4.5665170">
        <ele>439.0</ele>
        <time>2022-03-01T14:20:41Z</time>
      </trkpt>
      <trkpt lat="39.9412500" lon="-4.5665320">
        <ele>439.0</ele>
        <time>2022-03-01T14:20:42Z</time>
      </trkpt>
      <trkpt lat="39.9412500" lon="-4.5665320">
        <ele>440.0</ele>
        <time>2022-03-01T14:20:43Z</time>
      </trkpt>
      <trkpt lat="39.9413750" lon="-4.5665480">
        <ele>440.0</ele>
        <time>2022-03-01T14:20:44Z</time>
      </trkpt>
      <trkpt lat="39.9414380" lon="-4.5665570">
        <ele>440.0</ele>
        <time>2022-03-01T14:20:45Z</time>
      </trkpt>
      <trkpt lat="39.9414380" lon="-4.5665570">
        <ele>440.0</ele>
        <time>2022-03-01T14:20:46Z</time>
      </trkpt>
      <trkpt lat="39.9415680" lon="-4.5665700">
        <ele>440.0</ele>
        <time>2022-03-01T14:20:47Z</time>
      </trkpt>
      <trkpt lat="39.9416350" lon="-4.5665770">
        <ele>440.0</ele>
        <time>2022-03-01T14:20:48Z</time>
      </trkpt>
      <trkpt lat="39.9416350" lon="-4.5665770">
        <ele>440.0</ele>
        <time>2022-03-01T14:20:49Z</time>
      </trkpt>
      <trkpt lat="39.9417630" lon="-4.5665950">
        <ele>440.0</ele>
        <time>2022-03-01T14:20:50Z</time>
      </trkpt>
      <trkpt lat="39.9418270" lon="-4.5666050">
        <ele>440.0</ele>
        <time>2022-03-01T14:20:51Z</time>
      </trkpt>
      <trkpt lat="39.9418270" lon="-4.5666050">
        <ele>440.0</ele>
        <time>2022-03-01T14:20:52Z</time>
      </trkpt>
      <trkpt lat="39.9419520" lon="-4.5666280">
        <ele>440.0</ele>
        <time>2022-03-01T14:20:53Z</time>
      </trkpt>
      <trkpt lat="39.9420170" lon="-4.5666400">
        <ele>440.0</ele>
        <time>2022-03-01T14:20:54Z</time>
      </trkpt>
      <trkpt lat="39.9420170" lon="-4.5666400">
        <ele>440.0</ele>
        <time>2022-03-01T14:20:55Z</time>
      </trkpt>
      <trkpt lat="39.9421470" lon="-4.5666620">
        <ele>440.0</ele>
        <time>2022-03-01T14:20:56Z</time>
      </trkpt>
      <trkpt lat="39.9421470" lon="-4.5666620">
        <ele>440.0</ele>
        <time>2022-03-01T14:20:57Z</time>
      </trkpt>
      <trkpt lat="39.9422800" lon="-4.5666830">
        <ele>440.0</ele>
        <time>2022-03-01T14:20:58Z</time>
      </trkpt>
      <trkpt lat="39.9422800" lon="-4.5666830">
        <ele>440.0</ele>
        <time>2022-03-01T14:20:59Z</time>
      </trkpt>
      <trkpt lat="39.9424150" lon="-4.5666980">
        <ele>440.0</ele>
        <time>2022-03-01T14:21:00Z</time>
      </trkpt>
      <trkpt lat="39.9424150" lon="-4.5666980">
        <ele>440.0</ele>
        <time>2022-03-01T14:21:01Z</time>
      </trkpt>
      <trkpt lat="39.9425470" lon="-4.5667180">
        <ele>440.0</ele>
        <time>2022-03-01T14:21:02Z</time>
      </trkpt>
      <trkpt lat="39.9425470" lon="-4.5667180">
        <ele>440.0</ele>
        <time>2022-03-01T14:21:03Z</time>
      </trkpt>
      <trkpt lat="39.9426730" lon="-4.5667370">
        <ele>440.0</ele>
        <time>2022-03-01T14:21:04Z</time>
      </trkpt>
      <trkpt lat="39.9426730" lon="-4.5667370">
        <ele>440.0</ele>
        <time>2022-03-01T14:21:05Z</time>
      </trkpt>
      <trkpt lat="39.9427970" lon="-4.5667550">
        <ele>440.0</ele>
        <time>2022-03-01T14:21:06Z</time>
      </trkpt>
      <trkpt lat="39.9427970" lon="-4.5667550">
        <ele>440.0</ele>
        <time>2022-03-01T14:21:07Z</time>
      </trkpt>
      <trkpt lat="39.9429200" lon="-4.5667750">
        <ele>441.0</ele>
        <time>2022-03-01T14:21:08Z</time>
      </trkpt>
      <trkpt lat="39.9429820" lon="-4.5667830">
        <ele>441.0</ele>
        <time>2022-03-01T14:21:09Z</time>
      </trkpt>
      <trkpt lat="39.9430420" lon="-4.5667900">
        <ele>441.0</ele>
        <time>2022-03-01T14:21:10Z</time>
      </trkpt>
      <trkpt lat="39.9430420" lon="-4.5667900">
        <ele>441.0</ele>
        <time>2022-03-01T14:21:11Z</time>
      </trkpt>
      <trkpt lat="39.9431650" lon="-4.5668050">
        <ele>441.0</ele>
        <time>2022-03-01T14:21:12Z</time>
      </trkpt>
      <trkpt lat="39.9432230" lon="-4.5668130">
        <ele>441.0</ele>
        <time>2022-03-01T14:21:13Z</time>
      </trkpt>
      <trkpt lat="39.9432230" lon="-4.5668130">
        <ele>442.0</ele>
        <time>2022-03-01T14:21:14Z</time>
      </trkpt>
      <trkpt lat="39.9433420" lon="-4.5668300">
        <ele>442.0</ele>
        <time>2022-03-01T14:21:15Z</time>
      </trkpt>
      <trkpt lat="39.9434020" lon="-4.5668380">
        <ele>442.0</ele>
        <time>2022-03-01T14:21:16Z</time>
      </trkpt>
      <trkpt lat="39.9434020" lon="-4.5668380">
        <ele>442.0</ele>
        <time>2022-03-01T14:21:17Z</time>
      </trkpt>
      <trkpt lat="39.9435280" lon="-4.5668550">
        <ele>442.0</ele>
        <time>2022-03-01T14:21:18Z</time>
      </trkpt>
      <trkpt lat="39.9435930" lon="-4.5668630">
        <ele>442.0</ele>
        <time>2022-03-01T14:21:19Z</time>
      </trkpt>
      <trkpt lat="39.9436580" lon="-4.5668730">
        <ele>442.0</ele>
        <time>2022-03-01T14:21:20Z</time>
      </trkpt>
      <trkpt lat="39.9436580" lon="-4.5668730">
        <ele>442.0</ele>
        <time>2022-03-01T14:21:21Z</time>
      </trkpt>
      <trkpt lat="39.9437920" lon="-4.5668930">
        <ele>442.0</ele>
        <time>2022-03-01T14:21:22Z</time>
      </trkpt>
      <trkpt lat="39.9437920" lon="-4.5668930">
        <ele>442.0</ele>
        <time>2022-03-01T14:21:23Z</time>
      </trkpt>
      <trkpt lat="39.9439220" lon="-4.5669120">
        <ele>442.0</ele>
        <time>2022-03-01T14:21:24Z</time>
      </trkpt>
      <trkpt lat="39.9439220" lon="-4.5669120">
        <ele>442.0</ele>
        <time>2022-03-01T14:21:25Z</time>
      </trkpt>
      <trkpt lat="39.9440550" lon="-4.5669330">
        <ele>441.0</ele>
        <time>2022-03-01T14:21:26Z</time>
      </trkpt>
      <trkpt lat="39.9441220" lon="-4.5669450">
        <ele>441.0</ele>
        <time>2022-03-01T14:21:27Z</time>
      </trkpt>
      <trkpt lat="39.9441220" lon="-4.5669450">
        <ele>441.0</ele>
        <time>2022-03-01T14:21:28Z</time>
      </trkpt>
      <trkpt lat="39.9442630" lon="-4.5669630">
        <ele>441.0</ele>
        <time>2022-03-01T14:21:29Z</time>
      </trkpt>
      <trkpt lat="39.9443350" lon="-4.5669750">
        <ele>441.0</ele>
        <time>2022-03-01T14:21:30Z</time>
      </trkpt>
      <trkpt lat="39.9443350" lon="-4.5669750">
        <ele>441.0</ele>
        <time>2022-03-01T14:21:31Z</time>
      </trkpt>
      <trkpt lat="39.9444820" lon="-4.5669920">
        <ele>441.0</ele>
        <time>2022-03-01T14:21:32Z</time>
      </trkpt>
      <trkpt lat="39.9444820" lon="-4.5669920">
        <ele>441.0</ele>
        <time>2022-03-01T14:21:33Z</time>
      </trkpt>
      <trkpt lat="39.9446320" lon="-4.5670070">
        <ele>441.0</ele>
        <time>2022-03-01T14:21:34Z</time>
      </trkpt>
      <trkpt lat="39.9446320" lon="-4.5670070">
        <ele>441.0</ele>
        <time>2022-03-01T14:21:35Z</time>
      </trkpt>
      <trkpt lat="39.9447770" lon="-4.5670220">
        <ele>441.0</ele>
        <time>2022-03-01T14:21:36Z</time>
      </trkpt>
      <trkpt lat="39.9448500" lon="-4.5670200">
        <ele>441.0</ele>
        <time>2022-03-01T14:21:37Z</time>
      </trkpt>
      <trkpt lat="39.9448500" lon="-4.5670200">
        <ele>441.0</ele>
        <time>2022-03-01T14:21:38Z</time>
      </trkpt>
      <trkpt lat="39.9449950" lon="-4.5670030">
        <ele>441.0</ele>
        <time>2022-03-01T14:21:39Z</time>
      </trkpt>
      <trkpt lat="39.9450670" lon="-4.5669900">
        <ele>441.0</ele>
        <time>2022-03-01T14:21:40Z</time>
      </trkpt>
      <trkpt lat="39.9450670" lon="-4.5669900">
        <ele>441.0</ele>
        <time>2022-03-01T14:21:41Z</time>
      </trkpt>
      <trkpt lat="39.9452020" lon="-4.5669430">
        <ele>441.0</ele>
        <time>2022-03-01T14:21:42Z</time>
      </trkpt>
      <trkpt lat="39.9452020" lon="-4.5669430">
        <ele>441.0</ele>
        <time>2022-03-01T14:21:43Z</time>
      </trkpt>
      <trkpt lat="39.9453300" lon="-4.5668850">
        <ele>441.0</ele>
        <time>2022-03-01T14:21:44Z</time>
      </trkpt>
      <trkpt lat="39.9453300" lon="-4.5668850">
        <ele>441.0</ele>
        <time>2022-03-01T14:21:45Z</time>
      </trkpt>
      <trkpt lat="39.9454580" lon="-4.5668130">
        <ele>441.0</ele>
        <time>2022-03-01T14:21:46Z</time>
      </trkpt>
      <trkpt lat="39.9454580" lon="-4.5668130">
        <ele>442.0</ele>
        <time>2022-03-01T14:21:47Z</time>
      </trkpt>
      <trkpt lat="39.9455880" lon="-4.5667320">
        <ele>442.0</ele>
        <time>2022-03-01T14:21:48Z</time>
      </trkpt>
      <trkpt lat="39.9456550" lon="-4.5666870">
        <ele>443.0</ele>
        <time>2022-03-01T14:21:49Z</time>
      </trkpt>
      <trkpt lat="39.9456550" lon="-4.5666870">
        <ele>443.0</ele>
        <time>2022-03-01T14:21:50Z</time>
      </trkpt>
      <trkpt lat="39.9457900" lon="-4.5666050">
        <ele>443.0</ele>
        <time>2022-03-01T14:21:51Z</time>
      </trkpt>
      <trkpt lat="39.9458570" lon="-4.5665680">
        <ele>443.0</ele>
        <time>2022-03-01T14:21:52Z</time>
      </trkpt>
      <trkpt lat="39.9458570" lon="-4.5665680">
        <ele>443.0</ele>
        <time>2022-03-01T14:21:53Z</time>
      </trkpt>
      <trkpt lat="39.9459870" lon="-4.5664980">
        <ele>443.0</ele>
        <time>2022-03-01T14:21:54Z</time>
      </trkpt>
      <trkpt lat="39.9459870" lon="-4.5664980">
        <ele>443.0</ele>
        <time>2022-03-01T14:21:55Z</time>
      </trkpt>
      <trkpt lat="39.9461180" lon="-4.5664500">
        <ele>443.0</ele>
        <time>2022-03-01T14:21:56Z</time>
      </trkpt>
      <trkpt lat="39.9461180" lon="-4.5664500">
        <ele>443.0</ele>
        <time>2022-03-01T14:21:57Z</time>
      </trkpt>
      <trkpt lat="39.9462530" lon="-4.5664480">
        <ele>443.0</ele>
        <time>2022-03-01T14:21:58Z</time>
      </trkpt>
      <trkpt lat="39.9463250" lon="-4.5664630">
        <ele>443.0</ele>
        <time>2022-03-01T14:21:59Z</time>
      </trkpt>
      <trkpt lat="39.9463970" lon="-4.5664770">
        <ele>443.0</ele>
        <time>2022-03-01T14:22:00Z</time>
      </trkpt>
      <trkpt lat="39.9463970" lon="-4.5664770">
        <ele>443.0</ele>
        <time>2022-03-01T14:22:01Z</time>
      </trkpt>
      <trkpt lat="39.9465420" lon="-4.5665130">
        <ele>443.0</ele>
        <time>2022-03-01T14:22:02Z</time>
      </trkpt>
      <trkpt lat="39.9465420" lon="-4.5665130">
        <ele>443.0</ele>
        <time>2022-03-01T14:22:03Z</time>
      </trkpt>
      <trkpt lat="39.9466900" lon="-4.5665450">
        <ele>443.0</ele>
        <time>2022-03-01T14:22:04Z</time>
      </trkpt>
      <trkpt lat="39.9467680" lon="-4.5665650">
        <ele>442.0</ele>
        <time>2022-03-01T14:22:05Z</time>
      </trkpt>
      <trkpt lat="39.9467680" lon="-4.5665650">
        <ele>442.0</ele>
        <time>2022-03-01T14:22:06Z</time>
      </trkpt>
      <trkpt lat="39.9469330" lon="-4.5666020">
        <ele>442.0</ele>
        <time>2022-03-01T14:22:07Z</time>
      </trkpt>
      <trkpt lat="39.9469330" lon="-4.5666020">
        <ele>442.0</ele>
        <time>2022-03-01T14:22:08Z</time>
      </trkpt>
      <trkpt lat="39.9471020" lon="-4.5666370">
        <ele>442.0</ele>
        <time>2022-03-01T14:22:09Z</time>
      </trkpt>
      <trkpt lat="39.9471880" lon="-4.5666480">
        <ele>442.0</ele>
        <time>2022-03-01T14:22:10Z</time>
      </trkpt>
      <trkpt lat="39.9471880" lon="-4.5666480">
        <ele>442.0</ele>
        <time>2022-03-01T14:22:11Z</time>
      </trkpt>
      <trkpt lat="39.9473600" lon="-4.5666680">
        <ele>442.0</ele>
        <time>2022-03-01T14:22:12Z</time>
      </trkpt>
      <trkpt lat="39.9473600" lon="-4.5666680">
        <ele>440.0</ele>
        <time>2022-03-01T14:22:13Z</time>
      </trkpt>
      <trkpt lat="39.9475330" lon="-4.5666650">
        <ele>440.0</ele>
        <time>2022-03-01T14:22:14Z</time>
      </trkpt>
      <trkpt lat="39.9475330" lon="-4.5666650">
        <ele>439.0</ele>
        <time>2022-03-01T14:22:15Z</time>
      </trkpt>
      <trkpt lat="39.9477070" lon="-4.5666350">
        <ele>439.0</ele>
        <time>2022-03-01T14:22:16Z</time>
      </trkpt>
      <trkpt lat="39.9477070" lon="-4.5666350">
        <ele>439.0</ele>
        <time>2022-03-01T14:22:17Z</time>
      </trkpt>
      <trkpt lat="39.9478780" lon="-4.5665880">
        <ele>439.0</ele>
        <time>2022-03-01T14:22:18Z</time>
      </trkpt>
      <trkpt lat="39.9478780" lon="-4.5665880">
        <ele>439.0</ele>
        <time>2022-03-01T14:22:19Z</time>
      </trkpt>
      <trkpt lat="39.9480500" lon="-4.5665430">
        <ele>439.0</ele>
        <time>2022-03-01T14:22:20Z</time>
      </trkpt>
      <trkpt lat="39.9480500" lon="-4.5665430">
        <ele>439.0</ele>
        <time>2022-03-01T14:22:21Z</time>
      </trkpt>
      <trkpt lat="39.9482180" lon="-4.5665030">
        <ele>439.0</ele>
        <time>2022-03-01T14:22:22Z</time>
      </trkpt>
      <trkpt lat="39.9483020" lon="-4.5664800">
        <ele>438.0</ele>
        <time>2022-03-01T14:22:23Z</time>
      </trkpt>
      <trkpt lat="39.9483850" lon="-4.5664570">
        <ele>438.0</ele>
        <time>2022-03-01T14:22:24Z</time>
      </trkpt>
      <trkpt lat="39.9483850" lon="-4.5664570">
        <ele>438.0</ele>
        <time>2022-03-01T14:22:25Z</time>
      </trkpt>
      <trkpt lat="39.9485520" lon="-4.5664100">
        <ele>438.0</ele>
        <time>2022-03-01T14:22:26Z</time>
      </trkpt>
      <trkpt lat="39.9485520" lon="-4.5664100">
        <ele>437.0</ele>
        <time>2022-03-01T14:22:27Z</time>
      </trkpt>
      <trkpt lat="39.9487180" lon="-4.5663600">
        <ele>436.0</ele>
        <time>2022-03-01T14:22:28Z</time>
      </trkpt>
      <trkpt lat="39.9487180" lon="-4.5663600">
        <ele>436.0</ele>
        <time>2022-03-01T14:22:29Z</time>
      </trkpt>
      <trkpt lat="39.9488850" lon="-4.5663080">
        <ele>436.0</ele>
        <time>2022-03-01T14:22:30Z</time>
      </trkpt>
      <trkpt lat="39.9488850" lon="-4.5663080">
        <ele>436.0</ele>
        <time>2022-03-01T14:22:31Z</time>
      </trkpt>
      <trkpt lat="39.9490570" lon="-4.5662670">
        <ele>436.0</ele>
        <time>2022-03-01T14:22:32Z</time>
      </trkpt>
      <trkpt lat="39.9490570" lon="-4.5662670">
        <ele>436.0</ele>
        <time>2022-03-01T14:22:33Z</time>
      </trkpt>
      <trkpt lat="39.9492330" lon="-4.5662330">
        <ele>435.0</ele>
        <time>2022-03-01T14:22:34Z</time>
      </trkpt>
      <trkpt lat="39.9492330" lon="-4.5662330">
        <ele>435.0</ele>
        <time>2022-03-01T14:22:35Z</time>
      </trkpt>
      <trkpt lat="39.9494080" lon="-4.5662380">
        <ele>434.0</ele>
        <time>2022-03-01T14:22:36Z</time>
      </trkpt>
      <trkpt lat="39.9494080" lon="-4.5662380">
        <ele>434.0</ele>
        <time>2022-03-01T14:22:37Z</time>
      </trkpt>
      <trkpt lat="39.9495750" lon="-4.5663020">
        <ele>433.0</ele>
        <time>2022-03-01T14:22:38Z</time>
      </trkpt>
      <trkpt lat="39.9495750" lon="-4.5663020">
        <ele>433.0</ele>
        <time>2022-03-01T14:22:39Z</time>
      </trkpt>
      <trkpt lat="39.9497320" lon="-4.5664050">
        <ele>433.0</ele>
        <time>2022-03-01T14:22:40Z</time>
      </trkpt>
      <trkpt lat="39.9497320" lon="-4.5664050">
        <ele>433.0</ele>
        <time>2022-03-01T14:22:41Z</time>
      </trkpt>
      <trkpt lat="39.9498730" lon="-4.5665270">
        <ele>432.0</ele>
        <time>2022-03-01T14:22:42Z</time>
      </trkpt>
      <trkpt lat="39.9498730" lon="-4.5665270">
        <ele>432.0</ele>
        <time>2022-03-01T14:22:43Z</time>
      </trkpt>
      <trkpt lat="39.9499820" lon="-4.5666870">
        <ele>431.0</ele>
        <time>2022-03-01T14:22:44Z</time>
      </trkpt>
      <trkpt lat="39.9499820" lon="-4.5666870">
        <ele>431.0</ele>
        <time>2022-03-01T14:22:45Z</time>
      </trkpt>
      <trkpt lat="39.9500300" lon="-4.5668700">
        <ele>431.0</ele>
        <time>2022-03-01T14:22:46Z</time>
      </trkpt>
      <trkpt lat="39.9500300" lon="-4.5668700">
        <ele>431.0</ele>
        <time>2022-03-01T14:22:47Z</time>
      </trkpt>
      <trkpt lat="39.9500200" lon="-4.5670280">
        <ele>432.0</ele>
        <time>2022-03-01T14:22:48Z</time>
      </trkpt>
      <trkpt lat="39.9500200" lon="-4.5670280">
        <ele>432.0</ele>
        <time>2022-03-01T14:22:49Z</time>
      </trkpt>
      <trkpt lat="39.9499870" lon="-4.5671630">
        <ele>434.0</ele>
        <time>2022-03-01T14:22:50Z</time>
      </trkpt>
      <trkpt lat="39.9499870" lon="-4.5671630">
        <ele>434.0</ele>
        <time>2022-03-01T14:22:51Z</time>
      </trkpt>
      <trkpt lat="39.9499520" lon="-4.5672800">
        <ele>435.0</ele>
        <time>2022-03-01T14:22:52Z</time>
      </trkpt>
      <trkpt lat="39.9499320" lon="-4.5673350">
        <ele>435.0</ele>
        <time>2022-03-01T14:22:53Z</time>
      </trkpt>
      <trkpt lat="39.9499320" lon="-4.5673350">
        <ele>437.0</ele>
        <time>2022-03-01T14:22:54Z</time>
      </trkpt>
      <trkpt lat="39.9498970" lon="-4.5674480">
        <ele>437.0</ele>
        <time>2022-03-01T14:22:55Z</time>
      </trkpt>
      <trkpt lat="39.9498970" lon="-4.5674480">
        <ele>438.0</ele>
        <time>2022-03-01T14:22:56Z</time>
      </trkpt>
      <trkpt lat="39.9498600" lon="-4.5675530">
        <ele>438.0</ele>
        <time>2022-03-01T14:22:57Z</time>
      </trkpt>
      <trkpt lat="39.9498420" lon="-4.5676080">
        <ele>438.0</ele>
        <time>2022-03-01T14:22:58Z</time>
      </trkpt>
      <trkpt lat="39.9498420" lon="-4.5676080">
        <ele>439.0</ele>
        <time>2022-03-01T14:22:59Z</time>
      </trkpt>
      <trkpt lat="39.9498120" lon="-4.5677230">
        <ele>439.0</ele>
        <time>2022-03-01T14:23:00Z</time>
      </trkpt>
      <trkpt lat="39.9498120" lon="-4.5677230">
        <ele>439.0</ele>
        <time>2022-03-01T14:23:01Z</time>
      </trkpt>
      <trkpt lat="39.9497870" lon="-4.5678380">
        <ele>439.0</ele>
        <time>2022-03-01T14:23:02Z</time>
      </trkpt>
      <trkpt lat="39.9497870" lon="-4.5678380">
        <ele>441.0</ele>
        <time>2022-03-01T14:23:03Z</time>
      </trkpt>
      <trkpt lat="39.9497700" lon="-4.5679480">
        <ele>441.0</ele>
        <time>2022-03-01T14:23:04Z</time>
      </trkpt>
      <trkpt lat="39.9497700" lon="-4.5679480">
        <ele>441.0</ele>
        <time>2022-03-01T14:23:05Z</time>
      </trkpt>
      <trkpt lat="39.9497600" lon="-4.5680450">
        <ele>441.0</ele>
        <time>2022-03-01T14:23:06Z</time>
      </trkpt>
      <trkpt lat="39.9497600" lon="-4.5680450">
        <ele>442.0</ele>
        <time>2022-03-01T14:23:07Z</time>
      </trkpt>
      <trkpt lat="39.9497600" lon="-4.5681420">
        <ele>442.0</ele>
        <time>2022-03-01T14:23:08Z</time>
      </trkpt>
      <trkpt lat="39.9497600" lon="-4.5681420">
        <ele>442.0</ele>
        <time>2022-03-01T14:23:09Z</time>
      </trkpt>
      <trkpt lat="39.9497670" lon="-4.5682400">
        <ele>442.0</ele>
        <time>2022-03-01T14:23:10Z</time>
      </trkpt>
      <trkpt lat="39.9497670" lon="-4.5682400">
        <ele>443.0</ele>
        <time>2022-03-01T14:23:11Z</time>
      </trkpt>
      <trkpt lat="39.9497780" lon="-4.5683370">
        <ele>443.0</ele>
        <time>2022-03-01T14:23:12Z</time>
      </trkpt>
      <trkpt lat="39.9497780" lon="-4.5683370">
        <ele>444.0</ele>
        <time>2022-03-01T14:23:13Z</time>
      </trkpt>
      <trkpt lat="39.9497930" lon="-4.5684350">
        <ele>444.0</ele>
        <time>2022-03-01T14:23:14Z</time>
      </trkpt>
      <trkpt lat="39.9497930" lon="-4.5684350">
        <ele>445.0</ele>
        <time>2022-03-01T14:23:15Z</time>
      </trkpt>
      <trkpt lat="39.9498200" lon="-4.5685270">
        <ele>445.0</ele>
        <time>2022-03-01T14:23:16Z</time>
      </trkpt>
      <trkpt lat="39.9498200" lon="-4.5685270">
        <ele>445.0</ele>
        <time>2022-03-01T14:23:17Z</time>
      </trkpt>
      <trkpt lat="39.9498520" lon="-4.5686170">
        <ele>445.0</ele>
        <time>2022-03-01T14:23:18Z</time>
      </trkpt>
      <trkpt lat="39.9498520" lon="-4.5686170">
        <ele>446.0</ele>
        <time>2022-03-01T14:23:19Z</time>
      </trkpt>
      <trkpt lat="39.9498870" lon="-4.5687030">
        <ele>446.0</ele>
        <time>2022-03-01T14:23:20Z</time>
      </trkpt>
      <trkpt lat="39.9498870" lon="-4.5687030">
        <ele>446.0</ele>
        <time>2022-03-01T14:23:21Z</time>
      </trkpt>
      <trkpt lat="39.9499280" lon="-4.5687820">
        <ele>448.0</ele>
        <time>2022-03-01T14:23:22Z</time>
      </trkpt>
      <trkpt lat="39.9499280" lon="-4.5687820">
        <ele>448.0</ele>
        <time>2022-03-01T14:23:23Z</time>
      </trkpt>
      <trkpt lat="39.9499720" lon="-4.5688550">
        <ele>449.0</ele>
        <time>2022-03-01T14:23:24Z</time>
      </trkpt>
      <trkpt lat="39.9499720" lon="-4.5688550">
        <ele>449.0</ele>
        <time>2022-03-01T14:23:25Z</time>
      </trkpt>
      <trkpt lat="39.9500220" lon="-4.5689170">
        <ele>449.0</ele>
        <time>2022-03-01T14:23:26Z</time>
      </trkpt>
      <trkpt lat="39.9500220" lon="-4.5689170">
        <ele>449.0</ele>
        <time>2022-03-01T14:23:27Z</time>
      </trkpt>
      <trkpt lat="39.9500820" lon="-4.5689600">
        <ele>450.0</ele>
        <time>2022-03-01T14:23:28Z</time>
      </trkpt>
      <trkpt lat="39.9500820" lon="-4.5689600">
        <ele>450.0</ele>
        <time>2022-03-01T14:23:29Z</time>
      </trkpt>
      <trkpt lat="39.9501480" lon="-4.5689950">
        <ele>450.0</ele>
        <time>2022-03-01T14:23:30Z</time>
      </trkpt>
      <trkpt lat="39.9501480" lon="-4.5689950">
        <ele>450.0</ele>
        <time>2022-03-01T14:23:31Z</time>
      </trkpt>
      <trkpt lat="39.9502030" lon="-4.5690200">
        <ele>450.0</ele>
        <time>2022-03-01T14:23:32Z</time>
      </trkpt>
      <trkpt lat="39.9502030" lon="-4.5690200">
        <ele>450.0</ele>
        <time>2022-03-01T14:23:33Z</time>
      </trkpt>
      <trkpt lat="39.9502550" lon="-4.5690350">
        <ele>450.0</ele>
        <time>2022-03-01T14:23:34Z</time>
      </trkpt>
      <trkpt lat="39.9502550" lon="-4.5690350">
        <ele>450.0</ele>
        <time>2022-03-01T14:23:35Z</time>
      </trkpt>
      <trkpt lat="39.9503320" lon="-4.5690480">
        <ele>451.0</ele>
        <time>2022-03-01T14:23:36Z</time>
      </trkpt>
      <trkpt lat="39.9503320" lon="-4.5690480">
        <ele>451.0</ele>
        <time>2022-03-01T14:23:37Z</time>
      </trkpt>
      <trkpt lat="39.9504120" lon="-4.5690550">
        <ele>451.0</ele>
        <time>2022-03-01T14:23:38Z</time>
      </trkpt>
      <trkpt lat="39.9504120" lon="-4.5690550">
        <ele>451.0</ele>
        <time>2022-03-01T14:23:39Z</time>
      </trkpt>
      <trkpt lat="39.9504980" lon="-4.5690320">
        <ele>452.0</ele>
        <time>2022-03-01T14:23:40Z</time>
      </trkpt>
      <trkpt lat="39.9504980" lon="-4.5690320">
        <ele>452.0</ele>
        <time>2022-03-01T14:23:41Z</time>
      </trkpt>
      <trkpt lat="39.9505930" lon="-4.5689900">
        <ele>452.0</ele>
        <time>2022-03-01T14:23:42Z</time>
      </trkpt>
      <trkpt lat="39.9505930" lon="-4.5689900">
        <ele>452.0</ele>
        <time>2022-03-01T14:23:43Z</time>
      </trkpt>
      <trkpt lat="39.9506870" lon="-4.5689230">
        <ele>452.0</ele>
        <time>2022-03-01T14:23:44Z</time>
      </trkpt>
      <trkpt lat="39.9507350" lon="-4.5688870">
        <ele>452.0</ele>
        <time>2022-03-01T14:23:45Z</time>
      </trkpt>
      <trkpt lat="39.9507350" lon="-4.5688870">
        <ele>452.0</ele>
        <time>2022-03-01T14:23:46Z</time>
      </trkpt>
      <trkpt lat="39.9508300" lon="-4.5688170">
        <ele>452.0</ele>
        <time>2022-03-01T14:23:47Z</time>
      </trkpt>
      <trkpt lat="39.9508780" lon="-4.5687780">
        <ele>452.0</ele>
        <time>2022-03-01T14:23:48Z</time>
      </trkpt>
      <trkpt lat="39.9508780" lon="-4.5687780">
        <ele>452.0</ele>
        <time>2022-03-01T14:23:49Z</time>
      </trkpt>
      <trkpt lat="39.9509700" lon="-4.5686920">
        <ele>452.0</ele>
        <time>2022-03-01T14:23:50Z</time>
      </trkpt>
      <trkpt lat="39.9509700" lon="-4.5686920">
        <ele>452.0</ele>
        <time>2022-03-01T14:23:51Z</time>
      </trkpt>
      <trkpt lat="39.9510700" lon="-4.5686080">
        <ele>452.0</ele>
        <time>2022-03-01T14:23:52Z</time>
      </trkpt>
      <trkpt lat="39.9510700" lon="-4.5686080">
        <ele>452.0</ele>
        <time>2022-03-01T14:23:53Z</time>
      </trkpt>
      <trkpt lat="39.9511730" lon="-4.5685300">
        <ele>452.0</ele>
        <time>2022-03-01T14:23:54Z</time>
      </trkpt>
      <trkpt lat="39.9511730" lon="-4.5685300">
        <ele>451.0</ele>
        <time>2022-03-01T14:23:55Z</time>
      </trkpt>
      <trkpt lat="39.9512750" lon="-4.5684530">
        <ele>451.0</ele>
        <time>2022-03-01T14:23:56Z</time>
      </trkpt>
      <trkpt lat="39.9512750" lon="-4.5684530">
        <ele>451.0</ele>
        <time>2022-03-01T14:23:57Z</time>
      </trkpt>
      <trkpt lat="39.9513700" lon="-4.5683770">
        <ele>451.0</ele>
        <time>2022-03-01T14:23:58Z</time>
      </trkpt>
      <trkpt lat="39.9513700" lon="-4.5683770">
        <ele>451.0</ele>
        <time>2022-03-01T14:23:59Z</time>
      </trkpt>
      <trkpt lat="39.9514630" lon="-4.5682750">
        <ele>451.0</ele>
        <time>2022-03-01T14:24:00Z</time>
      </trkpt>
      <trkpt lat="39.9514630" lon="-4.5682750">
        <ele>451.0</ele>
        <time>2022-03-01T14:24:01Z</time>
      </trkpt>
      <trkpt lat="39.9515680" lon="-4.5681630">
        <ele>451.0</ele>
        <time>2022-03-01T14:24:02Z</time>
      </trkpt>
      <trkpt lat="39.9515680" lon="-4.5681630">
        <ele>452.0</ele>
        <time>2022-03-01T14:24:03Z</time>
      </trkpt>
      <trkpt lat="39.9516820" lon="-4.5680630">
        <ele>452.0</ele>
        <time>2022-03-01T14:24:04Z</time>
      </trkpt>
      <trkpt lat="39.9516820" lon="-4.5680630">
        <ele>452.0</ele>
        <time>2022-03-01T14:24:05Z</time>
      </trkpt>
      <trkpt lat="39.9517950" lon="-4.5679650">
        <ele>452.0</ele>
        <time>2022-03-01T14:24:06Z</time>
      </trkpt>
      <trkpt lat="39.9517950" lon="-4.5679650">
        <ele>452.0</ele>
        <time>2022-03-01T14:24:07Z</time>
      </trkpt>
      <trkpt lat="39.9519070" lon="-4.5678620">
        <ele>452.0</ele>
        <time>2022-03-01T14:24:08Z</time>
      </trkpt>
      <trkpt lat="39.9519600" lon="-4.5678130">
        <ele>452.0</ele>
        <time>2022-03-01T14:24:09Z</time>
      </trkpt>
      <trkpt lat="39.9519600" lon="-4.5678130">
        <ele>453.0</ele>
        <time>2022-03-01T14:24:10Z</time>
      </trkpt>
      <trkpt lat="39.9520630" lon="-4.5677100">
        <ele>453.0</ele>
        <time>2022-03-01T14:24:11Z</time>
      </trkpt>
      <trkpt lat="39.9521170" lon="-4.5676600">
        <ele>453.0</ele>
        <time>2022-03-01T14:24:12Z</time>
      </trkpt>
      <trkpt lat="39.9521170" lon="-4.5676600">
        <ele>453.0</ele>
        <time>2022-03-01T14:24:13Z</time>
      </trkpt>
      <trkpt lat="39.9522250" lon="-4.5675650">
        <ele>453.0</ele>
        <time>2022-03-01T14:24:14Z</time>
      </trkpt>
      <trkpt lat="39.9522780" lon="-4.5675200">
        <ele>453.0</ele>
        <time>2022-03-01T14:24:15Z</time>
      </trkpt>
      <trkpt lat="39.9523300" lon="-4.5674730">
        <ele>454.0</ele>
        <time>2022-03-01T14:24:16Z</time>
      </trkpt>
      <trkpt lat="39.9523300" lon="-4.5674730">
        <ele>454.0</ele>
        <time>2022-03-01T14:24:17Z</time>
      </trkpt>
      <trkpt lat="39.9524300" lon="-4.5673820">
        <ele>455.0</ele>
        <time>2022-03-01T14:24:18Z</time>
      </trkpt>
      <trkpt lat="39.9524300" lon="-4.5673820">
        <ele>455.0</ele>
        <time>2022-03-01T14:24:19Z</time>
      </trkpt>
      <trkpt lat="39.9525280" lon="-4.5672950">
        <ele>455.0</ele>
        <time>2022-03-01T14:24:20Z</time>
      </trkpt>
      <trkpt lat="39.9525770" lon="-4.5672500">
        <ele>455.0</ele>
        <time>2022-03-01T14:24:21Z</time>
      </trkpt>
      <trkpt lat="39.9526200" lon="-4.5672080">
        <ele>456.0</ele>
        <time>2022-03-01T14:24:22Z</time>
      </trkpt>
      <trkpt lat="39.9526200" lon="-4.5672080">
        <ele>456.0</ele>
        <time>2022-03-01T14:24:23Z</time>
      </trkpt>
      <trkpt lat="39.9527080" lon="-4.5671250">
        <ele>456.0</ele>
        <time>2022-03-01T14:24:24Z</time>
      </trkpt>
      <trkpt lat="39.9527550" lon="-4.5670830">
        <ele>456.0</ele>
        <time>2022-03-01T14:24:25Z</time>
      </trkpt>
      <trkpt lat="39.9527550" lon="-4.5670830">
        <ele>457.0</ele>
        <time>2022-03-01T14:24:26Z</time>
      </trkpt>
      <trkpt lat="39.9528470" lon="-4.5669950">
        <ele>457.0</ele>
        <time>2022-03-01T14:24:27Z</time>
      </trkpt>
      <trkpt lat="39.9528470" lon="-4.5669950">
        <ele>457.0</ele>
        <time>2022-03-01T14:24:28Z</time>
      </trkpt>
      <trkpt lat="39.9529350" lon="-4.5669070">
        <ele>457.0</ele>
        <time>2022-03-01T14:24:29Z</time>
      </trkpt>
      <trkpt lat="39.9529350" lon="-4.5669070">
        <ele>458.0</ele>
        <time>2022-03-01T14:24:30Z</time>
      </trkpt>
      <trkpt lat="39.9530270" lon="-4.5668230">
        <ele>458.0</ele>
        <time>2022-03-01T14:24:31Z</time>
      </trkpt>
      <trkpt lat="39.9530270" lon="-4.5668230">
        <ele>458.0</ele>
        <time>2022-03-01T14:24:32Z</time>
      </trkpt>
      <trkpt lat="39.9531120" lon="-4.5667350">
        <ele>458.0</ele>
        <time>2022-03-01T14:24:33Z</time>
      </trkpt>
      <trkpt lat="39.9531550" lon="-4.5666970">
        <ele>459.0</ele>
        <time>2022-03-01T14:24:34Z</time>
      </trkpt>
      <trkpt lat="39.9531550" lon="-4.5666970">
        <ele>459.0</ele>
        <time>2022-03-01T14:24:35Z</time>
      </trkpt>
      <trkpt lat="39.9532430" lon="-4.5666230">
        <ele>459.0</ele>
        <time>2022-03-01T14:24:36Z</time>
      </trkpt>
      <trkpt lat="39.9532430" lon="-4.5666230">
        <ele>459.0</ele>
        <time>2022-03-01T14:24:37Z</time>
      </trkpt>
      <trkpt lat="39.9533300" lon="-4.5665470">
        <ele>459.0</ele>
        <time>2022-03-01T14:24:38Z</time>
      </trkpt>
      <trkpt lat="39.9533300" lon="-4.5665470">
        <ele>459.0</ele>
        <time>2022-03-01T14:24:39Z</time>
      </trkpt>
      <trkpt lat="39.9534220" lon="-4.5664680">
        <ele>459.0</ele>
        <time>2022-03-01T14:24:40Z</time>
      </trkpt>
      <trkpt lat="39.9534220" lon="-4.5664680">
        <ele>459.0</ele>
        <time>2022-03-01T14:24:41Z</time>
      </trkpt>
      <trkpt lat="39.9535080" lon="-4.5663900">
        <ele>460.0</ele>
        <time>2022-03-01T14:24:42Z</time>
      </trkpt>
      <trkpt lat="39.9535520" lon="-4.5663500">
        <ele>460.0</ele>
        <time>2022-03-01T14:24:43Z</time>
      </trkpt>
      <trkpt lat="39.9535520" lon="-4.5663500">
        <ele>460.0</ele>
        <time>2022-03-01T14:24:44Z</time>
      </trkpt>
      <trkpt lat="39.9536380" lon="-4.5662680">
        <ele>460.0</ele>
        <time>2022-03-01T14:24:45Z</time>
      </trkpt>
      <trkpt lat="39.9536830" lon="-4.5662280">
        <ele>460.0</ele>
        <time>2022-03-01T14:24:46Z</time>
      </trkpt>
      <trkpt lat="39.9536830" lon="-4.5662280">
        <ele>461.0</ele>
        <time>2022-03-01T14:24:47Z</time>
      </trkpt>
      <trkpt lat="39.9537720" lon="-4.5661500">
        <ele>461.0</ele>
        <time>2022-03-01T14:24:48Z</time>
      </trkpt>
      <trkpt lat="39.9537720" lon="-4.5661500">
        <ele>461.0</ele>
        <time>2022-03-01T14:24:49Z</time>
      </trkpt>
      <trkpt lat="39.9538600" lon="-4.5660720">
        <ele>461.0</ele>
        <time>2022-03-01T14:24:50Z</time>
      </trkpt>
      <trkpt lat="39.9539030" lon="-4.5660330">
        <ele>462.0</ele>
        <time>2022-03-01T14:24:51Z</time>
      </trkpt>
      <trkpt lat="39.9539480" lon="-4.5659930">
        <ele>462.0</ele>
        <time>2022-03-01T14:24:52Z</time>
      </trkpt>
      <trkpt lat="39.9539480" lon="-4.5659930">
        <ele>462.0</ele>
        <time>2022-03-01T14:24:53Z</time>
      </trkpt>
      <trkpt lat="39.9540400" lon="-4.5659120">
        <ele>462.0</ele>
        <time>2022-03-01T14:24:54Z</time>
      </trkpt>
      <trkpt lat="39.9540400" lon="-4.5659120">
        <ele>463.0</ele>
        <time>2022-03-01T14:24:55Z</time>
      </trkpt>
      <trkpt lat="39.9541320" lon="-4.5658300">
        <ele>463.0</ele>
        <time>2022-03-01T14:24:56Z</time>
      </trkpt>
      <trkpt lat="39.9541770" lon="-4.5657880">
        <ele>463.0</ele>
        <time>2022-03-01T14:24:57Z</time>
      </trkpt>
      <trkpt lat="39.9542230" lon="-4.5657480">
        <ele>463.0</ele>
        <time>2022-03-01T14:24:58Z</time>
      </trkpt>
      <trkpt lat="39.9542230" lon="-4.5657480">
        <ele>463.0</ele>
        <time>2022-03-01T14:24:59Z</time>
      </trkpt>
      <trkpt lat="39.9543170" lon="-4.5656650">
        <ele>463.0</ele>
        <time>2022-03-01T14:25:00Z</time>
      </trkpt>
      <trkpt lat="39.9543670" lon="-4.5656230">
        <ele>464.0</ele>
        <time>2022-03-01T14:25:01Z</time>
      </trkpt>
      <trkpt lat="39.9543670" lon="-4.5656230">
        <ele>464.0</ele>
        <time>2022-03-01T14:25:02Z</time>
      </trkpt>
      <trkpt lat="39.9544580" lon="-4.5655400">
        <ele>464.0</ele>
        <time>2022-03-01T14:25:03Z</time>
      </trkpt>
      <trkpt lat="39.9544580" lon="-4.5655400">
        <ele>465.0</ele>
        <time>2022-03-01T14:25:04Z</time>
      </trkpt>
      <trkpt lat="39.9545500" lon="-4.5654570">
        <ele>465.0</ele>
        <time>2022-03-01T14:25:05Z</time>
      </trkpt>
      <trkpt lat="39.9545950" lon="-4.5654150">
        <ele>465.0</ele>
        <time>2022-03-01T14:25:06Z</time>
      </trkpt>
      <trkpt lat="39.9545950" lon="-4.5654150">
        <ele>465.0</ele>
        <time>2022-03-01T14:25:07Z</time>
      </trkpt>
      <trkpt lat="39.9546880" lon="-4.5653330">
        <ele>466.0</ele>
        <time>2022-03-01T14:25:08Z</time>
      </trkpt>
      <trkpt lat="39.9546880" lon="-4.5653330">
        <ele>466.0</ele>
        <time>2022-03-01T14:25:09Z</time>
      </trkpt>
      <trkpt lat="39.9547800" lon="-4.5652520">
        <ele>466.0</ele>
        <time>2022-03-01T14:25:10Z</time>
      </trkpt>
      <trkpt lat="39.9548270" lon="-4.5652120">
        <ele>466.0</ele>
        <time>2022-03-01T14:25:11Z</time>
      </trkpt>
      <trkpt lat="39.9548720" lon="-4.5651720">
        <ele>466.0</ele>
        <time>2022-03-01T14:25:12Z</time>
      </trkpt>
      <trkpt lat="39.9548720" lon="-4.5651720">
        <ele>466.0</ele>
        <time>2022-03-01T14:25:13Z</time>
      </trkpt>
      <trkpt lat="39.9549670" lon="-4.5650900">
        <ele>467.0</ele>
        <time>2022-03-01T14:25:14Z</time>
      </trkpt>
      <trkpt lat="39.9549670" lon="-4.5650900">
        <ele>467.0</ele>
        <time>2022-03-01T14:25:15Z</time>
      </trkpt>
      <trkpt lat="39.9550620" lon="-4.5650080">
        <ele>467.0</ele>
        <time>2022-03-01T14:25:16Z</time>
      </trkpt>
      <trkpt lat="39.9551080" lon="-4.5649670">
        <ele>467.0</ele>
        <time>2022-03-01T14:25:17Z</time>
      </trkpt>
      <trkpt lat="39.9551570" lon="-4.5649250">
        <ele>467.0</ele>
        <time>2022-03-01T14:25:18Z</time>
      </trkpt>
      <trkpt lat="39.9551570" lon="-4.5649250">
        <ele>467.0</ele>
        <time>2022-03-01T14:25:19Z</time>
      </trkpt>
      <trkpt lat="39.9552520" lon="-4.5648420">
        <ele>467.0</ele>
        <time>2022-03-01T14:25:20Z</time>
      </trkpt>
      <trkpt lat="39.9552980" lon="-4.5648020">
        <ele>467.0</ele>
        <time>2022-03-01T14:25:21Z</time>
      </trkpt>
      <trkpt lat="39.9553450" lon="-4.5647600">
        <ele>467.0</ele>
        <time>2022-03-01T14:25:22Z</time>
      </trkpt>
      <trkpt lat="39.9553450" lon="-4.5647600">
        <ele>468.0</ele>
        <time>2022-03-01T14:25:23Z</time>
      </trkpt>
      <trkpt lat="39.9554380" lon="-4.5646780">
        <ele>468.0</ele>
        <time>2022-03-01T14:25:24Z</time>
      </trkpt>
      <trkpt lat="39.9554380" lon="-4.5646780">
        <ele>468.0</ele>
        <time>2022-03-01T14:25:25Z</time>
      </trkpt>
      <trkpt lat="39.9555300" lon="-4.5645970">
        <ele>468.0</ele>
        <time>2022-03-01T14:25:26Z</time>
      </trkpt>
      <trkpt lat="39.9555300" lon="-4.5645970">
        <ele>469.0</ele>
        <time>2022-03-01T14:25:27Z</time>
      </trkpt>
      <trkpt lat="39.9556200" lon="-4.5645180">
        <ele>469.0</ele>
        <time>2022-03-01T14:25:28Z</time>
      </trkpt>
      <trkpt lat="39.9556200" lon="-4.5645180">
        <ele>469.0</ele>
        <time>2022-03-01T14:25:29Z</time>
      </trkpt>
      <trkpt lat="39.9557120" lon="-4.5644370">
        <ele>469.0</ele>
        <time>2022-03-01T14:25:30Z</time>
      </trkpt>
      <trkpt lat="39.9557120" lon="-4.5644370">
        <ele>470.0</ele>
        <time>2022-03-01T14:25:31Z</time>
      </trkpt>
      <trkpt lat="39.9558020" lon="-4.5643550">
        <ele>470.0</ele>
        <time>2022-03-01T14:25:32Z</time>
      </trkpt>
      <trkpt lat="39.9558480" lon="-4.5643150">
        <ele>471.0</ele>
        <time>2022-03-01T14:25:33Z</time>
      </trkpt>
      <trkpt lat="39.9558930" lon="-4.5642750">
        <ele>471.0</ele>
        <time>2022-03-01T14:25:34Z</time>
      </trkpt>
      <trkpt lat="39.9558930" lon="-4.5642750">
        <ele>471.0</ele>
        <time>2022-03-01T14:25:35Z</time>
      </trkpt>
      <trkpt lat="39.9559830" lon="-4.5641950">
        <ele>471.0</ele>
        <time>2022-03-01T14:25:36Z</time>
      </trkpt>
      <trkpt lat="39.9559830" lon="-4.5641950">
        <ele>472.0</ele>
        <time>2022-03-01T14:25:37Z</time>
      </trkpt>
      <trkpt lat="39.9560730" lon="-4.5641130">
        <ele>472.0</ele>
        <time>2022-03-01T14:25:38Z</time>
      </trkpt>
      <trkpt lat="39.9560730" lon="-4.5641130">
        <ele>472.0</ele>
        <time>2022-03-01T14:25:39Z</time>
      </trkpt>
      <trkpt lat="39.9561630" lon="-4.5640330">
        <ele>472.0</ele>
        <time>2022-03-01T14:25:40Z</time>
      </trkpt>
      <trkpt lat="39.9561630" lon="-4.5640330">
        <ele>472.0</ele>
        <time>2022-03-01T14:25:41Z</time>
      </trkpt>
      <trkpt lat="39.9562520" lon="-4.5639550">
        <ele>472.0</ele>
        <time>2022-03-01T14:25:42Z</time>
      </trkpt>
      <trkpt lat="39.9562520" lon="-4.5639550">
        <ele>473.0</ele>
        <time>2022-03-01T14:25:43Z</time>
      </trkpt>
      <trkpt lat="39.9563400" lon="-4.5638770">
        <ele>473.0</ele>
        <time>2022-03-01T14:25:44Z</time>
      </trkpt>
      <trkpt lat="39.9563400" lon="-4.5638770">
        <ele>473.0</ele>
        <time>2022-03-01T14:25:45Z</time>
      </trkpt>
      <trkpt lat="39.9564280" lon="-4.5637970">
        <ele>473.0</ele>
        <time>2022-03-01T14:25:46Z</time>
      </trkpt>
      <trkpt lat="39.9564280" lon="-4.5637970">
        <ele>473.0</ele>
        <time>2022-03-01T14:25:47Z</time>
      </trkpt>
      <trkpt lat="39.9565170" lon="-4.5637170">
        <ele>473.0</ele>
        <time>2022-03-01T14:25:48Z</time>
      </trkpt>
      <trkpt lat="39.9565170" lon="-4.5637170">
        <ele>473.0</ele>
        <time>2022-03-01T14:25:49Z</time>
      </trkpt>
      <trkpt lat="39.9566050" lon="-4.5636400">
        <ele>473.0</ele>
        <time>2022-03-01T14:25:50Z</time>
      </trkpt>
      <trkpt lat="39.9566480" lon="-4.5636000">
        <ele>474.0</ele>
        <time>2022-03-01T14:25:51Z</time>
      </trkpt>
      <trkpt lat="39.9566920" lon="-4.5635620">
        <ele>474.0</ele>
        <time>2022-03-01T14:25:52Z</time>
      </trkpt>
      <trkpt lat="39.9566920" lon="-4.5635620">
        <ele>474.0</ele>
        <time>2022-03-01T14:25:53Z</time>
      </trkpt>
      <trkpt lat="39.9567770" lon="-4.5634830">
        <ele>475.0</ele>
        <time>2022-03-01T14:25:54Z</time>
      </trkpt>
      <trkpt lat="39.9567770" lon="-4.5634830">
        <ele>475.0</ele>
        <time>2022-03-01T14:25:55Z</time>
      </trkpt>
      <trkpt lat="39.9568600" lon="-4.5634070">
        <ele>476.0</ele>
        <time>2022-03-01T14:25:56Z</time>
      </trkpt>
      <trkpt lat="39.9568600" lon="-4.5634070">
        <ele>476.0</ele>
        <time>2022-03-01T14:25:57Z</time>
      </trkpt>
      <trkpt lat="39.9569450" lon="-4.5633280">
        <ele>476.0</ele>
        <time>2022-03-01T14:25:58Z</time>
      </trkpt>
      <trkpt lat="39.9569450" lon="-4.5633280">
        <ele>476.0</ele>
        <time>2022-03-01T14:25:59Z</time>
      </trkpt>
      <trkpt lat="39.9570300" lon="-4.5632480">
        <ele>477.0</ele>
        <time>2022-03-01T14:26:00Z</time>
      </trkpt>
      <trkpt lat="39.9570300" lon="-4.5632480">
        <ele>477.0</ele>
        <time>2022-03-01T14:26:01Z</time>
      </trkpt>
      <trkpt lat="39.9571150" lon="-4.5631730">
        <ele>477.0</ele>
        <time>2022-03-01T14:26:02Z</time>
      </trkpt>
      <trkpt lat="39.9571150" lon="-4.5631730">
        <ele>477.0</ele>
        <time>2022-03-01T14:26:03Z</time>
      </trkpt>
      <trkpt lat="39.9571980" lon="-4.5630950">
        <ele>478.0</ele>
        <time>2022-03-01T14:26:04Z</time>
      </trkpt>
      <trkpt lat="39.9571980" lon="-4.5630950">
        <ele>478.0</ele>
        <time>2022-03-01T14:26:05Z</time>
      </trkpt>
      <trkpt lat="39.9572820" lon="-4.5630220">
        <ele>478.0</ele>
        <time>2022-03-01T14:26:06Z</time>
      </trkpt>
      <trkpt lat="39.9572820" lon="-4.5630220">
        <ele>478.0</ele>
        <time>2022-03-01T14:26:07Z</time>
      </trkpt>
      <trkpt lat="39.9573650" lon="-4.5629480">
        <ele>478.0</ele>
        <time>2022-03-01T14:26:08Z</time>
      </trkpt>
      <trkpt lat="39.9573650" lon="-4.5629480">
        <ele>479.0</ele>
        <time>2022-03-01T14:26:09Z</time>
      </trkpt>
      <trkpt lat="39.9574420" lon="-4.5628750">
        <ele>479.0</ele>
        <time>2022-03-01T14:26:10Z</time>
      </trkpt>
      <trkpt lat="39.9574420" lon="-4.5628750">
        <ele>480.0</ele>
        <time>2022-03-01T14:26:11Z</time>
      </trkpt>
      <trkpt lat="39.9575220" lon="-4.5628050">
        <ele>480.0</ele>
        <time>2022-03-01T14:26:12Z</time>
      </trkpt>
      <trkpt lat="39.9575220" lon="-4.5628050">
        <ele>480.0</ele>
        <time>2022-03-01T14:26:13Z</time>
      </trkpt>
      <trkpt lat="39.9576020" lon="-4.5627370">
        <ele>480.0</ele>
        <time>2022-03-01T14:26:14Z</time>
      </trkpt>
      <trkpt lat="39.9576420" lon="-4.5627000">
        <ele>481.0</ele>
        <time>2022-03-01T14:26:15Z</time>
      </trkpt>
      <trkpt lat="39.9576820" lon="-4.5626650">
        <ele>481.0</ele>
        <time>2022-03-01T14:26:16Z</time>
      </trkpt>
      <trkpt lat="39.9576820" lon="-4.5626650">
        <ele>481.0</ele>
        <time>2022-03-01T14:26:17Z</time>
      </trkpt>
      <trkpt lat="39.9577620" lon="-4.5625950">
        <ele>481.0</ele>
        <time>2022-03-01T14:26:18Z</time>
      </trkpt>
      <trkpt lat="39.9577620" lon="-4.5625950">
        <ele>482.0</ele>
        <time>2022-03-01T14:26:19Z</time>
      </trkpt>
      <trkpt lat="39.9578400" lon="-4.5625230">
        <ele>482.0</ele>
        <time>2022-03-01T14:26:20Z</time>
      </trkpt>
      <trkpt lat="39.9578400" lon="-4.5625230">
        <ele>482.0</ele>
        <time>2022-03-01T14:26:21Z</time>
      </trkpt>
      <trkpt lat="39.9579180" lon="-4.5624500">
        <ele>482.0</ele>
        <time>2022-03-01T14:26:22Z</time>
      </trkpt>
      <trkpt lat="39.9579180" lon="-4.5624500">
        <ele>483.0</ele>
        <time>2022-03-01T14:26:23Z</time>
      </trkpt>
      <trkpt lat="39.9579970" lon="-4.5623780">
        <ele>483.0</ele>
        <time>2022-03-01T14:26:24Z</time>
      </trkpt>
      <trkpt lat="39.9579970" lon="-4.5623780">
        <ele>483.0</ele>
        <time>2022-03-01T14:26:25Z</time>
      </trkpt>
      <trkpt lat="39.9580720" lon="-4.5623080">
        <ele>483.0</ele>
        <time>2022-03-01T14:26:26Z</time>
      </trkpt>
      <trkpt lat="39.9580720" lon="-4.5623080">
        <ele>483.0</ele>
        <time>2022-03-01T14:26:27Z</time>
      </trkpt>
      <trkpt lat="39.9581520" lon="-4.5622430">
        <ele>485.0</ele>
        <time>2022-03-01T14:26:28Z</time>
      </trkpt>
      <trkpt lat="39.9581520" lon="-4.5622430">
        <ele>485.0</ele>
        <time>2022-03-01T14:26:29Z</time>
      </trkpt>
      <trkpt lat="39.9582330" lon="-4.5621680">
        <ele>485.0</ele>
        <time>2022-03-01T14:26:30Z</time>
      </trkpt>
      <trkpt lat="39.9582330" lon="-4.5621680">
        <ele>485.0</ele>
        <time>2022-03-01T14:26:31Z</time>
      </trkpt>
      <trkpt lat="39.9583170" lon="-4.5620920">
        <ele>485.0</ele>
        <time>2022-03-01T14:26:32Z</time>
      </trkpt>
      <trkpt lat="39.9583170" lon="-4.5620920">
        <ele>485.0</ele>
        <time>2022-03-01T14:26:33Z</time>
      </trkpt>
      <trkpt lat="39.9584030" lon="-4.5620150">
        <ele>485.0</ele>
        <time>2022-03-01T14:26:34Z</time>
      </trkpt>
      <trkpt lat="39.9584030" lon="-4.5620150">
        <ele>486.0</ele>
        <time>2022-03-01T14:26:35Z</time>
      </trkpt>
      <trkpt lat="39.9584880" lon="-4.5619370">
        <ele>486.0</ele>
        <time>2022-03-01T14:26:36Z</time>
      </trkpt>
      <trkpt lat="39.9584880" lon="-4.5619370">
        <ele>487.0</ele>
        <time>2022-03-01T14:26:37Z</time>
      </trkpt>
      <trkpt lat="39.9585750" lon="-4.5618600">
        <ele>487.0</ele>
        <time>2022-03-01T14:26:38Z</time>
      </trkpt>
      <trkpt lat="39.9586170" lon="-4.5618220">
        <ele>487.0</ele>
        <time>2022-03-01T14:26:39Z</time>
      </trkpt>
      <trkpt lat="39.9586170" lon="-4.5618220">
        <ele>487.0</ele>
        <time>2022-03-01T14:26:40Z</time>
      </trkpt>
      <trkpt lat="39.9587020" lon="-4.5617430">
        <ele>488.0</ele>
        <time>2022-03-01T14:26:41Z</time>
      </trkpt>
      <trkpt lat="39.9587450" lon="-4.5617030">
        <ele>488.0</ele>
        <time>2022-03-01T14:26:42Z</time>
      </trkpt>
      <trkpt lat="39.9587450" lon="-4.5617030">
        <ele>488.0</ele>
        <time>2022-03-01T14:26:43Z</time>
      </trkpt>
      <trkpt lat="39.9588350" lon="-4.5616270">
        <ele>488.0</ele>
        <time>2022-03-01T14:26:44Z</time>
      </trkpt>
      <trkpt lat="39.9588350" lon="-4.5616270">
        <ele>489.0</ele>
        <time>2022-03-01T14:26:45Z</time>
      </trkpt>
      <trkpt lat="39.9589230" lon="-4.5615480">
        <ele>489.0</ele>
        <time>2022-03-01T14:26:46Z</time>
      </trkpt>
      <trkpt lat="39.9589230" lon="-4.5615480">
        <ele>489.0</ele>
        <time>2022-03-01T14:26:47Z</time>
      </trkpt>
      <trkpt lat="39.9590120" lon="-4.5614680">
        <ele>491.0</ele>
        <time>2022-03-01T14:26:48Z</time>
      </trkpt>
      <trkpt lat="39.9590570" lon="-4.5614280">
        <ele>491.0</ele>
        <time>2022-03-01T14:26:49Z</time>
      </trkpt>
      <trkpt lat="39.9591000" lon="-4.5613880">
        <ele>491.0</ele>
        <time>2022-03-01T14:26:50Z</time>
      </trkpt>
      <trkpt lat="39.9591000" lon="-4.5613880">
        <ele>491.0</ele>
        <time>2022-03-01T14:26:51Z</time>
      </trkpt>
      <trkpt lat="39.9591900" lon="-4.5613070">
        <ele>492.0</ele>
        <time>2022-03-01T14:26:52Z</time>
      </trkpt>
      <trkpt lat="39.9591900" lon="-4.5613070">
        <ele>492.0</ele>
        <time>2022-03-01T14:26:53Z</time>
      </trkpt>
      <trkpt lat="39.9592820" lon="-4.5612270">
        <ele>492.0</ele>
        <time>2022-03-01T14:26:54Z</time>
      </trkpt>
      <trkpt lat="39.9592820" lon="-4.5612270">
        <ele>492.0</ele>
        <time>2022-03-01T14:26:55Z</time>
      </trkpt>
      <trkpt lat="39.9593730" lon="-4.5611450">
        <ele>493.0</ele>
        <time>2022-03-01T14:26:56Z</time>
      </trkpt>
      <trkpt lat="39.9594220" lon="-4.5611030">
        <ele>493.0</ele>
        <time>2022-03-01T14:26:57Z</time>
      </trkpt>
      <trkpt lat="39.9594220" lon="-4.5611030">
        <ele>493.0</ele>
        <time>2022-03-01T14:26:58Z</time>
      </trkpt>
      <trkpt lat="39.9595170" lon="-4.5610220">
        <ele>493.0</ele>
        <time>2022-03-01T14:26:59Z</time>
      </trkpt>
      <trkpt lat="39.9595630" lon="-4.5609800">
        <ele>494.0</ele>
        <time>2022-03-01T14:27:00Z</time>
      </trkpt>
      <trkpt lat="39.9595630" lon="-4.5609800">
        <ele>494.0</ele>
        <time>2022-03-01T14:27:01Z</time>
      </trkpt>
      <trkpt lat="39.9596620" lon="-4.5608970">
        <ele>494.0</ele>
        <time>2022-03-01T14:27:02Z</time>
      </trkpt>
      <trkpt lat="39.9596620" lon="-4.5608970">
        <ele>494.0</ele>
        <time>2022-03-01T14:27:03Z</time>
      </trkpt>
      <trkpt lat="39.9597600" lon="-4.5608150">
        <ele>494.0</ele>
        <time>2022-03-01T14:27:04Z</time>
      </trkpt>
      <trkpt lat="39.9597600" lon="-4.5608150">
        <ele>494.0</ele>
        <time>2022-03-01T14:27:05Z</time>
      </trkpt>
      <trkpt lat="39.9598600" lon="-4.5607330">
        <ele>495.0</ele>
        <time>2022-03-01T14:27:06Z</time>
      </trkpt>
      <trkpt lat="39.9598600" lon="-4.5607330">
        <ele>495.0</ele>
        <time>2022-03-01T14:27:07Z</time>
      </trkpt>
      <trkpt lat="39.9599650" lon="-4.5606570">
        <ele>495.0</ele>
        <time>2022-03-01T14:27:08Z</time>
      </trkpt>
      <trkpt lat="39.9599650" lon="-4.5606570">
        <ele>495.0</ele>
        <time>2022-03-01T14:27:09Z</time>
      </trkpt>
      <trkpt lat="39.9600700" lon="-4.5605820">
        <ele>495.0</ele>
        <time>2022-03-01T14:27:10Z</time>
      </trkpt>
      <trkpt lat="39.9600700" lon="-4.5605820">
        <ele>495.0</ele>
        <time>2022-03-01T14:27:11Z</time>
      </trkpt>
      <trkpt lat="39.9601770" lon="-4.5605100">
        <ele>496.0</ele>
        <time>2022-03-01T14:27:12Z</time>
      </trkpt>
      <trkpt lat="39.9601770" lon="-4.5605100">
        <ele>496.0</ele>
        <time>2022-03-01T14:27:13Z</time>
      </trkpt>
      <trkpt lat="39.9602880" lon="-4.5604450">
        <ele>496.0</ele>
        <time>2022-03-01T14:27:14Z</time>
      </trkpt>
      <trkpt lat="39.9602880" lon="-4.5604450">
        <ele>496.0</ele>
        <time>2022-03-01T14:27:15Z</time>
      </trkpt>
      <trkpt lat="39.9604030" lon="-4.5603820">
        <ele>497.0</ele>
        <time>2022-03-01T14:27:16Z</time>
      </trkpt>
      <trkpt lat="39.9604030" lon="-4.5603820">
        <ele>497.0</ele>
        <time>2022-03-01T14:27:17Z</time>
      </trkpt>
      <trkpt lat="39.9605200" lon="-4.5603230">
        <ele>497.0</ele>
        <time>2022-03-01T14:27:18Z</time>
      </trkpt>
      <trkpt lat="39.9605200" lon="-4.5603230">
        <ele>497.0</ele>
        <time>2022-03-01T14:27:19Z</time>
      </trkpt>
      <trkpt lat="39.9606400" lon="-4.5602720">
        <ele>497.0</ele>
        <time>2022-03-01T14:27:20Z</time>
      </trkpt>
      <trkpt lat="39.9606400" lon="-4.5602720">
        <ele>497.0</ele>
        <time>2022-03-01T14:27:21Z</time>
      </trkpt>
      <trkpt lat="39.9607630" lon="-4.5602220">
        <ele>497.0</ele>
        <time>2022-03-01T14:27:22Z</time>
      </trkpt>
      <trkpt lat="39.9607630" lon="-4.5602220">
        <ele>497.0</ele>
        <time>2022-03-01T14:27:23Z</time>
      </trkpt>
      <trkpt lat="39.9608880" lon="-4.5601730">
        <ele>497.0</ele>
        <time>2022-03-01T14:27:24Z</time>
      </trkpt>
      <trkpt lat="39.9608880" lon="-4.5601730">
        <ele>497.0</ele>
        <time>2022-03-01T14:27:25Z</time>
      </trkpt>
      <trkpt lat="39.9610150" lon="-4.5601270">
        <ele>497.0</ele>
        <time>2022-03-01T14:27:26Z</time>
      </trkpt>
      <trkpt lat="39.9610150" lon="-4.5601270">
        <ele>497.0</ele>
        <time>2022-03-01T14:27:27Z</time>
      </trkpt>
      <trkpt lat="39.9611470" lon="-4.5600780">
        <ele>497.0</ele>
        <time>2022-03-01T14:27:28Z</time>
      </trkpt>
      <trkpt lat="39.9611470" lon="-4.5600780">
        <ele>497.0</ele>
        <time>2022-03-01T14:27:29Z</time>
      </trkpt>
      <trkpt lat="39.9612820" lon="-4.5600280">
        <ele>497.0</ele>
        <time>2022-03-01T14:27:30Z</time>
      </trkpt>
      <trkpt lat="39.9612820" lon="-4.5600280">
        <ele>497.0</ele>
        <time>2022-03-01T14:27:31Z</time>
      </trkpt>
      <trkpt lat="39.9614200" lon="-4.5599780">
        <ele>497.0</ele>
        <time>2022-03-01T14:27:32Z</time>
      </trkpt>
      <trkpt lat="39.9614200" lon="-4.5599780">
        <ele>497.0</ele>
        <time>2022-03-01T14:27:33Z</time>
      </trkpt>
      <trkpt lat="39.9615600" lon="-4.5599250">
        <ele>497.0</ele>
        <time>2022-03-01T14:27:34Z</time>
      </trkpt>
      <trkpt lat="39.9615600" lon="-4.5599250">
        <ele>497.0</ele>
        <time>2022-03-01T14:27:35Z</time>
      </trkpt>
      <trkpt lat="39.9617050" lon="-4.5598730">
        <ele>497.0</ele>
        <time>2022-03-01T14:27:36Z</time>
      </trkpt>
      <trkpt lat="39.9617050" lon="-4.5598730">
        <ele>497.0</ele>
        <time>2022-03-01T14:27:37Z</time>
      </trkpt>
      <trkpt lat="39.9618500" lon="-4.5598220">
        <ele>497.0</ele>
        <time>2022-03-01T14:27:38Z</time>
      </trkpt>
      <trkpt lat="39.9618500" lon="-4.5598220">
        <ele>497.0</ele>
        <time>2022-03-01T14:27:39Z</time>
      </trkpt>
      <trkpt lat="39.9619980" lon="-4.5597670">
        <ele>497.0</ele>
        <time>2022-03-01T14:27:40Z</time>
      </trkpt>
      <trkpt lat="39.9619980" lon="-4.5597670">
        <ele>497.0</ele>
        <time>2022-03-01T14:27:41Z</time>
      </trkpt>
      <trkpt lat="39.9621480" lon="-4.5597120">
        <ele>497.0</ele>
        <time>2022-03-01T14:27:42Z</time>
      </trkpt>
      <trkpt lat="39.9622270" lon="-4.5596850">
        <ele>497.0</ele>
        <time>2022-03-01T14:27:43Z</time>
      </trkpt>
      <trkpt lat="39.9622270" lon="-4.5596850">
        <ele>497.0</ele>
        <time>2022-03-01T14:27:44Z</time>
      </trkpt>
      <trkpt lat="39.9623830" lon="-4.5596280">
        <ele>497.0</ele>
        <time>2022-03-01T14:27:45Z</time>
      </trkpt>
      <trkpt lat="39.9624630" lon="-4.5596000">
        <ele>497.0</ele>
        <time>2022-03-01T14:27:46Z</time>
      </trkpt>
      <trkpt lat="39.9624630" lon="-4.5596000">
        <ele>497.0</ele>
        <time>2022-03-01T14:27:47Z</time>
      </trkpt>
      <trkpt lat="39.9626220" lon="-4.5595450">
        <ele>497.0</ele>
        <time>2022-03-01T14:27:48Z</time>
      </trkpt>
      <trkpt lat="39.9626220" lon="-4.5595450">
        <ele>496.0</ele>
        <time>2022-03-01T14:27:49Z</time>
      </trkpt>
      <trkpt lat="39.9627780" lon="-4.5594870">
        <ele>496.0</ele>
        <time>2022-03-01T14:27:50Z</time>
      </trkpt>
      <trkpt lat="39.9627780" lon="-4.5594870">
        <ele>496.0</ele>
        <time>2022-03-01T14:27:51Z</time>
      </trkpt>
      <trkpt lat="39.9629380" lon="-4.5594270">
        <ele>496.0</ele>
        <time>2022-03-01T14:27:52Z</time>
      </trkpt>
      <trkpt lat="39.9629380" lon="-4.5594270">
        <ele>495.0</ele>
        <time>2022-03-01T14:27:53Z</time>
      </trkpt>
      <trkpt lat="39.9631020" lon="-4.5593650">
        <ele>495.0</ele>
        <time>2022-03-01T14:27:54Z</time>
      </trkpt>
      <trkpt lat="39.9631020" lon="-4.5593650">
        <ele>495.0</ele>
        <time>2022-03-01T14:27:55Z</time>
      </trkpt>
      <trkpt lat="39.9632650" lon="-4.5593050">
        <ele>495.0</ele>
        <time>2022-03-01T14:27:56Z</time>
      </trkpt>
      <trkpt lat="39.9632650" lon="-4.5593050">
        <ele>495.0</ele>
        <time>2022-03-01T14:27:57Z</time>
      </trkpt>
      <trkpt lat="39.9634300" lon="-4.5592470">
        <ele>495.0</ele>
        <time>2022-03-01T14:27:58Z</time>
      </trkpt>
      <trkpt lat="39.9634300" lon="-4.5592470">
        <ele>495.0</ele>
        <time>2022-03-01T14:27:59Z</time>
      </trkpt>
      <trkpt lat="39.9635970" lon="-4.5591880">
        <ele>495.0</ele>
        <time>2022-03-01T14:28:00Z</time>
      </trkpt>
      <trkpt lat="39.9635970" lon="-4.5591880">
        <ele>495.0</ele>
        <time>2022-03-01T14:28:01Z</time>
      </trkpt>
      <trkpt lat="39.9637650" lon="-4.5591280">
        <ele>495.0</ele>
        <time>2022-03-01T14:28:02Z</time>
      </trkpt>
      <trkpt lat="39.9637650" lon="-4.5591280">
        <ele>494.0</ele>
        <time>2022-03-01T14:28:03Z</time>
      </trkpt>
      <trkpt lat="39.9639350" lon="-4.5590670">
        <ele>494.0</ele>
        <time>2022-03-01T14:28:04Z</time>
      </trkpt>
      <trkpt lat="39.9639350" lon="-4.5590670">
        <ele>494.0</ele>
        <time>2022-03-01T14:28:05Z</time>
      </trkpt>
      <trkpt lat="39.9641050" lon="-4.5590070">
        <ele>494.0</ele>
        <time>2022-03-01T14:28:06Z</time>
      </trkpt>
      <trkpt lat="39.9641050" lon="-4.5590070">
        <ele>494.0</ele>
        <time>2022-03-01T14:28:07Z</time>
      </trkpt>
      <trkpt lat="39.9642750" lon="-4.5589470">
        <ele>494.0</ele>
        <time>2022-03-01T14:28:08Z</time>
      </trkpt>
      <trkpt lat="39.9642750" lon="-4.5589470">
        <ele>493.0</ele>
        <time>2022-03-01T14:28:09Z</time>
      </trkpt>
      <trkpt lat="39.9644450" lon="-4.5588850">
        <ele>493.0</ele>
        <time>2022-03-01T14:28:10Z</time>
      </trkpt>
      <trkpt lat="39.9644450" lon="-4.5588850">
        <ele>493.0</ele>
        <time>2022-03-01T14:28:11Z</time>
      </trkpt>
      <trkpt lat="39.9646150" lon="-4.5588230">
        <ele>493.0</ele>
        <time>2022-03-01T14:28:12Z</time>
      </trkpt>
      <trkpt lat="39.9647000" lon="-4.5587950">
        <ele>493.0</ele>
        <time>2022-03-01T14:28:13Z</time>
      </trkpt>
      <trkpt lat="39.9647000" lon="-4.5587950">
        <ele>493.0</ele>
        <time>2022-03-01T14:28:14Z</time>
      </trkpt>
      <trkpt lat="39.9648680" lon="-4.5587350">
        <ele>493.0</ele>
        <time>2022-03-01T14:28:15Z</time>
      </trkpt>
      <trkpt lat="39.9648680" lon="-4.5587350">
        <ele>493.0</ele>
        <time>2022-03-01T14:28:16Z</time>
      </trkpt>
      <trkpt lat="39.9650380" lon="-4.5586730">
        <ele>492.0</ele>
        <time>2022-03-01T14:28:17Z</time>
      </trkpt>
      <trkpt lat="39.9651230" lon="-4.5586430">
        <ele>492.0</ele>
        <time>2022-03-01T14:28:18Z</time>
      </trkpt>
      <trkpt lat="39.9651230" lon="-4.5586430">
        <ele>492.0</ele>
        <time>2022-03-01T14:28:19Z</time>
      </trkpt>
      <trkpt lat="39.9652950" lon="-4.5585830">
        <ele>492.0</ele>
        <time>2022-03-01T14:28:20Z</time>
      </trkpt>
      <trkpt lat="39.9652950" lon="-4.5585830">
        <ele>491.0</ele>
        <time>2022-03-01T14:28:21Z</time>
      </trkpt>
      <trkpt lat="39.9654680" lon="-4.5585220">
        <ele>491.0</ele>
        <time>2022-03-01T14:28:22Z</time>
      </trkpt>
      <trkpt lat="39.9654680" lon="-4.5585220">
        <ele>491.0</ele>
        <time>2022-03-01T14:28:23Z</time>
      </trkpt>
      <trkpt lat="39.9656400" lon="-4.5584570">
        <ele>491.0</ele>
        <time>2022-03-01T14:28:24Z</time>
      </trkpt>
      <trkpt lat="39.9656400" lon="-4.5584570">
        <ele>490.0</ele>
        <time>2022-03-01T14:28:25Z</time>
      </trkpt>
      <trkpt lat="39.9658130" lon="-4.5583950">
        <ele>490.0</ele>
        <time>2022-03-01T14:28:26Z</time>
      </trkpt>
      <trkpt lat="39.9658130" lon="-4.5583950">
        <ele>490.0</ele>
        <time>2022-03-01T14:28:27Z</time>
      </trkpt>
      <trkpt lat="39.9659830" lon="-4.5583350">
        <ele>490.0</ele>
        <time>2022-03-01T14:28:28Z</time>
      </trkpt>
      <trkpt lat="39.9659830" lon="-4.5583350">
        <ele>490.0</ele>
        <time>2022-03-01T14:28:29Z</time>
      </trkpt>
      <trkpt lat="39.9661500" lon="-4.5582730">
        <ele>490.0</ele>
        <time>2022-03-01T14:28:30Z</time>
      </trkpt>
      <trkpt lat="39.9661500" lon="-4.5582730">
        <ele>490.0</ele>
        <time>2022-03-01T14:28:31Z</time>
      </trkpt>
      <trkpt lat="39.9663120" lon="-4.5582150">
        <ele>490.0</ele>
        <time>2022-03-01T14:28:32Z</time>
      </trkpt>
      <trkpt lat="39.9663900" lon="-4.5581880">
        <ele>490.0</ele>
        <time>2022-03-01T14:28:33Z</time>
      </trkpt>
      <trkpt lat="39.9663900" lon="-4.5581880">
        <ele>490.0</ele>
        <time>2022-03-01T14:28:34Z</time>
      </trkpt>
      <trkpt lat="39.9665430" lon="-4.5581330">
        <ele>490.0</ele>
        <time>2022-03-01T14:28:35Z</time>
      </trkpt>
      <trkpt lat="39.9666180" lon="-4.5581070">
        <ele>490.0</ele>
        <time>2022-03-01T14:28:36Z</time>
      </trkpt>
      <trkpt lat="39.9666180" lon="-4.5581070">
        <ele>490.0</ele>
        <time>2022-03-01T14:28:37Z</time>
      </trkpt>
      <trkpt lat="39.9667670" lon="-4.5580520">
        <ele>491.0</ele>
        <time>2022-03-01T14:28:38Z</time>
      </trkpt>
      <trkpt lat="39.9667670" lon="-4.5580520">
        <ele>491.0</ele>
        <time>2022-03-01T14:28:39Z</time>
      </trkpt>
      <trkpt lat="39.9669120" lon="-4.5580000">
        <ele>491.0</ele>
        <time>2022-03-01T14:28:40Z</time>
      </trkpt>
      <trkpt lat="39.9669120" lon="-4.5580000">
        <ele>491.0</ele>
        <time>2022-03-01T14:28:41Z</time>
      </trkpt>
      <trkpt lat="39.9670520" lon="-4.5579500">
        <ele>491.0</ele>
        <time>2022-03-01T14:28:42Z</time>
      </trkpt>
      <trkpt lat="39.9671220" lon="-4.5579270">
        <ele>491.0</ele>
        <time>2022-03-01T14:28:43Z</time>
      </trkpt>
      <trkpt lat="39.9671220" lon="-4.5579270">
        <ele>491.0</ele>
        <time>2022-03-01T14:28:44Z</time>
      </trkpt>
      <trkpt lat="39.9672570" lon="-4.5578800">
        <ele>492.0</ele>
        <time>2022-03-01T14:28:45Z</time>
      </trkpt>
      <trkpt lat="39.9673250" lon="-4.5578580">
        <ele>492.0</ele>
        <time>2022-03-01T14:28:46Z</time>
      </trkpt>
      <trkpt lat="39.9673250" lon="-4.5578580">
        <ele>492.0</ele>
        <time>2022-03-01T14:28:47Z</time>
      </trkpt>
      <trkpt lat="39.9674580" lon="-4.5578150">
        <ele>492.0</ele>
        <time>2022-03-01T14:28:48Z</time>
      </trkpt>
      <trkpt lat="39.9674580" lon="-4.5578150">
        <ele>492.0</ele>
        <time>2022-03-01T14:28:49Z</time>
      </trkpt>
      <trkpt lat="39.9675930" lon="-4.5577730">
        <ele>492.0</ele>
        <time>2022-03-01T14:28:50Z</time>
      </trkpt>
      <trkpt lat="39.9676620" lon="-4.5577530">
        <ele>493.0</ele>
        <time>2022-03-01T14:28:51Z</time>
      </trkpt>
      <trkpt lat="39.9676620" lon="-4.5577530">
        <ele>493.0</ele>
        <time>2022-03-01T14:28:52Z</time>
      </trkpt>
      <trkpt lat="39.9677970" lon="-4.5577170">
        <ele>493.0</ele>
        <time>2022-03-01T14:28:53Z</time>
      </trkpt>
      <trkpt lat="39.9678650" lon="-4.5576980">
        <ele>493.0</ele>
        <time>2022-03-01T14:28:54Z</time>
      </trkpt>
      <trkpt lat="39.9678650" lon="-4.5576980">
        <ele>493.0</ele>
        <time>2022-03-01T14:28:55Z</time>
      </trkpt>
      <trkpt lat="39.9680050" lon="-4.5576630">
        <ele>493.0</ele>
        <time>2022-03-01T14:28:56Z</time>
      </trkpt>
      <trkpt lat="39.9680050" lon="-4.5576630">
        <ele>493.0</ele>
        <time>2022-03-01T14:28:57Z</time>
      </trkpt>
      <trkpt lat="39.9681500" lon="-4.5576300">
        <ele>493.0</ele>
        <time>2022-03-01T14:28:58Z</time>
      </trkpt>
      <trkpt lat="39.9681500" lon="-4.5576300">
        <ele>494.0</ele>
        <time>2022-03-01T14:28:59Z</time>
      </trkpt>
      <trkpt lat="39.9683000" lon="-4.5575970">
        <ele>494.0</ele>
        <time>2022-03-01T14:29:00Z</time>
      </trkpt>
      <trkpt lat="39.9683000" lon="-4.5575970">
        <ele>494.0</ele>
        <time>2022-03-01T14:29:01Z</time>
      </trkpt>
      <trkpt lat="39.9684500" lon="-4.5575600">
        <ele>494.0</ele>
        <time>2022-03-01T14:29:02Z</time>
      </trkpt>
      <trkpt lat="39.9685270" lon="-4.5575420">
        <ele>494.0</ele>
        <time>2022-03-01T14:29:03Z</time>
      </trkpt>
      <trkpt lat="39.9685270" lon="-4.5575420">
        <ele>494.0</ele>
        <time>2022-03-01T14:29:04Z</time>
      </trkpt>
      <trkpt lat="39.9686800" lon="-4.5575100">
        <ele>494.0</ele>
        <time>2022-03-01T14:29:05Z</time>
      </trkpt>
      <trkpt lat="39.9686800" lon="-4.5575100">
        <ele>494.0</ele>
        <time>2022-03-01T14:29:06Z</time>
      </trkpt>
      <trkpt lat="39.9688400" lon="-4.5574820">
        <ele>493.0</ele>
        <time>2022-03-01T14:29:07Z</time>
      </trkpt>
      <trkpt lat="39.9689250" lon="-4.5574680">
        <ele>493.0</ele>
        <time>2022-03-01T14:29:08Z</time>
      </trkpt>
      <trkpt lat="39.9690080" lon="-4.5574550">
        <ele>493.0</ele>
        <time>2022-03-01T14:29:09Z</time>
      </trkpt>
      <trkpt lat="39.9690080" lon="-4.5574550">
        <ele>493.0</ele>
        <time>2022-03-01T14:29:10Z</time>
      </trkpt>
      <trkpt lat="39.9691800" lon="-4.5574300">
        <ele>492.0</ele>
        <time>2022-03-01T14:29:11Z</time>
      </trkpt>
      <trkpt lat="39.9691800" lon="-4.5574300">
        <ele>492.0</ele>
        <time>2022-03-01T14:29:12Z</time>
      </trkpt>
      <trkpt lat="39.9693580" lon="-4.5574130">
        <ele>492.0</ele>
        <time>2022-03-01T14:29:13Z</time>
      </trkpt>
      <trkpt lat="39.9693580" lon="-4.5574130">
        <ele>492.0</ele>
        <time>2022-03-01T14:29:14Z</time>
      </trkpt>
      <trkpt lat="39.9695420" lon="-4.5574120">
        <ele>491.0</ele>
        <time>2022-03-01T14:29:15Z</time>
      </trkpt>
      <trkpt lat="39.9696330" lon="-4.5574180">
        <ele>491.0</ele>
        <time>2022-03-01T14:29:16Z</time>
      </trkpt>
      <trkpt lat="39.9696330" lon="-4.5574180">
        <ele>491.0</ele>
        <time>2022-03-01T14:29:17Z</time>
      </trkpt>
      <trkpt lat="39.9698230" lon="-4.5574470">
        <ele>491.0</ele>
        <time>2022-03-01T14:29:18Z</time>
      </trkpt>
      <trkpt lat="39.9698230" lon="-4.5574470">
        <ele>489.0</ele>
        <time>2022-03-01T14:29:19Z</time>
      </trkpt>
      <trkpt lat="39.9700170" lon="-4.5574920">
        <ele>489.0</ele>
        <time>2022-03-01T14:29:20Z</time>
      </trkpt>
      <trkpt lat="39.9700170" lon="-4.5574920">
        <ele>487.0</ele>
        <time>2022-03-01T14:29:21Z</time>
      </trkpt>
      <trkpt lat="39.9702070" lon="-4.5575620">
        <ele>486.0</ele>
        <time>2022-03-01T14:29:22Z</time>
      </trkpt>
      <trkpt lat="39.9702070" lon="-4.5575620">
        <ele>486.0</ele>
        <time>2022-03-01T14:29:23Z</time>
      </trkpt>
      <trkpt lat="39.9703930" lon="-4.5576500">
        <ele>485.0</ele>
        <time>2022-03-01T14:29:24Z</time>
      </trkpt>
      <trkpt lat="39.9703930" lon="-4.5576500">
        <ele>485.0</ele>
        <time>2022-03-01T14:29:25Z</time>
      </trkpt>
      <trkpt lat="39.9705750" lon="-4.5577580">
        <ele>484.0</ele>
        <time>2022-03-01T14:29:26Z</time>
      </trkpt>
      <trkpt lat="39.9705750" lon="-4.5577580">
        <ele>484.0</ele>
        <time>2022-03-01T14:29:27Z</time>
      </trkpt>
      <trkpt lat="39.9707550" lon="-4.5578730">
        <ele>483.0</ele>
        <time>2022-03-01T14:29:28Z</time>
      </trkpt>
      <trkpt lat="39.9707550" lon="-4.5578730">
        <ele>483.0</ele>
        <time>2022-03-01T14:29:29Z</time>
      </trkpt>
      <trkpt lat="39.9709330" lon="-4.5579900">
        <ele>482.0</ele>
        <time>2022-03-01T14:29:30Z</time>
      </trkpt>
      <trkpt lat="39.9709330" lon="-4.5579900">
        <ele>482.0</ele>
        <time>2022-03-01T14:29:31Z</time>
      </trkpt>
      <trkpt lat="39.9711100" lon="-4.5581070">
        <ele>481.0</ele>
        <time>2022-03-01T14:29:32Z</time>
      </trkpt>
      <trkpt lat="39.9711980" lon="-4.5581650">
        <ele>481.0</ele>
        <time>2022-03-01T14:29:33Z</time>
      </trkpt>
      <trkpt lat="39.9712870" lon="-4.5582220">
        <ele>481.0</ele>
        <time>2022-03-01T14:29:34Z</time>
      </trkpt>
      <trkpt lat="39.9712870" lon="-4.5582220">
        <ele>481.0</ele>
        <time>2022-03-01T14:29:35Z</time>
      </trkpt>
      <trkpt lat="39.9714620" lon="-4.5583320">
        <ele>481.0</ele>
        <time>2022-03-01T14:29:36Z</time>
      </trkpt>
      <trkpt lat="39.9714620" lon="-4.5583320">
        <ele>481.0</ele>
        <time>2022-03-01T14:29:37Z</time>
      </trkpt>
      <trkpt lat="39.9716330" lon="-4.5584450">
        <ele>480.0</ele>
        <time>2022-03-01T14:29:38Z</time>
      </trkpt>
      <trkpt lat="39.9716330" lon="-4.5584450">
        <ele>480.0</ele>
        <time>2022-03-01T14:29:39Z</time>
      </trkpt>
      <trkpt lat="39.9718050" lon="-4.5585570">
        <ele>480.0</ele>
        <time>2022-03-01T14:29:40Z</time>
      </trkpt>
      <trkpt lat="39.9718050" lon="-4.5585570">
        <ele>480.0</ele>
        <time>2022-03-01T14:29:41Z</time>
      </trkpt>
      <trkpt lat="39.9719720" lon="-4.5586670">
        <ele>479.0</ele>
        <time>2022-03-01T14:29:42Z</time>
      </trkpt>
      <trkpt lat="39.9720550" lon="-4.5587180">
        <ele>479.0</ele>
        <time>2022-03-01T14:29:43Z</time>
      </trkpt>
      <trkpt lat="39.9720550" lon="-4.5587180">
        <ele>479.0</ele>
        <time>2022-03-01T14:29:44Z</time>
      </trkpt>
      <trkpt lat="39.9722200" lon="-4.5588220">
        <ele>479.0</ele>
        <time>2022-03-01T14:29:45Z</time>
      </trkpt>
      <trkpt lat="39.9723000" lon="-4.5588730">
        <ele>479.0</ele>
        <time>2022-03-01T14:29:46Z</time>
      </trkpt>
      <trkpt lat="39.9723000" lon="-4.5588730">
        <ele>479.0</ele>
        <time>2022-03-01T14:29:47Z</time>
      </trkpt>
      <trkpt lat="39.9724600" lon="-4.5589770">
        <ele>479.0</ele>
        <time>2022-03-01T14:29:48Z</time>
      </trkpt>
      <trkpt lat="39.9724600" lon="-4.5589770">
        <ele>479.0</ele>
        <time>2022-03-01T14:29:49Z</time>
      </trkpt>
      <trkpt lat="39.9726180" lon="-4.5590770">
        <ele>479.0</ele>
        <time>2022-03-01T14:29:50Z</time>
      </trkpt>
      <trkpt lat="39.9726180" lon="-4.5590770">
        <ele>479.0</ele>
        <time>2022-03-01T14:29:51Z</time>
      </trkpt>
      <trkpt lat="39.9727750" lon="-4.5591730">
        <ele>479.0</ele>
        <time>2022-03-01T14:29:52Z</time>
      </trkpt>
      <trkpt lat="39.9727750" lon="-4.5591730">
        <ele>479.0</ele>
        <time>2022-03-01T14:29:53Z</time>
      </trkpt>
      <trkpt lat="39.9729280" lon="-4.5592720">
        <ele>477.0</ele>
        <time>2022-03-01T14:29:54Z</time>
      </trkpt>
      <trkpt lat="39.9729280" lon="-4.5592720">
        <ele>477.0</ele>
        <time>2022-03-01T14:29:55Z</time>
      </trkpt>
      <trkpt lat="39.9730780" lon="-4.5593680">
        <ele>477.0</ele>
        <time>2022-03-01T14:29:56Z</time>
      </trkpt>
      <trkpt lat="39.9730780" lon="-4.5593680">
        <ele>477.0</ele>
        <time>2022-03-01T14:29:57Z</time>
      </trkpt>
      <trkpt lat="39.9732230" lon="-4.5594620">
        <ele>477.0</ele>
        <time>2022-03-01T14:29:58Z</time>
      </trkpt>
      <trkpt lat="39.9732230" lon="-4.5594620">
        <ele>477.0</ele>
        <time>2022-03-01T14:29:59Z</time>
      </trkpt>
      <trkpt lat="39.9733650" lon="-4.5595520">
        <ele>477.0</ele>
        <time>2022-03-01T14:30:00Z</time>
      </trkpt>
      <trkpt lat="39.9733650" lon="-4.5595520">
        <ele>477.0</ele>
        <time>2022-03-01T14:30:01Z</time>
      </trkpt>
      <trkpt lat="39.9735020" lon="-4.5596380">
        <ele>477.0</ele>
        <time>2022-03-01T14:30:02Z</time>
      </trkpt>
      <trkpt lat="39.9735700" lon="-4.5596820">
        <ele>477.0</ele>
        <time>2022-03-01T14:30:03Z</time>
      </trkpt>
      <trkpt lat="39.9736370" lon="-4.5597230">
        <ele>478.0</ele>
        <time>2022-03-01T14:30:04Z</time>
      </trkpt>
      <trkpt lat="39.9737030" lon="-4.5597650">
        <ele>478.0</ele>
        <time>2022-03-01T14:30:05Z</time>
      </trkpt>
      <trkpt lat="39.9737680" lon="-4.5598070">
        <ele>478.0</ele>
        <time>2022-03-01T14:30:06Z</time>
      </trkpt>
      <trkpt lat="39.9737680" lon="-4.5598070">
        <ele>478.0</ele>
        <time>2022-03-01T14:30:07Z</time>
      </trkpt>
      <trkpt lat="39.9738980" lon="-4.5598900">
        <ele>478.0</ele>
        <time>2022-03-01T14:30:08Z</time>
      </trkpt>
      <trkpt lat="39.9738980" lon="-4.5598900">
        <ele>478.0</ele>
        <time>2022-03-01T14:30:09Z</time>
      </trkpt>
      <trkpt lat="39.9740270" lon="-4.5599750">
        <ele>478.0</ele>
        <time>2022-03-01T14:30:10Z</time>
      </trkpt>
      <trkpt lat="39.9740270" lon="-4.5599750">
        <ele>478.0</ele>
        <time>2022-03-01T14:30:11Z</time>
      </trkpt>
      <trkpt lat="39.9741550" lon="-4.5600530">
        <ele>478.0</ele>
        <time>2022-03-01T14:30:12Z</time>
      </trkpt>
      <trkpt lat="39.9741550" lon="-4.5600530">
        <ele>478.0</ele>
        <time>2022-03-01T14:30:13Z</time>
      </trkpt>
      <trkpt lat="39.9742820" lon="-4.5601350">
        <ele>479.0</ele>
        <time>2022-03-01T14:30:14Z</time>
      </trkpt>
      <trkpt lat="39.9742820" lon="-4.5601350">
        <ele>479.0</ele>
        <time>2022-03-01T14:30:15Z</time>
      </trkpt>
      <trkpt lat="39.9744070" lon="-4.5602170">
        <ele>479.0</ele>
        <time>2022-03-01T14:30:16Z</time>
      </trkpt>
      <trkpt lat="39.9744670" lon="-4.5602550">
        <ele>479.0</ele>
        <time>2022-03-01T14:30:17Z</time>
      </trkpt>
      <trkpt lat="39.9744670" lon="-4.5602550">
        <ele>479.0</ele>
        <time>2022-03-01T14:30:18Z</time>
      </trkpt>
      <trkpt lat="39.9745880" lon="-4.5603350">
        <ele>479.0</ele>
        <time>2022-03-01T14:30:19Z</time>
      </trkpt>
      <trkpt lat="39.9745880" lon="-4.5603350">
        <ele>479.0</ele>
        <time>2022-03-01T14:30:20Z</time>
      </trkpt>
      <trkpt lat="39.9747070" lon="-4.5604100">
        <ele>479.0</ele>
        <time>2022-03-01T14:30:21Z</time>
      </trkpt>
      <trkpt lat="39.9747650" lon="-4.5604470">
        <ele>479.0</ele>
        <time>2022-03-01T14:30:22Z</time>
      </trkpt>
      <trkpt lat="39.9747650" lon="-4.5604470">
        <ele>480.0</ele>
        <time>2022-03-01T14:30:23Z</time>
      </trkpt>
      <trkpt lat="39.9748820" lon="-4.5605220">
        <ele>480.0</ele>
        <time>2022-03-01T14:30:24Z</time>
      </trkpt>
      <trkpt lat="39.9748820" lon="-4.5605220">
        <ele>480.0</ele>
        <time>2022-03-01T14:30:25Z</time>
      </trkpt>
      <trkpt lat="39.9749970" lon="-4.5605950">
        <ele>480.0</ele>
        <time>2022-03-01T14:30:26Z</time>
      </trkpt>
      <trkpt lat="39.9749970" lon="-4.5605950">
        <ele>480.0</ele>
        <time>2022-03-01T14:30:27Z</time>
      </trkpt>
      <trkpt lat="39.9751050" lon="-4.5606580">
        <ele>480.0</ele>
        <time>2022-03-01T14:30:28Z</time>
      </trkpt>
      <trkpt lat="39.9751050" lon="-4.5606580">
        <ele>480.0</ele>
        <time>2022-03-01T14:30:29Z</time>
      </trkpt>
      <trkpt lat="39.9752120" lon="-4.5607280">
        <ele>480.0</ele>
        <time>2022-03-01T14:30:30Z</time>
      </trkpt>
      <trkpt lat="39.9752120" lon="-4.5607280">
        <ele>481.0</ele>
        <time>2022-03-01T14:30:31Z</time>
      </trkpt>
      <trkpt lat="39.9753220" lon="-4.5607980">
        <ele>481.0</ele>
        <time>2022-03-01T14:30:32Z</time>
      </trkpt>
      <trkpt lat="39.9753220" lon="-4.5607980">
        <ele>481.0</ele>
        <time>2022-03-01T14:30:33Z</time>
      </trkpt>
      <trkpt lat="39.9754300" lon="-4.5608630">
        <ele>481.0</ele>
        <time>2022-03-01T14:30:34Z</time>
      </trkpt>
      <trkpt lat="39.9754300" lon="-4.5608630">
        <ele>481.0</ele>
        <time>2022-03-01T14:30:35Z</time>
      </trkpt>
      <trkpt lat="39.9755380" lon="-4.5609320">
        <ele>482.0</ele>
        <time>2022-03-01T14:30:36Z</time>
      </trkpt>
      <trkpt lat="39.9755380" lon="-4.5609320">
        <ele>482.0</ele>
        <time>2022-03-01T14:30:37Z</time>
      </trkpt>
      <trkpt lat="39.9756470" lon="-4.5609980">
        <ele>482.0</ele>
        <time>2022-03-01T14:30:38Z</time>
      </trkpt>
      <trkpt lat="39.9756470" lon="-4.5609980">
        <ele>482.0</ele>
        <time>2022-03-01T14:30:39Z</time>
      </trkpt>
      <trkpt lat="39.9757520" lon="-4.5610650">
        <ele>483.0</ele>
        <time>2022-03-01T14:30:40Z</time>
      </trkpt>
      <trkpt lat="39.9757520" lon="-4.5610650">
        <ele>483.0</ele>
        <time>2022-03-01T14:30:41Z</time>
      </trkpt>
      <trkpt lat="39.9758570" lon="-4.5611320">
        <ele>483.0</ele>
        <time>2022-03-01T14:30:42Z</time>
      </trkpt>
      <trkpt lat="39.9758570" lon="-4.5611320">
        <ele>483.0</ele>
        <time>2022-03-01T14:30:43Z</time>
      </trkpt>
      <trkpt lat="39.9759600" lon="-4.5611970">
        <ele>484.0</ele>
        <time>2022-03-01T14:30:44Z</time>
      </trkpt>
      <trkpt lat="39.9759600" lon="-4.5611970">
        <ele>484.0</ele>
        <time>2022-03-01T14:30:45Z</time>
      </trkpt>
      <trkpt lat="39.9760650" lon="-4.5612630">
        <ele>484.0</ele>
        <time>2022-03-01T14:30:46Z</time>
      </trkpt>
      <trkpt lat="39.9760650" lon="-4.5612630">
        <ele>484.0</ele>
        <time>2022-03-01T14:30:47Z</time>
      </trkpt>
      <trkpt lat="39.9761700" lon="-4.5613320">
        <ele>485.0</ele>
        <time>2022-03-01T14:30:48Z</time>
      </trkpt>
      <trkpt lat="39.9761700" lon="-4.5613320">
        <ele>485.0</ele>
        <time>2022-03-01T14:30:49Z</time>
      </trkpt>
      <trkpt lat="39.9762750" lon="-4.5613970">
        <ele>485.0</ele>
        <time>2022-03-01T14:30:50Z</time>
      </trkpt>
      <trkpt lat="39.9762750" lon="-4.5613970">
        <ele>485.0</ele>
        <time>2022-03-01T14:30:51Z</time>
      </trkpt>
      <trkpt lat="39.9763780" lon="-4.5614650">
        <ele>485.0</ele>
        <time>2022-03-01T14:30:52Z</time>
      </trkpt>
      <trkpt lat="39.9764300" lon="-4.5614980">
        <ele>485.0</ele>
        <time>2022-03-01T14:30:53Z</time>
      </trkpt>
      <trkpt lat="39.9764300" lon="-4.5614980">
        <ele>486.0</ele>
        <time>2022-03-01T14:30:54Z</time>
      </trkpt>
      <trkpt lat="39.9765350" lon="-4.5615670">
        <ele>486.0</ele>
        <time>2022-03-01T14:30:55Z</time>
      </trkpt>
      <trkpt lat="39.9765350" lon="-4.5615670">
        <ele>487.0</ele>
        <time>2022-03-01T14:30:56Z</time>
      </trkpt>
      <trkpt lat="39.9766380" lon="-4.5616380">
        <ele>487.0</ele>
        <time>2022-03-01T14:30:57Z</time>
      </trkpt>
      <trkpt lat="39.9766920" lon="-4.5616770">
        <ele>487.0</ele>
        <time>2022-03-01T14:30:58Z</time>
      </trkpt>
      <trkpt lat="39.9767430" lon="-4.5617130">
        <ele>487.0</ele>
        <time>2022-03-01T14:30:59Z</time>
      </trkpt>
      <trkpt lat="39.9767950" lon="-4.5617550">
        <ele>487.0</ele>
        <time>2022-03-01T14:31:00Z</time>
      </trkpt>
      <trkpt lat="39.9767950" lon="-4.5617550">
        <ele>487.0</ele>
        <time>2022-03-01T14:31:01Z</time>
      </trkpt>
      <trkpt lat="39.9768950" lon="-4.5618370">
        <ele>487.0</ele>
        <time>2022-03-01T14:31:02Z</time>
      </trkpt>
      <trkpt lat="39.9768950" lon="-4.5618370">
        <ele>487.0</ele>
        <time>2022-03-01T14:31:03Z</time>
      </trkpt>
      <trkpt lat="39.9769930" lon="-4.5619270">
        <ele>488.0</ele>
        <time>2022-03-01T14:31:04Z</time>
      </trkpt>
      <trkpt lat="39.9769930" lon="-4.5619270">
        <ele>488.0</ele>
        <time>2022-03-01T14:31:05Z</time>
      </trkpt>
      <trkpt lat="39.9770900" lon="-4.5620250">
        <ele>488.0</ele>
        <time>2022-03-01T14:31:06Z</time>
      </trkpt>
      <trkpt lat="39.9771350" lon="-4.5620750">
        <ele>488.0</ele>
        <time>2022-03-01T14:31:07Z</time>
      </trkpt>
      <trkpt lat="39.9771820" lon="-4.5621280">
        <ele>488.0</ele>
        <time>2022-03-01T14:31:08Z</time>
      </trkpt>
      <trkpt lat="39.9771820" lon="-4.5621280">
        <ele>488.0</ele>
        <time>2022-03-01T14:31:09Z</time>
      </trkpt>
      <trkpt lat="39.9772720" lon="-4.5622350">
        <ele>488.0</ele>
        <time>2022-03-01T14:31:10Z</time>
      </trkpt>
      <trkpt lat="39.9772720" lon="-4.5622350">
        <ele>488.0</ele>
        <time>2022-03-01T14:31:11Z</time>
      </trkpt>
      <trkpt lat="39.9773550" lon="-4.5623500">
        <ele>488.0</ele>
        <time>2022-03-01T14:31:12Z</time>
      </trkpt>
      <trkpt lat="39.9773550" lon="-4.5623500">
        <ele>488.0</ele>
        <time>2022-03-01T14:31:13Z</time>
      </trkpt>
      <trkpt lat="39.9774350" lon="-4.5624700">
        <ele>488.0</ele>
        <time>2022-03-01T14:31:14Z</time>
      </trkpt>
      <trkpt lat="39.9774720" lon="-4.5625330">
        <ele>488.0</ele>
        <time>2022-03-01T14:31:15Z</time>
      </trkpt>
      <trkpt lat="39.9775070" lon="-4.5625950">
        <ele>488.0</ele>
        <time>2022-03-01T14:31:16Z</time>
      </trkpt>
      <trkpt lat="39.9775070" lon="-4.5625950">
        <ele>488.0</ele>
        <time>2022-03-01T14:31:17Z</time>
      </trkpt>
      <trkpt lat="39.9775770" lon="-4.5627230">
        <ele>488.0</ele>
        <time>2022-03-01T14:31:18Z</time>
      </trkpt>
      <trkpt lat="39.9775770" lon="-4.5627230">
        <ele>488.0</ele>
        <time>2022-03-01T14:31:19Z</time>
      </trkpt>
      <trkpt lat="39.9776430" lon="-4.5628530">
        <ele>488.0</ele>
        <time>2022-03-01T14:31:20Z</time>
      </trkpt>
      <trkpt lat="39.9776430" lon="-4.5628530">
        <ele>488.0</ele>
        <time>2022-03-01T14:31:21Z</time>
      </trkpt>
      <trkpt lat="39.9777080" lon="-4.5629880">
        <ele>488.0</ele>
        <time>2022-03-01T14:31:22Z</time>
      </trkpt>
      <trkpt lat="39.9777080" lon="-4.5629880">
        <ele>488.0</ele>
        <time>2022-03-01T14:31:23Z</time>
      </trkpt>
      <trkpt lat="39.9777700" lon="-4.5631250">
        <ele>488.0</ele>
        <time>2022-03-01T14:31:24Z</time>
      </trkpt>
      <trkpt lat="39.9777700" lon="-4.5631250">
        <ele>488.0</ele>
        <time>2022-03-01T14:31:25Z</time>
      </trkpt>
      <trkpt lat="39.9778330" lon="-4.5632600">
        <ele>488.0</ele>
        <time>2022-03-01T14:31:26Z</time>
      </trkpt>
      <trkpt lat="39.9778670" lon="-4.5633270">
        <ele>488.0</ele>
        <time>2022-03-01T14:31:27Z</time>
      </trkpt>
      <trkpt lat="39.9778670" lon="-4.5633270">
        <ele>488.0</ele>
        <time>2022-03-01T14:31:28Z</time>
      </trkpt>
      <trkpt lat="39.9779300" lon="-4.5634650">
        <ele>488.0</ele>
        <time>2022-03-01T14:31:29Z</time>
      </trkpt>
      <trkpt lat="39.9779300" lon="-4.5634650">
        <ele>488.0</ele>
        <time>2022-03-01T14:31:30Z</time>
      </trkpt>
      <trkpt lat="39.9779950" lon="-4.5636050">
        <ele>488.0</ele>
        <time>2022-03-01T14:31:31Z</time>
      </trkpt>
      <trkpt lat="39.9779950" lon="-4.5636050">
        <ele>488.0</ele>
        <time>2022-03-01T14:31:32Z</time>
      </trkpt>
      <trkpt lat="39.9780600" lon="-4.5637500">
        <ele>488.0</ele>
        <time>2022-03-01T14:31:33Z</time>
      </trkpt>
      <trkpt lat="39.9780920" lon="-4.5638220">
        <ele>488.0</ele>
        <time>2022-03-01T14:31:34Z</time>
      </trkpt>
      <trkpt lat="39.9780920" lon="-4.5638220">
        <ele>488.0</ele>
        <time>2022-03-01T14:31:35Z</time>
      </trkpt>
      <trkpt lat="39.9781550" lon="-4.5639650">
        <ele>488.0</ele>
        <time>2022-03-01T14:31:36Z</time>
      </trkpt>
      <trkpt lat="39.9781550" lon="-4.5639650">
        <ele>488.0</ele>
        <time>2022-03-01T14:31:37Z</time>
      </trkpt>
      <trkpt lat="39.9782230" lon="-4.5641130">
        <ele>488.0</ele>
        <time>2022-03-01T14:31:38Z</time>
      </trkpt>
      <trkpt lat="39.9782580" lon="-4.5641900">
        <ele>488.0</ele>
        <time>2022-03-01T14:31:39Z</time>
      </trkpt>
      <trkpt lat="39.9782930" lon="-4.5642650">
        <ele>488.0</ele>
        <time>2022-03-01T14:31:40Z</time>
      </trkpt>
      <trkpt lat="39.9783280" lon="-4.5643430">
        <ele>488.0</ele>
        <time>2022-03-01T14:31:41Z</time>
      </trkpt>
      <trkpt lat="39.9783280" lon="-4.5643430">
        <ele>488.0</ele>
        <time>2022-03-01T14:31:42Z</time>
      </trkpt>
      <trkpt lat="39.9783970" lon="-4.5644980">
        <ele>488.0</ele>
        <time>2022-03-01T14:31:43Z</time>
      </trkpt>
      <trkpt lat="39.9783970" lon="-4.5644980">
        <ele>488.0</ele>
        <time>2022-03-01T14:31:44Z</time>
      </trkpt>
      <trkpt lat="39.9784720" lon="-4.5646580">
        <ele>488.0</ele>
        <time>2022-03-01T14:31:45Z</time>
      </trkpt>
      <trkpt lat="39.9785080" lon="-4.5647400">
        <ele>488.0</ele>
        <time>2022-03-01T14:31:46Z</time>
      </trkpt>
      <trkpt lat="39.9785080" lon="-4.5647400">
        <ele>488.0</ele>
        <time>2022-03-01T14:31:47Z</time>
      </trkpt>
      <trkpt lat="39.9785830" lon="-4.5649050">
        <ele>487.0</ele>
        <time>2022-03-01T14:31:48Z</time>
      </trkpt>
      <trkpt lat="39.9785830" lon="-4.5649050">
        <ele>487.0</ele>
        <time>2022-03-01T14:31:49Z</time>
      </trkpt>
      <trkpt lat="39.9786570" lon="-4.5650700">
        <ele>487.0</ele>
        <time>2022-03-01T14:31:50Z</time>
      </trkpt>
      <trkpt lat="39.9786950" lon="-4.5651520">
        <ele>487.0</ele>
        <time>2022-03-01T14:31:51Z</time>
      </trkpt>
      <trkpt lat="39.9786950" lon="-4.5651520">
        <ele>487.0</ele>
        <time>2022-03-01T14:31:52Z</time>
      </trkpt>
      <trkpt lat="39.9787730" lon="-4.5653180">
        <ele>487.0</ele>
        <time>2022-03-01T14:31:53Z</time>
      </trkpt>
      <trkpt lat="39.9787730" lon="-4.5653180">
        <ele>485.0</ele>
        <time>2022-03-01T14:31:54Z</time>
      </trkpt>
      <trkpt lat="39.9788480" lon="-4.5654830">
        <ele>485.0</ele>
        <time>2022-03-01T14:31:55Z</time>
      </trkpt>
      <trkpt lat="39.9788480" lon="-4.5654830">
        <ele>485.0</ele>
        <time>2022-03-01T14:31:56Z</time>
      </trkpt>
      <trkpt lat="39.9789230" lon="-4.5656470">
        <ele>485.0</ele>
        <time>2022-03-01T14:31:57Z</time>
      </trkpt>
      <trkpt lat="39.9789630" lon="-4.5657270">
        <ele>484.0</ele>
        <time>2022-03-01T14:31:58Z</time>
      </trkpt>
      <trkpt lat="39.9789630" lon="-4.5657270">
        <ele>484.0</ele>
        <time>2022-03-01T14:31:59Z</time>
      </trkpt>
      <trkpt lat="39.9790370" lon="-4.5658920">
        <ele>484.0</ele>
        <time>2022-03-01T14:32:00Z</time>
      </trkpt>
      <trkpt lat="39.9790370" lon="-4.5658920">
        <ele>484.0</ele>
        <time>2022-03-01T14:32:01Z</time>
      </trkpt>
      <trkpt lat="39.9791130" lon="-4.5660530">
        <ele>484.0</ele>
        <time>2022-03-01T14:32:02Z</time>
      </trkpt>
      <trkpt lat="39.9791130" lon="-4.5660530">
        <ele>484.0</ele>
        <time>2022-03-01T14:32:03Z</time>
      </trkpt>
      <trkpt lat="39.9791880" lon="-4.5662150">
        <ele>484.0</ele>
        <time>2022-03-01T14:32:04Z</time>
      </trkpt>
      <trkpt lat="39.9791880" lon="-4.5662150">
        <ele>484.0</ele>
        <time>2022-03-01T14:32:05Z</time>
      </trkpt>
      <trkpt lat="39.9792670" lon="-4.5663780">
        <ele>484.0</ele>
        <time>2022-03-01T14:32:06Z</time>
      </trkpt>
      <trkpt lat="39.9792670" lon="-4.5663780">
        <ele>484.0</ele>
        <time>2022-03-01T14:32:07Z</time>
      </trkpt>
      <trkpt lat="39.9793430" lon="-4.5665420">
        <ele>484.0</ele>
        <time>2022-03-01T14:32:08Z</time>
      </trkpt>
      <trkpt lat="39.9793430" lon="-4.5665420">
        <ele>484.0</ele>
        <time>2022-03-01T14:32:09Z</time>
      </trkpt>
      <trkpt lat="39.9794220" lon="-4.5667070">
        <ele>483.0</ele>
        <time>2022-03-01T14:32:10Z</time>
      </trkpt>
      <trkpt lat="39.9794220" lon="-4.5667070">
        <ele>483.0</ele>
        <time>2022-03-01T14:32:11Z</time>
      </trkpt>
      <trkpt lat="39.9794970" lon="-4.5668700">
        <ele>483.0</ele>
        <time>2022-03-01T14:32:12Z</time>
      </trkpt>
      <trkpt lat="39.9795350" lon="-4.5669520">
        <ele>483.0</ele>
        <time>2022-03-01T14:32:13Z</time>
      </trkpt>
      <trkpt lat="39.9795350" lon="-4.5669520">
        <ele>483.0</ele>
        <time>2022-03-01T14:32:14Z</time>
      </trkpt>
      <trkpt lat="39.9796130" lon="-4.5671170">
        <ele>483.0</ele>
        <time>2022-03-01T14:32:15Z</time>
      </trkpt>
      <trkpt lat="39.9796520" lon="-4.5671980">
        <ele>483.0</ele>
        <time>2022-03-01T14:32:16Z</time>
      </trkpt>
      <trkpt lat="39.9796520" lon="-4.5671980">
        <ele>483.0</ele>
        <time>2022-03-01T14:32:17Z</time>
      </trkpt>
      <trkpt lat="39.9797280" lon="-4.5673670">
        <ele>483.0</ele>
        <time>2022-03-01T14:32:18Z</time>
      </trkpt>
      <trkpt lat="39.9797280" lon="-4.5673670">
        <ele>483.0</ele>
        <time>2022-03-01T14:32:19Z</time>
      </trkpt>
      <trkpt lat="39.9798070" lon="-4.5675370">
        <ele>483.0</ele>
        <time>2022-03-01T14:32:20Z</time>
      </trkpt>
      <trkpt lat="39.9798070" lon="-4.5675370">
        <ele>483.0</ele>
        <time>2022-03-01T14:32:21Z</time>
      </trkpt>
      <trkpt lat="39.9798870" lon="-4.5677050">
        <ele>483.0</ele>
        <time>2022-03-01T14:32:22Z</time>
      </trkpt>
      <trkpt lat="39.9798870" lon="-4.5677050">
        <ele>483.0</ele>
        <time>2022-03-01T14:32:23Z</time>
      </trkpt>
      <trkpt lat="39.9799670" lon="-4.5678750">
        <ele>482.0</ele>
        <time>2022-03-01T14:32:24Z</time>
      </trkpt>
      <trkpt lat="39.9799670" lon="-4.5678750">
        <ele>482.0</ele>
        <time>2022-03-01T14:32:25Z</time>
      </trkpt>
      <trkpt lat="39.9800470" lon="-4.5680450">
        <ele>482.0</ele>
        <time>2022-03-01T14:32:26Z</time>
      </trkpt>
      <trkpt lat="39.9800470" lon="-4.5680450">
        <ele>482.0</ele>
        <time>2022-03-01T14:32:27Z</time>
      </trkpt>
      <trkpt lat="39.9801280" lon="-4.5682170">
        <ele>482.0</ele>
        <time>2022-03-01T14:32:28Z</time>
      </trkpt>
      <trkpt lat="39.9801680" lon="-4.5683020">
        <ele>482.0</ele>
        <time>2022-03-01T14:32:29Z</time>
      </trkpt>
      <trkpt lat="39.9801680" lon="-4.5683020">
        <ele>482.0</ele>
        <time>2022-03-01T14:32:30Z</time>
      </trkpt>
      <trkpt lat="39.9802480" lon="-4.5684670">
        <ele>482.0</ele>
        <time>2022-03-01T14:32:31Z</time>
      </trkpt>
      <trkpt lat="39.9802480" lon="-4.5684670">
        <ele>481.0</ele>
        <time>2022-03-01T14:32:32Z</time>
      </trkpt>
      <trkpt lat="39.9803370" lon="-4.5686380">
        <ele>481.0</ele>
        <time>2022-03-01T14:32:33Z</time>
      </trkpt>
      <trkpt lat="39.9803370" lon="-4.5686380">
        <ele>481.0</ele>
        <time>2022-03-01T14:32:34Z</time>
      </trkpt>
      <trkpt lat="39.9804180" lon="-4.5688150">
        <ele>481.0</ele>
        <time>2022-03-01T14:32:35Z</time>
      </trkpt>
      <trkpt lat="39.9804180" lon="-4.5688150">
        <ele>481.0</ele>
        <time>2022-03-01T14:32:36Z</time>
      </trkpt>
      <trkpt lat="39.9805020" lon="-4.5689880">
        <ele>481.0</ele>
        <time>2022-03-01T14:32:37Z</time>
      </trkpt>
      <trkpt lat="39.9805430" lon="-4.5690750">
        <ele>481.0</ele>
        <time>2022-03-01T14:32:38Z</time>
      </trkpt>
      <trkpt lat="39.9805430" lon="-4.5690750">
        <ele>481.0</ele>
        <time>2022-03-01T14:32:39Z</time>
      </trkpt>
      <trkpt lat="39.9806250" lon="-4.5692480">
        <ele>481.0</ele>
        <time>2022-03-01T14:32:40Z</time>
      </trkpt>
      <trkpt lat="39.9806250" lon="-4.5692480">
        <ele>481.0</ele>
        <time>2022-03-01T14:32:41Z</time>
      </trkpt>
      <trkpt lat="39.9807030" lon="-4.5694220">
        <ele>481.0</ele>
        <time>2022-03-01T14:32:42Z</time>
      </trkpt>
      <trkpt lat="39.9807030" lon="-4.5694220">
        <ele>481.0</ele>
        <time>2022-03-01T14:32:43Z</time>
      </trkpt>
      <trkpt lat="39.9807830" lon="-4.5695950">
        <ele>480.0</ele>
        <time>2022-03-01T14:32:44Z</time>
      </trkpt>
      <trkpt lat="39.9807830" lon="-4.5695950">
        <ele>480.0</ele>
        <time>2022-03-01T14:32:45Z</time>
      </trkpt>
      <trkpt lat="39.9808650" lon="-4.5697680">
        <ele>480.0</ele>
        <time>2022-03-01T14:32:46Z</time>
      </trkpt>
      <trkpt lat="39.9808650" lon="-4.5697680">
        <ele>480.0</ele>
        <time>2022-03-01T14:32:47Z</time>
      </trkpt>
      <trkpt lat="39.9809430" lon="-4.5699420">
        <ele>479.0</ele>
        <time>2022-03-01T14:32:48Z</time>
      </trkpt>
      <trkpt lat="39.9809430" lon="-4.5699420">
        <ele>479.0</ele>
        <time>2022-03-01T14:32:49Z</time>
      </trkpt>
      <trkpt lat="39.9810250" lon="-4.5701150">
        <ele>479.0</ele>
        <time>2022-03-01T14:32:50Z</time>
      </trkpt>
      <trkpt lat="39.9810250" lon="-4.5701150">
        <ele>479.0</ele>
        <time>2022-03-01T14:32:51Z</time>
      </trkpt>
      <trkpt lat="39.9811030" lon="-4.5702870">
        <ele>479.0</ele>
        <time>2022-03-01T14:32:52Z</time>
      </trkpt>
      <trkpt lat="39.9811030" lon="-4.5702870">
        <ele>479.0</ele>
        <time>2022-03-01T14:32:53Z</time>
      </trkpt>
      <trkpt lat="39.9811800" lon="-4.5704470">
        <ele>479.0</ele>
        <time>2022-03-01T14:32:54Z</time>
      </trkpt>
      <trkpt lat="39.9812130" lon="-4.5705270">
        <ele>479.0</ele>
        <time>2022-03-01T14:32:55Z</time>
      </trkpt>
      <trkpt lat="39.9812480" lon="-4.5706050">
        <ele>479.0</ele>
        <time>2022-03-01T14:32:56Z</time>
      </trkpt>
      <trkpt lat="39.9812480" lon="-4.5706050">
        <ele>479.0</ele>
        <time>2022-03-01T14:32:57Z</time>
      </trkpt>
      <trkpt lat="39.9813100" lon="-4.5707570">
        <ele>479.0</ele>
        <time>2022-03-01T14:32:58Z</time>
      </trkpt>
      <trkpt lat="39.9813100" lon="-4.5707570">
        <ele>479.0</ele>
        <time>2022-03-01T14:32:59Z</time>
      </trkpt>
      <trkpt lat="39.9813780" lon="-4.5709000">
        <ele>479.0</ele>
        <time>2022-03-01T14:33:00Z</time>
      </trkpt>
      <trkpt lat="39.9813780" lon="-4.5709000">
        <ele>479.0</ele>
        <time>2022-03-01T14:33:01Z</time>
      </trkpt>
      <trkpt lat="39.9814470" lon="-4.5710430">
        <ele>479.0</ele>
        <time>2022-03-01T14:33:02Z</time>
      </trkpt>
      <trkpt lat="39.9814820" lon="-4.5711130">
        <ele>479.0</ele>
        <time>2022-03-01T14:33:03Z</time>
      </trkpt>
      <trkpt lat="39.9815170" lon="-4.5711850">
        <ele>479.0</ele>
        <time>2022-03-01T14:33:04Z</time>
      </trkpt>
      <trkpt lat="39.9815170" lon="-4.5711850">
        <ele>479.0</ele>
        <time>2022-03-01T14:33:05Z</time>
      </trkpt>
      <trkpt lat="39.9815880" lon="-4.5713320">
        <ele>479.0</ele>
        <time>2022-03-01T14:33:06Z</time>
      </trkpt>
      <trkpt lat="39.9815880" lon="-4.5713320">
        <ele>480.0</ele>
        <time>2022-03-01T14:33:07Z</time>
      </trkpt>
      <trkpt lat="39.9816620" lon="-4.5714720">
        <ele>480.0</ele>
        <time>2022-03-01T14:33:08Z</time>
      </trkpt>
      <trkpt lat="39.9816620" lon="-4.5714720">
        <ele>480.0</ele>
        <time>2022-03-01T14:33:09Z</time>
      </trkpt>
      <trkpt lat="39.9817380" lon="-4.5716120">
        <ele>480.0</ele>
        <time>2022-03-01T14:33:10Z</time>
      </trkpt>
      <trkpt lat="39.9817380" lon="-4.5716120">
        <ele>480.0</ele>
        <time>2022-03-01T14:33:11Z</time>
      </trkpt>
      <trkpt lat="39.9818170" lon="-4.5717500">
        <ele>480.0</ele>
        <time>2022-03-01T14:33:12Z</time>
      </trkpt>
      <trkpt lat="39.9818170" lon="-4.5717500">
        <ele>480.0</ele>
        <time>2022-03-01T14:33:13Z</time>
      </trkpt>
      <trkpt lat="39.9819080" lon="-4.5718900">
        <ele>480.0</ele>
        <time>2022-03-01T14:33:14Z</time>
      </trkpt>
      <trkpt lat="39.9819580" lon="-4.5719580">
        <ele>479.0</ele>
        <time>2022-03-01T14:33:15Z</time>
      </trkpt>
      <trkpt lat="39.9819580" lon="-4.5719580">
        <ele>479.0</ele>
        <time>2022-03-01T14:33:16Z</time>
      </trkpt>
      <trkpt lat="39.9820680" lon="-4.5721000">
        <ele>478.0</ele>
        <time>2022-03-01T14:33:17Z</time>
      </trkpt>
      <trkpt lat="39.9821220" lon="-4.5721750">
        <ele>478.0</ele>
        <time>2022-03-01T14:33:18Z</time>
      </trkpt>
      <trkpt lat="39.9821220" lon="-4.5721750">
        <ele>478.0</ele>
        <time>2022-03-01T14:33:19Z</time>
      </trkpt>
      <trkpt lat="39.9822280" lon="-4.5723300">
        <ele>478.0</ele>
        <time>2022-03-01T14:33:20Z</time>
      </trkpt>
      <trkpt lat="39.9822280" lon="-4.5723300">
        <ele>476.0</ele>
        <time>2022-03-01T14:33:21Z</time>
      </trkpt>
      <trkpt lat="39.9823350" lon="-4.5724850">
        <ele>476.0</ele>
        <time>2022-03-01T14:33:22Z</time>
      </trkpt>
      <trkpt lat="39.9823900" lon="-4.5725650">
        <ele>475.0</ele>
        <time>2022-03-01T14:33:23Z</time>
      </trkpt>
      <trkpt lat="39.9823900" lon="-4.5725650">
        <ele>475.0</ele>
        <time>2022-03-01T14:33:24Z</time>
      </trkpt>
      <trkpt lat="39.9825030" lon="-4.5727220">
        <ele>475.0</ele>
        <time>2022-03-01T14:33:25Z</time>
      </trkpt>
      <trkpt lat="39.9825620" lon="-4.5728020">
        <ele>475.0</ele>
        <time>2022-03-01T14:33:26Z</time>
      </trkpt>
      <trkpt lat="39.9825620" lon="-4.5728020">
        <ele>475.0</ele>
        <time>2022-03-01T14:33:27Z</time>
      </trkpt>
      <trkpt lat="39.9826770" lon="-4.5729650">
        <ele>475.0</ele>
        <time>2022-03-01T14:33:28Z</time>
      </trkpt>
      <trkpt lat="39.9826770" lon="-4.5729650">
        <ele>474.0</ele>
        <time>2022-03-01T14:33:29Z</time>
      </trkpt>
      <trkpt lat="39.9827880" lon="-4.5731230">
        <ele>474.0</ele>
        <time>2022-03-01T14:33:30Z</time>
      </trkpt>
      <trkpt lat="39.9827880" lon="-4.5731230">
        <ele>474.0</ele>
        <time>2022-03-01T14:33:31Z</time>
      </trkpt>
      <trkpt lat="39.9828970" lon="-4.5732800">
        <ele>474.0</ele>
        <time>2022-03-01T14:33:32Z</time>
      </trkpt>
      <trkpt lat="39.9829520" lon="-4.5733580">
        <ele>472.0</ele>
        <time>2022-03-01T14:33:33Z</time>
      </trkpt>
      <trkpt lat="39.9829520" lon="-4.5733580">
        <ele>472.0</ele>
        <time>2022-03-01T14:33:34Z</time>
      </trkpt>
      <trkpt lat="39.9830620" lon="-4.5735130">
        <ele>472.0</ele>
        <time>2022-03-01T14:33:35Z</time>
      </trkpt>
      <trkpt lat="39.9831200" lon="-4.5735880">
        <ele>472.0</ele>
        <time>2022-03-01T14:33:36Z</time>
      </trkpt>
      <trkpt lat="39.9831200" lon="-4.5735880">
        <ele>472.0</ele>
        <time>2022-03-01T14:33:37Z</time>
      </trkpt>
      <trkpt lat="39.9832330" lon="-4.5737350">
        <ele>472.0</ele>
        <time>2022-03-01T14:33:38Z</time>
      </trkpt>
      <trkpt lat="39.9832330" lon="-4.5737350">
        <ele>471.0</ele>
        <time>2022-03-01T14:33:39Z</time>
      </trkpt>
      <trkpt lat="39.9833430" lon="-4.5738870">
        <ele>471.0</ele>
        <time>2022-03-01T14:33:40Z</time>
      </trkpt>
      <trkpt lat="39.9833430" lon="-4.5738870">
        <ele>471.0</ele>
        <time>2022-03-01T14:33:41Z</time>
      </trkpt>
      <trkpt lat="39.9834530" lon="-4.5740330">
        <ele>471.0</ele>
        <time>2022-03-01T14:33:42Z</time>
      </trkpt>
      <trkpt lat="39.9835080" lon="-4.5741080">
        <ele>471.0</ele>
        <time>2022-03-01T14:33:43Z</time>
      </trkpt>
      <trkpt lat="39.9835080" lon="-4.5741080">
        <ele>471.0</ele>
        <time>2022-03-01T14:33:44Z</time>
      </trkpt>
      <trkpt lat="39.9836130" lon="-4.5742600">
        <ele>471.0</ele>
        <time>2022-03-01T14:33:45Z</time>
      </trkpt>
      <trkpt lat="39.9836650" lon="-4.5743380">
        <ele>471.0</ele>
        <time>2022-03-01T14:33:46Z</time>
      </trkpt>
      <trkpt lat="39.9836650" lon="-4.5743380">
        <ele>471.0</ele>
        <time>2022-03-01T14:33:47Z</time>
      </trkpt>
      <trkpt lat="39.9837720" lon="-4.5744900">
        <ele>471.0</ele>
        <time>2022-03-01T14:33:48Z</time>
      </trkpt>
      <trkpt lat="39.9837720" lon="-4.5744900">
        <ele>471.0</ele>
        <time>2022-03-01T14:33:49Z</time>
      </trkpt>
      <trkpt lat="39.9838750" lon="-4.5746430">
        <ele>471.0</ele>
        <time>2022-03-01T14:33:50Z</time>
      </trkpt>
      <trkpt lat="39.9838750" lon="-4.5746430">
        <ele>471.0</ele>
        <time>2022-03-01T14:33:51Z</time>
      </trkpt>
      <trkpt lat="39.9839820" lon="-4.5748000">
        <ele>471.0</ele>
        <time>2022-03-01T14:33:52Z</time>
      </trkpt>
      <trkpt lat="39.9840350" lon="-4.5748780">
        <ele>471.0</ele>
        <time>2022-03-01T14:33:53Z</time>
      </trkpt>
      <trkpt lat="39.9840880" lon="-4.5749570">
        <ele>470.0</ele>
        <time>2022-03-01T14:33:54Z</time>
      </trkpt>
      <trkpt lat="39.9840880" lon="-4.5749570">
        <ele>470.0</ele>
        <time>2022-03-01T14:33:55Z</time>
      </trkpt>
      <trkpt lat="39.9841970" lon="-4.5751130">
        <ele>470.0</ele>
        <time>2022-03-01T14:33:56Z</time>
      </trkpt>
      <trkpt lat="39.9841970" lon="-4.5751130">
        <ele>470.0</ele>
        <time>2022-03-01T14:33:57Z</time>
      </trkpt>
      <trkpt lat="39.9843070" lon="-4.5752670">
        <ele>469.0</ele>
        <time>2022-03-01T14:33:58Z</time>
      </trkpt>
      <trkpt lat="39.9843070" lon="-4.5752670">
        <ele>469.0</ele>
        <time>2022-03-01T14:33:59Z</time>
      </trkpt>
      <trkpt lat="39.9844170" lon="-4.5754170">
        <ele>469.0</ele>
        <time>2022-03-01T14:34:00Z</time>
      </trkpt>
      <trkpt lat="39.9844720" lon="-4.5754920">
        <ele>469.0</ele>
        <time>2022-03-01T14:34:01Z</time>
      </trkpt>
      <trkpt lat="39.9844720" lon="-4.5754920">
        <ele>469.0</ele>
        <time>2022-03-01T14:34:02Z</time>
      </trkpt>
      <trkpt lat="39.9845850" lon="-4.5756400">
        <ele>469.0</ele>
        <time>2022-03-01T14:34:03Z</time>
      </trkpt>
      <trkpt lat="39.9846420" lon="-4.5757150">
        <ele>469.0</ele>
        <time>2022-03-01T14:34:04Z</time>
      </trkpt>
      <trkpt lat="39.9846420" lon="-4.5757150">
        <ele>469.0</ele>
        <time>2022-03-01T14:34:05Z</time>
      </trkpt>
      <trkpt lat="39.9847550" lon="-4.5758650">
        <ele>469.0</ele>
        <time>2022-03-01T14:34:06Z</time>
      </trkpt>
      <trkpt lat="39.9847550" lon="-4.5758650">
        <ele>469.0</ele>
        <time>2022-03-01T14:34:07Z</time>
      </trkpt>
      <trkpt lat="39.9848700" lon="-4.5760180">
        <ele>469.0</ele>
        <time>2022-03-01T14:34:08Z</time>
      </trkpt>
      <trkpt lat="39.9848700" lon="-4.5760180">
        <ele>469.0</ele>
        <time>2022-03-01T14:34:09Z</time>
      </trkpt>
      <trkpt lat="39.9849820" lon="-4.5761680">
        <ele>468.0</ele>
        <time>2022-03-01T14:34:10Z</time>
      </trkpt>
      <trkpt lat="39.9849820" lon="-4.5761680">
        <ele>468.0</ele>
        <time>2022-03-01T14:34:11Z</time>
      </trkpt>
      <trkpt lat="39.9850950" lon="-4.5763200">
        <ele>468.0</ele>
        <time>2022-03-01T14:34:12Z</time>
      </trkpt>
      <trkpt lat="39.9851520" lon="-4.5763970">
        <ele>468.0</ele>
        <time>2022-03-01T14:34:13Z</time>
      </trkpt>
      <trkpt lat="39.9851520" lon="-4.5763970">
        <ele>468.0</ele>
        <time>2022-03-01T14:34:14Z</time>
      </trkpt>
      <trkpt lat="39.9852670" lon="-4.5765500">
        <ele>468.0</ele>
        <time>2022-03-01T14:34:15Z</time>
      </trkpt>
      <trkpt lat="39.9853230" lon="-4.5766270">
        <ele>468.0</ele>
        <time>2022-03-01T14:34:16Z</time>
      </trkpt>
      <trkpt lat="39.9853230" lon="-4.5766270">
        <ele>468.0</ele>
        <time>2022-03-01T14:34:17Z</time>
      </trkpt>
      <trkpt lat="39.9854350" lon="-4.5767800">
        <ele>468.0</ele>
        <time>2022-03-01T14:34:18Z</time>
      </trkpt>
      <trkpt lat="39.9854350" lon="-4.5767800">
        <ele>468.0</ele>
        <time>2022-03-01T14:34:19Z</time>
      </trkpt>
      <trkpt lat="39.9855480" lon="-4.5769330">
        <ele>468.0</ele>
        <time>2022-03-01T14:34:20Z</time>
      </trkpt>
      <trkpt lat="39.9856050" lon="-4.5770100">
        <ele>467.0</ele>
        <time>2022-03-01T14:34:21Z</time>
      </trkpt>
      <trkpt lat="39.9856050" lon="-4.5770100">
        <ele>467.0</ele>
        <time>2022-03-01T14:34:22Z</time>
      </trkpt>
      <trkpt lat="39.9857180" lon="-4.5771630">
        <ele>467.0</ele>
        <time>2022-03-01T14:34:23Z</time>
      </trkpt>
      <trkpt lat="39.9857750" lon="-4.5772400">
        <ele>467.0</ele>
        <time>2022-03-01T14:34:24Z</time>
      </trkpt>
      <trkpt lat="39.9857750" lon="-4.5772400">
        <ele>467.0</ele>
        <time>2022-03-01T14:34:25Z</time>
      </trkpt>
      <trkpt lat="39.9858870" lon="-4.5773920">
        <ele>467.0</ele>
        <time>2022-03-01T14:34:26Z</time>
      </trkpt>
      <trkpt lat="39.9858870" lon="-4.5773920">
        <ele>467.0</ele>
        <time>2022-03-01T14:34:27Z</time>
      </trkpt>
      <trkpt lat="39.9859980" lon="-4.5775430">
        <ele>467.0</ele>
        <time>2022-03-01T14:34:28Z</time>
      </trkpt>
      <trkpt lat="39.9859980" lon="-4.5775430">
        <ele>467.0</ele>
        <time>2022-03-01T14:34:29Z</time>
      </trkpt>
      <trkpt lat="39.9861100" lon="-4.5776900">
        <ele>466.0</ele>
        <time>2022-03-01T14:34:30Z</time>
      </trkpt>
      <trkpt lat="39.9861100" lon="-4.5776900">
        <ele>466.0</ele>
        <time>2022-03-01T14:34:31Z</time>
      </trkpt>
      <trkpt lat="39.9862180" lon="-4.5778380">
        <ele>466.0</ele>
        <time>2022-03-01T14:34:32Z</time>
      </trkpt>
      <trkpt lat="39.9862180" lon="-4.5778380">
        <ele>466.0</ele>
        <time>2022-03-01T14:34:33Z</time>
      </trkpt>
      <trkpt lat="39.9863270" lon="-4.5779830">
        <ele>466.0</ele>
        <time>2022-03-01T14:34:34Z</time>
      </trkpt>
      <trkpt lat="39.9863270" lon="-4.5779830">
        <ele>466.0</ele>
        <time>2022-03-01T14:34:35Z</time>
      </trkpt>
      <trkpt lat="39.9864320" lon="-4.5781320">
        <ele>466.0</ele>
        <time>2022-03-01T14:34:36Z</time>
      </trkpt>
      <trkpt lat="39.9864320" lon="-4.5781320">
        <ele>466.0</ele>
        <time>2022-03-01T14:34:37Z</time>
      </trkpt>
      <trkpt lat="39.9865400" lon="-4.5782780">
        <ele>466.0</ele>
        <time>2022-03-01T14:34:38Z</time>
      </trkpt>
      <trkpt lat="39.9865400" lon="-4.5782780">
        <ele>466.0</ele>
        <time>2022-03-01T14:34:39Z</time>
      </trkpt>
      <trkpt lat="39.9866480" lon="-4.5784250">
        <ele>466.0</ele>
        <time>2022-03-01T14:34:40Z</time>
      </trkpt>
      <trkpt lat="39.9866480" lon="-4.5784250">
        <ele>466.0</ele>
        <time>2022-03-01T14:34:41Z</time>
      </trkpt>
      <trkpt lat="39.9867550" lon="-4.5785680">
        <ele>466.0</ele>
        <time>2022-03-01T14:34:42Z</time>
      </trkpt>
      <trkpt lat="39.9867550" lon="-4.5785680">
        <ele>465.0</ele>
        <time>2022-03-01T14:34:43Z</time>
      </trkpt>
      <trkpt lat="39.9868600" lon="-4.5787130">
        <ele>465.0</ele>
        <time>2022-03-01T14:34:44Z</time>
      </trkpt>
      <trkpt lat="39.9868600" lon="-4.5787130">
        <ele>465.0</ele>
        <time>2022-03-01T14:34:45Z</time>
      </trkpt>
      <trkpt lat="39.9869670" lon="-4.5788550">
        <ele>465.0</ele>
        <time>2022-03-01T14:34:46Z</time>
      </trkpt>
      <trkpt lat="39.9869670" lon="-4.5788550">
        <ele>465.0</ele>
        <time>2022-03-01T14:34:47Z</time>
      </trkpt>
      <trkpt lat="39.9870680" lon="-4.5789930">
        <ele>465.0</ele>
        <time>2022-03-01T14:34:48Z</time>
      </trkpt>
      <trkpt lat="39.9870680" lon="-4.5789930">
        <ele>465.0</ele>
        <time>2022-03-01T14:34:49Z</time>
      </trkpt>
      <trkpt lat="39.9871700" lon="-4.5791280">
        <ele>465.0</ele>
        <time>2022-03-01T14:34:50Z</time>
      </trkpt>
      <trkpt lat="39.9871700" lon="-4.5791280">
        <ele>465.0</ele>
        <time>2022-03-01T14:34:51Z</time>
      </trkpt>
      <trkpt lat="39.9872680" lon="-4.5792670">
        <ele>465.0</ele>
        <time>2022-03-01T14:34:52Z</time>
      </trkpt>
      <trkpt lat="39.9873180" lon="-4.5793350">
        <ele>465.0</ele>
        <time>2022-03-01T14:34:53Z</time>
      </trkpt>
      <trkpt lat="39.9873680" lon="-4.5794030">
        <ele>465.0</ele>
        <time>2022-03-01T14:34:54Z</time>
      </trkpt>
      <trkpt lat="39.9873680" lon="-4.5794030">
        <ele>465.0</ele>
        <time>2022-03-01T14:34:55Z</time>
      </trkpt>
      <trkpt lat="39.9874700" lon="-4.5795400">
        <ele>465.0</ele>
        <time>2022-03-01T14:34:56Z</time>
      </trkpt>
      <trkpt lat="39.9874700" lon="-4.5795400">
        <ele>465.0</ele>
        <time>2022-03-01T14:34:57Z</time>
      </trkpt>
      <trkpt lat="39.9875720" lon="-4.5796770">
        <ele>465.0</ele>
        <time>2022-03-01T14:34:58Z</time>
      </trkpt>
      <trkpt lat="39.9875720" lon="-4.5796770">
        <ele>465.0</ele>
        <time>2022-03-01T14:34:59Z</time>
      </trkpt>
      <trkpt lat="39.9876720" lon="-4.5798120">
        <ele>465.0</ele>
        <time>2022-03-01T14:35:00Z</time>
      </trkpt>
      <trkpt lat="39.9876720" lon="-4.5798120">
        <ele>465.0</ele>
        <time>2022-03-01T14:35:01Z</time>
      </trkpt>
      <trkpt lat="39.9877730" lon="-4.5799500">
        <ele>465.0</ele>
        <time>2022-03-01T14:35:02Z</time>
      </trkpt>
      <trkpt lat="39.9877730" lon="-4.5799500">
        <ele>465.0</ele>
        <time>2022-03-01T14:35:03Z</time>
      </trkpt>
      <trkpt lat="39.9878730" lon="-4.5800870">
        <ele>465.0</ele>
        <time>2022-03-01T14:35:04Z</time>
      </trkpt>
      <trkpt lat="39.9878730" lon="-4.5800870">
        <ele>465.0</ele>
        <time>2022-03-01T14:35:05Z</time>
      </trkpt>
      <trkpt lat="39.9879750" lon="-4.5802230">
        <ele>465.0</ele>
        <time>2022-03-01T14:35:06Z</time>
      </trkpt>
      <trkpt lat="39.9879750" lon="-4.5802230">
        <ele>465.0</ele>
        <time>2022-03-01T14:35:07Z</time>
      </trkpt>
      <trkpt lat="39.9880770" lon="-4.5803620">
        <ele>465.0</ele>
        <time>2022-03-01T14:35:08Z</time>
      </trkpt>
      <trkpt lat="39.9881280" lon="-4.5804300">
        <ele>465.0</ele>
        <time>2022-03-01T14:35:09Z</time>
      </trkpt>
      <trkpt lat="39.9881280" lon="-4.5804300">
        <ele>465.0</ele>
        <time>2022-03-01T14:35:10Z</time>
      </trkpt>
      <trkpt lat="39.9882300" lon="-4.5805670">
        <ele>465.0</ele>
        <time>2022-03-01T14:35:11Z</time>
      </trkpt>
      <trkpt lat="39.9882300" lon="-4.5805670">
        <ele>465.0</ele>
        <time>2022-03-01T14:35:12Z</time>
      </trkpt>
      <trkpt lat="39.9883300" lon="-4.5807020">
        <ele>465.0</ele>
        <time>2022-03-01T14:35:13Z</time>
      </trkpt>
      <trkpt lat="39.9883780" lon="-4.5807700">
        <ele>465.0</ele>
        <time>2022-03-01T14:35:14Z</time>
      </trkpt>
      <trkpt lat="39.9883780" lon="-4.5807700">
        <ele>464.0</ele>
        <time>2022-03-01T14:35:15Z</time>
      </trkpt>
      <trkpt lat="39.9884750" lon="-4.5809020">
        <ele>464.0</ele>
        <time>2022-03-01T14:35:16Z</time>
      </trkpt>
      <trkpt lat="39.9884750" lon="-4.5809020">
        <ele>464.0</ele>
        <time>2022-03-01T14:35:17Z</time>
      </trkpt>
      <trkpt lat="39.9885720" lon="-4.5810350">
        <ele>464.0</ele>
        <time>2022-03-01T14:35:18Z</time>
      </trkpt>
      <trkpt lat="39.9886180" lon="-4.5811000">
        <ele>464.0</ele>
        <time>2022-03-01T14:35:19Z</time>
      </trkpt>
      <trkpt lat="39.9886670" lon="-4.5811670">
        <ele>464.0</ele>
        <time>2022-03-01T14:35:20Z</time>
      </trkpt>
      <trkpt lat="39.9886670" lon="-4.5811670">
        <ele>464.0</ele>
        <time>2022-03-01T14:35:21Z</time>
      </trkpt>
      <trkpt lat="39.9887630" lon="-4.5812980">
        <ele>464.0</ele>
        <time>2022-03-01T14:35:22Z</time>
      </trkpt>
      <trkpt lat="39.9887630" lon="-4.5812980">
        <ele>464.0</ele>
        <time>2022-03-01T14:35:23Z</time>
      </trkpt>
      <trkpt lat="39.9888620" lon="-4.5814330">
        <ele>464.0</ele>
        <time>2022-03-01T14:35:24Z</time>
      </trkpt>
      <trkpt lat="39.9888620" lon="-4.5814330">
        <ele>464.0</ele>
        <time>2022-03-01T14:35:25Z</time>
      </trkpt>
      <trkpt lat="39.9889600" lon="-4.5815670">
        <ele>464.0</ele>
        <time>2022-03-01T14:35:26Z</time>
      </trkpt>
      <trkpt lat="39.9890080" lon="-4.5816320">
        <ele>464.0</ele>
        <time>2022-03-01T14:35:27Z</time>
      </trkpt>
      <trkpt lat="39.9890080" lon="-4.5816320">
        <ele>464.0</ele>
        <time>2022-03-01T14:35:28Z</time>
      </trkpt>
      <trkpt lat="39.9891080" lon="-4.5817670">
        <ele>464.0</ele>
        <time>2022-03-01T14:35:29Z</time>
      </trkpt>
      <trkpt lat="39.9891580" lon="-4.5818320">
        <ele>464.0</ele>
        <time>2022-03-01T14:35:30Z</time>
      </trkpt>
      <trkpt lat="39.9891580" lon="-4.5818320">
        <ele>464.0</ele>
        <time>2022-03-01T14:35:31Z</time>
      </trkpt>
      <trkpt lat="39.9892570" lon="-4.5819650">
        <ele>464.0</ele>
        <time>2022-03-01T14:35:32Z</time>
      </trkpt>
      <trkpt lat="39.9893050" lon="-4.5820330">
        <ele>464.0</ele>
        <time>2022-03-01T14:35:33Z</time>
      </trkpt>
      <trkpt lat="39.9893530" lon="-4.5821020">
        <ele>464.0</ele>
        <time>2022-03-01T14:35:34Z</time>
      </trkpt>
      <trkpt lat="39.9893530" lon="-4.5821020">
        <ele>464.0</ele>
        <time>2022-03-01T14:35:35Z</time>
      </trkpt>
      <trkpt lat="39.9894500" lon="-4.5822330">
        <ele>464.0</ele>
        <time>2022-03-01T14:35:36Z</time>
      </trkpt>
      <trkpt lat="39.9894500" lon="-4.5822330">
        <ele>464.0</ele>
        <time>2022-03-01T14:35:37Z</time>
      </trkpt>
      <trkpt lat="39.9895470" lon="-4.5823680">
        <ele>464.0</ele>
        <time>2022-03-01T14:35:38Z</time>
      </trkpt>
      <trkpt lat="39.9895470" lon="-4.5823680">
        <ele>463.0</ele>
        <time>2022-03-01T14:35:39Z</time>
      </trkpt>
      <trkpt lat="39.9896480" lon="-4.5825050">
        <ele>463.0</ele>
        <time>2022-03-01T14:35:40Z</time>
      </trkpt>
      <trkpt lat="39.9896480" lon="-4.5825050">
        <ele>463.0</ele>
        <time>2022-03-01T14:35:41Z</time>
      </trkpt>
      <trkpt lat="39.9897480" lon="-4.5826430">
        <ele>463.0</ele>
        <time>2022-03-01T14:35:42Z</time>
      </trkpt>
      <trkpt lat="39.9897980" lon="-4.5827130">
        <ele>463.0</ele>
        <time>2022-03-01T14:35:43Z</time>
      </trkpt>
      <trkpt lat="39.9897980" lon="-4.5827130">
        <ele>463.0</ele>
        <time>2022-03-01T14:35:44Z</time>
      </trkpt>
      <trkpt lat="39.9899000" lon="-4.5828550">
        <ele>463.0</ele>
        <time>2022-03-01T14:35:45Z</time>
      </trkpt>
      <trkpt lat="39.9899000" lon="-4.5828550">
        <ele>463.0</ele>
        <time>2022-03-01T14:35:46Z</time>
      </trkpt>
      <trkpt lat="39.9900020" lon="-4.5829930">
        <ele>462.0</ele>
        <time>2022-03-01T14:35:47Z</time>
      </trkpt>
      <trkpt lat="39.9900530" lon="-4.5830620">
        <ele>462.0</ele>
        <time>2022-03-01T14:35:48Z</time>
      </trkpt>
      <trkpt lat="39.9900530" lon="-4.5830620">
        <ele>462.0</ele>
        <time>2022-03-01T14:35:49Z</time>
      </trkpt>
      <trkpt lat="39.9901530" lon="-4.5832020">
        <ele>462.0</ele>
        <time>2022-03-01T14:35:50Z</time>
      </trkpt>
      <trkpt lat="39.9901530" lon="-4.5832020">
        <ele>462.0</ele>
        <time>2022-03-01T14:35:51Z</time>
      </trkpt>
      <trkpt lat="39.9902550" lon="-4.5833420">
        <ele>462.0</ele>
        <time>2022-03-01T14:35:52Z</time>
      </trkpt>
      <trkpt lat="39.9902550" lon="-4.5833420">
        <ele>462.0</ele>
        <time>2022-03-01T14:35:53Z</time>
      </trkpt>
      <trkpt lat="39.9903580" lon="-4.5834800">
        <ele>462.0</ele>
        <time>2022-03-01T14:35:54Z</time>
      </trkpt>
      <trkpt lat="39.9903580" lon="-4.5834800">
        <ele>462.0</ele>
        <time>2022-03-01T14:35:55Z</time>
      </trkpt>
      <trkpt lat="39.9904600" lon="-4.5836150">
        <ele>462.0</ele>
        <time>2022-03-01T14:35:56Z</time>
      </trkpt>
      <trkpt lat="39.9905100" lon="-4.5836830">
        <ele>461.0</ele>
        <time>2022-03-01T14:35:57Z</time>
      </trkpt>
      <trkpt lat="39.9905100" lon="-4.5836830">
        <ele>461.0</ele>
        <time>2022-03-01T14:35:58Z</time>
      </trkpt>
      <trkpt lat="39.9906080" lon="-4.5838200">
        <ele>461.0</ele>
        <time>2022-03-01T14:35:59Z</time>
      </trkpt>
      <trkpt lat="39.9906580" lon="-4.5838870">
        <ele>461.0</ele>
        <time>2022-03-01T14:36:00Z</time>
      </trkpt>
      <trkpt lat="39.9906580" lon="-4.5838870">
        <ele>461.0</ele>
        <time>2022-03-01T14:36:01Z</time>
      </trkpt>
      <trkpt lat="39.9907580" lon="-4.5840230">
        <ele>461.0</ele>
        <time>2022-03-01T14:36:02Z</time>
      </trkpt>
      <trkpt lat="39.9907580" lon="-4.5840230">
        <ele>461.0</ele>
        <time>2022-03-01T14:36:03Z</time>
      </trkpt>
      <trkpt lat="39.9908600" lon="-4.5841620">
        <ele>461.0</ele>
        <time>2022-03-01T14:36:04Z</time>
      </trkpt>
      <trkpt lat="39.9908600" lon="-4.5841620">
        <ele>461.0</ele>
        <time>2022-03-01T14:36:05Z</time>
      </trkpt>
      <trkpt lat="39.9909600" lon="-4.5843000">
        <ele>461.0</ele>
        <time>2022-03-01T14:36:06Z</time>
      </trkpt>
      <trkpt lat="39.9910120" lon="-4.5843700">
        <ele>461.0</ele>
        <time>2022-03-01T14:36:07Z</time>
      </trkpt>
      <trkpt lat="39.9910630" lon="-4.5844400">
        <ele>461.0</ele>
        <time>2022-03-01T14:36:08Z</time>
      </trkpt>
      <trkpt lat="39.9910630" lon="-4.5844400">
        <ele>461.0</ele>
        <time>2022-03-01T14:36:09Z</time>
      </trkpt>
      <trkpt lat="39.9911670" lon="-4.5845820">
        <ele>461.0</ele>
        <time>2022-03-01T14:36:10Z</time>
      </trkpt>
      <trkpt lat="39.9911670" lon="-4.5845820">
        <ele>461.0</ele>
        <time>2022-03-01T14:36:11Z</time>
      </trkpt>
      <trkpt lat="39.9912700" lon="-4.5847250">
        <ele>461.0</ele>
        <time>2022-03-01T14:36:12Z</time>
      </trkpt>
      <trkpt lat="39.9913230" lon="-4.5847970">
        <ele>461.0</ele>
        <time>2022-03-01T14:36:13Z</time>
      </trkpt>
      <trkpt lat="39.9913230" lon="-4.5847970">
        <ele>461.0</ele>
        <time>2022-03-01T14:36:14Z</time>
      </trkpt>
      <trkpt lat="39.9914280" lon="-4.5849430">
        <ele>461.0</ele>
        <time>2022-03-01T14:36:15Z</time>
      </trkpt>
      <trkpt lat="39.9914280" lon="-4.5849430">
        <ele>461.0</ele>
        <time>2022-03-01T14:36:16Z</time>
      </trkpt>
      <trkpt lat="39.9915370" lon="-4.5850920">
        <ele>461.0</ele>
        <time>2022-03-01T14:36:17Z</time>
      </trkpt>
      <trkpt lat="39.9915920" lon="-4.5851650">
        <ele>461.0</ele>
        <time>2022-03-01T14:36:18Z</time>
      </trkpt>
      <trkpt lat="39.9915920" lon="-4.5851650">
        <ele>461.0</ele>
        <time>2022-03-01T14:36:19Z</time>
      </trkpt>
      <trkpt lat="39.9917000" lon="-4.5853180">
        <ele>460.0</ele>
        <time>2022-03-01T14:36:20Z</time>
      </trkpt>
      <trkpt lat="39.9917000" lon="-4.5853180">
        <ele>460.0</ele>
        <time>2022-03-01T14:36:21Z</time>
      </trkpt>
      <trkpt lat="39.9918100" lon="-4.5854700">
        <ele>460.0</ele>
        <time>2022-03-01T14:36:22Z</time>
      </trkpt>
      <trkpt lat="39.9918630" lon="-4.5855470">
        <ele>460.0</ele>
        <time>2022-03-01T14:36:23Z</time>
      </trkpt>
      <trkpt lat="39.9919170" lon="-4.5856230">
        <ele>460.0</ele>
        <time>2022-03-01T14:36:24Z</time>
      </trkpt>
      <trkpt lat="39.9919170" lon="-4.5856230">
        <ele>459.0</ele>
        <time>2022-03-01T14:36:25Z</time>
      </trkpt>
      <trkpt lat="39.9920300" lon="-4.5857770">
        <ele>459.0</ele>
        <time>2022-03-01T14:36:26Z</time>
      </trkpt>
      <trkpt lat="39.9920850" lon="-4.5858550">
        <ele>459.0</ele>
        <time>2022-03-01T14:36:27Z</time>
      </trkpt>
      <trkpt lat="39.9920850" lon="-4.5858550">
        <ele>459.0</ele>
        <time>2022-03-01T14:36:28Z</time>
      </trkpt>
      <trkpt lat="39.9921980" lon="-4.5860100">
        <ele>459.0</ele>
        <time>2022-03-01T14:36:29Z</time>
      </trkpt>
      <trkpt lat="39.9922550" lon="-4.5860880">
        <ele>459.0</ele>
        <time>2022-03-01T14:36:30Z</time>
      </trkpt>
      <trkpt lat="39.9922550" lon="-4.5860880">
        <ele>458.0</ele>
        <time>2022-03-01T14:36:31Z</time>
      </trkpt>
      <trkpt lat="39.9923680" lon="-4.5862450">
        <ele>458.0</ele>
        <time>2022-03-01T14:36:32Z</time>
      </trkpt>
      <trkpt lat="39.9923680" lon="-4.5862450">
        <ele>458.0</ele>
        <time>2022-03-01T14:36:33Z</time>
      </trkpt>
      <trkpt lat="39.9924820" lon="-4.5864000">
        <ele>458.0</ele>
        <time>2022-03-01T14:36:34Z</time>
      </trkpt>
      <trkpt lat="39.9924820" lon="-4.5864000">
        <ele>458.0</ele>
        <time>2022-03-01T14:36:35Z</time>
      </trkpt>
      <trkpt lat="39.9925950" lon="-4.5865550">
        <ele>458.0</ele>
        <time>2022-03-01T14:36:36Z</time>
      </trkpt>
      <trkpt lat="39.9925950" lon="-4.5865550">
        <ele>458.0</ele>
        <time>2022-03-01T14:36:37Z</time>
      </trkpt>
      <trkpt lat="39.9927080" lon="-4.5867100">
        <ele>458.0</ele>
        <time>2022-03-01T14:36:38Z</time>
      </trkpt>
      <trkpt lat="39.9927080" lon="-4.5867100">
        <ele>458.0</ele>
        <time>2022-03-01T14:36:39Z</time>
      </trkpt>
      <trkpt lat="39.9928220" lon="-4.5868650">
        <ele>458.0</ele>
        <time>2022-03-01T14:36:40Z</time>
      </trkpt>
      <trkpt lat="39.9928220" lon="-4.5868650">
        <ele>457.0</ele>
        <time>2022-03-01T14:36:41Z</time>
      </trkpt>
      <trkpt lat="39.9929370" lon="-4.5870220">
        <ele>457.0</ele>
        <time>2022-03-01T14:36:42Z</time>
      </trkpt>
      <trkpt lat="39.9929930" lon="-4.5871000">
        <ele>457.0</ele>
        <time>2022-03-01T14:36:43Z</time>
      </trkpt>
      <trkpt lat="39.9929930" lon="-4.5871000">
        <ele>457.0</ele>
        <time>2022-03-01T14:36:44Z</time>
      </trkpt>
      <trkpt lat="39.9931070" lon="-4.5872580">
        <ele>457.0</ele>
        <time>2022-03-01T14:36:45Z</time>
      </trkpt>
      <trkpt lat="39.9931650" lon="-4.5873380">
        <ele>456.0</ele>
        <time>2022-03-01T14:36:46Z</time>
      </trkpt>
      <trkpt lat="39.9931650" lon="-4.5873380">
        <ele>456.0</ele>
        <time>2022-03-01T14:36:47Z</time>
      </trkpt>
      <trkpt lat="39.9932820" lon="-4.5874980">
        <ele>456.0</ele>
        <time>2022-03-01T14:36:48Z</time>
      </trkpt>
      <trkpt lat="39.9932820" lon="-4.5874980">
        <ele>456.0</ele>
        <time>2022-03-01T14:36:49Z</time>
      </trkpt>
      <trkpt lat="39.9934000" lon="-4.5876600">
        <ele>455.0</ele>
        <time>2022-03-01T14:36:50Z</time>
      </trkpt>
      <trkpt lat="39.9934000" lon="-4.5876600">
        <ele>455.0</ele>
        <time>2022-03-01T14:36:51Z</time>
      </trkpt>
      <trkpt lat="39.9935180" lon="-4.5878230">
        <ele>455.0</ele>
        <time>2022-03-01T14:36:52Z</time>
      </trkpt>
      <trkpt lat="39.9935180" lon="-4.5878230">
        <ele>455.0</ele>
        <time>2022-03-01T14:36:53Z</time>
      </trkpt>
      <trkpt lat="39.9936400" lon="-4.5879870">
        <ele>453.0</ele>
        <time>2022-03-01T14:36:54Z</time>
      </trkpt>
      <trkpt lat="39.9937000" lon="-4.5880720">
        <ele>453.0</ele>
        <time>2022-03-01T14:36:55Z</time>
      </trkpt>
      <trkpt lat="39.9937000" lon="-4.5880720">
        <ele>453.0</ele>
        <time>2022-03-01T14:36:56Z</time>
      </trkpt>
      <trkpt lat="39.9938220" lon="-4.5882380">
        <ele>453.0</ele>
        <time>2022-03-01T14:36:57Z</time>
      </trkpt>
      <trkpt lat="39.9938830" lon="-4.5883230">
        <ele>453.0</ele>
        <time>2022-03-01T14:36:58Z</time>
      </trkpt>
      <trkpt lat="39.9938830" lon="-4.5883230">
        <ele>453.0</ele>
        <time>2022-03-01T14:36:59Z</time>
      </trkpt>
      <trkpt lat="39.9940100" lon="-4.5884950">
        <ele>453.0</ele>
        <time>2022-03-01T14:37:00Z</time>
      </trkpt>
      <trkpt lat="39.9940100" lon="-4.5884950">
        <ele>453.0</ele>
        <time>2022-03-01T14:37:01Z</time>
      </trkpt>
      <trkpt lat="39.9941370" lon="-4.5886680">
        <ele>452.0</ele>
        <time>2022-03-01T14:37:02Z</time>
      </trkpt>
      <trkpt lat="39.9942000" lon="-4.5887570">
        <ele>452.0</ele>
        <time>2022-03-01T14:37:03Z</time>
      </trkpt>
      <trkpt lat="39.9942630" lon="-4.5888450">
        <ele>451.0</ele>
        <time>2022-03-01T14:37:04Z</time>
      </trkpt>
      <trkpt lat="39.9942630" lon="-4.5888450">
        <ele>451.0</ele>
        <time>2022-03-01T14:37:05Z</time>
      </trkpt>
      <trkpt lat="39.9943920" lon="-4.5890220">
        <ele>450.0</ele>
        <time>2022-03-01T14:37:06Z</time>
      </trkpt>
      <trkpt lat="39.9944550" lon="-4.5891100">
        <ele>450.0</ele>
        <time>2022-03-01T14:37:07Z</time>
      </trkpt>
      <trkpt lat="39.9944550" lon="-4.5891100">
        <ele>450.0</ele>
        <time>2022-03-01T14:37:08Z</time>
      </trkpt>
      <trkpt lat="39.9945830" lon="-4.5892880">
        <ele>450.0</ele>
        <time>2022-03-01T14:37:09Z</time>
      </trkpt>
      <trkpt lat="39.9946480" lon="-4.5893770">
        <ele>448.0</ele>
        <time>2022-03-01T14:37:10Z</time>
      </trkpt>
      <trkpt lat="39.9946480" lon="-4.5893770">
        <ele>448.0</ele>
        <time>2022-03-01T14:37:11Z</time>
      </trkpt>
      <trkpt lat="39.9947770" lon="-4.5895550">
        <ele>448.0</ele>
        <time>2022-03-01T14:37:12Z</time>
      </trkpt>
      <trkpt lat="39.9947770" lon="-4.5895550">
        <ele>448.0</ele>
        <time>2022-03-01T14:37:13Z</time>
      </trkpt>
      <trkpt lat="39.9949070" lon="-4.5897350">
        <ele>448.0</ele>
        <time>2022-03-01T14:37:14Z</time>
      </trkpt>
      <trkpt lat="39.9949720" lon="-4.5898250">
        <ele>447.0</ele>
        <time>2022-03-01T14:37:15Z</time>
      </trkpt>
      <trkpt lat="39.9949720" lon="-4.5898250">
        <ele>447.0</ele>
        <time>2022-03-01T14:37:16Z</time>
      </trkpt>
      <trkpt lat="39.9951020" lon="-4.5900050">
        <ele>447.0</ele>
        <time>2022-03-01T14:37:17Z</time>
      </trkpt>
      <trkpt lat="39.9951670" lon="-4.5900950">
        <ele>447.0</ele>
        <time>2022-03-01T14:37:18Z</time>
      </trkpt>
      <trkpt lat="39.9951670" lon="-4.5900950">
        <ele>445.0</ele>
        <time>2022-03-01T14:37:19Z</time>
      </trkpt>
      <trkpt lat="39.9952970" lon="-4.5902720">
        <ele>445.0</ele>
        <time>2022-03-01T14:37:20Z</time>
      </trkpt>
      <trkpt lat="39.9952970" lon="-4.5902720">
        <ele>445.0</ele>
        <time>2022-03-01T14:37:21Z</time>
      </trkpt>
      <trkpt lat="39.9954270" lon="-4.5904520">
        <ele>445.0</ele>
        <time>2022-03-01T14:37:22Z</time>
      </trkpt>
      <trkpt lat="39.9954930" lon="-4.5905420">
        <ele>445.0</ele>
        <time>2022-03-01T14:37:23Z</time>
      </trkpt>
      <trkpt lat="39.9955570" lon="-4.5906300">
        <ele>445.0</ele>
        <time>2022-03-01T14:37:24Z</time>
      </trkpt>
      <trkpt lat="39.9955570" lon="-4.5906300">
        <ele>445.0</ele>
        <time>2022-03-01T14:37:25Z</time>
      </trkpt>
      <trkpt lat="39.9956870" lon="-4.5908100">
        <ele>445.0</ele>
        <time>2022-03-01T14:37:26Z</time>
      </trkpt>
      <trkpt lat="39.9956870" lon="-4.5908100">
        <ele>444.0</ele>
        <time>2022-03-01T14:37:27Z</time>
      </trkpt>
      <trkpt lat="39.9958130" lon="-4.5909850">
        <ele>444.0</ele>
        <time>2022-03-01T14:37:28Z</time>
      </trkpt>
      <trkpt lat="39.9958130" lon="-4.5909850">
        <ele>444.0</ele>
        <time>2022-03-01T14:37:29Z</time>
      </trkpt>
      <trkpt lat="39.9959400" lon="-4.5911580">
        <ele>444.0</ele>
        <time>2022-03-01T14:37:30Z</time>
      </trkpt>
      <trkpt lat="39.9959400" lon="-4.5911580">
        <ele>443.0</ele>
        <time>2022-03-01T14:37:31Z</time>
      </trkpt>
      <trkpt lat="39.9960650" lon="-4.5913270">
        <ele>443.0</ele>
        <time>2022-03-01T14:37:32Z</time>
      </trkpt>
      <trkpt lat="39.9961250" lon="-4.5914100">
        <ele>443.0</ele>
        <time>2022-03-01T14:37:33Z</time>
      </trkpt>
      <trkpt lat="39.9961850" lon="-4.5914920">
        <ele>443.0</ele>
        <time>2022-03-01T14:37:34Z</time>
      </trkpt>
      <trkpt lat="39.9961850" lon="-4.5914920">
        <ele>443.0</ele>
        <time>2022-03-01T14:37:35Z</time>
      </trkpt>
      <trkpt lat="39.9963020" lon="-4.5916520">
        <ele>443.0</ele>
        <time>2022-03-01T14:37:36Z</time>
      </trkpt>
      <trkpt lat="39.9963020" lon="-4.5916520">
        <ele>442.0</ele>
        <time>2022-03-01T14:37:37Z</time>
      </trkpt>
      <trkpt lat="39.9964170" lon="-4.5918080">
        <ele>442.0</ele>
        <time>2022-03-01T14:37:38Z</time>
      </trkpt>
      <trkpt lat="39.9964170" lon="-4.5918080">
        <ele>442.0</ele>
        <time>2022-03-01T14:37:39Z</time>
      </trkpt>
      <trkpt lat="39.9965270" lon="-4.5919630">
        <ele>442.0</ele>
        <time>2022-03-01T14:37:40Z</time>
      </trkpt>
      <trkpt lat="39.9965270" lon="-4.5919630">
        <ele>442.0</ele>
        <time>2022-03-01T14:37:41Z</time>
      </trkpt>
      <trkpt lat="39.9966370" lon="-4.5921100">
        <ele>442.0</ele>
        <time>2022-03-01T14:37:42Z</time>
      </trkpt>
      <trkpt lat="39.9966920" lon="-4.5921800">
        <ele>442.0</ele>
        <time>2022-03-01T14:37:43Z</time>
      </trkpt>
      <trkpt lat="39.9967450" lon="-4.5922520">
        <ele>442.0</ele>
        <time>2022-03-01T14:37:44Z</time>
      </trkpt>
      <trkpt lat="39.9967450" lon="-4.5922520">
        <ele>442.0</ele>
        <time>2022-03-01T14:37:45Z</time>
      </trkpt>
      <trkpt lat="39.9968520" lon="-4.5923970">
        <ele>442.0</ele>
        <time>2022-03-01T14:37:46Z</time>
      </trkpt>
      <trkpt lat="39.9968520" lon="-4.5923970">
        <ele>442.0</ele>
        <time>2022-03-01T14:37:47Z</time>
      </trkpt>
      <trkpt lat="39.9969550" lon="-4.5925380">
        <ele>442.0</ele>
        <time>2022-03-01T14:37:48Z</time>
      </trkpt>
      <trkpt lat="39.9969550" lon="-4.5925380">
        <ele>442.0</ele>
        <time>2022-03-01T14:37:49Z</time>
      </trkpt>
      <trkpt lat="39.9970580" lon="-4.5926780">
        <ele>442.0</ele>
        <time>2022-03-01T14:37:50Z</time>
      </trkpt>
      <trkpt lat="39.9970580" lon="-4.5926780">
        <ele>442.0</ele>
        <time>2022-03-01T14:37:51Z</time>
      </trkpt>
      <trkpt lat="39.9971570" lon="-4.5928170">
        <ele>442.0</ele>
        <time>2022-03-01T14:37:52Z</time>
      </trkpt>
      <trkpt lat="39.9972050" lon="-4.5928850">
        <ele>442.0</ele>
        <time>2022-03-01T14:37:53Z</time>
      </trkpt>
      <trkpt lat="39.9972530" lon="-4.5929530">
        <ele>442.0</ele>
        <time>2022-03-01T14:37:54Z</time>
      </trkpt>
      <trkpt lat="39.9972530" lon="-4.5929530">
        <ele>442.0</ele>
        <time>2022-03-01T14:37:55Z</time>
      </trkpt>
      <trkpt lat="39.9973500" lon="-4.5930880">
        <ele>442.0</ele>
        <time>2022-03-01T14:37:56Z</time>
      </trkpt>
      <trkpt lat="39.9973500" lon="-4.5930880">
        <ele>442.0</ele>
        <time>2022-03-01T14:37:57Z</time>
      </trkpt>
      <trkpt lat="39.9974470" lon="-4.5932220">
        <ele>442.0</ele>
        <time>2022-03-01T14:37:58Z</time>
      </trkpt>
      <trkpt lat="39.9974470" lon="-4.5932220">
        <ele>442.0</ele>
        <time>2022-03-01T14:37:59Z</time>
      </trkpt>
      <trkpt lat="39.9975420" lon="-4.5933530">
        <ele>442.0</ele>
        <time>2022-03-01T14:38:00Z</time>
      </trkpt>
      <trkpt lat="39.9975420" lon="-4.5933530">
        <ele>442.0</ele>
        <time>2022-03-01T14:38:01Z</time>
      </trkpt>
      <trkpt lat="39.9976380" lon="-4.5934850">
        <ele>442.0</ele>
        <time>2022-03-01T14:38:02Z</time>
      </trkpt>
      <trkpt lat="39.9976380" lon="-4.5934850">
        <ele>442.0</ele>
        <time>2022-03-01T14:38:03Z</time>
      </trkpt>
      <trkpt lat="39.9977350" lon="-4.5936150">
        <ele>442.0</ele>
        <time>2022-03-01T14:38:04Z</time>
      </trkpt>
      <trkpt lat="39.9977350" lon="-4.5936150">
        <ele>442.0</ele>
        <time>2022-03-01T14:38:05Z</time>
      </trkpt>
      <trkpt lat="39.9978270" lon="-4.5937470">
        <ele>442.0</ele>
        <time>2022-03-01T14:38:06Z</time>
      </trkpt>
      <trkpt lat="39.9978270" lon="-4.5937470">
        <ele>442.0</ele>
        <time>2022-03-01T14:38:07Z</time>
      </trkpt>
      <trkpt lat="39.9979220" lon="-4.5938730">
        <ele>442.0</ele>
        <time>2022-03-01T14:38:08Z</time>
      </trkpt>
      <trkpt lat="39.9979220" lon="-4.5938730">
        <ele>442.0</ele>
        <time>2022-03-01T14:38:09Z</time>
      </trkpt>
      <trkpt lat="39.9980130" lon="-4.5940000">
        <ele>442.0</ele>
        <time>2022-03-01T14:38:10Z</time>
      </trkpt>
      <trkpt lat="39.9980130" lon="-4.5940000">
        <ele>442.0</ele>
        <time>2022-03-01T14:38:11Z</time>
      </trkpt>
      <trkpt lat="39.9981080" lon="-4.5941280">
        <ele>442.0</ele>
        <time>2022-03-01T14:38:12Z</time>
      </trkpt>
      <trkpt lat="39.9981080" lon="-4.5941280">
        <ele>442.0</ele>
        <time>2022-03-01T14:38:13Z</time>
      </trkpt>
      <trkpt lat="39.9982000" lon="-4.5942570">
        <ele>442.0</ele>
        <time>2022-03-01T14:38:14Z</time>
      </trkpt>
      <trkpt lat="39.9982000" lon="-4.5942570">
        <ele>442.0</ele>
        <time>2022-03-01T14:38:15Z</time>
      </trkpt>
      <trkpt lat="39.9982980" lon="-4.5943870">
        <ele>442.0</ele>
        <time>2022-03-01T14:38:16Z</time>
      </trkpt>
      <trkpt lat="39.9982980" lon="-4.5943870">
        <ele>442.0</ele>
        <time>2022-03-01T14:38:17Z</time>
      </trkpt>
      <trkpt lat="39.9983870" lon="-4.5945150">
        <ele>442.0</ele>
        <time>2022-03-01T14:38:18Z</time>
      </trkpt>
      <trkpt lat="39.9983870" lon="-4.5945150">
        <ele>442.0</ele>
        <time>2022-03-01T14:38:19Z</time>
      </trkpt>
      <trkpt lat="39.9984750" lon="-4.5946450">
        <ele>442.0</ele>
        <time>2022-03-01T14:38:20Z</time>
      </trkpt>
      <trkpt lat="39.9985220" lon="-4.5947080">
        <ele>442.0</ele>
        <time>2022-03-01T14:38:21Z</time>
      </trkpt>
      <trkpt lat="39.9985220" lon="-4.5947080">
        <ele>442.0</ele>
        <time>2022-03-01T14:38:22Z</time>
      </trkpt>
      <trkpt lat="39.9986150" lon="-4.5948330">
        <ele>442.0</ele>
        <time>2022-03-01T14:38:23Z</time>
      </trkpt>
      <trkpt lat="39.9986600" lon="-4.5948970">
        <ele>442.0</ele>
        <time>2022-03-01T14:38:24Z</time>
      </trkpt>
      <trkpt lat="39.9986600" lon="-4.5948970">
        <ele>442.0</ele>
        <time>2022-03-01T14:38:25Z</time>
      </trkpt>
      <trkpt lat="39.9987550" lon="-4.5950280">
        <ele>442.0</ele>
        <time>2022-03-01T14:38:26Z</time>
      </trkpt>
      <trkpt lat="39.9987550" lon="-4.5950280">
        <ele>442.0</ele>
        <time>2022-03-01T14:38:27Z</time>
      </trkpt>
      <trkpt lat="39.9988520" lon="-4.5951600">
        <ele>442.0</ele>
        <time>2022-03-01T14:38:28Z</time>
      </trkpt>
      <trkpt lat="39.9988520" lon="-4.5951600">
        <ele>442.0</ele>
        <time>2022-03-01T14:38:29Z</time>
      </trkpt>
      <trkpt lat="39.9989420" lon="-4.5952880">
        <ele>442.0</ele>
        <time>2022-03-01T14:38:30Z</time>
      </trkpt>
      <trkpt lat="39.9989850" lon="-4.5953500">
        <ele>442.0</ele>
        <time>2022-03-01T14:38:31Z</time>
      </trkpt>
      <trkpt lat="39.9990330" lon="-4.5954120">
        <ele>442.0</ele>
        <time>2022-03-01T14:38:32Z</time>
      </trkpt>
      <trkpt lat="39.9990330" lon="-4.5954120">
        <ele>442.0</ele>
        <time>2022-03-01T14:38:33Z</time>
      </trkpt>
      <trkpt lat="39.9991250" lon="-4.5955380">
        <ele>442.0</ele>
        <time>2022-03-01T14:38:34Z</time>
      </trkpt>
      <trkpt lat="39.9991250" lon="-4.5955380">
        <ele>442.0</ele>
        <time>2022-03-01T14:38:35Z</time>
      </trkpt>
      <trkpt lat="39.9992170" lon="-4.5956620">
        <ele>442.0</ele>
        <time>2022-03-01T14:38:36Z</time>
      </trkpt>
      <trkpt lat="39.9992170" lon="-4.5956620">
        <ele>442.0</ele>
        <time>2022-03-01T14:38:37Z</time>
      </trkpt>
      <trkpt lat="39.9993080" lon="-4.5957880">
        <ele>442.0</ele>
        <time>2022-03-01T14:38:38Z</time>
      </trkpt>
      <trkpt lat="39.9993530" lon="-4.5958500">
        <ele>442.0</ele>
        <time>2022-03-01T14:38:39Z</time>
      </trkpt>
      <trkpt lat="39.9993530" lon="-4.5958500">
        <ele>442.0</ele>
        <time>2022-03-01T14:38:40Z</time>
      </trkpt>
      <trkpt lat="39.9994470" lon="-4.5959750">
        <ele>442.0</ele>
        <time>2022-03-01T14:38:41Z</time>
      </trkpt>
      <trkpt lat="39.9994900" lon="-4.5960380">
        <ele>443.0</ele>
        <time>2022-03-01T14:38:42Z</time>
      </trkpt>
      <trkpt lat="39.9994900" lon="-4.5960380">
        <ele>443.0</ele>
        <time>2022-03-01T14:38:43Z</time>
      </trkpt>
      <trkpt lat="39.9995820" lon="-4.5961630">
        <ele>443.0</ele>
        <time>2022-03-01T14:38:44Z</time>
      </trkpt>
      <trkpt lat="39.9995820" lon="-4.5961630">
        <ele>443.0</ele>
        <time>2022-03-01T14:38:45Z</time>
      </trkpt>
      <trkpt lat="39.9996700" lon="-4.5962830">
        <ele>443.0</ele>
        <time>2022-03-01T14:38:46Z</time>
      </trkpt>
      <trkpt lat="39.9996700" lon="-4.5962830">
        <ele>443.0</ele>
        <time>2022-03-01T14:38:47Z</time>
      </trkpt>
      <trkpt lat="39.9997580" lon="-4.5964070">
        <ele>444.0</ele>
        <time>2022-03-01T14:38:48Z</time>
      </trkpt>
      <trkpt lat="39.9997580" lon="-4.5964070">
        <ele>444.0</ele>
        <time>2022-03-01T14:38:49Z</time>
      </trkpt>
      <trkpt lat="39.9998430" lon="-4.5965250">
        <ele>444.0</ele>
        <time>2022-03-01T14:38:50Z</time>
      </trkpt>
      <trkpt lat="39.9998430" lon="-4.5965250">
        <ele>444.0</ele>
        <time>2022-03-01T14:38:51Z</time>
      </trkpt>
      <trkpt lat="39.9999280" lon="-4.5966420">
        <ele>444.0</ele>
        <time>2022-03-01T14:38:52Z</time>
      </trkpt>
      <trkpt lat="39.9999280" lon="-4.5966420">
        <ele>444.0</ele>
        <time>2022-03-01T14:38:53Z</time>
      </trkpt>
      <trkpt lat="40.0000100" lon="-4.5967520">
        <ele>444.0</ele>
        <time>2022-03-01T14:38:54Z</time>
      </trkpt>
      <trkpt lat="40.0000100" lon="-4.5967520">
        <ele>444.0</ele>
        <time>2022-03-01T14:38:55Z</time>
      </trkpt>
      <trkpt lat="40.0000900" lon="-4.5968620">
        <ele>444.0</ele>
        <time>2022-03-01T14:38:56Z</time>
      </trkpt>
      <trkpt lat="40.0000900" lon="-4.5968620">
        <ele>444.0</ele>
        <time>2022-03-01T14:38:57Z</time>
      </trkpt>
      <trkpt lat="40.0001720" lon="-4.5969730">
        <ele>444.0</ele>
        <time>2022-03-01T14:38:58Z</time>
      </trkpt>
      <trkpt lat="40.0001720" lon="-4.5969730">
        <ele>444.0</ele>
        <time>2022-03-01T14:38:59Z</time>
      </trkpt>
      <trkpt lat="40.0002550" lon="-4.5970870">
        <ele>445.0</ele>
        <time>2022-03-01T14:39:00Z</time>
      </trkpt>
      <trkpt lat="40.0002550" lon="-4.5970870">
        <ele>445.0</ele>
        <time>2022-03-01T14:39:01Z</time>
      </trkpt>
      <trkpt lat="40.0003370" lon="-4.5971980">
        <ele>445.0</ele>
        <time>2022-03-01T14:39:02Z</time>
      </trkpt>
      <trkpt lat="40.0003750" lon="-4.5972550">
        <ele>445.0</ele>
        <time>2022-03-01T14:39:03Z</time>
      </trkpt>
      <trkpt lat="40.0004220" lon="-4.5973150">
        <ele>445.0</ele>
        <time>2022-03-01T14:39:04Z</time>
      </trkpt>
      <trkpt lat="40.0004220" lon="-4.5973150">
        <ele>445.0</ele>
        <time>2022-03-01T14:39:05Z</time>
      </trkpt>
      <trkpt lat="40.0004970" lon="-4.5974230">
        <ele>445.0</ele>
        <time>2022-03-01T14:39:06Z</time>
      </trkpt>
      <trkpt lat="40.0004970" lon="-4.5974230">
        <ele>445.0</ele>
        <time>2022-03-01T14:39:07Z</time>
      </trkpt>
      <trkpt lat="40.0005770" lon="-4.5975320">
        <ele>445.0</ele>
        <time>2022-03-01T14:39:08Z</time>
      </trkpt>
      <trkpt lat="40.0006170" lon="-4.5975850">
        <ele>445.0</ele>
        <time>2022-03-01T14:39:09Z</time>
      </trkpt>
      <trkpt lat="40.0006530" lon="-4.5976370">
        <ele>445.0</ele>
        <time>2022-03-01T14:39:10Z</time>
      </trkpt>
      <trkpt lat="40.0006530" lon="-4.5976370">
        <ele>445.0</ele>
        <time>2022-03-01T14:39:11Z</time>
      </trkpt>
      <trkpt lat="40.0007250" lon="-4.5977350">
        <ele>445.0</ele>
        <time>2022-03-01T14:39:12Z</time>
      </trkpt>
      <trkpt lat="40.0007250" lon="-4.5977350">
        <ele>445.0</ele>
        <time>2022-03-01T14:39:13Z</time>
      </trkpt>
      <trkpt lat="40.0007970" lon="-4.5978370">
        <ele>445.0</ele>
        <time>2022-03-01T14:39:14Z</time>
      </trkpt>
      <trkpt lat="40.0007970" lon="-4.5978370">
        <ele>445.0</ele>
        <time>2022-03-01T14:39:15Z</time>
      </trkpt>
      <trkpt lat="40.0008720" lon="-4.5979380">
        <ele>445.0</ele>
        <time>2022-03-01T14:39:16Z</time>
      </trkpt>
      <trkpt lat="40.0008720" lon="-4.5979380">
        <ele>445.0</ele>
        <time>2022-03-01T14:39:17Z</time>
      </trkpt>
      <trkpt lat="40.0009420" lon="-4.5980420">
        <ele>445.0</ele>
        <time>2022-03-01T14:39:18Z</time>
      </trkpt>
      <trkpt lat="40.0009420" lon="-4.5980420">
        <ele>445.0</ele>
        <time>2022-03-01T14:39:19Z</time>
      </trkpt>
      <trkpt lat="40.0010200" lon="-4.5981480">
        <ele>445.0</ele>
        <time>2022-03-01T14:39:20Z</time>
      </trkpt>
      <trkpt lat="40.0010200" lon="-4.5981480">
        <ele>446.0</ele>
        <time>2022-03-01T14:39:21Z</time>
      </trkpt>
      <trkpt lat="40.0010950" lon="-4.5982550">
        <ele>446.0</ele>
        <time>2022-03-01T14:39:22Z</time>
      </trkpt>
      <trkpt lat="40.0010950" lon="-4.5982550">
        <ele>446.0</ele>
        <time>2022-03-01T14:39:23Z</time>
      </trkpt>
      <trkpt lat="40.0011770" lon="-4.5983680">
        <ele>446.0</ele>
        <time>2022-03-01T14:39:24Z</time>
      </trkpt>
      <trkpt lat="40.0011770" lon="-4.5983680">
        <ele>446.0</ele>
        <time>2022-03-01T14:39:25Z</time>
      </trkpt>
      <trkpt lat="40.0012580" lon="-4.5984780">
        <ele>446.0</ele>
        <time>2022-03-01T14:39:26Z</time>
      </trkpt>
      <trkpt lat="40.0012580" lon="-4.5984780">
        <ele>446.0</ele>
        <time>2022-03-01T14:39:27Z</time>
      </trkpt>
      <trkpt lat="40.0013400" lon="-4.5985930">
        <ele>446.0</ele>
        <time>2022-03-01T14:39:28Z</time>
      </trkpt>
      <trkpt lat="40.0013400" lon="-4.5985930">
        <ele>446.0</ele>
        <time>2022-03-01T14:39:29Z</time>
      </trkpt>
      <trkpt lat="40.0014230" lon="-4.5987050">
        <ele>446.0</ele>
        <time>2022-03-01T14:39:30Z</time>
      </trkpt>
      <trkpt lat="40.0014230" lon="-4.5987050">
        <ele>446.0</ele>
        <time>2022-03-01T14:39:31Z</time>
      </trkpt>
      <trkpt lat="40.0015000" lon="-4.5988170">
        <ele>446.0</ele>
        <time>2022-03-01T14:39:32Z</time>
      </trkpt>
      <trkpt lat="40.0015000" lon="-4.5988170">
        <ele>446.0</ele>
        <time>2022-03-01T14:39:33Z</time>
      </trkpt>
      <trkpt lat="40.0015800" lon="-4.5989300">
        <ele>446.0</ele>
        <time>2022-03-01T14:39:34Z</time>
      </trkpt>
      <trkpt lat="40.0015800" lon="-4.5989300">
        <ele>446.0</ele>
        <time>2022-03-01T14:39:35Z</time>
      </trkpt>
      <trkpt lat="40.0016600" lon="-4.5990420">
        <ele>446.0</ele>
        <time>2022-03-01T14:39:36Z</time>
      </trkpt>
      <trkpt lat="40.0016600" lon="-4.5990420">
        <ele>446.0</ele>
        <time>2022-03-01T14:39:37Z</time>
      </trkpt>
      <trkpt lat="40.0017430" lon="-4.5991500">
        <ele>446.0</ele>
        <time>2022-03-01T14:39:38Z</time>
      </trkpt>
      <trkpt lat="40.0017850" lon="-4.5992030">
        <ele>446.0</ele>
        <time>2022-03-01T14:39:39Z</time>
      </trkpt>
      <trkpt lat="40.0018250" lon="-4.5992600">
        <ele>446.0</ele>
        <time>2022-03-01T14:39:40Z</time>
      </trkpt>
      <trkpt lat="40.0018250" lon="-4.5992600">
        <ele>446.0</ele>
        <time>2022-03-01T14:39:41Z</time>
      </trkpt>
      <trkpt lat="40.0019080" lon="-4.5993770">
        <ele>446.0</ele>
        <time>2022-03-01T14:39:42Z</time>
      </trkpt>
      <trkpt lat="40.0019480" lon="-4.5994350">
        <ele>446.0</ele>
        <time>2022-03-01T14:39:43Z</time>
      </trkpt>
      <trkpt lat="40.0019480" lon="-4.5994350">
        <ele>446.0</ele>
        <time>2022-03-01T14:39:44Z</time>
      </trkpt>
      <trkpt lat="40.0020330" lon="-4.5995520">
        <ele>446.0</ele>
        <time>2022-03-01T14:39:45Z</time>
      </trkpt>
      <trkpt lat="40.0020750" lon="-4.5996080">
        <ele>446.0</ele>
        <time>2022-03-01T14:39:46Z</time>
      </trkpt>
      <trkpt lat="40.0020750" lon="-4.5996080">
        <ele>446.0</ele>
        <time>2022-03-01T14:39:47Z</time>
      </trkpt>
      <trkpt lat="40.0021630" lon="-4.5997230">
        <ele>447.0</ele>
        <time>2022-03-01T14:39:48Z</time>
      </trkpt>
      <trkpt lat="40.0022070" lon="-4.5997800">
        <ele>447.0</ele>
        <time>2022-03-01T14:39:49Z</time>
      </trkpt>
      <trkpt lat="40.0022070" lon="-4.5997800">
        <ele>447.0</ele>
        <time>2022-03-01T14:39:50Z</time>
      </trkpt>
      <trkpt lat="40.0022900" lon="-4.5998970">
        <ele>447.0</ele>
        <time>2022-03-01T14:39:51Z</time>
      </trkpt>
      <trkpt lat="40.0023330" lon="-4.5999570">
        <ele>447.0</ele>
        <time>2022-03-01T14:39:52Z</time>
      </trkpt>
      <trkpt lat="40.0023330" lon="-4.5999570">
        <ele>447.0</ele>
        <time>2022-03-01T14:39:53Z</time>
      </trkpt>
      <trkpt lat="40.0024180" lon="-4.6000770">
        <ele>447.0</ele>
        <time>2022-03-01T14:39:54Z</time>
      </trkpt>
      <trkpt lat="40.0024630" lon="-4.6001370">
        <ele>449.0</ele>
        <time>2022-03-01T14:39:55Z</time>
      </trkpt>
      <trkpt lat="40.0024630" lon="-4.6001370">
        <ele>449.0</ele>
        <time>2022-03-01T14:39:56Z</time>
      </trkpt>
      <trkpt lat="40.0025550" lon="-4.6002600">
        <ele>449.0</ele>
        <time>2022-03-01T14:39:57Z</time>
      </trkpt>
      <trkpt lat="40.0026020" lon="-4.6003220">
        <ele>449.0</ele>
        <time>2022-03-01T14:39:58Z</time>
      </trkpt>
      <trkpt lat="40.0026020" lon="-4.6003220">
        <ele>448.0</ele>
        <time>2022-03-01T14:39:59Z</time>
      </trkpt>
      <trkpt lat="40.0026930" lon="-4.6004500">
        <ele>448.0</ele>
        <time>2022-03-01T14:40:00Z</time>
      </trkpt>
      <trkpt lat="40.0026930" lon="-4.6004500">
        <ele>448.0</ele>
        <time>2022-03-01T14:40:01Z</time>
      </trkpt>
      <trkpt lat="40.0027870" lon="-4.6005770">
        <ele>448.0</ele>
        <time>2022-03-01T14:40:02Z</time>
      </trkpt>
      <trkpt lat="40.0027870" lon="-4.6005770">
        <ele>448.0</ele>
        <time>2022-03-01T14:40:03Z</time>
      </trkpt>
      <trkpt lat="40.0028780" lon="-4.6007000">
        <ele>448.0</ele>
        <time>2022-03-01T14:40:04Z</time>
      </trkpt>
      <trkpt lat="40.0028780" lon="-4.6007000">
        <ele>447.0</ele>
        <time>2022-03-01T14:40:05Z</time>
      </trkpt>
      <trkpt lat="40.0029680" lon="-4.6008250">
        <ele>447.0</ele>
        <time>2022-03-01T14:40:06Z</time>
      </trkpt>
      <trkpt lat="40.0029680" lon="-4.6008250">
        <ele>447.0</ele>
        <time>2022-03-01T14:40:07Z</time>
      </trkpt>
      <trkpt lat="40.0030580" lon="-4.6009480">
        <ele>447.0</ele>
        <time>2022-03-01T14:40:08Z</time>
      </trkpt>
      <trkpt lat="40.0031030" lon="-4.6010100">
        <ele>447.0</ele>
        <time>2022-03-01T14:40:09Z</time>
      </trkpt>
      <trkpt lat="40.0031480" lon="-4.6010720">
        <ele>447.0</ele>
        <time>2022-03-01T14:40:10Z</time>
      </trkpt>
      <trkpt lat="40.0031480" lon="-4.6010720">
        <ele>447.0</ele>
        <time>2022-03-01T14:40:11Z</time>
      </trkpt>
      <trkpt lat="40.0032330" lon="-4.6011950">
        <ele>447.0</ele>
        <time>2022-03-01T14:40:12Z</time>
      </trkpt>
      <trkpt lat="40.0032750" lon="-4.6012550">
        <ele>447.0</ele>
        <time>2022-03-01T14:40:13Z</time>
      </trkpt>
      <trkpt lat="40.0032750" lon="-4.6012550">
        <ele>447.0</ele>
        <time>2022-03-01T14:40:14Z</time>
      </trkpt>
      <trkpt lat="40.0033650" lon="-4.6013800">
        <ele>447.0</ele>
        <time>2022-03-01T14:40:15Z</time>
      </trkpt>
      <trkpt lat="40.0034130" lon="-4.6014430">
        <ele>447.0</ele>
        <time>2022-03-01T14:40:16Z</time>
      </trkpt>
      <trkpt lat="40.0034130" lon="-4.6014430">
        <ele>447.0</ele>
        <time>2022-03-01T14:40:17Z</time>
      </trkpt>
      <trkpt lat="40.0035120" lon="-4.6015750">
        <ele>447.0</ele>
        <time>2022-03-01T14:40:18Z</time>
      </trkpt>
      <trkpt lat="40.0035120" lon="-4.6015750">
        <ele>447.0</ele>
        <time>2022-03-01T14:40:19Z</time>
      </trkpt>
      <trkpt lat="40.0036080" lon="-4.6017070">
        <ele>447.0</ele>
        <time>2022-03-01T14:40:20Z</time>
      </trkpt>
      <trkpt lat="40.0036080" lon="-4.6017070">
        <ele>447.0</ele>
        <time>2022-03-01T14:40:21Z</time>
      </trkpt>
      <trkpt lat="40.0037050" lon="-4.6018420">
        <ele>447.0</ele>
        <time>2022-03-01T14:40:22Z</time>
      </trkpt>
      <trkpt lat="40.0037050" lon="-4.6018420">
        <ele>447.0</ele>
        <time>2022-03-01T14:40:23Z</time>
      </trkpt>
      <trkpt lat="40.0038050" lon="-4.6019780">
        <ele>447.0</ele>
        <time>2022-03-01T14:40:24Z</time>
      </trkpt>
      <trkpt lat="40.0038050" lon="-4.6019780">
        <ele>447.0</ele>
        <time>2022-03-01T14:40:25Z</time>
      </trkpt>
      <trkpt lat="40.0039050" lon="-4.6021150">
        <ele>447.0</ele>
        <time>2022-03-01T14:40:26Z</time>
      </trkpt>
      <trkpt lat="40.0039050" lon="-4.6021150">
        <ele>447.0</ele>
        <time>2022-03-01T14:40:27Z</time>
      </trkpt>
      <trkpt lat="40.0040050" lon="-4.6022530">
        <ele>447.0</ele>
        <time>2022-03-01T14:40:28Z</time>
      </trkpt>
      <trkpt lat="40.0040050" lon="-4.6022530">
        <ele>447.0</ele>
        <time>2022-03-01T14:40:29Z</time>
      </trkpt>
      <trkpt lat="40.0041020" lon="-4.6023880">
        <ele>447.0</ele>
        <time>2022-03-01T14:40:30Z</time>
      </trkpt>
      <trkpt lat="40.0041020" lon="-4.6023880">
        <ele>446.0</ele>
        <time>2022-03-01T14:40:31Z</time>
      </trkpt>
      <trkpt lat="40.0042000" lon="-4.6025270">
        <ele>446.0</ele>
        <time>2022-03-01T14:40:32Z</time>
      </trkpt>
      <trkpt lat="40.0042500" lon="-4.6025950">
        <ele>446.0</ele>
        <time>2022-03-01T14:40:33Z</time>
      </trkpt>
      <trkpt lat="40.0042980" lon="-4.6026630">
        <ele>446.0</ele>
        <time>2022-03-01T14:40:34Z</time>
      </trkpt>
      <trkpt lat="40.0042980" lon="-4.6026630">
        <ele>446.0</ele>
        <time>2022-03-01T14:40:35Z</time>
      </trkpt>
      <trkpt lat="40.0043980" lon="-4.6027970">
        <ele>446.0</ele>
        <time>2022-03-01T14:40:36Z</time>
      </trkpt>
      <trkpt lat="40.0043980" lon="-4.6027970">
        <ele>446.0</ele>
        <time>2022-03-01T14:40:37Z</time>
      </trkpt>
      <trkpt lat="40.0045000" lon="-4.6029330">
        <ele>446.0</ele>
        <time>2022-03-01T14:40:38Z</time>
      </trkpt>
      <trkpt lat="40.0045000" lon="-4.6029330">
        <ele>446.0</ele>
        <time>2022-03-01T14:40:39Z</time>
      </trkpt>
      <trkpt lat="40.0046000" lon="-4.6030720">
        <ele>446.0</ele>
        <time>2022-03-01T14:40:40Z</time>
      </trkpt>
      <trkpt lat="40.0046520" lon="-4.6031420">
        <ele>446.0</ele>
        <time>2022-03-01T14:40:41Z</time>
      </trkpt>
      <trkpt lat="40.0046520" lon="-4.6031420">
        <ele>446.0</ele>
        <time>2022-03-01T14:40:42Z</time>
      </trkpt>
      <trkpt lat="40.0047550" lon="-4.6032800">
        <ele>446.0</ele>
        <time>2022-03-01T14:40:43Z</time>
      </trkpt>
      <trkpt lat="40.0047550" lon="-4.6032800">
        <ele>446.0</ele>
        <time>2022-03-01T14:40:44Z</time>
      </trkpt>
      <trkpt lat="40.0048570" lon="-4.6034220">
        <ele>446.0</ele>
        <time>2022-03-01T14:40:45Z</time>
      </trkpt>
      <trkpt lat="40.0048570" lon="-4.6034220">
        <ele>446.0</ele>
        <time>2022-03-01T14:40:46Z</time>
      </trkpt>
      <trkpt lat="40.0049580" lon="-4.6035620">
        <ele>446.0</ele>
        <time>2022-03-01T14:40:47Z</time>
      </trkpt>
      <trkpt lat="40.0049580" lon="-4.6035620">
        <ele>446.0</ele>
        <time>2022-03-01T14:40:48Z</time>
      </trkpt>
      <trkpt lat="40.0050600" lon="-4.6037020">
        <ele>446.0</ele>
        <time>2022-03-01T14:40:49Z</time>
      </trkpt>
      <trkpt lat="40.0051120" lon="-4.6037730">
        <ele>446.0</ele>
        <time>2022-03-01T14:40:50Z</time>
      </trkpt>
      <trkpt lat="40.0051120" lon="-4.6037730">
        <ele>446.0</ele>
        <time>2022-03-01T14:40:51Z</time>
      </trkpt>
      <trkpt lat="40.0052130" lon="-4.6039130">
        <ele>445.0</ele>
        <time>2022-03-01T14:40:52Z</time>
      </trkpt>
      <trkpt lat="40.0052130" lon="-4.6039130">
        <ele>445.0</ele>
        <time>2022-03-01T14:40:53Z</time>
      </trkpt>
      <trkpt lat="40.0053150" lon="-4.6040520">
        <ele>445.0</ele>
        <time>2022-03-01T14:40:54Z</time>
      </trkpt>
      <trkpt lat="40.0053150" lon="-4.6040520">
        <ele>445.0</ele>
        <time>2022-03-01T14:40:55Z</time>
      </trkpt>
      <trkpt lat="40.0054150" lon="-4.6041920">
        <ele>445.0</ele>
        <time>2022-03-01T14:40:56Z</time>
      </trkpt>
      <trkpt lat="40.0054150" lon="-4.6041920">
        <ele>445.0</ele>
        <time>2022-03-01T14:40:57Z</time>
      </trkpt>
      <trkpt lat="40.0055180" lon="-4.6043320">
        <ele>445.0</ele>
        <time>2022-03-01T14:40:58Z</time>
      </trkpt>
      <trkpt lat="40.0055180" lon="-4.6043320">
        <ele>445.0</ele>
        <time>2022-03-01T14:40:59Z</time>
      </trkpt>
      <trkpt lat="40.0056200" lon="-4.6044720">
        <ele>445.0</ele>
        <time>2022-03-01T14:41:00Z</time>
      </trkpt>
      <trkpt lat="40.0056200" lon="-4.6044720">
        <ele>445.0</ele>
        <time>2022-03-01T14:41:01Z</time>
      </trkpt>
      <trkpt lat="40.0057200" lon="-4.6046120">
        <ele>445.0</ele>
        <time>2022-03-01T14:41:02Z</time>
      </trkpt>
      <trkpt lat="40.0057720" lon="-4.6046820">
        <ele>445.0</ele>
        <time>2022-03-01T14:41:03Z</time>
      </trkpt>
      <trkpt lat="40.0057720" lon="-4.6046820">
        <ele>445.0</ele>
        <time>2022-03-01T14:41:04Z</time>
      </trkpt>
      <trkpt lat="40.0058730" lon="-4.6048200">
        <ele>445.0</ele>
        <time>2022-03-01T14:41:05Z</time>
      </trkpt>
      <trkpt lat="40.0058730" lon="-4.6048200">
        <ele>445.0</ele>
        <time>2022-03-01T14:41:06Z</time>
      </trkpt>
      <trkpt lat="40.0059770" lon="-4.6049580">
        <ele>444.0</ele>
        <time>2022-03-01T14:41:07Z</time>
      </trkpt>
      <trkpt lat="40.0059770" lon="-4.6049580">
        <ele>444.0</ele>
        <time>2022-03-01T14:41:08Z</time>
      </trkpt>
      <trkpt lat="40.0060770" lon="-4.6050970">
        <ele>444.0</ele>
        <time>2022-03-01T14:41:09Z</time>
      </trkpt>
      <trkpt lat="40.0061270" lon="-4.6051670">
        <ele>444.0</ele>
        <time>2022-03-01T14:41:10Z</time>
      </trkpt>
      <trkpt lat="40.0061770" lon="-4.6052350">
        <ele>444.0</ele>
        <time>2022-03-01T14:41:11Z</time>
      </trkpt>
      <trkpt lat="40.0061770" lon="-4.6052350">
        <ele>444.0</ele>
        <time>2022-03-01T14:41:12Z</time>
      </trkpt>
      <trkpt lat="40.0062800" lon="-4.6053730">
        <ele>444.0</ele>
        <time>2022-03-01T14:41:13Z</time>
      </trkpt>
      <trkpt lat="40.0063300" lon="-4.6054430">
        <ele>444.0</ele>
        <time>2022-03-01T14:41:14Z</time>
      </trkpt>
      <trkpt lat="40.0063300" lon="-4.6054430">
        <ele>444.0</ele>
        <time>2022-03-01T14:41:15Z</time>
      </trkpt>
      <trkpt lat="40.0064320" lon="-4.6055800">
        <ele>444.0</ele>
        <time>2022-03-01T14:41:16Z</time>
      </trkpt>
      <trkpt lat="40.0064320" lon="-4.6055800">
        <ele>444.0</ele>
        <time>2022-03-01T14:41:17Z</time>
      </trkpt>
      <trkpt lat="40.0065320" lon="-4.6057230">
        <ele>444.0</ele>
        <time>2022-03-01T14:41:18Z</time>
      </trkpt>
      <trkpt lat="40.0065320" lon="-4.6057230">
        <ele>444.0</ele>
        <time>2022-03-01T14:41:19Z</time>
      </trkpt>
      <trkpt lat="40.0066350" lon="-4.6058630">
        <ele>444.0</ele>
        <time>2022-03-01T14:41:20Z</time>
      </trkpt>
      <trkpt lat="40.0066350" lon="-4.6058630">
        <ele>444.0</ele>
        <time>2022-03-01T14:41:21Z</time>
      </trkpt>
      <trkpt lat="40.0067370" lon="-4.6060030">
        <ele>444.0</ele>
        <time>2022-03-01T14:41:22Z</time>
      </trkpt>
      <trkpt lat="40.0067370" lon="-4.6060030">
        <ele>444.0</ele>
        <time>2022-03-01T14:41:23Z</time>
      </trkpt>
      <trkpt lat="40.0068380" lon="-4.6061450">
        <ele>444.0</ele>
        <time>2022-03-01T14:41:24Z</time>
      </trkpt>
      <trkpt lat="40.0068380" lon="-4.6061450">
        <ele>444.0</ele>
        <time>2022-03-01T14:41:25Z</time>
      </trkpt>
      <trkpt lat="40.0069400" lon="-4.6062850">
        <ele>444.0</ele>
        <time>2022-03-01T14:41:26Z</time>
      </trkpt>
      <trkpt lat="40.0069400" lon="-4.6062850">
        <ele>444.0</ele>
        <time>2022-03-01T14:41:27Z</time>
      </trkpt>
      <trkpt lat="40.0070420" lon="-4.6064230">
        <ele>444.0</ele>
        <time>2022-03-01T14:41:28Z</time>
      </trkpt>
      <trkpt lat="40.0070420" lon="-4.6064230">
        <ele>444.0</ele>
        <time>2022-03-01T14:41:29Z</time>
      </trkpt>
      <trkpt lat="40.0071420" lon="-4.6065630">
        <ele>444.0</ele>
        <time>2022-03-01T14:41:30Z</time>
      </trkpt>
      <trkpt lat="40.0071920" lon="-4.6066320">
        <ele>444.0</ele>
        <time>2022-03-01T14:41:31Z</time>
      </trkpt>
      <trkpt lat="40.0071920" lon="-4.6066320">
        <ele>444.0</ele>
        <time>2022-03-01T14:41:32Z</time>
      </trkpt>
      <trkpt lat="40.0072920" lon="-4.6067700">
        <ele>444.0</ele>
        <time>2022-03-01T14:41:33Z</time>
      </trkpt>
      <trkpt lat="40.0072920" lon="-4.6067700">
        <ele>444.0</ele>
        <time>2022-03-01T14:41:34Z</time>
      </trkpt>
      <trkpt lat="40.0073900" lon="-4.6069070">
        <ele>444.0</ele>
        <time>2022-03-01T14:41:35Z</time>
      </trkpt>
      <trkpt lat="40.0073900" lon="-4.6069070">
        <ele>444.0</ele>
        <time>2022-03-01T14:41:36Z</time>
      </trkpt>
      <trkpt lat="40.0074900" lon="-4.6070420">
        <ele>444.0</ele>
        <time>2022-03-01T14:41:37Z</time>
      </trkpt>
      <trkpt lat="40.0075370" lon="-4.6071100">
        <ele>444.0</ele>
        <time>2022-03-01T14:41:38Z</time>
      </trkpt>
      <trkpt lat="40.0075370" lon="-4.6071100">
        <ele>444.0</ele>
        <time>2022-03-01T14:41:39Z</time>
      </trkpt>
      <trkpt lat="40.0076350" lon="-4.6072450">
        <ele>444.0</ele>
        <time>2022-03-01T14:41:40Z</time>
      </trkpt>
      <trkpt lat="40.0076350" lon="-4.6072450">
        <ele>444.0</ele>
        <time>2022-03-01T14:41:41Z</time>
      </trkpt>
      <trkpt lat="40.0077350" lon="-4.6073820">
        <ele>444.0</ele>
        <time>2022-03-01T14:41:42Z</time>
      </trkpt>
      <trkpt lat="40.0077850" lon="-4.6074500">
        <ele>444.0</ele>
        <time>2022-03-01T14:41:43Z</time>
      </trkpt>
      <trkpt lat="40.0077850" lon="-4.6074500">
        <ele>444.0</ele>
        <time>2022-03-01T14:41:44Z</time>
      </trkpt>
      <trkpt lat="40.0078870" lon="-4.6075880">
        <ele>444.0</ele>
        <time>2022-03-01T14:41:45Z</time>
      </trkpt>
      <trkpt lat="40.0079370" lon="-4.6076570">
        <ele>444.0</ele>
        <time>2022-03-01T14:41:46Z</time>
      </trkpt>
      <trkpt lat="40.0079370" lon="-4.6076570">
        <ele>444.0</ele>
        <time>2022-03-01T14:41:47Z</time>
      </trkpt>
      <trkpt lat="40.0080380" lon="-4.6077970">
        <ele>444.0</ele>
        <time>2022-03-01T14:41:48Z</time>
      </trkpt>
      <trkpt lat="40.0080380" lon="-4.6077970">
        <ele>444.0</ele>
        <time>2022-03-01T14:41:49Z</time>
      </trkpt>
      <trkpt lat="40.0081430" lon="-4.6079320">
        <ele>444.0</ele>
        <time>2022-03-01T14:41:50Z</time>
      </trkpt>
      <trkpt lat="40.0081950" lon="-4.6080020">
        <ele>444.0</ele>
        <time>2022-03-01T14:41:51Z</time>
      </trkpt>
      <trkpt lat="40.0081950" lon="-4.6080020">
        <ele>444.0</ele>
        <time>2022-03-01T14:41:52Z</time>
      </trkpt>
      <trkpt lat="40.0082980" lon="-4.6081420">
        <ele>444.0</ele>
        <time>2022-03-01T14:41:53Z</time>
      </trkpt>
      <trkpt lat="40.0083480" lon="-4.6082120">
        <ele>444.0</ele>
        <time>2022-03-01T14:41:54Z</time>
      </trkpt>
      <trkpt lat="40.0083480" lon="-4.6082120">
        <ele>444.0</ele>
        <time>2022-03-01T14:41:55Z</time>
      </trkpt>
      <trkpt lat="40.0084450" lon="-4.6083530">
        <ele>444.0</ele>
        <time>2022-03-01T14:41:56Z</time>
      </trkpt>
      <trkpt lat="40.0084450" lon="-4.6083530">
        <ele>444.0</ele>
        <time>2022-03-01T14:41:57Z</time>
      </trkpt>
      <trkpt lat="40.0085470" lon="-4.6084920">
        <ele>443.0</ele>
        <time>2022-03-01T14:41:58Z</time>
      </trkpt>
      <trkpt lat="40.0085470" lon="-4.6084920">
        <ele>443.0</ele>
        <time>2022-03-01T14:41:59Z</time>
      </trkpt>
      <trkpt lat="40.0086480" lon="-4.6086300">
        <ele>443.0</ele>
        <time>2022-03-01T14:42:00Z</time>
      </trkpt>
      <trkpt lat="40.0086480" lon="-4.6086300">
        <ele>443.0</ele>
        <time>2022-03-01T14:42:01Z</time>
      </trkpt>
      <trkpt lat="40.0087520" lon="-4.6087700">
        <ele>443.0</ele>
        <time>2022-03-01T14:42:02Z</time>
      </trkpt>
      <trkpt lat="40.0087520" lon="-4.6087700">
        <ele>443.0</ele>
        <time>2022-03-01T14:42:03Z</time>
      </trkpt>
      <trkpt lat="40.0088550" lon="-4.6089120">
        <ele>443.0</ele>
        <time>2022-03-01T14:42:04Z</time>
      </trkpt>
      <trkpt lat="40.0089070" lon="-4.6089820">
        <ele>443.0</ele>
        <time>2022-03-01T14:42:05Z</time>
      </trkpt>
      <trkpt lat="40.0089070" lon="-4.6089820">
        <ele>443.0</ele>
        <time>2022-03-01T14:42:06Z</time>
      </trkpt>
      <trkpt lat="40.0090080" lon="-4.6091250">
        <ele>443.0</ele>
        <time>2022-03-01T14:42:07Z</time>
      </trkpt>
      <trkpt lat="40.0090080" lon="-4.6091250">
        <ele>443.0</ele>
        <time>2022-03-01T14:42:08Z</time>
      </trkpt>
      <trkpt lat="40.0091120" lon="-4.6092650">
        <ele>443.0</ele>
        <time>2022-03-01T14:42:09Z</time>
      </trkpt>
      <trkpt lat="40.0091630" lon="-4.6093330">
        <ele>443.0</ele>
        <time>2022-03-01T14:42:10Z</time>
      </trkpt>
      <trkpt lat="40.0091630" lon="-4.6093330">
        <ele>443.0</ele>
        <time>2022-03-01T14:42:11Z</time>
      </trkpt>
      <trkpt lat="40.0092650" lon="-4.6094720">
        <ele>443.0</ele>
        <time>2022-03-01T14:42:12Z</time>
      </trkpt>
      <trkpt lat="40.0093150" lon="-4.6095400">
        <ele>443.0</ele>
        <time>2022-03-01T14:42:13Z</time>
      </trkpt>
      <trkpt lat="40.0093650" lon="-4.6096080">
        <ele>443.0</ele>
        <time>2022-03-01T14:42:14Z</time>
      </trkpt>
      <trkpt lat="40.0093650" lon="-4.6096080">
        <ele>443.0</ele>
        <time>2022-03-01T14:42:15Z</time>
      </trkpt>
      <trkpt lat="40.0094600" lon="-4.6097430">
        <ele>443.0</ele>
        <time>2022-03-01T14:42:16Z</time>
      </trkpt>
      <trkpt lat="40.0094600" lon="-4.6097430">
        <ele>443.0</ele>
        <time>2022-03-01T14:42:17Z</time>
      </trkpt>
      <trkpt lat="40.0095580" lon="-4.6098730">
        <ele>443.0</ele>
        <time>2022-03-01T14:42:18Z</time>
      </trkpt>
      <trkpt lat="40.0096050" lon="-4.6099370">
        <ele>443.0</ele>
        <time>2022-03-01T14:42:19Z</time>
      </trkpt>
      <trkpt lat="40.0096050" lon="-4.6099370">
        <ele>443.0</ele>
        <time>2022-03-01T14:42:20Z</time>
      </trkpt>
      <trkpt lat="40.0096950" lon="-4.6100630">
        <ele>443.0</ele>
        <time>2022-03-01T14:42:21Z</time>
      </trkpt>
      <trkpt lat="40.0096950" lon="-4.6100630">
        <ele>444.0</ele>
        <time>2022-03-01T14:42:22Z</time>
      </trkpt>
      <trkpt lat="40.0097820" lon="-4.6101900">
        <ele>444.0</ele>
        <time>2022-03-01T14:42:23Z</time>
      </trkpt>
      <trkpt lat="40.0098250" lon="-4.6102520">
        <ele>444.0</ele>
        <time>2022-03-01T14:42:24Z</time>
      </trkpt>
      <trkpt lat="40.0098250" lon="-4.6102520">
        <ele>444.0</ele>
        <time>2022-03-01T14:42:25Z</time>
      </trkpt>
      <trkpt lat="40.0099100" lon="-4.6103730">
        <ele>444.0</ele>
        <time>2022-03-01T14:42:26Z</time>
      </trkpt>
      <trkpt lat="40.0099480" lon="-4.6104330">
        <ele>444.0</ele>
        <time>2022-03-01T14:42:27Z</time>
      </trkpt>
      <trkpt lat="40.0099480" lon="-4.6104330">
        <ele>444.0</ele>
        <time>2022-03-01T14:42:28Z</time>
      </trkpt>
      <trkpt lat="40.0100200" lon="-4.6105550">
        <ele>444.0</ele>
        <time>2022-03-01T14:42:29Z</time>
      </trkpt>
      <trkpt lat="40.0100200" lon="-4.6105550">
        <ele>444.0</ele>
        <time>2022-03-01T14:42:30Z</time>
      </trkpt>
      <trkpt lat="40.0100820" lon="-4.6106770">
        <ele>444.0</ele>
        <time>2022-03-01T14:42:31Z</time>
      </trkpt>
      <trkpt lat="40.0100820" lon="-4.6106770">
        <ele>444.0</ele>
        <time>2022-03-01T14:42:32Z</time>
      </trkpt>
      <trkpt lat="40.0101400" lon="-4.6107970">
        <ele>444.0</ele>
        <time>2022-03-01T14:42:33Z</time>
      </trkpt>
      <trkpt lat="40.0101400" lon="-4.6107970">
        <ele>444.0</ele>
        <time>2022-03-01T14:42:34Z</time>
      </trkpt>
      <trkpt lat="40.0101930" lon="-4.6109150">
        <ele>444.0</ele>
        <time>2022-03-01T14:42:35Z</time>
      </trkpt>
      <trkpt lat="40.0101930" lon="-4.6109150">
        <ele>444.0</ele>
        <time>2022-03-01T14:42:36Z</time>
      </trkpt>
      <trkpt lat="40.0102420" lon="-4.6110320">
        <ele>444.0</ele>
        <time>2022-03-01T14:42:37Z</time>
      </trkpt>
      <trkpt lat="40.0102420" lon="-4.6110320">
        <ele>444.0</ele>
        <time>2022-03-01T14:42:38Z</time>
      </trkpt>
      <trkpt lat="40.0102830" lon="-4.6111480">
        <ele>445.0</ele>
        <time>2022-03-01T14:42:39Z</time>
      </trkpt>
      <trkpt lat="40.0102830" lon="-4.6111480">
        <ele>445.0</ele>
        <time>2022-03-01T14:42:40Z</time>
      </trkpt>
      <trkpt lat="40.0103200" lon="-4.6112700">
        <ele>445.0</ele>
        <time>2022-03-01T14:42:41Z</time>
      </trkpt>
      <trkpt lat="40.0103200" lon="-4.6112700">
        <ele>445.0</ele>
        <time>2022-03-01T14:42:42Z</time>
      </trkpt>
      <trkpt lat="40.0103530" lon="-4.6113950">
        <ele>446.0</ele>
        <time>2022-03-01T14:42:43Z</time>
      </trkpt>
      <trkpt lat="40.0103530" lon="-4.6113950">
        <ele>446.0</ele>
        <time>2022-03-01T14:42:44Z</time>
      </trkpt>
      <trkpt lat="40.0103820" lon="-4.6115250">
        <ele>446.0</ele>
        <time>2022-03-01T14:42:45Z</time>
      </trkpt>
      <trkpt lat="40.0103820" lon="-4.6115250">
        <ele>446.0</ele>
        <time>2022-03-01T14:42:46Z</time>
      </trkpt>
      <trkpt lat="40.0104070" lon="-4.6116580">
        <ele>446.0</ele>
        <time>2022-03-01T14:42:47Z</time>
      </trkpt>
      <trkpt lat="40.0104170" lon="-4.6117230">
        <ele>446.0</ele>
        <time>2022-03-01T14:42:48Z</time>
      </trkpt>
      <trkpt lat="40.0104170" lon="-4.6117230">
        <ele>447.0</ele>
        <time>2022-03-01T14:42:49Z</time>
      </trkpt>
      <trkpt lat="40.0104350" lon="-4.6118520">
        <ele>447.0</ele>
        <time>2022-03-01T14:42:50Z</time>
      </trkpt>
      <trkpt lat="40.0104420" lon="-4.6119150">
        <ele>447.0</ele>
        <time>2022-03-01T14:42:51Z</time>
      </trkpt>
      <trkpt lat="40.0104420" lon="-4.6119150">
        <ele>447.0</ele>
        <time>2022-03-01T14:42:52Z</time>
      </trkpt>
      <trkpt lat="40.0104530" lon="-4.6120420">
        <ele>448.0</ele>
        <time>2022-03-01T14:42:53Z</time>
      </trkpt>
      <trkpt lat="40.0104580" lon="-4.6121050">
        <ele>448.0</ele>
        <time>2022-03-01T14:42:54Z</time>
      </trkpt>
      <trkpt lat="40.0104620" lon="-4.6121680">
        <ele>448.0</ele>
        <time>2022-03-01T14:42:55Z</time>
      </trkpt>
      <trkpt lat="40.0104620" lon="-4.6121680">
        <ele>448.0</ele>
        <time>2022-03-01T14:42:56Z</time>
      </trkpt>
      <trkpt lat="40.0104630" lon="-4.6122980">
        <ele>448.0</ele>
        <time>2022-03-01T14:42:57Z</time>
      </trkpt>
      <trkpt lat="40.0104620" lon="-4.6123620">
        <ele>448.0</ele>
        <time>2022-03-01T14:42:58Z</time>
      </trkpt>
      <trkpt lat="40.0104620" lon="-4.6123620">
        <ele>449.0</ele>
        <time>2022-03-01T14:42:59Z</time>
      </trkpt>
      <trkpt lat="40.0104600" lon="-4.6124900">
        <ele>449.0</ele>
        <time>2022-03-01T14:43:00Z</time>
      </trkpt>
      <trkpt lat="40.0104600" lon="-4.6124900">
        <ele>449.0</ele>
        <time>2022-03-01T14:43:01Z</time>
      </trkpt>
      <trkpt lat="40.0104520" lon="-4.6126170">
        <ele>449.0</ele>
        <time>2022-03-01T14:43:02Z</time>
      </trkpt>
      <trkpt lat="40.0104520" lon="-4.6126170">
        <ele>450.0</ele>
        <time>2022-03-01T14:43:03Z</time>
      </trkpt>
      <trkpt lat="40.0104370" lon="-4.6127430">
        <ele>450.0</ele>
        <time>2022-03-01T14:43:04Z</time>
      </trkpt>
      <trkpt lat="40.0104370" lon="-4.6127430">
        <ele>450.0</ele>
        <time>2022-03-01T14:43:05Z</time>
      </trkpt>
      <trkpt lat="40.0104220" lon="-4.6128650">
        <ele>450.0</ele>
        <time>2022-03-01T14:43:06Z</time>
      </trkpt>
      <trkpt lat="40.0104220" lon="-4.6128650">
        <ele>450.0</ele>
        <time>2022-03-01T14:43:07Z</time>
      </trkpt>
      <trkpt lat="40.0104030" lon="-4.6129820">
        <ele>450.0</ele>
        <time>2022-03-01T14:43:08Z</time>
      </trkpt>
      <trkpt lat="40.0103920" lon="-4.6130380">
        <ele>451.0</ele>
        <time>2022-03-01T14:43:09Z</time>
      </trkpt>
      <trkpt lat="40.0103920" lon="-4.6130380">
        <ele>451.0</ele>
        <time>2022-03-01T14:43:10Z</time>
      </trkpt>
      <trkpt lat="40.0103700" lon="-4.6131550">
        <ele>451.0</ele>
        <time>2022-03-01T14:43:11Z</time>
      </trkpt>
      <trkpt lat="40.0103700" lon="-4.6131550">
        <ele>451.0</ele>
        <time>2022-03-01T14:43:12Z</time>
      </trkpt>
      <trkpt lat="40.0103420" lon="-4.6132700">
        <ele>452.0</ele>
        <time>2022-03-01T14:43:13Z</time>
      </trkpt>
      <trkpt lat="40.0103420" lon="-4.6132700">
        <ele>452.0</ele>
        <time>2022-03-01T14:43:14Z</time>
      </trkpt>
      <trkpt lat="40.0103120" lon="-4.6133850">
        <ele>452.0</ele>
        <time>2022-03-01T14:43:15Z</time>
      </trkpt>
      <trkpt lat="40.0103120" lon="-4.6133850">
        <ele>452.0</ele>
        <time>2022-03-01T14:43:16Z</time>
      </trkpt>
      <trkpt lat="40.0102800" lon="-4.6134980">
        <ele>452.0</ele>
        <time>2022-03-01T14:43:17Z</time>
      </trkpt>
      <trkpt lat="40.0102800" lon="-4.6134980">
        <ele>452.0</ele>
        <time>2022-03-01T14:43:18Z</time>
      </trkpt>
      <trkpt lat="40.0102480" lon="-4.6136070">
        <ele>453.0</ele>
        <time>2022-03-01T14:43:19Z</time>
      </trkpt>
      <trkpt lat="40.0102480" lon="-4.6136070">
        <ele>453.0</ele>
        <time>2022-03-01T14:43:20Z</time>
      </trkpt>
      <trkpt lat="40.0102150" lon="-4.6137130">
        <ele>453.0</ele>
        <time>2022-03-01T14:43:21Z</time>
      </trkpt>
      <trkpt lat="40.0102000" lon="-4.6137670">
        <ele>453.0</ele>
        <time>2022-03-01T14:43:22Z</time>
      </trkpt>
      <trkpt lat="40.0102000" lon="-4.6137670">
        <ele>454.0</ele>
        <time>2022-03-01T14:43:23Z</time>
      </trkpt>
      <trkpt lat="40.0101680" lon="-4.6138720">
        <ele>454.0</ele>
        <time>2022-03-01T14:43:24Z</time>
      </trkpt>
      <trkpt lat="40.0101680" lon="-4.6138720">
        <ele>454.0</ele>
        <time>2022-03-01T14:43:25Z</time>
      </trkpt>
      <trkpt lat="40.0101370" lon="-4.6139750">
        <ele>455.0</ele>
        <time>2022-03-01T14:43:26Z</time>
      </trkpt>
      <trkpt lat="40.0101370" lon="-4.6139750">
        <ele>455.0</ele>
        <time>2022-03-01T14:43:27Z</time>
      </trkpt>
      <trkpt lat="40.0101100" lon="-4.6140820">
        <ele>455.0</ele>
        <time>2022-03-01T14:43:28Z</time>
      </trkpt>
      <trkpt lat="40.0100970" lon="-4.6141330">
        <ele>455.0</ele>
        <time>2022-03-01T14:43:29Z</time>
      </trkpt>
      <trkpt lat="40.0100970" lon="-4.6141330">
        <ele>455.0</ele>
        <time>2022-03-01T14:43:30Z</time>
      </trkpt>
      <trkpt lat="40.0100670" lon="-4.6142430">
        <ele>455.0</ele>
        <time>2022-03-01T14:43:31Z</time>
      </trkpt>
      <trkpt lat="40.0100670" lon="-4.6142430">
        <ele>456.0</ele>
        <time>2022-03-01T14:43:32Z</time>
      </trkpt>
      <trkpt lat="40.0100330" lon="-4.6143550">
        <ele>456.0</ele>
        <time>2022-03-01T14:43:33Z</time>
      </trkpt>
      <trkpt lat="40.0100170" lon="-4.6144100">
        <ele>456.0</ele>
        <time>2022-03-01T14:43:34Z</time>
      </trkpt>
      <trkpt lat="40.0100170" lon="-4.6144100">
        <ele>456.0</ele>
        <time>2022-03-01T14:43:35Z</time>
      </trkpt>
      <trkpt lat="40.0099870" lon="-4.6145220">
        <ele>457.0</ele>
        <time>2022-03-01T14:43:36Z</time>
      </trkpt>
      <trkpt lat="40.0099700" lon="-4.6145800">
        <ele>457.0</ele>
        <time>2022-03-01T14:43:37Z</time>
      </trkpt>
      <trkpt lat="40.0099550" lon="-4.6146370">
        <ele>457.0</ele>
        <time>2022-03-01T14:43:38Z</time>
      </trkpt>
      <trkpt lat="40.0099550" lon="-4.6146370">
        <ele>457.0</ele>
        <time>2022-03-01T14:43:39Z</time>
      </trkpt>
      <trkpt lat="40.0099230" lon="-4.6147500">
        <ele>458.0</ele>
        <time>2022-03-01T14:43:40Z</time>
      </trkpt>
      <trkpt lat="40.0099070" lon="-4.6148080">
        <ele>458.0</ele>
        <time>2022-03-01T14:43:41Z</time>
      </trkpt>
      <trkpt lat="40.0099070" lon="-4.6148080">
        <ele>458.0</ele>
        <time>2022-03-01T14:43:42Z</time>
      </trkpt>
      <trkpt lat="40.0098730" lon="-4.6149270">
        <ele>458.0</ele>
        <time>2022-03-01T14:43:43Z</time>
      </trkpt>
      <trkpt lat="40.0098550" lon="-4.6149870">
        <ele>458.0</ele>
        <time>2022-03-01T14:43:44Z</time>
      </trkpt>
      <trkpt lat="40.0098550" lon="-4.6149870">
        <ele>458.0</ele>
        <time>2022-03-01T14:43:45Z</time>
      </trkpt>
      <trkpt lat="40.0098220" lon="-4.6151070">
        <ele>459.0</ele>
        <time>2022-03-01T14:43:46Z</time>
      </trkpt>
      <trkpt lat="40.0098070" lon="-4.6151670">
        <ele>459.0</ele>
        <time>2022-03-01T14:43:47Z</time>
      </trkpt>
      <trkpt lat="40.0098070" lon="-4.6151670">
        <ele>459.0</ele>
        <time>2022-03-01T14:43:48Z</time>
      </trkpt>
      <trkpt lat="40.0097720" lon="-4.6152900">
        <ele>459.0</ele>
        <time>2022-03-01T14:43:49Z</time>
      </trkpt>
      <trkpt lat="40.0097720" lon="-4.6152900">
        <ele>459.0</ele>
        <time>2022-03-01T14:43:50Z</time>
      </trkpt>
      <trkpt lat="40.0097370" lon="-4.6154120">
        <ele>459.0</ele>
        <time>2022-03-01T14:43:51Z</time>
      </trkpt>
      <trkpt lat="40.0097370" lon="-4.6154120">
        <ele>459.0</ele>
        <time>2022-03-01T14:43:52Z</time>
      </trkpt>
      <trkpt lat="40.0097050" lon="-4.6155330">
        <ele>459.0</ele>
        <time>2022-03-01T14:43:53Z</time>
      </trkpt>
      <trkpt lat="40.0096880" lon="-4.6155930">
        <ele>460.0</ele>
        <time>2022-03-01T14:43:54Z</time>
      </trkpt>
      <trkpt lat="40.0096880" lon="-4.6155930">
        <ele>460.0</ele>
        <time>2022-03-01T14:43:55Z</time>
      </trkpt>
      <trkpt lat="40.0096550" lon="-4.6157170">
        <ele>460.0</ele>
        <time>2022-03-01T14:43:56Z</time>
      </trkpt>
      <trkpt lat="40.0096400" lon="-4.6157780">
        <ele>460.0</ele>
        <time>2022-03-01T14:43:57Z</time>
      </trkpt>
      <trkpt lat="40.0096400" lon="-4.6157780">
        <ele>460.0</ele>
        <time>2022-03-01T14:43:58Z</time>
      </trkpt>
      <trkpt lat="40.0096100" lon="-4.6159030">
        <ele>460.0</ele>
        <time>2022-03-01T14:43:59Z</time>
      </trkpt>
      <trkpt lat="40.0096100" lon="-4.6159030">
        <ele>460.0</ele>
        <time>2022-03-01T14:44:00Z</time>
      </trkpt>
      <trkpt lat="40.0095820" lon="-4.6160350">
        <ele>460.0</ele>
        <time>2022-03-01T14:44:01Z</time>
      </trkpt>
      <trkpt lat="40.0095820" lon="-4.6160350">
        <ele>461.0</ele>
        <time>2022-03-01T14:44:02Z</time>
      </trkpt>
      <trkpt lat="40.0095570" lon="-4.6161670">
        <ele>461.0</ele>
        <time>2022-03-01T14:44:03Z</time>
      </trkpt>
      <trkpt lat="40.0095570" lon="-4.6161670">
        <ele>461.0</ele>
        <time>2022-03-01T14:44:04Z</time>
      </trkpt>
      <trkpt lat="40.0095350" lon="-4.6162980">
        <ele>461.0</ele>
        <time>2022-03-01T14:44:05Z</time>
      </trkpt>
      <trkpt lat="40.0095350" lon="-4.6162980">
        <ele>461.0</ele>
        <time>2022-03-01T14:44:06Z</time>
      </trkpt>
      <trkpt lat="40.0095120" lon="-4.6164350">
        <ele>461.0</ele>
        <time>2022-03-01T14:44:07Z</time>
      </trkpt>
      <trkpt lat="40.0095020" lon="-4.6165020">
        <ele>461.0</ele>
        <time>2022-03-01T14:44:08Z</time>
      </trkpt>
      <trkpt lat="40.0094930" lon="-4.6165770">
        <ele>461.0</ele>
        <time>2022-03-01T14:44:09Z</time>
      </trkpt>
      <trkpt lat="40.0094820" lon="-4.6166480">
        <ele>461.0</ele>
        <time>2022-03-01T14:44:10Z</time>
      </trkpt>
      <trkpt lat="40.0094820" lon="-4.6166480">
        <ele>461.0</ele>
        <time>2022-03-01T14:44:11Z</time>
      </trkpt>
      <trkpt lat="40.0094600" lon="-4.6167950">
        <ele>461.0</ele>
        <time>2022-03-01T14:44:12Z</time>
      </trkpt>
      <trkpt lat="40.0094530" lon="-4.6168650">
        <ele>461.0</ele>
        <time>2022-03-01T14:44:13Z</time>
      </trkpt>
      <trkpt lat="40.0094530" lon="-4.6168650">
        <ele>461.0</ele>
        <time>2022-03-01T14:44:14Z</time>
      </trkpt>
      <trkpt lat="40.0094480" lon="-4.6170050">
        <ele>461.0</ele>
        <time>2022-03-01T14:44:15Z</time>
      </trkpt>
      <trkpt lat="40.0094480" lon="-4.6170050">
        <ele>461.0</ele>
        <time>2022-03-01T14:44:16Z</time>
      </trkpt>
      <trkpt lat="40.0094670" lon="-4.6171430">
        <ele>461.0</ele>
        <time>2022-03-01T14:44:17Z</time>
      </trkpt>
      <trkpt lat="40.0094800" lon="-4.6172130">
        <ele>460.0</ele>
        <time>2022-03-01T14:44:18Z</time>
      </trkpt>
      <trkpt lat="40.0094800" lon="-4.6172130">
        <ele>460.0</ele>
        <time>2022-03-01T14:44:19Z</time>
      </trkpt>
      <trkpt lat="40.0094870" lon="-4.6173570">
        <ele>460.0</ele>
        <time>2022-03-01T14:44:20Z</time>
      </trkpt>
      <trkpt lat="40.0094680" lon="-4.6174280">
        <ele>460.0</ele>
        <time>2022-03-01T14:44:21Z</time>
      </trkpt>
      <trkpt lat="40.0094350" lon="-4.6174970">
        <ele>460.0</ele>
        <time>2022-03-01T14:44:22Z</time>
      </trkpt>
      <trkpt lat="40.0094350" lon="-4.6174970">
        <ele>460.0</ele>
        <time>2022-03-01T14:44:23Z</time>
      </trkpt>
      <trkpt lat="40.0093680" lon="-4.6176330">
        <ele>460.0</ele>
        <time>2022-03-01T14:44:24Z</time>
      </trkpt>
      <trkpt lat="40.0093680" lon="-4.6176330">
        <ele>460.0</ele>
        <time>2022-03-01T14:44:25Z</time>
      </trkpt>
      <trkpt lat="40.0093330" lon="-4.6177950">
        <ele>460.0</ele>
        <time>2022-03-01T14:44:26Z</time>
      </trkpt>
      <trkpt lat="40.0093330" lon="-4.6177950">
        <ele>460.0</ele>
        <time>2022-03-01T14:44:27Z</time>
      </trkpt>
      <trkpt lat="40.0093130" lon="-4.6179700">
        <ele>458.0</ele>
        <time>2022-03-01T14:44:28Z</time>
      </trkpt>
      <trkpt lat="40.0093130" lon="-4.6179700">
        <ele>458.0</ele>
        <time>2022-03-01T14:44:29Z</time>
      </trkpt>
      <trkpt lat="40.0092880" lon="-4.6181480">
        <ele>458.0</ele>
        <time>2022-03-01T14:44:30Z</time>
      </trkpt>
      <trkpt lat="40.0092750" lon="-4.6182380">
        <ele>458.0</ele>
        <time>2022-03-01T14:44:31Z</time>
      </trkpt>
      <trkpt lat="40.0092750" lon="-4.6182380">
        <ele>457.0</ele>
        <time>2022-03-01T14:44:32Z</time>
      </trkpt>
      <trkpt lat="40.0092500" lon="-4.6184270">
        <ele>457.0</ele>
        <time>2022-03-01T14:44:33Z</time>
      </trkpt>
      <trkpt lat="40.0092380" lon="-4.6185230">
        <ele>456.0</ele>
        <time>2022-03-01T14:44:34Z</time>
      </trkpt>
      <trkpt lat="40.0092380" lon="-4.6185230">
        <ele>456.0</ele>
        <time>2022-03-01T14:44:35Z</time>
      </trkpt>
      <trkpt lat="40.0092120" lon="-4.6187180">
        <ele>455.0</ele>
        <time>2022-03-01T14:44:36Z</time>
      </trkpt>
      <trkpt lat="40.0092120" lon="-4.6187180">
        <ele>455.0</ele>
        <time>2022-03-01T14:44:37Z</time>
      </trkpt>
      <trkpt lat="40.0091820" lon="-4.6189180">
        <ele>455.0</ele>
        <time>2022-03-01T14:44:38Z</time>
      </trkpt>
      <trkpt lat="40.0091820" lon="-4.6189180">
        <ele>455.0</ele>
        <time>2022-03-01T14:44:39Z</time>
      </trkpt>
      <trkpt lat="40.0091520" lon="-4.6191270">
        <ele>453.0</ele>
        <time>2022-03-01T14:44:40Z</time>
      </trkpt>
      <trkpt lat="40.0091520" lon="-4.6191270">
        <ele>453.0</ele>
        <time>2022-03-01T14:44:41Z</time>
      </trkpt>
      <trkpt lat="40.0091220" lon="-4.6193350">
        <ele>453.0</ele>
        <time>2022-03-01T14:44:42Z</time>
      </trkpt>
      <trkpt lat="40.0091070" lon="-4.6194430">
        <ele>453.0</ele>
        <time>2022-03-01T14:44:43Z</time>
      </trkpt>
      <trkpt lat="40.0091070" lon="-4.6194430">
        <ele>452.0</ele>
        <time>2022-03-01T14:44:44Z</time>
      </trkpt>
      <trkpt lat="40.0090780" lon="-4.6196550">
        <ele>452.0</ele>
        <time>2022-03-01T14:44:45Z</time>
      </trkpt>
      <trkpt lat="40.0090780" lon="-4.6196550">
        <ele>452.0</ele>
        <time>2022-03-01T14:44:46Z</time>
      </trkpt>
      <trkpt lat="40.0090570" lon="-4.6198600">
        <ele>452.0</ele>
        <time>2022-03-01T14:44:47Z</time>
      </trkpt>
      <trkpt lat="40.0090550" lon="-4.6199620">
        <ele>451.0</ele>
        <time>2022-03-01T14:44:48Z</time>
      </trkpt>
      <trkpt lat="40.0090550" lon="-4.6199620">
        <ele>451.0</ele>
        <time>2022-03-01T14:44:49Z</time>
      </trkpt>
      <trkpt lat="40.0090620" lon="-4.6201480">
        <ele>451.0</ele>
        <time>2022-03-01T14:44:50Z</time>
      </trkpt>
      <trkpt lat="40.0090620" lon="-4.6201480">
        <ele>451.0</ele>
        <time>2022-03-01T14:44:51Z</time>
      </trkpt>
      <trkpt lat="40.0091150" lon="-4.6203050">
        <ele>451.0</ele>
        <time>2022-03-01T14:44:52Z</time>
      </trkpt>
      <trkpt lat="40.0091150" lon="-4.6203050">
        <ele>451.0</ele>
        <time>2022-03-01T14:44:53Z</time>
      </trkpt>
      <trkpt lat="40.0091930" lon="-4.6204280">
        <ele>451.0</ele>
        <time>2022-03-01T14:44:54Z</time>
      </trkpt>
      <trkpt lat="40.0092300" lon="-4.6204850">
        <ele>451.0</ele>
        <time>2022-03-01T14:44:55Z</time>
      </trkpt>
      <trkpt lat="40.0092300" lon="-4.6204850">
        <ele>452.0</ele>
        <time>2022-03-01T14:44:56Z</time>
      </trkpt>
      <trkpt lat="40.0093070" lon="-4.6205770">
        <ele>452.0</ele>
        <time>2022-03-01T14:44:57Z</time>
      </trkpt>
      <trkpt lat="40.0093070" lon="-4.6205770">
        <ele>453.0</ele>
        <time>2022-03-01T14:44:58Z</time>
      </trkpt>
      <trkpt lat="40.0093980" lon="-4.6206280">
        <ele>453.0</ele>
        <time>2022-03-01T14:44:59Z</time>
      </trkpt>
      <trkpt lat="40.0094420" lon="-4.6206480">
        <ele>453.0</ele>
        <time>2022-03-01T14:45:00Z</time>
      </trkpt>
      <trkpt lat="40.0094420" lon="-4.6206480">
        <ele>453.0</ele>
        <time>2022-03-01T14:45:01Z</time>
      </trkpt>
      <trkpt lat="40.0095280" lon="-4.6206820">
        <ele>454.0</ele>
        <time>2022-03-01T14:45:02Z</time>
      </trkpt>
      <trkpt lat="40.0095280" lon="-4.6206820">
        <ele>454.0</ele>
        <time>2022-03-01T14:45:03Z</time>
      </trkpt>
      <trkpt lat="40.0096170" lon="-4.6207200">
        <ele>456.0</ele>
        <time>2022-03-01T14:45:04Z</time>
      </trkpt>
      <trkpt lat="40.0096170" lon="-4.6207200">
        <ele>456.0</ele>
        <time>2022-03-01T14:45:05Z</time>
      </trkpt>
      <trkpt lat="40.0097070" lon="-4.6207520">
        <ele>456.0</ele>
        <time>2022-03-01T14:45:06Z</time>
      </trkpt>
      <trkpt lat="40.0097070" lon="-4.6207520">
        <ele>456.0</ele>
        <time>2022-03-01T14:45:07Z</time>
      </trkpt>
      <trkpt lat="40.0098000" lon="-4.6207900">
        <ele>456.0</ele>
        <time>2022-03-01T14:45:08Z</time>
      </trkpt>
      <trkpt lat="40.0098000" lon="-4.6207900">
        <ele>456.0</ele>
        <time>2022-03-01T14:45:09Z</time>
      </trkpt>
      <trkpt lat="40.0098930" lon="-4.6208250">
        <ele>456.0</ele>
        <time>2022-03-01T14:45:10Z</time>
      </trkpt>
      <trkpt lat="40.0098930" lon="-4.6208250">
        <ele>456.0</ele>
        <time>2022-03-01T14:45:11Z</time>
      </trkpt>
      <trkpt lat="40.0099880" lon="-4.6208630">
        <ele>458.0</ele>
        <time>2022-03-01T14:45:12Z</time>
      </trkpt>
      <trkpt lat="40.0099880" lon="-4.6208630">
        <ele>458.0</ele>
        <time>2022-03-01T14:45:13Z</time>
      </trkpt>
      <trkpt lat="40.0100800" lon="-4.6209000">
        <ele>458.0</ele>
        <time>2022-03-01T14:45:14Z</time>
      </trkpt>
      <trkpt lat="40.0100800" lon="-4.6209000">
        <ele>458.0</ele>
        <time>2022-03-01T14:45:15Z</time>
      </trkpt>
      <trkpt lat="40.0101750" lon="-4.6209420">
        <ele>459.0</ele>
        <time>2022-03-01T14:45:16Z</time>
      </trkpt>
      <trkpt lat="40.0101750" lon="-4.6209420">
        <ele>459.0</ele>
        <time>2022-03-01T14:45:17Z</time>
      </trkpt>
      <trkpt lat="40.0102720" lon="-4.6209830">
        <ele>459.0</ele>
        <time>2022-03-01T14:45:18Z</time>
      </trkpt>
      <trkpt lat="40.0102720" lon="-4.6209830">
        <ele>459.0</ele>
        <time>2022-03-01T14:45:19Z</time>
      </trkpt>
      <trkpt lat="40.0103750" lon="-4.6210250">
        <ele>459.0</ele>
        <time>2022-03-01T14:45:20Z</time>
      </trkpt>
      <trkpt lat="40.0104280" lon="-4.6210470">
        <ele>459.0</ele>
        <time>2022-03-01T14:45:21Z</time>
      </trkpt>
      <trkpt lat="40.0104280" lon="-4.6210470">
        <ele>460.0</ele>
        <time>2022-03-01T14:45:22Z</time>
      </trkpt>
      <trkpt lat="40.0105350" lon="-4.6210880">
        <ele>460.0</ele>
        <time>2022-03-01T14:45:23Z</time>
      </trkpt>
      <trkpt lat="40.0105920" lon="-4.6211080">
        <ele>460.0</ele>
        <time>2022-03-01T14:45:24Z</time>
      </trkpt>
      <trkpt lat="40.0105920" lon="-4.6211080">
        <ele>460.0</ele>
        <time>2022-03-01T14:45:25Z</time>
      </trkpt>
      <trkpt lat="40.0107050" lon="-4.6211480">
        <ele>460.0</ele>
        <time>2022-03-01T14:45:26Z</time>
      </trkpt>
      <trkpt lat="40.0107050" lon="-4.6211480">
        <ele>460.0</ele>
        <time>2022-03-01T14:45:27Z</time>
      </trkpt>
      <trkpt lat="40.0108130" lon="-4.6211900">
        <ele>460.0</ele>
        <time>2022-03-01T14:45:28Z</time>
      </trkpt>
      <trkpt lat="40.0108130" lon="-4.6211900">
        <ele>460.0</ele>
        <time>2022-03-01T14:45:29Z</time>
      </trkpt>
      <trkpt lat="40.0109220" lon="-4.6212350">
        <ele>460.0</ele>
        <time>2022-03-01T14:45:30Z</time>
      </trkpt>
      <trkpt lat="40.0109220" lon="-4.6212350">
        <ele>460.0</ele>
        <time>2022-03-01T14:45:31Z</time>
      </trkpt>
      <trkpt lat="40.0110380" lon="-4.6212820">
        <ele>460.0</ele>
        <time>2022-03-01T14:45:32Z</time>
      </trkpt>
      <trkpt lat="40.0110380" lon="-4.6212820">
        <ele>460.0</ele>
        <time>2022-03-01T14:45:33Z</time>
      </trkpt>
      <trkpt lat="40.0111620" lon="-4.6213330">
        <ele>460.0</ele>
        <time>2022-03-01T14:45:34Z</time>
      </trkpt>
      <trkpt lat="40.0111620" lon="-4.6213330">
        <ele>460.0</ele>
        <time>2022-03-01T14:45:35Z</time>
      </trkpt>
      <trkpt lat="40.0112880" lon="-4.6213850">
        <ele>460.0</ele>
        <time>2022-03-01T14:45:36Z</time>
      </trkpt>
      <trkpt lat="40.0112880" lon="-4.6213850">
        <ele>460.0</ele>
        <time>2022-03-01T14:45:37Z</time>
      </trkpt>
      <trkpt lat="40.0114170" lon="-4.6214370">
        <ele>459.0</ele>
        <time>2022-03-01T14:45:38Z</time>
      </trkpt>
      <trkpt lat="40.0114170" lon="-4.6214370">
        <ele>459.0</ele>
        <time>2022-03-01T14:45:39Z</time>
      </trkpt>
      <trkpt lat="40.0115470" lon="-4.6214880">
        <ele>459.0</ele>
        <time>2022-03-01T14:45:40Z</time>
      </trkpt>
      <trkpt lat="40.0115470" lon="-4.6214880">
        <ele>459.0</ele>
        <time>2022-03-01T14:45:41Z</time>
      </trkpt>
      <trkpt lat="40.0116780" lon="-4.6215420">
        <ele>459.0</ele>
        <time>2022-03-01T14:45:42Z</time>
      </trkpt>
      <trkpt lat="40.0117450" lon="-4.6215700">
        <ele>459.0</ele>
        <time>2022-03-01T14:45:43Z</time>
      </trkpt>
      <trkpt lat="40.0117450" lon="-4.6215700">
        <ele>459.0</ele>
        <time>2022-03-01T14:45:44Z</time>
      </trkpt>
      <trkpt lat="40.0118770" lon="-4.6216320">
        <ele>459.0</ele>
        <time>2022-03-01T14:45:45Z</time>
      </trkpt>
      <trkpt lat="40.0119430" lon="-4.6216600">
        <ele>458.0</ele>
        <time>2022-03-01T14:45:46Z</time>
      </trkpt>
      <trkpt lat="40.0119430" lon="-4.6216600">
        <ele>458.0</ele>
        <time>2022-03-01T14:45:47Z</time>
      </trkpt>
      <trkpt lat="40.0120780" lon="-4.6217100">
        <ele>458.0</ele>
        <time>2022-03-01T14:45:48Z</time>
      </trkpt>
      <trkpt lat="40.0120780" lon="-4.6217100">
        <ele>458.0</ele>
        <time>2022-03-01T14:45:49Z</time>
      </trkpt>
      <trkpt lat="40.0122150" lon="-4.6217620">
        <ele>458.0</ele>
        <time>2022-03-01T14:45:50Z</time>
      </trkpt>
      <trkpt lat="40.0122150" lon="-4.6217620">
        <ele>458.0</ele>
        <time>2022-03-01T14:45:51Z</time>
      </trkpt>
      <trkpt lat="40.0123500" lon="-4.6218180">
        <ele>458.0</ele>
        <time>2022-03-01T14:45:52Z</time>
      </trkpt>
      <trkpt lat="40.0123500" lon="-4.6218180">
        <ele>458.0</ele>
        <time>2022-03-01T14:45:53Z</time>
      </trkpt>
      <trkpt lat="40.0124870" lon="-4.6218770">
        <ele>457.0</ele>
        <time>2022-03-01T14:45:54Z</time>
      </trkpt>
      <trkpt lat="40.0124870" lon="-4.6218770">
        <ele>457.0</ele>
        <time>2022-03-01T14:45:55Z</time>
      </trkpt>
      <trkpt lat="40.0126230" lon="-4.6219350">
        <ele>457.0</ele>
        <time>2022-03-01T14:45:56Z</time>
      </trkpt>
      <trkpt lat="40.0126230" lon="-4.6219350">
        <ele>457.0</ele>
        <time>2022-03-01T14:45:57Z</time>
      </trkpt>
      <trkpt lat="40.0127580" lon="-4.6219920">
        <ele>457.0</ele>
        <time>2022-03-01T14:45:58Z</time>
      </trkpt>
      <trkpt lat="40.0127580" lon="-4.6219920">
        <ele>457.0</ele>
        <time>2022-03-01T14:45:59Z</time>
      </trkpt>
      <trkpt lat="40.0128970" lon="-4.6220480">
        <ele>457.0</ele>
        <time>2022-03-01T14:46:00Z</time>
      </trkpt>
      <trkpt lat="40.0128970" lon="-4.6220480">
        <ele>457.0</ele>
        <time>2022-03-01T14:46:01Z</time>
      </trkpt>
      <trkpt lat="40.0130370" lon="-4.6221070">
        <ele>457.0</ele>
        <time>2022-03-01T14:46:02Z</time>
      </trkpt>
      <trkpt lat="40.0130370" lon="-4.6221070">
        <ele>457.0</ele>
        <time>2022-03-01T14:46:03Z</time>
      </trkpt>
      <trkpt lat="40.0131770" lon="-4.6221650">
        <ele>457.0</ele>
        <time>2022-03-01T14:46:04Z</time>
      </trkpt>
      <trkpt lat="40.0131770" lon="-4.6221650">
        <ele>457.0</ele>
        <time>2022-03-01T14:46:05Z</time>
      </trkpt>
      <trkpt lat="40.0133180" lon="-4.6222230">
        <ele>457.0</ele>
        <time>2022-03-01T14:46:06Z</time>
      </trkpt>
      <trkpt lat="40.0133180" lon="-4.6222230">
        <ele>457.0</ele>
        <time>2022-03-01T14:46:07Z</time>
      </trkpt>
      <trkpt lat="40.0134630" lon="-4.6222850">
        <ele>457.0</ele>
        <time>2022-03-01T14:46:08Z</time>
      </trkpt>
      <trkpt lat="40.0134630" lon="-4.6222850">
        <ele>456.0</ele>
        <time>2022-03-01T14:46:09Z</time>
      </trkpt>
      <trkpt lat="40.0136070" lon="-4.6223470">
        <ele>456.0</ele>
        <time>2022-03-01T14:46:10Z</time>
      </trkpt>
      <trkpt lat="40.0136070" lon="-4.6223470">
        <ele>456.0</ele>
        <time>2022-03-01T14:46:11Z</time>
      </trkpt>
      <trkpt lat="40.0137520" lon="-4.6224030">
        <ele>456.0</ele>
        <time>2022-03-01T14:46:12Z</time>
      </trkpt>
      <trkpt lat="40.0137520" lon="-4.6224030">
        <ele>456.0</ele>
        <time>2022-03-01T14:46:13Z</time>
      </trkpt>
      <trkpt lat="40.0138980" lon="-4.6224650">
        <ele>456.0</ele>
        <time>2022-03-01T14:46:14Z</time>
      </trkpt>
      <trkpt lat="40.0138980" lon="-4.6224650">
        <ele>456.0</ele>
        <time>2022-03-01T14:46:15Z</time>
      </trkpt>
      <trkpt lat="40.0140480" lon="-4.6225280">
        <ele>456.0</ele>
        <time>2022-03-01T14:46:16Z</time>
      </trkpt>
      <trkpt lat="40.0140480" lon="-4.6225280">
        <ele>456.0</ele>
        <time>2022-03-01T14:46:17Z</time>
      </trkpt>
      <trkpt lat="40.0142000" lon="-4.6225900">
        <ele>455.0</ele>
        <time>2022-03-01T14:46:18Z</time>
      </trkpt>
      <trkpt lat="40.0142750" lon="-4.6226220">
        <ele>455.0</ele>
        <time>2022-03-01T14:46:19Z</time>
      </trkpt>
      <trkpt lat="40.0142750" lon="-4.6226220">
        <ele>455.0</ele>
        <time>2022-03-01T14:46:20Z</time>
      </trkpt>
      <trkpt lat="40.0144280" lon="-4.6226870">
        <ele>455.0</ele>
        <time>2022-03-01T14:46:21Z</time>
      </trkpt>
      <trkpt lat="40.0145050" lon="-4.6227200">
        <ele>454.0</ele>
        <time>2022-03-01T14:46:22Z</time>
      </trkpt>
      <trkpt lat="40.0145050" lon="-4.6227200">
        <ele>454.0</ele>
        <time>2022-03-01T14:46:23Z</time>
      </trkpt>
      <trkpt lat="40.0146620" lon="-4.6227870">
        <ele>453.0</ele>
        <time>2022-03-01T14:46:24Z</time>
      </trkpt>
      <trkpt lat="40.0146620" lon="-4.6227870">
        <ele>453.0</ele>
        <time>2022-03-01T14:46:25Z</time>
      </trkpt>
      <trkpt lat="40.0148180" lon="-4.6228520">
        <ele>453.0</ele>
        <time>2022-03-01T14:46:26Z</time>
      </trkpt>
      <trkpt lat="40.0148180" lon="-4.6228520">
        <ele>453.0</ele>
        <time>2022-03-01T14:46:27Z</time>
      </trkpt>
      <trkpt lat="40.0149770" lon="-4.6229180">
        <ele>452.0</ele>
        <time>2022-03-01T14:46:28Z</time>
      </trkpt>
      <trkpt lat="40.0149770" lon="-4.6229180">
        <ele>452.0</ele>
        <time>2022-03-01T14:46:29Z</time>
      </trkpt>
      <trkpt lat="40.0151380" lon="-4.6229880">
        <ele>452.0</ele>
        <time>2022-03-01T14:46:30Z</time>
      </trkpt>
      <trkpt lat="40.0152200" lon="-4.6230230">
        <ele>452.0</ele>
        <time>2022-03-01T14:46:31Z</time>
      </trkpt>
      <trkpt lat="40.0153020" lon="-4.6230570">
        <ele>452.0</ele>
        <time>2022-03-01T14:46:32Z</time>
      </trkpt>
      <trkpt lat="40.0153020" lon="-4.6230570">
        <ele>452.0</ele>
        <time>2022-03-01T14:46:33Z</time>
      </trkpt>
      <trkpt lat="40.0154650" lon="-4.6231250">
        <ele>451.0</ele>
        <time>2022-03-01T14:46:34Z</time>
      </trkpt>
      <trkpt lat="40.0154650" lon="-4.6231250">
        <ele>451.0</ele>
        <time>2022-03-01T14:46:35Z</time>
      </trkpt>
      <trkpt lat="40.0156320" lon="-4.6231970">
        <ele>451.0</ele>
        <time>2022-03-01T14:46:36Z</time>
      </trkpt>
      <trkpt lat="40.0156320" lon="-4.6231970">
        <ele>451.0</ele>
        <time>2022-03-01T14:46:37Z</time>
      </trkpt>
      <trkpt lat="40.0157970" lon="-4.6232670">
        <ele>451.0</ele>
        <time>2022-03-01T14:46:38Z</time>
      </trkpt>
      <trkpt lat="40.0158780" lon="-4.6233020">
        <ele>451.0</ele>
        <time>2022-03-01T14:46:39Z</time>
      </trkpt>
      <trkpt lat="40.0158780" lon="-4.6233020">
        <ele>451.0</ele>
        <time>2022-03-01T14:46:40Z</time>
      </trkpt>
      <trkpt lat="40.0160400" lon="-4.6233680">
        <ele>451.0</ele>
        <time>2022-03-01T14:46:41Z</time>
      </trkpt>
      <trkpt lat="40.0160400" lon="-4.6233680">
        <ele>451.0</ele>
        <time>2022-03-01T14:46:42Z</time>
      </trkpt>
      <trkpt lat="40.0162000" lon="-4.6234350">
        <ele>451.0</ele>
        <time>2022-03-01T14:46:43Z</time>
      </trkpt>
      <trkpt lat="40.0162000" lon="-4.6234350">
        <ele>450.0</ele>
        <time>2022-03-01T14:46:44Z</time>
      </trkpt>
      <trkpt lat="40.0163570" lon="-4.6235020">
        <ele>450.0</ele>
        <time>2022-03-01T14:46:45Z</time>
      </trkpt>
      <trkpt lat="40.0164330" lon="-4.6235330">
        <ele>450.0</ele>
        <time>2022-03-01T14:46:46Z</time>
      </trkpt>
      <trkpt lat="40.0164330" lon="-4.6235330">
        <ele>450.0</ele>
        <time>2022-03-01T14:46:47Z</time>
      </trkpt>
      <trkpt lat="40.0165850" lon="-4.6235950">
        <ele>450.0</ele>
        <time>2022-03-01T14:46:48Z</time>
      </trkpt>
      <trkpt lat="40.0165850" lon="-4.6235950">
        <ele>450.0</ele>
        <time>2022-03-01T14:46:49Z</time>
      </trkpt>
      <trkpt lat="40.0167330" lon="-4.6236600">
        <ele>450.0</ele>
        <time>2022-03-01T14:46:50Z</time>
      </trkpt>
      <trkpt lat="40.0168050" lon="-4.6236930">
        <ele>450.0</ele>
        <time>2022-03-01T14:46:51Z</time>
      </trkpt>
      <trkpt lat="40.0168050" lon="-4.6236930">
        <ele>450.0</ele>
        <time>2022-03-01T14:46:52Z</time>
      </trkpt>
      <trkpt lat="40.0169470" lon="-4.6237520">
        <ele>450.0</ele>
        <time>2022-03-01T14:46:53Z</time>
      </trkpt>
      <trkpt lat="40.0170180" lon="-4.6237800">
        <ele>450.0</ele>
        <time>2022-03-01T14:46:54Z</time>
      </trkpt>
      <trkpt lat="40.0170180" lon="-4.6237800">
        <ele>450.0</ele>
        <time>2022-03-01T14:46:55Z</time>
      </trkpt>
      <trkpt lat="40.0171580" lon="-4.6238380">
        <ele>450.0</ele>
        <time>2022-03-01T14:46:56Z</time>
      </trkpt>
      <trkpt lat="40.0171580" lon="-4.6238380">
        <ele>450.0</ele>
        <time>2022-03-01T14:46:57Z</time>
      </trkpt>
      <trkpt lat="40.0172950" lon="-4.6238970">
        <ele>450.0</ele>
        <time>2022-03-01T14:46:58Z</time>
      </trkpt>
      <trkpt lat="40.0172950" lon="-4.6238970">
        <ele>450.0</ele>
        <time>2022-03-01T14:46:59Z</time>
      </trkpt>
      <trkpt lat="40.0174280" lon="-4.6239520">
        <ele>450.0</ele>
        <time>2022-03-01T14:47:00Z</time>
      </trkpt>
      <trkpt lat="40.0174280" lon="-4.6239520">
        <ele>451.0</ele>
        <time>2022-03-01T14:47:01Z</time>
      </trkpt>
      <trkpt lat="40.0175570" lon="-4.6240030">
        <ele>451.0</ele>
        <time>2022-03-01T14:47:02Z</time>
      </trkpt>
      <trkpt lat="40.0175570" lon="-4.6240030">
        <ele>451.0</ele>
        <time>2022-03-01T14:47:03Z</time>
      </trkpt>
      <trkpt lat="40.0176830" lon="-4.6240570">
        <ele>451.0</ele>
        <time>2022-03-01T14:47:04Z</time>
      </trkpt>
      <trkpt lat="40.0177470" lon="-4.6240850">
        <ele>451.0</ele>
        <time>2022-03-01T14:47:05Z</time>
      </trkpt>
      <trkpt lat="40.0177470" lon="-4.6240850">
        <ele>451.0</ele>
        <time>2022-03-01T14:47:06Z</time>
      </trkpt>
      <trkpt lat="40.0178700" lon="-4.6241420">
        <ele>451.0</ele>
        <time>2022-03-01T14:47:07Z</time>
      </trkpt>
      <trkpt lat="40.0178700" lon="-4.6241420">
        <ele>451.0</ele>
        <time>2022-03-01T14:47:08Z</time>
      </trkpt>
      <trkpt lat="40.0179930" lon="-4.6241970">
        <ele>452.0</ele>
        <time>2022-03-01T14:47:09Z</time>
      </trkpt>
      <trkpt lat="40.0179930" lon="-4.6241970">
        <ele>452.0</ele>
        <time>2022-03-01T14:47:10Z</time>
      </trkpt>
      <trkpt lat="40.0181170" lon="-4.6242520">
        <ele>452.0</ele>
        <time>2022-03-01T14:47:11Z</time>
      </trkpt>
      <trkpt lat="40.0181780" lon="-4.6242770">
        <ele>452.0</ele>
        <time>2022-03-01T14:47:12Z</time>
      </trkpt>
      <trkpt lat="40.0181780" lon="-4.6242770">
        <ele>452.0</ele>
        <time>2022-03-01T14:47:13Z</time>
      </trkpt>
      <trkpt lat="40.0183020" lon="-4.6243300">
        <ele>452.0</ele>
        <time>2022-03-01T14:47:14Z</time>
      </trkpt>
      <trkpt lat="40.0183020" lon="-4.6243300">
        <ele>452.0</ele>
        <time>2022-03-01T14:47:15Z</time>
      </trkpt>
      <trkpt lat="40.0184220" lon="-4.6243780">
        <ele>452.0</ele>
        <time>2022-03-01T14:47:16Z</time>
      </trkpt>
      <trkpt lat="40.0184220" lon="-4.6243780">
        <ele>452.0</ele>
        <time>2022-03-01T14:47:17Z</time>
      </trkpt>
      <trkpt lat="40.0185430" lon="-4.6244270">
        <ele>452.0</ele>
        <time>2022-03-01T14:47:18Z</time>
      </trkpt>
      <trkpt lat="40.0185430" lon="-4.6244270">
        <ele>452.0</ele>
        <time>2022-03-01T14:47:19Z</time>
      </trkpt>
      <trkpt lat="40.0186650" lon="-4.6244780">
        <ele>452.0</ele>
        <time>2022-03-01T14:47:20Z</time>
      </trkpt>
      <trkpt lat="40.0186650" lon="-4.6244780">
        <ele>452.0</ele>
        <time>2022-03-01T14:47:21Z</time>
      </trkpt>
      <trkpt lat="40.0187880" lon="-4.6245320">
        <ele>452.0</ele>
        <time>2022-03-01T14:47:22Z</time>
      </trkpt>
      <trkpt lat="40.0188500" lon="-4.6245580">
        <ele>453.0</ele>
        <time>2022-03-01T14:47:23Z</time>
      </trkpt>
      <trkpt lat="40.0189120" lon="-4.6245830">
        <ele>453.0</ele>
        <time>2022-03-01T14:47:24Z</time>
      </trkpt>
      <trkpt lat="40.0189120" lon="-4.6245830">
        <ele>453.0</ele>
        <time>2022-03-01T14:47:25Z</time>
      </trkpt>
      <trkpt lat="40.0190350" lon="-4.6246380">
        <ele>453.0</ele>
        <time>2022-03-01T14:47:26Z</time>
      </trkpt>
      <trkpt lat="40.0190350" lon="-4.6246380">
        <ele>453.0</ele>
        <time>2022-03-01T14:47:27Z</time>
      </trkpt>
      <trkpt lat="40.0191580" lon="-4.6246920">
        <ele>453.0</ele>
        <time>2022-03-01T14:47:28Z</time>
      </trkpt>
      <trkpt lat="40.0191580" lon="-4.6246920">
        <ele>453.0</ele>
        <time>2022-03-01T14:47:29Z</time>
      </trkpt>
      <trkpt lat="40.0192850" lon="-4.6247420">
        <ele>453.0</ele>
        <time>2022-03-01T14:47:30Z</time>
      </trkpt>
      <trkpt lat="40.0192850" lon="-4.6247420">
        <ele>453.0</ele>
        <time>2022-03-01T14:47:31Z</time>
      </trkpt>
      <trkpt lat="40.0194100" lon="-4.6247970">
        <ele>453.0</ele>
        <time>2022-03-01T14:47:32Z</time>
      </trkpt>
      <trkpt lat="40.0194100" lon="-4.6247970">
        <ele>453.0</ele>
        <time>2022-03-01T14:47:33Z</time>
      </trkpt>
      <trkpt lat="40.0195350" lon="-4.6248480">
        <ele>453.0</ele>
        <time>2022-03-01T14:47:34Z</time>
      </trkpt>
      <trkpt lat="40.0195350" lon="-4.6248480">
        <ele>453.0</ele>
        <time>2022-03-01T14:47:35Z</time>
      </trkpt>
      <trkpt lat="40.0196570" lon="-4.6249000">
        <ele>453.0</ele>
        <time>2022-03-01T14:47:36Z</time>
      </trkpt>
      <trkpt lat="40.0196570" lon="-4.6249000">
        <ele>453.0</ele>
        <time>2022-03-01T14:47:37Z</time>
      </trkpt>
      <trkpt lat="40.0197780" lon="-4.6249530">
        <ele>453.0</ele>
        <time>2022-03-01T14:47:38Z</time>
      </trkpt>
      <trkpt lat="40.0197780" lon="-4.6249530">
        <ele>453.0</ele>
        <time>2022-03-01T14:47:39Z</time>
      </trkpt>
      <trkpt lat="40.0198980" lon="-4.6250030">
        <ele>453.0</ele>
        <time>2022-03-01T14:47:40Z</time>
      </trkpt>
      <trkpt lat="40.0198980" lon="-4.6250030">
        <ele>453.0</ele>
        <time>2022-03-01T14:47:41Z</time>
      </trkpt>
      <trkpt lat="40.0200130" lon="-4.6250570">
        <ele>453.0</ele>
        <time>2022-03-01T14:47:42Z</time>
      </trkpt>
      <trkpt lat="40.0200720" lon="-4.6250830">
        <ele>453.0</ele>
        <time>2022-03-01T14:47:43Z</time>
      </trkpt>
      <trkpt lat="40.0200720" lon="-4.6250830">
        <ele>453.0</ele>
        <time>2022-03-01T14:47:44Z</time>
      </trkpt>
      <trkpt lat="40.0201900" lon="-4.6251380">
        <ele>453.0</ele>
        <time>2022-03-01T14:47:45Z</time>
      </trkpt>
      <trkpt lat="40.0202500" lon="-4.6251680">
        <ele>453.0</ele>
        <time>2022-03-01T14:47:46Z</time>
      </trkpt>
      <trkpt lat="40.0202500" lon="-4.6251680">
        <ele>453.0</ele>
        <time>2022-03-01T14:47:47Z</time>
      </trkpt>
      <trkpt lat="40.0203720" lon="-4.6252300">
        <ele>453.0</ele>
        <time>2022-03-01T14:47:48Z</time>
      </trkpt>
      <trkpt lat="40.0203720" lon="-4.6252300">
        <ele>453.0</ele>
        <time>2022-03-01T14:47:49Z</time>
      </trkpt>
      <trkpt lat="40.0204930" lon="-4.6252980">
        <ele>453.0</ele>
        <time>2022-03-01T14:47:50Z</time>
      </trkpt>
      <trkpt lat="40.0204930" lon="-4.6252980">
        <ele>453.0</ele>
        <time>2022-03-01T14:47:51Z</time>
      </trkpt>
      <trkpt lat="40.0206170" lon="-4.6253780">
        <ele>453.0</ele>
        <time>2022-03-01T14:47:52Z</time>
      </trkpt>
      <trkpt lat="40.0206170" lon="-4.6253780">
        <ele>453.0</ele>
        <time>2022-03-01T14:47:53Z</time>
      </trkpt>
      <trkpt lat="40.0207400" lon="-4.6254650">
        <ele>453.0</ele>
        <time>2022-03-01T14:47:54Z</time>
      </trkpt>
      <trkpt lat="40.0207400" lon="-4.6254650">
        <ele>453.0</ele>
        <time>2022-03-01T14:47:55Z</time>
      </trkpt>
      <trkpt lat="40.0208630" lon="-4.6255600">
        <ele>453.0</ele>
        <time>2022-03-01T14:47:56Z</time>
      </trkpt>
      <trkpt lat="40.0208630" lon="-4.6255600">
        <ele>453.0</ele>
        <time>2022-03-01T14:47:57Z</time>
      </trkpt>
      <trkpt lat="40.0209850" lon="-4.6256700">
        <ele>452.0</ele>
        <time>2022-03-01T14:47:58Z</time>
      </trkpt>
      <trkpt lat="40.0210430" lon="-4.6257270">
        <ele>452.0</ele>
        <time>2022-03-01T14:47:59Z</time>
      </trkpt>
      <trkpt lat="40.0211000" lon="-4.6257830">
        <ele>452.0</ele>
        <time>2022-03-01T14:48:00Z</time>
      </trkpt>
      <trkpt lat="40.0211000" lon="-4.6257830">
        <ele>452.0</ele>
        <time>2022-03-01T14:48:01Z</time>
      </trkpt>
      <trkpt lat="40.0212150" lon="-4.6259030">
        <ele>451.0</ele>
        <time>2022-03-01T14:48:02Z</time>
      </trkpt>
      <trkpt lat="40.0212150" lon="-4.6259030">
        <ele>451.0</ele>
        <time>2022-03-01T14:48:03Z</time>
      </trkpt>
      <trkpt lat="40.0213250" lon="-4.6260320">
        <ele>451.0</ele>
        <time>2022-03-01T14:48:04Z</time>
      </trkpt>
      <trkpt lat="40.0213250" lon="-4.6260320">
        <ele>451.0</ele>
        <time>2022-03-01T14:48:05Z</time>
      </trkpt>
      <trkpt lat="40.0214320" lon="-4.6261650">
        <ele>451.0</ele>
        <time>2022-03-01T14:48:06Z</time>
      </trkpt>
      <trkpt lat="40.0214320" lon="-4.6261650">
        <ele>451.0</ele>
        <time>2022-03-01T14:48:07Z</time>
      </trkpt>
      <trkpt lat="40.0215350" lon="-4.6263000">
        <ele>451.0</ele>
        <time>2022-03-01T14:48:08Z</time>
      </trkpt>
      <trkpt lat="40.0215350" lon="-4.6263000">
        <ele>451.0</ele>
        <time>2022-03-01T14:48:09Z</time>
      </trkpt>
      <trkpt lat="40.0216380" lon="-4.6264380">
        <ele>451.0</ele>
        <time>2022-03-01T14:48:10Z</time>
      </trkpt>
      <trkpt lat="40.0216380" lon="-4.6264380">
        <ele>451.0</ele>
        <time>2022-03-01T14:48:11Z</time>
      </trkpt>
      <trkpt lat="40.0217420" lon="-4.6265780">
        <ele>451.0</ele>
        <time>2022-03-01T14:48:12Z</time>
      </trkpt>
      <trkpt lat="40.0217420" lon="-4.6265780">
        <ele>451.0</ele>
        <time>2022-03-01T14:48:13Z</time>
      </trkpt>
      <trkpt lat="40.0218430" lon="-4.6267180">
        <ele>451.0</ele>
        <time>2022-03-01T14:48:14Z</time>
      </trkpt>
      <trkpt lat="40.0218430" lon="-4.6267180">
        <ele>451.0</ele>
        <time>2022-03-01T14:48:15Z</time>
      </trkpt>
      <trkpt lat="40.0219450" lon="-4.6268580">
        <ele>451.0</ele>
        <time>2022-03-01T14:48:16Z</time>
      </trkpt>
      <trkpt lat="40.0219450" lon="-4.6268580">
        <ele>451.0</ele>
        <time>2022-03-01T14:48:17Z</time>
      </trkpt>
      <trkpt lat="40.0220450" lon="-4.6269950">
        <ele>451.0</ele>
        <time>2022-03-01T14:48:18Z</time>
      </trkpt>
      <trkpt lat="40.0220450" lon="-4.6269950">
        <ele>451.0</ele>
        <time>2022-03-01T14:48:19Z</time>
      </trkpt>
      <trkpt lat="40.0221450" lon="-4.6271350">
        <ele>451.0</ele>
        <time>2022-03-01T14:48:20Z</time>
      </trkpt>
      <trkpt lat="40.0221450" lon="-4.6271350">
        <ele>451.0</ele>
        <time>2022-03-01T14:48:21Z</time>
      </trkpt>
      <trkpt lat="40.0222470" lon="-4.6272770">
        <ele>451.0</ele>
        <time>2022-03-01T14:48:22Z</time>
      </trkpt>
      <trkpt lat="40.0222470" lon="-4.6272770">
        <ele>451.0</ele>
        <time>2022-03-01T14:48:23Z</time>
      </trkpt>
      <trkpt lat="40.0223520" lon="-4.6274200">
        <ele>449.0</ele>
        <time>2022-03-01T14:48:24Z</time>
      </trkpt>
      <trkpt lat="40.0223520" lon="-4.6274200">
        <ele>449.0</ele>
        <time>2022-03-01T14:48:25Z</time>
      </trkpt>
      <trkpt lat="40.0224600" lon="-4.6275700">
        <ele>449.0</ele>
        <time>2022-03-01T14:48:26Z</time>
      </trkpt>
      <trkpt lat="40.0224600" lon="-4.6275700">
        <ele>449.0</ele>
        <time>2022-03-01T14:48:27Z</time>
      </trkpt>
      <trkpt lat="40.0225770" lon="-4.6277300">
        <ele>449.0</ele>
        <time>2022-03-01T14:48:28Z</time>
      </trkpt>
      <trkpt lat="40.0225770" lon="-4.6277300">
        <ele>449.0</ele>
        <time>2022-03-01T14:48:29Z</time>
      </trkpt>
      <trkpt lat="40.0226930" lon="-4.6278970">
        <ele>447.0</ele>
        <time>2022-03-01T14:48:30Z</time>
      </trkpt>
      <trkpt lat="40.0226930" lon="-4.6278970">
        <ele>447.0</ele>
        <time>2022-03-01T14:48:31Z</time>
      </trkpt>
      <trkpt lat="40.0228150" lon="-4.6280670">
        <ele>447.0</ele>
        <time>2022-03-01T14:48:32Z</time>
      </trkpt>
      <trkpt lat="40.0228150" lon="-4.6280670">
        <ele>447.0</ele>
        <time>2022-03-01T14:48:33Z</time>
      </trkpt>
      <trkpt lat="40.0229450" lon="-4.6282420">
        <ele>445.0</ele>
        <time>2022-03-01T14:48:34Z</time>
      </trkpt>
      <trkpt lat="40.0229450" lon="-4.6282420">
        <ele>445.0</ele>
        <time>2022-03-01T14:48:35Z</time>
      </trkpt>
      <trkpt lat="40.0230800" lon="-4.6284220">
        <ele>444.0</ele>
        <time>2022-03-01T14:48:36Z</time>
      </trkpt>
      <trkpt lat="40.0230800" lon="-4.6284220">
        <ele>444.0</ele>
        <time>2022-03-01T14:48:37Z</time>
      </trkpt>
      <trkpt lat="40.0232180" lon="-4.6286030">
        <ele>443.0</ele>
        <time>2022-03-01T14:48:38Z</time>
      </trkpt>
      <trkpt lat="40.0232920" lon="-4.6286970">
        <ele>443.0</ele>
        <time>2022-03-01T14:48:39Z</time>
      </trkpt>
      <trkpt lat="40.0232920" lon="-4.6286970">
        <ele>442.0</ele>
        <time>2022-03-01T14:48:40Z</time>
      </trkpt>
      <trkpt lat="40.0234400" lon="-4.6288800">
        <ele>442.0</ele>
        <time>2022-03-01T14:48:41Z</time>
      </trkpt>
      <trkpt lat="40.0235170" lon="-4.6289700">
        <ele>440.0</ele>
        <time>2022-03-01T14:48:42Z</time>
      </trkpt>
      <trkpt lat="40.0235170" lon="-4.6289700">
        <ele>439.0</ele>
        <time>2022-03-01T14:48:43Z</time>
      </trkpt>
      <trkpt lat="40.0236800" lon="-4.6291450">
        <ele>439.0</ele>
        <time>2022-03-01T14:48:44Z</time>
      </trkpt>
      <trkpt lat="40.0236800" lon="-4.6291450">
        <ele>438.0</ele>
        <time>2022-03-01T14:48:45Z</time>
      </trkpt>
      <trkpt lat="40.0238550" lon="-4.6293070">
        <ele>438.0</ele>
        <time>2022-03-01T14:48:46Z</time>
      </trkpt>
      <trkpt lat="40.0238550" lon="-4.6293070">
        <ele>436.0</ele>
        <time>2022-03-01T14:48:47Z</time>
      </trkpt>
      <trkpt lat="40.0240350" lon="-4.6294430">
        <ele>436.0</ele>
        <time>2022-03-01T14:48:48Z</time>
      </trkpt>
      <trkpt lat="40.0240350" lon="-4.6294430">
        <ele>434.0</ele>
        <time>2022-03-01T14:48:49Z</time>
      </trkpt>
      <trkpt lat="40.0242300" lon="-4.6295620">
        <ele>434.0</ele>
        <time>2022-03-01T14:48:50Z</time>
      </trkpt>
      <trkpt lat="40.0242300" lon="-4.6295620">
        <ele>433.0</ele>
        <time>2022-03-01T14:48:51Z</time>
      </trkpt>
      <trkpt lat="40.0244330" lon="-4.6296520">
        <ele>433.0</ele>
        <time>2022-03-01T14:48:52Z</time>
      </trkpt>
      <trkpt lat="40.0244330" lon="-4.6296520">
        <ele>432.0</ele>
        <time>2022-03-01T14:48:53Z</time>
      </trkpt>
      <trkpt lat="40.0246450" lon="-4.6297320">
        <ele>432.0</ele>
        <time>2022-03-01T14:48:54Z</time>
      </trkpt>
      <trkpt lat="40.0247550" lon="-4.6297650">
        <ele>432.0</ele>
        <time>2022-03-01T14:48:55Z</time>
      </trkpt>
      <trkpt lat="40.0247550" lon="-4.6297650">
        <ele>432.0</ele>
        <time>2022-03-01T14:48:56Z</time>
      </trkpt>
      <trkpt lat="40.0249720" lon="-4.6298150">
        <ele>431.0</ele>
        <time>2022-03-01T14:48:57Z</time>
      </trkpt>
      <trkpt lat="40.0250780" lon="-4.6298370">
        <ele>431.0</ele>
        <time>2022-03-01T14:48:58Z</time>
      </trkpt>
      <trkpt lat="40.0250780" lon="-4.6298370">
        <ele>431.0</ele>
        <time>2022-03-01T14:48:59Z</time>
      </trkpt>
      <trkpt lat="40.0252880" lon="-4.6298720">
        <ele>431.0</ele>
        <time>2022-03-01T14:49:00Z</time>
      </trkpt>
      <trkpt lat="40.0252880" lon="-4.6298720">
        <ele>430.0</ele>
        <time>2022-03-01T14:49:01Z</time>
      </trkpt>
      <trkpt lat="40.0254930" lon="-4.6298980">
        <ele>430.0</ele>
        <time>2022-03-01T14:49:02Z</time>
      </trkpt>
      <trkpt lat="40.0255930" lon="-4.6299130">
        <ele>430.0</ele>
        <time>2022-03-01T14:49:03Z</time>
      </trkpt>
      <trkpt lat="40.0255930" lon="-4.6299130">
        <ele>430.0</ele>
        <time>2022-03-01T14:49:04Z</time>
      </trkpt>
      <trkpt lat="40.0257980" lon="-4.6299450">
        <ele>430.0</ele>
        <time>2022-03-01T14:49:05Z</time>
      </trkpt>
      <trkpt lat="40.0258980" lon="-4.6299620">
        <ele>430.0</ele>
        <time>2022-03-01T14:49:06Z</time>
      </trkpt>
      <trkpt lat="40.0258980" lon="-4.6299620">
        <ele>430.0</ele>
        <time>2022-03-01T14:49:07Z</time>
      </trkpt>
      <trkpt lat="40.0260980" lon="-4.6300000">
        <ele>430.0</ele>
        <time>2022-03-01T14:49:08Z</time>
      </trkpt>
      <trkpt lat="40.0260980" lon="-4.6300000">
        <ele>429.0</ele>
        <time>2022-03-01T14:49:09Z</time>
      </trkpt>
      <trkpt lat="40.0262930" lon="-4.6300500">
        <ele>429.0</ele>
        <time>2022-03-01T14:49:10Z</time>
      </trkpt>
      <trkpt lat="40.0262930" lon="-4.6300500">
        <ele>429.0</ele>
        <time>2022-03-01T14:49:11Z</time>
      </trkpt>
      <trkpt lat="40.0264820" lon="-4.6301080">
        <ele>429.0</ele>
        <time>2022-03-01T14:49:12Z</time>
      </trkpt>
      <trkpt lat="40.0264820" lon="-4.6301080">
        <ele>429.0</ele>
        <time>2022-03-01T14:49:13Z</time>
      </trkpt>
      <trkpt lat="40.0266680" lon="-4.6301800">
        <ele>429.0</ele>
        <time>2022-03-01T14:49:14Z</time>
      </trkpt>
      <trkpt lat="40.0266680" lon="-4.6301800">
        <ele>428.0</ele>
        <time>2022-03-01T14:49:15Z</time>
      </trkpt>
      <trkpt lat="40.0268500" lon="-4.6302670">
        <ele>428.0</ele>
        <time>2022-03-01T14:49:16Z</time>
      </trkpt>
      <trkpt lat="40.0268500" lon="-4.6302670">
        <ele>428.0</ele>
        <time>2022-03-01T14:49:17Z</time>
      </trkpt>
      <trkpt lat="40.0270280" lon="-4.6303680">
        <ele>428.0</ele>
        <time>2022-03-01T14:49:18Z</time>
      </trkpt>
      <trkpt lat="40.0270280" lon="-4.6303680">
        <ele>427.0</ele>
        <time>2022-03-01T14:49:19Z</time>
      </trkpt>
      <trkpt lat="40.0271970" lon="-4.6304850">
        <ele>427.0</ele>
        <time>2022-03-01T14:49:20Z</time>
      </trkpt>
      <trkpt lat="40.0271970" lon="-4.6304850">
        <ele>427.0</ele>
        <time>2022-03-01T14:49:21Z</time>
      </trkpt>
      <trkpt lat="40.0273600" lon="-4.6306100">
        <ele>427.0</ele>
        <time>2022-03-01T14:49:22Z</time>
      </trkpt>
      <trkpt lat="40.0273600" lon="-4.6306100">
        <ele>427.0</ele>
        <time>2022-03-01T14:49:23Z</time>
      </trkpt>
      <trkpt lat="40.0275150" lon="-4.6307420">
        <ele>427.0</ele>
        <time>2022-03-01T14:49:24Z</time>
      </trkpt>
      <trkpt lat="40.0275920" lon="-4.6308100">
        <ele>426.0</ele>
        <time>2022-03-01T14:49:25Z</time>
      </trkpt>
      <trkpt lat="40.0275920" lon="-4.6308100">
        <ele>426.0</ele>
        <time>2022-03-01T14:49:26Z</time>
      </trkpt>
      <trkpt lat="40.0277370" lon="-4.6309470">
        <ele>426.0</ele>
        <time>2022-03-01T14:49:27Z</time>
      </trkpt>
      <trkpt lat="40.0278080" lon="-4.6310130">
        <ele>426.0</ele>
        <time>2022-03-01T14:49:28Z</time>
      </trkpt>
      <trkpt lat="40.0278080" lon="-4.6310130">
        <ele>426.0</ele>
        <time>2022-03-01T14:49:29Z</time>
      </trkpt>
      <trkpt lat="40.0279520" lon="-4.6311470">
        <ele>426.0</ele>
        <time>2022-03-01T14:49:30Z</time>
      </trkpt>
      <trkpt lat="40.0280230" lon="-4.6312150">
        <ele>426.0</ele>
        <time>2022-03-01T14:49:31Z</time>
      </trkpt>
      <trkpt lat="40.0280230" lon="-4.6312150">
        <ele>426.0</ele>
        <time>2022-03-01T14:49:32Z</time>
      </trkpt>
      <trkpt lat="40.0281650" lon="-4.6313500">
        <ele>426.0</ele>
        <time>2022-03-01T14:49:33Z</time>
      </trkpt>
      <trkpt lat="40.0282350" lon="-4.6314200">
        <ele>426.0</ele>
        <time>2022-03-01T14:49:34Z</time>
      </trkpt>
      <trkpt lat="40.0282350" lon="-4.6314200">
        <ele>426.0</ele>
        <time>2022-03-01T14:49:35Z</time>
      </trkpt>
      <trkpt lat="40.0283770" lon="-4.6315630">
        <ele>426.0</ele>
        <time>2022-03-01T14:49:36Z</time>
      </trkpt>
      <trkpt lat="40.0283770" lon="-4.6315630">
        <ele>426.0</ele>
        <time>2022-03-01T14:49:37Z</time>
      </trkpt>
      <trkpt lat="40.0285150" lon="-4.6317130">
        <ele>425.0</ele>
        <time>2022-03-01T14:49:38Z</time>
      </trkpt>
      <trkpt lat="40.0285150" lon="-4.6317130">
        <ele>425.0</ele>
        <time>2022-03-01T14:49:39Z</time>
      </trkpt>
      <trkpt lat="40.0286480" lon="-4.6318680">
        <ele>425.0</ele>
        <time>2022-03-01T14:49:40Z</time>
      </trkpt>
      <trkpt lat="40.0286480" lon="-4.6318680">
        <ele>425.0</ele>
        <time>2022-03-01T14:49:41Z</time>
      </trkpt>
      <trkpt lat="40.0287750" lon="-4.6320350">
        <ele>424.0</ele>
        <time>2022-03-01T14:49:42Z</time>
      </trkpt>
      <trkpt lat="40.0287750" lon="-4.6320350">
        <ele>424.0</ele>
        <time>2022-03-01T14:49:43Z</time>
      </trkpt>
      <trkpt lat="40.0288920" lon="-4.6322080">
        <ele>423.0</ele>
        <time>2022-03-01T14:49:44Z</time>
      </trkpt>
      <trkpt lat="40.0288920" lon="-4.6322080">
        <ele>423.0</ele>
        <time>2022-03-01T14:49:45Z</time>
      </trkpt>
      <trkpt lat="40.0290020" lon="-4.6323920">
        <ele>423.0</ele>
        <time>2022-03-01T14:49:46Z</time>
      </trkpt>
      <trkpt lat="40.0290530" lon="-4.6324870">
        <ele>423.0</ele>
        <time>2022-03-01T14:49:47Z</time>
      </trkpt>
      <trkpt lat="40.0290530" lon="-4.6324870">
        <ele>423.0</ele>
        <time>2022-03-01T14:49:48Z</time>
      </trkpt>
      <trkpt lat="40.0291500" lon="-4.6326880">
        <ele>423.0</ele>
        <time>2022-03-01T14:49:49Z</time>
      </trkpt>
      <trkpt lat="40.0291500" lon="-4.6326880">
        <ele>423.0</ele>
        <time>2022-03-01T14:49:50Z</time>
      </trkpt>
      <trkpt lat="40.0292370" lon="-4.6328980">
        <ele>423.0</ele>
        <time>2022-03-01T14:49:51Z</time>
      </trkpt>
      <trkpt lat="40.0292770" lon="-4.6330070">
        <ele>422.0</ele>
        <time>2022-03-01T14:49:52Z</time>
      </trkpt>
      <trkpt lat="40.0292770" lon="-4.6330070">
        <ele>422.0</ele>
        <time>2022-03-01T14:49:53Z</time>
      </trkpt>
      <trkpt lat="40.0293480" lon="-4.6332270">
        <ele>421.0</ele>
        <time>2022-03-01T14:49:54Z</time>
      </trkpt>
      <trkpt lat="40.0293480" lon="-4.6332270">
        <ele>421.0</ele>
        <time>2022-03-01T14:49:55Z</time>
      </trkpt>
      <trkpt lat="40.0294120" lon="-4.6334550">
        <ele>421.0</ele>
        <time>2022-03-01T14:49:56Z</time>
      </trkpt>
      <trkpt lat="40.0294120" lon="-4.6334550">
        <ele>421.0</ele>
        <time>2022-03-01T14:49:57Z</time>
      </trkpt>
      <trkpt lat="40.0294670" lon="-4.6336850">
        <ele>420.0</ele>
        <time>2022-03-01T14:49:58Z</time>
      </trkpt>
      <trkpt lat="40.0294670" lon="-4.6336850">
        <ele>420.0</ele>
        <time>2022-03-01T14:49:59Z</time>
      </trkpt>
      <trkpt lat="40.0295150" lon="-4.6339180">
        <ele>420.0</ele>
        <time>2022-03-01T14:50:00Z</time>
      </trkpt>
      <trkpt lat="40.0295150" lon="-4.6339180">
        <ele>420.0</ele>
        <time>2022-03-01T14:50:01Z</time>
      </trkpt>
      <trkpt lat="40.0295580" lon="-4.6341530">
        <ele>420.0</ele>
        <time>2022-03-01T14:50:02Z</time>
      </trkpt>
      <trkpt lat="40.0295580" lon="-4.6341530">
        <ele>420.0</ele>
        <time>2022-03-01T14:50:03Z</time>
      </trkpt>
      <trkpt lat="40.0296000" lon="-4.6343920">
        <ele>419.0</ele>
        <time>2022-03-01T14:50:04Z</time>
      </trkpt>
      <trkpt lat="40.0296220" lon="-4.6345100">
        <ele>419.0</ele>
        <time>2022-03-01T14:50:05Z</time>
      </trkpt>
      <trkpt lat="40.0296430" lon="-4.6346300">
        <ele>419.0</ele>
        <time>2022-03-01T14:50:06Z</time>
      </trkpt>
      <trkpt lat="40.0296430" lon="-4.6346300">
        <ele>419.0</ele>
        <time>2022-03-01T14:50:07Z</time>
      </trkpt>
      <trkpt lat="40.0296850" lon="-4.6348700">
        <ele>418.0</ele>
        <time>2022-03-01T14:50:08Z</time>
      </trkpt>
      <trkpt lat="40.0297070" lon="-4.6349900">
        <ele>418.0</ele>
        <time>2022-03-01T14:50:09Z</time>
      </trkpt>
      <trkpt lat="40.0297280" lon="-4.6351100">
        <ele>418.0</ele>
        <time>2022-03-01T14:50:10Z</time>
      </trkpt>
      <trkpt lat="40.0297280" lon="-4.6351100">
        <ele>418.0</ele>
        <time>2022-03-01T14:50:11Z</time>
      </trkpt>
      <trkpt lat="40.0297700" lon="-4.6353520">
        <ele>417.0</ele>
        <time>2022-03-01T14:50:12Z</time>
      </trkpt>
      <trkpt lat="40.0297700" lon="-4.6353520">
        <ele>417.0</ele>
        <time>2022-03-01T14:50:13Z</time>
      </trkpt>
      <trkpt lat="40.0298130" lon="-4.6355950">
        <ele>416.0</ele>
        <time>2022-03-01T14:50:14Z</time>
      </trkpt>
      <trkpt lat="40.0298130" lon="-4.6355950">
        <ele>416.0</ele>
        <time>2022-03-01T14:50:15Z</time>
      </trkpt>
      <trkpt lat="40.0298550" lon="-4.6358380">
        <ele>415.0</ele>
        <time>2022-03-01T14:50:16Z</time>
      </trkpt>
      <trkpt lat="40.0298550" lon="-4.6358380">
        <ele>415.0</ele>
        <time>2022-03-01T14:50:17Z</time>
      </trkpt>
      <trkpt lat="40.0298980" lon="-4.6360800">
        <ele>415.0</ele>
        <time>2022-03-01T14:50:18Z</time>
      </trkpt>
      <trkpt lat="40.0298980" lon="-4.6360800">
        <ele>415.0</ele>
        <time>2022-03-01T14:50:19Z</time>
      </trkpt>
      <trkpt lat="40.0299420" lon="-4.6363220">
        <ele>415.0</ele>
        <time>2022-03-01T14:50:20Z</time>
      </trkpt>
      <trkpt lat="40.0299630" lon="-4.6364420">
        <ele>415.0</ele>
        <time>2022-03-01T14:50:21Z</time>
      </trkpt>
      <trkpt lat="40.0299850" lon="-4.6365620">
        <ele>413.0</ele>
        <time>2022-03-01T14:50:22Z</time>
      </trkpt>
      <trkpt lat="40.0299850" lon="-4.6365620">
        <ele>413.0</ele>
        <time>2022-03-01T14:50:23Z</time>
      </trkpt>
      <trkpt lat="40.0300300" lon="-4.6368050">
        <ele>413.0</ele>
        <time>2022-03-01T14:50:24Z</time>
      </trkpt>
      <trkpt lat="40.0300300" lon="-4.6368050">
        <ele>413.0</ele>
        <time>2022-03-01T14:50:25Z</time>
      </trkpt>
      <trkpt lat="40.0300770" lon="-4.6370450">
        <ele>412.0</ele>
        <time>2022-03-01T14:50:26Z</time>
      </trkpt>
      <trkpt lat="40.0300770" lon="-4.6370450">
        <ele>412.0</ele>
        <time>2022-03-01T14:50:27Z</time>
      </trkpt>
      <trkpt lat="40.0301280" lon="-4.6372850">
        <ele>411.0</ele>
        <time>2022-03-01T14:50:28Z</time>
      </trkpt>
      <trkpt lat="40.0301280" lon="-4.6372850">
        <ele>410.0</ele>
        <time>2022-03-01T14:50:29Z</time>
      </trkpt>
      <trkpt lat="40.0301900" lon="-4.6375230">
        <ele>410.0</ele>
        <time>2022-03-01T14:50:30Z</time>
      </trkpt>
      <trkpt lat="40.0301900" lon="-4.6375230">
        <ele>410.0</ele>
        <time>2022-03-01T14:50:31Z</time>
      </trkpt>
      <trkpt lat="40.0302620" lon="-4.6377580">
        <ele>408.0</ele>
        <time>2022-03-01T14:50:32Z</time>
      </trkpt>
      <trkpt lat="40.0302620" lon="-4.6377580">
        <ele>408.0</ele>
        <time>2022-03-01T14:50:33Z</time>
      </trkpt>
      <trkpt lat="40.0303420" lon="-4.6379850">
        <ele>408.0</ele>
        <time>2022-03-01T14:50:34Z</time>
      </trkpt>
      <trkpt lat="40.0303420" lon="-4.6379850">
        <ele>408.0</ele>
        <time>2022-03-01T14:50:35Z</time>
      </trkpt>
      <trkpt lat="40.0304370" lon="-4.6382000">
        <ele>408.0</ele>
        <time>2022-03-01T14:50:36Z</time>
      </trkpt>
      <trkpt lat="40.0304370" lon="-4.6382000">
        <ele>408.0</ele>
        <time>2022-03-01T14:50:37Z</time>
      </trkpt>
      <trkpt lat="40.0305430" lon="-4.6384070">
        <ele>407.0</ele>
        <time>2022-03-01T14:50:38Z</time>
      </trkpt>
      <trkpt lat="40.0305430" lon="-4.6384070">
        <ele>407.0</ele>
        <time>2022-03-01T14:50:39Z</time>
      </trkpt>
      <trkpt lat="40.0306570" lon="-4.6386020">
        <ele>407.0</ele>
        <time>2022-03-01T14:50:40Z</time>
      </trkpt>
      <trkpt lat="40.0306570" lon="-4.6386020">
        <ele>407.0</ele>
        <time>2022-03-01T14:50:41Z</time>
      </trkpt>
      <trkpt lat="40.0307720" lon="-4.6387850">
        <ele>406.0</ele>
        <time>2022-03-01T14:50:42Z</time>
      </trkpt>
      <trkpt lat="40.0307720" lon="-4.6387850">
        <ele>406.0</ele>
        <time>2022-03-01T14:50:43Z</time>
      </trkpt>
      <trkpt lat="40.0308920" lon="-4.6389580">
        <ele>406.0</ele>
        <time>2022-03-01T14:50:44Z</time>
      </trkpt>
      <trkpt lat="40.0308920" lon="-4.6389580">
        <ele>406.0</ele>
        <time>2022-03-01T14:50:45Z</time>
      </trkpt>
      <trkpt lat="40.0310120" lon="-4.6391280">
        <ele>406.0</ele>
        <time>2022-03-01T14:50:46Z</time>
      </trkpt>
      <trkpt lat="40.0310120" lon="-4.6391280">
        <ele>406.0</ele>
        <time>2022-03-01T14:50:47Z</time>
      </trkpt>
      <trkpt lat="40.0311300" lon="-4.6392950">
        <ele>406.0</ele>
        <time>2022-03-01T14:50:48Z</time>
      </trkpt>
      <trkpt lat="40.0311300" lon="-4.6392950">
        <ele>406.0</ele>
        <time>2022-03-01T14:50:49Z</time>
      </trkpt>
      <trkpt lat="40.0312480" lon="-4.6394600">
        <ele>406.0</ele>
        <time>2022-03-01T14:50:50Z</time>
      </trkpt>
      <trkpt lat="40.0313070" lon="-4.6395420">
        <ele>406.0</ele>
        <time>2022-03-01T14:50:51Z</time>
      </trkpt>
      <trkpt lat="40.0313650" lon="-4.6396230">
        <ele>405.0</ele>
        <time>2022-03-01T14:50:52Z</time>
      </trkpt>
      <trkpt lat="40.0313650" lon="-4.6396230">
        <ele>405.0</ele>
        <time>2022-03-01T14:50:53Z</time>
      </trkpt>
      <trkpt lat="40.0314830" lon="-4.6397870">
        <ele>405.0</ele>
        <time>2022-03-01T14:50:54Z</time>
      </trkpt>
      <trkpt lat="40.0315420" lon="-4.6398700">
        <ele>405.0</ele>
        <time>2022-03-01T14:50:55Z</time>
      </trkpt>
      <trkpt lat="40.0315420" lon="-4.6398700">
        <ele>404.0</ele>
        <time>2022-03-01T14:50:56Z</time>
      </trkpt>
      <trkpt lat="40.0316580" lon="-4.6400350">
        <ele>404.0</ele>
        <time>2022-03-01T14:50:57Z</time>
      </trkpt>
      <trkpt lat="40.0317170" lon="-4.6401180">
        <ele>404.0</ele>
        <time>2022-03-01T14:50:58Z</time>
      </trkpt>
      <trkpt lat="40.0317170" lon="-4.6401180">
        <ele>404.0</ele>
        <time>2022-03-01T14:50:59Z</time>
      </trkpt>
      <trkpt lat="40.0318350" lon="-4.6402800">
        <ele>404.0</ele>
        <time>2022-03-01T14:51:00Z</time>
      </trkpt>
      <trkpt lat="40.0318350" lon="-4.6402800">
        <ele>403.0</ele>
        <time>2022-03-01T14:51:01Z</time>
      </trkpt>
      <trkpt lat="40.0319550" lon="-4.6404430">
        <ele>403.0</ele>
        <time>2022-03-01T14:51:02Z</time>
      </trkpt>
      <trkpt lat="40.0320150" lon="-4.6405230">
        <ele>402.0</ele>
        <time>2022-03-01T14:51:03Z</time>
      </trkpt>
      <trkpt lat="40.0320770" lon="-4.6406020">
        <ele>402.0</ele>
        <time>2022-03-01T14:51:04Z</time>
      </trkpt>
      <trkpt lat="40.0320770" lon="-4.6406020">
        <ele>402.0</ele>
        <time>2022-03-01T14:51:05Z</time>
      </trkpt>
      <trkpt lat="40.0322070" lon="-4.6407530">
        <ele>402.0</ele>
        <time>2022-03-01T14:51:06Z</time>
      </trkpt>
      <trkpt lat="40.0322070" lon="-4.6407530">
        <ele>402.0</ele>
        <time>2022-03-01T14:51:07Z</time>
      </trkpt>
      <trkpt lat="40.0323380" lon="-4.6409030">
        <ele>402.0</ele>
        <time>2022-03-01T14:51:08Z</time>
      </trkpt>
      <trkpt lat="40.0324050" lon="-4.6409780">
        <ele>402.0</ele>
        <time>2022-03-01T14:51:09Z</time>
      </trkpt>
      <trkpt lat="40.0324700" lon="-4.6410520">
        <ele>402.0</ele>
        <time>2022-03-01T14:51:10Z</time>
      </trkpt>
      <trkpt lat="40.0324700" lon="-4.6410520">
        <ele>401.0</ele>
        <time>2022-03-01T14:51:11Z</time>
      </trkpt>
      <trkpt lat="40.0326050" lon="-4.6411980">
        <ele>401.0</ele>
        <time>2022-03-01T14:51:12Z</time>
      </trkpt>
      <trkpt lat="40.0326050" lon="-4.6411980">
        <ele>401.0</ele>
        <time>2022-03-01T14:51:13Z</time>
      </trkpt>
      <trkpt lat="40.0327420" lon="-4.6413470">
        <ele>401.0</ele>
        <time>2022-03-01T14:51:14Z</time>
      </trkpt>
      <trkpt lat="40.0328100" lon="-4.6414220">
        <ele>399.0</ele>
        <time>2022-03-01T14:51:15Z</time>
      </trkpt>
      <trkpt lat="40.0328100" lon="-4.6414220">
        <ele>399.0</ele>
        <time>2022-03-01T14:51:16Z</time>
      </trkpt>
      <trkpt lat="40.0329430" lon="-4.6415680">
        <ele>399.0</ele>
        <time>2022-03-01T14:51:17Z</time>
      </trkpt>
      <trkpt lat="40.0330100" lon="-4.6416420">
        <ele>399.0</ele>
        <time>2022-03-01T14:51:18Z</time>
      </trkpt>
      <trkpt lat="40.0330100" lon="-4.6416420">
        <ele>398.0</ele>
        <time>2022-03-01T14:51:19Z</time>
      </trkpt>
      <trkpt lat="40.0331400" lon="-4.6417850">
        <ele>398.0</ele>
        <time>2022-03-01T14:51:20Z</time>
      </trkpt>
      <trkpt lat="40.0331400" lon="-4.6417850">
        <ele>398.0</ele>
        <time>2022-03-01T14:51:21Z</time>
      </trkpt>
      <trkpt lat="40.0332680" lon="-4.6419250">
        <ele>398.0</ele>
        <time>2022-03-01T14:51:22Z</time>
      </trkpt>
      <trkpt lat="40.0332680" lon="-4.6419250">
        <ele>398.0</ele>
        <time>2022-03-01T14:51:23Z</time>
      </trkpt>
      <trkpt lat="40.0333970" lon="-4.6420650">
        <ele>398.0</ele>
        <time>2022-03-01T14:51:24Z</time>
      </trkpt>
      <trkpt lat="40.0334600" lon="-4.6421330">
        <ele>398.0</ele>
        <time>2022-03-01T14:51:25Z</time>
      </trkpt>
      <trkpt lat="40.0334600" lon="-4.6421330">
        <ele>398.0</ele>
        <time>2022-03-01T14:51:26Z</time>
      </trkpt>
      <trkpt lat="40.0335850" lon="-4.6422720">
        <ele>398.0</ele>
        <time>2022-03-01T14:51:27Z</time>
      </trkpt>
      <trkpt lat="40.0335850" lon="-4.6422720">
        <ele>398.0</ele>
        <time>2022-03-01T14:51:28Z</time>
      </trkpt>
      <trkpt lat="40.0337080" lon="-4.6424120">
        <ele>398.0</ele>
        <time>2022-03-01T14:51:29Z</time>
      </trkpt>
      <trkpt lat="40.0337720" lon="-4.6424800">
        <ele>398.0</ele>
        <time>2022-03-01T14:51:30Z</time>
      </trkpt>
      <trkpt lat="40.0337720" lon="-4.6424800">
        <ele>398.0</ele>
        <time>2022-03-01T14:51:31Z</time>
      </trkpt>
      <trkpt lat="40.0338950" lon="-4.6426180">
        <ele>398.0</ele>
        <time>2022-03-01T14:51:32Z</time>
      </trkpt>
      <trkpt lat="40.0338950" lon="-4.6426180">
        <ele>398.0</ele>
        <time>2022-03-01T14:51:33Z</time>
      </trkpt>
      <trkpt lat="40.0340180" lon="-4.6427520">
        <ele>398.0</ele>
        <time>2022-03-01T14:51:34Z</time>
      </trkpt>
      <trkpt lat="40.0340780" lon="-4.6428180">
        <ele>398.0</ele>
        <time>2022-03-01T14:51:35Z</time>
      </trkpt>
      <trkpt lat="40.0340780" lon="-4.6428180">
        <ele>398.0</ele>
        <time>2022-03-01T14:51:36Z</time>
      </trkpt>
      <trkpt lat="40.0342020" lon="-4.6429530">
        <ele>398.0</ele>
        <time>2022-03-01T14:51:37Z</time>
      </trkpt>
      <trkpt lat="40.0342620" lon="-4.6430200">
        <ele>398.0</ele>
        <time>2022-03-01T14:51:38Z</time>
      </trkpt>
      <trkpt lat="40.0342620" lon="-4.6430200">
        <ele>398.0</ele>
        <time>2022-03-01T14:51:39Z</time>
      </trkpt>
      <trkpt lat="40.0343830" lon="-4.6431550">
        <ele>398.0</ele>
        <time>2022-03-01T14:51:40Z</time>
      </trkpt>
      <trkpt lat="40.0343830" lon="-4.6431550">
        <ele>398.0</ele>
        <time>2022-03-01T14:51:41Z</time>
      </trkpt>
      <trkpt lat="40.0345070" lon="-4.6432900">
        <ele>397.0</ele>
        <time>2022-03-01T14:51:42Z</time>
      </trkpt>
      <trkpt lat="40.0345070" lon="-4.6432900">
        <ele>397.0</ele>
        <time>2022-03-01T14:51:43Z</time>
      </trkpt>
      <trkpt lat="40.0346280" lon="-4.6434270">
        <ele>397.0</ele>
        <time>2022-03-01T14:51:44Z</time>
      </trkpt>
      <trkpt lat="40.0346280" lon="-4.6434270">
        <ele>397.0</ele>
        <time>2022-03-01T14:51:45Z</time>
      </trkpt>
      <trkpt lat="40.0347500" lon="-4.6435600">
        <ele>397.0</ele>
        <time>2022-03-01T14:51:46Z</time>
      </trkpt>
      <trkpt lat="40.0347500" lon="-4.6435600">
        <ele>397.0</ele>
        <time>2022-03-01T14:51:47Z</time>
      </trkpt>
      <trkpt lat="40.0348730" lon="-4.6436950">
        <ele>396.0</ele>
        <time>2022-03-01T14:51:48Z</time>
      </trkpt>
      <trkpt lat="40.0348730" lon="-4.6436950">
        <ele>396.0</ele>
        <time>2022-03-01T14:51:49Z</time>
      </trkpt>
      <trkpt lat="40.0349970" lon="-4.6438300">
        <ele>396.0</ele>
        <time>2022-03-01T14:51:50Z</time>
      </trkpt>
      <trkpt lat="40.0349970" lon="-4.6438300">
        <ele>396.0</ele>
        <time>2022-03-01T14:51:51Z</time>
      </trkpt>
      <trkpt lat="40.0351200" lon="-4.6439670">
        <ele>395.0</ele>
        <time>2022-03-01T14:51:52Z</time>
      </trkpt>
      <trkpt lat="40.0351200" lon="-4.6439670">
        <ele>395.0</ele>
        <time>2022-03-01T14:51:53Z</time>
      </trkpt>
      <trkpt lat="40.0352450" lon="-4.6441020">
        <ele>395.0</ele>
        <time>2022-03-01T14:51:54Z</time>
      </trkpt>
      <trkpt lat="40.0353080" lon="-4.6441700">
        <ele>395.0</ele>
        <time>2022-03-01T14:51:55Z</time>
      </trkpt>
      <trkpt lat="40.0353080" lon="-4.6441700">
        <ele>395.0</ele>
        <time>2022-03-01T14:51:56Z</time>
      </trkpt>
      <trkpt lat="40.0354320" lon="-4.6443070">
        <ele>395.0</ele>
        <time>2022-03-01T14:51:57Z</time>
      </trkpt>
      <trkpt lat="40.0354950" lon="-4.6443750">
        <ele>395.0</ele>
        <time>2022-03-01T14:51:58Z</time>
      </trkpt>
      <trkpt lat="40.0354950" lon="-4.6443750">
        <ele>395.0</ele>
        <time>2022-03-01T14:51:59Z</time>
      </trkpt>
      <trkpt lat="40.0356200" lon="-4.6445130">
        <ele>395.0</ele>
        <time>2022-03-01T14:52:00Z</time>
      </trkpt>
      <trkpt lat="40.0356200" lon="-4.6445130">
        <ele>395.0</ele>
        <time>2022-03-01T14:52:01Z</time>
      </trkpt>
      <trkpt lat="40.0357450" lon="-4.6446520">
        <ele>395.0</ele>
        <time>2022-03-01T14:52:02Z</time>
      </trkpt>
      <trkpt lat="40.0358070" lon="-4.6447200">
        <ele>395.0</ele>
        <time>2022-03-01T14:52:03Z</time>
      </trkpt>
      <trkpt lat="40.0358670" lon="-4.6447880">
        <ele>395.0</ele>
        <time>2022-03-01T14:52:04Z</time>
      </trkpt>
      <trkpt lat="40.0358670" lon="-4.6447880">
        <ele>395.0</ele>
        <time>2022-03-01T14:52:05Z</time>
      </trkpt>
      <trkpt lat="40.0359900" lon="-4.6449250">
        <ele>395.0</ele>
        <time>2022-03-01T14:52:06Z</time>
      </trkpt>
      <trkpt lat="40.0359900" lon="-4.6449250">
        <ele>395.0</ele>
        <time>2022-03-01T14:52:07Z</time>
      </trkpt>
      <trkpt lat="40.0361170" lon="-4.6450580">
        <ele>395.0</ele>
        <time>2022-03-01T14:52:08Z</time>
      </trkpt>
      <trkpt lat="40.0361170" lon="-4.6450580">
        <ele>395.0</ele>
        <time>2022-03-01T14:52:09Z</time>
      </trkpt>
      <trkpt lat="40.0362420" lon="-4.6451970">
        <ele>395.0</ele>
        <time>2022-03-01T14:52:10Z</time>
      </trkpt>
      <trkpt lat="40.0362420" lon="-4.6451970">
        <ele>395.0</ele>
        <time>2022-03-01T14:52:11Z</time>
      </trkpt>
      <trkpt lat="40.0363620" lon="-4.6453300">
        <ele>395.0</ele>
        <time>2022-03-01T14:52:12Z</time>
      </trkpt>
      <trkpt lat="40.0363620" lon="-4.6453300">
        <ele>395.0</ele>
        <time>2022-03-01T14:52:13Z</time>
      </trkpt>
      <trkpt lat="40.0364800" lon="-4.6454650">
        <ele>395.0</ele>
        <time>2022-03-01T14:52:14Z</time>
      </trkpt>
      <trkpt lat="40.0364800" lon="-4.6454650">
        <ele>395.0</ele>
        <time>2022-03-01T14:52:15Z</time>
      </trkpt>
      <trkpt lat="40.0366000" lon="-4.6455950">
        <ele>395.0</ele>
        <time>2022-03-01T14:52:16Z</time>
      </trkpt>
      <trkpt lat="40.0366000" lon="-4.6455950">
        <ele>395.0</ele>
        <time>2022-03-01T14:52:17Z</time>
      </trkpt>
      <trkpt lat="40.0367200" lon="-4.6457300">
        <ele>395.0</ele>
        <time>2022-03-01T14:52:18Z</time>
      </trkpt>
      <trkpt lat="40.0367200" lon="-4.6457300">
        <ele>395.0</ele>
        <time>2022-03-01T14:52:19Z</time>
      </trkpt>
      <trkpt lat="40.0368350" lon="-4.6458600">
        <ele>395.0</ele>
        <time>2022-03-01T14:52:20Z</time>
      </trkpt>
      <trkpt lat="40.0368350" lon="-4.6458600">
        <ele>395.0</ele>
        <time>2022-03-01T14:52:21Z</time>
      </trkpt>
      <trkpt lat="40.0369500" lon="-4.6459880">
        <ele>395.0</ele>
        <time>2022-03-01T14:52:22Z</time>
      </trkpt>
      <trkpt lat="40.0369500" lon="-4.6459880">
        <ele>395.0</ele>
        <time>2022-03-01T14:52:23Z</time>
      </trkpt>
      <trkpt lat="40.0370670" lon="-4.6461170">
        <ele>395.0</ele>
        <time>2022-03-01T14:52:24Z</time>
      </trkpt>
      <trkpt lat="40.0370670" lon="-4.6461170">
        <ele>395.0</ele>
        <time>2022-03-01T14:52:25Z</time>
      </trkpt>
      <trkpt lat="40.0371850" lon="-4.6462470">
        <ele>395.0</ele>
        <time>2022-03-01T14:52:26Z</time>
      </trkpt>
      <trkpt lat="40.0371850" lon="-4.6462470">
        <ele>394.0</ele>
        <time>2022-03-01T14:52:27Z</time>
      </trkpt>
      <trkpt lat="40.0373030" lon="-4.6463750">
        <ele>394.0</ele>
        <time>2022-03-01T14:52:28Z</time>
      </trkpt>
      <trkpt lat="40.0373030" lon="-4.6463750">
        <ele>394.0</ele>
        <time>2022-03-01T14:52:29Z</time>
      </trkpt>
      <trkpt lat="40.0374200" lon="-4.6465000">
        <ele>394.0</ele>
        <time>2022-03-01T14:52:30Z</time>
      </trkpt>
      <trkpt lat="40.0374200" lon="-4.6465000">
        <ele>394.0</ele>
        <time>2022-03-01T14:52:31Z</time>
      </trkpt>
      <trkpt lat="40.0375350" lon="-4.6466280">
        <ele>394.0</ele>
        <time>2022-03-01T14:52:32Z</time>
      </trkpt>
      <trkpt lat="40.0375930" lon="-4.6466920">
        <ele>394.0</ele>
        <time>2022-03-01T14:52:33Z</time>
      </trkpt>
      <trkpt lat="40.0375930" lon="-4.6466920">
        <ele>394.0</ele>
        <time>2022-03-01T14:52:34Z</time>
      </trkpt>
      <trkpt lat="40.0377080" lon="-4.6468200">
        <ele>394.0</ele>
        <time>2022-03-01T14:52:35Z</time>
      </trkpt>
      <trkpt lat="40.0377670" lon="-4.6468850">
        <ele>394.0</ele>
        <time>2022-03-01T14:52:36Z</time>
      </trkpt>
      <trkpt lat="40.0377670" lon="-4.6468850">
        <ele>394.0</ele>
        <time>2022-03-01T14:52:37Z</time>
      </trkpt>
      <trkpt lat="40.0378700" lon="-4.6470100">
        <ele>394.0</ele>
        <time>2022-03-01T14:52:38Z</time>
      </trkpt>
      <trkpt lat="40.0378700" lon="-4.6470100">
        <ele>394.0</ele>
        <time>2022-03-01T14:52:39Z</time>
      </trkpt>
      <trkpt lat="40.0379650" lon="-4.6471280">
        <ele>394.0</ele>
        <time>2022-03-01T14:52:40Z</time>
      </trkpt>
      <trkpt lat="40.0379650" lon="-4.6471280">
        <ele>394.0</ele>
        <time>2022-03-01T14:52:41Z</time>
      </trkpt>
      <trkpt lat="40.0380620" lon="-4.6472480">
        <ele>394.0</ele>
        <time>2022-03-01T14:52:42Z</time>
      </trkpt>
      <trkpt lat="40.0380620" lon="-4.6472480">
        <ele>394.0</ele>
        <time>2022-03-01T14:52:43Z</time>
      </trkpt>
      <trkpt lat="40.0381680" lon="-4.6473600">
        <ele>394.0</ele>
        <time>2022-03-01T14:52:44Z</time>
      </trkpt>
      <trkpt lat="40.0381680" lon="-4.6473600">
        <ele>394.0</ele>
        <time>2022-03-01T14:52:45Z</time>
      </trkpt>
      <trkpt lat="40.0382820" lon="-4.6474730">
        <ele>394.0</ele>
        <time>2022-03-01T14:52:46Z</time>
      </trkpt>
      <trkpt lat="40.0382820" lon="-4.6474730">
        <ele>394.0</ele>
        <time>2022-03-01T14:52:47Z</time>
      </trkpt>
      <trkpt lat="40.0383920" lon="-4.6475900">
        <ele>394.0</ele>
        <time>2022-03-01T14:52:48Z</time>
      </trkpt>
      <trkpt lat="40.0383920" lon="-4.6475900">
        <ele>394.0</ele>
        <time>2022-03-01T14:52:49Z</time>
      </trkpt>
      <trkpt lat="40.0384970" lon="-4.6477020">
        <ele>394.0</ele>
        <time>2022-03-01T14:52:50Z</time>
      </trkpt>
      <trkpt lat="40.0385470" lon="-4.6477600">
        <ele>394.0</ele>
        <time>2022-03-01T14:52:51Z</time>
      </trkpt>
      <trkpt lat="40.0385980" lon="-4.6478170">
        <ele>394.0</ele>
        <time>2022-03-01T14:52:52Z</time>
      </trkpt>
      <trkpt lat="40.0385980" lon="-4.6478170">
        <ele>394.0</ele>
        <time>2022-03-01T14:52:53Z</time>
      </trkpt>
      <trkpt lat="40.0387050" lon="-4.6479320">
        <ele>394.0</ele>
        <time>2022-03-01T14:52:54Z</time>
      </trkpt>
      <trkpt lat="40.0387570" lon="-4.6479870">
        <ele>394.0</ele>
        <time>2022-03-01T14:52:55Z</time>
      </trkpt>
      <trkpt lat="40.0387570" lon="-4.6479870">
        <ele>394.0</ele>
        <time>2022-03-01T14:52:56Z</time>
      </trkpt>
      <trkpt lat="40.0388600" lon="-4.6480930">
        <ele>394.0</ele>
        <time>2022-03-01T14:52:57Z</time>
      </trkpt>
      <trkpt lat="40.0389120" lon="-4.6481470">
        <ele>394.0</ele>
        <time>2022-03-01T14:52:58Z</time>
      </trkpt>
      <trkpt lat="40.0389120" lon="-4.6481470">
        <ele>395.0</ele>
        <time>2022-03-01T14:52:59Z</time>
      </trkpt>
      <trkpt lat="40.0390170" lon="-4.6482570">
        <ele>395.0</ele>
        <time>2022-03-01T14:53:00Z</time>
      </trkpt>
      <trkpt lat="40.0390170" lon="-4.6482570">
        <ele>395.0</ele>
        <time>2022-03-01T14:53:01Z</time>
      </trkpt>
      <trkpt lat="40.0391180" lon="-4.6483680">
        <ele>395.0</ele>
        <time>2022-03-01T14:53:02Z</time>
      </trkpt>
      <trkpt lat="40.0391180" lon="-4.6483680">
        <ele>395.0</ele>
        <time>2022-03-01T14:53:03Z</time>
      </trkpt>
      <trkpt lat="40.0392220" lon="-4.6484780">
        <ele>395.0</ele>
        <time>2022-03-01T14:53:04Z</time>
      </trkpt>
      <trkpt lat="40.0392220" lon="-4.6484780">
        <ele>395.0</ele>
        <time>2022-03-01T14:53:05Z</time>
      </trkpt>
      <trkpt lat="40.0393270" lon="-4.6485900">
        <ele>395.0</ele>
        <time>2022-03-01T14:53:06Z</time>
      </trkpt>
      <trkpt lat="40.0393820" lon="-4.6486470">
        <ele>395.0</ele>
        <time>2022-03-01T14:53:07Z</time>
      </trkpt>
      <trkpt lat="40.0393820" lon="-4.6486470">
        <ele>395.0</ele>
        <time>2022-03-01T14:53:08Z</time>
      </trkpt>
      <trkpt lat="40.0394920" lon="-4.6487620">
        <ele>395.0</ele>
        <time>2022-03-01T14:53:09Z</time>
      </trkpt>
      <trkpt lat="40.0395470" lon="-4.6488180">
        <ele>395.0</ele>
        <time>2022-03-01T14:53:10Z</time>
      </trkpt>
      <trkpt lat="40.0396020" lon="-4.6488720">
        <ele>395.0</ele>
        <time>2022-03-01T14:53:11Z</time>
      </trkpt>
      <trkpt lat="40.0396020" lon="-4.6488720">
        <ele>395.0</ele>
        <time>2022-03-01T14:53:12Z</time>
      </trkpt>
      <trkpt lat="40.0397130" lon="-4.6489870">
        <ele>395.0</ele>
        <time>2022-03-01T14:53:13Z</time>
      </trkpt>
      <trkpt lat="40.0397130" lon="-4.6489870">
        <ele>395.0</ele>
        <time>2022-03-01T14:53:14Z</time>
      </trkpt>
      <trkpt lat="40.0398250" lon="-4.6491070">
        <ele>395.0</ele>
        <time>2022-03-01T14:53:15Z</time>
      </trkpt>
      <trkpt lat="40.0398800" lon="-4.6491670">
        <ele>395.0</ele>
        <time>2022-03-01T14:53:16Z</time>
      </trkpt>
      <trkpt lat="40.0398800" lon="-4.6491670">
        <ele>395.0</ele>
        <time>2022-03-01T14:53:17Z</time>
      </trkpt>
      <trkpt lat="40.0399900" lon="-4.6492830">
        <ele>395.0</ele>
        <time>2022-03-01T14:53:18Z</time>
      </trkpt>
      <trkpt lat="40.0399900" lon="-4.6492830">
        <ele>395.0</ele>
        <time>2022-03-01T14:53:19Z</time>
      </trkpt>
      <trkpt lat="40.0400950" lon="-4.6494000">
        <ele>395.0</ele>
        <time>2022-03-01T14:53:20Z</time>
      </trkpt>
      <trkpt lat="40.0400950" lon="-4.6494000">
        <ele>395.0</ele>
        <time>2022-03-01T14:53:21Z</time>
      </trkpt>
      <trkpt lat="40.0402030" lon="-4.6495150">
        <ele>395.0</ele>
        <time>2022-03-01T14:53:22Z</time>
      </trkpt>
      <trkpt lat="40.0402030" lon="-4.6495150">
        <ele>395.0</ele>
        <time>2022-03-01T14:53:23Z</time>
      </trkpt>
      <trkpt lat="40.0403100" lon="-4.6496300">
        <ele>395.0</ele>
        <time>2022-03-01T14:53:24Z</time>
      </trkpt>
      <trkpt lat="40.0403100" lon="-4.6496300">
        <ele>395.0</ele>
        <time>2022-03-01T14:53:25Z</time>
      </trkpt>
      <trkpt lat="40.0404180" lon="-4.6497430">
        <ele>395.0</ele>
        <time>2022-03-01T14:53:26Z</time>
      </trkpt>
      <trkpt lat="40.0404180" lon="-4.6497430">
        <ele>395.0</ele>
        <time>2022-03-01T14:53:27Z</time>
      </trkpt>
      <trkpt lat="40.0405220" lon="-4.6498620">
        <ele>395.0</ele>
        <time>2022-03-01T14:53:28Z</time>
      </trkpt>
      <trkpt lat="40.0405220" lon="-4.6498620">
        <ele>395.0</ele>
        <time>2022-03-01T14:53:29Z</time>
      </trkpt>
      <trkpt lat="40.0406320" lon="-4.6499780">
        <ele>395.0</ele>
        <time>2022-03-01T14:53:30Z</time>
      </trkpt>
      <trkpt lat="40.0406320" lon="-4.6499780">
        <ele>395.0</ele>
        <time>2022-03-01T14:53:31Z</time>
      </trkpt>
      <trkpt lat="40.0407450" lon="-4.6500980">
        <ele>395.0</ele>
        <time>2022-03-01T14:53:32Z</time>
      </trkpt>
      <trkpt lat="40.0407980" lon="-4.6501580">
        <ele>395.0</ele>
        <time>2022-03-01T14:53:33Z</time>
      </trkpt>
      <trkpt lat="40.0407980" lon="-4.6501580">
        <ele>395.0</ele>
        <time>2022-03-01T14:53:34Z</time>
      </trkpt>
      <trkpt lat="40.0409070" lon="-4.6502780">
        <ele>395.0</ele>
        <time>2022-03-01T14:53:35Z</time>
      </trkpt>
      <trkpt lat="40.0409620" lon="-4.6503380">
        <ele>395.0</ele>
        <time>2022-03-01T14:53:36Z</time>
      </trkpt>
      <trkpt lat="40.0409620" lon="-4.6503380">
        <ele>395.0</ele>
        <time>2022-03-01T14:53:37Z</time>
      </trkpt>
      <trkpt lat="40.0410750" lon="-4.6504550">
        <ele>395.0</ele>
        <time>2022-03-01T14:53:38Z</time>
      </trkpt>
      <trkpt lat="40.0410750" lon="-4.6504550">
        <ele>395.0</ele>
        <time>2022-03-01T14:53:39Z</time>
      </trkpt>
      <trkpt lat="40.0411880" lon="-4.6505770">
        <ele>395.0</ele>
        <time>2022-03-01T14:53:40Z</time>
      </trkpt>
      <trkpt lat="40.0411880" lon="-4.6505770">
        <ele>395.0</ele>
        <time>2022-03-01T14:53:41Z</time>
      </trkpt>
      <trkpt lat="40.0413000" lon="-4.6506980">
        <ele>395.0</ele>
        <time>2022-03-01T14:53:42Z</time>
      </trkpt>
      <trkpt lat="40.0413000" lon="-4.6506980">
        <ele>395.0</ele>
        <time>2022-03-01T14:53:43Z</time>
      </trkpt>
      <trkpt lat="40.0414130" lon="-4.6508220">
        <ele>395.0</ele>
        <time>2022-03-01T14:53:44Z</time>
      </trkpt>
      <trkpt lat="40.0414130" lon="-4.6508220">
        <ele>395.0</ele>
        <time>2022-03-01T14:53:45Z</time>
      </trkpt>
      <trkpt lat="40.0415280" lon="-4.6509450">
        <ele>395.0</ele>
        <time>2022-03-01T14:53:46Z</time>
      </trkpt>
      <trkpt lat="40.0415280" lon="-4.6509450">
        <ele>395.0</ele>
        <time>2022-03-01T14:53:47Z</time>
      </trkpt>
      <trkpt lat="40.0416420" lon="-4.6510680">
        <ele>395.0</ele>
        <time>2022-03-01T14:53:48Z</time>
      </trkpt>
      <trkpt lat="40.0416420" lon="-4.6510680">
        <ele>395.0</ele>
        <time>2022-03-01T14:53:49Z</time>
      </trkpt>
      <trkpt lat="40.0417580" lon="-4.6511930">
        <ele>395.0</ele>
        <time>2022-03-01T14:53:50Z</time>
      </trkpt>
      <trkpt lat="40.0417580" lon="-4.6511930">
        <ele>395.0</ele>
        <time>2022-03-01T14:53:51Z</time>
      </trkpt>
      <trkpt lat="40.0418750" lon="-4.6513200">
        <ele>395.0</ele>
        <time>2022-03-01T14:53:52Z</time>
      </trkpt>
      <trkpt lat="40.0418750" lon="-4.6513200">
        <ele>395.0</ele>
        <time>2022-03-01T14:53:53Z</time>
      </trkpt>
      <trkpt lat="40.0419930" lon="-4.6514480">
        <ele>395.0</ele>
        <time>2022-03-01T14:53:54Z</time>
      </trkpt>
      <trkpt lat="40.0419930" lon="-4.6514480">
        <ele>395.0</ele>
        <time>2022-03-01T14:53:55Z</time>
      </trkpt>
      <trkpt lat="40.0421100" lon="-4.6515720">
        <ele>395.0</ele>
        <time>2022-03-01T14:53:56Z</time>
      </trkpt>
      <trkpt lat="40.0421100" lon="-4.6515720">
        <ele>395.0</ele>
        <time>2022-03-01T14:53:57Z</time>
      </trkpt>
      <trkpt lat="40.0422320" lon="-4.6516900">
        <ele>395.0</ele>
        <time>2022-03-01T14:53:58Z</time>
      </trkpt>
      <trkpt lat="40.0422320" lon="-4.6516900">
        <ele>395.0</ele>
        <time>2022-03-01T14:53:59Z</time>
      </trkpt>
      <trkpt lat="40.0423570" lon="-4.6518020">
        <ele>395.0</ele>
        <time>2022-03-01T14:54:00Z</time>
      </trkpt>
      <trkpt lat="40.0423570" lon="-4.6518020">
        <ele>395.0</ele>
        <time>2022-03-01T14:54:01Z</time>
      </trkpt>
      <trkpt lat="40.0424850" lon="-4.6519020">
        <ele>395.0</ele>
        <time>2022-03-01T14:54:02Z</time>
      </trkpt>
      <trkpt lat="40.0425500" lon="-4.6519450">
        <ele>395.0</ele>
        <time>2022-03-01T14:54:03Z</time>
      </trkpt>
      <trkpt lat="40.0426170" lon="-4.6519880">
        <ele>395.0</ele>
        <time>2022-03-01T14:54:04Z</time>
      </trkpt>
      <trkpt lat="40.0426170" lon="-4.6519880">
        <ele>395.0</ele>
        <time>2022-03-01T14:54:05Z</time>
      </trkpt>
      <trkpt lat="40.0427480" lon="-4.6520580">
        <ele>395.0</ele>
        <time>2022-03-01T14:54:06Z</time>
      </trkpt>
      <trkpt lat="40.0427480" lon="-4.6520580">
        <ele>395.0</ele>
        <time>2022-03-01T14:54:07Z</time>
      </trkpt>
      <trkpt lat="40.0428850" lon="-4.6521100">
        <ele>395.0</ele>
        <time>2022-03-01T14:54:08Z</time>
      </trkpt>
      <trkpt lat="40.0428850" lon="-4.6521100">
        <ele>395.0</ele>
        <time>2022-03-01T14:54:09Z</time>
      </trkpt>
      <trkpt lat="40.0430250" lon="-4.6521430">
        <ele>395.0</ele>
        <time>2022-03-01T14:54:10Z</time>
      </trkpt>
      <trkpt lat="40.0430250" lon="-4.6521430">
        <ele>396.0</ele>
        <time>2022-03-01T14:54:11Z</time>
      </trkpt>
      <trkpt lat="40.0431630" lon="-4.6521580">
        <ele>396.0</ele>
        <time>2022-03-01T14:54:12Z</time>
      </trkpt>
      <trkpt lat="40.0431630" lon="-4.6521580">
        <ele>396.0</ele>
        <time>2022-03-01T14:54:13Z</time>
      </trkpt>
      <trkpt lat="40.0433050" lon="-4.6521600">
        <ele>396.0</ele>
        <time>2022-03-01T14:54:14Z</time>
      </trkpt>
      <trkpt lat="40.0433050" lon="-4.6521600">
        <ele>396.0</ele>
        <time>2022-03-01T14:54:15Z</time>
      </trkpt>
      <trkpt lat="40.0434400" lon="-4.6521550">
        <ele>396.0</ele>
        <time>2022-03-01T14:54:16Z</time>
      </trkpt>
      <trkpt lat="40.0434400" lon="-4.6521550">
        <ele>396.0</ele>
        <time>2022-03-01T14:54:17Z</time>
      </trkpt>
      <trkpt lat="40.0435750" lon="-4.6521370">
        <ele>396.0</ele>
        <time>2022-03-01T14:54:18Z</time>
      </trkpt>
      <trkpt lat="40.0435750" lon="-4.6521370">
        <ele>397.0</ele>
        <time>2022-03-01T14:54:19Z</time>
      </trkpt>
      <trkpt lat="40.0437070" lon="-4.6521130">
        <ele>397.0</ele>
        <time>2022-03-01T14:54:20Z</time>
      </trkpt>
      <trkpt lat="40.0437070" lon="-4.6521130">
        <ele>397.0</ele>
        <time>2022-03-01T14:54:21Z</time>
      </trkpt>
      <trkpt lat="40.0438350" lon="-4.6520870">
        <ele>397.0</ele>
        <time>2022-03-01T14:54:22Z</time>
      </trkpt>
      <trkpt lat="40.0438980" lon="-4.6520730">
        <ele>397.0</ele>
        <time>2022-03-01T14:54:23Z</time>
      </trkpt>
      <trkpt lat="40.0438980" lon="-4.6520730">
        <ele>397.0</ele>
        <time>2022-03-01T14:54:24Z</time>
      </trkpt>
      <trkpt lat="40.0440250" lon="-4.6520450">
        <ele>398.0</ele>
        <time>2022-03-01T14:54:25Z</time>
      </trkpt>
      <trkpt lat="40.0440250" lon="-4.6520450">
        <ele>398.0</ele>
        <time>2022-03-01T14:54:26Z</time>
      </trkpt>
      <trkpt lat="40.0441470" lon="-4.6520120">
        <ele>398.0</ele>
        <time>2022-03-01T14:54:27Z</time>
      </trkpt>
      <trkpt lat="40.0442080" lon="-4.6519970">
        <ele>398.0</ele>
        <time>2022-03-01T14:54:28Z</time>
      </trkpt>
      <trkpt lat="40.0442080" lon="-4.6519970">
        <ele>399.0</ele>
        <time>2022-03-01T14:54:29Z</time>
      </trkpt>
      <trkpt lat="40.0443280" lon="-4.6519720">
        <ele>399.0</ele>
        <time>2022-03-01T14:54:30Z</time>
      </trkpt>
      <trkpt lat="40.0443280" lon="-4.6519720">
        <ele>399.0</ele>
        <time>2022-03-01T14:54:31Z</time>
      </trkpt>
      <trkpt lat="40.0444470" lon="-4.6519480">
        <ele>399.0</ele>
        <time>2022-03-01T14:54:32Z</time>
      </trkpt>
      <trkpt lat="40.0444470" lon="-4.6519480">
        <ele>399.0</ele>
        <time>2022-03-01T14:54:33Z</time>
      </trkpt>
      <trkpt lat="40.0445620" lon="-4.6519220">
        <ele>399.0</ele>
        <time>2022-03-01T14:54:34Z</time>
      </trkpt>
      <trkpt lat="40.0445620" lon="-4.6519220">
        <ele>400.0</ele>
        <time>2022-03-01T14:54:35Z</time>
      </trkpt>
      <trkpt lat="40.0446850" lon="-4.6519170">
        <ele>400.0</ele>
        <time>2022-03-01T14:54:36Z</time>
      </trkpt>
      <trkpt lat="40.0447470" lon="-4.6519120">
        <ele>400.0</ele>
        <time>2022-03-01T14:54:37Z</time>
      </trkpt>
      <trkpt lat="40.0447470" lon="-4.6519120">
        <ele>400.0</ele>
        <time>2022-03-01T14:54:38Z</time>
      </trkpt>
      <trkpt lat="40.0448700" lon="-4.6519030">
        <ele>400.0</ele>
        <time>2022-03-01T14:54:39Z</time>
      </trkpt>
      <trkpt lat="40.0448700" lon="-4.6519030">
        <ele>400.0</ele>
        <time>2022-03-01T14:54:40Z</time>
      </trkpt>
      <trkpt lat="40.0449930" lon="-4.6519050">
        <ele>400.0</ele>
        <time>2022-03-01T14:54:41Z</time>
      </trkpt>
      <trkpt lat="40.0450550" lon="-4.6519050">
        <ele>400.0</ele>
        <time>2022-03-01T14:54:42Z</time>
      </trkpt>
      <trkpt lat="40.0450550" lon="-4.6519050">
        <ele>400.0</ele>
        <time>2022-03-01T14:54:43Z</time>
      </trkpt>
      <trkpt lat="40.0451770" lon="-4.6519120">
        <ele>400.0</ele>
        <time>2022-03-01T14:54:44Z</time>
      </trkpt>
      <trkpt lat="40.0451770" lon="-4.6519120">
        <ele>400.0</ele>
        <time>2022-03-01T14:54:45Z</time>
      </trkpt>
      <trkpt lat="40.0452980" lon="-4.6519280">
        <ele>400.0</ele>
        <time>2022-03-01T14:54:46Z</time>
      </trkpt>
      <trkpt lat="40.0453580" lon="-4.6519370">
        <ele>400.0</ele>
        <time>2022-03-01T14:54:47Z</time>
      </trkpt>
      <trkpt lat="40.0454180" lon="-4.6519430">
        <ele>400.0</ele>
        <time>2022-03-01T14:54:48Z</time>
      </trkpt>
      <trkpt lat="40.0454180" lon="-4.6519430">
        <ele>401.0</ele>
        <time>2022-03-01T14:54:49Z</time>
      </trkpt>
      <trkpt lat="40.0455380" lon="-4.6519580">
        <ele>401.0</ele>
        <time>2022-03-01T14:54:50Z</time>
      </trkpt>
      <trkpt lat="40.0455380" lon="-4.6519580">
        <ele>401.0</ele>
        <time>2022-03-01T14:54:51Z</time>
      </trkpt>
      <trkpt lat="40.0456600" lon="-4.6519730">
        <ele>401.0</ele>
        <time>2022-03-01T14:54:52Z</time>
      </trkpt>
      <trkpt lat="40.0456600" lon="-4.6519730">
        <ele>401.0</ele>
        <time>2022-03-01T14:54:53Z</time>
      </trkpt>
      <trkpt lat="40.0457920" lon="-4.6519870">
        <ele>401.0</ele>
        <time>2022-03-01T14:54:54Z</time>
      </trkpt>
      <trkpt lat="40.0457920" lon="-4.6519870">
        <ele>401.0</ele>
        <time>2022-03-01T14:54:55Z</time>
      </trkpt>
      <trkpt lat="40.0459050" lon="-4.6520000">
        <ele>401.0</ele>
        <time>2022-03-01T14:54:56Z</time>
      </trkpt>
      <trkpt lat="40.0459630" lon="-4.6520080">
        <ele>401.0</ele>
        <time>2022-03-01T14:54:57Z</time>
      </trkpt>
      <trkpt lat="40.0460220" lon="-4.6520170">
        <ele>401.0</ele>
        <time>2022-03-01T14:54:58Z</time>
      </trkpt>
      <trkpt lat="40.0460220" lon="-4.6520170">
        <ele>402.0</ele>
        <time>2022-03-01T14:54:59Z</time>
      </trkpt>
      <trkpt lat="40.0461380" lon="-4.6520420">
        <ele>402.0</ele>
        <time>2022-03-01T14:55:00Z</time>
      </trkpt>
      <trkpt lat="40.0461380" lon="-4.6520420">
        <ele>402.0</ele>
        <time>2022-03-01T14:55:01Z</time>
      </trkpt>
      <trkpt lat="40.0462520" lon="-4.6520570">
        <ele>402.0</ele>
        <time>2022-03-01T14:55:02Z</time>
      </trkpt>
      <trkpt lat="40.0462520" lon="-4.6520570">
        <ele>402.0</ele>
        <time>2022-03-01T14:55:03Z</time>
      </trkpt>
      <trkpt lat="40.0463720" lon="-4.6520730">
        <ele>402.0</ele>
        <time>2022-03-01T14:55:04Z</time>
      </trkpt>
      <trkpt lat="40.0463720" lon="-4.6520730">
        <ele>403.0</ele>
        <time>2022-03-01T14:55:05Z</time>
      </trkpt>
      <trkpt lat="40.0464920" lon="-4.6520880">
        <ele>403.0</ele>
        <time>2022-03-01T14:55:06Z</time>
      </trkpt>
      <trkpt lat="40.0465530" lon="-4.6520980">
        <ele>403.0</ele>
        <time>2022-03-01T14:55:07Z</time>
      </trkpt>
      <trkpt lat="40.0465530" lon="-4.6520980">
        <ele>403.0</ele>
        <time>2022-03-01T14:55:08Z</time>
      </trkpt>
      <trkpt lat="40.0466730" lon="-4.6521170">
        <ele>403.0</ele>
        <time>2022-03-01T14:55:09Z</time>
      </trkpt>
      <trkpt lat="40.0467370" lon="-4.6521250">
        <ele>403.0</ele>
        <time>2022-03-01T14:55:10Z</time>
      </trkpt>
      <trkpt lat="40.0467370" lon="-4.6521250">
        <ele>404.0</ele>
        <time>2022-03-01T14:55:11Z</time>
      </trkpt>
      <trkpt lat="40.0468550" lon="-4.6521430">
        <ele>404.0</ele>
        <time>2022-03-01T14:55:12Z</time>
      </trkpt>
      <trkpt lat="40.0468550" lon="-4.6521430">
        <ele>404.0</ele>
        <time>2022-03-01T14:55:13Z</time>
      </trkpt>
      <trkpt lat="40.0469780" lon="-4.6521630">
        <ele>404.0</ele>
        <time>2022-03-01T14:55:14Z</time>
      </trkpt>
      <trkpt lat="40.0470400" lon="-4.6521700">
        <ele>404.0</ele>
        <time>2022-03-01T14:55:15Z</time>
      </trkpt>
      <trkpt lat="40.0471000" lon="-4.6521750">
        <ele>404.0</ele>
        <time>2022-03-01T14:55:16Z</time>
      </trkpt>
      <trkpt lat="40.0471000" lon="-4.6521750">
        <ele>404.0</ele>
        <time>2022-03-01T14:55:17Z</time>
      </trkpt>
      <trkpt lat="40.0472180" lon="-4.6521920">
        <ele>404.0</ele>
        <time>2022-03-01T14:55:18Z</time>
      </trkpt>
      <trkpt lat="40.0472800" lon="-4.6522030">
        <ele>404.0</ele>
        <time>2022-03-01T14:55:19Z</time>
      </trkpt>
      <trkpt lat="40.0472800" lon="-4.6522030">
        <ele>404.0</ele>
        <time>2022-03-01T14:55:20Z</time>
      </trkpt>
      <trkpt lat="40.0474050" lon="-4.6522250">
        <ele>404.0</ele>
        <time>2022-03-01T14:55:21Z</time>
      </trkpt>
      <trkpt lat="40.0474720" lon="-4.6522300">
        <ele>404.0</ele>
        <time>2022-03-01T14:55:22Z</time>
      </trkpt>
      <trkpt lat="40.0474720" lon="-4.6522300">
        <ele>404.0</ele>
        <time>2022-03-01T14:55:23Z</time>
      </trkpt>
      <trkpt lat="40.0476020" lon="-4.6522470">
        <ele>404.0</ele>
        <time>2022-03-01T14:55:24Z</time>
      </trkpt>
      <trkpt lat="40.0476020" lon="-4.6522470">
        <ele>404.0</ele>
        <time>2022-03-01T14:55:25Z</time>
      </trkpt>
      <trkpt lat="40.0477280" lon="-4.6522630">
        <ele>404.0</ele>
        <time>2022-03-01T14:55:26Z</time>
      </trkpt>
      <trkpt lat="40.0477280" lon="-4.6522630">
        <ele>404.0</ele>
        <time>2022-03-01T14:55:27Z</time>
      </trkpt>
      <trkpt lat="40.0478600" lon="-4.6522800">
        <ele>404.0</ele>
        <time>2022-03-01T14:55:28Z</time>
      </trkpt>
      <trkpt lat="40.0478600" lon="-4.6522800">
        <ele>404.0</ele>
        <time>2022-03-01T14:55:29Z</time>
      </trkpt>
      <trkpt lat="40.0479850" lon="-4.6522920">
        <ele>404.0</ele>
        <time>2022-03-01T14:55:30Z</time>
      </trkpt>
      <trkpt lat="40.0479850" lon="-4.6522920">
        <ele>404.0</ele>
        <time>2022-03-01T14:55:31Z</time>
      </trkpt>
      <trkpt lat="40.0481180" lon="-4.6523100">
        <ele>404.0</ele>
        <time>2022-03-01T14:55:32Z</time>
      </trkpt>
      <trkpt lat="40.0481180" lon="-4.6523100">
        <ele>404.0</ele>
        <time>2022-03-01T14:55:33Z</time>
      </trkpt>
      <trkpt lat="40.0482500" lon="-4.6523250">
        <ele>404.0</ele>
        <time>2022-03-01T14:55:34Z</time>
      </trkpt>
      <trkpt lat="40.0483180" lon="-4.6523330">
        <ele>404.0</ele>
        <time>2022-03-01T14:55:35Z</time>
      </trkpt>
      <trkpt lat="40.0483180" lon="-4.6523330">
        <ele>404.0</ele>
        <time>2022-03-01T14:55:36Z</time>
      </trkpt>
      <trkpt lat="40.0484550" lon="-4.6523520">
        <ele>404.0</ele>
        <time>2022-03-01T14:55:37Z</time>
      </trkpt>
      <trkpt lat="40.0484550" lon="-4.6523520">
        <ele>404.0</ele>
        <time>2022-03-01T14:55:38Z</time>
      </trkpt>
      <trkpt lat="40.0485970" lon="-4.6523750">
        <ele>404.0</ele>
        <time>2022-03-01T14:55:39Z</time>
      </trkpt>
      <trkpt lat="40.0486650" lon="-4.6523880">
        <ele>404.0</ele>
        <time>2022-03-01T14:55:40Z</time>
      </trkpt>
      <trkpt lat="40.0486650" lon="-4.6523880">
        <ele>404.0</ele>
        <time>2022-03-01T14:55:41Z</time>
      </trkpt>
      <trkpt lat="40.0488000" lon="-4.6524080">
        <ele>404.0</ele>
        <time>2022-03-01T14:55:42Z</time>
      </trkpt>
      <trkpt lat="40.0488000" lon="-4.6524080">
        <ele>404.0</ele>
        <time>2022-03-01T14:55:43Z</time>
      </trkpt>
      <trkpt lat="40.0489430" lon="-4.6524300">
        <ele>404.0</ele>
        <time>2022-03-01T14:55:44Z</time>
      </trkpt>
      <trkpt lat="40.0489430" lon="-4.6524300">
        <ele>404.0</ele>
        <time>2022-03-01T14:55:45Z</time>
      </trkpt>
      <trkpt lat="40.0490830" lon="-4.6524480">
        <ele>404.0</ele>
        <time>2022-03-01T14:55:46Z</time>
      </trkpt>
      <trkpt lat="40.0490830" lon="-4.6524480">
        <ele>404.0</ele>
        <time>2022-03-01T14:55:47Z</time>
      </trkpt>
      <trkpt lat="40.0492200" lon="-4.6524670">
        <ele>404.0</ele>
        <time>2022-03-01T14:55:48Z</time>
      </trkpt>
      <trkpt lat="40.0492200" lon="-4.6524670">
        <ele>404.0</ele>
        <time>2022-03-01T14:55:49Z</time>
      </trkpt>
      <trkpt lat="40.0493680" lon="-4.6524870">
        <ele>404.0</ele>
        <time>2022-03-01T14:55:50Z</time>
      </trkpt>
      <trkpt lat="40.0494400" lon="-4.6524950">
        <ele>404.0</ele>
        <time>2022-03-01T14:55:51Z</time>
      </trkpt>
      <trkpt lat="40.0495130" lon="-4.6525050">
        <ele>404.0</ele>
        <time>2022-03-01T14:55:52Z</time>
      </trkpt>
      <trkpt lat="40.0495130" lon="-4.6525050">
        <ele>404.0</ele>
        <time>2022-03-01T14:55:53Z</time>
      </trkpt>
      <trkpt lat="40.0496600" lon="-4.6525250">
        <ele>404.0</ele>
        <time>2022-03-01T14:55:54Z</time>
      </trkpt>
      <trkpt lat="40.0496600" lon="-4.6525250">
        <ele>404.0</ele>
        <time>2022-03-01T14:55:55Z</time>
      </trkpt>
      <trkpt lat="40.0498100" lon="-4.6525430">
        <ele>404.0</ele>
        <time>2022-03-01T14:55:56Z</time>
      </trkpt>
      <trkpt lat="40.0498100" lon="-4.6525430">
        <ele>404.0</ele>
        <time>2022-03-01T14:55:57Z</time>
      </trkpt>
      <trkpt lat="40.0499630" lon="-4.6525630">
        <ele>404.0</ele>
        <time>2022-03-01T14:55:58Z</time>
      </trkpt>
      <trkpt lat="40.0499630" lon="-4.6525630">
        <ele>404.0</ele>
        <time>2022-03-01T14:55:59Z</time>
      </trkpt>
      <trkpt lat="40.0501120" lon="-4.6525800">
        <ele>404.0</ele>
        <time>2022-03-01T14:56:00Z</time>
      </trkpt>
      <trkpt lat="40.0501120" lon="-4.6525800">
        <ele>404.0</ele>
        <time>2022-03-01T14:56:01Z</time>
      </trkpt>
      <trkpt lat="40.0502630" lon="-4.6525930">
        <ele>404.0</ele>
        <time>2022-03-01T14:56:02Z</time>
      </trkpt>
      <trkpt lat="40.0502630" lon="-4.6525930">
        <ele>404.0</ele>
        <time>2022-03-01T14:56:03Z</time>
      </trkpt>
      <trkpt lat="40.0504150" lon="-4.6526130">
        <ele>404.0</ele>
        <time>2022-03-01T14:56:04Z</time>
      </trkpt>
      <trkpt lat="40.0504150" lon="-4.6526130">
        <ele>404.0</ele>
        <time>2022-03-01T14:56:05Z</time>
      </trkpt>
      <trkpt lat="40.0505620" lon="-4.6526320">
        <ele>404.0</ele>
        <time>2022-03-01T14:56:06Z</time>
      </trkpt>
      <trkpt lat="40.0505620" lon="-4.6526320">
        <ele>404.0</ele>
        <time>2022-03-01T14:56:07Z</time>
      </trkpt>
      <trkpt lat="40.0507080" lon="-4.6526500">
        <ele>404.0</ele>
        <time>2022-03-01T14:56:08Z</time>
      </trkpt>
      <trkpt lat="40.0507080" lon="-4.6526500">
        <ele>404.0</ele>
        <time>2022-03-01T14:56:09Z</time>
      </trkpt>
      <trkpt lat="40.0508570" lon="-4.6526670">
        <ele>404.0</ele>
        <time>2022-03-01T14:56:10Z</time>
      </trkpt>
      <trkpt lat="40.0508570" lon="-4.6526670">
        <ele>404.0</ele>
        <time>2022-03-01T14:56:11Z</time>
      </trkpt>
      <trkpt lat="40.0510000" lon="-4.6526830">
        <ele>404.0</ele>
        <time>2022-03-01T14:56:12Z</time>
      </trkpt>
      <trkpt lat="40.0510000" lon="-4.6526830">
        <ele>404.0</ele>
        <time>2022-03-01T14:56:13Z</time>
      </trkpt>
      <trkpt lat="40.0511450" lon="-4.6526970">
        <ele>404.0</ele>
        <time>2022-03-01T14:56:14Z</time>
      </trkpt>
      <trkpt lat="40.0511450" lon="-4.6526970">
        <ele>404.0</ele>
        <time>2022-03-01T14:56:15Z</time>
      </trkpt>
      <trkpt lat="40.0512880" lon="-4.6527120">
        <ele>404.0</ele>
        <time>2022-03-01T14:56:16Z</time>
      </trkpt>
      <trkpt lat="40.0512880" lon="-4.6527120">
        <ele>404.0</ele>
        <time>2022-03-01T14:56:17Z</time>
      </trkpt>
      <trkpt lat="40.0514280" lon="-4.6527300">
        <ele>404.0</ele>
        <time>2022-03-01T14:56:18Z</time>
      </trkpt>
      <trkpt lat="40.0514970" lon="-4.6527380">
        <ele>404.0</ele>
        <time>2022-03-01T14:56:19Z</time>
      </trkpt>
      <trkpt lat="40.0514970" lon="-4.6527380">
        <ele>404.0</ele>
        <time>2022-03-01T14:56:20Z</time>
      </trkpt>
      <trkpt lat="40.0516370" lon="-4.6527570">
        <ele>404.0</ele>
        <time>2022-03-01T14:56:21Z</time>
      </trkpt>
      <trkpt lat="40.0517080" lon="-4.6527670">
        <ele>404.0</ele>
        <time>2022-03-01T14:56:22Z</time>
      </trkpt>
      <trkpt lat="40.0517080" lon="-4.6527670">
        <ele>404.0</ele>
        <time>2022-03-01T14:56:23Z</time>
      </trkpt>
      <trkpt lat="40.0518470" lon="-4.6527870">
        <ele>404.0</ele>
        <time>2022-03-01T14:56:24Z</time>
      </trkpt>
      <trkpt lat="40.0518470" lon="-4.6527870">
        <ele>404.0</ele>
        <time>2022-03-01T14:56:25Z</time>
      </trkpt>
      <trkpt lat="40.0519850" lon="-4.6528030">
        <ele>404.0</ele>
        <time>2022-03-01T14:56:26Z</time>
      </trkpt>
      <trkpt lat="40.0520520" lon="-4.6528120">
        <ele>404.0</ele>
        <time>2022-03-01T14:56:27Z</time>
      </trkpt>
      <trkpt lat="40.0520520" lon="-4.6528120">
        <ele>404.0</ele>
        <time>2022-03-01T14:56:28Z</time>
      </trkpt>
      <trkpt lat="40.0521830" lon="-4.6528280">
        <ele>404.0</ele>
        <time>2022-03-01T14:56:29Z</time>
      </trkpt>
      <trkpt lat="40.0522480" lon="-4.6528370">
        <ele>404.0</ele>
        <time>2022-03-01T14:56:30Z</time>
      </trkpt>
      <trkpt lat="40.0522480" lon="-4.6528370">
        <ele>404.0</ele>
        <time>2022-03-01T14:56:31Z</time>
      </trkpt>
      <trkpt lat="40.0523830" lon="-4.6528530">
        <ele>404.0</ele>
        <time>2022-03-01T14:56:32Z</time>
      </trkpt>
      <trkpt lat="40.0523830" lon="-4.6528530">
        <ele>404.0</ele>
        <time>2022-03-01T14:56:33Z</time>
      </trkpt>
      <trkpt lat="40.0525180" lon="-4.6528700">
        <ele>404.0</ele>
        <time>2022-03-01T14:56:34Z</time>
      </trkpt>
      <trkpt lat="40.0525180" lon="-4.6528700">
        <ele>404.0</ele>
        <time>2022-03-01T14:56:35Z</time>
      </trkpt>
      <trkpt lat="40.0526570" lon="-4.6528920">
        <ele>405.0</ele>
        <time>2022-03-01T14:56:36Z</time>
      </trkpt>
      <trkpt lat="40.0526570" lon="-4.6528920">
        <ele>405.0</ele>
        <time>2022-03-01T14:56:37Z</time>
      </trkpt>
      <trkpt lat="40.0527980" lon="-4.6529120">
        <ele>405.0</ele>
        <time>2022-03-01T14:56:38Z</time>
      </trkpt>
      <trkpt lat="40.0528700" lon="-4.6529220">
        <ele>405.0</ele>
        <time>2022-03-01T14:56:39Z</time>
      </trkpt>
      <trkpt lat="40.0529400" lon="-4.6529320">
        <ele>405.0</ele>
        <time>2022-03-01T14:56:40Z</time>
      </trkpt>
      <trkpt lat="40.0529400" lon="-4.6529320">
        <ele>405.0</ele>
        <time>2022-03-01T14:56:41Z</time>
      </trkpt>
      <trkpt lat="40.0530850" lon="-4.6529480">
        <ele>406.0</ele>
        <time>2022-03-01T14:56:42Z</time>
      </trkpt>
      <trkpt lat="40.0530850" lon="-4.6529480">
        <ele>406.0</ele>
        <time>2022-03-01T14:56:43Z</time>
      </trkpt>
      <trkpt lat="40.0532300" lon="-4.6529670">
        <ele>406.0</ele>
        <time>2022-03-01T14:56:44Z</time>
      </trkpt>
      <trkpt lat="40.0532300" lon="-4.6529670">
        <ele>406.0</ele>
        <time>2022-03-01T14:56:45Z</time>
      </trkpt>
      <trkpt lat="40.0533720" lon="-4.6529870">
        <ele>406.0</ele>
        <time>2022-03-01T14:56:46Z</time>
      </trkpt>
      <trkpt lat="40.0533720" lon="-4.6529870">
        <ele>406.0</ele>
        <time>2022-03-01T14:56:47Z</time>
      </trkpt>
      <trkpt lat="40.0535130" lon="-4.6530030">
        <ele>406.0</ele>
        <time>2022-03-01T14:56:48Z</time>
      </trkpt>
      <trkpt lat="40.0535130" lon="-4.6530030">
        <ele>406.0</ele>
        <time>2022-03-01T14:56:49Z</time>
      </trkpt>
      <trkpt lat="40.0536550" lon="-4.6530230">
        <ele>406.0</ele>
        <time>2022-03-01T14:56:50Z</time>
      </trkpt>
      <trkpt lat="40.0536550" lon="-4.6530230">
        <ele>406.0</ele>
        <time>2022-03-01T14:56:51Z</time>
      </trkpt>
      <trkpt lat="40.0537980" lon="-4.6530430">
        <ele>406.0</ele>
        <time>2022-03-01T14:56:52Z</time>
      </trkpt>
      <trkpt lat="40.0537980" lon="-4.6530430">
        <ele>406.0</ele>
        <time>2022-03-01T14:56:53Z</time>
      </trkpt>
      <trkpt lat="40.0539420" lon="-4.6530580">
        <ele>406.0</ele>
        <time>2022-03-01T14:56:54Z</time>
      </trkpt>
      <trkpt lat="40.0539420" lon="-4.6530580">
        <ele>406.0</ele>
        <time>2022-03-01T14:56:55Z</time>
      </trkpt>
      <trkpt lat="40.0540820" lon="-4.6530780">
        <ele>406.0</ele>
        <time>2022-03-01T14:56:56Z</time>
      </trkpt>
      <trkpt lat="40.0540820" lon="-4.6530780">
        <ele>406.0</ele>
        <time>2022-03-01T14:56:57Z</time>
      </trkpt>
      <trkpt lat="40.0542220" lon="-4.6530980">
        <ele>406.0</ele>
        <time>2022-03-01T14:56:58Z</time>
      </trkpt>
      <trkpt lat="40.0542220" lon="-4.6530980">
        <ele>406.0</ele>
        <time>2022-03-01T14:56:59Z</time>
      </trkpt>
      <trkpt lat="40.0543580" lon="-4.6531170">
        <ele>406.0</ele>
        <time>2022-03-01T14:57:00Z</time>
      </trkpt>
      <trkpt lat="40.0543580" lon="-4.6531170">
        <ele>406.0</ele>
        <time>2022-03-01T14:57:01Z</time>
      </trkpt>
      <trkpt lat="40.0544920" lon="-4.6531280">
        <ele>406.0</ele>
        <time>2022-03-01T14:57:02Z</time>
      </trkpt>
      <trkpt lat="40.0544920" lon="-4.6531280">
        <ele>406.0</ele>
        <time>2022-03-01T14:57:03Z</time>
      </trkpt>
      <trkpt lat="40.0546300" lon="-4.6531470">
        <ele>407.0</ele>
        <time>2022-03-01T14:57:04Z</time>
      </trkpt>
      <trkpt lat="40.0546300" lon="-4.6531470">
        <ele>407.0</ele>
        <time>2022-03-01T14:57:05Z</time>
      </trkpt>
      <trkpt lat="40.0547700" lon="-4.6531630">
        <ele>407.0</ele>
        <time>2022-03-01T14:57:06Z</time>
      </trkpt>
      <trkpt lat="40.0547700" lon="-4.6531630">
        <ele>407.0</ele>
        <time>2022-03-01T14:57:07Z</time>
      </trkpt>
      <trkpt lat="40.0549150" lon="-4.6531830">
        <ele>407.0</ele>
        <time>2022-03-01T14:57:08Z</time>
      </trkpt>
      <trkpt lat="40.0549150" lon="-4.6531830">
        <ele>407.0</ele>
        <time>2022-03-01T14:57:09Z</time>
      </trkpt>
      <trkpt lat="40.0550570" lon="-4.6532050">
        <ele>407.0</ele>
        <time>2022-03-01T14:57:10Z</time>
      </trkpt>
      <trkpt lat="40.0550570" lon="-4.6532050">
        <ele>407.0</ele>
        <time>2022-03-01T14:57:11Z</time>
      </trkpt>
      <trkpt lat="40.0551980" lon="-4.6532250">
        <ele>407.0</ele>
        <time>2022-03-01T14:57:12Z</time>
      </trkpt>
      <trkpt lat="40.0552670" lon="-4.6532350">
        <ele>407.0</ele>
        <time>2022-03-01T14:57:13Z</time>
      </trkpt>
      <trkpt lat="40.0552670" lon="-4.6532350">
        <ele>407.0</ele>
        <time>2022-03-01T14:57:14Z</time>
      </trkpt>
      <trkpt lat="40.0554030" lon="-4.6532530">
        <ele>407.0</ele>
        <time>2022-03-01T14:57:15Z</time>
      </trkpt>
      <trkpt lat="40.0554650" lon="-4.6532630">
        <ele>407.0</ele>
        <time>2022-03-01T14:57:16Z</time>
      </trkpt>
      <trkpt lat="40.0554650" lon="-4.6532630">
        <ele>407.0</ele>
        <time>2022-03-01T14:57:17Z</time>
      </trkpt>
      <trkpt lat="40.0555970" lon="-4.6532770">
        <ele>407.0</ele>
        <time>2022-03-01T14:57:18Z</time>
      </trkpt>
      <trkpt lat="40.0555970" lon="-4.6532770">
        <ele>408.0</ele>
        <time>2022-03-01T14:57:19Z</time>
      </trkpt>
      <trkpt lat="40.0557320" lon="-4.6533000">
        <ele>408.0</ele>
        <time>2022-03-01T14:57:20Z</time>
      </trkpt>
      <trkpt lat="40.0557320" lon="-4.6533000">
        <ele>408.0</ele>
        <time>2022-03-01T14:57:21Z</time>
      </trkpt>
      <trkpt lat="40.0558620" lon="-4.6533200">
        <ele>408.0</ele>
        <time>2022-03-01T14:57:22Z</time>
      </trkpt>
      <trkpt lat="40.0558620" lon="-4.6533200">
        <ele>408.0</ele>
        <time>2022-03-01T14:57:23Z</time>
      </trkpt>
      <trkpt lat="40.0559970" lon="-4.6533400">
        <ele>408.0</ele>
        <time>2022-03-01T14:57:24Z</time>
      </trkpt>
      <trkpt lat="40.0559970" lon="-4.6533400">
        <ele>408.0</ele>
        <time>2022-03-01T14:57:25Z</time>
      </trkpt>
      <trkpt lat="40.0561300" lon="-4.6533580">
        <ele>408.0</ele>
        <time>2022-03-01T14:57:26Z</time>
      </trkpt>
      <trkpt lat="40.0561300" lon="-4.6533580">
        <ele>408.0</ele>
        <time>2022-03-01T14:57:27Z</time>
      </trkpt>
      <trkpt lat="40.0562600" lon="-4.6533750">
        <ele>408.0</ele>
        <time>2022-03-01T14:57:28Z</time>
      </trkpt>
      <trkpt lat="40.0562600" lon="-4.6533750">
        <ele>409.0</ele>
        <time>2022-03-01T14:57:29Z</time>
      </trkpt>
      <trkpt lat="40.0563920" lon="-4.6533900">
        <ele>409.0</ele>
        <time>2022-03-01T14:57:30Z</time>
      </trkpt>
      <trkpt lat="40.0563920" lon="-4.6533900">
        <ele>409.0</ele>
        <time>2022-03-01T14:57:31Z</time>
      </trkpt>
      <trkpt lat="40.0565230" lon="-4.6534050">
        <ele>409.0</ele>
        <time>2022-03-01T14:57:32Z</time>
      </trkpt>
      <trkpt lat="40.0565900" lon="-4.6534130">
        <ele>409.0</ele>
        <time>2022-03-01T14:57:33Z</time>
      </trkpt>
      <trkpt lat="40.0565900" lon="-4.6534130">
        <ele>409.0</ele>
        <time>2022-03-01T14:57:34Z</time>
      </trkpt>
      <trkpt lat="40.0567250" lon="-4.6534300">
        <ele>409.0</ele>
        <time>2022-03-01T14:57:35Z</time>
      </trkpt>
      <trkpt lat="40.0567930" lon="-4.6534380">
        <ele>410.0</ele>
        <time>2022-03-01T14:57:36Z</time>
      </trkpt>
      <trkpt lat="40.0567930" lon="-4.6534380">
        <ele>410.0</ele>
        <time>2022-03-01T14:57:37Z</time>
      </trkpt>
      <trkpt lat="40.0569300" lon="-4.6534550">
        <ele>410.0</ele>
        <time>2022-03-01T14:57:38Z</time>
      </trkpt>
      <trkpt lat="40.0569300" lon="-4.6534550">
        <ele>410.0</ele>
        <time>2022-03-01T14:57:39Z</time>
      </trkpt>
      <trkpt lat="40.0570670" lon="-4.6534720">
        <ele>410.0</ele>
        <time>2022-03-01T14:57:40Z</time>
      </trkpt>
      <trkpt lat="40.0570670" lon="-4.6534720">
        <ele>410.0</ele>
        <time>2022-03-01T14:57:41Z</time>
      </trkpt>
      <trkpt lat="40.0572000" lon="-4.6534900">
        <ele>410.0</ele>
        <time>2022-03-01T14:57:42Z</time>
      </trkpt>
      <trkpt lat="40.0572000" lon="-4.6534900">
        <ele>410.0</ele>
        <time>2022-03-01T14:57:43Z</time>
      </trkpt>
      <trkpt lat="40.0573330" lon="-4.6535080">
        <ele>410.0</ele>
        <time>2022-03-01T14:57:44Z</time>
      </trkpt>
      <trkpt lat="40.0573330" lon="-4.6535080">
        <ele>410.0</ele>
        <time>2022-03-01T14:57:45Z</time>
      </trkpt>
      <trkpt lat="40.0574680" lon="-4.6535230">
        <ele>410.0</ele>
        <time>2022-03-01T14:57:46Z</time>
      </trkpt>
      <trkpt lat="40.0574680" lon="-4.6535230">
        <ele>410.0</ele>
        <time>2022-03-01T14:57:47Z</time>
      </trkpt>
      <trkpt lat="40.0576030" lon="-4.6535400">
        <ele>410.0</ele>
        <time>2022-03-01T14:57:48Z</time>
      </trkpt>
      <trkpt lat="40.0576720" lon="-4.6535480">
        <ele>410.0</ele>
        <time>2022-03-01T14:57:49Z</time>
      </trkpt>
      <trkpt lat="40.0576720" lon="-4.6535480">
        <ele>410.0</ele>
        <time>2022-03-01T14:57:50Z</time>
      </trkpt>
      <trkpt lat="40.0578100" lon="-4.6535650">
        <ele>410.0</ele>
        <time>2022-03-01T14:57:51Z</time>
      </trkpt>
      <trkpt lat="40.0578800" lon="-4.6535730">
        <ele>410.0</ele>
        <time>2022-03-01T14:57:52Z</time>
      </trkpt>
      <trkpt lat="40.0578800" lon="-4.6535730">
        <ele>410.0</ele>
        <time>2022-03-01T14:57:53Z</time>
      </trkpt>
      <trkpt lat="40.0580220" lon="-4.6535900">
        <ele>410.0</ele>
        <time>2022-03-01T14:57:54Z</time>
      </trkpt>
      <trkpt lat="40.0580220" lon="-4.6535900">
        <ele>410.0</ele>
        <time>2022-03-01T14:57:55Z</time>
      </trkpt>
      <trkpt lat="40.0581630" lon="-4.6536080">
        <ele>410.0</ele>
        <time>2022-03-01T14:57:56Z</time>
      </trkpt>
      <trkpt lat="40.0581630" lon="-4.6536080">
        <ele>410.0</ele>
        <time>2022-03-01T14:57:57Z</time>
      </trkpt>
      <trkpt lat="40.0583100" lon="-4.6536270">
        <ele>410.0</ele>
        <time>2022-03-01T14:57:58Z</time>
      </trkpt>
      <trkpt lat="40.0583100" lon="-4.6536270">
        <ele>410.0</ele>
        <time>2022-03-01T14:57:59Z</time>
      </trkpt>
      <trkpt lat="40.0584600" lon="-4.6536470">
        <ele>410.0</ele>
        <time>2022-03-01T14:58:00Z</time>
      </trkpt>
      <trkpt lat="40.0584600" lon="-4.6536470">
        <ele>410.0</ele>
        <time>2022-03-01T14:58:01Z</time>
      </trkpt>
      <trkpt lat="40.0586170" lon="-4.6536680">
        <ele>410.0</ele>
        <time>2022-03-01T14:58:02Z</time>
      </trkpt>
      <trkpt lat="40.0586950" lon="-4.6536780">
        <ele>410.0</ele>
        <time>2022-03-01T14:58:03Z</time>
      </trkpt>
      <trkpt lat="40.0587730" lon="-4.6536880">
        <ele>410.0</ele>
        <time>2022-03-01T14:58:04Z</time>
      </trkpt>
      <trkpt lat="40.0587730" lon="-4.6536880">
        <ele>410.0</ele>
        <time>2022-03-01T14:58:05Z</time>
      </trkpt>
      <trkpt lat="40.0589330" lon="-4.6537070">
        <ele>409.0</ele>
        <time>2022-03-01T14:58:06Z</time>
      </trkpt>
      <trkpt lat="40.0590170" lon="-4.6537170">
        <ele>409.0</ele>
        <time>2022-03-01T14:58:07Z</time>
      </trkpt>
      <trkpt lat="40.0590170" lon="-4.6537170">
        <ele>409.0</ele>
        <time>2022-03-01T14:58:08Z</time>
      </trkpt>
      <trkpt lat="40.0591830" lon="-4.6537400">
        <ele>409.0</ele>
        <time>2022-03-01T14:58:09Z</time>
      </trkpt>
      <trkpt lat="40.0592670" lon="-4.6537500">
        <ele>408.0</ele>
        <time>2022-03-01T14:58:10Z</time>
      </trkpt>
      <trkpt lat="40.0592670" lon="-4.6537500">
        <ele>408.0</ele>
        <time>2022-03-01T14:58:11Z</time>
      </trkpt>
      <trkpt lat="40.0594350" lon="-4.6537720">
        <ele>407.0</ele>
        <time>2022-03-01T14:58:12Z</time>
      </trkpt>
      <trkpt lat="40.0594350" lon="-4.6537720">
        <ele>407.0</ele>
        <time>2022-03-01T14:58:13Z</time>
      </trkpt>
      <trkpt lat="40.0596070" lon="-4.6537950">
        <ele>406.0</ele>
        <time>2022-03-01T14:58:14Z</time>
      </trkpt>
      <trkpt lat="40.0596070" lon="-4.6537950">
        <ele>406.0</ele>
        <time>2022-03-01T14:58:15Z</time>
      </trkpt>
      <trkpt lat="40.0597780" lon="-4.6538170">
        <ele>406.0</ele>
        <time>2022-03-01T14:58:16Z</time>
      </trkpt>
      <trkpt lat="40.0597780" lon="-4.6538170">
        <ele>406.0</ele>
        <time>2022-03-01T14:58:17Z</time>
      </trkpt>
      <trkpt lat="40.0599520" lon="-4.6538400">
        <ele>405.0</ele>
        <time>2022-03-01T14:58:18Z</time>
      </trkpt>
      <trkpt lat="40.0600380" lon="-4.6538520">
        <ele>405.0</ele>
        <time>2022-03-01T14:58:19Z</time>
      </trkpt>
      <trkpt lat="40.0600380" lon="-4.6538520">
        <ele>405.0</ele>
        <time>2022-03-01T14:58:20Z</time>
      </trkpt>
      <trkpt lat="40.0602120" lon="-4.6538750">
        <ele>405.0</ele>
        <time>2022-03-01T14:58:21Z</time>
      </trkpt>
      <trkpt lat="40.0602980" lon="-4.6538850">
        <ele>405.0</ele>
        <time>2022-03-01T14:58:22Z</time>
      </trkpt>
      <trkpt lat="40.0602980" lon="-4.6538850">
        <ele>405.0</ele>
        <time>2022-03-01T14:58:23Z</time>
      </trkpt>
      <trkpt lat="40.0604680" lon="-4.6539100">
        <ele>405.0</ele>
        <time>2022-03-01T14:58:24Z</time>
      </trkpt>
      <trkpt lat="40.0604680" lon="-4.6539100">
        <ele>405.0</ele>
        <time>2022-03-01T14:58:25Z</time>
      </trkpt>
      <trkpt lat="40.0606330" lon="-4.6539330">
        <ele>405.0</ele>
        <time>2022-03-01T14:58:26Z</time>
      </trkpt>
      <trkpt lat="40.0607130" lon="-4.6539450">
        <ele>405.0</ele>
        <time>2022-03-01T14:58:27Z</time>
      </trkpt>
      <trkpt lat="40.0607130" lon="-4.6539450">
        <ele>405.0</ele>
        <time>2022-03-01T14:58:28Z</time>
      </trkpt>
      <trkpt lat="40.0608720" lon="-4.6539730">
        <ele>405.0</ele>
        <time>2022-03-01T14:58:29Z</time>
      </trkpt>
      <trkpt lat="40.0609480" lon="-4.6539930">
        <ele>405.0</ele>
        <time>2022-03-01T14:58:30Z</time>
      </trkpt>
      <trkpt lat="40.0609480" lon="-4.6539930">
        <ele>405.0</ele>
        <time>2022-03-01T14:58:31Z</time>
      </trkpt>
      <trkpt lat="40.0610980" lon="-4.6540350">
        <ele>405.0</ele>
        <time>2022-03-01T14:58:32Z</time>
      </trkpt>
      <trkpt lat="40.0610980" lon="-4.6540350">
        <ele>405.0</ele>
        <time>2022-03-01T14:58:33Z</time>
      </trkpt>
      <trkpt lat="40.0612400" lon="-4.6540970">
        <ele>405.0</ele>
        <time>2022-03-01T14:58:34Z</time>
      </trkpt>
      <trkpt lat="40.0612400" lon="-4.6540970">
        <ele>405.0</ele>
        <time>2022-03-01T14:58:35Z</time>
      </trkpt>
      <trkpt lat="40.0613750" lon="-4.6541770">
        <ele>405.0</ele>
        <time>2022-03-01T14:58:36Z</time>
      </trkpt>
      <trkpt lat="40.0613750" lon="-4.6541770">
        <ele>405.0</ele>
        <time>2022-03-01T14:58:37Z</time>
      </trkpt>
      <trkpt lat="40.0614950" lon="-4.6542680">
        <ele>405.0</ele>
        <time>2022-03-01T14:58:38Z</time>
      </trkpt>
      <trkpt lat="40.0615500" lon="-4.6543170">
        <ele>405.0</ele>
        <time>2022-03-01T14:58:39Z</time>
      </trkpt>
      <trkpt lat="40.0616030" lon="-4.6543670">
        <ele>405.0</ele>
        <time>2022-03-01T14:58:40Z</time>
      </trkpt>
      <trkpt lat="40.0616030" lon="-4.6543670">
        <ele>405.0</ele>
        <time>2022-03-01T14:58:41Z</time>
      </trkpt>
      <trkpt lat="40.0617000" lon="-4.6544670">
        <ele>405.0</ele>
        <time>2022-03-01T14:58:42Z</time>
      </trkpt>
      <trkpt lat="40.0617450" lon="-4.6545130">
        <ele>405.0</ele>
        <time>2022-03-01T14:58:43Z</time>
      </trkpt>
      <trkpt lat="40.0617450" lon="-4.6545130">
        <ele>405.0</ele>
        <time>2022-03-01T14:58:44Z</time>
      </trkpt>
      <trkpt lat="40.0618250" lon="-4.6546130">
        <ele>406.0</ele>
        <time>2022-03-01T14:58:45Z</time>
      </trkpt>
      <trkpt lat="40.0618600" lon="-4.6546650">
        <ele>406.0</ele>
        <time>2022-03-01T14:58:46Z</time>
      </trkpt>
      <trkpt lat="40.0618600" lon="-4.6546650">
        <ele>406.0</ele>
        <time>2022-03-01T14:58:47Z</time>
      </trkpt>
      <trkpt lat="40.0619230" lon="-4.6547630">
        <ele>406.0</ele>
        <time>2022-03-01T14:58:48Z</time>
      </trkpt>
      <trkpt lat="40.0619520" lon="-4.6548130">
        <ele>406.0</ele>
        <time>2022-03-01T14:58:49Z</time>
      </trkpt>
      <trkpt lat="40.0619520" lon="-4.6548130">
        <ele>406.0</ele>
        <time>2022-03-01T14:58:50Z</time>
      </trkpt>
      <trkpt lat="40.0620050" lon="-4.6549100">
        <ele>407.0</ele>
        <time>2022-03-01T14:58:51Z</time>
      </trkpt>
      <trkpt lat="40.0620320" lon="-4.6549580">
        <ele>407.0</ele>
        <time>2022-03-01T14:58:52Z</time>
      </trkpt>
      <trkpt lat="40.0620320" lon="-4.6549580">
        <ele>407.0</ele>
        <time>2022-03-01T14:58:53Z</time>
      </trkpt>
      <trkpt lat="40.0620800" lon="-4.6550600">
        <ele>407.0</ele>
        <time>2022-03-01T14:58:54Z</time>
      </trkpt>
      <trkpt lat="40.0620800" lon="-4.6550600">
        <ele>407.0</ele>
        <time>2022-03-01T14:58:55Z</time>
      </trkpt>
      <trkpt lat="40.0621270" lon="-4.6551630">
        <ele>407.0</ele>
        <time>2022-03-01T14:58:56Z</time>
      </trkpt>
      <trkpt lat="40.0621530" lon="-4.6552100">
        <ele>408.0</ele>
        <time>2022-03-01T14:58:57Z</time>
      </trkpt>
      <trkpt lat="40.0621530" lon="-4.6552100">
        <ele>408.0</ele>
        <time>2022-03-01T14:58:58Z</time>
      </trkpt>
      <trkpt lat="40.0622050" lon="-4.6553070">
        <ele>408.0</ele>
        <time>2022-03-01T14:58:59Z</time>
      </trkpt>
      <trkpt lat="40.0622280" lon="-4.6553570">
        <ele>408.0</ele>
        <time>2022-03-01T14:59:00Z</time>
      </trkpt>
      <trkpt lat="40.0622280" lon="-4.6553570">
        <ele>409.0</ele>
        <time>2022-03-01T14:59:01Z</time>
      </trkpt>
      <trkpt lat="40.0622770" lon="-4.6554600">
        <ele>409.0</ele>
        <time>2022-03-01T14:59:02Z</time>
      </trkpt>
      <trkpt lat="40.0623000" lon="-4.6555120">
        <ele>409.0</ele>
        <time>2022-03-01T14:59:03Z</time>
      </trkpt>
      <trkpt lat="40.0623000" lon="-4.6555120">
        <ele>409.0</ele>
        <time>2022-03-01T14:59:04Z</time>
      </trkpt>
      <trkpt lat="40.0623430" lon="-4.6556130">
        <ele>410.0</ele>
        <time>2022-03-01T14:59:05Z</time>
      </trkpt>
      <trkpt lat="40.0623650" lon="-4.6556650">
        <ele>410.0</ele>
        <time>2022-03-01T14:59:06Z</time>
      </trkpt>
      <trkpt lat="40.0623650" lon="-4.6556650">
        <ele>410.0</ele>
        <time>2022-03-01T14:59:07Z</time>
      </trkpt>
      <trkpt lat="40.0624080" lon="-4.6557650">
        <ele>410.0</ele>
        <time>2022-03-01T14:59:08Z</time>
      </trkpt>
      <trkpt lat="40.0624080" lon="-4.6557650">
        <ele>410.0</ele>
        <time>2022-03-01T14:59:09Z</time>
      </trkpt>
      <trkpt lat="40.0624530" lon="-4.6558650">
        <ele>410.0</ele>
        <time>2022-03-01T14:59:10Z</time>
      </trkpt>
      <trkpt lat="40.0624530" lon="-4.6558650">
        <ele>411.0</ele>
        <time>2022-03-01T14:59:11Z</time>
      </trkpt>
      <trkpt lat="40.0625000" lon="-4.6559670">
        <ele>411.0</ele>
        <time>2022-03-01T14:59:12Z</time>
      </trkpt>
      <trkpt lat="40.0625000" lon="-4.6559670">
        <ele>411.0</ele>
        <time>2022-03-01T14:59:13Z</time>
      </trkpt>
      <trkpt lat="40.0625530" lon="-4.6560670">
        <ele>411.0</ele>
        <time>2022-03-01T14:59:14Z</time>
      </trkpt>
      <trkpt lat="40.0625530" lon="-4.6560670">
        <ele>412.0</ele>
        <time>2022-03-01T14:59:15Z</time>
      </trkpt>
      <trkpt lat="40.0626150" lon="-4.6561680">
        <ele>412.0</ele>
        <time>2022-03-01T14:59:16Z</time>
      </trkpt>
      <trkpt lat="40.0626150" lon="-4.6561680">
        <ele>412.0</ele>
        <time>2022-03-01T14:59:17Z</time>
      </trkpt>
      <trkpt lat="40.0626850" lon="-4.6562580">
        <ele>412.0</ele>
        <time>2022-03-01T14:59:18Z</time>
      </trkpt>
      <trkpt lat="40.0626850" lon="-4.6562580">
        <ele>412.0</ele>
        <time>2022-03-01T14:59:19Z</time>
      </trkpt>
      <trkpt lat="40.0627650" lon="-4.6563450">
        <ele>412.0</ele>
        <time>2022-03-01T14:59:20Z</time>
      </trkpt>
      <trkpt lat="40.0627650" lon="-4.6563450">
        <ele>412.0</ele>
        <time>2022-03-01T14:59:21Z</time>
      </trkpt>
      <trkpt lat="40.0628520" lon="-4.6564220">
        <ele>412.0</ele>
        <time>2022-03-01T14:59:22Z</time>
      </trkpt>
      <trkpt lat="40.0628520" lon="-4.6564220">
        <ele>412.0</ele>
        <time>2022-03-01T14:59:23Z</time>
      </trkpt>
      <trkpt lat="40.0629450" lon="-4.6564920">
        <ele>412.0</ele>
        <time>2022-03-01T14:59:24Z</time>
      </trkpt>
      <trkpt lat="40.0629450" lon="-4.6564920">
        <ele>412.0</ele>
        <time>2022-03-01T14:59:25Z</time>
      </trkpt>
      <trkpt lat="40.0630420" lon="-4.6565620">
        <ele>412.0</ele>
        <time>2022-03-01T14:59:26Z</time>
      </trkpt>
      <trkpt lat="40.0630420" lon="-4.6565620">
        <ele>412.0</ele>
        <time>2022-03-01T14:59:27Z</time>
      </trkpt>
      <trkpt lat="40.0631380" lon="-4.6566350">
        <ele>412.0</ele>
        <time>2022-03-01T14:59:28Z</time>
      </trkpt>
      <trkpt lat="40.0631380" lon="-4.6566350">
        <ele>412.0</ele>
        <time>2022-03-01T14:59:29Z</time>
      </trkpt>
      <trkpt lat="40.0632370" lon="-4.6567080">
        <ele>412.0</ele>
        <time>2022-03-01T14:59:30Z</time>
      </trkpt>
      <trkpt lat="40.0632370" lon="-4.6567080">
        <ele>412.0</ele>
        <time>2022-03-01T14:59:31Z</time>
      </trkpt>
      <trkpt lat="40.0633350" lon="-4.6567820">
        <ele>412.0</ele>
        <time>2022-03-01T14:59:32Z</time>
      </trkpt>
      <trkpt lat="40.0633350" lon="-4.6567820">
        <ele>412.0</ele>
        <time>2022-03-01T14:59:33Z</time>
      </trkpt>
      <trkpt lat="40.0634330" lon="-4.6568550">
        <ele>412.0</ele>
        <time>2022-03-01T14:59:34Z</time>
      </trkpt>
      <trkpt lat="40.0634330" lon="-4.6568550">
        <ele>412.0</ele>
        <time>2022-03-01T14:59:35Z</time>
      </trkpt>
      <trkpt lat="40.0635320" lon="-4.6569280">
        <ele>412.0</ele>
        <time>2022-03-01T14:59:36Z</time>
      </trkpt>
      <trkpt lat="40.0635320" lon="-4.6569280">
        <ele>412.0</ele>
        <time>2022-03-01T14:59:37Z</time>
      </trkpt>
      <trkpt lat="40.0636320" lon="-4.6570000">
        <ele>412.0</ele>
        <time>2022-03-01T14:59:38Z</time>
      </trkpt>
      <trkpt lat="40.0636820" lon="-4.6570370">
        <ele>412.0</ele>
        <time>2022-03-01T14:59:39Z</time>
      </trkpt>
      <trkpt lat="40.0636820" lon="-4.6570370">
        <ele>412.0</ele>
        <time>2022-03-01T14:59:40Z</time>
      </trkpt>
      <trkpt lat="40.0637820" lon="-4.6571130">
        <ele>412.0</ele>
        <time>2022-03-01T14:59:41Z</time>
      </trkpt>
      <trkpt lat="40.0638320" lon="-4.6571520">
        <ele>412.0</ele>
        <time>2022-03-01T14:59:42Z</time>
      </trkpt>
      <trkpt lat="40.0638320" lon="-4.6571520">
        <ele>412.0</ele>
        <time>2022-03-01T14:59:43Z</time>
      </trkpt>
      <trkpt lat="40.0639350" lon="-4.6572270">
        <ele>412.0</ele>
        <time>2022-03-01T14:59:44Z</time>
      </trkpt>
      <trkpt lat="40.0639350" lon="-4.6572270">
        <ele>412.0</ele>
        <time>2022-03-01T14:59:45Z</time>
      </trkpt>
      <trkpt lat="40.0640400" lon="-4.6573020">
        <ele>412.0</ele>
        <time>2022-03-01T14:59:46Z</time>
      </trkpt>
      <trkpt lat="40.0640400" lon="-4.6573020">
        <ele>412.0</ele>
        <time>2022-03-01T14:59:47Z</time>
      </trkpt>
      <trkpt lat="40.0641450" lon="-4.6573780">
        <ele>412.0</ele>
        <time>2022-03-01T14:59:48Z</time>
      </trkpt>
      <trkpt lat="40.0641980" lon="-4.6574170">
        <ele>412.0</ele>
        <time>2022-03-01T14:59:49Z</time>
      </trkpt>
      <trkpt lat="40.0641980" lon="-4.6574170">
        <ele>413.0</ele>
        <time>2022-03-01T14:59:50Z</time>
      </trkpt>
      <trkpt lat="40.0643020" lon="-4.6574950">
        <ele>413.0</ele>
        <time>2022-03-01T14:59:51Z</time>
      </trkpt>
      <trkpt lat="40.0643020" lon="-4.6574950">
        <ele>413.0</ele>
        <time>2022-03-01T14:59:52Z</time>
      </trkpt>
      <trkpt lat="40.0644050" lon="-4.6575750">
        <ele>413.0</ele>
        <time>2022-03-01T14:59:53Z</time>
      </trkpt>
      <trkpt lat="40.0644570" lon="-4.6576130">
        <ele>413.0</ele>
        <time>2022-03-01T14:59:54Z</time>
      </trkpt>
      <trkpt lat="40.0644570" lon="-4.6576130">
        <ele>413.0</ele>
        <time>2022-03-01T14:59:55Z</time>
      </trkpt>
      <trkpt lat="40.0645600" lon="-4.6576900">
        <ele>413.0</ele>
        <time>2022-03-01T14:59:56Z</time>
      </trkpt>
      <trkpt lat="40.0645600" lon="-4.6576900">
        <ele>413.0</ele>
        <time>2022-03-01T14:59:57Z</time>
      </trkpt>
      <trkpt lat="40.0646620" lon="-4.6577620">
        <ele>413.0</ele>
        <time>2022-03-01T14:59:58Z</time>
      </trkpt>
      <trkpt lat="40.0646620" lon="-4.6577620">
        <ele>413.0</ele>
        <time>2022-03-01T14:59:59Z</time>
      </trkpt>
      <trkpt lat="40.0647630" lon="-4.6578350">
        <ele>413.0</ele>
        <time>2022-03-01T15:00:00Z</time>
      </trkpt>
      <trkpt lat="40.0647630" lon="-4.6578350">
        <ele>413.0</ele>
        <time>2022-03-01T15:00:01Z</time>
      </trkpt>
      <trkpt lat="40.0648620" lon="-4.6579080">
        <ele>413.0</ele>
        <time>2022-03-01T15:00:02Z</time>
      </trkpt>
      <trkpt lat="40.0648620" lon="-4.6579080">
        <ele>414.0</ele>
        <time>2022-03-01T15:00:03Z</time>
      </trkpt>
      <trkpt lat="40.0649570" lon="-4.6579800">
        <ele>414.0</ele>
        <time>2022-03-01T15:00:04Z</time>
      </trkpt>
      <trkpt lat="40.0649570" lon="-4.6579800">
        <ele>414.0</ele>
        <time>2022-03-01T15:00:05Z</time>
      </trkpt>
      <trkpt lat="40.0650520" lon="-4.6580500">
        <ele>414.0</ele>
        <time>2022-03-01T15:00:06Z</time>
      </trkpt>
      <trkpt lat="40.0650520" lon="-4.6580500">
        <ele>415.0</ele>
        <time>2022-03-01T15:00:07Z</time>
      </trkpt>
      <trkpt lat="40.0651430" lon="-4.6581180">
        <ele>415.0</ele>
        <time>2022-03-01T15:00:08Z</time>
      </trkpt>
      <trkpt lat="40.0651430" lon="-4.6581180">
        <ele>415.0</ele>
        <time>2022-03-01T15:00:09Z</time>
      </trkpt>
      <trkpt lat="40.0652300" lon="-4.6581820">
        <ele>415.0</ele>
        <time>2022-03-01T15:00:10Z</time>
      </trkpt>
      <trkpt lat="40.0652300" lon="-4.6581820">
        <ele>415.0</ele>
        <time>2022-03-01T15:00:11Z</time>
      </trkpt>
      <trkpt lat="40.0653170" lon="-4.6582430">
        <ele>416.0</ele>
        <time>2022-03-01T15:00:12Z</time>
      </trkpt>
      <trkpt lat="40.0653170" lon="-4.6582430">
        <ele>416.0</ele>
        <time>2022-03-01T15:00:13Z</time>
      </trkpt>
      <trkpt lat="40.0654070" lon="-4.6583100">
        <ele>416.0</ele>
        <time>2022-03-01T15:00:14Z</time>
      </trkpt>
      <trkpt lat="40.0654070" lon="-4.6583100">
        <ele>416.0</ele>
        <time>2022-03-01T15:00:15Z</time>
      </trkpt>
      <trkpt lat="40.0654980" lon="-4.6583750">
        <ele>417.0</ele>
        <time>2022-03-01T15:00:16Z</time>
      </trkpt>
      <trkpt lat="40.0654980" lon="-4.6583750">
        <ele>417.0</ele>
        <time>2022-03-01T15:00:17Z</time>
      </trkpt>
      <trkpt lat="40.0655900" lon="-4.6584480">
        <ele>417.0</ele>
        <time>2022-03-01T15:00:18Z</time>
      </trkpt>
      <trkpt lat="40.0655900" lon="-4.6584480">
        <ele>417.0</ele>
        <time>2022-03-01T15:00:19Z</time>
      </trkpt>
      <trkpt lat="40.0656820" lon="-4.6585170">
        <ele>418.0</ele>
        <time>2022-03-01T15:00:20Z</time>
      </trkpt>
      <trkpt lat="40.0657250" lon="-4.6585500">
        <ele>418.0</ele>
        <time>2022-03-01T15:00:21Z</time>
      </trkpt>
      <trkpt lat="40.0657700" lon="-4.6585870">
        <ele>418.0</ele>
        <time>2022-03-01T15:00:22Z</time>
      </trkpt>
      <trkpt lat="40.0657700" lon="-4.6585870">
        <ele>418.0</ele>
        <time>2022-03-01T15:00:23Z</time>
      </trkpt>
      <trkpt lat="40.0658630" lon="-4.6586570">
        <ele>418.0</ele>
        <time>2022-03-01T15:00:24Z</time>
      </trkpt>
      <trkpt lat="40.0658630" lon="-4.6586570">
        <ele>418.0</ele>
        <time>2022-03-01T15:00:25Z</time>
      </trkpt>
      <trkpt lat="40.0659530" lon="-4.6587250">
        <ele>419.0</ele>
        <time>2022-03-01T15:00:26Z</time>
      </trkpt>
      <trkpt lat="40.0659530" lon="-4.6587250">
        <ele>419.0</ele>
        <time>2022-03-01T15:00:27Z</time>
      </trkpt>
      <trkpt lat="40.0660430" lon="-4.6587920">
        <ele>419.0</ele>
        <time>2022-03-01T15:00:28Z</time>
      </trkpt>
      <trkpt lat="40.0660430" lon="-4.6587920">
        <ele>419.0</ele>
        <time>2022-03-01T15:00:29Z</time>
      </trkpt>
      <trkpt lat="40.0661300" lon="-4.6588550">
        <ele>420.0</ele>
        <time>2022-03-01T15:00:30Z</time>
      </trkpt>
      <trkpt lat="40.0661720" lon="-4.6588870">
        <ele>420.0</ele>
        <time>2022-03-01T15:00:31Z</time>
      </trkpt>
      <trkpt lat="40.0661720" lon="-4.6588870">
        <ele>420.0</ele>
        <time>2022-03-01T15:00:32Z</time>
      </trkpt>
      <trkpt lat="40.0662550" lon="-4.6589480">
        <ele>420.0</ele>
        <time>2022-03-01T15:00:33Z</time>
      </trkpt>
      <trkpt lat="40.0662970" lon="-4.6589800">
        <ele>421.0</ele>
        <time>2022-03-01T15:00:34Z</time>
      </trkpt>
      <trkpt lat="40.0662970" lon="-4.6589800">
        <ele>421.0</ele>
        <time>2022-03-01T15:00:35Z</time>
      </trkpt>
      <trkpt lat="40.0663820" lon="-4.6590420">
        <ele>421.0</ele>
        <time>2022-03-01T15:00:36Z</time>
      </trkpt>
      <trkpt lat="40.0663820" lon="-4.6590420">
        <ele>421.0</ele>
        <time>2022-03-01T15:00:37Z</time>
      </trkpt>
      <trkpt lat="40.0664670" lon="-4.6591000">
        <ele>421.0</ele>
        <time>2022-03-01T15:00:38Z</time>
      </trkpt>
      <trkpt lat="40.0664670" lon="-4.6591000">
        <ele>421.0</ele>
        <time>2022-03-01T15:00:39Z</time>
      </trkpt>
      <trkpt lat="40.0665520" lon="-4.6591630">
        <ele>422.0</ele>
        <time>2022-03-01T15:00:40Z</time>
      </trkpt>
      <trkpt lat="40.0665520" lon="-4.6591630">
        <ele>422.0</ele>
        <time>2022-03-01T15:00:41Z</time>
      </trkpt>
      <trkpt lat="40.0666380" lon="-4.6592280">
        <ele>422.0</ele>
        <time>2022-03-01T15:00:42Z</time>
      </trkpt>
      <trkpt lat="40.0666380" lon="-4.6592280">
        <ele>422.0</ele>
        <time>2022-03-01T15:00:43Z</time>
      </trkpt>
      <trkpt lat="40.0667230" lon="-4.6592920">
        <ele>423.0</ele>
        <time>2022-03-01T15:00:44Z</time>
      </trkpt>
      <trkpt lat="40.0667680" lon="-4.6593230">
        <ele>423.0</ele>
        <time>2022-03-01T15:00:45Z</time>
      </trkpt>
      <trkpt lat="40.0668130" lon="-4.6593550">
        <ele>423.0</ele>
        <time>2022-03-01T15:00:46Z</time>
      </trkpt>
      <trkpt lat="40.0668130" lon="-4.6593550">
        <ele>423.0</ele>
        <time>2022-03-01T15:00:47Z</time>
      </trkpt>
      <trkpt lat="40.0669030" lon="-4.6594220">
        <ele>424.0</ele>
        <time>2022-03-01T15:00:48Z</time>
      </trkpt>
      <trkpt lat="40.0669030" lon="-4.6594220">
        <ele>424.0</ele>
        <time>2022-03-01T15:00:49Z</time>
      </trkpt>
      <trkpt lat="40.0669950" lon="-4.6594880">
        <ele>424.0</ele>
        <time>2022-03-01T15:00:50Z</time>
      </trkpt>
      <trkpt lat="40.0669950" lon="-4.6594880">
        <ele>424.0</ele>
        <time>2022-03-01T15:00:51Z</time>
      </trkpt>
      <trkpt lat="40.0670880" lon="-4.6595570">
        <ele>424.0</ele>
        <time>2022-03-01T15:00:52Z</time>
      </trkpt>
      <trkpt lat="40.0670880" lon="-4.6595570">
        <ele>424.0</ele>
        <time>2022-03-01T15:00:53Z</time>
      </trkpt>
      <trkpt lat="40.0671820" lon="-4.6596250">
        <ele>424.0</ele>
        <time>2022-03-01T15:00:54Z</time>
      </trkpt>
      <trkpt lat="40.0671820" lon="-4.6596250">
        <ele>424.0</ele>
        <time>2022-03-01T15:00:55Z</time>
      </trkpt>
      <trkpt lat="40.0672780" lon="-4.6596950">
        <ele>424.0</ele>
        <time>2022-03-01T15:00:56Z</time>
      </trkpt>
      <trkpt lat="40.0672780" lon="-4.6596950">
        <ele>424.0</ele>
        <time>2022-03-01T15:00:57Z</time>
      </trkpt>
      <trkpt lat="40.0673730" lon="-4.6597670">
        <ele>425.0</ele>
        <time>2022-03-01T15:00:58Z</time>
      </trkpt>
      <trkpt lat="40.0673730" lon="-4.6597670">
        <ele>425.0</ele>
        <time>2022-03-01T15:00:59Z</time>
      </trkpt>
      <trkpt lat="40.0674720" lon="-4.6598400">
        <ele>425.0</ele>
        <time>2022-03-01T15:01:00Z</time>
      </trkpt>
      <trkpt lat="40.0674720" lon="-4.6598400">
        <ele>425.0</ele>
        <time>2022-03-01T15:01:01Z</time>
      </trkpt>
      <trkpt lat="40.0675680" lon="-4.6599100">
        <ele>425.0</ele>
        <time>2022-03-01T15:01:02Z</time>
      </trkpt>
      <trkpt lat="40.0675680" lon="-4.6599100">
        <ele>425.0</ele>
        <time>2022-03-01T15:01:03Z</time>
      </trkpt>
      <trkpt lat="40.0676670" lon="-4.6599820">
        <ele>425.0</ele>
        <time>2022-03-01T15:01:04Z</time>
      </trkpt>
      <trkpt lat="40.0676670" lon="-4.6599820">
        <ele>425.0</ele>
        <time>2022-03-01T15:01:05Z</time>
      </trkpt>
      <trkpt lat="40.0677630" lon="-4.6600550">
        <ele>425.0</ele>
        <time>2022-03-01T15:01:06Z</time>
      </trkpt>
      <trkpt lat="40.0677630" lon="-4.6600550">
        <ele>425.0</ele>
        <time>2022-03-01T15:01:07Z</time>
      </trkpt>
      <trkpt lat="40.0678620" lon="-4.6601270">
        <ele>425.0</ele>
        <time>2022-03-01T15:01:08Z</time>
      </trkpt>
      <trkpt lat="40.0678620" lon="-4.6601270">
        <ele>425.0</ele>
        <time>2022-03-01T15:01:09Z</time>
      </trkpt>
      <trkpt lat="40.0679570" lon="-4.6602020">
        <ele>425.0</ele>
        <time>2022-03-01T15:01:10Z</time>
      </trkpt>
      <trkpt lat="40.0679570" lon="-4.6602020">
        <ele>426.0</ele>
        <time>2022-03-01T15:01:11Z</time>
      </trkpt>
      <trkpt lat="40.0680550" lon="-4.6602730">
        <ele>426.0</ele>
        <time>2022-03-01T15:01:12Z</time>
      </trkpt>
      <trkpt lat="40.0680550" lon="-4.6602730">
        <ele>426.0</ele>
        <time>2022-03-01T15:01:13Z</time>
      </trkpt>
      <trkpt lat="40.0681530" lon="-4.6603450">
        <ele>426.0</ele>
        <time>2022-03-01T15:01:14Z</time>
      </trkpt>
      <trkpt lat="40.0681530" lon="-4.6603450">
        <ele>426.0</ele>
        <time>2022-03-01T15:01:15Z</time>
      </trkpt>
      <trkpt lat="40.0682500" lon="-4.6604200">
        <ele>426.0</ele>
        <time>2022-03-01T15:01:16Z</time>
      </trkpt>
      <trkpt lat="40.0682500" lon="-4.6604200">
        <ele>426.0</ele>
        <time>2022-03-01T15:01:17Z</time>
      </trkpt>
      <trkpt lat="40.0683480" lon="-4.6604930">
        <ele>426.0</ele>
        <time>2022-03-01T15:01:18Z</time>
      </trkpt>
      <trkpt lat="40.0683480" lon="-4.6604930">
        <ele>426.0</ele>
        <time>2022-03-01T15:01:19Z</time>
      </trkpt>
      <trkpt lat="40.0684450" lon="-4.6605650">
        <ele>426.0</ele>
        <time>2022-03-01T15:01:20Z</time>
      </trkpt>
      <trkpt lat="40.0684930" lon="-4.6606020">
        <ele>427.0</ele>
        <time>2022-03-01T15:01:21Z</time>
      </trkpt>
      <trkpt lat="40.0684930" lon="-4.6606020">
        <ele>427.0</ele>
        <time>2022-03-01T15:01:22Z</time>
      </trkpt>
      <trkpt lat="40.0685920" lon="-4.6606720">
        <ele>427.0</ele>
        <time>2022-03-01T15:01:23Z</time>
      </trkpt>
      <trkpt lat="40.0686400" lon="-4.6607080">
        <ele>427.0</ele>
        <time>2022-03-01T15:01:24Z</time>
      </trkpt>
      <trkpt lat="40.0686400" lon="-4.6607080">
        <ele>427.0</ele>
        <time>2022-03-01T15:01:25Z</time>
      </trkpt>
      <trkpt lat="40.0687370" lon="-4.6607800">
        <ele>427.0</ele>
        <time>2022-03-01T15:01:26Z</time>
      </trkpt>
      <trkpt lat="40.0687370" lon="-4.6607800">
        <ele>427.0</ele>
        <time>2022-03-01T15:01:27Z</time>
      </trkpt>
      <trkpt lat="40.0688320" lon="-4.6608500">
        <ele>427.0</ele>
        <time>2022-03-01T15:01:28Z</time>
      </trkpt>
      <trkpt lat="40.0688320" lon="-4.6608500">
        <ele>427.0</ele>
        <time>2022-03-01T15:01:29Z</time>
      </trkpt>
      <trkpt lat="40.0689250" lon="-4.6609220">
        <ele>427.0</ele>
        <time>2022-03-01T15:01:30Z</time>
      </trkpt>
      <trkpt lat="40.0689250" lon="-4.6609220">
        <ele>427.0</ele>
        <time>2022-03-01T15:01:31Z</time>
      </trkpt>
      <trkpt lat="40.0690200" lon="-4.6609870">
        <ele>427.0</ele>
        <time>2022-03-01T15:01:32Z</time>
      </trkpt>
      <trkpt lat="40.0690200" lon="-4.6609870">
        <ele>427.0</ele>
        <time>2022-03-01T15:01:33Z</time>
      </trkpt>
      <trkpt lat="40.0691180" lon="-4.6610580">
        <ele>427.0</ele>
        <time>2022-03-01T15:01:34Z</time>
      </trkpt>
      <trkpt lat="40.0691180" lon="-4.6610580">
        <ele>427.0</ele>
        <time>2022-03-01T15:01:35Z</time>
      </trkpt>
      <trkpt lat="40.0692120" lon="-4.6611320">
        <ele>427.0</ele>
        <time>2022-03-01T15:01:36Z</time>
      </trkpt>
      <trkpt lat="40.0692120" lon="-4.6611320">
        <ele>429.0</ele>
        <time>2022-03-01T15:01:37Z</time>
      </trkpt>
      <trkpt lat="40.0693070" lon="-4.6612050">
        <ele>429.0</ele>
        <time>2022-03-01T15:01:38Z</time>
      </trkpt>
      <trkpt lat="40.0693550" lon="-4.6612400">
        <ele>429.0</ele>
        <time>2022-03-01T15:01:39Z</time>
      </trkpt>
      <trkpt lat="40.0694020" lon="-4.6612770">
        <ele>429.0</ele>
        <time>2022-03-01T15:01:40Z</time>
      </trkpt>
      <trkpt lat="40.0694020" lon="-4.6612770">
        <ele>429.0</ele>
        <time>2022-03-01T15:01:41Z</time>
      </trkpt>
      <trkpt lat="40.0694970" lon="-4.6613500">
        <ele>429.0</ele>
        <time>2022-03-01T15:01:42Z</time>
      </trkpt>
      <trkpt lat="40.0694970" lon="-4.6613500">
        <ele>429.0</ele>
        <time>2022-03-01T15:01:43Z</time>
      </trkpt>
      <trkpt lat="40.0695930" lon="-4.6614200">
        <ele>429.0</ele>
        <time>2022-03-01T15:01:44Z</time>
      </trkpt>
      <trkpt lat="40.0695930" lon="-4.6614200">
        <ele>429.0</ele>
        <time>2022-03-01T15:01:45Z</time>
      </trkpt>
      <trkpt lat="40.0696880" lon="-4.6614880">
        <ele>429.0</ele>
        <time>2022-03-01T15:01:46Z</time>
      </trkpt>
      <trkpt lat="40.0696880" lon="-4.6614880">
        <ele>429.0</ele>
        <time>2022-03-01T15:01:47Z</time>
      </trkpt>
      <trkpt lat="40.0697800" lon="-4.6615550">
        <ele>429.0</ele>
        <time>2022-03-01T15:01:48Z</time>
      </trkpt>
      <trkpt lat="40.0697800" lon="-4.6615550">
        <ele>429.0</ele>
        <time>2022-03-01T15:01:49Z</time>
      </trkpt>
      <trkpt lat="40.0698720" lon="-4.6616200">
        <ele>429.0</ele>
        <time>2022-03-01T15:01:50Z</time>
      </trkpt>
      <trkpt lat="40.0698720" lon="-4.6616200">
        <ele>429.0</ele>
        <time>2022-03-01T15:01:51Z</time>
      </trkpt>
      <trkpt lat="40.0699620" lon="-4.6616900">
        <ele>430.0</ele>
        <time>2022-03-01T15:01:52Z</time>
      </trkpt>
      <trkpt lat="40.0699620" lon="-4.6616900">
        <ele>430.0</ele>
        <time>2022-03-01T15:01:53Z</time>
      </trkpt>
      <trkpt lat="40.0700550" lon="-4.6617630">
        <ele>430.0</ele>
        <time>2022-03-01T15:01:54Z</time>
      </trkpt>
      <trkpt lat="40.0700550" lon="-4.6617630">
        <ele>430.0</ele>
        <time>2022-03-01T15:01:55Z</time>
      </trkpt>
      <trkpt lat="40.0701470" lon="-4.6618320">
        <ele>430.0</ele>
        <time>2022-03-01T15:01:56Z</time>
      </trkpt>
      <trkpt lat="40.0701470" lon="-4.6618320">
        <ele>431.0</ele>
        <time>2022-03-01T15:01:57Z</time>
      </trkpt>
      <trkpt lat="40.0702420" lon="-4.6619050">
        <ele>431.0</ele>
        <time>2022-03-01T15:01:58Z</time>
      </trkpt>
      <trkpt lat="40.0702420" lon="-4.6619050">
        <ele>431.0</ele>
        <time>2022-03-01T15:01:59Z</time>
      </trkpt>
      <trkpt lat="40.0703400" lon="-4.6619720">
        <ele>431.0</ele>
        <time>2022-03-01T15:02:00Z</time>
      </trkpt>
      <trkpt lat="40.0703400" lon="-4.6619720">
        <ele>432.0</ele>
        <time>2022-03-01T15:02:01Z</time>
      </trkpt>
      <trkpt lat="40.0704370" lon="-4.6620430">
        <ele>432.0</ele>
        <time>2022-03-01T15:02:02Z</time>
      </trkpt>
      <trkpt lat="40.0704370" lon="-4.6620430">
        <ele>432.0</ele>
        <time>2022-03-01T15:02:03Z</time>
      </trkpt>
      <trkpt lat="40.0705350" lon="-4.6621100">
        <ele>432.0</ele>
        <time>2022-03-01T15:02:04Z</time>
      </trkpt>
      <trkpt lat="40.0705350" lon="-4.6621100">
        <ele>432.0</ele>
        <time>2022-03-01T15:02:05Z</time>
      </trkpt>
      <trkpt lat="40.0706350" lon="-4.6621800">
        <ele>432.0</ele>
        <time>2022-03-01T15:02:06Z</time>
      </trkpt>
      <trkpt lat="40.0706350" lon="-4.6621800">
        <ele>432.0</ele>
        <time>2022-03-01T15:02:07Z</time>
      </trkpt>
      <trkpt lat="40.0707300" lon="-4.6622480">
        <ele>432.0</ele>
        <time>2022-03-01T15:02:08Z</time>
      </trkpt>
      <trkpt lat="40.0707300" lon="-4.6622480">
        <ele>432.0</ele>
        <time>2022-03-01T15:02:09Z</time>
      </trkpt>
      <trkpt lat="40.0708200" lon="-4.6623180">
        <ele>432.0</ele>
        <time>2022-03-01T15:02:10Z</time>
      </trkpt>
      <trkpt lat="40.0708200" lon="-4.6623180">
        <ele>433.0</ele>
        <time>2022-03-01T15:02:11Z</time>
      </trkpt>
      <trkpt lat="40.0709170" lon="-4.6623880">
        <ele>433.0</ele>
        <time>2022-03-01T15:02:12Z</time>
      </trkpt>
      <trkpt lat="40.0709170" lon="-4.6623880">
        <ele>433.0</ele>
        <time>2022-03-01T15:02:13Z</time>
      </trkpt>
      <trkpt lat="40.0710080" lon="-4.6624580">
        <ele>433.0</ele>
        <time>2022-03-01T15:02:14Z</time>
      </trkpt>
      <trkpt lat="40.0710080" lon="-4.6624580">
        <ele>433.0</ele>
        <time>2022-03-01T15:02:15Z</time>
      </trkpt>
      <trkpt lat="40.0710980" lon="-4.6625250">
        <ele>433.0</ele>
        <time>2022-03-01T15:02:16Z</time>
      </trkpt>
      <trkpt lat="40.0710980" lon="-4.6625250">
        <ele>434.0</ele>
        <time>2022-03-01T15:02:17Z</time>
      </trkpt>
      <trkpt lat="40.0711880" lon="-4.6625900">
        <ele>434.0</ele>
        <time>2022-03-01T15:02:18Z</time>
      </trkpt>
      <trkpt lat="40.0711880" lon="-4.6625900">
        <ele>434.0</ele>
        <time>2022-03-01T15:02:19Z</time>
      </trkpt>
      <trkpt lat="40.0712780" lon="-4.6626570">
        <ele>434.0</ele>
        <time>2022-03-01T15:02:20Z</time>
      </trkpt>
      <trkpt lat="40.0713250" lon="-4.6626900">
        <ele>434.0</ele>
        <time>2022-03-01T15:02:21Z</time>
      </trkpt>
      <trkpt lat="40.0713700" lon="-4.6627230">
        <ele>434.0</ele>
        <time>2022-03-01T15:02:22Z</time>
      </trkpt>
      <trkpt lat="40.0713700" lon="-4.6627230">
        <ele>435.0</ele>
        <time>2022-03-01T15:02:23Z</time>
      </trkpt>
      <trkpt lat="40.0714620" lon="-4.6627930">
        <ele>435.0</ele>
        <time>2022-03-01T15:02:24Z</time>
      </trkpt>
      <trkpt lat="40.0714620" lon="-4.6627930">
        <ele>435.0</ele>
        <time>2022-03-01T15:02:25Z</time>
      </trkpt>
      <trkpt lat="40.0715520" lon="-4.6628620">
        <ele>435.0</ele>
        <time>2022-03-01T15:02:26Z</time>
      </trkpt>
      <trkpt lat="40.0715520" lon="-4.6628620">
        <ele>435.0</ele>
        <time>2022-03-01T15:02:27Z</time>
      </trkpt>
      <trkpt lat="40.0716420" lon="-4.6629280">
        <ele>435.0</ele>
        <time>2022-03-01T15:02:28Z</time>
      </trkpt>
      <trkpt lat="40.0716420" lon="-4.6629280">
        <ele>436.0</ele>
        <time>2022-03-01T15:02:29Z</time>
      </trkpt>
      <trkpt lat="40.0717320" lon="-4.6629980">
        <ele>436.0</ele>
        <time>2022-03-01T15:02:30Z</time>
      </trkpt>
      <trkpt lat="40.0717320" lon="-4.6629980">
        <ele>436.0</ele>
        <time>2022-03-01T15:02:31Z</time>
      </trkpt>
      <trkpt lat="40.0718170" lon="-4.6630620">
        <ele>436.0</ele>
        <time>2022-03-01T15:02:32Z</time>
      </trkpt>
      <trkpt lat="40.0718170" lon="-4.6630620">
        <ele>436.0</ele>
        <time>2022-03-01T15:02:33Z</time>
      </trkpt>
      <trkpt lat="40.0719000" lon="-4.6631250">
        <ele>436.0</ele>
        <time>2022-03-01T15:02:34Z</time>
      </trkpt>
      <trkpt lat="40.0719000" lon="-4.6631250">
        <ele>436.0</ele>
        <time>2022-03-01T15:02:35Z</time>
      </trkpt>
      <trkpt lat="40.0719900" lon="-4.6631950">
        <ele>436.0</ele>
        <time>2022-03-01T15:02:36Z</time>
      </trkpt>
      <trkpt lat="40.0719900" lon="-4.6631950">
        <ele>437.0</ele>
        <time>2022-03-01T15:02:37Z</time>
      </trkpt>
      <trkpt lat="40.0720850" lon="-4.6632680">
        <ele>437.0</ele>
        <time>2022-03-01T15:02:38Z</time>
      </trkpt>
      <trkpt lat="40.0721330" lon="-4.6633050">
        <ele>437.0</ele>
        <time>2022-03-01T15:02:39Z</time>
      </trkpt>
      <trkpt lat="40.0721330" lon="-4.6633050">
        <ele>437.0</ele>
        <time>2022-03-01T15:02:40Z</time>
      </trkpt>
      <trkpt lat="40.0722330" lon="-4.6633800">
        <ele>437.0</ele>
        <time>2022-03-01T15:02:41Z</time>
      </trkpt>
      <trkpt lat="40.0722330" lon="-4.6633800">
        <ele>437.0</ele>
        <time>2022-03-01T15:02:42Z</time>
      </trkpt>
      <trkpt lat="40.0723300" lon="-4.6634500">
        <ele>438.0</ele>
        <time>2022-03-01T15:02:43Z</time>
      </trkpt>
      <trkpt lat="40.0723300" lon="-4.6634500">
        <ele>438.0</ele>
        <time>2022-03-01T15:02:44Z</time>
      </trkpt>
      <trkpt lat="40.0724250" lon="-4.6635200">
        <ele>438.0</ele>
        <time>2022-03-01T15:02:45Z</time>
      </trkpt>
      <trkpt lat="40.0724700" lon="-4.6635570">
        <ele>438.0</ele>
        <time>2022-03-01T15:02:46Z</time>
      </trkpt>
      <trkpt lat="40.0724700" lon="-4.6635570">
        <ele>438.0</ele>
        <time>2022-03-01T15:02:47Z</time>
      </trkpt>
      <trkpt lat="40.0725650" lon="-4.6636280">
        <ele>438.0</ele>
        <time>2022-03-01T15:02:48Z</time>
      </trkpt>
      <trkpt lat="40.0725650" lon="-4.6636280">
        <ele>438.0</ele>
        <time>2022-03-01T15:02:49Z</time>
      </trkpt>
      <trkpt lat="40.0726580" lon="-4.6637000">
        <ele>439.0</ele>
        <time>2022-03-01T15:02:50Z</time>
      </trkpt>
      <trkpt lat="40.0727050" lon="-4.6637350">
        <ele>439.0</ele>
        <time>2022-03-01T15:02:51Z</time>
      </trkpt>
      <trkpt lat="40.0727530" lon="-4.6637680">
        <ele>439.0</ele>
        <time>2022-03-01T15:02:52Z</time>
      </trkpt>
      <trkpt lat="40.0727530" lon="-4.6637680">
        <ele>439.0</ele>
        <time>2022-03-01T15:02:53Z</time>
      </trkpt>
      <trkpt lat="40.0728480" lon="-4.6638400">
        <ele>439.0</ele>
        <time>2022-03-01T15:02:54Z</time>
      </trkpt>
      <trkpt lat="40.0728480" lon="-4.6638400">
        <ele>439.0</ele>
        <time>2022-03-01T15:02:55Z</time>
      </trkpt>
      <trkpt lat="40.0729430" lon="-4.6639120">
        <ele>440.0</ele>
        <time>2022-03-01T15:02:56Z</time>
      </trkpt>
      <trkpt lat="40.0729900" lon="-4.6639470">
        <ele>440.0</ele>
        <time>2022-03-01T15:02:57Z</time>
      </trkpt>
      <trkpt lat="40.0730380" lon="-4.6639820">
        <ele>440.0</ele>
        <time>2022-03-01T15:02:58Z</time>
      </trkpt>
      <trkpt lat="40.0730380" lon="-4.6639820">
        <ele>440.0</ele>
        <time>2022-03-01T15:02:59Z</time>
      </trkpt>
      <trkpt lat="40.0731350" lon="-4.6640530">
        <ele>440.0</ele>
        <time>2022-03-01T15:03:00Z</time>
      </trkpt>
      <trkpt lat="40.0731830" lon="-4.6640900">
        <ele>440.0</ele>
        <time>2022-03-01T15:03:01Z</time>
      </trkpt>
      <trkpt lat="40.0731830" lon="-4.6640900">
        <ele>441.0</ele>
        <time>2022-03-01T15:03:02Z</time>
      </trkpt>
      <trkpt lat="40.0732820" lon="-4.6641620">
        <ele>441.0</ele>
        <time>2022-03-01T15:03:03Z</time>
      </trkpt>
      <trkpt lat="40.0733330" lon="-4.6641980">
        <ele>441.0</ele>
        <time>2022-03-01T15:03:04Z</time>
      </trkpt>
      <trkpt lat="40.0733330" lon="-4.6641980">
        <ele>441.0</ele>
        <time>2022-03-01T15:03:05Z</time>
      </trkpt>
      <trkpt lat="40.0734370" lon="-4.6642770">
        <ele>441.0</ele>
        <time>2022-03-01T15:03:06Z</time>
      </trkpt>
      <trkpt lat="40.0734370" lon="-4.6642770">
        <ele>441.0</ele>
        <time>2022-03-01T15:03:07Z</time>
      </trkpt>
      <trkpt lat="40.0735430" lon="-4.6643580">
        <ele>441.0</ele>
        <time>2022-03-01T15:03:08Z</time>
      </trkpt>
      <trkpt lat="40.0735430" lon="-4.6643580">
        <ele>441.0</ele>
        <time>2022-03-01T15:03:09Z</time>
      </trkpt>
      <trkpt lat="40.0736520" lon="-4.6644370">
        <ele>441.0</ele>
        <time>2022-03-01T15:03:10Z</time>
      </trkpt>
      <trkpt lat="40.0736520" lon="-4.6644370">
        <ele>441.0</ele>
        <time>2022-03-01T15:03:11Z</time>
      </trkpt>
      <trkpt lat="40.0737600" lon="-4.6645150">
        <ele>441.0</ele>
        <time>2022-03-01T15:03:12Z</time>
      </trkpt>
      <trkpt lat="40.0737600" lon="-4.6645150">
        <ele>441.0</ele>
        <time>2022-03-01T15:03:13Z</time>
      </trkpt>
      <trkpt lat="40.0738680" lon="-4.6645950">
        <ele>440.0</ele>
        <time>2022-03-01T15:03:14Z</time>
      </trkpt>
      <trkpt lat="40.0738680" lon="-4.6645950">
        <ele>440.0</ele>
        <time>2022-03-01T15:03:15Z</time>
      </trkpt>
      <trkpt lat="40.0739780" lon="-4.6646770">
        <ele>440.0</ele>
        <time>2022-03-01T15:03:16Z</time>
      </trkpt>
      <trkpt lat="40.0739780" lon="-4.6646770">
        <ele>440.0</ele>
        <time>2022-03-01T15:03:17Z</time>
      </trkpt>
      <trkpt lat="40.0740880" lon="-4.6647600">
        <ele>440.0</ele>
        <time>2022-03-01T15:03:18Z</time>
      </trkpt>
      <trkpt lat="40.0740880" lon="-4.6647600">
        <ele>440.0</ele>
        <time>2022-03-01T15:03:19Z</time>
      </trkpt>
      <trkpt lat="40.0742000" lon="-4.6648450">
        <ele>440.0</ele>
        <time>2022-03-01T15:03:20Z</time>
      </trkpt>
      <trkpt lat="40.0742000" lon="-4.6648450">
        <ele>440.0</ele>
        <time>2022-03-01T15:03:21Z</time>
      </trkpt>
      <trkpt lat="40.0743070" lon="-4.6649250">
        <ele>440.0</ele>
        <time>2022-03-01T15:03:22Z</time>
      </trkpt>
      <trkpt lat="40.0743070" lon="-4.6649250">
        <ele>440.0</ele>
        <time>2022-03-01T15:03:23Z</time>
      </trkpt>
      <trkpt lat="40.0744200" lon="-4.6650100">
        <ele>440.0</ele>
        <time>2022-03-01T15:03:24Z</time>
      </trkpt>
      <trkpt lat="40.0744200" lon="-4.6650100">
        <ele>440.0</ele>
        <time>2022-03-01T15:03:25Z</time>
      </trkpt>
      <trkpt lat="40.0745370" lon="-4.6650950">
        <ele>440.0</ele>
        <time>2022-03-01T15:03:26Z</time>
      </trkpt>
      <trkpt lat="40.0745370" lon="-4.6650950">
        <ele>440.0</ele>
        <time>2022-03-01T15:03:27Z</time>
      </trkpt>
      <trkpt lat="40.0746500" lon="-4.6651780">
        <ele>440.0</ele>
        <time>2022-03-01T15:03:28Z</time>
      </trkpt>
      <trkpt lat="40.0747070" lon="-4.6652200">
        <ele>440.0</ele>
        <time>2022-03-01T15:03:29Z</time>
      </trkpt>
      <trkpt lat="40.0747070" lon="-4.6652200">
        <ele>440.0</ele>
        <time>2022-03-01T15:03:30Z</time>
      </trkpt>
      <trkpt lat="40.0748230" lon="-4.6653030">
        <ele>440.0</ele>
        <time>2022-03-01T15:03:31Z</time>
      </trkpt>
      <trkpt lat="40.0748230" lon="-4.6653030">
        <ele>440.0</ele>
        <time>2022-03-01T15:03:32Z</time>
      </trkpt>
      <trkpt lat="40.0749430" lon="-4.6653870">
        <ele>440.0</ele>
        <time>2022-03-01T15:03:33Z</time>
      </trkpt>
      <trkpt lat="40.0749430" lon="-4.6653870">
        <ele>440.0</ele>
        <time>2022-03-01T15:03:34Z</time>
      </trkpt>
      <trkpt lat="40.0750650" lon="-4.6654780">
        <ele>440.0</ele>
        <time>2022-03-01T15:03:35Z</time>
      </trkpt>
      <trkpt lat="40.0751250" lon="-4.6655250">
        <ele>440.0</ele>
        <time>2022-03-01T15:03:36Z</time>
      </trkpt>
      <trkpt lat="40.0751250" lon="-4.6655250">
        <ele>440.0</ele>
        <time>2022-03-01T15:03:37Z</time>
      </trkpt>
      <trkpt lat="40.0752450" lon="-4.6656180">
        <ele>440.0</ele>
        <time>2022-03-01T15:03:38Z</time>
      </trkpt>
      <trkpt lat="40.0753070" lon="-4.6656630">
        <ele>440.0</ele>
        <time>2022-03-01T15:03:39Z</time>
      </trkpt>
      <trkpt lat="40.0753680" lon="-4.6657080">
        <ele>440.0</ele>
        <time>2022-03-01T15:03:40Z</time>
      </trkpt>
      <trkpt lat="40.0753680" lon="-4.6657080">
        <ele>440.0</ele>
        <time>2022-03-01T15:03:41Z</time>
      </trkpt>
      <trkpt lat="40.0754900" lon="-4.6657980">
        <ele>438.0</ele>
        <time>2022-03-01T15:03:42Z</time>
      </trkpt>
      <trkpt lat="40.0754900" lon="-4.6657980">
        <ele>438.0</ele>
        <time>2022-03-01T15:03:43Z</time>
      </trkpt>
      <trkpt lat="40.0756150" lon="-4.6658950">
        <ele>438.0</ele>
        <time>2022-03-01T15:03:44Z</time>
      </trkpt>
      <trkpt lat="40.0756150" lon="-4.6658950">
        <ele>438.0</ele>
        <time>2022-03-01T15:03:45Z</time>
      </trkpt>
      <trkpt lat="40.0757450" lon="-4.6659900">
        <ele>438.0</ele>
        <time>2022-03-01T15:03:46Z</time>
      </trkpt>
      <trkpt lat="40.0757450" lon="-4.6659900">
        <ele>438.0</ele>
        <time>2022-03-01T15:03:47Z</time>
      </trkpt>
      <trkpt lat="40.0758800" lon="-4.6660880">
        <ele>438.0</ele>
        <time>2022-03-01T15:03:48Z</time>
      </trkpt>
      <trkpt lat="40.0759470" lon="-4.6661420">
        <ele>438.0</ele>
        <time>2022-03-01T15:03:49Z</time>
      </trkpt>
      <trkpt lat="40.0759470" lon="-4.6661420">
        <ele>438.0</ele>
        <time>2022-03-01T15:03:50Z</time>
      </trkpt>
      <trkpt lat="40.0760870" lon="-4.6662520">
        <ele>438.0</ele>
        <time>2022-03-01T15:03:51Z</time>
      </trkpt>
      <trkpt lat="40.0761600" lon="-4.6663070">
        <ele>437.0</ele>
        <time>2022-03-01T15:03:52Z</time>
      </trkpt>
      <trkpt lat="40.0761600" lon="-4.6663070">
        <ele>437.0</ele>
        <time>2022-03-01T15:03:53Z</time>
      </trkpt>
      <trkpt lat="40.0763080" lon="-4.6664180">
        <ele>437.0</ele>
        <time>2022-03-01T15:03:54Z</time>
      </trkpt>
      <trkpt lat="40.0763080" lon="-4.6664180">
        <ele>437.0</ele>
        <time>2022-03-01T15:03:55Z</time>
      </trkpt>
      <trkpt lat="40.0764600" lon="-4.6665350">
        <ele>435.0</ele>
        <time>2022-03-01T15:03:56Z</time>
      </trkpt>
      <trkpt lat="40.0765370" lon="-4.6665930">
        <ele>435.0</ele>
        <time>2022-03-01T15:03:57Z</time>
      </trkpt>
      <trkpt lat="40.0766170" lon="-4.6666520">
        <ele>434.0</ele>
        <time>2022-03-01T15:03:58Z</time>
      </trkpt>
      <trkpt lat="40.0766170" lon="-4.6666520">
        <ele>434.0</ele>
        <time>2022-03-01T15:03:59Z</time>
      </trkpt>
      <trkpt lat="40.0767750" lon="-4.6667700">
        <ele>433.0</ele>
        <time>2022-03-01T15:04:00Z</time>
      </trkpt>
      <trkpt lat="40.0767750" lon="-4.6667700">
        <ele>433.0</ele>
        <time>2022-03-01T15:04:01Z</time>
      </trkpt>
      <trkpt lat="40.0769330" lon="-4.6668900">
        <ele>433.0</ele>
        <time>2022-03-01T15:04:02Z</time>
      </trkpt>
      <trkpt lat="40.0770130" lon="-4.6669480">
        <ele>433.0</ele>
        <time>2022-03-01T15:04:03Z</time>
      </trkpt>
      <trkpt lat="40.0770920" lon="-4.6670050">
        <ele>432.0</ele>
        <time>2022-03-01T15:04:04Z</time>
      </trkpt>
      <trkpt lat="40.0770920" lon="-4.6670050">
        <ele>432.0</ele>
        <time>2022-03-01T15:04:05Z</time>
      </trkpt>
      <trkpt lat="40.0772470" lon="-4.6671150">
        <ele>431.0</ele>
        <time>2022-03-01T15:04:06Z</time>
      </trkpt>
      <trkpt lat="40.0772470" lon="-4.6671150">
        <ele>431.0</ele>
        <time>2022-03-01T15:04:07Z</time>
      </trkpt>
      <trkpt lat="40.0773970" lon="-4.6672270">
        <ele>431.0</ele>
        <time>2022-03-01T15:04:08Z</time>
      </trkpt>
      <trkpt lat="40.0773970" lon="-4.6672270">
        <ele>431.0</ele>
        <time>2022-03-01T15:04:09Z</time>
      </trkpt>
      <trkpt lat="40.0775420" lon="-4.6673350">
        <ele>431.0</ele>
        <time>2022-03-01T15:04:10Z</time>
      </trkpt>
      <trkpt lat="40.0775420" lon="-4.6673350">
        <ele>431.0</ele>
        <time>2022-03-01T15:04:11Z</time>
      </trkpt>
      <trkpt lat="40.0776850" lon="-4.6674380">
        <ele>431.0</ele>
        <time>2022-03-01T15:04:12Z</time>
      </trkpt>
      <trkpt lat="40.0777570" lon="-4.6674900">
        <ele>431.0</ele>
        <time>2022-03-01T15:04:13Z</time>
      </trkpt>
      <trkpt lat="40.0777570" lon="-4.6674900">
        <ele>431.0</ele>
        <time>2022-03-01T15:04:14Z</time>
      </trkpt>
      <trkpt lat="40.0778930" lon="-4.6675920">
        <ele>431.0</ele>
        <time>2022-03-01T15:04:15Z</time>
      </trkpt>
      <trkpt lat="40.0779580" lon="-4.6676380">
        <ele>431.0</ele>
        <time>2022-03-01T15:04:16Z</time>
      </trkpt>
      <trkpt lat="40.0779580" lon="-4.6676380">
        <ele>431.0</ele>
        <time>2022-03-01T15:04:17Z</time>
      </trkpt>
      <trkpt lat="40.0780850" lon="-4.6677320">
        <ele>432.0</ele>
        <time>2022-03-01T15:04:18Z</time>
      </trkpt>
      <trkpt lat="40.0780850" lon="-4.6677320">
        <ele>432.0</ele>
        <time>2022-03-01T15:04:19Z</time>
      </trkpt>
      <trkpt lat="40.0782030" lon="-4.6678230">
        <ele>432.0</ele>
        <time>2022-03-01T15:04:20Z</time>
      </trkpt>
      <trkpt lat="40.0782030" lon="-4.6678230">
        <ele>432.0</ele>
        <time>2022-03-01T15:04:21Z</time>
      </trkpt>
      <trkpt lat="40.0783200" lon="-4.6679070">
        <ele>433.0</ele>
        <time>2022-03-01T15:04:22Z</time>
      </trkpt>
      <trkpt lat="40.0783200" lon="-4.6679070">
        <ele>433.0</ele>
        <time>2022-03-01T15:04:23Z</time>
      </trkpt>
      <trkpt lat="40.0784320" lon="-4.6679870">
        <ele>433.0</ele>
        <time>2022-03-01T15:04:24Z</time>
      </trkpt>
      <trkpt lat="40.0784320" lon="-4.6679870">
        <ele>433.0</ele>
        <time>2022-03-01T15:04:25Z</time>
      </trkpt>
      <trkpt lat="40.0785380" lon="-4.6680670">
        <ele>433.0</ele>
        <time>2022-03-01T15:04:26Z</time>
      </trkpt>
      <trkpt lat="40.0785380" lon="-4.6680670">
        <ele>433.0</ele>
        <time>2022-03-01T15:04:27Z</time>
      </trkpt>
      <trkpt lat="40.0786420" lon="-4.6681450">
        <ele>434.0</ele>
        <time>2022-03-01T15:04:28Z</time>
      </trkpt>
      <trkpt lat="40.0786420" lon="-4.6681450">
        <ele>434.0</ele>
        <time>2022-03-01T15:04:29Z</time>
      </trkpt>
      <trkpt lat="40.0787450" lon="-4.6682180">
        <ele>434.0</ele>
        <time>2022-03-01T15:04:30Z</time>
      </trkpt>
      <trkpt lat="40.0787450" lon="-4.6682180">
        <ele>434.0</ele>
        <time>2022-03-01T15:04:31Z</time>
      </trkpt>
      <trkpt lat="40.0788450" lon="-4.6682950">
        <ele>435.0</ele>
        <time>2022-03-01T15:04:32Z</time>
      </trkpt>
      <trkpt lat="40.0788930" lon="-4.6683300">
        <ele>435.0</ele>
        <time>2022-03-01T15:04:33Z</time>
      </trkpt>
      <trkpt lat="40.0789450" lon="-4.6683670">
        <ele>435.0</ele>
        <time>2022-03-01T15:04:34Z</time>
      </trkpt>
      <trkpt lat="40.0789450" lon="-4.6683670">
        <ele>435.0</ele>
        <time>2022-03-01T15:04:35Z</time>
      </trkpt>
      <trkpt lat="40.0790480" lon="-4.6684420">
        <ele>435.0</ele>
        <time>2022-03-01T15:04:36Z</time>
      </trkpt>
      <trkpt lat="40.0790480" lon="-4.6684420">
        <ele>436.0</ele>
        <time>2022-03-01T15:04:37Z</time>
      </trkpt>
      <trkpt lat="40.0791520" lon="-4.6685220">
        <ele>436.0</ele>
        <time>2022-03-01T15:04:38Z</time>
      </trkpt>
      <trkpt lat="40.0791520" lon="-4.6685220">
        <ele>436.0</ele>
        <time>2022-03-01T15:04:39Z</time>
      </trkpt>
      <trkpt lat="40.0792570" lon="-4.6686020">
        <ele>436.0</ele>
        <time>2022-03-01T15:04:40Z</time>
      </trkpt>
      <trkpt lat="40.0792570" lon="-4.6686020">
        <ele>436.0</ele>
        <time>2022-03-01T15:04:41Z</time>
      </trkpt>
      <trkpt lat="40.0793580" lon="-4.6686820">
        <ele>437.0</ele>
        <time>2022-03-01T15:04:42Z</time>
      </trkpt>
      <trkpt lat="40.0793580" lon="-4.6686820">
        <ele>437.0</ele>
        <time>2022-03-01T15:04:43Z</time>
      </trkpt>
      <trkpt lat="40.0794570" lon="-4.6687570">
        <ele>437.0</ele>
        <time>2022-03-01T15:04:44Z</time>
      </trkpt>
      <trkpt lat="40.0794570" lon="-4.6687570">
        <ele>437.0</ele>
        <time>2022-03-01T15:04:45Z</time>
      </trkpt>
      <trkpt lat="40.0795570" lon="-4.6688300">
        <ele>437.0</ele>
        <time>2022-03-01T15:04:46Z</time>
      </trkpt>
      <trkpt lat="40.0795570" lon="-4.6688300">
        <ele>438.0</ele>
        <time>2022-03-01T15:04:47Z</time>
      </trkpt>
      <trkpt lat="40.0796530" lon="-4.6689050">
        <ele>438.0</ele>
        <time>2022-03-01T15:04:48Z</time>
      </trkpt>
      <trkpt lat="40.0796530" lon="-4.6689050">
        <ele>438.0</ele>
        <time>2022-03-01T15:04:49Z</time>
      </trkpt>
      <trkpt lat="40.0797520" lon="-4.6689770">
        <ele>438.0</ele>
        <time>2022-03-01T15:04:50Z</time>
      </trkpt>
      <trkpt lat="40.0797520" lon="-4.6689770">
        <ele>439.0</ele>
        <time>2022-03-01T15:04:51Z</time>
      </trkpt>
      <trkpt lat="40.0798480" lon="-4.6690500">
        <ele>439.0</ele>
        <time>2022-03-01T15:04:52Z</time>
      </trkpt>
      <trkpt lat="40.0798480" lon="-4.6690500">
        <ele>439.0</ele>
        <time>2022-03-01T15:04:53Z</time>
      </trkpt>
      <trkpt lat="40.0799470" lon="-4.6691250">
        <ele>439.0</ele>
        <time>2022-03-01T15:04:54Z</time>
      </trkpt>
      <trkpt lat="40.0799470" lon="-4.6691250">
        <ele>439.0</ele>
        <time>2022-03-01T15:04:55Z</time>
      </trkpt>
      <trkpt lat="40.0800450" lon="-4.6691980">
        <ele>439.0</ele>
        <time>2022-03-01T15:04:56Z</time>
      </trkpt>
      <trkpt lat="40.0800450" lon="-4.6691980">
        <ele>439.0</ele>
        <time>2022-03-01T15:04:57Z</time>
      </trkpt>
      <trkpt lat="40.0801450" lon="-4.6692700">
        <ele>439.0</ele>
        <time>2022-03-01T15:04:58Z</time>
      </trkpt>
      <trkpt lat="40.0801450" lon="-4.6692700">
        <ele>439.0</ele>
        <time>2022-03-01T15:04:59Z</time>
      </trkpt>
      <trkpt lat="40.0802450" lon="-4.6693450">
        <ele>439.0</ele>
        <time>2022-03-01T15:05:00Z</time>
      </trkpt>
      <trkpt lat="40.0802450" lon="-4.6693450">
        <ele>439.0</ele>
        <time>2022-03-01T15:05:01Z</time>
      </trkpt>
      <trkpt lat="40.0803470" lon="-4.6694170">
        <ele>439.0</ele>
        <time>2022-03-01T15:05:02Z</time>
      </trkpt>
      <trkpt lat="40.0803470" lon="-4.6694170">
        <ele>439.0</ele>
        <time>2022-03-01T15:05:03Z</time>
      </trkpt>
      <trkpt lat="40.0804500" lon="-4.6694900">
        <ele>439.0</ele>
        <time>2022-03-01T15:05:04Z</time>
      </trkpt>
      <trkpt lat="40.0804500" lon="-4.6694900">
        <ele>439.0</ele>
        <time>2022-03-01T15:05:05Z</time>
      </trkpt>
      <trkpt lat="40.0805550" lon="-4.6695650">
        <ele>439.0</ele>
        <time>2022-03-01T15:05:06Z</time>
      </trkpt>
      <trkpt lat="40.0805550" lon="-4.6695650">
        <ele>439.0</ele>
        <time>2022-03-01T15:05:07Z</time>
      </trkpt>
      <trkpt lat="40.0806620" lon="-4.6696380">
        <ele>439.0</ele>
        <time>2022-03-01T15:05:08Z</time>
      </trkpt>
      <trkpt lat="40.0806620" lon="-4.6696380">
        <ele>439.0</ele>
        <time>2022-03-01T15:05:09Z</time>
      </trkpt>
      <trkpt lat="40.0807680" lon="-4.6697130">
        <ele>439.0</ele>
        <time>2022-03-01T15:05:10Z</time>
      </trkpt>
      <trkpt lat="40.0807680" lon="-4.6697130">
        <ele>439.0</ele>
        <time>2022-03-01T15:05:11Z</time>
      </trkpt>
      <trkpt lat="40.0808780" lon="-4.6697880">
        <ele>439.0</ele>
        <time>2022-03-01T15:05:12Z</time>
      </trkpt>
      <trkpt lat="40.0809350" lon="-4.6698280">
        <ele>439.0</ele>
        <time>2022-03-01T15:05:13Z</time>
      </trkpt>
      <trkpt lat="40.0809350" lon="-4.6698280">
        <ele>439.0</ele>
        <time>2022-03-01T15:05:14Z</time>
      </trkpt>
      <trkpt lat="40.0810470" lon="-4.6699120">
        <ele>439.0</ele>
        <time>2022-03-01T15:05:15Z</time>
      </trkpt>
      <trkpt lat="40.0810470" lon="-4.6699120">
        <ele>439.0</ele>
        <time>2022-03-01T15:05:16Z</time>
      </trkpt>
      <trkpt lat="40.0811620" lon="-4.6699970">
        <ele>439.0</ele>
        <time>2022-03-01T15:05:17Z</time>
      </trkpt>
      <trkpt lat="40.0812200" lon="-4.6700400">
        <ele>439.0</ele>
        <time>2022-03-01T15:05:18Z</time>
      </trkpt>
      <trkpt lat="40.0812200" lon="-4.6700400">
        <ele>439.0</ele>
        <time>2022-03-01T15:05:19Z</time>
      </trkpt>
      <trkpt lat="40.0813350" lon="-4.6701300">
        <ele>439.0</ele>
        <time>2022-03-01T15:05:20Z</time>
      </trkpt>
      <trkpt lat="40.0813350" lon="-4.6701300">
        <ele>439.0</ele>
        <time>2022-03-01T15:05:21Z</time>
      </trkpt>
      <trkpt lat="40.0814500" lon="-4.6702120">
        <ele>439.0</ele>
        <time>2022-03-01T15:05:22Z</time>
      </trkpt>
      <trkpt lat="40.0814500" lon="-4.6702120">
        <ele>438.0</ele>
        <time>2022-03-01T15:05:23Z</time>
      </trkpt>
      <trkpt lat="40.0815630" lon="-4.6702950">
        <ele>438.0</ele>
        <time>2022-03-01T15:05:24Z</time>
      </trkpt>
      <trkpt lat="40.0815630" lon="-4.6702950">
        <ele>438.0</ele>
        <time>2022-03-01T15:05:25Z</time>
      </trkpt>
      <trkpt lat="40.0816750" lon="-4.6703780">
        <ele>438.0</ele>
        <time>2022-03-01T15:05:26Z</time>
      </trkpt>
      <trkpt lat="40.0816750" lon="-4.6703780">
        <ele>438.0</ele>
        <time>2022-03-01T15:05:27Z</time>
      </trkpt>
      <trkpt lat="40.0817900" lon="-4.6704650">
        <ele>438.0</ele>
        <time>2022-03-01T15:05:28Z</time>
      </trkpt>
      <trkpt lat="40.0817900" lon="-4.6704650">
        <ele>438.0</ele>
        <time>2022-03-01T15:05:29Z</time>
      </trkpt>
      <trkpt lat="40.0819080" lon="-4.6705520">
        <ele>438.0</ele>
        <time>2022-03-01T15:05:30Z</time>
      </trkpt>
      <trkpt lat="40.0819080" lon="-4.6705520">
        <ele>438.0</ele>
        <time>2022-03-01T15:05:31Z</time>
      </trkpt>
      <trkpt lat="40.0820270" lon="-4.6706400">
        <ele>438.0</ele>
        <time>2022-03-01T15:05:32Z</time>
      </trkpt>
      <trkpt lat="40.0820870" lon="-4.6706830">
        <ele>438.0</ele>
        <time>2022-03-01T15:05:33Z</time>
      </trkpt>
      <trkpt lat="40.0820870" lon="-4.6706830">
        <ele>438.0</ele>
        <time>2022-03-01T15:05:34Z</time>
      </trkpt>
      <trkpt lat="40.0822070" lon="-4.6707680">
        <ele>438.0</ele>
        <time>2022-03-01T15:05:35Z</time>
      </trkpt>
      <trkpt lat="40.0822680" lon="-4.6708130">
        <ele>438.0</ele>
        <time>2022-03-01T15:05:36Z</time>
      </trkpt>
      <trkpt lat="40.0822680" lon="-4.6708130">
        <ele>438.0</ele>
        <time>2022-03-01T15:05:37Z</time>
      </trkpt>
      <trkpt lat="40.0823900" lon="-4.6709050">
        <ele>438.0</ele>
        <time>2022-03-01T15:05:38Z</time>
      </trkpt>
      <trkpt lat="40.0823900" lon="-4.6709050">
        <ele>438.0</ele>
        <time>2022-03-01T15:05:39Z</time>
      </trkpt>
      <trkpt lat="40.0825130" lon="-4.6709950">
        <ele>438.0</ele>
        <time>2022-03-01T15:05:40Z</time>
      </trkpt>
      <trkpt lat="40.0825130" lon="-4.6709950">
        <ele>438.0</ele>
        <time>2022-03-01T15:05:41Z</time>
      </trkpt>
      <trkpt lat="40.0826370" lon="-4.6710880">
        <ele>438.0</ele>
        <time>2022-03-01T15:05:42Z</time>
      </trkpt>
      <trkpt lat="40.0826370" lon="-4.6710880">
        <ele>438.0</ele>
        <time>2022-03-01T15:05:43Z</time>
      </trkpt>
      <trkpt lat="40.0827550" lon="-4.6711800">
        <ele>438.0</ele>
        <time>2022-03-01T15:05:44Z</time>
      </trkpt>
      <trkpt lat="40.0827550" lon="-4.6711800">
        <ele>438.0</ele>
        <time>2022-03-01T15:05:45Z</time>
      </trkpt>
      <trkpt lat="40.0828750" lon="-4.6712720">
        <ele>438.0</ele>
        <time>2022-03-01T15:05:46Z</time>
      </trkpt>
      <trkpt lat="40.0828750" lon="-4.6712720">
        <ele>438.0</ele>
        <time>2022-03-01T15:05:47Z</time>
      </trkpt>
      <trkpt lat="40.0829950" lon="-4.6713620">
        <ele>438.0</ele>
        <time>2022-03-01T15:05:48Z</time>
      </trkpt>
      <trkpt lat="40.0829950" lon="-4.6713620">
        <ele>438.0</ele>
        <time>2022-03-01T15:05:49Z</time>
      </trkpt>
      <trkpt lat="40.0831150" lon="-4.6714480">
        <ele>438.0</ele>
        <time>2022-03-01T15:05:50Z</time>
      </trkpt>
      <trkpt lat="40.0831730" lon="-4.6714920">
        <ele>438.0</ele>
        <time>2022-03-01T15:05:51Z</time>
      </trkpt>
      <trkpt lat="40.0832320" lon="-4.6715350">
        <ele>438.0</ele>
        <time>2022-03-01T15:05:52Z</time>
      </trkpt>
      <trkpt lat="40.0832320" lon="-4.6715350">
        <ele>438.0</ele>
        <time>2022-03-01T15:05:53Z</time>
      </trkpt>
      <trkpt lat="40.0833470" lon="-4.6716200">
        <ele>438.0</ele>
        <time>2022-03-01T15:05:54Z</time>
      </trkpt>
      <trkpt lat="40.0833470" lon="-4.6716200">
        <ele>439.0</ele>
        <time>2022-03-01T15:05:55Z</time>
      </trkpt>
      <trkpt lat="40.0834600" lon="-4.6717050">
        <ele>439.0</ele>
        <time>2022-03-01T15:05:56Z</time>
      </trkpt>
      <trkpt lat="40.0834600" lon="-4.6717050">
        <ele>439.0</ele>
        <time>2022-03-01T15:05:57Z</time>
      </trkpt>
      <trkpt lat="40.0835730" lon="-4.6717880">
        <ele>439.0</ele>
        <time>2022-03-01T15:05:58Z</time>
      </trkpt>
      <trkpt lat="40.0835730" lon="-4.6717880">
        <ele>439.0</ele>
        <time>2022-03-01T15:05:59Z</time>
      </trkpt>
      <trkpt lat="40.0836870" lon="-4.6718730">
        <ele>439.0</ele>
        <time>2022-03-01T15:06:00Z</time>
      </trkpt>
      <trkpt lat="40.0836870" lon="-4.6718730">
        <ele>439.0</ele>
        <time>2022-03-01T15:06:01Z</time>
      </trkpt>
      <trkpt lat="40.0838020" lon="-4.6719580">
        <ele>439.0</ele>
        <time>2022-03-01T15:06:02Z</time>
      </trkpt>
      <trkpt lat="40.0838580" lon="-4.6720000">
        <ele>439.0</ele>
        <time>2022-03-01T15:06:03Z</time>
      </trkpt>
      <trkpt lat="40.0838580" lon="-4.6720000">
        <ele>439.0</ele>
        <time>2022-03-01T15:06:04Z</time>
      </trkpt>
      <trkpt lat="40.0839720" lon="-4.6720830">
        <ele>440.0</ele>
        <time>2022-03-01T15:06:05Z</time>
      </trkpt>
      <trkpt lat="40.0840280" lon="-4.6721230">
        <ele>440.0</ele>
        <time>2022-03-01T15:06:06Z</time>
      </trkpt>
      <trkpt lat="40.0840280" lon="-4.6721230">
        <ele>440.0</ele>
        <time>2022-03-01T15:06:07Z</time>
      </trkpt>
      <trkpt lat="40.0841370" lon="-4.6721980">
        <ele>440.0</ele>
        <time>2022-03-01T15:06:08Z</time>
      </trkpt>
      <trkpt lat="40.0841370" lon="-4.6721980">
        <ele>441.0</ele>
        <time>2022-03-01T15:06:09Z</time>
      </trkpt>
      <trkpt lat="40.0842450" lon="-4.6722780">
        <ele>441.0</ele>
        <time>2022-03-01T15:06:10Z</time>
      </trkpt>
      <trkpt lat="40.0842450" lon="-4.6722780">
        <ele>441.0</ele>
        <time>2022-03-01T15:06:11Z</time>
      </trkpt>
      <trkpt lat="40.0843500" lon="-4.6723570">
        <ele>441.0</ele>
        <time>2022-03-01T15:06:12Z</time>
      </trkpt>
      <trkpt lat="40.0843500" lon="-4.6723570">
        <ele>441.0</ele>
        <time>2022-03-01T15:06:13Z</time>
      </trkpt>
      <trkpt lat="40.0844580" lon="-4.6724330">
        <ele>441.0</ele>
        <time>2022-03-01T15:06:14Z</time>
      </trkpt>
      <trkpt lat="40.0845120" lon="-4.6724720">
        <ele>441.0</ele>
        <time>2022-03-01T15:06:15Z</time>
      </trkpt>
      <trkpt lat="40.0845630" lon="-4.6725120">
        <ele>441.0</ele>
        <time>2022-03-01T15:06:16Z</time>
      </trkpt>
      <trkpt lat="40.0845630" lon="-4.6725120">
        <ele>441.0</ele>
        <time>2022-03-01T15:06:17Z</time>
      </trkpt>
      <trkpt lat="40.0846650" lon="-4.6725900">
        <ele>441.0</ele>
        <time>2022-03-01T15:06:18Z</time>
      </trkpt>
      <trkpt lat="40.0846650" lon="-4.6725900">
        <ele>442.0</ele>
        <time>2022-03-01T15:06:19Z</time>
      </trkpt>
      <trkpt lat="40.0847680" lon="-4.6726630">
        <ele>442.0</ele>
        <time>2022-03-01T15:06:20Z</time>
      </trkpt>
      <trkpt lat="40.0847680" lon="-4.6726630">
        <ele>442.0</ele>
        <time>2022-03-01T15:06:21Z</time>
      </trkpt>
      <trkpt lat="40.0848680" lon="-4.6727380">
        <ele>442.0</ele>
        <time>2022-03-01T15:06:22Z</time>
      </trkpt>
      <trkpt lat="40.0849180" lon="-4.6727750">
        <ele>442.0</ele>
        <time>2022-03-01T15:06:23Z</time>
      </trkpt>
      <trkpt lat="40.0849180" lon="-4.6727750">
        <ele>442.0</ele>
        <time>2022-03-01T15:06:24Z</time>
      </trkpt>
      <trkpt lat="40.0850150" lon="-4.6728480">
        <ele>442.0</ele>
        <time>2022-03-01T15:06:25Z</time>
      </trkpt>
      <trkpt lat="40.0850150" lon="-4.6728480">
        <ele>442.0</ele>
        <time>2022-03-01T15:06:26Z</time>
      </trkpt>
      <trkpt lat="40.0851150" lon="-4.6729230">
        <ele>442.0</ele>
        <time>2022-03-01T15:06:27Z</time>
      </trkpt>
      <trkpt lat="40.0851650" lon="-4.6729600">
        <ele>442.0</ele>
        <time>2022-03-01T15:06:28Z</time>
      </trkpt>
      <trkpt lat="40.0851650" lon="-4.6729600">
        <ele>442.0</ele>
        <time>2022-03-01T15:06:29Z</time>
      </trkpt>
      <trkpt lat="40.0852630" lon="-4.6730330">
        <ele>442.0</ele>
        <time>2022-03-01T15:06:30Z</time>
      </trkpt>
      <trkpt lat="40.0852630" lon="-4.6730330">
        <ele>442.0</ele>
        <time>2022-03-01T15:06:31Z</time>
      </trkpt>
      <trkpt lat="40.0853600" lon="-4.6731080">
        <ele>442.0</ele>
        <time>2022-03-01T15:06:32Z</time>
      </trkpt>
      <trkpt lat="40.0854080" lon="-4.6731470">
        <ele>442.0</ele>
        <time>2022-03-01T15:06:33Z</time>
      </trkpt>
      <trkpt lat="40.0854580" lon="-4.6731830">
        <ele>443.0</ele>
        <time>2022-03-01T15:06:34Z</time>
      </trkpt>
      <trkpt lat="40.0854580" lon="-4.6731830">
        <ele>443.0</ele>
        <time>2022-03-01T15:06:35Z</time>
      </trkpt>
      <trkpt lat="40.0855580" lon="-4.6732550">
        <ele>443.0</ele>
        <time>2022-03-01T15:06:36Z</time>
      </trkpt>
      <trkpt lat="40.0855580" lon="-4.6732550">
        <ele>443.0</ele>
        <time>2022-03-01T15:06:37Z</time>
      </trkpt>
      <trkpt lat="40.0856550" lon="-4.6733280">
        <ele>443.0</ele>
        <time>2022-03-01T15:06:38Z</time>
      </trkpt>
      <trkpt lat="40.0857030" lon="-4.6733630">
        <ele>443.0</ele>
        <time>2022-03-01T15:06:39Z</time>
      </trkpt>
      <trkpt lat="40.0857030" lon="-4.6733630">
        <ele>443.0</ele>
        <time>2022-03-01T15:06:40Z</time>
      </trkpt>
      <trkpt lat="40.0858000" lon="-4.6734350">
        <ele>443.0</ele>
        <time>2022-03-01T15:06:41Z</time>
      </trkpt>
      <trkpt lat="40.0858000" lon="-4.6734350">
        <ele>444.0</ele>
        <time>2022-03-01T15:06:42Z</time>
      </trkpt>
      <trkpt lat="40.0858930" lon="-4.6735080">
        <ele>444.0</ele>
        <time>2022-03-01T15:06:43Z</time>
      </trkpt>
      <trkpt lat="40.0859400" lon="-4.6735430">
        <ele>444.0</ele>
        <time>2022-03-01T15:06:44Z</time>
      </trkpt>
      <trkpt lat="40.0859400" lon="-4.6735430">
        <ele>444.0</ele>
        <time>2022-03-01T15:06:45Z</time>
      </trkpt>
      <trkpt lat="40.0860330" lon="-4.6736120">
        <ele>444.0</ele>
        <time>2022-03-01T15:06:46Z</time>
      </trkpt>
      <trkpt lat="40.0860330" lon="-4.6736120">
        <ele>444.0</ele>
        <time>2022-03-01T15:06:47Z</time>
      </trkpt>
      <trkpt lat="40.0861250" lon="-4.6736830">
        <ele>445.0</ele>
        <time>2022-03-01T15:06:48Z</time>
      </trkpt>
      <trkpt lat="40.0861720" lon="-4.6737180">
        <ele>445.0</ele>
        <time>2022-03-01T15:06:49Z</time>
      </trkpt>
      <trkpt lat="40.0862170" lon="-4.6737530">
        <ele>445.0</ele>
        <time>2022-03-01T15:06:50Z</time>
      </trkpt>
      <trkpt lat="40.0862170" lon="-4.6737530">
        <ele>445.0</ele>
        <time>2022-03-01T15:06:51Z</time>
      </trkpt>
      <trkpt lat="40.0863100" lon="-4.6738230">
        <ele>446.0</ele>
        <time>2022-03-01T15:06:52Z</time>
      </trkpt>
      <trkpt lat="40.0863100" lon="-4.6738230">
        <ele>446.0</ele>
        <time>2022-03-01T15:06:53Z</time>
      </trkpt>
      <trkpt lat="40.0864030" lon="-4.6738930">
        <ele>446.0</ele>
        <time>2022-03-01T15:06:54Z</time>
      </trkpt>
      <trkpt lat="40.0864030" lon="-4.6738930">
        <ele>446.0</ele>
        <time>2022-03-01T15:06:55Z</time>
      </trkpt>
      <trkpt lat="40.0864980" lon="-4.6739620">
        <ele>446.0</ele>
        <time>2022-03-01T15:06:56Z</time>
      </trkpt>
      <trkpt lat="40.0864980" lon="-4.6739620">
        <ele>446.0</ele>
        <time>2022-03-01T15:06:57Z</time>
      </trkpt>
      <trkpt lat="40.0865900" lon="-4.6740330">
        <ele>446.0</ele>
        <time>2022-03-01T15:06:58Z</time>
      </trkpt>
      <trkpt lat="40.0865900" lon="-4.6740330">
        <ele>446.0</ele>
        <time>2022-03-01T15:06:59Z</time>
      </trkpt>
      <trkpt lat="40.0866820" lon="-4.6741030">
        <ele>446.0</ele>
        <time>2022-03-01T15:07:00Z</time>
      </trkpt>
      <trkpt lat="40.0866820" lon="-4.6741030">
        <ele>446.0</ele>
        <time>2022-03-01T15:07:01Z</time>
      </trkpt>
      <trkpt lat="40.0867720" lon="-4.6741720">
        <ele>446.0</ele>
        <time>2022-03-01T15:07:02Z</time>
      </trkpt>
      <trkpt lat="40.0867720" lon="-4.6741720">
        <ele>446.0</ele>
        <time>2022-03-01T15:07:03Z</time>
      </trkpt>
      <trkpt lat="40.0868630" lon="-4.6742370">
        <ele>446.0</ele>
        <time>2022-03-01T15:07:04Z</time>
      </trkpt>
      <trkpt lat="40.0868630" lon="-4.6742370">
        <ele>446.0</ele>
        <time>2022-03-01T15:07:05Z</time>
      </trkpt>
      <trkpt lat="40.0869570" lon="-4.6743030">
        <ele>446.0</ele>
        <time>2022-03-01T15:07:06Z</time>
      </trkpt>
      <trkpt lat="40.0869570" lon="-4.6743030">
        <ele>446.0</ele>
        <time>2022-03-01T15:07:07Z</time>
      </trkpt>
      <trkpt lat="40.0870520" lon="-4.6743730">
        <ele>446.0</ele>
        <time>2022-03-01T15:07:08Z</time>
      </trkpt>
      <trkpt lat="40.0870980" lon="-4.6744080">
        <ele>446.0</ele>
        <time>2022-03-01T15:07:09Z</time>
      </trkpt>
      <trkpt lat="40.0870980" lon="-4.6744080">
        <ele>447.0</ele>
        <time>2022-03-01T15:07:10Z</time>
      </trkpt>
      <trkpt lat="40.0871920" lon="-4.6744770">
        <ele>447.0</ele>
        <time>2022-03-01T15:07:11Z</time>
      </trkpt>
      <trkpt lat="40.0871920" lon="-4.6744770">
        <ele>447.0</ele>
        <time>2022-03-01T15:07:12Z</time>
      </trkpt>
      <trkpt lat="40.0872830" lon="-4.6745450">
        <ele>447.0</ele>
        <time>2022-03-01T15:07:13Z</time>
      </trkpt>
      <trkpt lat="40.0872830" lon="-4.6745450">
        <ele>447.0</ele>
        <time>2022-03-01T15:07:14Z</time>
      </trkpt>
      <trkpt lat="40.0873770" lon="-4.6746120">
        <ele>447.0</ele>
        <time>2022-03-01T15:07:15Z</time>
      </trkpt>
      <trkpt lat="40.0874230" lon="-4.6746450">
        <ele>447.0</ele>
        <time>2022-03-01T15:07:16Z</time>
      </trkpt>
      <trkpt lat="40.0874230" lon="-4.6746450">
        <ele>447.0</ele>
        <time>2022-03-01T15:07:17Z</time>
      </trkpt>
      <trkpt lat="40.0875170" lon="-4.6747150">
        <ele>448.0</ele>
        <time>2022-03-01T15:07:18Z</time>
      </trkpt>
      <trkpt lat="40.0875170" lon="-4.6747150">
        <ele>448.0</ele>
        <time>2022-03-01T15:07:19Z</time>
      </trkpt>
      <trkpt lat="40.0876130" lon="-4.6747870">
        <ele>448.0</ele>
        <time>2022-03-01T15:07:20Z</time>
      </trkpt>
      <trkpt lat="40.0876130" lon="-4.6747870">
        <ele>448.0</ele>
        <time>2022-03-01T15:07:21Z</time>
      </trkpt>
      <trkpt lat="40.0877100" lon="-4.6748580">
        <ele>448.0</ele>
        <time>2022-03-01T15:07:22Z</time>
      </trkpt>
      <trkpt lat="40.0877100" lon="-4.6748580">
        <ele>448.0</ele>
        <time>2022-03-01T15:07:23Z</time>
      </trkpt>
      <trkpt lat="40.0878080" lon="-4.6749280">
        <ele>448.0</ele>
        <time>2022-03-01T15:07:24Z</time>
      </trkpt>
      <trkpt lat="40.0878080" lon="-4.6749280">
        <ele>448.0</ele>
        <time>2022-03-01T15:07:25Z</time>
      </trkpt>
      <trkpt lat="40.0879050" lon="-4.6750000">
        <ele>448.0</ele>
        <time>2022-03-01T15:07:26Z</time>
      </trkpt>
      <trkpt lat="40.0879050" lon="-4.6750000">
        <ele>448.0</ele>
        <time>2022-03-01T15:07:27Z</time>
      </trkpt>
      <trkpt lat="40.0880020" lon="-4.6750700">
        <ele>449.0</ele>
        <time>2022-03-01T15:07:28Z</time>
      </trkpt>
      <trkpt lat="40.0880020" lon="-4.6750700">
        <ele>449.0</ele>
        <time>2022-03-01T15:07:29Z</time>
      </trkpt>
      <trkpt lat="40.0881000" lon="-4.6751400">
        <ele>449.0</ele>
        <time>2022-03-01T15:07:30Z</time>
      </trkpt>
      <trkpt lat="40.0881000" lon="-4.6751400">
        <ele>449.0</ele>
        <time>2022-03-01T15:07:31Z</time>
      </trkpt>
      <trkpt lat="40.0881980" lon="-4.6752120">
        <ele>449.0</ele>
        <time>2022-03-01T15:07:32Z</time>
      </trkpt>
      <trkpt lat="40.0882470" lon="-4.6752500">
        <ele>449.0</ele>
        <time>2022-03-01T15:07:33Z</time>
      </trkpt>
      <trkpt lat="40.0882970" lon="-4.6752880">
        <ele>449.0</ele>
        <time>2022-03-01T15:07:34Z</time>
      </trkpt>
      <trkpt lat="40.0882970" lon="-4.6752880">
        <ele>449.0</ele>
        <time>2022-03-01T15:07:35Z</time>
      </trkpt>
      <trkpt lat="40.0883970" lon="-4.6753600">
        <ele>449.0</ele>
        <time>2022-03-01T15:07:36Z</time>
      </trkpt>
      <trkpt lat="40.0883970" lon="-4.6753600">
        <ele>449.0</ele>
        <time>2022-03-01T15:07:37Z</time>
      </trkpt>
      <trkpt lat="40.0884930" lon="-4.6754320">
        <ele>449.0</ele>
        <time>2022-03-01T15:07:38Z</time>
      </trkpt>
      <trkpt lat="40.0885430" lon="-4.6754670">
        <ele>449.0</ele>
        <time>2022-03-01T15:07:39Z</time>
      </trkpt>
      <trkpt lat="40.0885920" lon="-4.6755030">
        <ele>450.0</ele>
        <time>2022-03-01T15:07:40Z</time>
      </trkpt>
      <trkpt lat="40.0885920" lon="-4.6755030">
        <ele>450.0</ele>
        <time>2022-03-01T15:07:41Z</time>
      </trkpt>
      <trkpt lat="40.0886880" lon="-4.6755720">
        <ele>450.0</ele>
        <time>2022-03-01T15:07:42Z</time>
      </trkpt>
      <trkpt lat="40.0886880" lon="-4.6755720">
        <ele>450.0</ele>
        <time>2022-03-01T15:07:43Z</time>
      </trkpt>
      <trkpt lat="40.0887780" lon="-4.6756420">
        <ele>450.0</ele>
        <time>2022-03-01T15:07:44Z</time>
      </trkpt>
      <trkpt lat="40.0887780" lon="-4.6756420">
        <ele>450.0</ele>
        <time>2022-03-01T15:07:45Z</time>
      </trkpt>
      <trkpt lat="40.0888670" lon="-4.6757080">
        <ele>451.0</ele>
        <time>2022-03-01T15:07:46Z</time>
      </trkpt>
      <trkpt lat="40.0888670" lon="-4.6757080">
        <ele>451.0</ele>
        <time>2022-03-01T15:07:47Z</time>
      </trkpt>
      <trkpt lat="40.0889580" lon="-4.6757820">
        <ele>451.0</ele>
        <time>2022-03-01T15:07:48Z</time>
      </trkpt>
      <trkpt lat="40.0890080" lon="-4.6758180">
        <ele>451.0</ele>
        <time>2022-03-01T15:07:49Z</time>
      </trkpt>
      <trkpt lat="40.0890580" lon="-4.6758550">
        <ele>451.0</ele>
        <time>2022-03-01T15:07:50Z</time>
      </trkpt>
      <trkpt lat="40.0890580" lon="-4.6758550">
        <ele>451.0</ele>
        <time>2022-03-01T15:07:51Z</time>
      </trkpt>
      <trkpt lat="40.0891630" lon="-4.6759330">
        <ele>451.0</ele>
        <time>2022-03-01T15:07:52Z</time>
      </trkpt>
      <trkpt lat="40.0891630" lon="-4.6759330">
        <ele>451.0</ele>
        <time>2022-03-01T15:07:53Z</time>
      </trkpt>
      <trkpt lat="40.0892650" lon="-4.6760130">
        <ele>451.0</ele>
        <time>2022-03-01T15:07:54Z</time>
      </trkpt>
      <trkpt lat="40.0892650" lon="-4.6760130">
        <ele>451.0</ele>
        <time>2022-03-01T15:07:55Z</time>
      </trkpt>
      <trkpt lat="40.0893680" lon="-4.6760880">
        <ele>451.0</ele>
        <time>2022-03-01T15:07:56Z</time>
      </trkpt>
      <trkpt lat="40.0893680" lon="-4.6760880">
        <ele>451.0</ele>
        <time>2022-03-01T15:07:57Z</time>
      </trkpt>
      <trkpt lat="40.0894680" lon="-4.6761620">
        <ele>451.0</ele>
        <time>2022-03-01T15:07:58Z</time>
      </trkpt>
      <trkpt lat="40.0894680" lon="-4.6761620">
        <ele>451.0</ele>
        <time>2022-03-01T15:07:59Z</time>
      </trkpt>
      <trkpt lat="40.0895670" lon="-4.6762350">
        <ele>451.0</ele>
        <time>2022-03-01T15:08:00Z</time>
      </trkpt>
      <trkpt lat="40.0895670" lon="-4.6762350">
        <ele>451.0</ele>
        <time>2022-03-01T15:08:01Z</time>
      </trkpt>
      <trkpt lat="40.0896620" lon="-4.6763080">
        <ele>452.0</ele>
        <time>2022-03-01T15:08:02Z</time>
      </trkpt>
      <trkpt lat="40.0896620" lon="-4.6763080">
        <ele>452.0</ele>
        <time>2022-03-01T15:08:03Z</time>
      </trkpt>
      <trkpt lat="40.0897580" lon="-4.6763820">
        <ele>452.0</ele>
        <time>2022-03-01T15:08:04Z</time>
      </trkpt>
      <trkpt lat="40.0897580" lon="-4.6763820">
        <ele>452.0</ele>
        <time>2022-03-01T15:08:05Z</time>
      </trkpt>
      <trkpt lat="40.0898530" lon="-4.6764500">
        <ele>453.0</ele>
        <time>2022-03-01T15:08:06Z</time>
      </trkpt>
      <trkpt lat="40.0898530" lon="-4.6764500">
        <ele>453.0</ele>
        <time>2022-03-01T15:08:07Z</time>
      </trkpt>
      <trkpt lat="40.0899480" lon="-4.6765200">
        <ele>453.0</ele>
        <time>2022-03-01T15:08:08Z</time>
      </trkpt>
      <trkpt lat="40.0899970" lon="-4.6765550">
        <ele>453.0</ele>
        <time>2022-03-01T15:08:09Z</time>
      </trkpt>
      <trkpt lat="40.0900430" lon="-4.6765920">
        <ele>453.0</ele>
        <time>2022-03-01T15:08:10Z</time>
      </trkpt>
      <trkpt lat="40.0900920" lon="-4.6766300">
        <ele>453.0</ele>
        <time>2022-03-01T15:08:11Z</time>
      </trkpt>
      <trkpt lat="40.0901400" lon="-4.6766650">
        <ele>453.0</ele>
        <time>2022-03-01T15:08:12Z</time>
      </trkpt>
      <trkpt lat="40.0901400" lon="-4.6766650">
        <ele>453.0</ele>
        <time>2022-03-01T15:08:13Z</time>
      </trkpt>
      <trkpt lat="40.0902380" lon="-4.6767380">
        <ele>453.0</ele>
        <time>2022-03-01T15:08:14Z</time>
      </trkpt>
      <trkpt lat="40.0902380" lon="-4.6767380">
        <ele>453.0</ele>
        <time>2022-03-01T15:08:15Z</time>
      </trkpt>
      <trkpt lat="40.0903350" lon="-4.6768080">
        <ele>453.0</ele>
        <time>2022-03-01T15:08:16Z</time>
      </trkpt>
      <trkpt lat="40.0903350" lon="-4.6768080">
        <ele>453.0</ele>
        <time>2022-03-01T15:08:17Z</time>
      </trkpt>
      <trkpt lat="40.0904300" lon="-4.6768800">
        <ele>453.0</ele>
        <time>2022-03-01T15:08:18Z</time>
      </trkpt>
      <trkpt lat="40.0904300" lon="-4.6768800">
        <ele>453.0</ele>
        <time>2022-03-01T15:08:19Z</time>
      </trkpt>
      <trkpt lat="40.0905220" lon="-4.6769480">
        <ele>453.0</ele>
        <time>2022-03-01T15:08:20Z</time>
      </trkpt>
      <trkpt lat="40.0905220" lon="-4.6769480">
        <ele>453.0</ele>
        <time>2022-03-01T15:08:21Z</time>
      </trkpt>
      <trkpt lat="40.0906120" lon="-4.6770120">
        <ele>453.0</ele>
        <time>2022-03-01T15:08:22Z</time>
      </trkpt>
      <trkpt lat="40.0906120" lon="-4.6770120">
        <ele>454.0</ele>
        <time>2022-03-01T15:08:23Z</time>
      </trkpt>
      <trkpt lat="40.0906970" lon="-4.6770820">
        <ele>454.0</ele>
        <time>2022-03-01T15:08:24Z</time>
      </trkpt>
      <trkpt lat="40.0907380" lon="-4.6771170">
        <ele>454.0</ele>
        <time>2022-03-01T15:08:25Z</time>
      </trkpt>
      <trkpt lat="40.0907800" lon="-4.6771500">
        <ele>454.0</ele>
        <time>2022-03-01T15:08:26Z</time>
      </trkpt>
      <trkpt lat="40.0907800" lon="-4.6771500">
        <ele>455.0</ele>
        <time>2022-03-01T15:08:27Z</time>
      </trkpt>
      <trkpt lat="40.0908670" lon="-4.6772080">
        <ele>455.0</ele>
        <time>2022-03-01T15:08:28Z</time>
      </trkpt>
      <trkpt lat="40.0908670" lon="-4.6772080">
        <ele>455.0</ele>
        <time>2022-03-01T15:08:29Z</time>
      </trkpt>
      <trkpt lat="40.0909550" lon="-4.6772730">
        <ele>455.0</ele>
        <time>2022-03-01T15:08:30Z</time>
      </trkpt>
      <trkpt lat="40.0910000" lon="-4.6773070">
        <ele>456.0</ele>
        <time>2022-03-01T15:08:31Z</time>
      </trkpt>
      <trkpt lat="40.0910000" lon="-4.6773070">
        <ele>456.0</ele>
        <time>2022-03-01T15:08:32Z</time>
      </trkpt>
      <trkpt lat="40.0910880" lon="-4.6773700">
        <ele>457.0</ele>
        <time>2022-03-01T15:08:33Z</time>
      </trkpt>
      <trkpt lat="40.0911300" lon="-4.6774020">
        <ele>457.0</ele>
        <time>2022-03-01T15:08:34Z</time>
      </trkpt>
      <trkpt lat="40.0911300" lon="-4.6774020">
        <ele>457.0</ele>
        <time>2022-03-01T15:08:35Z</time>
      </trkpt>
      <trkpt lat="40.0912130" lon="-4.6774620">
        <ele>457.0</ele>
        <time>2022-03-01T15:08:36Z</time>
      </trkpt>
      <trkpt lat="40.0912130" lon="-4.6774620">
        <ele>458.0</ele>
        <time>2022-03-01T15:08:37Z</time>
      </trkpt>
      <trkpt lat="40.0912920" lon="-4.6775220">
        <ele>458.0</ele>
        <time>2022-03-01T15:08:38Z</time>
      </trkpt>
      <trkpt lat="40.0912920" lon="-4.6775220">
        <ele>459.0</ele>
        <time>2022-03-01T15:08:39Z</time>
      </trkpt>
      <trkpt lat="40.0913670" lon="-4.6775770">
        <ele>459.0</ele>
        <time>2022-03-01T15:08:40Z</time>
      </trkpt>
      <trkpt lat="40.0913670" lon="-4.6775770">
        <ele>459.0</ele>
        <time>2022-03-01T15:08:41Z</time>
      </trkpt>
      <trkpt lat="40.0914380" lon="-4.6776300">
        <ele>459.0</ele>
        <time>2022-03-01T15:08:42Z</time>
      </trkpt>
      <trkpt lat="40.0914720" lon="-4.6776570">
        <ele>461.0</ele>
        <time>2022-03-01T15:08:43Z</time>
      </trkpt>
      <trkpt lat="40.0914720" lon="-4.6776570">
        <ele>461.0</ele>
        <time>2022-03-01T15:08:44Z</time>
      </trkpt>
      <trkpt lat="40.0915350" lon="-4.6777020">
        <ele>461.0</ele>
        <time>2022-03-01T15:08:45Z</time>
      </trkpt>
      <trkpt lat="40.0915670" lon="-4.6777230">
        <ele>461.0</ele>
        <time>2022-03-01T15:08:46Z</time>
      </trkpt>
      <trkpt lat="40.0915980" lon="-4.6777480">
        <ele>461.0</ele>
        <time>2022-03-01T15:08:47Z</time>
      </trkpt>
      <trkpt lat="40.0915980" lon="-4.6777480">
        <ele>462.0</ele>
        <time>2022-03-01T15:08:48Z</time>
      </trkpt>
      <trkpt lat="40.0916630" lon="-4.6777980">
        <ele>462.0</ele>
        <time>2022-03-01T15:08:49Z</time>
      </trkpt>
      <trkpt lat="40.0916950" lon="-4.6778220">
        <ele>462.0</ele>
        <time>2022-03-01T15:08:50Z</time>
      </trkpt>
      <trkpt lat="40.0916950" lon="-4.6778220">
        <ele>462.0</ele>
        <time>2022-03-01T15:08:51Z</time>
      </trkpt>
      <trkpt lat="40.0917620" lon="-4.6778700">
        <ele>463.0</ele>
        <time>2022-03-01T15:08:52Z</time>
      </trkpt>
      <trkpt lat="40.0917620" lon="-4.6778700">
        <ele>463.0</ele>
        <time>2022-03-01T15:08:53Z</time>
      </trkpt>
      <trkpt lat="40.0918270" lon="-4.6779220">
        <ele>464.0</ele>
        <time>2022-03-01T15:08:54Z</time>
      </trkpt>
      <trkpt lat="40.0918580" lon="-4.6779450">
        <ele>464.0</ele>
        <time>2022-03-01T15:08:55Z</time>
      </trkpt>
      <trkpt lat="40.0918880" lon="-4.6779680">
        <ele>464.0</ele>
        <time>2022-03-01T15:08:56Z</time>
      </trkpt>
      <trkpt lat="40.0918880" lon="-4.6779680">
        <ele>465.0</ele>
        <time>2022-03-01T15:08:57Z</time>
      </trkpt>
      <trkpt lat="40.0919520" lon="-4.6780150">
        <ele>465.0</ele>
        <time>2022-03-01T15:08:58Z</time>
      </trkpt>
      <trkpt lat="40.0919520" lon="-4.6780150">
        <ele>465.0</ele>
        <time>2022-03-01T15:08:59Z</time>
      </trkpt>
      <trkpt lat="40.0920170" lon="-4.6780620">
        <ele>465.0</ele>
        <time>2022-03-01T15:09:00Z</time>
      </trkpt>
      <trkpt lat="40.0920170" lon="-4.6780620">
        <ele>467.0</ele>
        <time>2022-03-01T15:09:01Z</time>
      </trkpt>
      <trkpt lat="40.0920800" lon="-4.6781080">
        <ele>467.0</ele>
        <time>2022-03-01T15:09:02Z</time>
      </trkpt>
      <trkpt lat="40.0921100" lon="-4.6781330">
        <ele>467.0</ele>
        <time>2022-03-01T15:09:03Z</time>
      </trkpt>
      <trkpt lat="40.0921100" lon="-4.6781330">
        <ele>467.0</ele>
        <time>2022-03-01T15:09:04Z</time>
      </trkpt>
      <trkpt lat="40.0921730" lon="-4.6781770">
        <ele>468.0</ele>
        <time>2022-03-01T15:09:05Z</time>
      </trkpt>
      <trkpt lat="40.0922050" lon="-4.6782000">
        <ele>468.0</ele>
        <time>2022-03-01T15:09:06Z</time>
      </trkpt>
      <trkpt lat="40.0922050" lon="-4.6782000">
        <ele>468.0</ele>
        <time>2022-03-01T15:09:07Z</time>
      </trkpt>
      <trkpt lat="40.0922630" lon="-4.6782450">
        <ele>468.0</ele>
        <time>2022-03-01T15:09:08Z</time>
      </trkpt>
      <trkpt lat="40.0922630" lon="-4.6782450">
        <ele>469.0</ele>
        <time>2022-03-01T15:09:09Z</time>
      </trkpt>
      <trkpt lat="40.0923220" lon="-4.6782900">
        <ele>469.0</ele>
        <time>2022-03-01T15:09:10Z</time>
      </trkpt>
      <trkpt lat="40.0923220" lon="-4.6782900">
        <ele>470.0</ele>
        <time>2022-03-01T15:09:11Z</time>
      </trkpt>
      <trkpt lat="40.0923780" lon="-4.6783300">
        <ele>470.0</ele>
        <time>2022-03-01T15:09:12Z</time>
      </trkpt>
      <trkpt lat="40.0923780" lon="-4.6783300">
        <ele>470.0</ele>
        <time>2022-03-01T15:09:13Z</time>
      </trkpt>
      <trkpt lat="40.0924320" lon="-4.6783680">
        <ele>470.0</ele>
        <time>2022-03-01T15:09:14Z</time>
      </trkpt>
      <trkpt lat="40.0924320" lon="-4.6783680">
        <ele>471.0</ele>
        <time>2022-03-01T15:09:15Z</time>
      </trkpt>
      <trkpt lat="40.0924880" lon="-4.6784120">
        <ele>471.0</ele>
        <time>2022-03-01T15:09:16Z</time>
      </trkpt>
      <trkpt lat="40.0925180" lon="-4.6784320">
        <ele>472.0</ele>
        <time>2022-03-01T15:09:17Z</time>
      </trkpt>
      <trkpt lat="40.0925520" lon="-4.6784550">
        <ele>472.0</ele>
        <time>2022-03-01T15:09:18Z</time>
      </trkpt>
      <trkpt lat="40.0925520" lon="-4.6784550">
        <ele>472.0</ele>
        <time>2022-03-01T15:09:19Z</time>
      </trkpt>
      <trkpt lat="40.0926150" lon="-4.6785020">
        <ele>472.0</ele>
        <time>2022-03-01T15:09:20Z</time>
      </trkpt>
      <trkpt lat="40.0926150" lon="-4.6785020">
        <ele>473.0</ele>
        <time>2022-03-01T15:09:21Z</time>
      </trkpt>
      <trkpt lat="40.0926750" lon="-4.6785480">
        <ele>473.0</ele>
        <time>2022-03-01T15:09:22Z</time>
      </trkpt>
      <trkpt lat="40.0926750" lon="-4.6785480">
        <ele>473.0</ele>
        <time>2022-03-01T15:09:23Z</time>
      </trkpt>
      <trkpt lat="40.0927350" lon="-4.6785920">
        <ele>473.0</ele>
        <time>2022-03-01T15:09:24Z</time>
      </trkpt>
      <trkpt lat="40.0927350" lon="-4.6785920">
        <ele>475.0</ele>
        <time>2022-03-01T15:09:25Z</time>
      </trkpt>
      <trkpt lat="40.0927950" lon="-4.6786350">
        <ele>475.0</ele>
        <time>2022-03-01T15:09:26Z</time>
      </trkpt>
      <trkpt lat="40.0927950" lon="-4.6786350">
        <ele>475.0</ele>
        <time>2022-03-01T15:09:27Z</time>
      </trkpt>
      <trkpt lat="40.0928530" lon="-4.6786780">
        <ele>475.0</ele>
        <time>2022-03-01T15:09:28Z</time>
      </trkpt>
      <trkpt lat="40.0928530" lon="-4.6786780">
        <ele>476.0</ele>
        <time>2022-03-01T15:09:29Z</time>
      </trkpt>
      <trkpt lat="40.0929080" lon="-4.6787170">
        <ele>476.0</ele>
        <time>2022-03-01T15:09:30Z</time>
      </trkpt>
      <trkpt lat="40.0929080" lon="-4.6787170">
        <ele>477.0</ele>
        <time>2022-03-01T15:09:31Z</time>
      </trkpt>
      <trkpt lat="40.0929620" lon="-4.6787550">
        <ele>477.0</ele>
        <time>2022-03-01T15:09:32Z</time>
      </trkpt>
      <trkpt lat="40.0929620" lon="-4.6787550">
        <ele>477.0</ele>
        <time>2022-03-01T15:09:33Z</time>
      </trkpt>
      <trkpt lat="40.0930170" lon="-4.6787980">
        <ele>477.0</ele>
        <time>2022-03-01T15:09:34Z</time>
      </trkpt>
      <trkpt lat="40.0930170" lon="-4.6787980">
        <ele>478.0</ele>
        <time>2022-03-01T15:09:35Z</time>
      </trkpt>
      <trkpt lat="40.0930730" lon="-4.6788420">
        <ele>478.0</ele>
        <time>2022-03-01T15:09:36Z</time>
      </trkpt>
      <trkpt lat="40.0930980" lon="-4.6788670">
        <ele>479.0</ele>
        <time>2022-03-01T15:09:37Z</time>
      </trkpt>
      <trkpt lat="40.0930980" lon="-4.6788670">
        <ele>479.0</ele>
        <time>2022-03-01T15:09:38Z</time>
      </trkpt>
      <trkpt lat="40.0931520" lon="-4.6789030">
        <ele>479.0</ele>
        <time>2022-03-01T15:09:39Z</time>
      </trkpt>
      <trkpt lat="40.0931780" lon="-4.6789200">
        <ele>479.0</ele>
        <time>2022-03-01T15:09:40Z</time>
      </trkpt>
      <trkpt lat="40.0931780" lon="-4.6789200">
        <ele>480.0</ele>
        <time>2022-03-01T15:09:41Z</time>
      </trkpt>
      <trkpt lat="40.0932270" lon="-4.6789550">
        <ele>480.0</ele>
        <time>2022-03-01T15:09:42Z</time>
      </trkpt>
      <trkpt lat="40.0932270" lon="-4.6789550">
        <ele>480.0</ele>
        <time>2022-03-01T15:09:43Z</time>
      </trkpt>
      <trkpt lat="40.0932770" lon="-4.6789970">
        <ele>480.0</ele>
        <time>2022-03-01T15:09:44Z</time>
      </trkpt>
      <trkpt lat="40.0933030" lon="-4.6790170">
        <ele>480.0</ele>
        <time>2022-03-01T15:09:45Z</time>
      </trkpt>
      <trkpt lat="40.0933030" lon="-4.6790170">
        <ele>480.0</ele>
        <time>2022-03-01T15:09:46Z</time>
      </trkpt>
      <trkpt lat="40.0933550" lon="-4.6790600">
        <ele>481.0</ele>
        <time>2022-03-01T15:09:47Z</time>
      </trkpt>
      <trkpt lat="40.0933830" lon="-4.6790850">
        <ele>481.0</ele>
        <time>2022-03-01T15:09:48Z</time>
      </trkpt>
      <trkpt lat="40.0933830" lon="-4.6790850">
        <ele>481.0</ele>
        <time>2022-03-01T15:09:49Z</time>
      </trkpt>
      <trkpt lat="40.0934380" lon="-4.6791280">
        <ele>482.0</ele>
        <time>2022-03-01T15:09:50Z</time>
      </trkpt>
      <trkpt lat="40.0934670" lon="-4.6791480">
        <ele>482.0</ele>
        <time>2022-03-01T15:09:51Z</time>
      </trkpt>
      <trkpt lat="40.0934670" lon="-4.6791480">
        <ele>482.0</ele>
        <time>2022-03-01T15:09:52Z</time>
      </trkpt>
      <trkpt lat="40.0935200" lon="-4.6791900">
        <ele>482.0</ele>
        <time>2022-03-01T15:09:53Z</time>
      </trkpt>
      <trkpt lat="40.0935200" lon="-4.6791900">
        <ele>483.0</ele>
        <time>2022-03-01T15:09:54Z</time>
      </trkpt>
      <trkpt lat="40.0935730" lon="-4.6792320">
        <ele>483.0</ele>
        <time>2022-03-01T15:09:55Z</time>
      </trkpt>
      <trkpt lat="40.0935730" lon="-4.6792320">
        <ele>483.0</ele>
        <time>2022-03-01T15:09:56Z</time>
      </trkpt>
      <trkpt lat="40.0936280" lon="-4.6792680">
        <ele>483.0</ele>
        <time>2022-03-01T15:09:57Z</time>
      </trkpt>
      <trkpt lat="40.0936570" lon="-4.6792870">
        <ele>485.0</ele>
        <time>2022-03-01T15:09:58Z</time>
      </trkpt>
      <trkpt lat="40.0936570" lon="-4.6792870">
        <ele>485.0</ele>
        <time>2022-03-01T15:09:59Z</time>
      </trkpt>
      <trkpt lat="40.0937150" lon="-4.6793220">
        <ele>485.0</ele>
        <time>2022-03-01T15:10:00Z</time>
      </trkpt>
      <trkpt lat="40.0937430" lon="-4.6793380">
        <ele>485.0</ele>
        <time>2022-03-01T15:10:01Z</time>
      </trkpt>
      <trkpt lat="40.0937720" lon="-4.6793570">
        <ele>486.0</ele>
        <time>2022-03-01T15:10:02Z</time>
      </trkpt>
      <trkpt lat="40.0937720" lon="-4.6793570">
        <ele>486.0</ele>
        <time>2022-03-01T15:10:03Z</time>
      </trkpt>
      <trkpt lat="40.0938270" lon="-4.6793900">
        <ele>486.0</ele>
        <time>2022-03-01T15:10:04Z</time>
      </trkpt>
      <trkpt lat="40.0938530" lon="-4.6794050">
        <ele>486.0</ele>
        <time>2022-03-01T15:10:05Z</time>
      </trkpt>
      <trkpt lat="40.0938530" lon="-4.6794050">
        <ele>487.0</ele>
        <time>2022-03-01T15:10:06Z</time>
      </trkpt>
      <trkpt lat="40.0939070" lon="-4.6794330">
        <ele>487.0</ele>
        <time>2022-03-01T15:10:07Z</time>
      </trkpt>
      <trkpt lat="40.0939070" lon="-4.6794330">
        <ele>488.0</ele>
        <time>2022-03-01T15:10:08Z</time>
      </trkpt>
      <trkpt lat="40.0939620" lon="-4.6794600">
        <ele>488.0</ele>
        <time>2022-03-01T15:10:09Z</time>
      </trkpt>
      <trkpt lat="40.0939880" lon="-4.6794730">
        <ele>488.0</ele>
        <time>2022-03-01T15:10:10Z</time>
      </trkpt>
      <trkpt lat="40.0939880" lon="-4.6794730">
        <ele>488.0</ele>
        <time>2022-03-01T15:10:11Z</time>
      </trkpt>
      <trkpt lat="40.0940430" lon="-4.6794970">
        <ele>489.0</ele>
        <time>2022-03-01T15:10:12Z</time>
      </trkpt>
      <trkpt lat="40.0940430" lon="-4.6794970">
        <ele>489.0</ele>
        <time>2022-03-01T15:10:13Z</time>
      </trkpt>
      <trkpt lat="40.0941000" lon="-4.6795180">
        <ele>489.0</ele>
        <time>2022-03-01T15:10:14Z</time>
      </trkpt>
      <trkpt lat="40.0941270" lon="-4.6795300">
        <ele>489.0</ele>
        <time>2022-03-01T15:10:15Z</time>
      </trkpt>
      <trkpt lat="40.0941550" lon="-4.6795400">
        <ele>490.0</ele>
        <time>2022-03-01T15:10:16Z</time>
      </trkpt>
      <trkpt lat="40.0941550" lon="-4.6795400">
        <ele>490.0</ele>
        <time>2022-03-01T15:10:17Z</time>
      </trkpt>
      <trkpt lat="40.0942120" lon="-4.6795580">
        <ele>490.0</ele>
        <time>2022-03-01T15:10:18Z</time>
      </trkpt>
      <trkpt lat="40.0942120" lon="-4.6795580">
        <ele>491.0</ele>
        <time>2022-03-01T15:10:19Z</time>
      </trkpt>
      <trkpt lat="40.0942670" lon="-4.6795730">
        <ele>491.0</ele>
        <time>2022-03-01T15:10:20Z</time>
      </trkpt>
      <trkpt lat="40.0942900" lon="-4.6795780">
        <ele>491.0</ele>
        <time>2022-03-01T15:10:21Z</time>
      </trkpt>
      <trkpt lat="40.0942900" lon="-4.6795780">
        <ele>491.0</ele>
        <time>2022-03-01T15:10:22Z</time>
      </trkpt>
      <trkpt lat="40.0943380" lon="-4.6795920">
        <ele>493.0</ele>
        <time>2022-03-01T15:10:23Z</time>
      </trkpt>
      <trkpt lat="40.0943380" lon="-4.6795920">
        <ele>493.0</ele>
        <time>2022-03-01T15:10:24Z</time>
      </trkpt>
      <trkpt lat="40.0943870" lon="-4.6795970">
        <ele>493.0</ele>
        <time>2022-03-01T15:10:25Z</time>
      </trkpt>
      <trkpt lat="40.0944120" lon="-4.6796000">
        <ele>493.0</ele>
        <time>2022-03-01T15:10:26Z</time>
      </trkpt>
      <trkpt lat="40.0944120" lon="-4.6796000">
        <ele>494.0</ele>
        <time>2022-03-01T15:10:27Z</time>
      </trkpt>
      <trkpt lat="40.0944650" lon="-4.6796100">
        <ele>494.0</ele>
        <time>2022-03-01T15:10:28Z</time>
      </trkpt>
      <trkpt lat="40.0944650" lon="-4.6796100">
        <ele>494.0</ele>
        <time>2022-03-01T15:10:29Z</time>
      </trkpt>
      <trkpt lat="40.0945170" lon="-4.6796100">
        <ele>494.0</ele>
        <time>2022-03-01T15:10:30Z</time>
      </trkpt>
      <trkpt lat="40.0945170" lon="-4.6796100">
        <ele>495.0</ele>
        <time>2022-03-01T15:10:31Z</time>
      </trkpt>
      <trkpt lat="40.0945720" lon="-4.6796200">
        <ele>495.0</ele>
        <time>2022-03-01T15:10:32Z</time>
      </trkpt>
      <trkpt lat="40.0945720" lon="-4.6796200">
        <ele>496.0</ele>
        <time>2022-03-01T15:10:33Z</time>
      </trkpt>
      <trkpt lat="40.0946250" lon="-4.6796270">
        <ele>496.0</ele>
        <time>2022-03-01T15:10:34Z</time>
      </trkpt>
      <trkpt lat="40.0946250" lon="-4.6796270">
        <ele>496.0</ele>
        <time>2022-03-01T15:10:35Z</time>
      </trkpt>
      <trkpt lat="40.0946820" lon="-4.6796300">
        <ele>496.0</ele>
        <time>2022-03-01T15:10:36Z</time>
      </trkpt>
      <trkpt lat="40.0947100" lon="-4.6796320">
        <ele>497.0</ele>
        <time>2022-03-01T15:10:37Z</time>
      </trkpt>
      <trkpt lat="40.0947100" lon="-4.6796320">
        <ele>497.0</ele>
        <time>2022-03-01T15:10:38Z</time>
      </trkpt>
      <trkpt lat="40.0947700" lon="-4.6796270">
        <ele>498.0</ele>
        <time>2022-03-01T15:10:39Z</time>
      </trkpt>
      <trkpt lat="40.0947700" lon="-4.6796270">
        <ele>499.0</ele>
        <time>2022-03-01T15:10:40Z</time>
      </trkpt>
      <trkpt lat="40.0948270" lon="-4.6796230">
        <ele>499.0</ele>
        <time>2022-03-01T15:10:41Z</time>
      </trkpt>
      <trkpt lat="40.0948270" lon="-4.6796230">
        <ele>499.0</ele>
        <time>2022-03-01T15:10:42Z</time>
      </trkpt>
      <trkpt lat="40.0948850" lon="-4.6796180">
        <ele>499.0</ele>
        <time>2022-03-01T15:10:43Z</time>
      </trkpt>
      <trkpt lat="40.0949130" lon="-4.6796170">
        <ele>499.0</ele>
        <time>2022-03-01T15:10:44Z</time>
      </trkpt>
      <trkpt lat="40.0949130" lon="-4.6796170">
        <ele>499.0</ele>
        <time>2022-03-01T15:10:45Z</time>
      </trkpt>
      <trkpt lat="40.0949650" lon="-4.6796080">
        <ele>501.0</ele>
        <time>2022-03-01T15:10:46Z</time>
      </trkpt>
      <trkpt lat="40.0949650" lon="-4.6796080">
        <ele>501.0</ele>
        <time>2022-03-01T15:10:47Z</time>
      </trkpt>
      <trkpt lat="40.0950200" lon="-4.6796020">
        <ele>501.0</ele>
        <time>2022-03-01T15:10:48Z</time>
      </trkpt>
      <trkpt lat="40.0950480" lon="-4.6795980">
        <ele>501.0</ele>
        <time>2022-03-01T15:10:49Z</time>
      </trkpt>
      <trkpt lat="40.0950480" lon="-4.6795980">
        <ele>502.0</ele>
        <time>2022-03-01T15:10:50Z</time>
      </trkpt>
      <trkpt lat="40.0951030" lon="-4.6795830">
        <ele>502.0</ele>
        <time>2022-03-01T15:10:51Z</time>
      </trkpt>
      <trkpt lat="40.0951030" lon="-4.6795830">
        <ele>502.0</ele>
        <time>2022-03-01T15:10:52Z</time>
      </trkpt>
      <trkpt lat="40.0951570" lon="-4.6795670">
        <ele>502.0</ele>
        <time>2022-03-01T15:10:53Z</time>
      </trkpt>
      <trkpt lat="40.0951570" lon="-4.6795670">
        <ele>503.0</ele>
        <time>2022-03-01T15:10:54Z</time>
      </trkpt>
      <trkpt lat="40.0952130" lon="-4.6795470">
        <ele>503.0</ele>
        <time>2022-03-01T15:10:55Z</time>
      </trkpt>
      <trkpt lat="40.0952130" lon="-4.6795470">
        <ele>504.0</ele>
        <time>2022-03-01T15:10:56Z</time>
      </trkpt>
      <trkpt lat="40.0952700" lon="-4.6795270">
        <ele>504.0</ele>
        <time>2022-03-01T15:10:57Z</time>
      </trkpt>
      <trkpt lat="40.0953000" lon="-4.6795180">
        <ele>505.0</ele>
        <time>2022-03-01T15:10:58Z</time>
      </trkpt>
      <trkpt lat="40.0953300" lon="-4.6795080">
        <ele>505.0</ele>
        <time>2022-03-01T15:10:59Z</time>
      </trkpt>
      <trkpt lat="40.0953300" lon="-4.6795080">
        <ele>505.0</ele>
        <time>2022-03-01T15:11:00Z</time>
      </trkpt>
      <trkpt lat="40.0953880" lon="-4.6794870">
        <ele>505.0</ele>
        <time>2022-03-01T15:11:01Z</time>
      </trkpt>
      <trkpt lat="40.0954170" lon="-4.6794770">
        <ele>506.0</ele>
        <time>2022-03-01T15:11:02Z</time>
      </trkpt>
      <trkpt lat="40.0954170" lon="-4.6794770">
        <ele>506.0</ele>
        <time>2022-03-01T15:11:03Z</time>
      </trkpt>
      <trkpt lat="40.0954730" lon="-4.6794480">
        <ele>507.0</ele>
        <time>2022-03-01T15:11:04Z</time>
      </trkpt>
      <trkpt lat="40.0954730" lon="-4.6794480">
        <ele>507.0</ele>
        <time>2022-03-01T15:11:05Z</time>
      </trkpt>
      <trkpt lat="40.0955300" lon="-4.6794180">
        <ele>508.0</ele>
        <time>2022-03-01T15:11:06Z</time>
      </trkpt>
      <trkpt lat="40.0955570" lon="-4.6794030">
        <ele>508.0</ele>
        <time>2022-03-01T15:11:07Z</time>
      </trkpt>
      <trkpt lat="40.0955570" lon="-4.6794030">
        <ele>508.0</ele>
        <time>2022-03-01T15:11:08Z</time>
      </trkpt>
      <trkpt lat="40.0956080" lon="-4.6793630">
        <ele>508.0</ele>
        <time>2022-03-01T15:11:09Z</time>
      </trkpt>
      <trkpt lat="40.0956080" lon="-4.6793630">
        <ele>509.0</ele>
        <time>2022-03-01T15:11:10Z</time>
      </trkpt>
      <trkpt lat="40.0956580" lon="-4.6793200">
        <ele>509.0</ele>
        <time>2022-03-01T15:11:11Z</time>
      </trkpt>
      <trkpt lat="40.0956580" lon="-4.6793200">
        <ele>509.0</ele>
        <time>2022-03-01T15:11:12Z</time>
      </trkpt>
      <trkpt lat="40.0957080" lon="-4.6792730">
        <ele>509.0</ele>
        <time>2022-03-01T15:11:13Z</time>
      </trkpt>
      <trkpt lat="40.0957080" lon="-4.6792730">
        <ele>509.0</ele>
        <time>2022-03-01T15:11:14Z</time>
      </trkpt>
      <trkpt lat="40.0957530" lon="-4.6792220">
        <ele>509.0</ele>
        <time>2022-03-01T15:11:15Z</time>
      </trkpt>
      <trkpt lat="40.0957530" lon="-4.6792220">
        <ele>510.0</ele>
        <time>2022-03-01T15:11:16Z</time>
      </trkpt>
      <trkpt lat="40.0957970" lon="-4.6791580">
        <ele>510.0</ele>
        <time>2022-03-01T15:11:17Z</time>
      </trkpt>
      <trkpt lat="40.0958180" lon="-4.6791270">
        <ele>511.0</ele>
        <time>2022-03-01T15:11:18Z</time>
      </trkpt>
      <trkpt lat="40.0958400" lon="-4.6790950">
        <ele>511.0</ele>
        <time>2022-03-01T15:11:19Z</time>
      </trkpt>
      <trkpt lat="40.0958400" lon="-4.6790950">
        <ele>511.0</ele>
        <time>2022-03-01T15:11:20Z</time>
      </trkpt>
      <trkpt lat="40.0958780" lon="-4.6790280">
        <ele>512.0</ele>
        <time>2022-03-01T15:11:21Z</time>
      </trkpt>
      <trkpt lat="40.0959000" lon="-4.6789980">
        <ele>512.0</ele>
        <time>2022-03-01T15:11:22Z</time>
      </trkpt>
      <trkpt lat="40.0959200" lon="-4.6789700">
        <ele>512.0</ele>
        <time>2022-03-01T15:11:23Z</time>
      </trkpt>
      <trkpt lat="40.0959200" lon="-4.6789700">
        <ele>512.0</ele>
        <time>2022-03-01T15:11:24Z</time>
      </trkpt>
      <trkpt lat="40.0959600" lon="-4.6789120">
        <ele>513.0</ele>
        <time>2022-03-01T15:11:25Z</time>
      </trkpt>
      <trkpt lat="40.0959600" lon="-4.6789120">
        <ele>513.0</ele>
        <time>2022-03-01T15:11:26Z</time>
      </trkpt>
      <trkpt lat="40.0960000" lon="-4.6788520">
        <ele>513.0</ele>
        <time>2022-03-01T15:11:27Z</time>
      </trkpt>
      <trkpt lat="40.0960000" lon="-4.6788520">
        <ele>513.0</ele>
        <time>2022-03-01T15:11:28Z</time>
      </trkpt>
      <trkpt lat="40.0960430" lon="-4.6787900">
        <ele>514.0</ele>
        <time>2022-03-01T15:11:29Z</time>
      </trkpt>
      <trkpt lat="40.0960430" lon="-4.6787900">
        <ele>514.0</ele>
        <time>2022-03-01T15:11:30Z</time>
      </trkpt>
      <trkpt lat="40.0960820" lon="-4.6787220">
        <ele>514.0</ele>
        <time>2022-03-01T15:11:31Z</time>
      </trkpt>
      <trkpt lat="40.0961020" lon="-4.6786870">
        <ele>515.0</ele>
        <time>2022-03-01T15:11:32Z</time>
      </trkpt>
      <trkpt lat="40.0961170" lon="-4.6786530">
        <ele>515.0</ele>
        <time>2022-03-01T15:11:33Z</time>
      </trkpt>
      <trkpt lat="40.0961170" lon="-4.6786530">
        <ele>515.0</ele>
        <time>2022-03-01T15:11:34Z</time>
      </trkpt>
      <trkpt lat="40.0961520" lon="-4.6785850">
        <ele>515.0</ele>
        <time>2022-03-01T15:11:35Z</time>
      </trkpt>
      <trkpt lat="40.0961520" lon="-4.6785850">
        <ele>516.0</ele>
        <time>2022-03-01T15:11:36Z</time>
      </trkpt>
      <trkpt lat="40.0961930" lon="-4.6785220">
        <ele>516.0</ele>
        <time>2022-03-01T15:11:37Z</time>
      </trkpt>
      <trkpt lat="40.0962170" lon="-4.6784900">
        <ele>516.0</ele>
        <time>2022-03-01T15:11:38Z</time>
      </trkpt>
      <trkpt lat="40.0962170" lon="-4.6784900">
        <ele>516.0</ele>
        <time>2022-03-01T15:11:39Z</time>
      </trkpt>
      <trkpt lat="40.0962600" lon="-4.6784250">
        <ele>517.0</ele>
        <time>2022-03-01T15:11:40Z</time>
      </trkpt>
      <trkpt lat="40.0962600" lon="-4.6784250">
        <ele>517.0</ele>
        <time>2022-03-01T15:11:41Z</time>
      </trkpt>
      <trkpt lat="40.0963080" lon="-4.6783630">
        <ele>518.0</ele>
        <time>2022-03-01T15:11:42Z</time>
      </trkpt>
      <trkpt lat="40.0963400" lon="-4.6783300">
        <ele>518.0</ele>
        <time>2022-03-01T15:11:43Z</time>
      </trkpt>
      <trkpt lat="40.0963400" lon="-4.6783300">
        <ele>518.0</ele>
        <time>2022-03-01T15:11:44Z</time>
      </trkpt>
      <trkpt lat="40.0963900" lon="-4.6782620">
        <ele>518.0</ele>
        <time>2022-03-01T15:11:45Z</time>
      </trkpt>
      <trkpt lat="40.0964130" lon="-4.6782320">
        <ele>518.0</ele>
        <time>2022-03-01T15:11:46Z</time>
      </trkpt>
      <trkpt lat="40.0964400" lon="-4.6782030">
        <ele>518.0</ele>
        <time>2022-03-01T15:11:47Z</time>
      </trkpt>
      <trkpt lat="40.0964400" lon="-4.6782030">
        <ele>518.0</ele>
        <time>2022-03-01T15:11:48Z</time>
      </trkpt>
      <trkpt lat="40.0964950" lon="-4.6781400">
        <ele>518.0</ele>
        <time>2022-03-01T15:11:49Z</time>
      </trkpt>
      <trkpt lat="40.0964950" lon="-4.6781400">
        <ele>519.0</ele>
        <time>2022-03-01T15:11:50Z</time>
      </trkpt>
      <trkpt lat="40.0965500" lon="-4.6780770">
        <ele>519.0</ele>
        <time>2022-03-01T15:11:51Z</time>
      </trkpt>
      <trkpt lat="40.0965800" lon="-4.6780470">
        <ele>519.0</ele>
        <time>2022-03-01T15:11:52Z</time>
      </trkpt>
      <trkpt lat="40.0965800" lon="-4.6780470">
        <ele>519.0</ele>
        <time>2022-03-01T15:11:53Z</time>
      </trkpt>
      <trkpt lat="40.0966380" lon="-4.6779920">
        <ele>520.0</ele>
        <time>2022-03-01T15:11:54Z</time>
      </trkpt>
      <trkpt lat="40.0966380" lon="-4.6779920">
        <ele>520.0</ele>
        <time>2022-03-01T15:11:55Z</time>
      </trkpt>
      <trkpt lat="40.0966980" lon="-4.6779400">
        <ele>520.0</ele>
        <time>2022-03-01T15:11:56Z</time>
      </trkpt>
      <trkpt lat="40.0966980" lon="-4.6779400">
        <ele>520.0</ele>
        <time>2022-03-01T15:11:57Z</time>
      </trkpt>
      <trkpt lat="40.0967630" lon="-4.6778950">
        <ele>521.0</ele>
        <time>2022-03-01T15:11:58Z</time>
      </trkpt>
      <trkpt lat="40.0967970" lon="-4.6778750">
        <ele>521.0</ele>
        <time>2022-03-01T15:11:59Z</time>
      </trkpt>
      <trkpt lat="40.0967970" lon="-4.6778750">
        <ele>521.0</ele>
        <time>2022-03-01T15:12:00Z</time>
      </trkpt>
      <trkpt lat="40.0968670" lon="-4.6778470">
        <ele>521.0</ele>
        <time>2022-03-01T15:12:01Z</time>
      </trkpt>
      <trkpt lat="40.0968670" lon="-4.6778470">
        <ele>522.0</ele>
        <time>2022-03-01T15:12:02Z</time>
      </trkpt>
      <trkpt lat="40.0969370" lon="-4.6778400">
        <ele>522.0</ele>
        <time>2022-03-01T15:12:03Z</time>
      </trkpt>
      <trkpt lat="40.0969370" lon="-4.6778400">
        <ele>522.0</ele>
        <time>2022-03-01T15:12:04Z</time>
      </trkpt>
      <trkpt lat="40.0970120" lon="-4.6778570">
        <ele>522.0</ele>
        <time>2022-03-01T15:12:05Z</time>
      </trkpt>
      <trkpt lat="40.0970480" lon="-4.6778700">
        <ele>523.0</ele>
        <time>2022-03-01T15:12:06Z</time>
      </trkpt>
      <trkpt lat="40.0970480" lon="-4.6778700">
        <ele>523.0</ele>
        <time>2022-03-01T15:12:07Z</time>
      </trkpt>
      <trkpt lat="40.0971200" lon="-4.6779150">
        <ele>523.0</ele>
        <time>2022-03-01T15:12:08Z</time>
      </trkpt>
      <trkpt lat="40.0971520" lon="-4.6779480">
        <ele>523.0</ele>
        <time>2022-03-01T15:12:09Z</time>
      </trkpt>
      <trkpt lat="40.0971520" lon="-4.6779480">
        <ele>523.0</ele>
        <time>2022-03-01T15:12:10Z</time>
      </trkpt>
      <trkpt lat="40.0972130" lon="-4.6780130">
        <ele>523.0</ele>
        <time>2022-03-01T15:12:11Z</time>
      </trkpt>
      <trkpt lat="40.0972420" lon="-4.6780470">
        <ele>523.0</ele>
        <time>2022-03-01T15:12:12Z</time>
      </trkpt>
      <trkpt lat="40.0972420" lon="-4.6780470">
        <ele>523.0</ele>
        <time>2022-03-01T15:12:13Z</time>
      </trkpt>
      <trkpt lat="40.0972830" lon="-4.6781250">
        <ele>524.0</ele>
        <time>2022-03-01T15:12:14Z</time>
      </trkpt>
      <trkpt lat="40.0972980" lon="-4.6781680">
        <ele>524.0</ele>
        <time>2022-03-01T15:12:15Z</time>
      </trkpt>
      <trkpt lat="40.0972980" lon="-4.6781680">
        <ele>524.0</ele>
        <time>2022-03-01T15:12:16Z</time>
      </trkpt>
      <trkpt lat="40.0973230" lon="-4.6782620">
        <ele>524.0</ele>
        <time>2022-03-01T15:12:17Z</time>
      </trkpt>
      <trkpt lat="40.0973230" lon="-4.6782620">
        <ele>525.0</ele>
        <time>2022-03-01T15:12:18Z</time>
      </trkpt>
      <trkpt lat="40.0973430" lon="-4.6783550">
        <ele>525.0</ele>
        <time>2022-03-01T15:12:19Z</time>
      </trkpt>
      <trkpt lat="40.0973430" lon="-4.6783550">
        <ele>525.0</ele>
        <time>2022-03-01T15:12:20Z</time>
      </trkpt>
      <trkpt lat="40.0973530" lon="-4.6784570">
        <ele>525.0</ele>
        <time>2022-03-01T15:12:21Z</time>
      </trkpt>
      <trkpt lat="40.0973600" lon="-4.6785100">
        <ele>526.0</ele>
        <time>2022-03-01T15:12:22Z</time>
      </trkpt>
      <trkpt lat="40.0973670" lon="-4.6785630">
        <ele>526.0</ele>
        <time>2022-03-01T15:12:23Z</time>
      </trkpt>
      <trkpt lat="40.0973670" lon="-4.6785630">
        <ele>526.0</ele>
        <time>2022-03-01T15:12:24Z</time>
      </trkpt>
      <trkpt lat="40.0973780" lon="-4.6786730">
        <ele>526.0</ele>
        <time>2022-03-01T15:12:25Z</time>
      </trkpt>
      <trkpt lat="40.0973780" lon="-4.6786730">
        <ele>526.0</ele>
        <time>2022-03-01T15:12:26Z</time>
      </trkpt>
      <trkpt lat="40.0973870" lon="-4.6787850">
        <ele>526.0</ele>
        <time>2022-03-01T15:12:27Z</time>
      </trkpt>
      <trkpt lat="40.0973920" lon="-4.6788400">
        <ele>526.0</ele>
        <time>2022-03-01T15:12:28Z</time>
      </trkpt>
      <trkpt lat="40.0973920" lon="-4.6788400">
        <ele>526.0</ele>
        <time>2022-03-01T15:12:29Z</time>
      </trkpt>
      <trkpt lat="40.0974020" lon="-4.6789480">
        <ele>526.0</ele>
        <time>2022-03-01T15:12:30Z</time>
      </trkpt>
      <trkpt lat="40.0974080" lon="-4.6790020">
        <ele>526.0</ele>
        <time>2022-03-01T15:12:31Z</time>
      </trkpt>
      <trkpt lat="40.0974080" lon="-4.6790020">
        <ele>526.0</ele>
        <time>2022-03-01T15:12:32Z</time>
      </trkpt>
      <trkpt lat="40.0974180" lon="-4.6790950">
        <ele>527.0</ele>
        <time>2022-03-01T15:12:33Z</time>
      </trkpt>
      <trkpt lat="40.0974180" lon="-4.6790950">
        <ele>527.0</ele>
        <time>2022-03-01T15:12:34Z</time>
      </trkpt>
      <trkpt lat="40.0974270" lon="-4.6791920">
        <ele>527.0</ele>
        <time>2022-03-01T15:12:35Z</time>
      </trkpt>
      <trkpt lat="40.0974270" lon="-4.6791920">
        <ele>527.0</ele>
        <time>2022-03-01T15:12:36Z</time>
      </trkpt>
      <trkpt lat="40.0974350" lon="-4.6792970">
        <ele>528.0</ele>
        <time>2022-03-01T15:12:37Z</time>
      </trkpt>
      <trkpt lat="40.0974380" lon="-4.6793500">
        <ele>528.0</ele>
        <time>2022-03-01T15:12:38Z</time>
      </trkpt>
      <trkpt lat="40.0974380" lon="-4.6793500">
        <ele>528.0</ele>
        <time>2022-03-01T15:12:39Z</time>
      </trkpt>
      <trkpt lat="40.0974450" lon="-4.6794580">
        <ele>528.0</ele>
        <time>2022-03-01T15:12:40Z</time>
      </trkpt>
      <trkpt lat="40.0974450" lon="-4.6794580">
        <ele>529.0</ele>
        <time>2022-03-01T15:12:41Z</time>
      </trkpt>
      <trkpt lat="40.0974480" lon="-4.6795700">
        <ele>529.0</ele>
        <time>2022-03-01T15:12:42Z</time>
      </trkpt>
      <trkpt lat="40.0974480" lon="-4.6796250">
        <ele>529.0</ele>
        <time>2022-03-01T15:12:43Z</time>
      </trkpt>
      <trkpt lat="40.0974480" lon="-4.6796250">
        <ele>529.0</ele>
        <time>2022-03-01T15:12:44Z</time>
      </trkpt>
      <trkpt lat="40.0974500" lon="-4.6797380">
        <ele>529.0</ele>
        <time>2022-03-01T15:12:45Z</time>
      </trkpt>
      <trkpt lat="40.0974520" lon="-4.6797970">
        <ele>529.0</ele>
        <time>2022-03-01T15:12:46Z</time>
      </trkpt>
      <trkpt lat="40.0974520" lon="-4.6797970">
        <ele>529.0</ele>
        <time>2022-03-01T15:12:47Z</time>
      </trkpt>
      <trkpt lat="40.0974550" lon="-4.6799070">
        <ele>530.0</ele>
        <time>2022-03-01T15:12:48Z</time>
      </trkpt>
      <trkpt lat="40.0974550" lon="-4.6799620">
        <ele>530.0</ele>
        <time>2022-03-01T15:12:49Z</time>
      </trkpt>
      <trkpt lat="40.0974520" lon="-4.6800220">
        <ele>531.0</ele>
        <time>2022-03-01T15:12:50Z</time>
      </trkpt>
      <trkpt lat="40.0974520" lon="-4.6800750">
        <ele>531.0</ele>
        <time>2022-03-01T15:12:51Z</time>
      </trkpt>
      <trkpt lat="40.0974520" lon="-4.6800750">
        <ele>532.0</ele>
        <time>2022-03-01T15:12:52Z</time>
      </trkpt>
      <trkpt lat="40.0974500" lon="-4.6801880">
        <ele>532.0</ele>
        <time>2022-03-01T15:12:53Z</time>
      </trkpt>
      <trkpt lat="40.0974500" lon="-4.6801880">
        <ele>532.0</ele>
        <time>2022-03-01T15:12:54Z</time>
      </trkpt>
      <trkpt lat="40.0974470" lon="-4.6803020">
        <ele>532.0</ele>
        <time>2022-03-01T15:12:55Z</time>
      </trkpt>
      <trkpt lat="40.0974470" lon="-4.6803580">
        <ele>533.0</ele>
        <time>2022-03-01T15:12:56Z</time>
      </trkpt>
      <trkpt lat="40.0974470" lon="-4.6803580">
        <ele>533.0</ele>
        <time>2022-03-01T15:12:57Z</time>
      </trkpt>
      <trkpt lat="40.0974420" lon="-4.6804700">
        <ele>533.0</ele>
        <time>2022-03-01T15:12:58Z</time>
      </trkpt>
      <trkpt lat="40.0974420" lon="-4.6804700">
        <ele>533.0</ele>
        <time>2022-03-01T15:12:59Z</time>
      </trkpt>
      <trkpt lat="40.0974370" lon="-4.6805780">
        <ele>533.0</ele>
        <time>2022-03-01T15:13:00Z</time>
      </trkpt>
      <trkpt lat="40.0974370" lon="-4.6805780">
        <ele>533.0</ele>
        <time>2022-03-01T15:13:01Z</time>
      </trkpt>
      <trkpt lat="40.0974320" lon="-4.6806880">
        <ele>533.0</ele>
        <time>2022-03-01T15:13:02Z</time>
      </trkpt>
      <trkpt lat="40.0974320" lon="-4.6806880">
        <ele>533.0</ele>
        <time>2022-03-01T15:13:03Z</time>
      </trkpt>
      <trkpt lat="40.0974200" lon="-4.6807930">
        <ele>534.0</ele>
        <time>2022-03-01T15:13:04Z</time>
      </trkpt>
      <trkpt lat="40.0974130" lon="-4.6808480">
        <ele>534.0</ele>
        <time>2022-03-01T15:13:05Z</time>
      </trkpt>
      <trkpt lat="40.0974130" lon="-4.6808480">
        <ele>534.0</ele>
        <time>2022-03-01T15:13:06Z</time>
      </trkpt>
      <trkpt lat="40.0974030" lon="-4.6809580">
        <ele>534.0</ele>
        <time>2022-03-01T15:13:07Z</time>
      </trkpt>
      <trkpt lat="40.0974030" lon="-4.6809580">
        <ele>535.0</ele>
        <time>2022-03-01T15:13:08Z</time>
      </trkpt>
      <trkpt lat="40.0973920" lon="-4.6810600">
        <ele>535.0</ele>
        <time>2022-03-01T15:13:09Z</time>
      </trkpt>
      <trkpt lat="40.0973920" lon="-4.6810600">
        <ele>535.0</ele>
        <time>2022-03-01T15:13:10Z</time>
      </trkpt>
      <trkpt lat="40.0973780" lon="-4.6811680">
        <ele>535.0</ele>
        <time>2022-03-01T15:13:11Z</time>
      </trkpt>
      <trkpt lat="40.0973750" lon="-4.6812170">
        <ele>536.0</ele>
        <time>2022-03-01T15:13:12Z</time>
      </trkpt>
      <trkpt lat="40.0973750" lon="-4.6812170">
        <ele>536.0</ele>
        <time>2022-03-01T15:13:13Z</time>
      </trkpt>
      <trkpt lat="40.0973650" lon="-4.6813170">
        <ele>536.0</ele>
        <time>2022-03-01T15:13:14Z</time>
      </trkpt>
      <trkpt lat="40.0973650" lon="-4.6813170">
        <ele>536.0</ele>
        <time>2022-03-01T15:13:15Z</time>
      </trkpt>
      <trkpt lat="40.0973550" lon="-4.6814220">
        <ele>537.0</ele>
        <time>2022-03-01T15:13:16Z</time>
      </trkpt>
      <trkpt lat="40.0973550" lon="-4.6814220">
        <ele>537.0</ele>
        <time>2022-03-01T15:13:17Z</time>
      </trkpt>
      <trkpt lat="40.0973500" lon="-4.6815320">
        <ele>537.0</ele>
        <time>2022-03-01T15:13:18Z</time>
      </trkpt>
      <trkpt lat="40.0973500" lon="-4.6815320">
        <ele>538.0</ele>
        <time>2022-03-01T15:13:19Z</time>
      </trkpt>
      <trkpt lat="40.0973480" lon="-4.6816380">
        <ele>538.0</ele>
        <time>2022-03-01T15:13:20Z</time>
      </trkpt>
      <trkpt lat="40.0973480" lon="-4.6816380">
        <ele>538.0</ele>
        <time>2022-03-01T15:13:21Z</time>
      </trkpt>
      <trkpt lat="40.0973570" lon="-4.6817470">
        <ele>538.0</ele>
        <time>2022-03-01T15:13:22Z</time>
      </trkpt>
      <trkpt lat="40.0973570" lon="-4.6817470">
        <ele>538.0</ele>
        <time>2022-03-01T15:13:23Z</time>
      </trkpt>
      <trkpt lat="40.0973670" lon="-4.6818620">
        <ele>538.0</ele>
        <time>2022-03-01T15:13:24Z</time>
      </trkpt>
      <trkpt lat="40.0973670" lon="-4.6818620">
        <ele>538.0</ele>
        <time>2022-03-01T15:13:25Z</time>
      </trkpt>
      <trkpt lat="40.0973920" lon="-4.6819820">
        <ele>538.0</ele>
        <time>2022-03-01T15:13:26Z</time>
      </trkpt>
      <trkpt lat="40.0974150" lon="-4.6820400">
        <ele>538.0</ele>
        <time>2022-03-01T15:13:27Z</time>
      </trkpt>
      <trkpt lat="40.0974150" lon="-4.6820400">
        <ele>538.0</ele>
        <time>2022-03-01T15:13:28Z</time>
      </trkpt>
      <trkpt lat="40.0974750" lon="-4.6821370">
        <ele>538.0</ele>
        <time>2022-03-01T15:13:29Z</time>
      </trkpt>
      <trkpt lat="40.0974750" lon="-4.6821370">
        <ele>538.0</ele>
        <time>2022-03-01T15:13:30Z</time>
      </trkpt>
      <trkpt lat="40.0975520" lon="-4.6822120">
        <ele>538.0</ele>
        <time>2022-03-01T15:13:31Z</time>
      </trkpt>
      <trkpt lat="40.0975520" lon="-4.6822120">
        <ele>538.0</ele>
        <time>2022-03-01T15:13:32Z</time>
      </trkpt>
      <trkpt lat="40.0976370" lon="-4.6822650">
        <ele>538.0</ele>
        <time>2022-03-01T15:13:33Z</time>
      </trkpt>
      <trkpt lat="40.0976370" lon="-4.6822650">
        <ele>538.0</ele>
        <time>2022-03-01T15:13:34Z</time>
      </trkpt>
      <trkpt lat="40.0977320" lon="-4.6822930">
        <ele>538.0</ele>
        <time>2022-03-01T15:13:35Z</time>
      </trkpt>
      <trkpt lat="40.0977320" lon="-4.6822930">
        <ele>538.0</ele>
        <time>2022-03-01T15:13:36Z</time>
      </trkpt>
      <trkpt lat="40.0978320" lon="-4.6822980">
        <ele>538.0</ele>
        <time>2022-03-01T15:13:37Z</time>
      </trkpt>
      <trkpt lat="40.0978830" lon="-4.6822950">
        <ele>538.0</ele>
        <time>2022-03-01T15:13:38Z</time>
      </trkpt>
      <trkpt lat="40.0978830" lon="-4.6822950">
        <ele>539.0</ele>
        <time>2022-03-01T15:13:39Z</time>
      </trkpt>
      <trkpt lat="40.0979830" lon="-4.6822800">
        <ele>539.0</ele>
        <time>2022-03-01T15:13:40Z</time>
      </trkpt>
      <trkpt lat="40.0979830" lon="-4.6822800">
        <ele>539.0</ele>
        <time>2022-03-01T15:13:41Z</time>
      </trkpt>
      <trkpt lat="40.0980920" lon="-4.6822770">
        <ele>539.0</ele>
        <time>2022-03-01T15:13:42Z</time>
      </trkpt>
      <trkpt lat="40.0980920" lon="-4.6822770">
        <ele>539.0</ele>
        <time>2022-03-01T15:13:43Z</time>
      </trkpt>
      <trkpt lat="40.0981950" lon="-4.6822720">
        <ele>539.0</ele>
        <time>2022-03-01T15:13:44Z</time>
      </trkpt>
      <trkpt lat="40.0982500" lon="-4.6822750">
        <ele>539.0</ele>
        <time>2022-03-01T15:13:45Z</time>
      </trkpt>
      <trkpt lat="40.0982500" lon="-4.6822750">
        <ele>539.0</ele>
        <time>2022-03-01T15:13:46Z</time>
      </trkpt>
      <trkpt lat="40.0983580" lon="-4.6822950">
        <ele>538.0</ele>
        <time>2022-03-01T15:13:47Z</time>
      </trkpt>
      <trkpt lat="40.0983580" lon="-4.6822950">
        <ele>538.0</ele>
        <time>2022-03-01T15:13:48Z</time>
      </trkpt>
      <trkpt lat="40.0984620" lon="-4.6823280">
        <ele>538.0</ele>
        <time>2022-03-01T15:13:49Z</time>
      </trkpt>
      <trkpt lat="40.0985100" lon="-4.6823530">
        <ele>538.0</ele>
        <time>2022-03-01T15:13:50Z</time>
      </trkpt>
      <trkpt lat="40.0985100" lon="-4.6823530">
        <ele>537.0</ele>
        <time>2022-03-01T15:13:51Z</time>
      </trkpt>
      <trkpt lat="40.0986150" lon="-4.6824220">
        <ele>537.0</ele>
        <time>2022-03-01T15:13:52Z</time>
      </trkpt>
      <trkpt lat="40.0986150" lon="-4.6824220">
        <ele>537.0</ele>
        <time>2022-03-01T15:13:53Z</time>
      </trkpt>
      <trkpt lat="40.0987180" lon="-4.6825050">
        <ele>537.0</ele>
        <time>2022-03-01T15:13:54Z</time>
      </trkpt>
      <trkpt lat="40.0987180" lon="-4.6825050">
        <ele>537.0</ele>
        <time>2022-03-01T15:13:55Z</time>
      </trkpt>
      <trkpt lat="40.0988180" lon="-4.6825850">
        <ele>537.0</ele>
        <time>2022-03-01T15:13:56Z</time>
      </trkpt>
      <trkpt lat="40.0988700" lon="-4.6826270">
        <ele>537.0</ele>
        <time>2022-03-01T15:13:57Z</time>
      </trkpt>
      <trkpt lat="40.0989220" lon="-4.6826700">
        <ele>537.0</ele>
        <time>2022-03-01T15:13:58Z</time>
      </trkpt>
      <trkpt lat="40.0989220" lon="-4.6826700">
        <ele>537.0</ele>
        <time>2022-03-01T15:13:59Z</time>
      </trkpt>
      <trkpt lat="40.0990200" lon="-4.6827600">
        <ele>537.0</ele>
        <time>2022-03-01T15:14:00Z</time>
      </trkpt>
      <trkpt lat="40.0990200" lon="-4.6827600">
        <ele>537.0</ele>
        <time>2022-03-01T15:14:01Z</time>
      </trkpt>
      <trkpt lat="40.0991150" lon="-4.6828700">
        <ele>537.0</ele>
        <time>2022-03-01T15:14:02Z</time>
      </trkpt>
      <trkpt lat="40.0991150" lon="-4.6828700">
        <ele>537.0</ele>
        <time>2022-03-01T15:14:03Z</time>
      </trkpt>
      <trkpt lat="40.0991970" lon="-4.6829980">
        <ele>537.0</ele>
        <time>2022-03-01T15:14:04Z</time>
      </trkpt>
      <trkpt lat="40.0991970" lon="-4.6829980">
        <ele>537.0</ele>
        <time>2022-03-01T15:14:05Z</time>
      </trkpt>
      <trkpt lat="40.0992700" lon="-4.6831430">
        <ele>537.0</ele>
        <time>2022-03-01T15:14:06Z</time>
      </trkpt>
      <trkpt lat="40.0993270" lon="-4.6832100">
        <ele>536.0</ele>
        <time>2022-03-01T15:14:07Z</time>
      </trkpt>
      <trkpt lat="40.0993270" lon="-4.6832100">
        <ele>536.0</ele>
        <time>2022-03-01T15:14:08Z</time>
      </trkpt>
      <trkpt lat="40.0993930" lon="-4.6833650">
        <ele>536.0</ele>
        <time>2022-03-01T15:14:09Z</time>
      </trkpt>
      <trkpt lat="40.0994270" lon="-4.6834400">
        <ele>536.0</ele>
        <time>2022-03-01T15:14:10Z</time>
      </trkpt>
      <trkpt lat="40.0994270" lon="-4.6834400">
        <ele>536.0</ele>
        <time>2022-03-01T15:14:11Z</time>
      </trkpt>
      <trkpt lat="40.0994900" lon="-4.6835920">
        <ele>534.0</ele>
        <time>2022-03-01T15:14:12Z</time>
      </trkpt>
      <trkpt lat="40.0994900" lon="-4.6835920">
        <ele>534.0</ele>
        <time>2022-03-01T15:14:13Z</time>
      </trkpt>
      <trkpt lat="40.0995580" lon="-4.6837470">
        <ele>534.0</ele>
        <time>2022-03-01T15:14:14Z</time>
      </trkpt>
      <trkpt lat="40.0995870" lon="-4.6838230">
        <ele>534.0</ele>
        <time>2022-03-01T15:14:15Z</time>
      </trkpt>
      <trkpt lat="40.0995870" lon="-4.6838230">
        <ele>532.0</ele>
        <time>2022-03-01T15:14:16Z</time>
      </trkpt>
      <trkpt lat="40.0996350" lon="-4.6839800">
        <ele>532.0</ele>
        <time>2022-03-01T15:14:17Z</time>
      </trkpt>
      <trkpt lat="40.0996580" lon="-4.6840620">
        <ele>533.0</ele>
        <time>2022-03-01T15:14:18Z</time>
      </trkpt>
      <trkpt lat="40.0996580" lon="-4.6840620">
        <ele>533.0</ele>
        <time>2022-03-01T15:14:19Z</time>
      </trkpt>
      <trkpt lat="40.0997020" lon="-4.6842200">
        <ele>531.0</ele>
        <time>2022-03-01T15:14:20Z</time>
      </trkpt>
      <trkpt lat="40.0997220" lon="-4.6842980">
        <ele>531.0</ele>
        <time>2022-03-01T15:14:21Z</time>
      </trkpt>
      <trkpt lat="40.0997430" lon="-4.6843730">
        <ele>531.0</ele>
        <time>2022-03-01T15:14:22Z</time>
      </trkpt>
      <trkpt lat="40.0997430" lon="-4.6843730">
        <ele>531.0</ele>
        <time>2022-03-01T15:14:23Z</time>
      </trkpt>
      <trkpt lat="40.0997870" lon="-4.6845120">
        <ele>532.0</ele>
        <time>2022-03-01T15:14:24Z</time>
      </trkpt>
      <trkpt lat="40.0997870" lon="-4.6845120">
        <ele>532.0</ele>
        <time>2022-03-01T15:14:25Z</time>
      </trkpt>
      <trkpt lat="40.0998250" lon="-4.6846480">
        <ele>534.0</ele>
        <time>2022-03-01T15:14:26Z</time>
      </trkpt>
      <trkpt lat="40.0998430" lon="-4.6847080">
        <ele>534.0</ele>
        <time>2022-03-01T15:14:27Z</time>
      </trkpt>
      <trkpt lat="40.0998430" lon="-4.6847080">
        <ele>535.0</ele>
        <time>2022-03-01T15:14:28Z</time>
      </trkpt>
      <trkpt lat="40.0998830" lon="-4.6848100">
        <ele>535.0</ele>
        <time>2022-03-01T15:14:29Z</time>
      </trkpt>
      <trkpt lat="40.0998830" lon="-4.6848100">
        <ele>536.0</ele>
        <time>2022-03-01T15:14:30Z</time>
      </trkpt>
      <trkpt lat="40.0999230" lon="-4.6848850">
        <ele>536.0</ele>
        <time>2022-03-01T15:14:31Z</time>
      </trkpt>
      <trkpt lat="40.0999230" lon="-4.6848850">
        <ele>538.0</ele>
        <time>2022-03-01T15:14:32Z</time>
      </trkpt>
      <trkpt lat="40.0999670" lon="-4.6849250">
        <ele>538.0</ele>
        <time>2022-03-01T15:14:33Z</time>
      </trkpt>
      <trkpt lat="40.0999880" lon="-4.6849570">
        <ele>538.0</ele>
        <time>2022-03-01T15:14:34Z</time>
      </trkpt>
      <trkpt lat="40.0999880" lon="-4.6849570">
        <ele>538.0</ele>
        <time>2022-03-01T15:14:35Z</time>
      </trkpt>
      <trkpt lat="40.1000250" lon="-4.6850220">
        <ele>538.0</ele>
        <time>2022-03-01T15:14:36Z</time>
      </trkpt>
      <trkpt lat="40.1000470" lon="-4.6850380">
        <ele>538.0</ele>
        <time>2022-03-01T15:14:37Z</time>
      </trkpt>
      <trkpt lat="40.1000470" lon="-4.6850380">
        <ele>540.0</ele>
        <time>2022-03-01T15:14:38Z</time>
      </trkpt>
      <trkpt lat="40.1000700" lon="-4.6850950">
        <ele>540.0</ele>
        <time>2022-03-01T15:14:39Z</time>
      </trkpt>
      <trkpt lat="40.1000820" lon="-4.6851320">
        <ele>540.0</ele>
        <time>2022-03-01T15:14:40Z</time>
      </trkpt>
      <trkpt lat="40.1000820" lon="-4.6851320">
        <ele>540.0</ele>
        <time>2022-03-01T15:14:41Z</time>
      </trkpt>
      <trkpt lat="40.1001130" lon="-4.6852050">
        <ele>541.0</ele>
        <time>2022-03-01T15:14:42Z</time>
      </trkpt>
      <trkpt lat="40.1001400" lon="-4.6852580">
        <ele>541.0</ele>
        <time>2022-03-01T15:14:43Z</time>
      </trkpt>
      <trkpt lat="40.1001400" lon="-4.6852580">
        <ele>541.0</ele>
        <time>2022-03-01T15:14:44Z</time>
      </trkpt>
      <trkpt lat="40.1001700" lon="-4.6853250">
        <ele>541.0</ele>
        <time>2022-03-01T15:14:45Z</time>
      </trkpt>
      <trkpt lat="40.1001950" lon="-4.6853430">
        <ele>542.0</ele>
        <time>2022-03-01T15:14:46Z</time>
      </trkpt>
      <trkpt lat="40.1001950" lon="-4.6853430">
        <ele>542.0</ele>
        <time>2022-03-01T15:14:47Z</time>
      </trkpt>
      <trkpt lat="40.1002450" lon="-4.6853520">
        <ele>542.0</ele>
        <time>2022-03-01T15:14:48Z</time>
      </trkpt>
      <trkpt lat="40.1002450" lon="-4.6853520">
        <ele>542.0</ele>
        <time>2022-03-01T15:14:49Z</time>
      </trkpt>
      <trkpt lat="40.1003230" lon="-4.6853300">
        <ele>542.0</ele>
        <time>2022-03-01T15:14:50Z</time>
      </trkpt>
      <trkpt lat="40.1003230" lon="-4.6853300">
        <ele>542.0</ele>
        <time>2022-03-01T15:14:51Z</time>
      </trkpt>
      <trkpt lat="40.1003900" lon="-4.6853030">
        <ele>542.0</ele>
        <time>2022-03-01T15:14:52Z</time>
      </trkpt>
      <trkpt lat="40.1003900" lon="-4.6853030">
        <ele>542.0</ele>
        <time>2022-03-01T15:14:53Z</time>
      </trkpt>
      <trkpt lat="40.1004520" lon="-4.6852830">
        <ele>544.0</ele>
        <time>2022-03-01T15:14:54Z</time>
      </trkpt>
      <trkpt lat="40.1004520" lon="-4.6852830">
        <ele>544.0</ele>
        <time>2022-03-01T15:14:55Z</time>
      </trkpt>
      <trkpt lat="40.1005270" lon="-4.6852780">
        <ele>544.0</ele>
        <time>2022-03-01T15:14:56Z</time>
      </trkpt>
      <trkpt lat="40.1005270" lon="-4.6852780">
        <ele>544.0</ele>
        <time>2022-03-01T15:14:57Z</time>
      </trkpt>
      <trkpt lat="40.1006230" lon="-4.6852780">
        <ele>545.0</ele>
        <time>2022-03-01T15:14:58Z</time>
      </trkpt>
      <trkpt lat="40.1006230" lon="-4.6852780">
        <ele>545.0</ele>
        <time>2022-03-01T15:14:59Z</time>
      </trkpt>
      <trkpt lat="40.1006950" lon="-4.6852800">
        <ele>545.0</ele>
        <time>2022-03-01T15:15:00Z</time>
      </trkpt>
      <trkpt lat="40.1006950" lon="-4.6852800">
        <ele>546.0</ele>
        <time>2022-03-01T15:15:01Z</time>
      </trkpt>
      <trkpt lat="40.1007550" lon="-4.6852600">
        <ele>546.0</ele>
        <time>2022-03-01T15:15:02Z</time>
      </trkpt>
      <trkpt lat="40.1007550" lon="-4.6852600">
        <ele>546.0</ele>
        <time>2022-03-01T15:15:03Z</time>
      </trkpt>
      <trkpt lat="40.1008080" lon="-4.6852480">
        <ele>546.0</ele>
        <time>2022-03-01T15:15:04Z</time>
      </trkpt>
      <trkpt lat="40.1008080" lon="-4.6852480">
        <ele>547.0</ele>
        <time>2022-03-01T15:15:05Z</time>
      </trkpt>
      <trkpt lat="40.1009120" lon="-4.6852120">
        <ele>547.0</ele>
        <time>2022-03-01T15:15:06Z</time>
      </trkpt>
      <trkpt lat="40.1009120" lon="-4.6852120">
        <ele>547.0</ele>
        <time>2022-03-01T15:15:07Z</time>
      </trkpt>
      <trkpt lat="40.1010430" lon="-4.6851150">
        <ele>547.0</ele>
        <time>2022-03-01T15:15:08Z</time>
      </trkpt>
      <trkpt lat="40.1010820" lon="-4.6850970">
        <ele>548.0</ele>
        <time>2022-03-01T15:15:09Z</time>
      </trkpt>
      <trkpt lat="40.1010820" lon="-4.6850970">
        <ele>548.0</ele>
        <time>2022-03-01T15:15:10Z</time>
      </trkpt>
      <trkpt lat="40.1011620" lon="-4.6850780">
        <ele>548.0</ele>
        <time>2022-03-01T15:15:11Z</time>
      </trkpt>
      <trkpt lat="40.1012080" lon="-4.6850620">
        <ele>548.0</ele>
        <time>2022-03-01T15:15:12Z</time>
      </trkpt>
      <trkpt lat="40.1012080" lon="-4.6850620">
        <ele>549.0</ele>
        <time>2022-03-01T15:15:13Z</time>
      </trkpt>
      <trkpt lat="40.1012800" lon="-4.6850150">
        <ele>549.0</ele>
        <time>2022-03-01T15:15:14Z</time>
      </trkpt>
      <trkpt lat="40.1012800" lon="-4.6850150">
        <ele>549.0</ele>
        <time>2022-03-01T15:15:15Z</time>
      </trkpt>
      <trkpt lat="40.1013370" lon="-4.6849420">
        <ele>549.0</ele>
        <time>2022-03-01T15:15:16Z</time>
      </trkpt>
      <trkpt lat="40.1013670" lon="-4.6848980">
        <ele>549.0</ele>
        <time>2022-03-01T15:15:17Z</time>
      </trkpt>
      <trkpt lat="40.1013670" lon="-4.6848980">
        <ele>549.0</ele>
        <time>2022-03-01T15:15:18Z</time>
      </trkpt>
      <trkpt lat="40.1014400" lon="-4.6848150">
        <ele>549.0</ele>
        <time>2022-03-01T15:15:19Z</time>
      </trkpt>
      <trkpt lat="40.1014400" lon="-4.6848150">
        <ele>549.0</ele>
        <time>2022-03-01T15:15:20Z</time>
      </trkpt>
      <trkpt lat="40.1015030" lon="-4.6847450">
        <ele>551.0</ele>
        <time>2022-03-01T15:15:21Z</time>
      </trkpt>
      <trkpt lat="40.1015370" lon="-4.6847150">
        <ele>551.0</ele>
        <time>2022-03-01T15:15:22Z</time>
      </trkpt>
      <trkpt lat="40.1015370" lon="-4.6847150">
        <ele>551.0</ele>
        <time>2022-03-01T15:15:23Z</time>
      </trkpt>
      <trkpt lat="40.1015920" lon="-4.6846450">
        <ele>551.0</ele>
        <time>2022-03-01T15:15:24Z</time>
      </trkpt>
      <trkpt lat="40.1015920" lon="-4.6846450">
        <ele>551.0</ele>
        <time>2022-03-01T15:15:25Z</time>
      </trkpt>
      <trkpt lat="40.1016130" lon="-4.6845270">
        <ele>551.0</ele>
        <time>2022-03-01T15:15:26Z</time>
      </trkpt>
      <trkpt lat="40.1016130" lon="-4.6845270">
        <ele>551.0</ele>
        <time>2022-03-01T15:15:27Z</time>
      </trkpt>
      <trkpt lat="40.1016520" lon="-4.6844250">
        <ele>551.0</ele>
        <time>2022-03-01T15:15:28Z</time>
      </trkpt>
      <trkpt lat="40.1016520" lon="-4.6844250">
        <ele>551.0</ele>
        <time>2022-03-01T15:15:29Z</time>
      </trkpt>
      <trkpt lat="40.1017270" lon="-4.6843130">
        <ele>551.0</ele>
        <time>2022-03-01T15:15:30Z</time>
      </trkpt>
      <trkpt lat="40.1017270" lon="-4.6843130">
        <ele>550.0</ele>
        <time>2022-03-01T15:15:31Z</time>
      </trkpt>
      <trkpt lat="40.1018280" lon="-4.6842150">
        <ele>550.0</ele>
        <time>2022-03-01T15:15:32Z</time>
      </trkpt>
      <trkpt lat="40.1018280" lon="-4.6842150">
        <ele>548.0</ele>
        <time>2022-03-01T15:15:33Z</time>
      </trkpt>
      <trkpt lat="40.1019370" lon="-4.6841570">
        <ele>548.0</ele>
        <time>2022-03-01T15:15:34Z</time>
      </trkpt>
      <trkpt lat="40.1019370" lon="-4.6841570">
        <ele>547.0</ele>
        <time>2022-03-01T15:15:35Z</time>
      </trkpt>
      <trkpt lat="40.1020500" lon="-4.6840980">
        <ele>547.0</ele>
        <time>2022-03-01T15:15:36Z</time>
      </trkpt>
      <trkpt lat="40.1020500" lon="-4.6840980">
        <ele>547.0</ele>
        <time>2022-03-01T15:15:37Z</time>
      </trkpt>
      <trkpt lat="40.1021750" lon="-4.6840450">
        <ele>547.0</ele>
        <time>2022-03-01T15:15:38Z</time>
      </trkpt>
      <trkpt lat="40.1021750" lon="-4.6840450">
        <ele>545.0</ele>
        <time>2022-03-01T15:15:39Z</time>
      </trkpt>
      <trkpt lat="40.1023120" lon="-4.6839630">
        <ele>545.0</ele>
        <time>2022-03-01T15:15:40Z</time>
      </trkpt>
      <trkpt lat="40.1023120" lon="-4.6839630">
        <ele>543.0</ele>
        <time>2022-03-01T15:15:41Z</time>
      </trkpt>
      <trkpt lat="40.1024470" lon="-4.6838570">
        <ele>543.0</ele>
        <time>2022-03-01T15:15:42Z</time>
      </trkpt>
      <trkpt lat="40.1025180" lon="-4.6838050">
        <ele>542.0</ele>
        <time>2022-03-01T15:15:43Z</time>
      </trkpt>
      <trkpt lat="40.1025180" lon="-4.6838050">
        <ele>542.0</ele>
        <time>2022-03-01T15:15:44Z</time>
      </trkpt>
      <trkpt lat="40.1026700" lon="-4.6837230">
        <ele>542.0</ele>
        <time>2022-03-01T15:15:45Z</time>
      </trkpt>
      <trkpt lat="40.1027520" lon="-4.6836850">
        <ele>542.0</ele>
        <time>2022-03-01T15:15:46Z</time>
      </trkpt>
      <trkpt lat="40.1027520" lon="-4.6836850">
        <ele>542.0</ele>
        <time>2022-03-01T15:15:47Z</time>
      </trkpt>
      <trkpt lat="40.1029200" lon="-4.6836170">
        <ele>542.0</ele>
        <time>2022-03-01T15:15:48Z</time>
      </trkpt>
      <trkpt lat="40.1029950" lon="-4.6835870">
        <ele>541.0</ele>
        <time>2022-03-01T15:15:49Z</time>
      </trkpt>
      <trkpt lat="40.1030700" lon="-4.6835650">
        <ele>541.0</ele>
        <time>2022-03-01T15:15:50Z</time>
      </trkpt>
      <trkpt lat="40.1030700" lon="-4.6835650">
        <ele>541.0</ele>
        <time>2022-03-01T15:15:51Z</time>
      </trkpt>
      <trkpt lat="40.1032120" lon="-4.6835270">
        <ele>541.0</ele>
        <time>2022-03-01T15:15:52Z</time>
      </trkpt>
      <trkpt lat="40.1032120" lon="-4.6835270">
        <ele>541.0</ele>
        <time>2022-03-01T15:15:53Z</time>
      </trkpt>
      <trkpt lat="40.1033450" lon="-4.6834780">
        <ele>541.0</ele>
        <time>2022-03-01T15:15:54Z</time>
      </trkpt>
      <trkpt lat="40.1033450" lon="-4.6834780">
        <ele>541.0</ele>
        <time>2022-03-01T15:15:55Z</time>
      </trkpt>
      <trkpt lat="40.1034730" lon="-4.6834300">
        <ele>540.0</ele>
        <time>2022-03-01T15:15:56Z</time>
      </trkpt>
      <trkpt lat="40.1035370" lon="-4.6834120">
        <ele>540.0</ele>
        <time>2022-03-01T15:15:57Z</time>
      </trkpt>
      <trkpt lat="40.1035370" lon="-4.6834120">
        <ele>539.0</ele>
        <time>2022-03-01T15:15:58Z</time>
      </trkpt>
      <trkpt lat="40.1036580" lon="-4.6833780">
        <ele>539.0</ele>
        <time>2022-03-01T15:15:59Z</time>
      </trkpt>
      <trkpt lat="40.1037250" lon="-4.6833600">
        <ele>540.0</ele>
        <time>2022-03-01T15:16:00Z</time>
      </trkpt>
      <trkpt lat="40.1037250" lon="-4.6833600">
        <ele>540.0</ele>
        <time>2022-03-01T15:16:01Z</time>
      </trkpt>
      <trkpt lat="40.1038530" lon="-4.6833150">
        <ele>540.0</ele>
        <time>2022-03-01T15:16:02Z</time>
      </trkpt>
      <trkpt lat="40.1039150" lon="-4.6832920">
        <ele>540.0</ele>
        <time>2022-03-01T15:16:03Z</time>
      </trkpt>
      <trkpt lat="40.1039750" lon="-4.6832650">
        <ele>540.0</ele>
        <time>2022-03-01T15:16:04Z</time>
      </trkpt>
      <trkpt lat="40.1039750" lon="-4.6832650">
        <ele>541.0</ele>
        <time>2022-03-01T15:16:05Z</time>
      </trkpt>
      <trkpt lat="40.1040930" lon="-4.6832150">
        <ele>541.0</ele>
        <time>2022-03-01T15:16:06Z</time>
      </trkpt>
      <trkpt lat="40.1040930" lon="-4.6832150">
        <ele>541.0</ele>
        <time>2022-03-01T15:16:07Z</time>
      </trkpt>
      <trkpt lat="40.1041950" lon="-4.6831670">
        <ele>541.0</ele>
        <time>2022-03-01T15:16:08Z</time>
      </trkpt>
      <trkpt lat="40.1041950" lon="-4.6831670">
        <ele>543.0</ele>
        <time>2022-03-01T15:16:09Z</time>
      </trkpt>
      <trkpt lat="40.1042970" lon="-4.6831230">
        <ele>543.0</ele>
        <time>2022-03-01T15:16:10Z</time>
      </trkpt>
      <trkpt lat="40.1042970" lon="-4.6831230">
        <ele>543.0</ele>
        <time>2022-03-01T15:16:11Z</time>
      </trkpt>
      <trkpt lat="40.1043880" lon="-4.6830800">
        <ele>543.0</ele>
        <time>2022-03-01T15:16:12Z</time>
      </trkpt>
      <trkpt lat="40.1043880" lon="-4.6830800">
        <ele>544.0</ele>
        <time>2022-03-01T15:16:13Z</time>
      </trkpt>
      <trkpt lat="40.1044780" lon="-4.6830380">
        <ele>544.0</ele>
        <time>2022-03-01T15:16:14Z</time>
      </trkpt>
      <trkpt lat="40.1045230" lon="-4.6830170">
        <ele>545.0</ele>
        <time>2022-03-01T15:16:15Z</time>
      </trkpt>
      <trkpt lat="40.1045230" lon="-4.6830170">
        <ele>545.0</ele>
        <time>2022-03-01T15:16:16Z</time>
      </trkpt>
      <trkpt lat="40.1046080" lon="-4.6829780">
        <ele>545.0</ele>
        <time>2022-03-01T15:16:17Z</time>
      </trkpt>
      <trkpt lat="40.1046480" lon="-4.6829570">
        <ele>545.0</ele>
        <time>2022-03-01T15:16:18Z</time>
      </trkpt>
      <trkpt lat="40.1046480" lon="-4.6829570">
        <ele>546.0</ele>
        <time>2022-03-01T15:16:19Z</time>
      </trkpt>
      <trkpt lat="40.1047250" lon="-4.6829180">
        <ele>546.0</ele>
        <time>2022-03-01T15:16:20Z</time>
      </trkpt>
      <trkpt lat="40.1047250" lon="-4.6829180">
        <ele>546.0</ele>
        <time>2022-03-01T15:16:21Z</time>
      </trkpt>
      <trkpt lat="40.1048030" lon="-4.6828930">
        <ele>546.0</ele>
        <time>2022-03-01T15:16:22Z</time>
      </trkpt>
      <trkpt lat="40.1048030" lon="-4.6828930">
        <ele>547.0</ele>
        <time>2022-03-01T15:16:23Z</time>
      </trkpt>
      <trkpt lat="40.1048800" lon="-4.6828630">
        <ele>547.0</ele>
        <time>2022-03-01T15:16:24Z</time>
      </trkpt>
      <trkpt lat="40.1048800" lon="-4.6828630">
        <ele>547.0</ele>
        <time>2022-03-01T15:16:25Z</time>
      </trkpt>
      <trkpt lat="40.1049550" lon="-4.6828250">
        <ele>547.0</ele>
        <time>2022-03-01T15:16:26Z</time>
      </trkpt>
      <trkpt lat="40.1049550" lon="-4.6828250">
        <ele>548.0</ele>
        <time>2022-03-01T15:16:27Z</time>
      </trkpt>
      <trkpt lat="40.1050280" lon="-4.6827950">
        <ele>548.0</ele>
        <time>2022-03-01T15:16:28Z</time>
      </trkpt>
      <trkpt lat="40.1050280" lon="-4.6827950">
        <ele>549.0</ele>
        <time>2022-03-01T15:16:29Z</time>
      </trkpt>
      <trkpt lat="40.1051020" lon="-4.6827630">
        <ele>549.0</ele>
        <time>2022-03-01T15:16:30Z</time>
      </trkpt>
      <trkpt lat="40.1051020" lon="-4.6827630">
        <ele>549.0</ele>
        <time>2022-03-01T15:16:31Z</time>
      </trkpt>
      <trkpt lat="40.1051800" lon="-4.6827300">
        <ele>549.0</ele>
        <time>2022-03-01T15:16:32Z</time>
      </trkpt>
      <trkpt lat="40.1052200" lon="-4.6827120">
        <ele>549.0</ele>
        <time>2022-03-01T15:16:33Z</time>
      </trkpt>
      <trkpt lat="40.1052200" lon="-4.6827120">
        <ele>549.0</ele>
        <time>2022-03-01T15:16:34Z</time>
      </trkpt>
      <trkpt lat="40.1053100" lon="-4.6826730">
        <ele>550.0</ele>
        <time>2022-03-01T15:16:35Z</time>
      </trkpt>
      <trkpt lat="40.1053530" lon="-4.6826530">
        <ele>550.0</ele>
        <time>2022-03-01T15:16:36Z</time>
      </trkpt>
      <trkpt lat="40.1053530" lon="-4.6826530">
        <ele>550.0</ele>
        <time>2022-03-01T15:16:37Z</time>
      </trkpt>
      <trkpt lat="40.1054370" lon="-4.6826150">
        <ele>550.0</ele>
        <time>2022-03-01T15:16:38Z</time>
      </trkpt>
      <trkpt lat="40.1054750" lon="-4.6825970">
        <ele>551.0</ele>
        <time>2022-03-01T15:16:39Z</time>
      </trkpt>
      <trkpt lat="40.1055130" lon="-4.6825770">
        <ele>551.0</ele>
        <time>2022-03-01T15:16:40Z</time>
      </trkpt>
      <trkpt lat="40.1055130" lon="-4.6825770">
        <ele>552.0</ele>
        <time>2022-03-01T15:16:41Z</time>
      </trkpt>
      <trkpt lat="40.1055780" lon="-4.6825400">
        <ele>552.0</ele>
        <time>2022-03-01T15:16:42Z</time>
      </trkpt>
      <trkpt lat="40.1056180" lon="-4.6825170">
        <ele>552.0</ele>
        <time>2022-03-01T15:16:43Z</time>
      </trkpt>
      <trkpt lat="40.1056180" lon="-4.6825170">
        <ele>553.0</ele>
        <time>2022-03-01T15:16:44Z</time>
      </trkpt>
      <trkpt lat="40.1057020" lon="-4.6824700">
        <ele>553.0</ele>
        <time>2022-03-01T15:16:45Z</time>
      </trkpt>
      <trkpt lat="40.1057400" lon="-4.6824430">
        <ele>553.0</ele>
        <time>2022-03-01T15:16:46Z</time>
      </trkpt>
      <trkpt lat="40.1057400" lon="-4.6824430">
        <ele>553.0</ele>
        <time>2022-03-01T15:16:47Z</time>
      </trkpt>
      <trkpt lat="40.1058180" lon="-4.6823950">
        <ele>553.0</ele>
        <time>2022-03-01T15:16:48Z</time>
      </trkpt>
      <trkpt lat="40.1058180" lon="-4.6823950">
        <ele>553.0</ele>
        <time>2022-03-01T15:16:49Z</time>
      </trkpt>
      <trkpt lat="40.1058970" lon="-4.6823530">
        <ele>553.0</ele>
        <time>2022-03-01T15:16:50Z</time>
      </trkpt>
      <trkpt lat="40.1058970" lon="-4.6823530">
        <ele>555.0</ele>
        <time>2022-03-01T15:16:51Z</time>
      </trkpt>
      <trkpt lat="40.1059730" lon="-4.6823070">
        <ele>555.0</ele>
        <time>2022-03-01T15:16:52Z</time>
      </trkpt>
      <trkpt lat="40.1059730" lon="-4.6823070">
        <ele>556.0</ele>
        <time>2022-03-01T15:16:53Z</time>
      </trkpt>
      <trkpt lat="40.1060470" lon="-4.6822600">
        <ele>556.0</ele>
        <time>2022-03-01T15:16:54Z</time>
      </trkpt>
      <trkpt lat="40.1060470" lon="-4.6822600">
        <ele>556.0</ele>
        <time>2022-03-01T15:16:55Z</time>
      </trkpt>
      <trkpt lat="40.1061220" lon="-4.6822100">
        <ele>556.0</ele>
        <time>2022-03-01T15:16:56Z</time>
      </trkpt>
      <trkpt lat="40.1061220" lon="-4.6822100">
        <ele>556.0</ele>
        <time>2022-03-01T15:16:57Z</time>
      </trkpt>
      <trkpt lat="40.1061880" lon="-4.6821600">
        <ele>556.0</ele>
        <time>2022-03-01T15:16:58Z</time>
      </trkpt>
      <trkpt lat="40.1061880" lon="-4.6821600">
        <ele>557.0</ele>
        <time>2022-03-01T15:16:59Z</time>
      </trkpt>
      <trkpt lat="40.1062530" lon="-4.6821100">
        <ele>557.0</ele>
        <time>2022-03-01T15:17:00Z</time>
      </trkpt>
      <trkpt lat="40.1062530" lon="-4.6821100">
        <ele>557.0</ele>
        <time>2022-03-01T15:17:01Z</time>
      </trkpt>
      <trkpt lat="40.1063180" lon="-4.6820580">
        <ele>557.0</ele>
        <time>2022-03-01T15:17:02Z</time>
      </trkpt>
      <trkpt lat="40.1063180" lon="-4.6820580">
        <ele>558.0</ele>
        <time>2022-03-01T15:17:03Z</time>
      </trkpt>
      <trkpt lat="40.1063830" lon="-4.6820070">
        <ele>558.0</ele>
        <time>2022-03-01T15:17:04Z</time>
      </trkpt>
      <trkpt lat="40.1063830" lon="-4.6820070">
        <ele>558.0</ele>
        <time>2022-03-01T15:17:05Z</time>
      </trkpt>
      <trkpt lat="40.1064600" lon="-4.6819580">
        <ele>558.0</ele>
        <time>2022-03-01T15:17:06Z</time>
      </trkpt>
      <trkpt lat="40.1064600" lon="-4.6819580">
        <ele>559.0</ele>
        <time>2022-03-01T15:17:07Z</time>
      </trkpt>
      <trkpt lat="40.1065330" lon="-4.6819130">
        <ele>559.0</ele>
        <time>2022-03-01T15:17:08Z</time>
      </trkpt>
      <trkpt lat="40.1065330" lon="-4.6819130">
        <ele>559.0</ele>
        <time>2022-03-01T15:17:09Z</time>
      </trkpt>
      <trkpt lat="40.1066000" lon="-4.6818570">
        <ele>559.0</ele>
        <time>2022-03-01T15:17:10Z</time>
      </trkpt>
      <trkpt lat="40.1066000" lon="-4.6818570">
        <ele>559.0</ele>
        <time>2022-03-01T15:17:11Z</time>
      </trkpt>
      <trkpt lat="40.1066670" lon="-4.6817870">
        <ele>559.0</ele>
        <time>2022-03-01T15:17:12Z</time>
      </trkpt>
      <trkpt lat="40.1066670" lon="-4.6817870">
        <ele>559.0</ele>
        <time>2022-03-01T15:17:13Z</time>
      </trkpt>
      <trkpt lat="40.1067200" lon="-4.6817070">
        <ele>559.0</ele>
        <time>2022-03-01T15:17:14Z</time>
      </trkpt>
      <trkpt lat="40.1067200" lon="-4.6817070">
        <ele>560.0</ele>
        <time>2022-03-01T15:17:15Z</time>
      </trkpt>
      <trkpt lat="40.1067600" lon="-4.6816170">
        <ele>560.0</ele>
        <time>2022-03-01T15:17:16Z</time>
      </trkpt>
      <trkpt lat="40.1067600" lon="-4.6816170">
        <ele>561.0</ele>
        <time>2022-03-01T15:17:17Z</time>
      </trkpt>
      <trkpt lat="40.1067950" lon="-4.6815220">
        <ele>561.0</ele>
        <time>2022-03-01T15:17:18Z</time>
      </trkpt>
      <trkpt lat="40.1068120" lon="-4.6814720">
        <ele>561.0</ele>
        <time>2022-03-01T15:17:19Z</time>
      </trkpt>
      <trkpt lat="40.1068120" lon="-4.6814720">
        <ele>561.0</ele>
        <time>2022-03-01T15:17:20Z</time>
      </trkpt>
      <trkpt lat="40.1068470" lon="-4.6813770">
        <ele>562.0</ele>
        <time>2022-03-01T15:17:21Z</time>
      </trkpt>
      <trkpt lat="40.1068470" lon="-4.6813770">
        <ele>562.0</ele>
        <time>2022-03-01T15:17:22Z</time>
      </trkpt>
      <trkpt lat="40.1068830" lon="-4.6812900">
        <ele>563.0</ele>
        <time>2022-03-01T15:17:23Z</time>
      </trkpt>
      <trkpt lat="40.1068830" lon="-4.6812900">
        <ele>563.0</ele>
        <time>2022-03-01T15:17:24Z</time>
      </trkpt>
      <trkpt lat="40.1069280" lon="-4.6812100">
        <ele>564.0</ele>
        <time>2022-03-01T15:17:25Z</time>
      </trkpt>
      <trkpt lat="40.1069280" lon="-4.6812100">
        <ele>564.0</ele>
        <time>2022-03-01T15:17:26Z</time>
      </trkpt>
      <trkpt lat="40.1069800" lon="-4.6811430">
        <ele>564.0</ele>
        <time>2022-03-01T15:17:27Z</time>
      </trkpt>
      <trkpt lat="40.1069800" lon="-4.6811430">
        <ele>564.0</ele>
        <time>2022-03-01T15:17:28Z</time>
      </trkpt>
      <trkpt lat="40.1070430" lon="-4.6810880">
        <ele>565.0</ele>
        <time>2022-03-01T15:17:29Z</time>
      </trkpt>
      <trkpt lat="40.1070800" lon="-4.6810620">
        <ele>565.0</ele>
        <time>2022-03-01T15:17:30Z</time>
      </trkpt>
      <trkpt lat="40.1070800" lon="-4.6810620">
        <ele>565.0</ele>
        <time>2022-03-01T15:17:31Z</time>
      </trkpt>
      <trkpt lat="40.1071570" lon="-4.6810230">
        <ele>565.0</ele>
        <time>2022-03-01T15:17:32Z</time>
      </trkpt>
      <trkpt lat="40.1071950" lon="-4.6810080">
        <ele>565.0</ele>
        <time>2022-03-01T15:17:33Z</time>
      </trkpt>
      <trkpt lat="40.1071950" lon="-4.6810080">
        <ele>565.0</ele>
        <time>2022-03-01T15:17:34Z</time>
      </trkpt>
      <trkpt lat="40.1072770" lon="-4.6809780">
        <ele>566.0</ele>
        <time>2022-03-01T15:17:35Z</time>
      </trkpt>
      <trkpt lat="40.1073180" lon="-4.6809670">
        <ele>566.0</ele>
        <time>2022-03-01T15:17:36Z</time>
      </trkpt>
      <trkpt lat="40.1073180" lon="-4.6809670">
        <ele>566.0</ele>
        <time>2022-03-01T15:17:37Z</time>
      </trkpt>
      <trkpt lat="40.1074000" lon="-4.6809350">
        <ele>566.0</ele>
        <time>2022-03-01T15:17:38Z</time>
      </trkpt>
      <trkpt lat="40.1074400" lon="-4.6809220">
        <ele>567.0</ele>
        <time>2022-03-01T15:17:39Z</time>
      </trkpt>
      <trkpt lat="40.1074400" lon="-4.6809220">
        <ele>567.0</ele>
        <time>2022-03-01T15:17:40Z</time>
      </trkpt>
      <trkpt lat="40.1075170" lon="-4.6809000">
        <ele>567.0</ele>
        <time>2022-03-01T15:17:41Z</time>
      </trkpt>
      <trkpt lat="40.1075550" lon="-4.6808870">
        <ele>567.0</ele>
        <time>2022-03-01T15:17:42Z</time>
      </trkpt>
      <trkpt lat="40.1075550" lon="-4.6808870">
        <ele>568.0</ele>
        <time>2022-03-01T15:17:43Z</time>
      </trkpt>
      <trkpt lat="40.1076280" lon="-4.6808530">
        <ele>568.0</ele>
        <time>2022-03-01T15:17:44Z</time>
      </trkpt>
      <trkpt lat="40.1076280" lon="-4.6808530">
        <ele>568.0</ele>
        <time>2022-03-01T15:17:45Z</time>
      </trkpt>
      <trkpt lat="40.1077070" lon="-4.6808280">
        <ele>568.0</ele>
        <time>2022-03-01T15:17:46Z</time>
      </trkpt>
      <trkpt lat="40.1077070" lon="-4.6808280">
        <ele>568.0</ele>
        <time>2022-03-01T15:17:47Z</time>
      </trkpt>
      <trkpt lat="40.1077880" lon="-4.6808120">
        <ele>568.0</ele>
        <time>2022-03-01T15:17:48Z</time>
      </trkpt>
      <trkpt lat="40.1078300" lon="-4.6808120">
        <ele>568.0</ele>
        <time>2022-03-01T15:17:49Z</time>
      </trkpt>
      <trkpt lat="40.1078300" lon="-4.6808120">
        <ele>568.0</ele>
        <time>2022-03-01T15:17:50Z</time>
      </trkpt>
      <trkpt lat="40.1079220" lon="-4.6808200">
        <ele>568.0</ele>
        <time>2022-03-01T15:17:51Z</time>
      </trkpt>
      <trkpt lat="40.1079220" lon="-4.6808200">
        <ele>568.0</ele>
        <time>2022-03-01T15:17:52Z</time>
      </trkpt>
      <trkpt lat="40.1080080" lon="-4.6808130">
        <ele>568.0</ele>
        <time>2022-03-01T15:17:53Z</time>
      </trkpt>
      <trkpt lat="40.1080530" lon="-4.6808150">
        <ele>568.0</ele>
        <time>2022-03-01T15:17:54Z</time>
      </trkpt>
      <trkpt lat="40.1080530" lon="-4.6808150">
        <ele>569.0</ele>
        <time>2022-03-01T15:17:55Z</time>
      </trkpt>
      <trkpt lat="40.1081450" lon="-4.6808220">
        <ele>569.0</ele>
        <time>2022-03-01T15:17:56Z</time>
      </trkpt>
      <trkpt lat="40.1081450" lon="-4.6808220">
        <ele>569.0</ele>
        <time>2022-03-01T15:17:57Z</time>
      </trkpt>
      <trkpt lat="40.1082400" lon="-4.6808350">
        <ele>569.0</ele>
        <time>2022-03-01T15:17:58Z</time>
      </trkpt>
      <trkpt lat="40.1082400" lon="-4.6808350">
        <ele>569.0</ele>
        <time>2022-03-01T15:17:59Z</time>
      </trkpt>
      <trkpt lat="40.1083350" lon="-4.6808500">
        <ele>569.0</ele>
        <time>2022-03-01T15:18:00Z</time>
      </trkpt>
      <trkpt lat="40.1083820" lon="-4.6808600">
        <ele>569.0</ele>
        <time>2022-03-01T15:18:01Z</time>
      </trkpt>
      <trkpt lat="40.1084300" lon="-4.6808770">
        <ele>569.0</ele>
        <time>2022-03-01T15:18:02Z</time>
      </trkpt>
      <trkpt lat="40.1084300" lon="-4.6808770">
        <ele>569.0</ele>
        <time>2022-03-01T15:18:03Z</time>
      </trkpt>
      <trkpt lat="40.1085270" lon="-4.6809400">
        <ele>569.0</ele>
        <time>2022-03-01T15:18:04Z</time>
      </trkpt>
      <trkpt lat="40.1085270" lon="-4.6809400">
        <ele>569.0</ele>
        <time>2022-03-01T15:18:05Z</time>
      </trkpt>
      <trkpt lat="40.1086220" lon="-4.6810130">
        <ele>569.0</ele>
        <time>2022-03-01T15:18:06Z</time>
      </trkpt>
      <trkpt lat="40.1086670" lon="-4.6810530">
        <ele>569.0</ele>
        <time>2022-03-01T15:18:07Z</time>
      </trkpt>
      <trkpt lat="40.1086670" lon="-4.6810530">
        <ele>569.0</ele>
        <time>2022-03-01T15:18:08Z</time>
      </trkpt>
      <trkpt lat="40.1087470" lon="-4.6811380">
        <ele>569.0</ele>
        <time>2022-03-01T15:18:09Z</time>
      </trkpt>
      <trkpt lat="40.1087470" lon="-4.6811380">
        <ele>570.0</ele>
        <time>2022-03-01T15:18:10Z</time>
      </trkpt>
      <trkpt lat="40.1088150" lon="-4.6812280">
        <ele>570.0</ele>
        <time>2022-03-01T15:18:11Z</time>
      </trkpt>
      <trkpt lat="40.1088470" lon="-4.6812750">
        <ele>570.0</ele>
        <time>2022-03-01T15:18:12Z</time>
      </trkpt>
      <trkpt lat="40.1088800" lon="-4.6813220">
        <ele>570.0</ele>
        <time>2022-03-01T15:18:13Z</time>
      </trkpt>
      <trkpt lat="40.1088800" lon="-4.6813220">
        <ele>571.0</ele>
        <time>2022-03-01T15:18:14Z</time>
      </trkpt>
      <trkpt lat="40.1089420" lon="-4.6814170">
        <ele>571.0</ele>
        <time>2022-03-01T15:18:15Z</time>
      </trkpt>
      <trkpt lat="40.1089720" lon="-4.6814550">
        <ele>571.0</ele>
        <time>2022-03-01T15:18:16Z</time>
      </trkpt>
      <trkpt lat="40.1089720" lon="-4.6814550">
        <ele>571.0</ele>
        <time>2022-03-01T15:18:17Z</time>
      </trkpt>
      <trkpt lat="40.1090300" lon="-4.6815330">
        <ele>572.0</ele>
        <time>2022-03-01T15:18:18Z</time>
      </trkpt>
      <trkpt lat="40.1090300" lon="-4.6815330">
        <ele>572.0</ele>
        <time>2022-03-01T15:18:19Z</time>
      </trkpt>
      <trkpt lat="40.1090900" lon="-4.6816150">
        <ele>572.0</ele>
        <time>2022-03-01T15:18:20Z</time>
      </trkpt>
      <trkpt lat="40.1090900" lon="-4.6816150">
        <ele>572.0</ele>
        <time>2022-03-01T15:18:21Z</time>
      </trkpt>
      <trkpt lat="40.1091450" lon="-4.6816930">
        <ele>573.0</ele>
        <time>2022-03-01T15:18:22Z</time>
      </trkpt>
      <trkpt lat="40.1091450" lon="-4.6816930">
        <ele>573.0</ele>
        <time>2022-03-01T15:18:23Z</time>
      </trkpt>
      <trkpt lat="40.1092000" lon="-4.6817750">
        <ele>573.0</ele>
        <time>2022-03-01T15:18:24Z</time>
      </trkpt>
      <trkpt lat="40.1092000" lon="-4.6817750">
        <ele>573.0</ele>
        <time>2022-03-01T15:18:25Z</time>
      </trkpt>
      <trkpt lat="40.1092600" lon="-4.6818500">
        <ele>575.0</ele>
        <time>2022-03-01T15:18:26Z</time>
      </trkpt>
      <trkpt lat="40.1092600" lon="-4.6818500">
        <ele>575.0</ele>
        <time>2022-03-01T15:18:27Z</time>
      </trkpt>
      <trkpt lat="40.1093250" lon="-4.6819220">
        <ele>575.0</ele>
        <time>2022-03-01T15:18:28Z</time>
      </trkpt>
      <trkpt lat="40.1093250" lon="-4.6819220">
        <ele>576.0</ele>
        <time>2022-03-01T15:18:29Z</time>
      </trkpt>
      <trkpt lat="40.1093930" lon="-4.6819980">
        <ele>576.0</ele>
        <time>2022-03-01T15:18:30Z</time>
      </trkpt>
      <trkpt lat="40.1093930" lon="-4.6819980">
        <ele>576.0</ele>
        <time>2022-03-01T15:18:31Z</time>
      </trkpt>
      <trkpt lat="40.1094580" lon="-4.6820730">
        <ele>576.0</ele>
        <time>2022-03-01T15:18:32Z</time>
      </trkpt>
      <trkpt lat="40.1094580" lon="-4.6820730">
        <ele>576.0</ele>
        <time>2022-03-01T15:18:33Z</time>
      </trkpt>
      <trkpt lat="40.1095220" lon="-4.6821380">
        <ele>576.0</ele>
        <time>2022-03-01T15:18:34Z</time>
      </trkpt>
      <trkpt lat="40.1095220" lon="-4.6821380">
        <ele>577.0</ele>
        <time>2022-03-01T15:18:35Z</time>
      </trkpt>
      <trkpt lat="40.1095880" lon="-4.6821980">
        <ele>577.0</ele>
        <time>2022-03-01T15:18:36Z</time>
      </trkpt>
      <trkpt lat="40.1095880" lon="-4.6821980">
        <ele>577.0</ele>
        <time>2022-03-01T15:18:37Z</time>
      </trkpt>
      <trkpt lat="40.1096520" lon="-4.6822670">
        <ele>577.0</ele>
        <time>2022-03-01T15:18:38Z</time>
      </trkpt>
      <trkpt lat="40.1096830" lon="-4.6822980">
        <ele>578.0</ele>
        <time>2022-03-01T15:18:39Z</time>
      </trkpt>
      <trkpt lat="40.1096830" lon="-4.6822980">
        <ele>578.0</ele>
        <time>2022-03-01T15:18:40Z</time>
      </trkpt>
      <trkpt lat="40.1097480" lon="-4.6823620">
        <ele>578.0</ele>
        <time>2022-03-01T15:18:41Z</time>
      </trkpt>
      <trkpt lat="40.1097830" lon="-4.6823930">
        <ele>578.0</ele>
        <time>2022-03-01T15:18:42Z</time>
      </trkpt>
      <trkpt lat="40.1097830" lon="-4.6823930">
        <ele>579.0</ele>
        <time>2022-03-01T15:18:43Z</time>
      </trkpt>
      <trkpt lat="40.1098550" lon="-4.6824570">
        <ele>579.0</ele>
        <time>2022-03-01T15:18:44Z</time>
      </trkpt>
      <trkpt lat="40.1098880" lon="-4.6824920">
        <ele>579.0</ele>
        <time>2022-03-01T15:18:45Z</time>
      </trkpt>
      <trkpt lat="40.1098880" lon="-4.6824920">
        <ele>579.0</ele>
        <time>2022-03-01T15:18:46Z</time>
      </trkpt>
      <trkpt lat="40.1099600" lon="-4.6825520">
        <ele>580.0</ele>
        <time>2022-03-01T15:18:47Z</time>
      </trkpt>
      <trkpt lat="40.1099600" lon="-4.6825520">
        <ele>580.0</ele>
        <time>2022-03-01T15:18:48Z</time>
      </trkpt>
      <trkpt lat="40.1100250" lon="-4.6825980">
        <ele>580.0</ele>
        <time>2022-03-01T15:18:49Z</time>
      </trkpt>
      <trkpt lat="40.1100580" lon="-4.6826170">
        <ele>580.0</ele>
        <time>2022-03-01T15:18:50Z</time>
      </trkpt>
      <trkpt lat="40.1100580" lon="-4.6826170">
        <ele>581.0</ele>
        <time>2022-03-01T15:18:51Z</time>
      </trkpt>
      <trkpt lat="40.1101270" lon="-4.6826450">
        <ele>581.0</ele>
        <time>2022-03-01T15:18:52Z</time>
      </trkpt>
      <trkpt lat="40.1101270" lon="-4.6826450">
        <ele>581.0</ele>
        <time>2022-03-01T15:18:53Z</time>
      </trkpt>
      <trkpt lat="40.1102030" lon="-4.6826620">
        <ele>581.0</ele>
        <time>2022-03-01T15:18:54Z</time>
      </trkpt>
      <trkpt lat="40.1102030" lon="-4.6826620">
        <ele>583.0</ele>
        <time>2022-03-01T15:18:55Z</time>
      </trkpt>
      <trkpt lat="40.1102770" lon="-4.6826680">
        <ele>583.0</ele>
        <time>2022-03-01T15:18:56Z</time>
      </trkpt>
      <trkpt lat="40.1102770" lon="-4.6826680">
        <ele>583.0</ele>
        <time>2022-03-01T15:18:57Z</time>
      </trkpt>
      <trkpt lat="40.1103500" lon="-4.6826770">
        <ele>583.0</ele>
        <time>2022-03-01T15:18:58Z</time>
      </trkpt>
      <trkpt lat="40.1103500" lon="-4.6826770">
        <ele>584.0</ele>
        <time>2022-03-01T15:18:59Z</time>
      </trkpt>
      <trkpt lat="40.1104230" lon="-4.6826680">
        <ele>584.0</ele>
        <time>2022-03-01T15:19:00Z</time>
      </trkpt>
      <trkpt lat="40.1104230" lon="-4.6826680">
        <ele>584.0</ele>
        <time>2022-03-01T15:19:01Z</time>
      </trkpt>
      <trkpt lat="40.1105000" lon="-4.6826500">
        <ele>584.0</ele>
        <time>2022-03-01T15:19:02Z</time>
      </trkpt>
      <trkpt lat="40.1105000" lon="-4.6826500">
        <ele>586.0</ele>
        <time>2022-03-01T15:19:03Z</time>
      </trkpt>
      <trkpt lat="40.1105750" lon="-4.6826230">
        <ele>586.0</ele>
        <time>2022-03-01T15:19:04Z</time>
      </trkpt>
      <trkpt lat="40.1105750" lon="-4.6826230">
        <ele>586.0</ele>
        <time>2022-03-01T15:19:05Z</time>
      </trkpt>
      <trkpt lat="40.1106520" lon="-4.6825920">
        <ele>586.0</ele>
        <time>2022-03-01T15:19:06Z</time>
      </trkpt>
      <trkpt lat="40.1106520" lon="-4.6825920">
        <ele>587.0</ele>
        <time>2022-03-01T15:19:07Z</time>
      </trkpt>
      <trkpt lat="40.1107250" lon="-4.6825500">
        <ele>587.0</ele>
        <time>2022-03-01T15:19:08Z</time>
      </trkpt>
      <trkpt lat="40.1107250" lon="-4.6825500">
        <ele>588.0</ele>
        <time>2022-03-01T15:19:09Z</time>
      </trkpt>
      <trkpt lat="40.1108030" lon="-4.6825170">
        <ele>588.0</ele>
        <time>2022-03-01T15:19:10Z</time>
      </trkpt>
      <trkpt lat="40.1108030" lon="-4.6825170">
        <ele>588.0</ele>
        <time>2022-03-01T15:19:11Z</time>
      </trkpt>
      <trkpt lat="40.1108780" lon="-4.6824820">
        <ele>588.0</ele>
        <time>2022-03-01T15:19:12Z</time>
      </trkpt>
      <trkpt lat="40.1108780" lon="-4.6824820">
        <ele>589.0</ele>
        <time>2022-03-01T15:19:13Z</time>
      </trkpt>
      <trkpt lat="40.1109520" lon="-4.6824530">
        <ele>589.0</ele>
        <time>2022-03-01T15:19:14Z</time>
      </trkpt>
      <trkpt lat="40.1109520" lon="-4.6824530">
        <ele>589.0</ele>
        <time>2022-03-01T15:19:15Z</time>
      </trkpt>
      <trkpt lat="40.1110280" lon="-4.6824230">
        <ele>589.0</ele>
        <time>2022-03-01T15:19:16Z</time>
      </trkpt>
      <trkpt lat="40.1110280" lon="-4.6824230">
        <ele>590.0</ele>
        <time>2022-03-01T15:19:17Z</time>
      </trkpt>
      <trkpt lat="40.1111020" lon="-4.6823870">
        <ele>590.0</ele>
        <time>2022-03-01T15:19:18Z</time>
      </trkpt>
      <trkpt lat="40.1111020" lon="-4.6823870">
        <ele>591.0</ele>
        <time>2022-03-01T15:19:19Z</time>
      </trkpt>
      <trkpt lat="40.1111730" lon="-4.6823500">
        <ele>591.0</ele>
        <time>2022-03-01T15:19:20Z</time>
      </trkpt>
      <trkpt lat="40.1111730" lon="-4.6823500">
        <ele>591.0</ele>
        <time>2022-03-01T15:19:21Z</time>
      </trkpt>
      <trkpt lat="40.1112520" lon="-4.6823180">
        <ele>592.0</ele>
        <time>2022-03-01T15:19:22Z</time>
      </trkpt>
      <trkpt lat="40.1112520" lon="-4.6823180">
        <ele>592.0</ele>
        <time>2022-03-01T15:19:23Z</time>
      </trkpt>
      <trkpt lat="40.1113280" lon="-4.6822920">
        <ele>593.0</ele>
        <time>2022-03-01T15:19:24Z</time>
      </trkpt>
      <trkpt lat="40.1113280" lon="-4.6822920">
        <ele>593.0</ele>
        <time>2022-03-01T15:19:25Z</time>
      </trkpt>
      <trkpt lat="40.1114050" lon="-4.6822650">
        <ele>593.0</ele>
        <time>2022-03-01T15:19:26Z</time>
      </trkpt>
      <trkpt lat="40.1114050" lon="-4.6822650">
        <ele>593.0</ele>
        <time>2022-03-01T15:19:27Z</time>
      </trkpt>
      <trkpt lat="40.1114800" lon="-4.6822400">
        <ele>593.0</ele>
        <time>2022-03-01T15:19:28Z</time>
      </trkpt>
      <trkpt lat="40.1114800" lon="-4.6822400">
        <ele>593.0</ele>
        <time>2022-03-01T15:19:29Z</time>
      </trkpt>
      <trkpt lat="40.1115600" lon="-4.6822220">
        <ele>594.0</ele>
        <time>2022-03-01T15:19:30Z</time>
      </trkpt>
      <trkpt lat="40.1115600" lon="-4.6822220">
        <ele>594.0</ele>
        <time>2022-03-01T15:19:31Z</time>
      </trkpt>
      <trkpt lat="40.1116450" lon="-4.6822150">
        <ele>594.0</ele>
        <time>2022-03-01T15:19:32Z</time>
      </trkpt>
      <trkpt lat="40.1116870" lon="-4.6822120">
        <ele>594.0</ele>
        <time>2022-03-01T15:19:33Z</time>
      </trkpt>
      <trkpt lat="40.1116870" lon="-4.6822120">
        <ele>595.0</ele>
        <time>2022-03-01T15:19:34Z</time>
      </trkpt>
      <trkpt lat="40.1117670" lon="-4.6822070">
        <ele>595.0</ele>
        <time>2022-03-01T15:19:35Z</time>
      </trkpt>
      <trkpt lat="40.1117670" lon="-4.6822070">
        <ele>595.0</ele>
        <time>2022-03-01T15:19:36Z</time>
      </trkpt>
      <trkpt lat="40.1118570" lon="-4.6822070">
        <ele>595.0</ele>
        <time>2022-03-01T15:19:37Z</time>
      </trkpt>
      <trkpt lat="40.1118570" lon="-4.6822070">
        <ele>595.0</ele>
        <time>2022-03-01T15:19:38Z</time>
      </trkpt>
      <trkpt lat="40.1119400" lon="-4.6822120">
        <ele>595.0</ele>
        <time>2022-03-01T15:19:39Z</time>
      </trkpt>
      <trkpt lat="40.1119830" lon="-4.6822200">
        <ele>596.0</ele>
        <time>2022-03-01T15:19:40Z</time>
      </trkpt>
      <trkpt lat="40.1119830" lon="-4.6822200">
        <ele>596.0</ele>
        <time>2022-03-01T15:19:41Z</time>
      </trkpt>
      <trkpt lat="40.1120650" lon="-4.6822420">
        <ele>596.0</ele>
        <time>2022-03-01T15:19:42Z</time>
      </trkpt>
      <trkpt lat="40.1121030" lon="-4.6822480">
        <ele>596.0</ele>
        <time>2022-03-01T15:19:43Z</time>
      </trkpt>
      <trkpt lat="40.1121030" lon="-4.6822480">
        <ele>597.0</ele>
        <time>2022-03-01T15:19:44Z</time>
      </trkpt>
      <trkpt lat="40.1121850" lon="-4.6822730">
        <ele>597.0</ele>
        <time>2022-03-01T15:19:45Z</time>
      </trkpt>
      <trkpt lat="40.1122230" lon="-4.6822900">
        <ele>597.0</ele>
        <time>2022-03-01T15:19:46Z</time>
      </trkpt>
      <trkpt lat="40.1122230" lon="-4.6822900">
        <ele>597.0</ele>
        <time>2022-03-01T15:19:47Z</time>
      </trkpt>
      <trkpt lat="40.1123020" lon="-4.6823220">
        <ele>597.0</ele>
        <time>2022-03-01T15:19:48Z</time>
      </trkpt>
      <trkpt lat="40.1123420" lon="-4.6823370">
        <ele>597.0</ele>
        <time>2022-03-01T15:19:49Z</time>
      </trkpt>
      <trkpt lat="40.1123420" lon="-4.6823370">
        <ele>598.0</ele>
        <time>2022-03-01T15:19:50Z</time>
      </trkpt>
      <trkpt lat="40.1124130" lon="-4.6823750">
        <ele>598.0</ele>
        <time>2022-03-01T15:19:51Z</time>
      </trkpt>
      <trkpt lat="40.1124480" lon="-4.6823950">
        <ele>598.0</ele>
        <time>2022-03-01T15:19:52Z</time>
      </trkpt>
      <trkpt lat="40.1124480" lon="-4.6823950">
        <ele>598.0</ele>
        <time>2022-03-01T15:19:53Z</time>
      </trkpt>
      <trkpt lat="40.1125180" lon="-4.6824320">
        <ele>598.0</ele>
        <time>2022-03-01T15:19:54Z</time>
      </trkpt>
      <trkpt lat="40.1125180" lon="-4.6824320">
        <ele>598.0</ele>
        <time>2022-03-01T15:19:55Z</time>
      </trkpt>
      <trkpt lat="40.1125800" lon="-4.6824680">
        <ele>599.0</ele>
        <time>2022-03-01T15:19:56Z</time>
      </trkpt>
      <trkpt lat="40.1126120" lon="-4.6824850">
        <ele>599.0</ele>
        <time>2022-03-01T15:19:57Z</time>
      </trkpt>
      <trkpt lat="40.1126400" lon="-4.6825030">
        <ele>599.0</ele>
        <time>2022-03-01T15:19:58Z</time>
      </trkpt>
      <trkpt lat="40.1126400" lon="-4.6825030">
        <ele>599.0</ele>
        <time>2022-03-01T15:19:59Z</time>
      </trkpt>
      <trkpt lat="40.1127020" lon="-4.6825450">
        <ele>600.0</ele>
        <time>2022-03-01T15:20:00Z</time>
      </trkpt>
      <trkpt lat="40.1127020" lon="-4.6825450">
        <ele>600.0</ele>
        <time>2022-03-01T15:20:01Z</time>
      </trkpt>
      <trkpt lat="40.1127630" lon="-4.6825830">
        <ele>600.0</ele>
        <time>2022-03-01T15:20:02Z</time>
      </trkpt>
      <trkpt lat="40.1127950" lon="-4.6826020">
        <ele>600.0</ele>
        <time>2022-03-01T15:20:03Z</time>
      </trkpt>
      <trkpt lat="40.1128270" lon="-4.6826220">
        <ele>601.0</ele>
        <time>2022-03-01T15:20:04Z</time>
      </trkpt>
      <trkpt lat="40.1128270" lon="-4.6826220">
        <ele>601.0</ele>
        <time>2022-03-01T15:20:05Z</time>
      </trkpt>
      <trkpt lat="40.1128880" lon="-4.6826570">
        <ele>602.0</ele>
        <time>2022-03-01T15:20:06Z</time>
      </trkpt>
      <trkpt lat="40.1128880" lon="-4.6826570">
        <ele>602.0</ele>
        <time>2022-03-01T15:20:07Z</time>
      </trkpt>
      <trkpt lat="40.1129430" lon="-4.6826920">
        <ele>602.0</ele>
        <time>2022-03-01T15:20:08Z</time>
      </trkpt>
      <trkpt lat="40.1129430" lon="-4.6826920">
        <ele>602.0</ele>
        <time>2022-03-01T15:20:09Z</time>
      </trkpt>
      <trkpt lat="40.1129920" lon="-4.6827230">
        <ele>603.0</ele>
        <time>2022-03-01T15:20:10Z</time>
      </trkpt>
      <trkpt lat="40.1129920" lon="-4.6827230">
        <ele>603.0</ele>
        <time>2022-03-01T15:20:11Z</time>
      </trkpt>
      <trkpt lat="40.1130450" lon="-4.6827620">
        <ele>603.0</ele>
        <time>2022-03-01T15:20:12Z</time>
      </trkpt>
      <trkpt lat="40.1130450" lon="-4.6827620">
        <ele>603.0</ele>
        <time>2022-03-01T15:20:13Z</time>
      </trkpt>
      <trkpt lat="40.1131030" lon="-4.6828020">
        <ele>603.0</ele>
        <time>2022-03-01T15:20:14Z</time>
      </trkpt>
      <trkpt lat="40.1131030" lon="-4.6828020">
        <ele>604.0</ele>
        <time>2022-03-01T15:20:15Z</time>
      </trkpt>
      <trkpt lat="40.1131570" lon="-4.6828350">
        <ele>604.0</ele>
        <time>2022-03-01T15:20:16Z</time>
      </trkpt>
      <trkpt lat="40.1131570" lon="-4.6828350">
        <ele>604.0</ele>
        <time>2022-03-01T15:20:17Z</time>
      </trkpt>
      <trkpt lat="40.1132100" lon="-4.6828750">
        <ele>604.0</ele>
        <time>2022-03-01T15:20:18Z</time>
      </trkpt>
      <trkpt lat="40.1132100" lon="-4.6828750">
        <ele>605.0</ele>
        <time>2022-03-01T15:20:19Z</time>
      </trkpt>
      <trkpt lat="40.1132620" lon="-4.6829120">
        <ele>605.0</ele>
        <time>2022-03-01T15:20:20Z</time>
      </trkpt>
      <trkpt lat="40.1132620" lon="-4.6829120">
        <ele>605.0</ele>
        <time>2022-03-01T15:20:21Z</time>
      </trkpt>
      <trkpt lat="40.1133100" lon="-4.6829450">
        <ele>605.0</ele>
        <time>2022-03-01T15:20:22Z</time>
      </trkpt>
      <trkpt lat="40.1133100" lon="-4.6829450">
        <ele>606.0</ele>
        <time>2022-03-01T15:20:23Z</time>
      </trkpt>
      <trkpt lat="40.1133630" lon="-4.6829780">
        <ele>606.0</ele>
        <time>2022-03-01T15:20:24Z</time>
      </trkpt>
      <trkpt lat="40.1133900" lon="-4.6829950">
        <ele>606.0</ele>
        <time>2022-03-01T15:20:25Z</time>
      </trkpt>
      <trkpt lat="40.1133900" lon="-4.6829950">
        <ele>606.0</ele>
        <time>2022-03-01T15:20:26Z</time>
      </trkpt>
      <trkpt lat="40.1134420" lon="-4.6830280">
        <ele>606.0</ele>
        <time>2022-03-01T15:20:27Z</time>
      </trkpt>
      <trkpt lat="40.1134670" lon="-4.6830470">
        <ele>606.0</ele>
        <time>2022-03-01T15:20:28Z</time>
      </trkpt>
      <trkpt lat="40.1134670" lon="-4.6830470">
        <ele>607.0</ele>
        <time>2022-03-01T15:20:29Z</time>
      </trkpt>
      <trkpt lat="40.1135180" lon="-4.6830830">
        <ele>607.0</ele>
        <time>2022-03-01T15:20:30Z</time>
      </trkpt>
      <trkpt lat="40.1135180" lon="-4.6830830">
        <ele>607.0</ele>
        <time>2022-03-01T15:20:31Z</time>
      </trkpt>
      <trkpt lat="40.1135650" lon="-4.6831170">
        <ele>607.0</ele>
        <time>2022-03-01T15:20:32Z</time>
      </trkpt>
      <trkpt lat="40.1135650" lon="-4.6831170">
        <ele>608.0</ele>
        <time>2022-03-01T15:20:33Z</time>
      </trkpt>
      <trkpt lat="40.1136070" lon="-4.6831500">
        <ele>608.0</ele>
        <time>2022-03-01T15:20:34Z</time>
      </trkpt>
      <trkpt lat="40.1136070" lon="-4.6831500">
        <ele>608.0</ele>
        <time>2022-03-01T15:20:35Z</time>
      </trkpt>
      <trkpt lat="40.1136520" lon="-4.6831800">
        <ele>608.0</ele>
        <time>2022-03-01T15:20:36Z</time>
      </trkpt>
      <trkpt lat="40.1136520" lon="-4.6831800">
        <ele>609.0</ele>
        <time>2022-03-01T15:20:37Z</time>
      </trkpt>
      <trkpt lat="40.1137000" lon="-4.6832200">
        <ele>609.0</ele>
        <time>2022-03-01T15:20:38Z</time>
      </trkpt>
      <trkpt lat="40.1137000" lon="-4.6832200">
        <ele>609.0</ele>
        <time>2022-03-01T15:20:39Z</time>
      </trkpt>
      <trkpt lat="40.1137480" lon="-4.6832620">
        <ele>609.0</ele>
        <time>2022-03-01T15:20:40Z</time>
      </trkpt>
      <trkpt lat="40.1137480" lon="-4.6832620">
        <ele>609.0</ele>
        <time>2022-03-01T15:20:41Z</time>
      </trkpt>
      <trkpt lat="40.1137930" lon="-4.6833050">
        <ele>609.0</ele>
        <time>2022-03-01T15:20:42Z</time>
      </trkpt>
      <trkpt lat="40.1137930" lon="-4.6833050">
        <ele>609.0</ele>
        <time>2022-03-01T15:20:43Z</time>
      </trkpt>
      <trkpt lat="40.1138370" lon="-4.6833500">
        <ele>609.0</ele>
        <time>2022-03-01T15:20:44Z</time>
      </trkpt>
      <trkpt lat="40.1138570" lon="-4.6833750">
        <ele>611.0</ele>
        <time>2022-03-01T15:20:45Z</time>
      </trkpt>
      <trkpt lat="40.1138770" lon="-4.6833980">
        <ele>611.0</ele>
        <time>2022-03-01T15:20:46Z</time>
      </trkpt>
      <trkpt lat="40.1138770" lon="-4.6833980">
        <ele>611.0</ele>
        <time>2022-03-01T15:20:47Z</time>
      </trkpt>
      <trkpt lat="40.1139180" lon="-4.6834430">
        <ele>611.0</ele>
        <time>2022-03-01T15:20:48Z</time>
      </trkpt>
      <trkpt lat="40.1139180" lon="-4.6834430">
        <ele>612.0</ele>
        <time>2022-03-01T15:20:49Z</time>
      </trkpt>
      <trkpt lat="40.1139570" lon="-4.6834900">
        <ele>612.0</ele>
        <time>2022-03-01T15:20:50Z</time>
      </trkpt>
      <trkpt lat="40.1139770" lon="-4.6835130">
        <ele>613.0</ele>
        <time>2022-03-01T15:20:51Z</time>
      </trkpt>
      <trkpt lat="40.1139950" lon="-4.6835380">
        <ele>613.0</ele>
        <time>2022-03-01T15:20:52Z</time>
      </trkpt>
      <trkpt lat="40.1139950" lon="-4.6835380">
        <ele>613.0</ele>
        <time>2022-03-01T15:20:53Z</time>
      </trkpt>
      <trkpt lat="40.1140320" lon="-4.6835880">
        <ele>613.0</ele>
        <time>2022-03-01T15:20:54Z</time>
      </trkpt>
      <trkpt lat="40.1140320" lon="-4.6835880">
        <ele>613.0</ele>
        <time>2022-03-01T15:20:55Z</time>
      </trkpt>
      <trkpt lat="40.1140620" lon="-4.6836470">
        <ele>613.0</ele>
        <time>2022-03-01T15:20:56Z</time>
      </trkpt>
      <trkpt lat="40.1140620" lon="-4.6836470">
        <ele>614.0</ele>
        <time>2022-03-01T15:20:57Z</time>
      </trkpt>
      <trkpt lat="40.1140950" lon="-4.6837070">
        <ele>614.0</ele>
        <time>2022-03-01T15:20:58Z</time>
      </trkpt>
      <trkpt lat="40.1140950" lon="-4.6837070">
        <ele>614.0</ele>
        <time>2022-03-01T15:20:59Z</time>
      </trkpt>
      <trkpt lat="40.1141230" lon="-4.6837650">
        <ele>614.0</ele>
        <time>2022-03-01T15:21:00Z</time>
      </trkpt>
      <trkpt lat="40.1141230" lon="-4.6837650">
        <ele>615.0</ele>
        <time>2022-03-01T15:21:01Z</time>
      </trkpt>
      <trkpt lat="40.1141480" lon="-4.6838230">
        <ele>615.0</ele>
        <time>2022-03-01T15:21:02Z</time>
      </trkpt>
      <trkpt lat="40.1141480" lon="-4.6838230">
        <ele>615.0</ele>
        <time>2022-03-01T15:21:03Z</time>
      </trkpt>
      <trkpt lat="40.1141700" lon="-4.6838750">
        <ele>615.0</ele>
        <time>2022-03-01T15:21:04Z</time>
      </trkpt>
      <trkpt lat="40.1141700" lon="-4.6838750">
        <ele>616.0</ele>
        <time>2022-03-01T15:21:05Z</time>
      </trkpt>
      <trkpt lat="40.1141970" lon="-4.6839350">
        <ele>616.0</ele>
        <time>2022-03-01T15:21:06Z</time>
      </trkpt>
      <trkpt lat="40.1141970" lon="-4.6839350">
        <ele>616.0</ele>
        <time>2022-03-01T15:21:07Z</time>
      </trkpt>
      <trkpt lat="40.1142220" lon="-4.6840050">
        <ele>617.0</ele>
        <time>2022-03-01T15:21:08Z</time>
      </trkpt>
      <trkpt lat="40.1142220" lon="-4.6840050">
        <ele>617.0</ele>
        <time>2022-03-01T15:21:09Z</time>
      </trkpt>
      <trkpt lat="40.1142380" lon="-4.6840770">
        <ele>617.0</ele>
        <time>2022-03-01T15:21:10Z</time>
      </trkpt>
      <trkpt lat="40.1142470" lon="-4.6841130">
        <ele>617.0</ele>
        <time>2022-03-01T15:21:11Z</time>
      </trkpt>
      <trkpt lat="40.1142520" lon="-4.6841500">
        <ele>618.0</ele>
        <time>2022-03-01T15:21:12Z</time>
      </trkpt>
      <trkpt lat="40.1142520" lon="-4.6841500">
        <ele>618.0</ele>
        <time>2022-03-01T15:21:13Z</time>
      </trkpt>
      <trkpt lat="40.1142670" lon="-4.6842300">
        <ele>618.0</ele>
        <time>2022-03-01T15:21:14Z</time>
      </trkpt>
      <trkpt lat="40.1142730" lon="-4.6842680">
        <ele>618.0</ele>
        <time>2022-03-01T15:21:15Z</time>
      </trkpt>
      <trkpt lat="40.1142730" lon="-4.6842680">
        <ele>619.0</ele>
        <time>2022-03-01T15:21:16Z</time>
      </trkpt>
      <trkpt lat="40.1142830" lon="-4.6843520">
        <ele>619.0</ele>
        <time>2022-03-01T15:21:17Z</time>
      </trkpt>
      <trkpt lat="40.1142850" lon="-4.6843980">
        <ele>620.0</ele>
        <time>2022-03-01T15:21:18Z</time>
      </trkpt>
      <trkpt lat="40.1142850" lon="-4.6843980">
        <ele>620.0</ele>
        <time>2022-03-01T15:21:19Z</time>
      </trkpt>
      <trkpt lat="40.1142900" lon="-4.6844870">
        <ele>620.0</ele>
        <time>2022-03-01T15:21:20Z</time>
      </trkpt>
      <trkpt lat="40.1142920" lon="-4.6845300">
        <ele>620.0</ele>
        <time>2022-03-01T15:21:21Z</time>
      </trkpt>
      <trkpt lat="40.1142920" lon="-4.6845730">
        <ele>621.0</ele>
        <time>2022-03-01T15:21:22Z</time>
      </trkpt>
      <trkpt lat="40.1142920" lon="-4.6845730">
        <ele>621.0</ele>
        <time>2022-03-01T15:21:23Z</time>
      </trkpt>
      <trkpt lat="40.1142920" lon="-4.6846630">
        <ele>622.0</ele>
        <time>2022-03-01T15:21:24Z</time>
      </trkpt>
      <trkpt lat="40.1142920" lon="-4.6846630">
        <ele>622.0</ele>
        <time>2022-03-01T15:21:25Z</time>
      </trkpt>
      <trkpt lat="40.1142970" lon="-4.6847550">
        <ele>622.0</ele>
        <time>2022-03-01T15:21:26Z</time>
      </trkpt>
      <trkpt lat="40.1142970" lon="-4.6847550">
        <ele>622.0</ele>
        <time>2022-03-01T15:21:27Z</time>
      </trkpt>
      <trkpt lat="40.1142980" lon="-4.6848430">
        <ele>622.0</ele>
        <time>2022-03-01T15:21:28Z</time>
      </trkpt>
      <trkpt lat="40.1142980" lon="-4.6848430">
        <ele>622.0</ele>
        <time>2022-03-01T15:21:29Z</time>
      </trkpt>
      <trkpt lat="40.1142980" lon="-4.6849280">
        <ele>623.0</ele>
        <time>2022-03-01T15:21:30Z</time>
      </trkpt>
      <trkpt lat="40.1142970" lon="-4.6849720">
        <ele>623.0</ele>
        <time>2022-03-01T15:21:31Z</time>
      </trkpt>
      <trkpt lat="40.1142970" lon="-4.6850150">
        <ele>623.0</ele>
        <time>2022-03-01T15:21:32Z</time>
      </trkpt>
      <trkpt lat="40.1142970" lon="-4.6850150">
        <ele>623.0</ele>
        <time>2022-03-01T15:21:33Z</time>
      </trkpt>
      <trkpt lat="40.1143000" lon="-4.6851030">
        <ele>624.0</ele>
        <time>2022-03-01T15:21:34Z</time>
      </trkpt>
      <trkpt lat="40.1143000" lon="-4.6851030">
        <ele>624.0</ele>
        <time>2022-03-01T15:21:35Z</time>
      </trkpt>
      <trkpt lat="40.1143020" lon="-4.6851900">
        <ele>624.0</ele>
        <time>2022-03-01T15:21:36Z</time>
      </trkpt>
      <trkpt lat="40.1143020" lon="-4.6851900">
        <ele>624.0</ele>
        <time>2022-03-01T15:21:37Z</time>
      </trkpt>
      <trkpt lat="40.1143070" lon="-4.6852780">
        <ele>625.0</ele>
        <time>2022-03-01T15:21:38Z</time>
      </trkpt>
      <trkpt lat="40.1143070" lon="-4.6852780">
        <ele>625.0</ele>
        <time>2022-03-01T15:21:39Z</time>
      </trkpt>
      <trkpt lat="40.1143130" lon="-4.6853670">
        <ele>625.0</ele>
        <time>2022-03-01T15:21:40Z</time>
      </trkpt>
      <trkpt lat="40.1143130" lon="-4.6853670">
        <ele>625.0</ele>
        <time>2022-03-01T15:21:41Z</time>
      </trkpt>
      <trkpt lat="40.1143230" lon="-4.6854500">
        <ele>626.0</ele>
        <time>2022-03-01T15:21:42Z</time>
      </trkpt>
      <trkpt lat="40.1143230" lon="-4.6854500">
        <ele>626.0</ele>
        <time>2022-03-01T15:21:43Z</time>
      </trkpt>
      <trkpt lat="40.1143380" lon="-4.6855330">
        <ele>626.0</ele>
        <time>2022-03-01T15:21:44Z</time>
      </trkpt>
      <trkpt lat="40.1143380" lon="-4.6855330">
        <ele>626.0</ele>
        <time>2022-03-01T15:21:45Z</time>
      </trkpt>
      <trkpt lat="40.1143520" lon="-4.6856100">
        <ele>626.0</ele>
        <time>2022-03-01T15:21:46Z</time>
      </trkpt>
      <trkpt lat="40.1143520" lon="-4.6856100">
        <ele>626.0</ele>
        <time>2022-03-01T15:21:47Z</time>
      </trkpt>
      <trkpt lat="40.1143700" lon="-4.6856930">
        <ele>627.0</ele>
        <time>2022-03-01T15:21:48Z</time>
      </trkpt>
      <trkpt lat="40.1143700" lon="-4.6856930">
        <ele>627.0</ele>
        <time>2022-03-01T15:21:49Z</time>
      </trkpt>
      <trkpt lat="40.1143950" lon="-4.6857670">
        <ele>627.0</ele>
        <time>2022-03-01T15:21:50Z</time>
      </trkpt>
      <trkpt lat="40.1144100" lon="-4.6858030">
        <ele>627.0</ele>
        <time>2022-03-01T15:21:51Z</time>
      </trkpt>
      <trkpt lat="40.1144100" lon="-4.6858030">
        <ele>628.0</ele>
        <time>2022-03-01T15:21:52Z</time>
      </trkpt>
      <trkpt lat="40.1144350" lon="-4.6858750">
        <ele>628.0</ele>
        <time>2022-03-01T15:21:53Z</time>
      </trkpt>
      <trkpt lat="40.1144500" lon="-4.6859100">
        <ele>629.0</ele>
        <time>2022-03-01T15:21:54Z</time>
      </trkpt>
      <trkpt lat="40.1144500" lon="-4.6859100">
        <ele>629.0</ele>
        <time>2022-03-01T15:21:55Z</time>
      </trkpt>
      <trkpt lat="40.1144850" lon="-4.6859820">
        <ele>629.0</ele>
        <time>2022-03-01T15:21:56Z</time>
      </trkpt>
      <trkpt lat="40.1144850" lon="-4.6859820">
        <ele>630.0</ele>
        <time>2022-03-01T15:21:57Z</time>
      </trkpt>
      <trkpt lat="40.1145170" lon="-4.6860470">
        <ele>630.0</ele>
        <time>2022-03-01T15:21:58Z</time>
      </trkpt>
      <trkpt lat="40.1145170" lon="-4.6860470">
        <ele>631.0</ele>
        <time>2022-03-01T15:21:59Z</time>
      </trkpt>
      <trkpt lat="40.1145530" lon="-4.6861180">
        <ele>631.0</ele>
        <time>2022-03-01T15:22:00Z</time>
      </trkpt>
      <trkpt lat="40.1145730" lon="-4.6861520">
        <ele>632.0</ele>
        <time>2022-03-01T15:22:01Z</time>
      </trkpt>
      <trkpt lat="40.1145730" lon="-4.6861520">
        <ele>632.0</ele>
        <time>2022-03-01T15:22:02Z</time>
      </trkpt>
      <trkpt lat="40.1146150" lon="-4.6862150">
        <ele>632.0</ele>
        <time>2022-03-01T15:22:03Z</time>
      </trkpt>
      <trkpt lat="40.1146370" lon="-4.6862450">
        <ele>632.0</ele>
        <time>2022-03-01T15:22:04Z</time>
      </trkpt>
      <trkpt lat="40.1146370" lon="-4.6862450">
        <ele>632.0</ele>
        <time>2022-03-01T15:22:05Z</time>
      </trkpt>
      <trkpt lat="40.1146770" lon="-4.6863070">
        <ele>632.0</ele>
        <time>2022-03-01T15:22:06Z</time>
      </trkpt>
      <trkpt lat="40.1146980" lon="-4.6863370">
        <ele>632.0</ele>
        <time>2022-03-01T15:22:07Z</time>
      </trkpt>
      <trkpt lat="40.1146980" lon="-4.6863370">
        <ele>632.0</ele>
        <time>2022-03-01T15:22:08Z</time>
      </trkpt>
      <trkpt lat="40.1147450" lon="-4.6863930">
        <ele>633.0</ele>
        <time>2022-03-01T15:22:09Z</time>
      </trkpt>
      <trkpt lat="40.1147700" lon="-4.6864200">
        <ele>633.0</ele>
        <time>2022-03-01T15:22:10Z</time>
      </trkpt>
      <trkpt lat="40.1147700" lon="-4.6864200">
        <ele>633.0</ele>
        <time>2022-03-01T15:22:11Z</time>
      </trkpt>
      <trkpt lat="40.1148200" lon="-4.6864770">
        <ele>633.0</ele>
        <time>2022-03-01T15:22:12Z</time>
      </trkpt>
      <trkpt lat="40.1148200" lon="-4.6864770">
        <ele>634.0</ele>
        <time>2022-03-01T15:22:13Z</time>
      </trkpt>
      <trkpt lat="40.1148700" lon="-4.6865320">
        <ele>634.0</ele>
        <time>2022-03-01T15:22:14Z</time>
      </trkpt>
      <trkpt lat="40.1148700" lon="-4.6865320">
        <ele>635.0</ele>
        <time>2022-03-01T15:22:15Z</time>
      </trkpt>
      <trkpt lat="40.1149100" lon="-4.6865870">
        <ele>635.0</ele>
        <time>2022-03-01T15:22:16Z</time>
      </trkpt>
      <trkpt lat="40.1149100" lon="-4.6865870">
        <ele>635.0</ele>
        <time>2022-03-01T15:22:17Z</time>
      </trkpt>
      <trkpt lat="40.1149580" lon="-4.6866430">
        <ele>635.0</ele>
        <time>2022-03-01T15:22:18Z</time>
      </trkpt>
      <trkpt lat="40.1149580" lon="-4.6866430">
        <ele>636.0</ele>
        <time>2022-03-01T15:22:19Z</time>
      </trkpt>
      <trkpt lat="40.1150080" lon="-4.6866930">
        <ele>636.0</ele>
        <time>2022-03-01T15:22:20Z</time>
      </trkpt>
      <trkpt lat="40.1150080" lon="-4.6866930">
        <ele>636.0</ele>
        <time>2022-03-01T15:22:21Z</time>
      </trkpt>
      <trkpt lat="40.1150630" lon="-4.6867530">
        <ele>636.0</ele>
        <time>2022-03-01T15:22:22Z</time>
      </trkpt>
      <trkpt lat="40.1150900" lon="-4.6867820">
        <ele>637.0</ele>
        <time>2022-03-01T15:22:23Z</time>
      </trkpt>
      <trkpt lat="40.1151150" lon="-4.6868120">
        <ele>637.0</ele>
        <time>2022-03-01T15:22:24Z</time>
      </trkpt>
      <trkpt lat="40.1151150" lon="-4.6868120">
        <ele>638.0</ele>
        <time>2022-03-01T15:22:25Z</time>
      </trkpt>
      <trkpt lat="40.1151680" lon="-4.6868700">
        <ele>638.0</ele>
        <time>2022-03-01T15:22:26Z</time>
      </trkpt>
      <trkpt lat="40.1151680" lon="-4.6868700">
        <ele>639.0</ele>
        <time>2022-03-01T15:22:27Z</time>
      </trkpt>
      <trkpt lat="40.1152220" lon="-4.6869330">
        <ele>639.0</ele>
        <time>2022-03-01T15:22:28Z</time>
      </trkpt>
      <trkpt lat="40.1152220" lon="-4.6869330">
        <ele>639.0</ele>
        <time>2022-03-01T15:22:29Z</time>
      </trkpt>
      <trkpt lat="40.1152720" lon="-4.6870030">
        <ele>639.0</ele>
        <time>2022-03-01T15:22:30Z</time>
      </trkpt>
      <trkpt lat="40.1152720" lon="-4.6870030">
        <ele>640.0</ele>
        <time>2022-03-01T15:22:31Z</time>
      </trkpt>
      <trkpt lat="40.1153230" lon="-4.6870750">
        <ele>640.0</ele>
        <time>2022-03-01T15:22:32Z</time>
      </trkpt>
      <trkpt lat="40.1153470" lon="-4.6871130">
        <ele>640.0</ele>
        <time>2022-03-01T15:22:33Z</time>
      </trkpt>
      <trkpt lat="40.1153720" lon="-4.6871530">
        <ele>640.0</ele>
        <time>2022-03-01T15:22:34Z</time>
      </trkpt>
      <trkpt lat="40.1153720" lon="-4.6871530">
        <ele>641.0</ele>
        <time>2022-03-01T15:22:35Z</time>
      </trkpt>
      <trkpt lat="40.1154170" lon="-4.6872350">
        <ele>641.0</ele>
        <time>2022-03-01T15:22:36Z</time>
      </trkpt>
      <trkpt lat="40.1154170" lon="-4.6872350">
        <ele>641.0</ele>
        <time>2022-03-01T15:22:37Z</time>
      </trkpt>
      <trkpt lat="40.1154630" lon="-4.6873270">
        <ele>641.0</ele>
        <time>2022-03-01T15:22:38Z</time>
      </trkpt>
      <trkpt lat="40.1154850" lon="-4.6873730">
        <ele>641.0</ele>
        <time>2022-03-01T15:22:39Z</time>
      </trkpt>
      <trkpt lat="40.1155080" lon="-4.6874230">
        <ele>641.0</ele>
        <time>2022-03-01T15:22:40Z</time>
      </trkpt>
      <trkpt lat="40.1155080" lon="-4.6874230">
        <ele>642.0</ele>
        <time>2022-03-01T15:22:41Z</time>
      </trkpt>
      <trkpt lat="40.1155530" lon="-4.6875200">
        <ele>642.0</ele>
        <time>2022-03-01T15:22:42Z</time>
      </trkpt>
      <trkpt lat="40.1155530" lon="-4.6875200">
        <ele>642.0</ele>
        <time>2022-03-01T15:22:43Z</time>
      </trkpt>
      <trkpt lat="40.1155920" lon="-4.6876180">
        <ele>642.0</ele>
        <time>2022-03-01T15:22:44Z</time>
      </trkpt>
      <trkpt lat="40.1155920" lon="-4.6876180">
        <ele>642.0</ele>
        <time>2022-03-01T15:22:45Z</time>
      </trkpt>
      <trkpt lat="40.1156170" lon="-4.6877200">
        <ele>642.0</ele>
        <time>2022-03-01T15:22:46Z</time>
      </trkpt>
      <trkpt lat="40.1156170" lon="-4.6877200">
        <ele>642.0</ele>
        <time>2022-03-01T15:22:47Z</time>
      </trkpt>
      <trkpt lat="40.1156480" lon="-4.6878250">
        <ele>642.0</ele>
        <time>2022-03-01T15:22:48Z</time>
      </trkpt>
      <trkpt lat="40.1156480" lon="-4.6878250">
        <ele>642.0</ele>
        <time>2022-03-01T15:22:49Z</time>
      </trkpt>
      <trkpt lat="40.1156800" lon="-4.6879350">
        <ele>642.0</ele>
        <time>2022-03-01T15:22:50Z</time>
      </trkpt>
      <trkpt lat="40.1156800" lon="-4.6879350">
        <ele>642.0</ele>
        <time>2022-03-01T15:22:51Z</time>
      </trkpt>
      <trkpt lat="40.1157100" lon="-4.6880520">
        <ele>642.0</ele>
        <time>2022-03-01T15:22:52Z</time>
      </trkpt>
      <trkpt lat="40.1157100" lon="-4.6880520">
        <ele>642.0</ele>
        <time>2022-03-01T15:22:53Z</time>
      </trkpt>
      <trkpt lat="40.1157420" lon="-4.6881750">
        <ele>642.0</ele>
        <time>2022-03-01T15:22:54Z</time>
      </trkpt>
      <trkpt lat="40.1157420" lon="-4.6881750">
        <ele>642.0</ele>
        <time>2022-03-01T15:22:55Z</time>
      </trkpt>
      <trkpt lat="40.1157750" lon="-4.6883050">
        <ele>643.0</ele>
        <time>2022-03-01T15:22:56Z</time>
      </trkpt>
      <trkpt lat="40.1157750" lon="-4.6883050">
        <ele>643.0</ele>
        <time>2022-03-01T15:22:57Z</time>
      </trkpt>
      <trkpt lat="40.1158080" lon="-4.6884400">
        <ele>643.0</ele>
        <time>2022-03-01T15:22:58Z</time>
      </trkpt>
      <trkpt lat="40.1158080" lon="-4.6884400">
        <ele>643.0</ele>
        <time>2022-03-01T15:22:59Z</time>
      </trkpt>
      <trkpt lat="40.1158430" lon="-4.6885770">
        <ele>643.0</ele>
        <time>2022-03-01T15:23:00Z</time>
      </trkpt>
      <trkpt lat="40.1158430" lon="-4.6885770">
        <ele>643.0</ele>
        <time>2022-03-01T15:23:01Z</time>
      </trkpt>
      <trkpt lat="40.1158830" lon="-4.6887130">
        <ele>642.0</ele>
        <time>2022-03-01T15:23:02Z</time>
      </trkpt>
      <trkpt lat="40.1158830" lon="-4.6887130">
        <ele>642.0</ele>
        <time>2022-03-01T15:23:03Z</time>
      </trkpt>
      <trkpt lat="40.1159250" lon="-4.6888500">
        <ele>642.0</ele>
        <time>2022-03-01T15:23:04Z</time>
      </trkpt>
      <trkpt lat="40.1159250" lon="-4.6888500">
        <ele>642.0</ele>
        <time>2022-03-01T15:23:05Z</time>
      </trkpt>
      <trkpt lat="40.1159620" lon="-4.6889880">
        <ele>642.0</ele>
        <time>2022-03-01T15:23:06Z</time>
      </trkpt>
      <trkpt lat="40.1159620" lon="-4.6889880">
        <ele>642.0</ele>
        <time>2022-03-01T15:23:07Z</time>
      </trkpt>
      <trkpt lat="40.1159930" lon="-4.6891180">
        <ele>642.0</ele>
        <time>2022-03-01T15:23:08Z</time>
      </trkpt>
      <trkpt lat="40.1160120" lon="-4.6891870">
        <ele>642.0</ele>
        <time>2022-03-01T15:23:09Z</time>
      </trkpt>
      <trkpt lat="40.1160300" lon="-4.6892620">
        <ele>642.0</ele>
        <time>2022-03-01T15:23:10Z</time>
      </trkpt>
      <trkpt lat="40.1160300" lon="-4.6892620">
        <ele>642.0</ele>
        <time>2022-03-01T15:23:11Z</time>
      </trkpt>
      <trkpt lat="40.1160650" lon="-4.6894030">
        <ele>642.0</ele>
        <time>2022-03-01T15:23:12Z</time>
      </trkpt>
      <trkpt lat="40.1160650" lon="-4.6894030">
        <ele>642.0</ele>
        <time>2022-03-01T15:23:13Z</time>
      </trkpt>
      <trkpt lat="40.1161120" lon="-4.6895450">
        <ele>642.0</ele>
        <time>2022-03-01T15:23:14Z</time>
      </trkpt>
      <trkpt lat="40.1161120" lon="-4.6895450">
        <ele>641.0</ele>
        <time>2022-03-01T15:23:15Z</time>
      </trkpt>
      <trkpt lat="40.1161550" lon="-4.6896880">
        <ele>641.0</ele>
        <time>2022-03-01T15:23:16Z</time>
      </trkpt>
      <trkpt lat="40.1161550" lon="-4.6896880">
        <ele>641.0</ele>
        <time>2022-03-01T15:23:17Z</time>
      </trkpt>
      <trkpt lat="40.1162000" lon="-4.6898300">
        <ele>641.0</ele>
        <time>2022-03-01T15:23:18Z</time>
      </trkpt>
      <trkpt lat="40.1162000" lon="-4.6898300">
        <ele>641.0</ele>
        <time>2022-03-01T15:23:19Z</time>
      </trkpt>
      <trkpt lat="40.1162530" lon="-4.6899730">
        <ele>641.0</ele>
        <time>2022-03-01T15:23:20Z</time>
      </trkpt>
      <trkpt lat="40.1162530" lon="-4.6899730">
        <ele>642.0</ele>
        <time>2022-03-01T15:23:21Z</time>
      </trkpt>
      <trkpt lat="40.1163150" lon="-4.6901020">
        <ele>642.0</ele>
        <time>2022-03-01T15:23:22Z</time>
      </trkpt>
      <trkpt lat="40.1163470" lon="-4.6901620">
        <ele>642.0</ele>
        <time>2022-03-01T15:23:23Z</time>
      </trkpt>
      <trkpt lat="40.1163780" lon="-4.6902170">
        <ele>642.0</ele>
        <time>2022-03-01T15:23:24Z</time>
      </trkpt>
      <trkpt lat="40.1163780" lon="-4.6902170">
        <ele>642.0</ele>
        <time>2022-03-01T15:23:25Z</time>
      </trkpt>
      <trkpt lat="40.1164420" lon="-4.6903180">
        <ele>642.0</ele>
        <time>2022-03-01T15:23:26Z</time>
      </trkpt>
      <trkpt lat="40.1164420" lon="-4.6903180">
        <ele>643.0</ele>
        <time>2022-03-01T15:23:27Z</time>
      </trkpt>
      <trkpt lat="40.1165050" lon="-4.6904000">
        <ele>643.0</ele>
        <time>2022-03-01T15:23:28Z</time>
      </trkpt>
      <trkpt lat="40.1165050" lon="-4.6904000">
        <ele>643.0</ele>
        <time>2022-03-01T15:23:29Z</time>
      </trkpt>
      <trkpt lat="40.1165650" lon="-4.6904780">
        <ele>643.0</ele>
        <time>2022-03-01T15:23:30Z</time>
      </trkpt>
      <trkpt lat="40.1165650" lon="-4.6904780">
        <ele>644.0</ele>
        <time>2022-03-01T15:23:31Z</time>
      </trkpt>
      <trkpt lat="40.1166280" lon="-4.6905530">
        <ele>644.0</ele>
        <time>2022-03-01T15:23:32Z</time>
      </trkpt>
      <trkpt lat="40.1166600" lon="-4.6905900">
        <ele>644.0</ele>
        <time>2022-03-01T15:23:33Z</time>
      </trkpt>
      <trkpt lat="40.1166930" lon="-4.6906250">
        <ele>644.0</ele>
        <time>2022-03-01T15:23:34Z</time>
      </trkpt>
      <trkpt lat="40.1166930" lon="-4.6906250">
        <ele>645.0</ele>
        <time>2022-03-01T15:23:35Z</time>
      </trkpt>
      <trkpt lat="40.1167600" lon="-4.6906870">
        <ele>645.0</ele>
        <time>2022-03-01T15:23:36Z</time>
      </trkpt>
      <trkpt lat="40.1167600" lon="-4.6906870">
        <ele>645.0</ele>
        <time>2022-03-01T15:23:37Z</time>
      </trkpt>
      <trkpt lat="40.1168270" lon="-4.6907430">
        <ele>645.0</ele>
        <time>2022-03-01T15:23:38Z</time>
      </trkpt>
      <trkpt lat="40.1168600" lon="-4.6907680">
        <ele>646.0</ele>
        <time>2022-03-01T15:23:39Z</time>
      </trkpt>
      <trkpt lat="40.1168930" lon="-4.6907930">
        <ele>646.0</ele>
        <time>2022-03-01T15:23:40Z</time>
      </trkpt>
      <trkpt lat="40.1168930" lon="-4.6907930">
        <ele>646.0</ele>
        <time>2022-03-01T15:23:41Z</time>
      </trkpt>
      <trkpt lat="40.1169620" lon="-4.6908420">
        <ele>647.0</ele>
        <time>2022-03-01T15:23:42Z</time>
      </trkpt>
      <trkpt lat="40.1169950" lon="-4.6908670">
        <ele>647.0</ele>
        <time>2022-03-01T15:23:43Z</time>
      </trkpt>
      <trkpt lat="40.1169950" lon="-4.6908670">
        <ele>647.0</ele>
        <time>2022-03-01T15:23:44Z</time>
      </trkpt>
      <trkpt lat="40.1170630" lon="-4.6909070">
        <ele>647.0</ele>
        <time>2022-03-01T15:23:45Z</time>
      </trkpt>
      <trkpt lat="40.1171000" lon="-4.6909250">
        <ele>648.0</ele>
        <time>2022-03-01T15:23:46Z</time>
      </trkpt>
      <trkpt lat="40.1171000" lon="-4.6909250">
        <ele>648.0</ele>
        <time>2022-03-01T15:23:47Z</time>
      </trkpt>
      <trkpt lat="40.1171750" lon="-4.6909630">
        <ele>648.0</ele>
        <time>2022-03-01T15:23:48Z</time>
      </trkpt>
      <trkpt lat="40.1171750" lon="-4.6909630">
        <ele>648.0</ele>
        <time>2022-03-01T15:23:49Z</time>
      </trkpt>
      <trkpt lat="40.1172450" lon="-4.6909980">
        <ele>649.0</ele>
        <time>2022-03-01T15:23:50Z</time>
      </trkpt>
      <trkpt lat="40.1172450" lon="-4.6909980">
        <ele>649.0</ele>
        <time>2022-03-01T15:23:51Z</time>
      </trkpt>
      <trkpt lat="40.1173150" lon="-4.6910300">
        <ele>649.0</ele>
        <time>2022-03-01T15:23:52Z</time>
      </trkpt>
      <trkpt lat="40.1173150" lon="-4.6910300">
        <ele>649.0</ele>
        <time>2022-03-01T15:23:53Z</time>
      </trkpt>
      <trkpt lat="40.1173880" lon="-4.6910570">
        <ele>650.0</ele>
        <time>2022-03-01T15:23:54Z</time>
      </trkpt>
      <trkpt lat="40.1173880" lon="-4.6910570">
        <ele>650.0</ele>
        <time>2022-03-01T15:23:55Z</time>
      </trkpt>
      <trkpt lat="40.1174620" lon="-4.6910850">
        <ele>650.0</ele>
        <time>2022-03-01T15:23:56Z</time>
      </trkpt>
      <trkpt lat="40.1174620" lon="-4.6910850">
        <ele>650.0</ele>
        <time>2022-03-01T15:23:57Z</time>
      </trkpt>
      <trkpt lat="40.1175370" lon="-4.6911080">
        <ele>650.0</ele>
        <time>2022-03-01T15:23:58Z</time>
      </trkpt>
      <trkpt lat="40.1175370" lon="-4.6911080">
        <ele>650.0</ele>
        <time>2022-03-01T15:23:59Z</time>
      </trkpt>
      <trkpt lat="40.1176120" lon="-4.6911320">
        <ele>650.0</ele>
        <time>2022-03-01T15:24:00Z</time>
      </trkpt>
      <trkpt lat="40.1176120" lon="-4.6911320">
        <ele>650.0</ele>
        <time>2022-03-01T15:24:01Z</time>
      </trkpt>
      <trkpt lat="40.1176870" lon="-4.6911550">
        <ele>651.0</ele>
        <time>2022-03-01T15:24:02Z</time>
      </trkpt>
      <trkpt lat="40.1176870" lon="-4.6911550">
        <ele>651.0</ele>
        <time>2022-03-01T15:24:03Z</time>
      </trkpt>
      <trkpt lat="40.1177600" lon="-4.6911800">
        <ele>651.0</ele>
        <time>2022-03-01T15:24:04Z</time>
      </trkpt>
      <trkpt lat="40.1177600" lon="-4.6911800">
        <ele>651.0</ele>
        <time>2022-03-01T15:24:05Z</time>
      </trkpt>
      <trkpt lat="40.1178350" lon="-4.6912030">
        <ele>652.0</ele>
        <time>2022-03-01T15:24:06Z</time>
      </trkpt>
      <trkpt lat="40.1178350" lon="-4.6912030">
        <ele>652.0</ele>
        <time>2022-03-01T15:24:07Z</time>
      </trkpt>
      <trkpt lat="40.1179080" lon="-4.6912300">
        <ele>652.0</ele>
        <time>2022-03-01T15:24:08Z</time>
      </trkpt>
      <trkpt lat="40.1179450" lon="-4.6912420">
        <ele>652.0</ele>
        <time>2022-03-01T15:24:09Z</time>
      </trkpt>
      <trkpt lat="40.1179450" lon="-4.6912420">
        <ele>653.0</ele>
        <time>2022-03-01T15:24:10Z</time>
      </trkpt>
      <trkpt lat="40.1180180" lon="-4.6912650">
        <ele>653.0</ele>
        <time>2022-03-01T15:24:11Z</time>
      </trkpt>
      <trkpt lat="40.1180180" lon="-4.6912650">
        <ele>653.0</ele>
        <time>2022-03-01T15:24:12Z</time>
      </trkpt>
      <trkpt lat="40.1180900" lon="-4.6912900">
        <ele>653.0</ele>
        <time>2022-03-01T15:24:13Z</time>
      </trkpt>
      <trkpt lat="40.1180900" lon="-4.6912900">
        <ele>653.0</ele>
        <time>2022-03-01T15:24:14Z</time>
      </trkpt>
      <trkpt lat="40.1181630" lon="-4.6913080">
        <ele>653.0</ele>
        <time>2022-03-01T15:24:15Z</time>
      </trkpt>
      <trkpt lat="40.1182000" lon="-4.6913180">
        <ele>654.0</ele>
        <time>2022-03-01T15:24:16Z</time>
      </trkpt>
      <trkpt lat="40.1182000" lon="-4.6913180">
        <ele>654.0</ele>
        <time>2022-03-01T15:24:17Z</time>
      </trkpt>
      <trkpt lat="40.1182750" lon="-4.6913380">
        <ele>654.0</ele>
        <time>2022-03-01T15:24:18Z</time>
      </trkpt>
      <trkpt lat="40.1182750" lon="-4.6913380">
        <ele>654.0</ele>
        <time>2022-03-01T15:24:19Z</time>
      </trkpt>
      <trkpt lat="40.1183520" lon="-4.6913570">
        <ele>656.0</ele>
        <time>2022-03-01T15:24:20Z</time>
      </trkpt>
      <trkpt lat="40.1183520" lon="-4.6913570">
        <ele>656.0</ele>
        <time>2022-03-01T15:24:21Z</time>
      </trkpt>
      <trkpt lat="40.1184230" lon="-4.6913670">
        <ele>656.0</ele>
        <time>2022-03-01T15:24:22Z</time>
      </trkpt>
      <trkpt lat="40.1184230" lon="-4.6913670">
        <ele>656.0</ele>
        <time>2022-03-01T15:24:23Z</time>
      </trkpt>
      <trkpt lat="40.1184950" lon="-4.6913780">
        <ele>656.0</ele>
        <time>2022-03-01T15:24:24Z</time>
      </trkpt>
      <trkpt lat="40.1184950" lon="-4.6913780">
        <ele>656.0</ele>
        <time>2022-03-01T15:24:25Z</time>
      </trkpt>
      <trkpt lat="40.1185720" lon="-4.6913870">
        <ele>657.0</ele>
        <time>2022-03-01T15:24:26Z</time>
      </trkpt>
      <trkpt lat="40.1185720" lon="-4.6913870">
        <ele>657.0</ele>
        <time>2022-03-01T15:24:27Z</time>
      </trkpt>
      <trkpt lat="40.1186480" lon="-4.6913920">
        <ele>657.0</ele>
        <time>2022-03-01T15:24:28Z</time>
      </trkpt>
      <trkpt lat="40.1186870" lon="-4.6913950">
        <ele>657.0</ele>
        <time>2022-03-01T15:24:29Z</time>
      </trkpt>
      <trkpt lat="40.1186870" lon="-4.6913950">
        <ele>657.0</ele>
        <time>2022-03-01T15:24:30Z</time>
      </trkpt>
      <trkpt lat="40.1187620" lon="-4.6914050">
        <ele>657.0</ele>
        <time>2022-03-01T15:24:31Z</time>
      </trkpt>
      <trkpt lat="40.1187620" lon="-4.6914050">
        <ele>657.0</ele>
        <time>2022-03-01T15:24:32Z</time>
      </trkpt>
      <trkpt lat="40.1188400" lon="-4.6914100">
        <ele>657.0</ele>
        <time>2022-03-01T15:24:33Z</time>
      </trkpt>
      <trkpt lat="40.1188770" lon="-4.6914150">
        <ele>657.0</ele>
        <time>2022-03-01T15:24:34Z</time>
      </trkpt>
      <trkpt lat="40.1188770" lon="-4.6914150">
        <ele>658.0</ele>
        <time>2022-03-01T15:24:35Z</time>
      </trkpt>
      <trkpt lat="40.1189500" lon="-4.6914180">
        <ele>658.0</ele>
        <time>2022-03-01T15:24:36Z</time>
      </trkpt>
      <trkpt lat="40.1189500" lon="-4.6914180">
        <ele>658.0</ele>
        <time>2022-03-01T15:24:37Z</time>
      </trkpt>
      <trkpt lat="40.1190250" lon="-4.6914200">
        <ele>658.0</ele>
        <time>2022-03-01T15:24:38Z</time>
      </trkpt>
      <trkpt lat="40.1190250" lon="-4.6914200">
        <ele>659.0</ele>
        <time>2022-03-01T15:24:39Z</time>
      </trkpt>
      <trkpt lat="40.1190970" lon="-4.6914250">
        <ele>659.0</ele>
        <time>2022-03-01T15:24:40Z</time>
      </trkpt>
      <trkpt lat="40.1190970" lon="-4.6914250">
        <ele>659.0</ele>
        <time>2022-03-01T15:24:41Z</time>
      </trkpt>
      <trkpt lat="40.1191720" lon="-4.6914280">
        <ele>659.0</ele>
        <time>2022-03-01T15:24:42Z</time>
      </trkpt>
      <trkpt lat="40.1192080" lon="-4.6914280">
        <ele>660.0</ele>
        <time>2022-03-01T15:24:43Z</time>
      </trkpt>
      <trkpt lat="40.1192450" lon="-4.6914280">
        <ele>660.0</ele>
        <time>2022-03-01T15:24:44Z</time>
      </trkpt>
      <trkpt lat="40.1192820" lon="-4.6914270">
        <ele>660.0</ele>
        <time>2022-03-01T15:24:45Z</time>
      </trkpt>
      <trkpt lat="40.1192820" lon="-4.6914270">
        <ele>660.0</ele>
        <time>2022-03-01T15:24:46Z</time>
      </trkpt>
      <trkpt lat="40.1193530" lon="-4.6914230">
        <ele>661.0</ele>
        <time>2022-03-01T15:24:47Z</time>
      </trkpt>
      <trkpt lat="40.1193920" lon="-4.6914220">
        <ele>661.0</ele>
        <time>2022-03-01T15:24:48Z</time>
      </trkpt>
      <trkpt lat="40.1193920" lon="-4.6914220">
        <ele>662.0</ele>
        <time>2022-03-01T15:24:49Z</time>
      </trkpt>
      <trkpt lat="40.1194650" lon="-4.6914170">
        <ele>662.0</ele>
        <time>2022-03-01T15:24:50Z</time>
      </trkpt>
      <trkpt lat="40.1195050" lon="-4.6914130">
        <ele>662.0</ele>
        <time>2022-03-01T15:24:51Z</time>
      </trkpt>
      <trkpt lat="40.1195500" lon="-4.6914100">
        <ele>662.0</ele>
        <time>2022-03-01T15:24:52Z</time>
      </trkpt>
      <trkpt lat="40.1195500" lon="-4.6914100">
        <ele>663.0</ele>
        <time>2022-03-01T15:24:53Z</time>
      </trkpt>
      <trkpt lat="40.1196320" lon="-4.6914000">
        <ele>663.0</ele>
        <time>2022-03-01T15:24:54Z</time>
      </trkpt>
      <trkpt lat="40.1196320" lon="-4.6914000">
        <ele>663.0</ele>
        <time>2022-03-01T15:24:55Z</time>
      </trkpt>
      <trkpt lat="40.1197150" lon="-4.6913980">
        <ele>663.0</ele>
        <time>2022-03-01T15:24:56Z</time>
      </trkpt>
      <trkpt lat="40.1197150" lon="-4.6913980">
        <ele>663.0</ele>
        <time>2022-03-01T15:24:57Z</time>
      </trkpt>
      <trkpt lat="40.1197930" lon="-4.6913920">
        <ele>663.0</ele>
        <time>2022-03-01T15:24:58Z</time>
      </trkpt>
      <trkpt lat="40.1198330" lon="-4.6913870">
        <ele>664.0</ele>
        <time>2022-03-01T15:24:59Z</time>
      </trkpt>
      <trkpt lat="40.1198330" lon="-4.6913870">
        <ele>664.0</ele>
        <time>2022-03-01T15:25:00Z</time>
      </trkpt>
      <trkpt lat="40.1199130" lon="-4.6913770">
        <ele>664.0</ele>
        <time>2022-03-01T15:25:01Z</time>
      </trkpt>
      <trkpt lat="40.1199550" lon="-4.6913680">
        <ele>664.0</ele>
        <time>2022-03-01T15:25:02Z</time>
      </trkpt>
      <trkpt lat="40.1199550" lon="-4.6913680">
        <ele>665.0</ele>
        <time>2022-03-01T15:25:03Z</time>
      </trkpt>
      <trkpt lat="40.1200330" lon="-4.6913520">
        <ele>665.0</ele>
        <time>2022-03-01T15:25:04Z</time>
      </trkpt>
      <trkpt lat="40.1200330" lon="-4.6913520">
        <ele>665.0</ele>
        <time>2022-03-01T15:25:05Z</time>
      </trkpt>
      <trkpt lat="40.1201080" lon="-4.6913330">
        <ele>665.0</ele>
        <time>2022-03-01T15:25:06Z</time>
      </trkpt>
      <trkpt lat="40.1201080" lon="-4.6913330">
        <ele>666.0</ele>
        <time>2022-03-01T15:25:07Z</time>
      </trkpt>
      <trkpt lat="40.1201780" lon="-4.6913130">
        <ele>666.0</ele>
        <time>2022-03-01T15:25:08Z</time>
      </trkpt>
      <trkpt lat="40.1201780" lon="-4.6913130">
        <ele>666.0</ele>
        <time>2022-03-01T15:25:09Z</time>
      </trkpt>
      <trkpt lat="40.1202580" lon="-4.6912920">
        <ele>666.0</ele>
        <time>2022-03-01T15:25:10Z</time>
      </trkpt>
      <trkpt lat="40.1202580" lon="-4.6912920">
        <ele>667.0</ele>
        <time>2022-03-01T15:25:11Z</time>
      </trkpt>
      <trkpt lat="40.1203380" lon="-4.6912700">
        <ele>667.0</ele>
        <time>2022-03-01T15:25:12Z</time>
      </trkpt>
      <trkpt lat="40.1203820" lon="-4.6912570">
        <ele>667.0</ele>
        <time>2022-03-01T15:25:13Z</time>
      </trkpt>
      <trkpt lat="40.1203820" lon="-4.6912570">
        <ele>667.0</ele>
        <time>2022-03-01T15:25:14Z</time>
      </trkpt>
      <trkpt lat="40.1204670" lon="-4.6912300">
        <ele>668.0</ele>
        <time>2022-03-01T15:25:15Z</time>
      </trkpt>
      <trkpt lat="40.1205080" lon="-4.6912150">
        <ele>668.0</ele>
        <time>2022-03-01T15:25:16Z</time>
      </trkpt>
      <trkpt lat="40.1205080" lon="-4.6912150">
        <ele>668.0</ele>
        <time>2022-03-01T15:25:17Z</time>
      </trkpt>
      <trkpt lat="40.1205880" lon="-4.6911870">
        <ele>668.0</ele>
        <time>2022-03-01T15:25:18Z</time>
      </trkpt>
      <trkpt lat="40.1205880" lon="-4.6911870">
        <ele>669.0</ele>
        <time>2022-03-01T15:25:19Z</time>
      </trkpt>
      <trkpt lat="40.1206670" lon="-4.6911600">
        <ele>669.0</ele>
        <time>2022-03-01T15:25:20Z</time>
      </trkpt>
      <trkpt lat="40.1207050" lon="-4.6911470">
        <ele>669.0</ele>
        <time>2022-03-01T15:25:21Z</time>
      </trkpt>
      <trkpt lat="40.1207050" lon="-4.6911470">
        <ele>669.0</ele>
        <time>2022-03-01T15:25:22Z</time>
      </trkpt>
      <trkpt lat="40.1207780" lon="-4.6911200">
        <ele>669.0</ele>
        <time>2022-03-01T15:25:23Z</time>
      </trkpt>
      <trkpt lat="40.1208150" lon="-4.6911050">
        <ele>669.0</ele>
        <time>2022-03-01T15:25:24Z</time>
      </trkpt>
      <trkpt lat="40.1208150" lon="-4.6911050">
        <ele>670.0</ele>
        <time>2022-03-01T15:25:25Z</time>
      </trkpt>
      <trkpt lat="40.1208850" lon="-4.6910800">
        <ele>670.0</ele>
        <time>2022-03-01T15:25:26Z</time>
      </trkpt>
      <trkpt lat="40.1208850" lon="-4.6910800">
        <ele>670.0</ele>
        <time>2022-03-01T15:25:27Z</time>
      </trkpt>
      <trkpt lat="40.1209530" lon="-4.6910520">
        <ele>670.0</ele>
        <time>2022-03-01T15:25:28Z</time>
      </trkpt>
      <trkpt lat="40.1209530" lon="-4.6910520">
        <ele>670.0</ele>
        <time>2022-03-01T15:25:29Z</time>
      </trkpt>
      <trkpt lat="40.1210220" lon="-4.6910230">
        <ele>671.0</ele>
        <time>2022-03-01T15:25:30Z</time>
      </trkpt>
      <trkpt lat="40.1210220" lon="-4.6910230">
        <ele>671.0</ele>
        <time>2022-03-01T15:25:31Z</time>
      </trkpt>
      <trkpt lat="40.1210920" lon="-4.6909920">
        <ele>671.0</ele>
        <time>2022-03-01T15:25:32Z</time>
      </trkpt>
      <trkpt lat="40.1211280" lon="-4.6909770">
        <ele>671.0</ele>
        <time>2022-03-01T15:25:33Z</time>
      </trkpt>
      <trkpt lat="40.1211650" lon="-4.6909630">
        <ele>672.0</ele>
        <time>2022-03-01T15:25:34Z</time>
      </trkpt>
      <trkpt lat="40.1211650" lon="-4.6909630">
        <ele>672.0</ele>
        <time>2022-03-01T15:25:35Z</time>
      </trkpt>
      <trkpt lat="40.1212370" lon="-4.6909380">
        <ele>673.0</ele>
        <time>2022-03-01T15:25:36Z</time>
      </trkpt>
      <trkpt lat="40.1212370" lon="-4.6909380">
        <ele>673.0</ele>
        <time>2022-03-01T15:25:37Z</time>
      </trkpt>
      <trkpt lat="40.1213120" lon="-4.6909120">
        <ele>673.0</ele>
        <time>2022-03-01T15:25:38Z</time>
      </trkpt>
      <trkpt lat="40.1213120" lon="-4.6909120">
        <ele>673.0</ele>
        <time>2022-03-01T15:25:39Z</time>
      </trkpt>
      <trkpt lat="40.1213850" lon="-4.6908780">
        <ele>674.0</ele>
        <time>2022-03-01T15:25:40Z</time>
      </trkpt>
      <trkpt lat="40.1213850" lon="-4.6908780">
        <ele>674.0</ele>
        <time>2022-03-01T15:25:41Z</time>
      </trkpt>
      <trkpt lat="40.1214580" lon="-4.6908450">
        <ele>675.0</ele>
        <time>2022-03-01T15:25:42Z</time>
      </trkpt>
      <trkpt lat="40.1214950" lon="-4.6908300">
        <ele>675.0</ele>
        <time>2022-03-01T15:25:43Z</time>
      </trkpt>
      <trkpt lat="40.1214950" lon="-4.6908300">
        <ele>676.0</ele>
        <time>2022-03-01T15:25:44Z</time>
      </trkpt>
      <trkpt lat="40.1215720" lon="-4.6907970">
        <ele>676.0</ele>
        <time>2022-03-01T15:25:45Z</time>
      </trkpt>
      <trkpt lat="40.1216100" lon="-4.6907800">
        <ele>677.0</ele>
        <time>2022-03-01T15:25:46Z</time>
      </trkpt>
      <trkpt lat="40.1216480" lon="-4.6907650">
        <ele>677.0</ele>
        <time>2022-03-01T15:25:47Z</time>
      </trkpt>
      <trkpt lat="40.1216480" lon="-4.6907650">
        <ele>677.0</ele>
        <time>2022-03-01T15:25:48Z</time>
      </trkpt>
      <trkpt lat="40.1217230" lon="-4.6907330">
        <ele>677.0</ele>
        <time>2022-03-01T15:25:49Z</time>
      </trkpt>
      <trkpt lat="40.1217600" lon="-4.6907170">
        <ele>678.0</ele>
        <time>2022-03-01T15:25:50Z</time>
      </trkpt>
      <trkpt lat="40.1217600" lon="-4.6907170">
        <ele>678.0</ele>
        <time>2022-03-01T15:25:51Z</time>
      </trkpt>
      <trkpt lat="40.1218370" lon="-4.6906830">
        <ele>678.0</ele>
        <time>2022-03-01T15:25:52Z</time>
      </trkpt>
      <trkpt lat="40.1218750" lon="-4.6906670">
        <ele>678.0</ele>
        <time>2022-03-01T15:25:53Z</time>
      </trkpt>
      <trkpt lat="40.1219130" lon="-4.6906500">
        <ele>678.0</ele>
        <time>2022-03-01T15:25:54Z</time>
      </trkpt>
      <trkpt lat="40.1219130" lon="-4.6906500">
        <ele>678.0</ele>
        <time>2022-03-01T15:25:55Z</time>
      </trkpt>
      <trkpt lat="40.1219870" lon="-4.6906170">
        <ele>679.0</ele>
        <time>2022-03-01T15:25:56Z</time>
      </trkpt>
      <trkpt lat="40.1219870" lon="-4.6906170">
        <ele>679.0</ele>
        <time>2022-03-01T15:25:57Z</time>
      </trkpt>
      <trkpt lat="40.1220620" lon="-4.6905850">
        <ele>679.0</ele>
        <time>2022-03-01T15:25:58Z</time>
      </trkpt>
      <trkpt lat="40.1220620" lon="-4.6905850">
        <ele>679.0</ele>
        <time>2022-03-01T15:25:59Z</time>
      </trkpt>
      <trkpt lat="40.1221370" lon="-4.6905530">
        <ele>679.0</ele>
        <time>2022-03-01T15:26:00Z</time>
      </trkpt>
      <trkpt lat="40.1221370" lon="-4.6905530">
        <ele>679.0</ele>
        <time>2022-03-01T15:26:01Z</time>
      </trkpt>
      <trkpt lat="40.1222120" lon="-4.6905230">
        <ele>680.0</ele>
        <time>2022-03-01T15:26:02Z</time>
      </trkpt>
      <trkpt lat="40.1222480" lon="-4.6905070">
        <ele>680.0</ele>
        <time>2022-03-01T15:26:03Z</time>
      </trkpt>
      <trkpt lat="40.1222480" lon="-4.6905070">
        <ele>680.0</ele>
        <time>2022-03-01T15:26:04Z</time>
      </trkpt>
      <trkpt lat="40.1223300" lon="-4.6904780">
        <ele>680.0</ele>
        <time>2022-03-01T15:26:05Z</time>
      </trkpt>
      <trkpt lat="40.1223300" lon="-4.6904780">
        <ele>681.0</ele>
        <time>2022-03-01T15:26:06Z</time>
      </trkpt>
      <trkpt lat="40.1224080" lon="-4.6904530">
        <ele>681.0</ele>
        <time>2022-03-01T15:26:07Z</time>
      </trkpt>
      <trkpt lat="40.1224470" lon="-4.6904400">
        <ele>681.0</ele>
        <time>2022-03-01T15:26:08Z</time>
      </trkpt>
      <trkpt lat="40.1224470" lon="-4.6904400">
        <ele>681.0</ele>
        <time>2022-03-01T15:26:09Z</time>
      </trkpt>
      <trkpt lat="40.1225270" lon="-4.6904130">
        <ele>682.0</ele>
        <time>2022-03-01T15:26:10Z</time>
      </trkpt>
      <trkpt lat="40.1225270" lon="-4.6904130">
        <ele>682.0</ele>
        <time>2022-03-01T15:26:11Z</time>
      </trkpt>
      <trkpt lat="40.1226070" lon="-4.6903900">
        <ele>682.0</ele>
        <time>2022-03-01T15:26:12Z</time>
      </trkpt>
      <trkpt lat="40.1226070" lon="-4.6903900">
        <ele>682.0</ele>
        <time>2022-03-01T15:26:13Z</time>
      </trkpt>
      <trkpt lat="40.1226870" lon="-4.6903670">
        <ele>682.0</ele>
        <time>2022-03-01T15:26:14Z</time>
      </trkpt>
      <trkpt lat="40.1226870" lon="-4.6903670">
        <ele>682.0</ele>
        <time>2022-03-01T15:26:15Z</time>
      </trkpt>
      <trkpt lat="40.1227670" lon="-4.6903450">
        <ele>683.0</ele>
        <time>2022-03-01T15:26:16Z</time>
      </trkpt>
      <trkpt lat="40.1227670" lon="-4.6903450">
        <ele>683.0</ele>
        <time>2022-03-01T15:26:17Z</time>
      </trkpt>
      <trkpt lat="40.1228500" lon="-4.6903220">
        <ele>683.0</ele>
        <time>2022-03-01T15:26:18Z</time>
      </trkpt>
      <trkpt lat="40.1228500" lon="-4.6903220">
        <ele>684.0</ele>
        <time>2022-03-01T15:26:19Z</time>
      </trkpt>
      <trkpt lat="40.1229350" lon="-4.6903030">
        <ele>684.0</ele>
        <time>2022-03-01T15:26:20Z</time>
      </trkpt>
      <trkpt lat="40.1229350" lon="-4.6903030">
        <ele>684.0</ele>
        <time>2022-03-01T15:26:21Z</time>
      </trkpt>
      <trkpt lat="40.1230200" lon="-4.6902850">
        <ele>684.0</ele>
        <time>2022-03-01T15:26:22Z</time>
      </trkpt>
      <trkpt lat="40.1230630" lon="-4.6902780">
        <ele>685.0</ele>
        <time>2022-03-01T15:26:23Z</time>
      </trkpt>
      <trkpt lat="40.1231080" lon="-4.6902720">
        <ele>685.0</ele>
        <time>2022-03-01T15:26:24Z</time>
      </trkpt>
      <trkpt lat="40.1231080" lon="-4.6902720">
        <ele>685.0</ele>
        <time>2022-03-01T15:26:25Z</time>
      </trkpt>
      <trkpt lat="40.1232020" lon="-4.6902620">
        <ele>685.0</ele>
        <time>2022-03-01T15:26:26Z</time>
      </trkpt>
      <trkpt lat="40.1232020" lon="-4.6902620">
        <ele>685.0</ele>
        <time>2022-03-01T15:26:27Z</time>
      </trkpt>
      <trkpt lat="40.1233000" lon="-4.6902530">
        <ele>685.0</ele>
        <time>2022-03-01T15:26:28Z</time>
      </trkpt>
      <trkpt lat="40.1233000" lon="-4.6902530">
        <ele>685.0</ele>
        <time>2022-03-01T15:26:29Z</time>
      </trkpt>
      <trkpt lat="40.1234070" lon="-4.6902570">
        <ele>685.0</ele>
        <time>2022-03-01T15:26:30Z</time>
      </trkpt>
      <trkpt lat="40.1234070" lon="-4.6902570">
        <ele>685.0</ele>
        <time>2022-03-01T15:26:31Z</time>
      </trkpt>
      <trkpt lat="40.1235150" lon="-4.6902680">
        <ele>685.0</ele>
        <time>2022-03-01T15:26:32Z</time>
      </trkpt>
      <trkpt lat="40.1235700" lon="-4.6902780">
        <ele>685.0</ele>
        <time>2022-03-01T15:26:33Z</time>
      </trkpt>
      <trkpt lat="40.1236230" lon="-4.6902900">
        <ele>685.0</ele>
        <time>2022-03-01T15:26:34Z</time>
      </trkpt>
      <trkpt lat="40.1236230" lon="-4.6902900">
        <ele>685.0</ele>
        <time>2022-03-01T15:26:35Z</time>
      </trkpt>
      <trkpt lat="40.1237330" lon="-4.6903250">
        <ele>685.0</ele>
        <time>2022-03-01T15:26:36Z</time>
      </trkpt>
      <trkpt lat="40.1237880" lon="-4.6903480">
        <ele>684.0</ele>
        <time>2022-03-01T15:26:37Z</time>
      </trkpt>
      <trkpt lat="40.1238430" lon="-4.6903750">
        <ele>684.0</ele>
        <time>2022-03-01T15:26:38Z</time>
      </trkpt>
      <trkpt lat="40.1238970" lon="-4.6904050">
        <ele>684.0</ele>
        <time>2022-03-01T15:26:39Z</time>
      </trkpt>
      <trkpt lat="40.1238970" lon="-4.6904050">
        <ele>684.0</ele>
        <time>2022-03-01T15:26:40Z</time>
      </trkpt>
      <trkpt lat="40.1240050" lon="-4.6904720">
        <ele>684.0</ele>
        <time>2022-03-01T15:26:41Z</time>
      </trkpt>
      <trkpt lat="40.1240050" lon="-4.6904720">
        <ele>684.0</ele>
        <time>2022-03-01T15:26:42Z</time>
      </trkpt>
      <trkpt lat="40.1241100" lon="-4.6905550">
        <ele>684.0</ele>
        <time>2022-03-01T15:26:43Z</time>
      </trkpt>
      <trkpt lat="40.1241620" lon="-4.6905980">
        <ele>684.0</ele>
        <time>2022-03-01T15:26:44Z</time>
      </trkpt>
      <trkpt lat="40.1241620" lon="-4.6905980">
        <ele>684.0</ele>
        <time>2022-03-01T15:26:45Z</time>
      </trkpt>
      <trkpt lat="40.1242600" lon="-4.6907000">
        <ele>684.0</ele>
        <time>2022-03-01T15:26:46Z</time>
      </trkpt>
      <trkpt lat="40.1242600" lon="-4.6907000">
        <ele>684.0</ele>
        <time>2022-03-01T15:26:47Z</time>
      </trkpt>
      <trkpt lat="40.1243520" lon="-4.6908130">
        <ele>684.0</ele>
        <time>2022-03-01T15:26:48Z</time>
      </trkpt>
      <trkpt lat="40.1243520" lon="-4.6908130">
        <ele>684.0</ele>
        <time>2022-03-01T15:26:49Z</time>
      </trkpt>
      <trkpt lat="40.1244350" lon="-4.6909370">
        <ele>684.0</ele>
        <time>2022-03-01T15:26:50Z</time>
      </trkpt>
      <trkpt lat="40.1244750" lon="-4.6910020">
        <ele>684.0</ele>
        <time>2022-03-01T15:26:51Z</time>
      </trkpt>
      <trkpt lat="40.1244750" lon="-4.6910020">
        <ele>684.0</ele>
        <time>2022-03-01T15:26:52Z</time>
      </trkpt>
      <trkpt lat="40.1245470" lon="-4.6911370">
        <ele>684.0</ele>
        <time>2022-03-01T15:26:53Z</time>
      </trkpt>
      <trkpt lat="40.1245820" lon="-4.6912070">
        <ele>684.0</ele>
        <time>2022-03-01T15:26:54Z</time>
      </trkpt>
      <trkpt lat="40.1245820" lon="-4.6912070">
        <ele>684.0</ele>
        <time>2022-03-01T15:26:55Z</time>
      </trkpt>
      <trkpt lat="40.1246380" lon="-4.6913570">
        <ele>684.0</ele>
        <time>2022-03-01T15:26:56Z</time>
      </trkpt>
      <trkpt lat="40.1246380" lon="-4.6913570">
        <ele>684.0</ele>
        <time>2022-03-01T15:26:57Z</time>
      </trkpt>
      <trkpt lat="40.1246880" lon="-4.6915120">
        <ele>684.0</ele>
        <time>2022-03-01T15:26:58Z</time>
      </trkpt>
      <trkpt lat="40.1246880" lon="-4.6915120">
        <ele>683.0</ele>
        <time>2022-03-01T15:26:59Z</time>
      </trkpt>
      <trkpt lat="40.1247380" lon="-4.6916650">
        <ele>683.0</ele>
        <time>2022-03-01T15:27:00Z</time>
      </trkpt>
      <trkpt lat="40.1247380" lon="-4.6916650">
        <ele>683.0</ele>
        <time>2022-03-01T15:27:01Z</time>
      </trkpt>
      <trkpt lat="40.1247870" lon="-4.6918200">
        <ele>683.0</ele>
        <time>2022-03-01T15:27:02Z</time>
      </trkpt>
      <trkpt lat="40.1247870" lon="-4.6918200">
        <ele>683.0</ele>
        <time>2022-03-01T15:27:03Z</time>
      </trkpt>
      <trkpt lat="40.1248450" lon="-4.6919770">
        <ele>683.0</ele>
        <time>2022-03-01T15:27:04Z</time>
      </trkpt>
      <trkpt lat="40.1248450" lon="-4.6919770">
        <ele>682.0</ele>
        <time>2022-03-01T15:27:05Z</time>
      </trkpt>
      <trkpt lat="40.1249170" lon="-4.6921320">
        <ele>682.0</ele>
        <time>2022-03-01T15:27:06Z</time>
      </trkpt>
      <trkpt lat="40.1249570" lon="-4.6922070">
        <ele>682.0</ele>
        <time>2022-03-01T15:27:07Z</time>
      </trkpt>
      <trkpt lat="40.1249570" lon="-4.6922070">
        <ele>682.0</ele>
        <time>2022-03-01T15:27:08Z</time>
      </trkpt>
      <trkpt lat="40.1250430" lon="-4.6923530">
        <ele>682.0</ele>
        <time>2022-03-01T15:27:09Z</time>
      </trkpt>
      <trkpt lat="40.1250920" lon="-4.6924230">
        <ele>682.0</ele>
        <time>2022-03-01T15:27:10Z</time>
      </trkpt>
      <trkpt lat="40.1250920" lon="-4.6924230">
        <ele>682.0</ele>
        <time>2022-03-01T15:27:11Z</time>
      </trkpt>
      <trkpt lat="40.1251950" lon="-4.6925520">
        <ele>682.0</ele>
        <time>2022-03-01T15:27:12Z</time>
      </trkpt>
      <trkpt lat="40.1251950" lon="-4.6925520">
        <ele>682.0</ele>
        <time>2022-03-01T15:27:13Z</time>
      </trkpt>
      <trkpt lat="40.1253050" lon="-4.6926680">
        <ele>682.0</ele>
        <time>2022-03-01T15:27:14Z</time>
      </trkpt>
      <trkpt lat="40.1253630" lon="-4.6927230">
        <ele>682.0</ele>
        <time>2022-03-01T15:27:15Z</time>
      </trkpt>
      <trkpt lat="40.1254230" lon="-4.6927730">
        <ele>681.0</ele>
        <time>2022-03-01T15:27:16Z</time>
      </trkpt>
      <trkpt lat="40.1254230" lon="-4.6927730">
        <ele>681.0</ele>
        <time>2022-03-01T15:27:17Z</time>
      </trkpt>
      <trkpt lat="40.1255470" lon="-4.6928650">
        <ele>681.0</ele>
        <time>2022-03-01T15:27:18Z</time>
      </trkpt>
      <trkpt lat="40.1255470" lon="-4.6928650">
        <ele>681.0</ele>
        <time>2022-03-01T15:27:19Z</time>
      </trkpt>
      <trkpt lat="40.1256800" lon="-4.6929420">
        <ele>681.0</ele>
        <time>2022-03-01T15:27:20Z</time>
      </trkpt>
      <trkpt lat="40.1257470" lon="-4.6929770">
        <ele>681.0</ele>
        <time>2022-03-01T15:27:21Z</time>
      </trkpt>
      <trkpt lat="40.1258130" lon="-4.6930100">
        <ele>681.0</ele>
        <time>2022-03-01T15:27:22Z</time>
      </trkpt>
      <trkpt lat="40.1258130" lon="-4.6930100">
        <ele>681.0</ele>
        <time>2022-03-01T15:27:23Z</time>
      </trkpt>
      <trkpt lat="40.1259420" lon="-4.6930780">
        <ele>681.0</ele>
        <time>2022-03-01T15:27:24Z</time>
      </trkpt>
      <trkpt lat="40.1260020" lon="-4.6931130">
        <ele>681.0</ele>
        <time>2022-03-01T15:27:25Z</time>
      </trkpt>
      <trkpt lat="40.1260020" lon="-4.6931130">
        <ele>682.0</ele>
        <time>2022-03-01T15:27:26Z</time>
      </trkpt>
      <trkpt lat="40.1261170" lon="-4.6931830">
        <ele>682.0</ele>
        <time>2022-03-01T15:27:27Z</time>
      </trkpt>
      <trkpt lat="40.1261700" lon="-4.6932220">
        <ele>682.0</ele>
        <time>2022-03-01T15:27:28Z</time>
      </trkpt>
      <trkpt lat="40.1261700" lon="-4.6932220">
        <ele>682.0</ele>
        <time>2022-03-01T15:27:29Z</time>
      </trkpt>
      <trkpt lat="40.1262670" lon="-4.6933020">
        <ele>682.0</ele>
        <time>2022-03-01T15:27:30Z</time>
      </trkpt>
      <trkpt lat="40.1262670" lon="-4.6933020">
        <ele>682.0</ele>
        <time>2022-03-01T15:27:31Z</time>
      </trkpt>
      <trkpt lat="40.1263520" lon="-4.6933820">
        <ele>684.0</ele>
        <time>2022-03-01T15:27:32Z</time>
      </trkpt>
      <trkpt lat="40.1263520" lon="-4.6933820">
        <ele>684.0</ele>
        <time>2022-03-01T15:27:33Z</time>
      </trkpt>
      <trkpt lat="40.1264270" lon="-4.6934650">
        <ele>684.0</ele>
        <time>2022-03-01T15:27:34Z</time>
      </trkpt>
      <trkpt lat="40.1264270" lon="-4.6934650">
        <ele>684.0</ele>
        <time>2022-03-01T15:27:35Z</time>
      </trkpt>
      <trkpt lat="40.1264950" lon="-4.6935480">
        <ele>685.0</ele>
        <time>2022-03-01T15:27:36Z</time>
      </trkpt>
      <trkpt lat="40.1264950" lon="-4.6935480">
        <ele>685.0</ele>
        <time>2022-03-01T15:27:37Z</time>
      </trkpt>
      <trkpt lat="40.1265570" lon="-4.6936300">
        <ele>685.0</ele>
        <time>2022-03-01T15:27:38Z</time>
      </trkpt>
      <trkpt lat="40.1265570" lon="-4.6936300">
        <ele>685.0</ele>
        <time>2022-03-01T15:27:39Z</time>
      </trkpt>
      <trkpt lat="40.1266220" lon="-4.6937200">
        <ele>685.0</ele>
        <time>2022-03-01T15:27:40Z</time>
      </trkpt>
      <trkpt lat="40.1266220" lon="-4.6937200">
        <ele>685.0</ele>
        <time>2022-03-01T15:27:41Z</time>
      </trkpt>
      <trkpt lat="40.1266730" lon="-4.6938020">
        <ele>686.0</ele>
        <time>2022-03-01T15:27:42Z</time>
      </trkpt>
      <trkpt lat="40.1266950" lon="-4.6938380">
        <ele>686.0</ele>
        <time>2022-03-01T15:27:43Z</time>
      </trkpt>
      <trkpt lat="40.1267170" lon="-4.6938730">
        <ele>687.0</ele>
        <time>2022-03-01T15:27:44Z</time>
      </trkpt>
      <trkpt lat="40.1267170" lon="-4.6938730">
        <ele>687.0</ele>
        <time>2022-03-01T15:27:45Z</time>
      </trkpt>
      <trkpt lat="40.1267530" lon="-4.6939450">
        <ele>687.0</ele>
        <time>2022-03-01T15:27:46Z</time>
      </trkpt>
      <trkpt lat="40.1267530" lon="-4.6939450">
        <ele>687.0</ele>
        <time>2022-03-01T15:27:47Z</time>
      </trkpt>
      <trkpt lat="40.1267850" lon="-4.6940150">
        <ele>688.0</ele>
        <time>2022-03-01T15:27:48Z</time>
      </trkpt>
      <trkpt lat="40.1267850" lon="-4.6940150">
        <ele>688.0</ele>
        <time>2022-03-01T15:27:49Z</time>
      </trkpt>
      <trkpt lat="40.1268170" lon="-4.6940900">
        <ele>688.0</ele>
        <time>2022-03-01T15:27:50Z</time>
      </trkpt>
      <trkpt lat="40.1268170" lon="-4.6940900">
        <ele>688.0</ele>
        <time>2022-03-01T15:27:51Z</time>
      </trkpt>
      <trkpt lat="40.1268430" lon="-4.6941680">
        <ele>688.0</ele>
        <time>2022-03-01T15:27:52Z</time>
      </trkpt>
      <trkpt lat="40.1268580" lon="-4.6942080">
        <ele>688.0</ele>
        <time>2022-03-01T15:27:53Z</time>
      </trkpt>
      <trkpt lat="40.1268720" lon="-4.6942480">
        <ele>690.0</ele>
        <time>2022-03-01T15:27:54Z</time>
      </trkpt>
      <trkpt lat="40.1268720" lon="-4.6942480">
        <ele>690.0</ele>
        <time>2022-03-01T15:27:55Z</time>
      </trkpt>
      <trkpt lat="40.1268970" lon="-4.6943300">
        <ele>690.0</ele>
        <time>2022-03-01T15:27:56Z</time>
      </trkpt>
      <trkpt lat="40.1268970" lon="-4.6943300">
        <ele>690.0</ele>
        <time>2022-03-01T15:27:57Z</time>
      </trkpt>
      <trkpt lat="40.1269180" lon="-4.6944130">
        <ele>690.0</ele>
        <time>2022-03-01T15:27:58Z</time>
      </trkpt>
      <trkpt lat="40.1269180" lon="-4.6944130">
        <ele>690.0</ele>
        <time>2022-03-01T15:27:59Z</time>
      </trkpt>
      <trkpt lat="40.1269300" lon="-4.6944930">
        <ele>691.0</ele>
        <time>2022-03-01T15:28:00Z</time>
      </trkpt>
      <trkpt lat="40.1269300" lon="-4.6944930">
        <ele>691.0</ele>
        <time>2022-03-01T15:28:01Z</time>
      </trkpt>
      <trkpt lat="40.1269370" lon="-4.6945770">
        <ele>691.0</ele>
        <time>2022-03-01T15:28:02Z</time>
      </trkpt>
      <trkpt lat="40.1269370" lon="-4.6945770">
        <ele>691.0</ele>
        <time>2022-03-01T15:28:03Z</time>
      </trkpt>
      <trkpt lat="40.1269480" lon="-4.6946570">
        <ele>692.0</ele>
        <time>2022-03-01T15:28:04Z</time>
      </trkpt>
      <trkpt lat="40.1269530" lon="-4.6946970">
        <ele>693.0</ele>
        <time>2022-03-01T15:28:05Z</time>
      </trkpt>
      <trkpt lat="40.1269530" lon="-4.6946970">
        <ele>693.0</ele>
        <time>2022-03-01T15:28:06Z</time>
      </trkpt>
      <trkpt lat="40.1269620" lon="-4.6947850">
        <ele>693.0</ele>
        <time>2022-03-01T15:28:07Z</time>
      </trkpt>
      <trkpt lat="40.1269620" lon="-4.6947850">
        <ele>693.0</ele>
        <time>2022-03-01T15:28:08Z</time>
      </trkpt>
      <trkpt lat="40.1269730" lon="-4.6948730">
        <ele>694.0</ele>
        <time>2022-03-01T15:28:09Z</time>
      </trkpt>
      <trkpt lat="40.1269780" lon="-4.6949180">
        <ele>694.0</ele>
        <time>2022-03-01T15:28:10Z</time>
      </trkpt>
      <trkpt lat="40.1269780" lon="-4.6949180">
        <ele>694.0</ele>
        <time>2022-03-01T15:28:11Z</time>
      </trkpt>
      <trkpt lat="40.1269850" lon="-4.6950050">
        <ele>694.0</ele>
        <time>2022-03-01T15:28:12Z</time>
      </trkpt>
      <trkpt lat="40.1269850" lon="-4.6950050">
        <ele>695.0</ele>
        <time>2022-03-01T15:28:13Z</time>
      </trkpt>
      <trkpt lat="40.1269920" lon="-4.6950930">
        <ele>695.0</ele>
        <time>2022-03-01T15:28:14Z</time>
      </trkpt>
      <trkpt lat="40.1269970" lon="-4.6951380">
        <ele>695.0</ele>
        <time>2022-03-01T15:28:15Z</time>
      </trkpt>
      <trkpt lat="40.1269970" lon="-4.6951380">
        <ele>695.0</ele>
        <time>2022-03-01T15:28:16Z</time>
      </trkpt>
      <trkpt lat="40.1270020" lon="-4.6952330">
        <ele>696.0</ele>
        <time>2022-03-01T15:28:17Z</time>
      </trkpt>
      <trkpt lat="40.1270070" lon="-4.6952770">
        <ele>696.0</ele>
        <time>2022-03-01T15:28:18Z</time>
      </trkpt>
      <trkpt lat="40.1270070" lon="-4.6952770">
        <ele>697.0</ele>
        <time>2022-03-01T15:28:19Z</time>
      </trkpt>
      <trkpt lat="40.1270130" lon="-4.6953620">
        <ele>697.0</ele>
        <time>2022-03-01T15:28:20Z</time>
      </trkpt>
      <trkpt lat="40.1270130" lon="-4.6953620">
        <ele>697.0</ele>
        <time>2022-03-01T15:28:21Z</time>
      </trkpt>
      <trkpt lat="40.1270270" lon="-4.6954520">
        <ele>697.0</ele>
        <time>2022-03-01T15:28:22Z</time>
      </trkpt>
      <trkpt lat="40.1270270" lon="-4.6954520">
        <ele>698.0</ele>
        <time>2022-03-01T15:28:23Z</time>
      </trkpt>
      <trkpt lat="40.1270350" lon="-4.6955470">
        <ele>698.0</ele>
        <time>2022-03-01T15:28:24Z</time>
      </trkpt>
      <trkpt lat="40.1270350" lon="-4.6955470">
        <ele>699.0</ele>
        <time>2022-03-01T15:28:25Z</time>
      </trkpt>
      <trkpt lat="40.1270430" lon="-4.6956420">
        <ele>699.0</ele>
        <time>2022-03-01T15:28:26Z</time>
      </trkpt>
      <trkpt lat="40.1270480" lon="-4.6956900">
        <ele>700.0</ele>
        <time>2022-03-01T15:28:27Z</time>
      </trkpt>
      <trkpt lat="40.1270520" lon="-4.6957370">
        <ele>700.0</ele>
        <time>2022-03-01T15:28:28Z</time>
      </trkpt>
      <trkpt lat="40.1270520" lon="-4.6957370">
        <ele>701.0</ele>
        <time>2022-03-01T15:28:29Z</time>
      </trkpt>
      <trkpt lat="40.1270620" lon="-4.6958350">
        <ele>701.0</ele>
        <time>2022-03-01T15:28:30Z</time>
      </trkpt>
      <trkpt lat="40.1270620" lon="-4.6958350">
        <ele>701.0</ele>
        <time>2022-03-01T15:28:31Z</time>
      </trkpt>
      <trkpt lat="40.1270730" lon="-4.6959370">
        <ele>701.0</ele>
        <time>2022-03-01T15:28:32Z</time>
      </trkpt>
      <trkpt lat="40.1270800" lon="-4.6959880">
        <ele>702.0</ele>
        <time>2022-03-01T15:28:33Z</time>
      </trkpt>
      <trkpt lat="40.1270800" lon="-4.6959880">
        <ele>702.0</ele>
        <time>2022-03-01T15:28:34Z</time>
      </trkpt>
      <trkpt lat="40.1270880" lon="-4.6960820">
        <ele>702.0</ele>
        <time>2022-03-01T15:28:35Z</time>
      </trkpt>
      <trkpt lat="40.1270930" lon="-4.6961280">
        <ele>702.0</ele>
        <time>2022-03-01T15:28:36Z</time>
      </trkpt>
      <trkpt lat="40.1270930" lon="-4.6961280">
        <ele>703.0</ele>
        <time>2022-03-01T15:28:37Z</time>
      </trkpt>
      <trkpt lat="40.1271080" lon="-4.6962200">
        <ele>703.0</ele>
        <time>2022-03-01T15:28:38Z</time>
      </trkpt>
      <trkpt lat="40.1271080" lon="-4.6962200">
        <ele>703.0</ele>
        <time>2022-03-01T15:28:39Z</time>
      </trkpt>
      <trkpt lat="40.1271400" lon="-4.6963100">
        <ele>703.0</ele>
        <time>2022-03-01T15:28:40Z</time>
      </trkpt>
      <trkpt lat="40.1271400" lon="-4.6963100">
        <ele>704.0</ele>
        <time>2022-03-01T15:28:41Z</time>
      </trkpt>
      <trkpt lat="40.1271830" lon="-4.6963950">
        <ele>704.0</ele>
        <time>2022-03-01T15:28:42Z</time>
      </trkpt>
      <trkpt lat="40.1272070" lon="-4.6964330">
        <ele>704.0</ele>
        <time>2022-03-01T15:28:43Z</time>
      </trkpt>
      <trkpt lat="40.1272070" lon="-4.6964330">
        <ele>704.0</ele>
        <time>2022-03-01T15:28:44Z</time>
      </trkpt>
      <trkpt lat="40.1272600" lon="-4.6965020">
        <ele>705.0</ele>
        <time>2022-03-01T15:28:45Z</time>
      </trkpt>
      <trkpt lat="40.1272880" lon="-4.6965370">
        <ele>705.0</ele>
        <time>2022-03-01T15:28:46Z</time>
      </trkpt>
      <trkpt lat="40.1272880" lon="-4.6965370">
        <ele>705.0</ele>
        <time>2022-03-01T15:28:47Z</time>
      </trkpt>
      <trkpt lat="40.1273470" lon="-4.6966070">
        <ele>705.0</ele>
        <time>2022-03-01T15:28:48Z</time>
      </trkpt>
      <trkpt lat="40.1273470" lon="-4.6966070">
        <ele>706.0</ele>
        <time>2022-03-01T15:28:49Z</time>
      </trkpt>
      <trkpt lat="40.1274150" lon="-4.6966670">
        <ele>706.0</ele>
        <time>2022-03-01T15:28:50Z</time>
      </trkpt>
      <trkpt lat="40.1274550" lon="-4.6966820">
        <ele>706.0</ele>
        <time>2022-03-01T15:28:51Z</time>
      </trkpt>
      <trkpt lat="40.1275020" lon="-4.6966870">
        <ele>706.0</ele>
        <time>2022-03-01T15:28:52Z</time>
      </trkpt>
      <trkpt lat="40.1275020" lon="-4.6966870">
        <ele>706.0</ele>
        <time>2022-03-01T15:28:53Z</time>
      </trkpt>
      <trkpt lat="40.1275980" lon="-4.6966600">
        <ele>706.0</ele>
        <time>2022-03-01T15:28:54Z</time>
      </trkpt>
      <trkpt lat="40.1276470" lon="-4.6966300">
        <ele>706.0</ele>
        <time>2022-03-01T15:28:55Z</time>
      </trkpt>
      <trkpt lat="40.1276470" lon="-4.6966300">
        <ele>706.0</ele>
        <time>2022-03-01T15:28:56Z</time>
      </trkpt>
      <trkpt lat="40.1277480" lon="-4.6965500">
        <ele>706.0</ele>
        <time>2022-03-01T15:28:57Z</time>
      </trkpt>
      <trkpt lat="40.1277480" lon="-4.6965500">
        <ele>706.0</ele>
        <time>2022-03-01T15:28:58Z</time>
      </trkpt>
      <trkpt lat="40.1278580" lon="-4.6964350">
        <ele>706.0</ele>
        <time>2022-03-01T15:28:59Z</time>
      </trkpt>
      <trkpt lat="40.1278580" lon="-4.6964350">
        <ele>704.0</ele>
        <time>2022-03-01T15:29:00Z</time>
      </trkpt>
      <trkpt lat="40.1279700" lon="-4.6962780">
        <ele>704.0</ele>
        <time>2022-03-01T15:29:01Z</time>
      </trkpt>
      <trkpt lat="40.1279700" lon="-4.6962780">
        <ele>702.0</ele>
        <time>2022-03-01T15:29:02Z</time>
      </trkpt>
      <trkpt lat="40.1280950" lon="-4.6961070">
        <ele>702.0</ele>
        <time>2022-03-01T15:29:03Z</time>
      </trkpt>
      <trkpt lat="40.1280950" lon="-4.6961070">
        <ele>700.0</ele>
        <time>2022-03-01T15:29:04Z</time>
      </trkpt>
      <trkpt lat="40.1282270" lon="-4.6959220">
        <ele>700.0</ele>
        <time>2022-03-01T15:29:05Z</time>
      </trkpt>
      <trkpt lat="40.1282270" lon="-4.6959220">
        <ele>698.0</ele>
        <time>2022-03-01T15:29:06Z</time>
      </trkpt>
      <trkpt lat="40.1283730" lon="-4.6957230">
        <ele>697.0</ele>
        <time>2022-03-01T15:29:07Z</time>
      </trkpt>
      <trkpt lat="40.1284500" lon="-4.6956200">
        <ele>697.0</ele>
        <time>2022-03-01T15:29:08Z</time>
      </trkpt>
      <trkpt lat="40.1284500" lon="-4.6956200">
        <ele>696.0</ele>
        <time>2022-03-01T15:29:09Z</time>
      </trkpt>
      <trkpt lat="40.1286050" lon="-4.6954050">
        <ele>696.0</ele>
        <time>2022-03-01T15:29:10Z</time>
      </trkpt>
      <trkpt lat="40.1286050" lon="-4.6954050">
        <ele>694.0</ele>
        <time>2022-03-01T15:29:11Z</time>
      </trkpt>
      <trkpt lat="40.1287580" lon="-4.6951820">
        <ele>694.0</ele>
        <time>2022-03-01T15:29:12Z</time>
      </trkpt>
      <trkpt lat="40.1288370" lon="-4.6950700">
        <ele>692.0</ele>
        <time>2022-03-01T15:29:13Z</time>
      </trkpt>
      <trkpt lat="40.1288370" lon="-4.6950700">
        <ele>692.0</ele>
        <time>2022-03-01T15:29:14Z</time>
      </trkpt>
      <trkpt lat="40.1289980" lon="-4.6948450">
        <ele>689.0</ele>
        <time>2022-03-01T15:29:15Z</time>
      </trkpt>
      <trkpt lat="40.1290720" lon="-4.6947300">
        <ele>689.0</ele>
        <time>2022-03-01T15:29:16Z</time>
      </trkpt>
      <trkpt lat="40.1290720" lon="-4.6947300">
        <ele>689.0</ele>
        <time>2022-03-01T15:29:17Z</time>
      </trkpt>
      <trkpt lat="40.1292000" lon="-4.6945030">
        <ele>689.0</ele>
        <time>2022-03-01T15:29:18Z</time>
      </trkpt>
      <trkpt lat="40.1292000" lon="-4.6945030">
        <ele>689.0</ele>
        <time>2022-03-01T15:29:19Z</time>
      </trkpt>
      <trkpt lat="40.1293420" lon="-4.6942980">
        <ele>689.0</ele>
        <time>2022-03-01T15:29:20Z</time>
      </trkpt>
      <trkpt lat="40.1293420" lon="-4.6942980">
        <ele>688.0</ele>
        <time>2022-03-01T15:29:21Z</time>
      </trkpt>
      <trkpt lat="40.1295080" lon="-4.6941600">
        <ele>688.0</ele>
        <time>2022-03-01T15:29:22Z</time>
      </trkpt>
      <trkpt lat="40.1295920" lon="-4.6941170">
        <ele>688.0</ele>
        <time>2022-03-01T15:29:23Z</time>
      </trkpt>
      <trkpt lat="40.1295920" lon="-4.6941170">
        <ele>688.0</ele>
        <time>2022-03-01T15:29:24Z</time>
      </trkpt>
      <trkpt lat="40.1297470" lon="-4.6940570">
        <ele>688.0</ele>
        <time>2022-03-01T15:29:25Z</time>
      </trkpt>
      <trkpt lat="40.1298220" lon="-4.6940380">
        <ele>688.0</ele>
        <time>2022-03-01T15:29:26Z</time>
      </trkpt>
      <trkpt lat="40.1298220" lon="-4.6940380">
        <ele>689.0</ele>
        <time>2022-03-01T15:29:27Z</time>
      </trkpt>
      <trkpt lat="40.1299570" lon="-4.6940020">
        <ele>689.0</ele>
        <time>2022-03-01T15:29:28Z</time>
      </trkpt>
      <trkpt lat="40.1299570" lon="-4.6940020">
        <ele>690.0</ele>
        <time>2022-03-01T15:29:29Z</time>
      </trkpt>
      <trkpt lat="40.1300800" lon="-4.6939750">
        <ele>690.0</ele>
        <time>2022-03-01T15:29:30Z</time>
      </trkpt>
      <trkpt lat="40.1300800" lon="-4.6939750">
        <ele>691.0</ele>
        <time>2022-03-01T15:29:31Z</time>
      </trkpt>
      <trkpt lat="40.1301950" lon="-4.6939550">
        <ele>691.0</ele>
        <time>2022-03-01T15:29:32Z</time>
      </trkpt>
      <trkpt lat="40.1301950" lon="-4.6939550">
        <ele>692.0</ele>
        <time>2022-03-01T15:29:33Z</time>
      </trkpt>
      <trkpt lat="40.1302980" lon="-4.6939380">
        <ele>692.0</ele>
        <time>2022-03-01T15:29:34Z</time>
      </trkpt>
      <trkpt lat="40.1302980" lon="-4.6939380">
        <ele>693.0</ele>
        <time>2022-03-01T15:29:35Z</time>
      </trkpt>
      <trkpt lat="40.1303920" lon="-4.6939200">
        <ele>693.0</ele>
        <time>2022-03-01T15:29:36Z</time>
      </trkpt>
      <trkpt lat="40.1304350" lon="-4.6939100">
        <ele>693.0</ele>
        <time>2022-03-01T15:29:37Z</time>
      </trkpt>
      <trkpt lat="40.1304780" lon="-4.6938980">
        <ele>693.0</ele>
        <time>2022-03-01T15:29:38Z</time>
      </trkpt>
      <trkpt lat="40.1304780" lon="-4.6938980">
        <ele>694.0</ele>
        <time>2022-03-01T15:29:39Z</time>
      </trkpt>
      <trkpt lat="40.1305620" lon="-4.6938780">
        <ele>694.0</ele>
        <time>2022-03-01T15:29:40Z</time>
      </trkpt>
      <trkpt lat="40.1305620" lon="-4.6938780">
        <ele>694.0</ele>
        <time>2022-03-01T15:29:41Z</time>
      </trkpt>
      <trkpt lat="40.1306430" lon="-4.6938530">
        <ele>694.0</ele>
        <time>2022-03-01T15:29:42Z</time>
      </trkpt>
      <trkpt lat="40.1306430" lon="-4.6938530">
        <ele>696.0</ele>
        <time>2022-03-01T15:29:43Z</time>
      </trkpt>
      <trkpt lat="40.1307200" lon="-4.6938270">
        <ele>696.0</ele>
        <time>2022-03-01T15:29:44Z</time>
      </trkpt>
      <trkpt lat="40.1307200" lon="-4.6938270">
        <ele>697.0</ele>
        <time>2022-03-01T15:29:45Z</time>
      </trkpt>
      <trkpt lat="40.1308000" lon="-4.6937930">
        <ele>697.0</ele>
        <time>2022-03-01T15:29:46Z</time>
      </trkpt>
      <trkpt lat="40.1308000" lon="-4.6937930">
        <ele>697.0</ele>
        <time>2022-03-01T15:29:47Z</time>
      </trkpt>
      <trkpt lat="40.1308770" lon="-4.6937580">
        <ele>697.0</ele>
        <time>2022-03-01T15:29:48Z</time>
      </trkpt>
      <trkpt lat="40.1308770" lon="-4.6937580">
        <ele>697.0</ele>
        <time>2022-03-01T15:29:49Z</time>
      </trkpt>
      <trkpt lat="40.1309500" lon="-4.6937280">
        <ele>699.0</ele>
        <time>2022-03-01T15:29:50Z</time>
      </trkpt>
      <trkpt lat="40.1309850" lon="-4.6937120">
        <ele>699.0</ele>
        <time>2022-03-01T15:29:51Z</time>
      </trkpt>
      <trkpt lat="40.1309850" lon="-4.6937120">
        <ele>699.0</ele>
        <time>2022-03-01T15:29:52Z</time>
      </trkpt>
      <trkpt lat="40.1310530" lon="-4.6936750">
        <ele>699.0</ele>
        <time>2022-03-01T15:29:53Z</time>
      </trkpt>
      <trkpt lat="40.1310880" lon="-4.6936570">
        <ele>700.0</ele>
        <time>2022-03-01T15:29:54Z</time>
      </trkpt>
      <trkpt lat="40.1310880" lon="-4.6936570">
        <ele>700.0</ele>
        <time>2022-03-01T15:29:55Z</time>
      </trkpt>
      <trkpt lat="40.1311530" lon="-4.6936250">
        <ele>701.0</ele>
        <time>2022-03-01T15:29:56Z</time>
      </trkpt>
      <trkpt lat="40.1311530" lon="-4.6936250">
        <ele>701.0</ele>
        <time>2022-03-01T15:29:57Z</time>
      </trkpt>
      <trkpt lat="40.1312130" lon="-4.6935930">
        <ele>701.0</ele>
        <time>2022-03-01T15:29:58Z</time>
      </trkpt>
      <trkpt lat="40.1312130" lon="-4.6935930">
        <ele>701.0</ele>
        <time>2022-03-01T15:29:59Z</time>
      </trkpt>
      <trkpt lat="40.1312730" lon="-4.6935720">
        <ele>702.0</ele>
        <time>2022-03-01T15:30:00Z</time>
      </trkpt>
      <trkpt lat="40.1312730" lon="-4.6935720">
        <ele>702.0</ele>
        <time>2022-03-01T15:30:01Z</time>
      </trkpt>
      <trkpt lat="40.1313450" lon="-4.6935400">
        <ele>702.0</ele>
        <time>2022-03-01T15:30:02Z</time>
      </trkpt>
      <trkpt lat="40.1313450" lon="-4.6935400">
        <ele>702.0</ele>
        <time>2022-03-01T15:30:03Z</time>
      </trkpt>
      <trkpt lat="40.1314150" lon="-4.6935100">
        <ele>703.0</ele>
        <time>2022-03-01T15:30:04Z</time>
      </trkpt>
      <trkpt lat="40.1314150" lon="-4.6935100">
        <ele>703.0</ele>
        <time>2022-03-01T15:30:05Z</time>
      </trkpt>
      <trkpt lat="40.1314830" lon="-4.6934850">
        <ele>703.0</ele>
        <time>2022-03-01T15:30:06Z</time>
      </trkpt>
      <trkpt lat="40.1314830" lon="-4.6934850">
        <ele>703.0</ele>
        <time>2022-03-01T15:30:07Z</time>
      </trkpt>
      <trkpt lat="40.1315520" lon="-4.6934630">
        <ele>704.0</ele>
        <time>2022-03-01T15:30:08Z</time>
      </trkpt>
      <trkpt lat="40.1315870" lon="-4.6934530">
        <ele>704.0</ele>
        <time>2022-03-01T15:30:09Z</time>
      </trkpt>
      <trkpt lat="40.1316170" lon="-4.6934450">
        <ele>704.0</ele>
        <time>2022-03-01T15:30:10Z</time>
      </trkpt>
      <trkpt lat="40.1316170" lon="-4.6934450">
        <ele>704.0</ele>
        <time>2022-03-01T15:30:11Z</time>
      </trkpt>
      <trkpt lat="40.1316770" lon="-4.6934320">
        <ele>705.0</ele>
        <time>2022-03-01T15:30:12Z</time>
      </trkpt>
      <trkpt lat="40.1316770" lon="-4.6934320">
        <ele>705.0</ele>
        <time>2022-03-01T15:30:13Z</time>
      </trkpt>
      <trkpt lat="40.1317330" lon="-4.6934170">
        <ele>705.0</ele>
        <time>2022-03-01T15:30:14Z</time>
      </trkpt>
      <trkpt lat="40.1317330" lon="-4.6934170">
        <ele>705.0</ele>
        <time>2022-03-01T15:30:15Z</time>
      </trkpt>
      <trkpt lat="40.1317950" lon="-4.6933980">
        <ele>706.0</ele>
        <time>2022-03-01T15:30:16Z</time>
      </trkpt>
      <trkpt lat="40.1317950" lon="-4.6933980">
        <ele>706.0</ele>
        <time>2022-03-01T15:30:17Z</time>
      </trkpt>
      <trkpt lat="40.1318550" lon="-4.6933800">
        <ele>706.0</ele>
        <time>2022-03-01T15:30:18Z</time>
      </trkpt>
      <trkpt lat="40.1318550" lon="-4.6933800">
        <ele>706.0</ele>
        <time>2022-03-01T15:30:19Z</time>
      </trkpt>
      <trkpt lat="40.1319220" lon="-4.6933630">
        <ele>706.0</ele>
        <time>2022-03-01T15:30:20Z</time>
      </trkpt>
      <trkpt lat="40.1319220" lon="-4.6933630">
        <ele>707.0</ele>
        <time>2022-03-01T15:30:21Z</time>
      </trkpt>
      <trkpt lat="40.1319830" lon="-4.6933420">
        <ele>707.0</ele>
        <time>2022-03-01T15:30:22Z</time>
      </trkpt>
      <trkpt lat="40.1320150" lon="-4.6933350">
        <ele>708.0</ele>
        <time>2022-03-01T15:30:23Z</time>
      </trkpt>
      <trkpt lat="40.1320450" lon="-4.6933300">
        <ele>708.0</ele>
        <time>2022-03-01T15:30:24Z</time>
      </trkpt>
      <trkpt lat="40.1320450" lon="-4.6933300">
        <ele>709.0</ele>
        <time>2022-03-01T15:30:25Z</time>
      </trkpt>
      <trkpt lat="40.1321070" lon="-4.6933170">
        <ele>709.0</ele>
        <time>2022-03-01T15:30:26Z</time>
      </trkpt>
      <trkpt lat="40.1321370" lon="-4.6933050">
        <ele>709.0</ele>
        <time>2022-03-01T15:30:27Z</time>
      </trkpt>
      <trkpt lat="40.1321700" lon="-4.6932900">
        <ele>709.0</ele>
        <time>2022-03-01T15:30:28Z</time>
      </trkpt>
      <trkpt lat="40.1321700" lon="-4.6932900">
        <ele>710.0</ele>
        <time>2022-03-01T15:30:29Z</time>
      </trkpt>
      <trkpt lat="40.1322350" lon="-4.6932700">
        <ele>710.0</ele>
        <time>2022-03-01T15:30:30Z</time>
      </trkpt>
      <trkpt lat="40.1322350" lon="-4.6932700">
        <ele>710.0</ele>
        <time>2022-03-01T15:30:31Z</time>
      </trkpt>
      <trkpt lat="40.1323020" lon="-4.6932470">
        <ele>710.0</ele>
        <time>2022-03-01T15:30:32Z</time>
      </trkpt>
      <trkpt lat="40.1323020" lon="-4.6932470">
        <ele>711.0</ele>
        <time>2022-03-01T15:30:33Z</time>
      </trkpt>
      <trkpt lat="40.1323700" lon="-4.6932200">
        <ele>711.0</ele>
        <time>2022-03-01T15:30:34Z</time>
      </trkpt>
      <trkpt lat="40.1323700" lon="-4.6932200">
        <ele>711.0</ele>
        <time>2022-03-01T15:30:35Z</time>
      </trkpt>
      <trkpt lat="40.1324330" lon="-4.6931950">
        <ele>711.0</ele>
        <time>2022-03-01T15:30:36Z</time>
      </trkpt>
      <trkpt lat="40.1324330" lon="-4.6931950">
        <ele>712.0</ele>
        <time>2022-03-01T15:30:37Z</time>
      </trkpt>
      <trkpt lat="40.1324930" lon="-4.6931670">
        <ele>712.0</ele>
        <time>2022-03-01T15:30:38Z</time>
      </trkpt>
      <trkpt lat="40.1324930" lon="-4.6931670">
        <ele>713.0</ele>
        <time>2022-03-01T15:30:39Z</time>
      </trkpt>
      <trkpt lat="40.1325530" lon="-4.6931330">
        <ele>713.0</ele>
        <time>2022-03-01T15:30:40Z</time>
      </trkpt>
      <trkpt lat="40.1325530" lon="-4.6931330">
        <ele>714.0</ele>
        <time>2022-03-01T15:30:41Z</time>
      </trkpt>
      <trkpt lat="40.1326150" lon="-4.6930950">
        <ele>714.0</ele>
        <time>2022-03-01T15:30:42Z</time>
      </trkpt>
      <trkpt lat="40.1326150" lon="-4.6930950">
        <ele>714.0</ele>
        <time>2022-03-01T15:30:43Z</time>
      </trkpt>
      <trkpt lat="40.1326780" lon="-4.6930520">
        <ele>715.0</ele>
        <time>2022-03-01T15:30:44Z</time>
      </trkpt>
      <trkpt lat="40.1326780" lon="-4.6930520">
        <ele>715.0</ele>
        <time>2022-03-01T15:30:45Z</time>
      </trkpt>
      <trkpt lat="40.1327430" lon="-4.6930070">
        <ele>715.0</ele>
        <time>2022-03-01T15:30:46Z</time>
      </trkpt>
      <trkpt lat="40.1327430" lon="-4.6930070">
        <ele>715.0</ele>
        <time>2022-03-01T15:30:47Z</time>
      </trkpt>
      <trkpt lat="40.1328070" lon="-4.6929620">
        <ele>716.0</ele>
        <time>2022-03-01T15:30:48Z</time>
      </trkpt>
      <trkpt lat="40.1328420" lon="-4.6929380">
        <ele>716.0</ele>
        <time>2022-03-01T15:30:49Z</time>
      </trkpt>
      <trkpt lat="40.1328420" lon="-4.6929380">
        <ele>716.0</ele>
        <time>2022-03-01T15:30:50Z</time>
      </trkpt>
      <trkpt lat="40.1329080" lon="-4.6928900">
        <ele>716.0</ele>
        <time>2022-03-01T15:30:51Z</time>
      </trkpt>
      <trkpt lat="40.1329420" lon="-4.6928680">
        <ele>717.0</ele>
        <time>2022-03-01T15:30:52Z</time>
      </trkpt>
      <trkpt lat="40.1329420" lon="-4.6928680">
        <ele>717.0</ele>
        <time>2022-03-01T15:30:53Z</time>
      </trkpt>
      <trkpt lat="40.1330100" lon="-4.6928230">
        <ele>717.0</ele>
        <time>2022-03-01T15:30:54Z</time>
      </trkpt>
      <trkpt lat="40.1330100" lon="-4.6928230">
        <ele>717.0</ele>
        <time>2022-03-01T15:30:55Z</time>
      </trkpt>
      <trkpt lat="40.1330770" lon="-4.6927750">
        <ele>717.0</ele>
        <time>2022-03-01T15:30:56Z</time>
      </trkpt>
      <trkpt lat="40.1330770" lon="-4.6927750">
        <ele>717.0</ele>
        <time>2022-03-01T15:30:57Z</time>
      </trkpt>
      <trkpt lat="40.1331380" lon="-4.6927280">
        <ele>717.0</ele>
        <time>2022-03-01T15:30:58Z</time>
      </trkpt>
      <trkpt lat="40.1331380" lon="-4.6927280">
        <ele>718.0</ele>
        <time>2022-03-01T15:30:59Z</time>
      </trkpt>
      <trkpt lat="40.1331980" lon="-4.6926720">
        <ele>718.0</ele>
        <time>2022-03-01T15:31:00Z</time>
      </trkpt>
      <trkpt lat="40.1331980" lon="-4.6926720">
        <ele>718.0</ele>
        <time>2022-03-01T15:31:01Z</time>
      </trkpt>
      <trkpt lat="40.1332600" lon="-4.6926230">
        <ele>718.0</ele>
        <time>2022-03-01T15:31:02Z</time>
      </trkpt>
      <trkpt lat="40.1332600" lon="-4.6926230">
        <ele>718.0</ele>
        <time>2022-03-01T15:31:03Z</time>
      </trkpt>
      <trkpt lat="40.1333280" lon="-4.6925830">
        <ele>718.0</ele>
        <time>2022-03-01T15:31:04Z</time>
      </trkpt>
      <trkpt lat="40.1333280" lon="-4.6925830">
        <ele>719.0</ele>
        <time>2022-03-01T15:31:05Z</time>
      </trkpt>
      <trkpt lat="40.1333920" lon="-4.6925520">
        <ele>719.0</ele>
        <time>2022-03-01T15:31:06Z</time>
      </trkpt>
      <trkpt lat="40.1333920" lon="-4.6925520">
        <ele>719.0</ele>
        <time>2022-03-01T15:31:07Z</time>
      </trkpt>
      <trkpt lat="40.1334500" lon="-4.6925280">
        <ele>719.0</ele>
        <time>2022-03-01T15:31:08Z</time>
      </trkpt>
      <trkpt lat="40.1334500" lon="-4.6925280">
        <ele>719.0</ele>
        <time>2022-03-01T15:31:09Z</time>
      </trkpt>
      <trkpt lat="40.1335000" lon="-4.6924930">
        <ele>719.0</ele>
        <time>2022-03-01T15:31:10Z</time>
      </trkpt>
      <trkpt lat="40.1335000" lon="-4.6924930">
        <ele>720.0</ele>
        <time>2022-03-01T15:31:11Z</time>
      </trkpt>
      <trkpt lat="40.1335550" lon="-4.6924500">
        <ele>720.0</ele>
        <time>2022-03-01T15:31:12Z</time>
      </trkpt>
      <trkpt lat="40.1335870" lon="-4.6924280">
        <ele>720.0</ele>
        <time>2022-03-01T15:31:13Z</time>
      </trkpt>
      <trkpt lat="40.1335870" lon="-4.6924280">
        <ele>720.0</ele>
        <time>2022-03-01T15:31:14Z</time>
      </trkpt>
      <trkpt lat="40.1336480" lon="-4.6923930">
        <ele>721.0</ele>
        <time>2022-03-01T15:31:15Z</time>
      </trkpt>
      <trkpt lat="40.1336780" lon="-4.6923730">
        <ele>721.0</ele>
        <time>2022-03-01T15:31:16Z</time>
      </trkpt>
      <trkpt lat="40.1336780" lon="-4.6923730">
        <ele>721.0</ele>
        <time>2022-03-01T15:31:17Z</time>
      </trkpt>
      <trkpt lat="40.1337320" lon="-4.6923370">
        <ele>721.0</ele>
        <time>2022-03-01T15:31:18Z</time>
      </trkpt>
      <trkpt lat="40.1337320" lon="-4.6923370">
        <ele>722.0</ele>
        <time>2022-03-01T15:31:19Z</time>
      </trkpt>
      <trkpt lat="40.1337870" lon="-4.6923050">
        <ele>722.0</ele>
        <time>2022-03-01T15:31:20Z</time>
      </trkpt>
      <trkpt lat="40.1337870" lon="-4.6923050">
        <ele>722.0</ele>
        <time>2022-03-01T15:31:21Z</time>
      </trkpt>
      <trkpt lat="40.1338380" lon="-4.6922670">
        <ele>722.0</ele>
        <time>2022-03-01T15:31:22Z</time>
      </trkpt>
      <trkpt lat="40.1338380" lon="-4.6922670">
        <ele>723.0</ele>
        <time>2022-03-01T15:31:23Z</time>
      </trkpt>
      <trkpt lat="40.1338880" lon="-4.6922300">
        <ele>723.0</ele>
        <time>2022-03-01T15:31:24Z</time>
      </trkpt>
      <trkpt lat="40.1338880" lon="-4.6922300">
        <ele>723.0</ele>
        <time>2022-03-01T15:31:25Z</time>
      </trkpt>
      <trkpt lat="40.1339430" lon="-4.6921880">
        <ele>723.0</ele>
        <time>2022-03-01T15:31:26Z</time>
      </trkpt>
      <trkpt lat="40.1339680" lon="-4.6921720">
        <ele>724.0</ele>
        <time>2022-03-01T15:31:27Z</time>
      </trkpt>
      <trkpt lat="40.1339930" lon="-4.6921570">
        <ele>724.0</ele>
        <time>2022-03-01T15:31:28Z</time>
      </trkpt>
      <trkpt lat="40.1339930" lon="-4.6921570">
        <ele>724.0</ele>
        <time>2022-03-01T15:31:29Z</time>
      </trkpt>
      <trkpt lat="40.1340450" lon="-4.6921200">
        <ele>724.0</ele>
        <time>2022-03-01T15:31:30Z</time>
      </trkpt>
      <trkpt lat="40.1340450" lon="-4.6921200">
        <ele>725.0</ele>
        <time>2022-03-01T15:31:31Z</time>
      </trkpt>
      <trkpt lat="40.1341050" lon="-4.6920780">
        <ele>725.0</ele>
        <time>2022-03-01T15:31:32Z</time>
      </trkpt>
      <trkpt lat="40.1341350" lon="-4.6920630">
        <ele>725.0</ele>
        <time>2022-03-01T15:31:33Z</time>
      </trkpt>
      <trkpt lat="40.1341630" lon="-4.6920420">
        <ele>725.0</ele>
        <time>2022-03-01T15:31:34Z</time>
      </trkpt>
      <trkpt lat="40.1341630" lon="-4.6920420">
        <ele>726.0</ele>
        <time>2022-03-01T15:31:35Z</time>
      </trkpt>
      <trkpt lat="40.1342150" lon="-4.6920050">
        <ele>727.0</ele>
        <time>2022-03-01T15:31:36Z</time>
      </trkpt>
      <trkpt lat="40.1342150" lon="-4.6920050">
        <ele>727.0</ele>
        <time>2022-03-01T15:31:37Z</time>
      </trkpt>
      <trkpt lat="40.1342650" lon="-4.6919680">
        <ele>727.0</ele>
        <time>2022-03-01T15:31:38Z</time>
      </trkpt>
      <trkpt lat="40.1342650" lon="-4.6919680">
        <ele>727.0</ele>
        <time>2022-03-01T15:31:39Z</time>
      </trkpt>
      <trkpt lat="40.1343130" lon="-4.6919320">
        <ele>728.0</ele>
        <time>2022-03-01T15:31:40Z</time>
      </trkpt>
      <trkpt lat="40.1343400" lon="-4.6919130">
        <ele>728.0</ele>
        <time>2022-03-01T15:31:41Z</time>
      </trkpt>
      <trkpt lat="40.1343400" lon="-4.6919130">
        <ele>728.0</ele>
        <time>2022-03-01T15:31:42Z</time>
      </trkpt>
      <trkpt lat="40.1343950" lon="-4.6918720">
        <ele>728.0</ele>
        <time>2022-03-01T15:31:43Z</time>
      </trkpt>
      <trkpt lat="40.1343950" lon="-4.6918720">
        <ele>729.0</ele>
        <time>2022-03-01T15:31:44Z</time>
      </trkpt>
      <trkpt lat="40.1344450" lon="-4.6918350">
        <ele>729.0</ele>
        <time>2022-03-01T15:31:45Z</time>
      </trkpt>
      <trkpt lat="40.1344700" lon="-4.6918120">
        <ele>729.0</ele>
        <time>2022-03-01T15:31:46Z</time>
      </trkpt>
      <trkpt lat="40.1344700" lon="-4.6918120">
        <ele>729.0</ele>
        <time>2022-03-01T15:31:47Z</time>
      </trkpt>
      <trkpt lat="40.1345170" lon="-4.6917730">
        <ele>730.0</ele>
        <time>2022-03-01T15:31:48Z</time>
      </trkpt>
      <trkpt lat="40.1345170" lon="-4.6917730">
        <ele>730.0</ele>
        <time>2022-03-01T15:31:49Z</time>
      </trkpt>
      <trkpt lat="40.1345670" lon="-4.6917380">
        <ele>730.0</ele>
        <time>2022-03-01T15:31:50Z</time>
      </trkpt>
      <trkpt lat="40.1345670" lon="-4.6917380">
        <ele>730.0</ele>
        <time>2022-03-01T15:31:51Z</time>
      </trkpt>
      <trkpt lat="40.1346130" lon="-4.6917150">
        <ele>731.0</ele>
        <time>2022-03-01T15:31:52Z</time>
      </trkpt>
      <trkpt lat="40.1346400" lon="-4.6917020">
        <ele>731.0</ele>
        <time>2022-03-01T15:31:53Z</time>
      </trkpt>
      <trkpt lat="40.1346400" lon="-4.6917020">
        <ele>731.0</ele>
        <time>2022-03-01T15:31:54Z</time>
      </trkpt>
      <trkpt lat="40.1346930" lon="-4.6916750">
        <ele>731.0</ele>
        <time>2022-03-01T15:31:55Z</time>
      </trkpt>
      <trkpt lat="40.1347230" lon="-4.6916580">
        <ele>732.0</ele>
        <time>2022-03-01T15:31:56Z</time>
      </trkpt>
      <trkpt lat="40.1347230" lon="-4.6916580">
        <ele>732.0</ele>
        <time>2022-03-01T15:31:57Z</time>
      </trkpt>
      <trkpt lat="40.1347800" lon="-4.6916330">
        <ele>732.0</ele>
        <time>2022-03-01T15:31:58Z</time>
      </trkpt>
      <trkpt lat="40.1348080" lon="-4.6916200">
        <ele>732.0</ele>
        <time>2022-03-01T15:31:59Z</time>
      </trkpt>
      <trkpt lat="40.1348080" lon="-4.6916200">
        <ele>733.0</ele>
        <time>2022-03-01T15:32:00Z</time>
      </trkpt>
      <trkpt lat="40.1348580" lon="-4.6916130">
        <ele>733.0</ele>
        <time>2022-03-01T15:32:01Z</time>
      </trkpt>
      <trkpt lat="40.1348580" lon="-4.6916130">
        <ele>733.0</ele>
        <time>2022-03-01T15:32:02Z</time>
      </trkpt>
      <trkpt lat="40.1349050" lon="-4.6915700">
        <ele>733.0</ele>
        <time>2022-03-01T15:32:03Z</time>
      </trkpt>
      <trkpt lat="40.1349280" lon="-4.6915550">
        <ele>733.0</ele>
        <time>2022-03-01T15:32:04Z</time>
      </trkpt>
      <trkpt lat="40.1349280" lon="-4.6915550">
        <ele>733.0</ele>
        <time>2022-03-01T15:32:05Z</time>
      </trkpt>
      <trkpt lat="40.1349750" lon="-4.6915230">
        <ele>734.0</ele>
        <time>2022-03-01T15:32:06Z</time>
      </trkpt>
      <trkpt lat="40.1349750" lon="-4.6915230">
        <ele>734.0</ele>
        <time>2022-03-01T15:32:07Z</time>
      </trkpt>
      <trkpt lat="40.1350200" lon="-4.6914920">
        <ele>734.0</ele>
        <time>2022-03-01T15:32:08Z</time>
      </trkpt>
      <trkpt lat="40.1350200" lon="-4.6914920">
        <ele>734.0</ele>
        <time>2022-03-01T15:32:09Z</time>
      </trkpt>
      <trkpt lat="40.1350700" lon="-4.6914570">
        <ele>735.0</ele>
        <time>2022-03-01T15:32:10Z</time>
      </trkpt>
      <trkpt lat="40.1350700" lon="-4.6914570">
        <ele>735.0</ele>
        <time>2022-03-01T15:32:11Z</time>
      </trkpt>
      <trkpt lat="40.1351270" lon="-4.6914280">
        <ele>735.0</ele>
        <time>2022-03-01T15:32:12Z</time>
      </trkpt>
      <trkpt lat="40.1351570" lon="-4.6914150">
        <ele>735.0</ele>
        <time>2022-03-01T15:32:13Z</time>
      </trkpt>
      <trkpt lat="40.1351570" lon="-4.6914150">
        <ele>735.0</ele>
        <time>2022-03-01T15:32:14Z</time>
      </trkpt>
      <trkpt lat="40.1352150" lon="-4.6913970">
        <ele>735.0</ele>
        <time>2022-03-01T15:32:15Z</time>
      </trkpt>
      <trkpt lat="40.1352150" lon="-4.6913970">
        <ele>736.0</ele>
        <time>2022-03-01T15:32:16Z</time>
      </trkpt>
      <trkpt lat="40.1352750" lon="-4.6913680">
        <ele>736.0</ele>
        <time>2022-03-01T15:32:17Z</time>
      </trkpt>
      <trkpt lat="40.1353030" lon="-4.6913580">
        <ele>736.0</ele>
        <time>2022-03-01T15:32:18Z</time>
      </trkpt>
      <trkpt lat="40.1353030" lon="-4.6913580">
        <ele>736.0</ele>
        <time>2022-03-01T15:32:19Z</time>
      </trkpt>
      <trkpt lat="40.1353550" lon="-4.6913670">
        <ele>738.0</ele>
        <time>2022-03-01T15:32:20Z</time>
      </trkpt>
      <trkpt lat="40.1353820" lon="-4.6913650">
        <ele>738.0</ele>
        <time>2022-03-01T15:32:21Z</time>
      </trkpt>
      <trkpt lat="40.1354100" lon="-4.6913550">
        <ele>738.0</ele>
        <time>2022-03-01T15:32:22Z</time>
      </trkpt>
      <trkpt lat="40.1354100" lon="-4.6913550">
        <ele>738.0</ele>
        <time>2022-03-01T15:32:23Z</time>
      </trkpt>
      <trkpt lat="40.1354650" lon="-4.6913420">
        <ele>738.0</ele>
        <time>2022-03-01T15:32:24Z</time>
      </trkpt>
      <trkpt lat="40.1354650" lon="-4.6913420">
        <ele>738.0</ele>
        <time>2022-03-01T15:32:25Z</time>
      </trkpt>
      <trkpt lat="40.1355120" lon="-4.6913330">
        <ele>739.0</ele>
        <time>2022-03-01T15:32:26Z</time>
      </trkpt>
      <trkpt lat="40.1355370" lon="-4.6913270">
        <ele>739.0</ele>
        <time>2022-03-01T15:32:27Z</time>
      </trkpt>
      <trkpt lat="40.1355600" lon="-4.6913130">
        <ele>740.0</ele>
        <time>2022-03-01T15:32:28Z</time>
      </trkpt>
      <trkpt lat="40.1355800" lon="-4.6913130">
        <ele>740.0</ele>
        <time>2022-03-01T15:32:29Z</time>
      </trkpt>
      <trkpt lat="40.1355800" lon="-4.6913130">
        <ele>740.0</ele>
        <time>2022-03-01T15:32:30Z</time>
      </trkpt>
      <trkpt lat="40.1356230" lon="-4.6912930">
        <ele>741.0</ele>
        <time>2022-03-01T15:32:31Z</time>
      </trkpt>
      <trkpt lat="40.1356230" lon="-4.6912930">
        <ele>741.0</ele>
        <time>2022-03-01T15:32:32Z</time>
      </trkpt>
      <trkpt lat="40.1356820" lon="-4.6912380">
        <ele>741.0</ele>
        <time>2022-03-01T15:32:33Z</time>
      </trkpt>
      <trkpt lat="40.1357100" lon="-4.6912250">
        <ele>741.0</ele>
        <time>2022-03-01T15:32:34Z</time>
      </trkpt>
      <trkpt lat="40.1357100" lon="-4.6912250">
        <ele>743.0</ele>
        <time>2022-03-01T15:32:35Z</time>
      </trkpt>
      <trkpt lat="40.1357600" lon="-4.6911920">
        <ele>743.0</ele>
        <time>2022-03-01T15:32:36Z</time>
      </trkpt>
      <trkpt lat="40.1357870" lon="-4.6911720">
        <ele>743.0</ele>
        <time>2022-03-01T15:32:37Z</time>
      </trkpt>
      <trkpt lat="40.1357870" lon="-4.6911720">
        <ele>743.0</ele>
        <time>2022-03-01T15:32:38Z</time>
      </trkpt>
      <trkpt lat="40.1358370" lon="-4.6911320">
        <ele>744.0</ele>
        <time>2022-03-01T15:32:39Z</time>
      </trkpt>
      <trkpt lat="40.1358370" lon="-4.6911320">
        <ele>744.0</ele>
        <time>2022-03-01T15:32:40Z</time>
      </trkpt>
      <trkpt lat="40.1358850" lon="-4.6910930">
        <ele>744.0</ele>
        <time>2022-03-01T15:32:41Z</time>
      </trkpt>
      <trkpt lat="40.1358850" lon="-4.6910930">
        <ele>744.0</ele>
        <time>2022-03-01T15:32:42Z</time>
      </trkpt>
      <trkpt lat="40.1359350" lon="-4.6910650">
        <ele>745.0</ele>
        <time>2022-03-01T15:32:43Z</time>
      </trkpt>
      <trkpt lat="40.1359350" lon="-4.6910650">
        <ele>745.0</ele>
        <time>2022-03-01T15:32:44Z</time>
      </trkpt>
      <trkpt lat="40.1359850" lon="-4.6910370">
        <ele>745.0</ele>
        <time>2022-03-01T15:32:45Z</time>
      </trkpt>
      <trkpt lat="40.1359850" lon="-4.6910370">
        <ele>745.0</ele>
        <time>2022-03-01T15:32:46Z</time>
      </trkpt>
      <trkpt lat="40.1360430" lon="-4.6909780">
        <ele>746.0</ele>
        <time>2022-03-01T15:32:47Z</time>
      </trkpt>
      <trkpt lat="40.1360430" lon="-4.6909780">
        <ele>746.0</ele>
        <time>2022-03-01T15:32:48Z</time>
      </trkpt>
      <trkpt lat="40.1360920" lon="-4.6909420">
        <ele>746.0</ele>
        <time>2022-03-01T15:32:49Z</time>
      </trkpt>
      <trkpt lat="40.1360920" lon="-4.6909420">
        <ele>746.0</ele>
        <time>2022-03-01T15:32:50Z</time>
      </trkpt>
      <trkpt lat="40.1361580" lon="-4.6909300">
        <ele>748.0</ele>
        <time>2022-03-01T15:32:51Z</time>
      </trkpt>
      <trkpt lat="40.1361870" lon="-4.6909120">
        <ele>748.0</ele>
        <time>2022-03-01T15:32:52Z</time>
      </trkpt>
      <trkpt lat="40.1361870" lon="-4.6909120">
        <ele>748.0</ele>
        <time>2022-03-01T15:32:53Z</time>
      </trkpt>
      <trkpt lat="40.1362520" lon="-4.6908800">
        <ele>748.0</ele>
        <time>2022-03-01T15:32:54Z</time>
      </trkpt>
      <trkpt lat="40.1362520" lon="-4.6908800">
        <ele>748.0</ele>
        <time>2022-03-01T15:32:55Z</time>
      </trkpt>
      <trkpt lat="40.1363270" lon="-4.6908470">
        <ele>748.0</ele>
        <time>2022-03-01T15:32:56Z</time>
      </trkpt>
      <trkpt lat="40.1363270" lon="-4.6908470">
        <ele>748.0</ele>
        <time>2022-03-01T15:32:57Z</time>
      </trkpt>
      <trkpt lat="40.1363880" lon="-4.6908150">
        <ele>748.0</ele>
        <time>2022-03-01T15:32:58Z</time>
      </trkpt>
      <trkpt lat="40.1364170" lon="-4.6908030">
        <ele>749.0</ele>
        <time>2022-03-01T15:32:59Z</time>
      </trkpt>
      <trkpt lat="40.1364520" lon="-4.6907830">
        <ele>749.0</ele>
        <time>2022-03-01T15:33:00Z</time>
      </trkpt>
      <trkpt lat="40.1364520" lon="-4.6907830">
        <ele>749.0</ele>
        <time>2022-03-01T15:33:01Z</time>
      </trkpt>
      <trkpt lat="40.1365230" lon="-4.6907270">
        <ele>749.0</ele>
        <time>2022-03-01T15:33:02Z</time>
      </trkpt>
      <trkpt lat="40.1365230" lon="-4.6907270">
        <ele>750.0</ele>
        <time>2022-03-01T15:33:03Z</time>
      </trkpt>
      <trkpt lat="40.1366020" lon="-4.6906470">
        <ele>750.0</ele>
        <time>2022-03-01T15:33:04Z</time>
      </trkpt>
      <trkpt lat="40.1366020" lon="-4.6906470">
        <ele>750.0</ele>
        <time>2022-03-01T15:33:05Z</time>
      </trkpt>
      <trkpt lat="40.1366720" lon="-4.6905630">
        <ele>750.0</ele>
        <time>2022-03-01T15:33:06Z</time>
      </trkpt>
      <trkpt lat="40.1366720" lon="-4.6905630">
        <ele>750.0</ele>
        <time>2022-03-01T15:33:07Z</time>
      </trkpt>
      <trkpt lat="40.1367270" lon="-4.6904520">
        <ele>750.0</ele>
        <time>2022-03-01T15:33:08Z</time>
      </trkpt>
      <trkpt lat="40.1367650" lon="-4.6904150">
        <ele>750.0</ele>
        <time>2022-03-01T15:33:09Z</time>
      </trkpt>
      <trkpt lat="40.1367650" lon="-4.6904150">
        <ele>750.0</ele>
        <time>2022-03-01T15:33:10Z</time>
      </trkpt>
      <trkpt lat="40.1368530" lon="-4.6903670">
        <ele>751.0</ele>
        <time>2022-03-01T15:33:11Z</time>
      </trkpt>
      <trkpt lat="40.1369000" lon="-4.6903530">
        <ele>751.0</ele>
        <time>2022-03-01T15:33:12Z</time>
      </trkpt>
      <trkpt lat="40.1369000" lon="-4.6903530">
        <ele>751.0</ele>
        <time>2022-03-01T15:33:13Z</time>
      </trkpt>
      <trkpt lat="40.1370000" lon="-4.6903320">
        <ele>751.0</ele>
        <time>2022-03-01T15:33:14Z</time>
      </trkpt>
      <trkpt lat="40.1370000" lon="-4.6903320">
        <ele>751.0</ele>
        <time>2022-03-01T15:33:15Z</time>
      </trkpt>
      <trkpt lat="40.1370980" lon="-4.6903170">
        <ele>751.0</ele>
        <time>2022-03-01T15:33:16Z</time>
      </trkpt>
      <trkpt lat="40.1370980" lon="-4.6903170">
        <ele>751.0</ele>
        <time>2022-03-01T15:33:17Z</time>
      </trkpt>
      <trkpt lat="40.1371820" lon="-4.6903130">
        <ele>751.0</ele>
        <time>2022-03-01T15:33:18Z</time>
      </trkpt>
      <trkpt lat="40.1371820" lon="-4.6903130">
        <ele>752.0</ele>
        <time>2022-03-01T15:33:19Z</time>
      </trkpt>
      <trkpt lat="40.1372670" lon="-4.6903350">
        <ele>752.0</ele>
        <time>2022-03-01T15:33:20Z</time>
      </trkpt>
      <trkpt lat="40.1373070" lon="-4.6903520">
        <ele>752.0</ele>
        <time>2022-03-01T15:33:21Z</time>
      </trkpt>
      <trkpt lat="40.1373070" lon="-4.6903520">
        <ele>752.0</ele>
        <time>2022-03-01T15:33:22Z</time>
      </trkpt>
      <trkpt lat="40.1373870" lon="-4.6903930">
        <ele>752.0</ele>
        <time>2022-03-01T15:33:23Z</time>
      </trkpt>
      <trkpt lat="40.1374280" lon="-4.6904200">
        <ele>754.0</ele>
        <time>2022-03-01T15:33:24Z</time>
      </trkpt>
      <trkpt lat="40.1374680" lon="-4.6904430">
        <ele>754.0</ele>
        <time>2022-03-01T15:33:25Z</time>
      </trkpt>
      <trkpt lat="40.1374680" lon="-4.6904430">
        <ele>754.0</ele>
        <time>2022-03-01T15:33:26Z</time>
      </trkpt>
      <trkpt lat="40.1375500" lon="-4.6904730">
        <ele>754.0</ele>
        <time>2022-03-01T15:33:27Z</time>
      </trkpt>
      <trkpt lat="40.1375900" lon="-4.6904880">
        <ele>754.0</ele>
        <time>2022-03-01T15:33:28Z</time>
      </trkpt>
      <trkpt lat="40.1375900" lon="-4.6904880">
        <ele>754.0</ele>
        <time>2022-03-01T15:33:29Z</time>
      </trkpt>
      <trkpt lat="40.1376730" lon="-4.6905280">
        <ele>754.0</ele>
        <time>2022-03-01T15:33:30Z</time>
      </trkpt>
      <trkpt lat="40.1376730" lon="-4.6905280">
        <ele>754.0</ele>
        <time>2022-03-01T15:33:31Z</time>
      </trkpt>
      <trkpt lat="40.1377670" lon="-4.6905730">
        <ele>754.0</ele>
        <time>2022-03-01T15:33:32Z</time>
      </trkpt>
      <trkpt lat="40.1378050" lon="-4.6906120">
        <ele>754.0</ele>
        <time>2022-03-01T15:33:33Z</time>
      </trkpt>
      <trkpt lat="40.1378450" lon="-4.6906500">
        <ele>754.0</ele>
        <time>2022-03-01T15:33:34Z</time>
      </trkpt>
      <trkpt lat="40.1378450" lon="-4.6906500">
        <ele>754.0</ele>
        <time>2022-03-01T15:33:35Z</time>
      </trkpt>
      <trkpt lat="40.1379230" lon="-4.6907020">
        <ele>755.0</ele>
        <time>2022-03-01T15:33:36Z</time>
      </trkpt>
      <trkpt lat="40.1379680" lon="-4.6907130">
        <ele>755.0</ele>
        <time>2022-03-01T15:33:37Z</time>
      </trkpt>
      <trkpt lat="40.1379680" lon="-4.6907130">
        <ele>755.0</ele>
        <time>2022-03-01T15:33:38Z</time>
      </trkpt>
      <trkpt lat="40.1380600" lon="-4.6907600">
        <ele>755.0</ele>
        <time>2022-03-01T15:33:39Z</time>
      </trkpt>
      <trkpt lat="40.1381050" lon="-4.6907720">
        <ele>756.0</ele>
        <time>2022-03-01T15:33:40Z</time>
      </trkpt>
      <trkpt lat="40.1381050" lon="-4.6907720">
        <ele>756.0</ele>
        <time>2022-03-01T15:33:41Z</time>
      </trkpt>
      <trkpt lat="40.1381900" lon="-4.6907770">
        <ele>756.0</ele>
        <time>2022-03-01T15:33:42Z</time>
      </trkpt>
      <trkpt lat="40.1381900" lon="-4.6907770">
        <ele>756.0</ele>
        <time>2022-03-01T15:33:43Z</time>
      </trkpt>
      <trkpt lat="40.1382730" lon="-4.6907600">
        <ele>756.0</ele>
        <time>2022-03-01T15:33:44Z</time>
      </trkpt>
      <trkpt lat="40.1382730" lon="-4.6907600">
        <ele>756.0</ele>
        <time>2022-03-01T15:33:45Z</time>
      </trkpt>
      <trkpt lat="40.1383570" lon="-4.6907280">
        <ele>756.0</ele>
        <time>2022-03-01T15:33:46Z</time>
      </trkpt>
      <trkpt lat="40.1383570" lon="-4.6907280">
        <ele>756.0</ele>
        <time>2022-03-01T15:33:47Z</time>
      </trkpt>
      <trkpt lat="40.1384330" lon="-4.6907030">
        <ele>757.0</ele>
        <time>2022-03-01T15:33:48Z</time>
      </trkpt>
      <trkpt lat="40.1384330" lon="-4.6907030">
        <ele>757.0</ele>
        <time>2022-03-01T15:33:49Z</time>
      </trkpt>
      <trkpt lat="40.1385050" lon="-4.6906920">
        <ele>758.0</ele>
        <time>2022-03-01T15:33:50Z</time>
      </trkpt>
      <trkpt lat="40.1385050" lon="-4.6906920">
        <ele>758.0</ele>
        <time>2022-03-01T15:33:51Z</time>
      </trkpt>
      <trkpt lat="40.1385770" lon="-4.6906970">
        <ele>758.0</ele>
        <time>2022-03-01T15:33:52Z</time>
      </trkpt>
      <trkpt lat="40.1385770" lon="-4.6906970">
        <ele>758.0</ele>
        <time>2022-03-01T15:33:53Z</time>
      </trkpt>
      <trkpt lat="40.1386550" lon="-4.6907000">
        <ele>759.0</ele>
        <time>2022-03-01T15:33:54Z</time>
      </trkpt>
      <trkpt lat="40.1386550" lon="-4.6907000">
        <ele>759.0</ele>
        <time>2022-03-01T15:33:55Z</time>
      </trkpt>
      <trkpt lat="40.1387380" lon="-4.6906880">
        <ele>759.0</ele>
        <time>2022-03-01T15:33:56Z</time>
      </trkpt>
      <trkpt lat="40.1387380" lon="-4.6906880">
        <ele>759.0</ele>
        <time>2022-03-01T15:33:57Z</time>
      </trkpt>
      <trkpt lat="40.1388100" lon="-4.6906880">
        <ele>759.0</ele>
        <time>2022-03-01T15:33:58Z</time>
      </trkpt>
      <trkpt lat="40.1388100" lon="-4.6906880">
        <ele>759.0</ele>
        <time>2022-03-01T15:33:59Z</time>
      </trkpt>
      <trkpt lat="40.1388800" lon="-4.6906850">
        <ele>760.0</ele>
        <time>2022-03-01T15:34:00Z</time>
      </trkpt>
      <trkpt lat="40.1388800" lon="-4.6906850">
        <ele>760.0</ele>
        <time>2022-03-01T15:34:01Z</time>
      </trkpt>
      <trkpt lat="40.1389480" lon="-4.6906870">
        <ele>760.0</ele>
        <time>2022-03-01T15:34:02Z</time>
      </trkpt>
      <trkpt lat="40.1389480" lon="-4.6906870">
        <ele>760.0</ele>
        <time>2022-03-01T15:34:03Z</time>
      </trkpt>
      <trkpt lat="40.1390200" lon="-4.6906950">
        <ele>762.0</ele>
        <time>2022-03-01T15:34:04Z</time>
      </trkpt>
      <trkpt lat="40.1390200" lon="-4.6906950">
        <ele>762.0</ele>
        <time>2022-03-01T15:34:05Z</time>
      </trkpt>
      <trkpt lat="40.1390920" lon="-4.6906880">
        <ele>762.0</ele>
        <time>2022-03-01T15:34:06Z</time>
      </trkpt>
      <trkpt lat="40.1390920" lon="-4.6906880">
        <ele>762.0</ele>
        <time>2022-03-01T15:34:07Z</time>
      </trkpt>
      <trkpt lat="40.1391650" lon="-4.6906850">
        <ele>763.0</ele>
        <time>2022-03-01T15:34:08Z</time>
      </trkpt>
      <trkpt lat="40.1392030" lon="-4.6906900">
        <ele>763.0</ele>
        <time>2022-03-01T15:34:09Z</time>
      </trkpt>
      <trkpt lat="40.1392030" lon="-4.6906900">
        <ele>764.0</ele>
        <time>2022-03-01T15:34:10Z</time>
      </trkpt>
      <trkpt lat="40.1392700" lon="-4.6907050">
        <ele>764.0</ele>
        <time>2022-03-01T15:34:11Z</time>
      </trkpt>
      <trkpt lat="40.1393030" lon="-4.6907100">
        <ele>764.0</ele>
        <time>2022-03-01T15:34:12Z</time>
      </trkpt>
      <trkpt lat="40.1393030" lon="-4.6907100">
        <ele>764.0</ele>
        <time>2022-03-01T15:34:13Z</time>
      </trkpt>
      <trkpt lat="40.1393680" lon="-4.6907180">
        <ele>764.0</ele>
        <time>2022-03-01T15:34:14Z</time>
      </trkpt>
      <trkpt lat="40.1393680" lon="-4.6907180">
        <ele>764.0</ele>
        <time>2022-03-01T15:34:15Z</time>
      </trkpt>
      <trkpt lat="40.1394320" lon="-4.6907270">
        <ele>766.0</ele>
        <time>2022-03-01T15:34:16Z</time>
      </trkpt>
      <trkpt lat="40.1394320" lon="-4.6907270">
        <ele>766.0</ele>
        <time>2022-03-01T15:34:17Z</time>
      </trkpt>
      <trkpt lat="40.1394930" lon="-4.6907330">
        <ele>766.0</ele>
        <time>2022-03-01T15:34:18Z</time>
      </trkpt>
      <trkpt lat="40.1394930" lon="-4.6907330">
        <ele>767.0</ele>
        <time>2022-03-01T15:34:19Z</time>
      </trkpt>
      <trkpt lat="40.1395480" lon="-4.6907420">
        <ele>767.0</ele>
        <time>2022-03-01T15:34:20Z</time>
      </trkpt>
      <trkpt lat="40.1395480" lon="-4.6907420">
        <ele>767.0</ele>
        <time>2022-03-01T15:34:21Z</time>
      </trkpt>
      <trkpt lat="40.1396020" lon="-4.6907470">
        <ele>767.0</ele>
        <time>2022-03-01T15:34:22Z</time>
      </trkpt>
      <trkpt lat="40.1396020" lon="-4.6907470">
        <ele>768.0</ele>
        <time>2022-03-01T15:34:23Z</time>
      </trkpt>
      <trkpt lat="40.1396630" lon="-4.6907480">
        <ele>768.0</ele>
        <time>2022-03-01T15:34:24Z</time>
      </trkpt>
      <trkpt lat="40.1396630" lon="-4.6907480">
        <ele>768.0</ele>
        <time>2022-03-01T15:34:25Z</time>
      </trkpt>
      <trkpt lat="40.1397300" lon="-4.6907480">
        <ele>768.0</ele>
        <time>2022-03-01T15:34:26Z</time>
      </trkpt>
      <trkpt lat="40.1397300" lon="-4.6907480">
        <ele>770.0</ele>
        <time>2022-03-01T15:34:27Z</time>
      </trkpt>
      <trkpt lat="40.1397930" lon="-4.6907430">
        <ele>770.0</ele>
        <time>2022-03-01T15:34:28Z</time>
      </trkpt>
      <trkpt lat="40.1397930" lon="-4.6907430">
        <ele>770.0</ele>
        <time>2022-03-01T15:34:29Z</time>
      </trkpt>
      <trkpt lat="40.1398550" lon="-4.6907320">
        <ele>770.0</ele>
        <time>2022-03-01T15:34:30Z</time>
      </trkpt>
      <trkpt lat="40.1398550" lon="-4.6907320">
        <ele>770.0</ele>
        <time>2022-03-01T15:34:31Z</time>
      </trkpt>
      <trkpt lat="40.1399120" lon="-4.6907300">
        <ele>770.0</ele>
        <time>2022-03-01T15:34:32Z</time>
      </trkpt>
      <trkpt lat="40.1399120" lon="-4.6907300">
        <ele>770.0</ele>
        <time>2022-03-01T15:34:33Z</time>
      </trkpt>
      <trkpt lat="40.1399650" lon="-4.6907320">
        <ele>770.0</ele>
        <time>2022-03-01T15:34:34Z</time>
      </trkpt>
      <trkpt lat="40.1399650" lon="-4.6907320">
        <ele>771.0</ele>
        <time>2022-03-01T15:34:35Z</time>
      </trkpt>
      <trkpt lat="40.1400070" lon="-4.6907270">
        <ele>771.0</ele>
        <time>2022-03-01T15:34:36Z</time>
      </trkpt>
      <trkpt lat="40.1400070" lon="-4.6907270">
        <ele>771.0</ele>
        <time>2022-03-01T15:34:37Z</time>
      </trkpt>
      <trkpt lat="40.1400450" lon="-4.6907080">
        <ele>771.0</ele>
        <time>2022-03-01T15:34:38Z</time>
      </trkpt>
      <trkpt lat="40.1400450" lon="-4.6907080">
        <ele>773.0</ele>
        <time>2022-03-01T15:34:39Z</time>
      </trkpt>
      <trkpt lat="40.1400980" lon="-4.6907120">
        <ele>773.0</ele>
        <time>2022-03-01T15:34:40Z</time>
      </trkpt>
      <trkpt lat="40.1400980" lon="-4.6907120">
        <ele>773.0</ele>
        <time>2022-03-01T15:34:41Z</time>
      </trkpt>
      <trkpt lat="40.1401550" lon="-4.6907020">
        <ele>773.0</ele>
        <time>2022-03-01T15:34:42Z</time>
      </trkpt>
      <trkpt lat="40.1401820" lon="-4.6906980">
        <ele>774.0</ele>
        <time>2022-03-01T15:34:43Z</time>
      </trkpt>
      <trkpt lat="40.1402100" lon="-4.6906930">
        <ele>774.0</ele>
        <time>2022-03-01T15:34:44Z</time>
      </trkpt>
      <trkpt lat="40.1402100" lon="-4.6906930">
        <ele>774.0</ele>
        <time>2022-03-01T15:34:45Z</time>
      </trkpt>
      <trkpt lat="40.1402600" lon="-4.6906850">
        <ele>774.0</ele>
        <time>2022-03-01T15:34:46Z</time>
      </trkpt>
      <trkpt lat="40.1402600" lon="-4.6906850">
        <ele>775.0</ele>
        <time>2022-03-01T15:34:47Z</time>
      </trkpt>
      <trkpt lat="40.1403120" lon="-4.6906800">
        <ele>775.0</ele>
        <time>2022-03-01T15:34:48Z</time>
      </trkpt>
      <trkpt lat="40.1403120" lon="-4.6906800">
        <ele>775.0</ele>
        <time>2022-03-01T15:34:49Z</time>
      </trkpt>
      <trkpt lat="40.1403650" lon="-4.6906980">
        <ele>775.0</ele>
        <time>2022-03-01T15:34:50Z</time>
      </trkpt>
      <trkpt lat="40.1403650" lon="-4.6906980">
        <ele>776.0</ele>
        <time>2022-03-01T15:34:51Z</time>
      </trkpt>
      <trkpt lat="40.1404170" lon="-4.6906870">
        <ele>776.0</ele>
        <time>2022-03-01T15:34:52Z</time>
      </trkpt>
      <trkpt lat="40.1404450" lon="-4.6906780">
        <ele>776.0</ele>
        <time>2022-03-01T15:34:53Z</time>
      </trkpt>
      <trkpt lat="40.1404730" lon="-4.6906700">
        <ele>776.0</ele>
        <time>2022-03-01T15:34:54Z</time>
      </trkpt>
      <trkpt lat="40.1404730" lon="-4.6906700">
        <ele>777.0</ele>
        <time>2022-03-01T15:34:55Z</time>
      </trkpt>
      <trkpt lat="40.1405250" lon="-4.6906650">
        <ele>777.0</ele>
        <time>2022-03-01T15:34:56Z</time>
      </trkpt>
      <trkpt lat="40.1405250" lon="-4.6906650">
        <ele>777.0</ele>
        <time>2022-03-01T15:34:57Z</time>
      </trkpt>
      <trkpt lat="40.1405750" lon="-4.6906470">
        <ele>777.0</ele>
        <time>2022-03-01T15:34:58Z</time>
      </trkpt>
      <trkpt lat="40.1405750" lon="-4.6906470">
        <ele>778.0</ele>
        <time>2022-03-01T15:34:59Z</time>
      </trkpt>
      <trkpt lat="40.1406250" lon="-4.6906400">
        <ele>778.0</ele>
        <time>2022-03-01T15:35:00Z</time>
      </trkpt>
      <trkpt lat="40.1406250" lon="-4.6906400">
        <ele>778.0</ele>
        <time>2022-03-01T15:35:01Z</time>
      </trkpt>
      <trkpt lat="40.1406780" lon="-4.6906320">
        <ele>778.0</ele>
        <time>2022-03-01T15:35:02Z</time>
      </trkpt>
      <trkpt lat="40.1407030" lon="-4.6906270">
        <ele>779.0</ele>
        <time>2022-03-01T15:35:03Z</time>
      </trkpt>
      <trkpt lat="40.1407300" lon="-4.6906150">
        <ele>779.0</ele>
        <time>2022-03-01T15:35:04Z</time>
      </trkpt>
      <trkpt lat="40.1407300" lon="-4.6906150">
        <ele>779.0</ele>
        <time>2022-03-01T15:35:05Z</time>
      </trkpt>
      <trkpt lat="40.1407820" lon="-4.6906050">
        <ele>779.0</ele>
        <time>2022-03-01T15:35:06Z</time>
      </trkpt>
      <trkpt lat="40.1407820" lon="-4.6906050">
        <ele>780.0</ele>
        <time>2022-03-01T15:35:07Z</time>
      </trkpt>
      <trkpt lat="40.1408530" lon="-4.6905870">
        <ele>780.0</ele>
        <time>2022-03-01T15:35:08Z</time>
      </trkpt>
      <trkpt lat="40.1408820" lon="-4.6905820">
        <ele>780.0</ele>
        <time>2022-03-01T15:35:09Z</time>
      </trkpt>
      <trkpt lat="40.1409100" lon="-4.6905780">
        <ele>780.0</ele>
        <time>2022-03-01T15:35:10Z</time>
      </trkpt>
      <trkpt lat="40.1409100" lon="-4.6905780">
        <ele>781.0</ele>
        <time>2022-03-01T15:35:11Z</time>
      </trkpt>
      <trkpt lat="40.1409630" lon="-4.6905720">
        <ele>781.0</ele>
        <time>2022-03-01T15:35:12Z</time>
      </trkpt>
      <trkpt lat="40.1409900" lon="-4.6905670">
        <ele>781.0</ele>
        <time>2022-03-01T15:35:13Z</time>
      </trkpt>
      <trkpt lat="40.1409900" lon="-4.6905670">
        <ele>781.0</ele>
        <time>2022-03-01T15:35:14Z</time>
      </trkpt>
      <trkpt lat="40.1410430" lon="-4.6905500">
        <ele>782.0</ele>
        <time>2022-03-01T15:35:15Z</time>
      </trkpt>
      <trkpt lat="40.1410700" lon="-4.6905430">
        <ele>782.0</ele>
        <time>2022-03-01T15:35:16Z</time>
      </trkpt>
      <trkpt lat="40.1410700" lon="-4.6905430">
        <ele>783.0</ele>
        <time>2022-03-01T15:35:17Z</time>
      </trkpt>
      <trkpt lat="40.1411300" lon="-4.6905380">
        <ele>783.0</ele>
        <time>2022-03-01T15:35:18Z</time>
      </trkpt>
      <trkpt lat="40.1411300" lon="-4.6905380">
        <ele>784.0</ele>
        <time>2022-03-01T15:35:19Z</time>
      </trkpt>
      <trkpt lat="40.1411850" lon="-4.6905370">
        <ele>784.0</ele>
        <time>2022-03-01T15:35:20Z</time>
      </trkpt>
      <trkpt lat="40.1411850" lon="-4.6905370">
        <ele>784.0</ele>
        <time>2022-03-01T15:35:21Z</time>
      </trkpt>
      <trkpt lat="40.1412420" lon="-4.6905370">
        <ele>784.0</ele>
        <time>2022-03-01T15:35:22Z</time>
      </trkpt>
      <trkpt lat="40.1412420" lon="-4.6905370">
        <ele>785.0</ele>
        <time>2022-03-01T15:35:23Z</time>
      </trkpt>
      <trkpt lat="40.1413000" lon="-4.6905400">
        <ele>785.0</ele>
        <time>2022-03-01T15:35:24Z</time>
      </trkpt>
      <trkpt lat="40.1413000" lon="-4.6905400">
        <ele>786.0</ele>
        <time>2022-03-01T15:35:25Z</time>
      </trkpt>
      <trkpt lat="40.1413580" lon="-4.6905520">
        <ele>786.0</ele>
        <time>2022-03-01T15:35:26Z</time>
      </trkpt>
      <trkpt lat="40.1413580" lon="-4.6905520">
        <ele>786.0</ele>
        <time>2022-03-01T15:35:27Z</time>
      </trkpt>
      <trkpt lat="40.1414200" lon="-4.6905620">
        <ele>786.0</ele>
        <time>2022-03-01T15:35:28Z</time>
      </trkpt>
      <trkpt lat="40.1414200" lon="-4.6905620">
        <ele>787.0</ele>
        <time>2022-03-01T15:35:29Z</time>
      </trkpt>
      <trkpt lat="40.1414780" lon="-4.6905720">
        <ele>787.0</ele>
        <time>2022-03-01T15:35:30Z</time>
      </trkpt>
      <trkpt lat="40.1415070" lon="-4.6905830">
        <ele>787.0</ele>
        <time>2022-03-01T15:35:31Z</time>
      </trkpt>
      <trkpt lat="40.1415070" lon="-4.6905830">
        <ele>787.0</ele>
        <time>2022-03-01T15:35:32Z</time>
      </trkpt>
      <trkpt lat="40.1415670" lon="-4.6906030">
        <ele>788.0</ele>
        <time>2022-03-01T15:35:33Z</time>
      </trkpt>
      <trkpt lat="40.1415670" lon="-4.6906030">
        <ele>788.0</ele>
        <time>2022-03-01T15:35:34Z</time>
      </trkpt>
      <trkpt lat="40.1416280" lon="-4.6906200">
        <ele>788.0</ele>
        <time>2022-03-01T15:35:35Z</time>
      </trkpt>
      <trkpt lat="40.1416550" lon="-4.6906370">
        <ele>788.0</ele>
        <time>2022-03-01T15:35:36Z</time>
      </trkpt>
      <trkpt lat="40.1416550" lon="-4.6906370">
        <ele>789.0</ele>
        <time>2022-03-01T15:35:37Z</time>
      </trkpt>
      <trkpt lat="40.1417080" lon="-4.6906830">
        <ele>789.0</ele>
        <time>2022-03-01T15:35:38Z</time>
      </trkpt>
      <trkpt lat="40.1417080" lon="-4.6906830">
        <ele>789.0</ele>
        <time>2022-03-01T15:35:39Z</time>
      </trkpt>
      <trkpt lat="40.1417580" lon="-4.6906870">
        <ele>789.0</ele>
        <time>2022-03-01T15:35:40Z</time>
      </trkpt>
      <trkpt lat="40.1417580" lon="-4.6906870">
        <ele>791.0</ele>
        <time>2022-03-01T15:35:41Z</time>
      </trkpt>
      <trkpt lat="40.1418180" lon="-4.6907050">
        <ele>791.0</ele>
        <time>2022-03-01T15:35:42Z</time>
      </trkpt>
      <trkpt lat="40.1418470" lon="-4.6907120">
        <ele>791.0</ele>
        <time>2022-03-01T15:35:43Z</time>
      </trkpt>
      <trkpt lat="40.1418470" lon="-4.6907120">
        <ele>791.0</ele>
        <time>2022-03-01T15:35:44Z</time>
      </trkpt>
      <trkpt lat="40.1419120" lon="-4.6907370">
        <ele>793.0</ele>
        <time>2022-03-01T15:35:45Z</time>
      </trkpt>
      <trkpt lat="40.1419430" lon="-4.6907370">
        <ele>793.0</ele>
        <time>2022-03-01T15:35:46Z</time>
      </trkpt>
      <trkpt lat="40.1419430" lon="-4.6907370">
        <ele>794.0</ele>
        <time>2022-03-01T15:35:47Z</time>
      </trkpt>
      <trkpt lat="40.1420070" lon="-4.6907430">
        <ele>794.0</ele>
        <time>2022-03-01T15:35:48Z</time>
      </trkpt>
      <trkpt lat="40.1420070" lon="-4.6907430">
        <ele>794.0</ele>
        <time>2022-03-01T15:35:49Z</time>
      </trkpt>
      <trkpt lat="40.1420680" lon="-4.6907500">
        <ele>794.0</ele>
        <time>2022-03-01T15:35:50Z</time>
      </trkpt>
      <trkpt lat="40.1420680" lon="-4.6907500">
        <ele>795.0</ele>
        <time>2022-03-01T15:35:51Z</time>
      </trkpt>
      <trkpt lat="40.1421250" lon="-4.6907550">
        <ele>795.0</ele>
        <time>2022-03-01T15:35:52Z</time>
      </trkpt>
      <trkpt lat="40.1421250" lon="-4.6907550">
        <ele>796.0</ele>
        <time>2022-03-01T15:35:53Z</time>
      </trkpt>
      <trkpt lat="40.1421850" lon="-4.6907500">
        <ele>796.0</ele>
        <time>2022-03-01T15:35:54Z</time>
      </trkpt>
      <trkpt lat="40.1421850" lon="-4.6907500">
        <ele>796.0</ele>
        <time>2022-03-01T15:35:55Z</time>
      </trkpt>
      <trkpt lat="40.1422470" lon="-4.6907430">
        <ele>796.0</ele>
        <time>2022-03-01T15:35:56Z</time>
      </trkpt>
      <trkpt lat="40.1422800" lon="-4.6907420">
        <ele>797.0</ele>
        <time>2022-03-01T15:35:57Z</time>
      </trkpt>
      <trkpt lat="40.1422800" lon="-4.6907420">
        <ele>797.0</ele>
        <time>2022-03-01T15:35:58Z</time>
      </trkpt>
      <trkpt lat="40.1423420" lon="-4.6907400">
        <ele>798.0</ele>
        <time>2022-03-01T15:35:59Z</time>
      </trkpt>
      <trkpt lat="40.1423730" lon="-4.6907380">
        <ele>798.0</ele>
        <time>2022-03-01T15:36:00Z</time>
      </trkpt>
      <trkpt lat="40.1423730" lon="-4.6907380">
        <ele>798.0</ele>
        <time>2022-03-01T15:36:01Z</time>
      </trkpt>
      <trkpt lat="40.1424370" lon="-4.6907330">
        <ele>798.0</ele>
        <time>2022-03-01T15:36:02Z</time>
      </trkpt>
      <trkpt lat="40.1424370" lon="-4.6907330">
        <ele>798.0</ele>
        <time>2022-03-01T15:36:03Z</time>
      </trkpt>
      <trkpt lat="40.1424980" lon="-4.6907380">
        <ele>799.0</ele>
        <time>2022-03-01T15:36:04Z</time>
      </trkpt>
      <trkpt lat="40.1424980" lon="-4.6907380">
        <ele>800.0</ele>
        <time>2022-03-01T15:36:05Z</time>
      </trkpt>
      <trkpt lat="40.1425600" lon="-4.6907480">
        <ele>800.0</ele>
        <time>2022-03-01T15:36:06Z</time>
      </trkpt>
      <trkpt lat="40.1425600" lon="-4.6907480">
        <ele>801.0</ele>
        <time>2022-03-01T15:36:07Z</time>
      </trkpt>
      <trkpt lat="40.1426180" lon="-4.6907700">
        <ele>801.0</ele>
        <time>2022-03-01T15:36:08Z</time>
      </trkpt>
      <trkpt lat="40.1426180" lon="-4.6907700">
        <ele>801.0</ele>
        <time>2022-03-01T15:36:09Z</time>
      </trkpt>
      <trkpt lat="40.1426820" lon="-4.6908050">
        <ele>801.0</ele>
        <time>2022-03-01T15:36:10Z</time>
      </trkpt>
      <trkpt lat="40.1426820" lon="-4.6908050">
        <ele>802.0</ele>
        <time>2022-03-01T15:36:11Z</time>
      </trkpt>
      <trkpt lat="40.1427380" lon="-4.6908170">
        <ele>802.0</ele>
        <time>2022-03-01T15:36:12Z</time>
      </trkpt>
      <trkpt lat="40.1427630" lon="-4.6908220">
        <ele>803.0</ele>
        <time>2022-03-01T15:36:13Z</time>
      </trkpt>
      <trkpt lat="40.1427630" lon="-4.6908220">
        <ele>803.0</ele>
        <time>2022-03-01T15:36:14Z</time>
      </trkpt>
      <trkpt lat="40.1428180" lon="-4.6908430">
        <ele>804.0</ele>
        <time>2022-03-01T15:36:15Z</time>
      </trkpt>
      <trkpt lat="40.1428180" lon="-4.6908430">
        <ele>804.0</ele>
        <time>2022-03-01T15:36:16Z</time>
      </trkpt>
      <trkpt lat="40.1428750" lon="-4.6908580">
        <ele>804.0</ele>
        <time>2022-03-01T15:36:17Z</time>
      </trkpt>
      <trkpt lat="40.1428750" lon="-4.6908580">
        <ele>804.0</ele>
        <time>2022-03-01T15:36:18Z</time>
      </trkpt>
      <trkpt lat="40.1429320" lon="-4.6908720">
        <ele>804.0</ele>
        <time>2022-03-01T15:36:19Z</time>
      </trkpt>
      <trkpt lat="40.1429570" lon="-4.6908780">
        <ele>804.0</ele>
        <time>2022-03-01T15:36:20Z</time>
      </trkpt>
      <trkpt lat="40.1429570" lon="-4.6908780">
        <ele>805.0</ele>
        <time>2022-03-01T15:36:21Z</time>
      </trkpt>
      <trkpt lat="40.1430080" lon="-4.6908870">
        <ele>805.0</ele>
        <time>2022-03-01T15:36:22Z</time>
      </trkpt>
      <trkpt lat="40.1430080" lon="-4.6908870">
        <ele>805.0</ele>
        <time>2022-03-01T15:36:23Z</time>
      </trkpt>
      <trkpt lat="40.1430650" lon="-4.6908950">
        <ele>805.0</ele>
        <time>2022-03-01T15:36:24Z</time>
      </trkpt>
      <trkpt lat="40.1430650" lon="-4.6908950">
        <ele>806.0</ele>
        <time>2022-03-01T15:36:25Z</time>
      </trkpt>
      <trkpt lat="40.1431270" lon="-4.6908950">
        <ele>806.0</ele>
        <time>2022-03-01T15:36:26Z</time>
      </trkpt>
      <trkpt lat="40.1431270" lon="-4.6908950">
        <ele>807.0</ele>
        <time>2022-03-01T15:36:27Z</time>
      </trkpt>
      <trkpt lat="40.1431850" lon="-4.6908850">
        <ele>807.0</ele>
        <time>2022-03-01T15:36:28Z</time>
      </trkpt>
      <trkpt lat="40.1432150" lon="-4.6908800">
        <ele>808.0</ele>
        <time>2022-03-01T15:36:29Z</time>
      </trkpt>
      <trkpt lat="40.1432430" lon="-4.6908720">
        <ele>808.0</ele>
        <time>2022-03-01T15:36:30Z</time>
      </trkpt>
      <trkpt lat="40.1432430" lon="-4.6908720">
        <ele>808.0</ele>
        <time>2022-03-01T15:36:31Z</time>
      </trkpt>
      <trkpt lat="40.1432970" lon="-4.6908580">
        <ele>808.0</ele>
        <time>2022-03-01T15:36:32Z</time>
      </trkpt>
      <trkpt lat="40.1433250" lon="-4.6908530">
        <ele>809.0</ele>
        <time>2022-03-01T15:36:33Z</time>
      </trkpt>
      <trkpt lat="40.1433250" lon="-4.6908530">
        <ele>809.0</ele>
        <time>2022-03-01T15:36:34Z</time>
      </trkpt>
      <trkpt lat="40.1433830" lon="-4.6908400">
        <ele>809.0</ele>
        <time>2022-03-01T15:36:35Z</time>
      </trkpt>
      <trkpt lat="40.1434120" lon="-4.6908320">
        <ele>809.0</ele>
        <time>2022-03-01T15:36:36Z</time>
      </trkpt>
      <trkpt lat="40.1434120" lon="-4.6908320">
        <ele>810.0</ele>
        <time>2022-03-01T15:36:37Z</time>
      </trkpt>
      <trkpt lat="40.1434720" lon="-4.6908220">
        <ele>810.0</ele>
        <time>2022-03-01T15:36:38Z</time>
      </trkpt>
      <trkpt lat="40.1434720" lon="-4.6908220">
        <ele>810.0</ele>
        <time>2022-03-01T15:36:39Z</time>
      </trkpt>
      <trkpt lat="40.1435250" lon="-4.6908180">
        <ele>810.0</ele>
        <time>2022-03-01T15:36:40Z</time>
      </trkpt>
      <trkpt lat="40.1435250" lon="-4.6908180">
        <ele>811.0</ele>
        <time>2022-03-01T15:36:41Z</time>
      </trkpt>
      <trkpt lat="40.1435850" lon="-4.6908330">
        <ele>811.0</ele>
        <time>2022-03-01T15:36:42Z</time>
      </trkpt>
      <trkpt lat="40.1435850" lon="-4.6908330">
        <ele>811.0</ele>
        <time>2022-03-01T15:36:43Z</time>
      </trkpt>
      <trkpt lat="40.1436470" lon="-4.6908520">
        <ele>811.0</ele>
        <time>2022-03-01T15:36:44Z</time>
      </trkpt>
      <trkpt lat="40.1436470" lon="-4.6908520">
        <ele>812.0</ele>
        <time>2022-03-01T15:36:45Z</time>
      </trkpt>
      <trkpt lat="40.1437050" lon="-4.6908680">
        <ele>812.0</ele>
        <time>2022-03-01T15:36:46Z</time>
      </trkpt>
      <trkpt lat="40.1437050" lon="-4.6908680">
        <ele>812.0</ele>
        <time>2022-03-01T15:36:47Z</time>
      </trkpt>
      <trkpt lat="40.1437730" lon="-4.6908880">
        <ele>813.0</ele>
        <time>2022-03-01T15:36:48Z</time>
      </trkpt>
      <trkpt lat="40.1437730" lon="-4.6908880">
        <ele>813.0</ele>
        <time>2022-03-01T15:36:49Z</time>
      </trkpt>
      <trkpt lat="40.1438380" lon="-4.6908980">
        <ele>813.0</ele>
        <time>2022-03-01T15:36:50Z</time>
      </trkpt>
      <trkpt lat="40.1438380" lon="-4.6908980">
        <ele>813.0</ele>
        <time>2022-03-01T15:36:51Z</time>
      </trkpt>
      <trkpt lat="40.1438980" lon="-4.6909080">
        <ele>814.0</ele>
        <time>2022-03-01T15:36:52Z</time>
      </trkpt>
      <trkpt lat="40.1438980" lon="-4.6909080">
        <ele>814.0</ele>
        <time>2022-03-01T15:36:53Z</time>
      </trkpt>
      <trkpt lat="40.1439600" lon="-4.6909200">
        <ele>815.0</ele>
        <time>2022-03-01T15:36:54Z</time>
      </trkpt>
      <trkpt lat="40.1439600" lon="-4.6909200">
        <ele>815.0</ele>
        <time>2022-03-01T15:36:55Z</time>
      </trkpt>
      <trkpt lat="40.1440180" lon="-4.6909300">
        <ele>815.0</ele>
        <time>2022-03-01T15:36:56Z</time>
      </trkpt>
      <trkpt lat="40.1440180" lon="-4.6909300">
        <ele>815.0</ele>
        <time>2022-03-01T15:36:57Z</time>
      </trkpt>
      <trkpt lat="40.1440800" lon="-4.6909470">
        <ele>816.0</ele>
        <time>2022-03-01T15:36:58Z</time>
      </trkpt>
      <trkpt lat="40.1440800" lon="-4.6909470">
        <ele>816.0</ele>
        <time>2022-03-01T15:36:59Z</time>
      </trkpt>
      <trkpt lat="40.1441400" lon="-4.6909650">
        <ele>816.0</ele>
        <time>2022-03-01T15:37:00Z</time>
      </trkpt>
      <trkpt lat="40.1441400" lon="-4.6909650">
        <ele>817.0</ele>
        <time>2022-03-01T15:37:01Z</time>
      </trkpt>
      <trkpt lat="40.1441970" lon="-4.6909850">
        <ele>817.0</ele>
        <time>2022-03-01T15:37:02Z</time>
      </trkpt>
      <trkpt lat="40.1441970" lon="-4.6909850">
        <ele>817.0</ele>
        <time>2022-03-01T15:37:03Z</time>
      </trkpt>
      <trkpt lat="40.1442530" lon="-4.6909980">
        <ele>817.0</ele>
        <time>2022-03-01T15:37:04Z</time>
      </trkpt>
      <trkpt lat="40.1442530" lon="-4.6909980">
        <ele>818.0</ele>
        <time>2022-03-01T15:37:05Z</time>
      </trkpt>
      <trkpt lat="40.1443080" lon="-4.6910150">
        <ele>818.0</ele>
        <time>2022-03-01T15:37:06Z</time>
      </trkpt>
      <trkpt lat="40.1443080" lon="-4.6910150">
        <ele>819.0</ele>
        <time>2022-03-01T15:37:07Z</time>
      </trkpt>
      <trkpt lat="40.1443670" lon="-4.6910350">
        <ele>819.0</ele>
        <time>2022-03-01T15:37:08Z</time>
      </trkpt>
      <trkpt lat="40.1443670" lon="-4.6910350">
        <ele>820.0</ele>
        <time>2022-03-01T15:37:09Z</time>
      </trkpt>
      <trkpt lat="40.1444270" lon="-4.6910420">
        <ele>820.0</ele>
        <time>2022-03-01T15:37:10Z</time>
      </trkpt>
      <trkpt lat="40.1444270" lon="-4.6910420">
        <ele>820.0</ele>
        <time>2022-03-01T15:37:11Z</time>
      </trkpt>
      <trkpt lat="40.1444830" lon="-4.6910380">
        <ele>821.0</ele>
        <time>2022-03-01T15:37:12Z</time>
      </trkpt>
      <trkpt lat="40.1445120" lon="-4.6910430">
        <ele>821.0</ele>
        <time>2022-03-01T15:37:13Z</time>
      </trkpt>
      <trkpt lat="40.1445120" lon="-4.6910430">
        <ele>821.0</ele>
        <time>2022-03-01T15:37:14Z</time>
      </trkpt>
      <trkpt lat="40.1445680" lon="-4.6910520">
        <ele>821.0</ele>
        <time>2022-03-01T15:37:15Z</time>
      </trkpt>
      <trkpt lat="40.1445970" lon="-4.6910520">
        <ele>822.0</ele>
        <time>2022-03-01T15:37:16Z</time>
      </trkpt>
      <trkpt lat="40.1445970" lon="-4.6910520">
        <ele>822.0</ele>
        <time>2022-03-01T15:37:17Z</time>
      </trkpt>
      <trkpt lat="40.1446570" lon="-4.6910520">
        <ele>822.0</ele>
        <time>2022-03-01T15:37:18Z</time>
      </trkpt>
      <trkpt lat="40.1446570" lon="-4.6910520">
        <ele>822.0</ele>
        <time>2022-03-01T15:37:19Z</time>
      </trkpt>
      <trkpt lat="40.1447130" lon="-4.6910520">
        <ele>823.0</ele>
        <time>2022-03-01T15:37:20Z</time>
      </trkpt>
      <trkpt lat="40.1447130" lon="-4.6910520">
        <ele>823.0</ele>
        <time>2022-03-01T15:37:21Z</time>
      </trkpt>
      <trkpt lat="40.1447670" lon="-4.6910480">
        <ele>823.0</ele>
        <time>2022-03-01T15:37:22Z</time>
      </trkpt>
      <trkpt lat="40.1447670" lon="-4.6910480">
        <ele>823.0</ele>
        <time>2022-03-01T15:37:23Z</time>
      </trkpt>
      <trkpt lat="40.1448180" lon="-4.6910430">
        <ele>824.0</ele>
        <time>2022-03-01T15:37:24Z</time>
      </trkpt>
      <trkpt lat="40.1448180" lon="-4.6910430">
        <ele>824.0</ele>
        <time>2022-03-01T15:37:25Z</time>
      </trkpt>
      <trkpt lat="40.1448630" lon="-4.6910370">
        <ele>824.0</ele>
        <time>2022-03-01T15:37:26Z</time>
      </trkpt>
      <trkpt lat="40.1448630" lon="-4.6910370">
        <ele>824.0</ele>
        <time>2022-03-01T15:37:27Z</time>
      </trkpt>
      <trkpt lat="40.1449020" lon="-4.6910280">
        <ele>825.0</ele>
        <time>2022-03-01T15:37:28Z</time>
      </trkpt>
      <trkpt lat="40.1449020" lon="-4.6910280">
        <ele>825.0</ele>
        <time>2022-03-01T15:37:29Z</time>
      </trkpt>
      <trkpt lat="40.1449470" lon="-4.6910150">
        <ele>825.0</ele>
        <time>2022-03-01T15:37:30Z</time>
      </trkpt>
      <trkpt lat="40.1449470" lon="-4.6910150">
        <ele>825.0</ele>
        <time>2022-03-01T15:37:31Z</time>
      </trkpt>
      <trkpt lat="40.1449970" lon="-4.6909950">
        <ele>826.0</ele>
        <time>2022-03-01T15:37:32Z</time>
      </trkpt>
      <trkpt lat="40.1450220" lon="-4.6909900">
        <ele>826.0</ele>
        <time>2022-03-01T15:37:33Z</time>
      </trkpt>
      <trkpt lat="40.1450220" lon="-4.6909900">
        <ele>827.0</ele>
        <time>2022-03-01T15:37:34Z</time>
      </trkpt>
      <trkpt lat="40.1450730" lon="-4.6909780">
        <ele>827.0</ele>
        <time>2022-03-01T15:37:35Z</time>
      </trkpt>
      <trkpt lat="40.1451000" lon="-4.6909720">
        <ele>827.0</ele>
        <time>2022-03-01T15:37:36Z</time>
      </trkpt>
      <trkpt lat="40.1451000" lon="-4.6909720">
        <ele>827.0</ele>
        <time>2022-03-01T15:37:37Z</time>
      </trkpt>
      <trkpt lat="40.1451500" lon="-4.6909680">
        <ele>828.0</ele>
        <time>2022-03-01T15:37:38Z</time>
      </trkpt>
      <trkpt lat="40.1451500" lon="-4.6909680">
        <ele>828.0</ele>
        <time>2022-03-01T15:37:39Z</time>
      </trkpt>
      <trkpt lat="40.1452000" lon="-4.6909670">
        <ele>828.0</ele>
        <time>2022-03-01T15:37:40Z</time>
      </trkpt>
      <trkpt lat="40.1452000" lon="-4.6909670">
        <ele>828.0</ele>
        <time>2022-03-01T15:37:41Z</time>
      </trkpt>
      <trkpt lat="40.1452500" lon="-4.6909730">
        <ele>828.0</ele>
        <time>2022-03-01T15:37:42Z</time>
      </trkpt>
      <trkpt lat="40.1452500" lon="-4.6909730">
        <ele>828.0</ele>
        <time>2022-03-01T15:37:43Z</time>
      </trkpt>
      <trkpt lat="40.1453100" lon="-4.6909900">
        <ele>829.0</ele>
        <time>2022-03-01T15:37:44Z</time>
      </trkpt>
      <trkpt lat="40.1453350" lon="-4.6909980">
        <ele>829.0</ele>
        <time>2022-03-01T15:37:45Z</time>
      </trkpt>
      <trkpt lat="40.1453350" lon="-4.6909980">
        <ele>829.0</ele>
        <time>2022-03-01T15:37:46Z</time>
      </trkpt>
      <trkpt lat="40.1453820" lon="-4.6910280">
        <ele>829.0</ele>
        <time>2022-03-01T15:37:47Z</time>
      </trkpt>
      <trkpt lat="40.1453820" lon="-4.6910280">
        <ele>830.0</ele>
        <time>2022-03-01T15:37:48Z</time>
      </trkpt>
      <trkpt lat="40.1454280" lon="-4.6910630">
        <ele>830.0</ele>
        <time>2022-03-01T15:37:49Z</time>
      </trkpt>
      <trkpt lat="40.1454280" lon="-4.6910630">
        <ele>830.0</ele>
        <time>2022-03-01T15:37:50Z</time>
      </trkpt>
      <trkpt lat="40.1454780" lon="-4.6910930">
        <ele>830.0</ele>
        <time>2022-03-01T15:37:51Z</time>
      </trkpt>
      <trkpt lat="40.1455050" lon="-4.6911080">
        <ele>831.0</ele>
        <time>2022-03-01T15:37:52Z</time>
      </trkpt>
      <trkpt lat="40.1455050" lon="-4.6911080">
        <ele>831.0</ele>
        <time>2022-03-01T15:37:53Z</time>
      </trkpt>
      <trkpt lat="40.1455600" lon="-4.6911500">
        <ele>831.0</ele>
        <time>2022-03-01T15:37:54Z</time>
      </trkpt>
      <trkpt lat="40.1455600" lon="-4.6911500">
        <ele>831.0</ele>
        <time>2022-03-01T15:37:55Z</time>
      </trkpt>
      <trkpt lat="40.1456180" lon="-4.6911880">
        <ele>831.0</ele>
        <time>2022-03-01T15:37:56Z</time>
      </trkpt>
      <trkpt lat="40.1456180" lon="-4.6911880">
        <ele>832.0</ele>
        <time>2022-03-01T15:37:57Z</time>
      </trkpt>
      <trkpt lat="40.1456780" lon="-4.6912230">
        <ele>832.0</ele>
        <time>2022-03-01T15:37:58Z</time>
      </trkpt>
      <trkpt lat="40.1456780" lon="-4.6912230">
        <ele>832.0</ele>
        <time>2022-03-01T15:37:59Z</time>
      </trkpt>
      <trkpt lat="40.1457320" lon="-4.6912530">
        <ele>832.0</ele>
        <time>2022-03-01T15:38:00Z</time>
      </trkpt>
      <trkpt lat="40.1457320" lon="-4.6912530">
        <ele>833.0</ele>
        <time>2022-03-01T15:38:01Z</time>
      </trkpt>
      <trkpt lat="40.1457800" lon="-4.6912820">
        <ele>833.0</ele>
        <time>2022-03-01T15:38:02Z</time>
      </trkpt>
      <trkpt lat="40.1457800" lon="-4.6912820">
        <ele>833.0</ele>
        <time>2022-03-01T15:38:03Z</time>
      </trkpt>
      <trkpt lat="40.1458270" lon="-4.6913120">
        <ele>833.0</ele>
        <time>2022-03-01T15:38:04Z</time>
      </trkpt>
      <trkpt lat="40.1458270" lon="-4.6913120">
        <ele>834.0</ele>
        <time>2022-03-01T15:38:05Z</time>
      </trkpt>
      <trkpt lat="40.1458720" lon="-4.6913380">
        <ele>834.0</ele>
        <time>2022-03-01T15:38:06Z</time>
      </trkpt>
      <trkpt lat="40.1458720" lon="-4.6913380">
        <ele>834.0</ele>
        <time>2022-03-01T15:38:07Z</time>
      </trkpt>
      <trkpt lat="40.1459180" lon="-4.6913630">
        <ele>834.0</ele>
        <time>2022-03-01T15:38:08Z</time>
      </trkpt>
      <trkpt lat="40.1459180" lon="-4.6913630">
        <ele>835.0</ele>
        <time>2022-03-01T15:38:09Z</time>
      </trkpt>
      <trkpt lat="40.1459650" lon="-4.6913950">
        <ele>835.0</ele>
        <time>2022-03-01T15:38:10Z</time>
      </trkpt>
      <trkpt lat="40.1459650" lon="-4.6913950">
        <ele>835.0</ele>
        <time>2022-03-01T15:38:11Z</time>
      </trkpt>
      <trkpt lat="40.1460150" lon="-4.6914230">
        <ele>835.0</ele>
        <time>2022-03-01T15:38:12Z</time>
      </trkpt>
      <trkpt lat="40.1460150" lon="-4.6914230">
        <ele>836.0</ele>
        <time>2022-03-01T15:38:13Z</time>
      </trkpt>
      <trkpt lat="40.1460570" lon="-4.6914450">
        <ele>836.0</ele>
        <time>2022-03-01T15:38:14Z</time>
      </trkpt>
      <trkpt lat="40.1460870" lon="-4.6914630">
        <ele>836.0</ele>
        <time>2022-03-01T15:38:15Z</time>
      </trkpt>
      <trkpt lat="40.1460870" lon="-4.6914630">
        <ele>836.0</ele>
        <time>2022-03-01T15:38:16Z</time>
      </trkpt>
      <trkpt lat="40.1461420" lon="-4.6915000">
        <ele>837.0</ele>
        <time>2022-03-01T15:38:17Z</time>
      </trkpt>
      <trkpt lat="40.1461700" lon="-4.6915150">
        <ele>837.0</ele>
        <time>2022-03-01T15:38:18Z</time>
      </trkpt>
      <trkpt lat="40.1461700" lon="-4.6915150">
        <ele>838.0</ele>
        <time>2022-03-01T15:38:19Z</time>
      </trkpt>
      <trkpt lat="40.1462280" lon="-4.6915450">
        <ele>838.0</ele>
        <time>2022-03-01T15:38:20Z</time>
      </trkpt>
      <trkpt lat="40.1462280" lon="-4.6915450">
        <ele>838.0</ele>
        <time>2022-03-01T15:38:21Z</time>
      </trkpt>
      <trkpt lat="40.1462850" lon="-4.6915680">
        <ele>838.0</ele>
        <time>2022-03-01T15:38:22Z</time>
      </trkpt>
      <trkpt lat="40.1462850" lon="-4.6915680">
        <ele>839.0</ele>
        <time>2022-03-01T15:38:23Z</time>
      </trkpt>
      <trkpt lat="40.1463420" lon="-4.6915900">
        <ele>839.0</ele>
        <time>2022-03-01T15:38:24Z</time>
      </trkpt>
      <trkpt lat="40.1463420" lon="-4.6915900">
        <ele>839.0</ele>
        <time>2022-03-01T15:38:25Z</time>
      </trkpt>
      <trkpt lat="40.1463970" lon="-4.6916030">
        <ele>839.0</ele>
        <time>2022-03-01T15:38:26Z</time>
      </trkpt>
      <trkpt lat="40.1463970" lon="-4.6916030">
        <ele>839.0</ele>
        <time>2022-03-01T15:38:27Z</time>
      </trkpt>
      <trkpt lat="40.1464550" lon="-4.6916080">
        <ele>839.0</ele>
        <time>2022-03-01T15:38:28Z</time>
      </trkpt>
      <trkpt lat="40.1464550" lon="-4.6916080">
        <ele>841.0</ele>
        <time>2022-03-01T15:38:29Z</time>
      </trkpt>
      <trkpt lat="40.1465120" lon="-4.6916100">
        <ele>841.0</ele>
        <time>2022-03-01T15:38:30Z</time>
      </trkpt>
      <trkpt lat="40.1465120" lon="-4.6916100">
        <ele>841.0</ele>
        <time>2022-03-01T15:38:31Z</time>
      </trkpt>
      <trkpt lat="40.1465720" lon="-4.6916080">
        <ele>841.0</ele>
        <time>2022-03-01T15:38:32Z</time>
      </trkpt>
      <trkpt lat="40.1466020" lon="-4.6916020">
        <ele>841.0</ele>
        <time>2022-03-01T15:38:33Z</time>
      </trkpt>
      <trkpt lat="40.1466300" lon="-4.6915980">
        <ele>841.0</ele>
        <time>2022-03-01T15:38:34Z</time>
      </trkpt>
      <trkpt lat="40.1466300" lon="-4.6915980">
        <ele>841.0</ele>
        <time>2022-03-01T15:38:35Z</time>
      </trkpt>
      <trkpt lat="40.1466880" lon="-4.6916000">
        <ele>841.0</ele>
        <time>2022-03-01T15:38:36Z</time>
      </trkpt>
      <trkpt lat="40.1466880" lon="-4.6916000">
        <ele>842.0</ele>
        <time>2022-03-01T15:38:37Z</time>
      </trkpt>
      <trkpt lat="40.1467480" lon="-4.6916050">
        <ele>842.0</ele>
        <time>2022-03-01T15:38:38Z</time>
      </trkpt>
      <trkpt lat="40.1467480" lon="-4.6916050">
        <ele>843.0</ele>
        <time>2022-03-01T15:38:39Z</time>
      </trkpt>
      <trkpt lat="40.1468070" lon="-4.6915980">
        <ele>843.0</ele>
        <time>2022-03-01T15:38:40Z</time>
      </trkpt>
      <trkpt lat="40.1468070" lon="-4.6915980">
        <ele>843.0</ele>
        <time>2022-03-01T15:38:41Z</time>
      </trkpt>
      <trkpt lat="40.1468650" lon="-4.6915880">
        <ele>843.0</ele>
        <time>2022-03-01T15:38:42Z</time>
      </trkpt>
      <trkpt lat="40.1468650" lon="-4.6915880">
        <ele>844.0</ele>
        <time>2022-03-01T15:38:43Z</time>
      </trkpt>
      <trkpt lat="40.1469230" lon="-4.6915780">
        <ele>844.0</ele>
        <time>2022-03-01T15:38:44Z</time>
      </trkpt>
      <trkpt lat="40.1469230" lon="-4.6915780">
        <ele>844.0</ele>
        <time>2022-03-01T15:38:45Z</time>
      </trkpt>
      <trkpt lat="40.1469780" lon="-4.6915670">
        <ele>845.0</ele>
        <time>2022-03-01T15:38:46Z</time>
      </trkpt>
      <trkpt lat="40.1469780" lon="-4.6915670">
        <ele>845.0</ele>
        <time>2022-03-01T15:38:47Z</time>
      </trkpt>
      <trkpt lat="40.1470330" lon="-4.6915700">
        <ele>845.0</ele>
        <time>2022-03-01T15:38:48Z</time>
      </trkpt>
      <trkpt lat="40.1470330" lon="-4.6915700">
        <ele>845.0</ele>
        <time>2022-03-01T15:38:49Z</time>
      </trkpt>
      <trkpt lat="40.1470850" lon="-4.6915650">
        <ele>847.0</ele>
        <time>2022-03-01T15:38:50Z</time>
      </trkpt>
      <trkpt lat="40.1471130" lon="-4.6915630">
        <ele>847.0</ele>
        <time>2022-03-01T15:38:51Z</time>
      </trkpt>
      <trkpt lat="40.1471130" lon="-4.6915630">
        <ele>847.0</ele>
        <time>2022-03-01T15:38:52Z</time>
      </trkpt>
      <trkpt lat="40.1471780" lon="-4.6915570">
        <ele>847.0</ele>
        <time>2022-03-01T15:38:53Z</time>
      </trkpt>
      <trkpt lat="40.1472100" lon="-4.6915550">
        <ele>847.0</ele>
        <time>2022-03-01T15:38:54Z</time>
      </trkpt>
      <trkpt lat="40.1472100" lon="-4.6915550">
        <ele>847.0</ele>
        <time>2022-03-01T15:38:55Z</time>
      </trkpt>
      <trkpt lat="40.1472730" lon="-4.6915430">
        <ele>848.0</ele>
        <time>2022-03-01T15:38:56Z</time>
      </trkpt>
      <trkpt lat="40.1472730" lon="-4.6915430">
        <ele>848.0</ele>
        <time>2022-03-01T15:38:57Z</time>
      </trkpt>
      <trkpt lat="40.1473420" lon="-4.6915370">
        <ele>848.0</ele>
        <time>2022-03-01T15:38:58Z</time>
      </trkpt>
      <trkpt lat="40.1473420" lon="-4.6915370">
        <ele>848.0</ele>
        <time>2022-03-01T15:38:59Z</time>
      </trkpt>
      <trkpt lat="40.1474080" lon="-4.6915230">
        <ele>849.0</ele>
        <time>2022-03-01T15:39:00Z</time>
      </trkpt>
      <trkpt lat="40.1474080" lon="-4.6915230">
        <ele>849.0</ele>
        <time>2022-03-01T15:39:01Z</time>
      </trkpt>
      <trkpt lat="40.1474730" lon="-4.6915100">
        <ele>849.0</ele>
        <time>2022-03-01T15:39:02Z</time>
      </trkpt>
      <trkpt lat="40.1474730" lon="-4.6915100">
        <ele>849.0</ele>
        <time>2022-03-01T15:39:03Z</time>
      </trkpt>
      <trkpt lat="40.1475350" lon="-4.6914970">
        <ele>850.0</ele>
        <time>2022-03-01T15:39:04Z</time>
      </trkpt>
      <trkpt lat="40.1475350" lon="-4.6914970">
        <ele>850.0</ele>
        <time>2022-03-01T15:39:05Z</time>
      </trkpt>
      <trkpt lat="40.1475970" lon="-4.6914830">
        <ele>850.0</ele>
        <time>2022-03-01T15:39:06Z</time>
      </trkpt>
      <trkpt lat="40.1475970" lon="-4.6914830">
        <ele>850.0</ele>
        <time>2022-03-01T15:39:07Z</time>
      </trkpt>
      <trkpt lat="40.1476530" lon="-4.6914720">
        <ele>851.0</ele>
        <time>2022-03-01T15:39:08Z</time>
      </trkpt>
      <trkpt lat="40.1476830" lon="-4.6914670">
        <ele>851.0</ele>
        <time>2022-03-01T15:39:09Z</time>
      </trkpt>
      <trkpt lat="40.1476830" lon="-4.6914670">
        <ele>851.0</ele>
        <time>2022-03-01T15:39:10Z</time>
      </trkpt>
      <trkpt lat="40.1477400" lon="-4.6914530">
        <ele>851.0</ele>
        <time>2022-03-01T15:39:11Z</time>
      </trkpt>
      <trkpt lat="40.1477680" lon="-4.6914480">
        <ele>851.0</ele>
        <time>2022-03-01T15:39:12Z</time>
      </trkpt>
      <trkpt lat="40.1477680" lon="-4.6914480">
        <ele>851.0</ele>
        <time>2022-03-01T15:39:13Z</time>
      </trkpt>
      <trkpt lat="40.1478280" lon="-4.6914420">
        <ele>852.0</ele>
        <time>2022-03-01T15:39:14Z</time>
      </trkpt>
      <trkpt lat="40.1478280" lon="-4.6914420">
        <ele>852.0</ele>
        <time>2022-03-01T15:39:15Z</time>
      </trkpt>
      <trkpt lat="40.1478850" lon="-4.6914280">
        <ele>852.0</ele>
        <time>2022-03-01T15:39:16Z</time>
      </trkpt>
      <trkpt lat="40.1478850" lon="-4.6914280">
        <ele>852.0</ele>
        <time>2022-03-01T15:39:17Z</time>
      </trkpt>
      <trkpt lat="40.1479470" lon="-4.6914170">
        <ele>853.0</ele>
        <time>2022-03-01T15:39:18Z</time>
      </trkpt>
      <trkpt lat="40.1479470" lon="-4.6914170">
        <ele>853.0</ele>
        <time>2022-03-01T15:39:19Z</time>
      </trkpt>
      <trkpt lat="40.1480070" lon="-4.6914100">
        <ele>853.0</ele>
        <time>2022-03-01T15:39:20Z</time>
      </trkpt>
      <trkpt lat="40.1480070" lon="-4.6914100">
        <ele>853.0</ele>
        <time>2022-03-01T15:39:21Z</time>
      </trkpt>
      <trkpt lat="40.1480680" lon="-4.6913930">
        <ele>853.0</ele>
        <time>2022-03-01T15:39:22Z</time>
      </trkpt>
      <trkpt lat="40.1481000" lon="-4.6913900">
        <ele>854.0</ele>
        <time>2022-03-01T15:39:23Z</time>
      </trkpt>
      <trkpt lat="40.1481300" lon="-4.6913830">
        <ele>854.0</ele>
        <time>2022-03-01T15:39:24Z</time>
      </trkpt>
      <trkpt lat="40.1481300" lon="-4.6913830">
        <ele>854.0</ele>
        <time>2022-03-01T15:39:25Z</time>
      </trkpt>
      <trkpt lat="40.1481900" lon="-4.6913670">
        <ele>854.0</ele>
        <time>2022-03-01T15:39:26Z</time>
      </trkpt>
      <trkpt lat="40.1481900" lon="-4.6913670">
        <ele>855.0</ele>
        <time>2022-03-01T15:39:27Z</time>
      </trkpt>
      <trkpt lat="40.1482530" lon="-4.6913530">
        <ele>855.0</ele>
        <time>2022-03-01T15:39:28Z</time>
      </trkpt>
      <trkpt lat="40.1482530" lon="-4.6913530">
        <ele>855.0</ele>
        <time>2022-03-01T15:39:29Z</time>
      </trkpt>
      <trkpt lat="40.1483130" lon="-4.6913430">
        <ele>855.0</ele>
        <time>2022-03-01T15:39:30Z</time>
      </trkpt>
      <trkpt lat="40.1483130" lon="-4.6913430">
        <ele>856.0</ele>
        <time>2022-03-01T15:39:31Z</time>
      </trkpt>
      <trkpt lat="40.1483700" lon="-4.6913320">
        <ele>856.0</ele>
        <time>2022-03-01T15:39:32Z</time>
      </trkpt>
      <trkpt lat="40.1483700" lon="-4.6913320">
        <ele>856.0</ele>
        <time>2022-03-01T15:39:33Z</time>
      </trkpt>
      <trkpt lat="40.1484300" lon="-4.6913250">
        <ele>856.0</ele>
        <time>2022-03-01T15:39:34Z</time>
      </trkpt>
      <trkpt lat="40.1484300" lon="-4.6913250">
        <ele>857.0</ele>
        <time>2022-03-01T15:39:35Z</time>
      </trkpt>
      <trkpt lat="40.1484880" lon="-4.6913070">
        <ele>857.0</ele>
        <time>2022-03-01T15:39:36Z</time>
      </trkpt>
      <trkpt lat="40.1484880" lon="-4.6913070">
        <ele>857.0</ele>
        <time>2022-03-01T15:39:37Z</time>
      </trkpt>
      <trkpt lat="40.1485450" lon="-4.6912900">
        <ele>857.0</ele>
        <time>2022-03-01T15:39:38Z</time>
      </trkpt>
      <trkpt lat="40.1485730" lon="-4.6912780">
        <ele>859.0</ele>
        <time>2022-03-01T15:39:39Z</time>
      </trkpt>
      <trkpt lat="40.1485730" lon="-4.6912780">
        <ele>859.0</ele>
        <time>2022-03-01T15:39:40Z</time>
      </trkpt>
      <trkpt lat="40.1486270" lon="-4.6912580">
        <ele>859.0</ele>
        <time>2022-03-01T15:39:41Z</time>
      </trkpt>
      <trkpt lat="40.1486550" lon="-4.6912500">
        <ele>860.0</ele>
        <time>2022-03-01T15:39:42Z</time>
      </trkpt>
      <trkpt lat="40.1486830" lon="-4.6912400">
        <ele>860.0</ele>
        <time>2022-03-01T15:39:43Z</time>
      </trkpt>
      <trkpt lat="40.1486830" lon="-4.6912400">
        <ele>860.0</ele>
        <time>2022-03-01T15:39:44Z</time>
      </trkpt>
      <trkpt lat="40.1487520" lon="-4.6912150">
        <ele>860.0</ele>
        <time>2022-03-01T15:39:45Z</time>
      </trkpt>
      <trkpt lat="40.1487520" lon="-4.6912150">
        <ele>861.0</ele>
        <time>2022-03-01T15:39:46Z</time>
      </trkpt>
      <trkpt lat="40.1488180" lon="-4.6911900">
        <ele>861.0</ele>
        <time>2022-03-01T15:39:47Z</time>
      </trkpt>
      <trkpt lat="40.1488520" lon="-4.6911770">
        <ele>861.0</ele>
        <time>2022-03-01T15:39:48Z</time>
      </trkpt>
      <trkpt lat="40.1488520" lon="-4.6911770">
        <ele>861.0</ele>
        <time>2022-03-01T15:39:49Z</time>
      </trkpt>
      <trkpt lat="40.1489170" lon="-4.6911530">
        <ele>862.0</ele>
        <time>2022-03-01T15:39:50Z</time>
      </trkpt>
      <trkpt lat="40.1489170" lon="-4.6911530">
        <ele>862.0</ele>
        <time>2022-03-01T15:39:51Z</time>
      </trkpt>
      <trkpt lat="40.1489830" lon="-4.6911230">
        <ele>862.0</ele>
        <time>2022-03-01T15:39:52Z</time>
      </trkpt>
      <trkpt lat="40.1490130" lon="-4.6911130">
        <ele>862.0</ele>
        <time>2022-03-01T15:39:53Z</time>
      </trkpt>
      <trkpt lat="40.1490450" lon="-4.6911030">
        <ele>862.0</ele>
        <time>2022-03-01T15:39:54Z</time>
      </trkpt>
      <trkpt lat="40.1490800" lon="-4.6910870">
        <ele>862.0</ele>
        <time>2022-03-01T15:39:55Z</time>
      </trkpt>
      <trkpt lat="40.1490800" lon="-4.6910870">
        <ele>862.0</ele>
        <time>2022-03-01T15:39:56Z</time>
      </trkpt>
      <trkpt lat="40.1491480" lon="-4.6910600">
        <ele>862.0</ele>
        <time>2022-03-01T15:39:57Z</time>
      </trkpt>
      <trkpt lat="40.1491850" lon="-4.6910470">
        <ele>862.0</ele>
        <time>2022-03-01T15:39:58Z</time>
      </trkpt>
      <trkpt lat="40.1491850" lon="-4.6910470">
        <ele>862.0</ele>
        <time>2022-03-01T15:39:59Z</time>
      </trkpt>
      <trkpt lat="40.1492580" lon="-4.6910280">
        <ele>863.0</ele>
        <time>2022-03-01T15:40:00Z</time>
      </trkpt>
      <trkpt lat="40.1492970" lon="-4.6910180">
        <ele>863.0</ele>
        <time>2022-03-01T15:40:01Z</time>
      </trkpt>
      <trkpt lat="40.1492970" lon="-4.6910180">
        <ele>863.0</ele>
        <time>2022-03-01T15:40:02Z</time>
      </trkpt>
      <trkpt lat="40.1493750" lon="-4.6909900">
        <ele>863.0</ele>
        <time>2022-03-01T15:40:03Z</time>
      </trkpt>
      <trkpt lat="40.1494130" lon="-4.6909750">
        <ele>863.0</ele>
        <time>2022-03-01T15:40:04Z</time>
      </trkpt>
      <trkpt lat="40.1494130" lon="-4.6909750">
        <ele>863.0</ele>
        <time>2022-03-01T15:40:05Z</time>
      </trkpt>
      <trkpt lat="40.1494920" lon="-4.6909480">
        <ele>864.0</ele>
        <time>2022-03-01T15:40:06Z</time>
      </trkpt>
      <trkpt lat="40.1494920" lon="-4.6909480">
        <ele>864.0</ele>
        <time>2022-03-01T15:40:07Z</time>
      </trkpt>
      <trkpt lat="40.1495770" lon="-4.6909270">
        <ele>864.0</ele>
        <time>2022-03-01T15:40:08Z</time>
      </trkpt>
      <trkpt lat="40.1495770" lon="-4.6909270">
        <ele>864.0</ele>
        <time>2022-03-01T15:40:09Z</time>
      </trkpt>
      <trkpt lat="40.1496570" lon="-4.6909080">
        <ele>864.0</ele>
        <time>2022-03-01T15:40:10Z</time>
      </trkpt>
      <trkpt lat="40.1496980" lon="-4.6909020">
        <ele>864.0</ele>
        <time>2022-03-01T15:40:11Z</time>
      </trkpt>
      <trkpt lat="40.1496980" lon="-4.6909020">
        <ele>864.0</ele>
        <time>2022-03-01T15:40:12Z</time>
      </trkpt>
      <trkpt lat="40.1497880" lon="-4.6908850">
        <ele>864.0</ele>
        <time>2022-03-01T15:40:13Z</time>
      </trkpt>
      <trkpt lat="40.1497880" lon="-4.6908850">
        <ele>864.0</ele>
        <time>2022-03-01T15:40:14Z</time>
      </trkpt>
      <trkpt lat="40.1498720" lon="-4.6908680">
        <ele>864.0</ele>
        <time>2022-03-01T15:40:15Z</time>
      </trkpt>
      <trkpt lat="40.1499200" lon="-4.6908650">
        <ele>864.0</ele>
        <time>2022-03-01T15:40:16Z</time>
      </trkpt>
      <trkpt lat="40.1499200" lon="-4.6908650">
        <ele>864.0</ele>
        <time>2022-03-01T15:40:17Z</time>
      </trkpt>
      <trkpt lat="40.1500180" lon="-4.6908400">
        <ele>864.0</ele>
        <time>2022-03-01T15:40:18Z</time>
      </trkpt>
      <trkpt lat="40.1500180" lon="-4.6908400">
        <ele>864.0</ele>
        <time>2022-03-01T15:40:19Z</time>
      </trkpt>
      <trkpt lat="40.1501220" lon="-4.6908230">
        <ele>864.0</ele>
        <time>2022-03-01T15:40:20Z</time>
      </trkpt>
      <trkpt lat="40.1501750" lon="-4.6908150">
        <ele>864.0</ele>
        <time>2022-03-01T15:40:21Z</time>
      </trkpt>
      <trkpt lat="40.1501750" lon="-4.6908150">
        <ele>864.0</ele>
        <time>2022-03-01T15:40:22Z</time>
      </trkpt>
      <trkpt lat="40.1502780" lon="-4.6908020">
        <ele>864.0</ele>
        <time>2022-03-01T15:40:23Z</time>
      </trkpt>
      <trkpt lat="40.1503270" lon="-4.6907950">
        <ele>864.0</ele>
        <time>2022-03-01T15:40:24Z</time>
      </trkpt>
      <trkpt lat="40.1503270" lon="-4.6907950">
        <ele>864.0</ele>
        <time>2022-03-01T15:40:25Z</time>
      </trkpt>
      <trkpt lat="40.1504330" lon="-4.6907950">
        <ele>864.0</ele>
        <time>2022-03-01T15:40:26Z</time>
      </trkpt>
      <trkpt lat="40.1504330" lon="-4.6907950">
        <ele>864.0</ele>
        <time>2022-03-01T15:40:27Z</time>
      </trkpt>
      <trkpt lat="40.1505380" lon="-4.6908120">
        <ele>864.0</ele>
        <time>2022-03-01T15:40:28Z</time>
      </trkpt>
      <trkpt lat="40.1505380" lon="-4.6908120">
        <ele>864.0</ele>
        <time>2022-03-01T15:40:29Z</time>
      </trkpt>
      <trkpt lat="40.1506430" lon="-4.6908550">
        <ele>864.0</ele>
        <time>2022-03-01T15:40:30Z</time>
      </trkpt>
      <trkpt lat="40.1506970" lon="-4.6908800">
        <ele>864.0</ele>
        <time>2022-03-01T15:40:31Z</time>
      </trkpt>
      <trkpt lat="40.1506970" lon="-4.6908800">
        <ele>864.0</ele>
        <time>2022-03-01T15:40:32Z</time>
      </trkpt>
      <trkpt lat="40.1508070" lon="-4.6909230">
        <ele>864.0</ele>
        <time>2022-03-01T15:40:33Z</time>
      </trkpt>
      <trkpt lat="40.1508620" lon="-4.6909350">
        <ele>864.0</ele>
        <time>2022-03-01T15:40:34Z</time>
      </trkpt>
      <trkpt lat="40.1508620" lon="-4.6909350">
        <ele>864.0</ele>
        <time>2022-03-01T15:40:35Z</time>
      </trkpt>
      <trkpt lat="40.1509720" lon="-4.6909450">
        <ele>864.0</ele>
        <time>2022-03-01T15:40:36Z</time>
      </trkpt>
      <trkpt lat="40.1509720" lon="-4.6909450">
        <ele>864.0</ele>
        <time>2022-03-01T15:40:37Z</time>
      </trkpt>
      <trkpt lat="40.1510730" lon="-4.6909350">
        <ele>864.0</ele>
        <time>2022-03-01T15:40:38Z</time>
      </trkpt>
      <trkpt lat="40.1510730" lon="-4.6909350">
        <ele>865.0</ele>
        <time>2022-03-01T15:40:39Z</time>
      </trkpt>
      <trkpt lat="40.1511620" lon="-4.6909180">
        <ele>865.0</ele>
        <time>2022-03-01T15:40:40Z</time>
      </trkpt>
      <trkpt lat="40.1512030" lon="-4.6909130">
        <ele>865.0</ele>
        <time>2022-03-01T15:40:41Z</time>
      </trkpt>
      <trkpt lat="40.1512030" lon="-4.6909130">
        <ele>865.0</ele>
        <time>2022-03-01T15:40:42Z</time>
      </trkpt>
      <trkpt lat="40.1512970" lon="-4.6909350">
        <ele>866.0</ele>
        <time>2022-03-01T15:40:43Z</time>
      </trkpt>
      <trkpt lat="40.1512970" lon="-4.6909350">
        <ele>866.0</ele>
        <time>2022-03-01T15:40:44Z</time>
      </trkpt>
      <trkpt lat="40.1513680" lon="-4.6910270">
        <ele>866.0</ele>
        <time>2022-03-01T15:40:45Z</time>
      </trkpt>
      <trkpt lat="40.1513680" lon="-4.6910270">
        <ele>866.0</ele>
        <time>2022-03-01T15:40:46Z</time>
      </trkpt>
      <trkpt lat="40.1514270" lon="-4.6911530">
        <ele>866.0</ele>
        <time>2022-03-01T15:40:47Z</time>
      </trkpt>
      <trkpt lat="40.1514270" lon="-4.6911530">
        <ele>866.0</ele>
        <time>2022-03-01T15:40:48Z</time>
      </trkpt>
      <trkpt lat="40.1514870" lon="-4.6912870">
        <ele>866.0</ele>
        <time>2022-03-01T15:40:49Z</time>
      </trkpt>
      <trkpt lat="40.1514870" lon="-4.6912870">
        <ele>866.0</ele>
        <time>2022-03-01T15:40:50Z</time>
      </trkpt>
      <trkpt lat="40.1515380" lon="-4.6914220">
        <ele>866.0</ele>
        <time>2022-03-01T15:40:51Z</time>
      </trkpt>
      <trkpt lat="40.1515620" lon="-4.6914920">
        <ele>866.0</ele>
        <time>2022-03-01T15:40:52Z</time>
      </trkpt>
      <trkpt lat="40.1515780" lon="-4.6915700">
        <ele>866.0</ele>
        <time>2022-03-01T15:40:53Z</time>
      </trkpt>
      <trkpt lat="40.1515780" lon="-4.6915700">
        <ele>866.0</ele>
        <time>2022-03-01T15:40:54Z</time>
      </trkpt>
      <trkpt lat="40.1515900" lon="-4.6917380">
        <ele>866.0</ele>
        <time>2022-03-01T15:40:55Z</time>
      </trkpt>
      <trkpt lat="40.1515900" lon="-4.6917380">
        <ele>866.0</ele>
        <time>2022-03-01T15:40:56Z</time>
      </trkpt>
      <trkpt lat="40.1515730" lon="-4.6919020">
        <ele>866.0</ele>
        <time>2022-03-01T15:40:57Z</time>
      </trkpt>
      <trkpt lat="40.1515530" lon="-4.6919800">
        <ele>866.0</ele>
        <time>2022-03-01T15:40:58Z</time>
      </trkpt>
      <trkpt lat="40.1515250" lon="-4.6920580">
        <ele>866.0</ele>
        <time>2022-03-01T15:40:59Z</time>
      </trkpt>
      <trkpt lat="40.1515250" lon="-4.6920580">
        <ele>865.0</ele>
        <time>2022-03-01T15:41:00Z</time>
      </trkpt>
      <trkpt lat="40.1514530" lon="-4.6922000">
        <ele>865.0</ele>
        <time>2022-03-01T15:41:01Z</time>
      </trkpt>
      <trkpt lat="40.1514530" lon="-4.6922000">
        <ele>865.0</ele>
        <time>2022-03-01T15:41:02Z</time>
      </trkpt>
      <trkpt lat="40.1513850" lon="-4.6923280">
        <ele>865.0</ele>
        <time>2022-03-01T15:41:03Z</time>
      </trkpt>
      <trkpt lat="40.1513850" lon="-4.6923280">
        <ele>865.0</ele>
        <time>2022-03-01T15:41:04Z</time>
      </trkpt>
      <trkpt lat="40.1513150" lon="-4.6924430">
        <ele>865.0</ele>
        <time>2022-03-01T15:41:05Z</time>
      </trkpt>
      <trkpt lat="40.1513150" lon="-4.6924430">
        <ele>865.0</ele>
        <time>2022-03-01T15:41:06Z</time>
      </trkpt>
      <trkpt lat="40.1512380" lon="-4.6925570">
        <ele>865.0</ele>
        <time>2022-03-01T15:41:07Z</time>
      </trkpt>
      <trkpt lat="40.1511980" lon="-4.6926100">
        <ele>865.0</ele>
        <time>2022-03-01T15:41:08Z</time>
      </trkpt>
      <trkpt lat="40.1511980" lon="-4.6926100">
        <ele>865.0</ele>
        <time>2022-03-01T15:41:09Z</time>
      </trkpt>
      <trkpt lat="40.1511230" lon="-4.6927270">
        <ele>866.0</ele>
        <time>2022-03-01T15:41:10Z</time>
      </trkpt>
      <trkpt lat="40.1511230" lon="-4.6927270">
        <ele>866.0</ele>
        <time>2022-03-01T15:41:11Z</time>
      </trkpt>
      <trkpt lat="40.1510570" lon="-4.6928470">
        <ele>867.0</ele>
        <time>2022-03-01T15:41:12Z</time>
      </trkpt>
      <trkpt lat="40.1510220" lon="-4.6929050">
        <ele>867.0</ele>
        <time>2022-03-01T15:41:13Z</time>
      </trkpt>
      <trkpt lat="40.1510220" lon="-4.6929050">
        <ele>867.0</ele>
        <time>2022-03-01T15:41:14Z</time>
      </trkpt>
      <trkpt lat="40.1509650" lon="-4.6930180">
        <ele>867.0</ele>
        <time>2022-03-01T15:41:15Z</time>
      </trkpt>
      <trkpt lat="40.1509650" lon="-4.6930180">
        <ele>867.0</ele>
        <time>2022-03-01T15:41:16Z</time>
      </trkpt>
      <trkpt lat="40.1509080" lon="-4.6931250">
        <ele>867.0</ele>
        <time>2022-03-01T15:41:17Z</time>
      </trkpt>
      <trkpt lat="40.1509080" lon="-4.6931250">
        <ele>868.0</ele>
        <time>2022-03-01T15:41:18Z</time>
      </trkpt>
      <trkpt lat="40.1508620" lon="-4.6932370">
        <ele>868.0</ele>
        <time>2022-03-01T15:41:19Z</time>
      </trkpt>
      <trkpt lat="40.1508620" lon="-4.6932370">
        <ele>868.0</ele>
        <time>2022-03-01T15:41:20Z</time>
      </trkpt>
      <trkpt lat="40.1508150" lon="-4.6933430">
        <ele>868.0</ele>
        <time>2022-03-01T15:41:21Z</time>
      </trkpt>
      <trkpt lat="40.1508150" lon="-4.6933430">
        <ele>868.0</ele>
        <time>2022-03-01T15:41:22Z</time>
      </trkpt>
      <trkpt lat="40.1507730" lon="-4.6934370">
        <ele>868.0</ele>
        <time>2022-03-01T15:41:23Z</time>
      </trkpt>
      <trkpt lat="40.1507730" lon="-4.6934370">
        <ele>869.0</ele>
        <time>2022-03-01T15:41:24Z</time>
      </trkpt>
      <trkpt lat="40.1507300" lon="-4.6935370">
        <ele>869.0</ele>
        <time>2022-03-01T15:41:25Z</time>
      </trkpt>
      <trkpt lat="40.1507300" lon="-4.6935370">
        <ele>869.0</ele>
        <time>2022-03-01T15:41:26Z</time>
      </trkpt>
      <trkpt lat="40.1506880" lon="-4.6936380">
        <ele>870.0</ele>
        <time>2022-03-01T15:41:27Z</time>
      </trkpt>
      <trkpt lat="40.1506650" lon="-4.6936880">
        <ele>870.0</ele>
        <time>2022-03-01T15:41:28Z</time>
      </trkpt>
      <trkpt lat="40.1506650" lon="-4.6936880">
        <ele>870.0</ele>
        <time>2022-03-01T15:41:29Z</time>
      </trkpt>
      <trkpt lat="40.1506270" lon="-4.6937820">
        <ele>870.0</ele>
        <time>2022-03-01T15:41:30Z</time>
      </trkpt>
      <trkpt lat="40.1506070" lon="-4.6938280">
        <ele>871.0</ele>
        <time>2022-03-01T15:41:31Z</time>
      </trkpt>
      <trkpt lat="40.1506070" lon="-4.6938280">
        <ele>871.0</ele>
        <time>2022-03-01T15:41:32Z</time>
      </trkpt>
      <trkpt lat="40.1505750" lon="-4.6939250">
        <ele>871.0</ele>
        <time>2022-03-01T15:41:33Z</time>
      </trkpt>
      <trkpt lat="40.1505750" lon="-4.6939250">
        <ele>871.0</ele>
        <time>2022-03-01T15:41:34Z</time>
      </trkpt>
      <trkpt lat="40.1505470" lon="-4.6940250">
        <ele>872.0</ele>
        <time>2022-03-01T15:41:35Z</time>
      </trkpt>
      <trkpt lat="40.1505300" lon="-4.6940720">
        <ele>872.0</ele>
        <time>2022-03-01T15:41:36Z</time>
      </trkpt>
      <trkpt lat="40.1505130" lon="-4.6941200">
        <ele>873.0</ele>
        <time>2022-03-01T15:41:37Z</time>
      </trkpt>
      <trkpt lat="40.1505130" lon="-4.6941200">
        <ele>873.0</ele>
        <time>2022-03-01T15:41:38Z</time>
      </trkpt>
      <trkpt lat="40.1504830" lon="-4.6942130">
        <ele>873.0</ele>
        <time>2022-03-01T15:41:39Z</time>
      </trkpt>
      <trkpt lat="40.1504830" lon="-4.6942130">
        <ele>873.0</ele>
        <time>2022-03-01T15:41:40Z</time>
      </trkpt>
      <trkpt lat="40.1504550" lon="-4.6943100">
        <ele>873.0</ele>
        <time>2022-03-01T15:41:41Z</time>
      </trkpt>
      <trkpt lat="40.1504550" lon="-4.6943100">
        <ele>873.0</ele>
        <time>2022-03-01T15:41:42Z</time>
      </trkpt>
      <trkpt lat="40.1504320" lon="-4.6944080">
        <ele>874.0</ele>
        <time>2022-03-01T15:41:43Z</time>
      </trkpt>
      <trkpt lat="40.1504200" lon="-4.6944580">
        <ele>874.0</ele>
        <time>2022-03-01T15:41:44Z</time>
      </trkpt>
      <trkpt lat="40.1504200" lon="-4.6944580">
        <ele>874.0</ele>
        <time>2022-03-01T15:41:45Z</time>
      </trkpt>
      <trkpt lat="40.1503980" lon="-4.6945550">
        <ele>874.0</ele>
        <time>2022-03-01T15:41:46Z</time>
      </trkpt>
      <trkpt lat="40.1503870" lon="-4.6946030">
        <ele>875.0</ele>
        <time>2022-03-01T15:41:47Z</time>
      </trkpt>
      <trkpt lat="40.1503870" lon="-4.6946030">
        <ele>875.0</ele>
        <time>2022-03-01T15:41:48Z</time>
      </trkpt>
      <trkpt lat="40.1503700" lon="-4.6947070">
        <ele>875.0</ele>
        <time>2022-03-01T15:41:49Z</time>
      </trkpt>
      <trkpt lat="40.1503700" lon="-4.6947070">
        <ele>875.0</ele>
        <time>2022-03-01T15:41:50Z</time>
      </trkpt>
      <trkpt lat="40.1503580" lon="-4.6948100">
        <ele>875.0</ele>
        <time>2022-03-01T15:41:51Z</time>
      </trkpt>
      <trkpt lat="40.1503600" lon="-4.6948600">
        <ele>875.0</ele>
        <time>2022-03-01T15:41:52Z</time>
      </trkpt>
      <trkpt lat="40.1503600" lon="-4.6948600">
        <ele>876.0</ele>
        <time>2022-03-01T15:41:53Z</time>
      </trkpt>
      <trkpt lat="40.1503670" lon="-4.6949500">
        <ele>876.0</ele>
        <time>2022-03-01T15:41:54Z</time>
      </trkpt>
      <trkpt lat="40.1503670" lon="-4.6949500">
        <ele>876.0</ele>
        <time>2022-03-01T15:41:55Z</time>
      </trkpt>
      <trkpt lat="40.1503830" lon="-4.6950370">
        <ele>876.0</ele>
        <time>2022-03-01T15:41:56Z</time>
      </trkpt>
      <trkpt lat="40.1503930" lon="-4.6950820">
        <ele>877.0</ele>
        <time>2022-03-01T15:41:57Z</time>
      </trkpt>
      <trkpt lat="40.1503930" lon="-4.6950820">
        <ele>877.0</ele>
        <time>2022-03-01T15:41:58Z</time>
      </trkpt>
      <trkpt lat="40.1504280" lon="-4.6951680">
        <ele>877.0</ele>
        <time>2022-03-01T15:41:59Z</time>
      </trkpt>
      <trkpt lat="40.1504430" lon="-4.6952100">
        <ele>877.0</ele>
        <time>2022-03-01T15:42:00Z</time>
      </trkpt>
      <trkpt lat="40.1504430" lon="-4.6952100">
        <ele>878.0</ele>
        <time>2022-03-01T15:42:01Z</time>
      </trkpt>
      <trkpt lat="40.1504820" lon="-4.6952950">
        <ele>878.0</ele>
        <time>2022-03-01T15:42:02Z</time>
      </trkpt>
      <trkpt lat="40.1505020" lon="-4.6953350">
        <ele>878.0</ele>
        <time>2022-03-01T15:42:03Z</time>
      </trkpt>
      <trkpt lat="40.1505020" lon="-4.6953350">
        <ele>878.0</ele>
        <time>2022-03-01T15:42:04Z</time>
      </trkpt>
      <trkpt lat="40.1505380" lon="-4.6954080">
        <ele>878.0</ele>
        <time>2022-03-01T15:42:05Z</time>
      </trkpt>
      <trkpt lat="40.1505380" lon="-4.6954080">
        <ele>878.0</ele>
        <time>2022-03-01T15:42:06Z</time>
      </trkpt>
      <trkpt lat="40.1505780" lon="-4.6954750">
        <ele>879.0</ele>
        <time>2022-03-01T15:42:07Z</time>
      </trkpt>
      <trkpt lat="40.1505780" lon="-4.6954750">
        <ele>879.0</ele>
        <time>2022-03-01T15:42:08Z</time>
      </trkpt>
      <trkpt lat="40.1506180" lon="-4.6955420">
        <ele>879.0</ele>
        <time>2022-03-01T15:42:09Z</time>
      </trkpt>
      <trkpt lat="40.1506380" lon="-4.6955720">
        <ele>879.0</ele>
        <time>2022-03-01T15:42:10Z</time>
      </trkpt>
      <trkpt lat="40.1506380" lon="-4.6955720">
        <ele>880.0</ele>
        <time>2022-03-01T15:42:11Z</time>
      </trkpt>
      <trkpt lat="40.1506730" lon="-4.6956370">
        <ele>880.0</ele>
        <time>2022-03-01T15:42:12Z</time>
      </trkpt>
      <trkpt lat="40.1506870" lon="-4.6956730">
        <ele>880.0</ele>
        <time>2022-03-01T15:42:13Z</time>
      </trkpt>
      <trkpt lat="40.1506870" lon="-4.6956730">
        <ele>880.0</ele>
        <time>2022-03-01T15:42:14Z</time>
      </trkpt>
      <trkpt lat="40.1507130" lon="-4.6957500">
        <ele>880.0</ele>
        <time>2022-03-01T15:42:15Z</time>
      </trkpt>
      <trkpt lat="40.1507130" lon="-4.6957500">
        <ele>880.0</ele>
        <time>2022-03-01T15:42:16Z</time>
      </trkpt>
      <trkpt lat="40.1507280" lon="-4.6958350">
        <ele>881.0</ele>
        <time>2022-03-01T15:42:17Z</time>
      </trkpt>
      <trkpt lat="40.1507330" lon="-4.6958820">
        <ele>881.0</ele>
        <time>2022-03-01T15:42:18Z</time>
      </trkpt>
      <trkpt lat="40.1507330" lon="-4.6958820">
        <ele>881.0</ele>
        <time>2022-03-01T15:42:19Z</time>
      </trkpt>
      <trkpt lat="40.1507320" lon="-4.6959730">
        <ele>881.0</ele>
        <time>2022-03-01T15:42:20Z</time>
      </trkpt>
      <trkpt lat="40.1507320" lon="-4.6959730">
        <ele>883.0</ele>
        <time>2022-03-01T15:42:21Z</time>
      </trkpt>
      <trkpt lat="40.1507200" lon="-4.6960650">
        <ele>883.0</ele>
        <time>2022-03-01T15:42:22Z</time>
      </trkpt>
      <trkpt lat="40.1507120" lon="-4.6961070">
        <ele>883.0</ele>
        <time>2022-03-01T15:42:23Z</time>
      </trkpt>
      <trkpt lat="40.1507120" lon="-4.6961070">
        <ele>883.0</ele>
        <time>2022-03-01T15:42:24Z</time>
      </trkpt>
      <trkpt lat="40.1506870" lon="-4.6961970">
        <ele>883.0</ele>
        <time>2022-03-01T15:42:25Z</time>
      </trkpt>
      <trkpt lat="40.1506720" lon="-4.6962350">
        <ele>884.0</ele>
        <time>2022-03-01T15:42:26Z</time>
      </trkpt>
      <trkpt lat="40.1506720" lon="-4.6962350">
        <ele>884.0</ele>
        <time>2022-03-01T15:42:27Z</time>
      </trkpt>
      <trkpt lat="40.1506380" lon="-4.6963150">
        <ele>884.0</ele>
        <time>2022-03-01T15:42:28Z</time>
      </trkpt>
      <trkpt lat="40.1506200" lon="-4.6963550">
        <ele>884.0</ele>
        <time>2022-03-01T15:42:29Z</time>
      </trkpt>
      <trkpt lat="40.1506200" lon="-4.6963550">
        <ele>885.0</ele>
        <time>2022-03-01T15:42:30Z</time>
      </trkpt>
      <trkpt lat="40.1505820" lon="-4.6964420">
        <ele>885.0</ele>
        <time>2022-03-01T15:42:31Z</time>
      </trkpt>
      <trkpt lat="40.1505820" lon="-4.6964420">
        <ele>885.0</ele>
        <time>2022-03-01T15:42:32Z</time>
      </trkpt>
      <trkpt lat="40.1505480" lon="-4.6965270">
        <ele>885.0</ele>
        <time>2022-03-01T15:42:33Z</time>
      </trkpt>
      <trkpt lat="40.1505480" lon="-4.6965270">
        <ele>885.0</ele>
        <time>2022-03-01T15:42:34Z</time>
      </trkpt>
      <trkpt lat="40.1505080" lon="-4.6966070">
        <ele>885.0</ele>
        <time>2022-03-01T15:42:35Z</time>
      </trkpt>
      <trkpt lat="40.1505080" lon="-4.6966070">
        <ele>886.0</ele>
        <time>2022-03-01T15:42:36Z</time>
      </trkpt>
      <trkpt lat="40.1504880" lon="-4.6966850">
        <ele>886.0</ele>
        <time>2022-03-01T15:42:37Z</time>
      </trkpt>
      <trkpt lat="40.1504800" lon="-4.6967220">
        <ele>886.0</ele>
        <time>2022-03-01T15:42:38Z</time>
      </trkpt>
      <trkpt lat="40.1504800" lon="-4.6967220">
        <ele>886.0</ele>
        <time>2022-03-01T15:42:39Z</time>
      </trkpt>
      <trkpt lat="40.1504750" lon="-4.6967930">
        <ele>887.0</ele>
        <time>2022-03-01T15:42:40Z</time>
      </trkpt>
      <trkpt lat="40.1504750" lon="-4.6967930">
        <ele>887.0</ele>
        <time>2022-03-01T15:42:41Z</time>
      </trkpt>
      <trkpt lat="40.1504680" lon="-4.6968720">
        <ele>887.0</ele>
        <time>2022-03-01T15:42:42Z</time>
      </trkpt>
      <trkpt lat="40.1504680" lon="-4.6968720">
        <ele>887.0</ele>
        <time>2022-03-01T15:42:43Z</time>
      </trkpt>
      <trkpt lat="40.1504670" lon="-4.6969600">
        <ele>888.0</ele>
        <time>2022-03-01T15:42:44Z</time>
      </trkpt>
      <trkpt lat="40.1504670" lon="-4.6969600">
        <ele>888.0</ele>
        <time>2022-03-01T15:42:45Z</time>
      </trkpt>
      <trkpt lat="40.1504600" lon="-4.6970470">
        <ele>888.0</ele>
        <time>2022-03-01T15:42:46Z</time>
      </trkpt>
      <trkpt lat="40.1504600" lon="-4.6970470">
        <ele>888.0</ele>
        <time>2022-03-01T15:42:47Z</time>
      </trkpt>
      <trkpt lat="40.1504570" lon="-4.6971370">
        <ele>889.0</ele>
        <time>2022-03-01T15:42:48Z</time>
      </trkpt>
      <trkpt lat="40.1504570" lon="-4.6971370">
        <ele>889.0</ele>
        <time>2022-03-01T15:42:49Z</time>
      </trkpt>
      <trkpt lat="40.1504520" lon="-4.6972250">
        <ele>889.0</ele>
        <time>2022-03-01T15:42:50Z</time>
      </trkpt>
      <trkpt lat="40.1504480" lon="-4.6972650">
        <ele>889.0</ele>
        <time>2022-03-01T15:42:51Z</time>
      </trkpt>
      <trkpt lat="40.1504480" lon="-4.6972650">
        <ele>890.0</ele>
        <time>2022-03-01T15:42:52Z</time>
      </trkpt>
      <trkpt lat="40.1504420" lon="-4.6973420">
        <ele>890.0</ele>
        <time>2022-03-01T15:42:53Z</time>
      </trkpt>
      <trkpt lat="40.1504370" lon="-4.6973800">
        <ele>890.0</ele>
        <time>2022-03-01T15:42:54Z</time>
      </trkpt>
      <trkpt lat="40.1504370" lon="-4.6973800">
        <ele>890.0</ele>
        <time>2022-03-01T15:42:55Z</time>
      </trkpt>
      <trkpt lat="40.1499240" lon="-4.6981930">
        <ele>891.8</ele>
        <time>2022-03-01T15:43:07Z</time>
      </trkpt>
      <trkpt lat="40.1498960" lon="-4.6982090">
        <ele>892.0</ele>
        <time>2022-03-01T15:43:08Z</time>
      </trkpt>
      <trkpt lat="40.1498990" lon="-4.6981460">
        <ele>892.3</ele>
        <time>2022-03-01T15:43:09Z</time>
      </trkpt>
      <trkpt lat="40.1498570" lon="-4.6981680">
        <ele>892.6</ele>
        <time>2022-03-01T15:43:10Z</time>
      </trkpt>
      <trkpt lat="40.1498130" lon="-4.6982080">
        <ele>892.9</ele>
        <time>2022-03-01T15:43:11Z</time>
      </trkpt>
      <trkpt lat="40.1497760" lon="-4.6982280">
        <ele>893.2</ele>
        <time>2022-03-01T15:43:12Z</time>
      </trkpt>
      <trkpt lat="40.1497580" lon="-4.6982660">
        <ele>893.4</ele>
        <time>2022-03-01T15:43:13Z</time>
      </trkpt>
      <trkpt lat="40.1497180" lon="-4.6983360">
        <ele>893.9</ele>
        <time>2022-03-01T15:43:14Z</time>
      </trkpt>
      <trkpt lat="40.1497010" lon="-4.6983760">
        <ele>894.1</ele>
        <time>2022-03-01T15:43:15Z</time>
      </trkpt>
      <trkpt lat="40.1496810" lon="-4.6984160">
        <ele>894.3</ele>
        <time>2022-03-01T15:43:16Z</time>
      </trkpt>
      <trkpt lat="40.1496780" lon="-4.6984620">
        <ele>894.4</ele>
        <time>2022-03-01T15:43:17Z</time>
      </trkpt>
      <trkpt lat="40.1496750" lon="-4.6985140">
        <ele>894.6</ele>
        <time>2022-03-01T15:43:18Z</time>
      </trkpt>
      <trkpt lat="40.1496730" lon="-4.6985340">
        <ele>894.6</ele>
        <time>2022-03-01T15:43:19Z</time>
      </trkpt>
      <trkpt lat="40.1496800" lon="-4.6985780">
        <ele>894.7</ele>
        <time>2022-03-01T15:43:20Z</time>
      </trkpt>
      <trkpt lat="40.1496580" lon="-4.6986190">
        <ele>894.8</ele>
        <time>2022-03-01T15:43:21Z</time>
      </trkpt>
      <trkpt lat="40.1496820" lon="-4.6986550">
        <ele>894.9</ele>
        <time>2022-03-01T15:43:22Z</time>
      </trkpt>
      <trkpt lat="40.1496860" lon="-4.6986900">
        <ele>895.0</ele>
        <time>2022-03-01T15:43:23Z</time>
      </trkpt>
      <trkpt lat="40.1496810" lon="-4.6987110">
        <ele>895.0</ele>
        <time>2022-03-01T15:43:24Z</time>
      </trkpt>
      <trkpt lat="40.1497040" lon="-4.6987620">
        <ele>895.2</ele>
        <time>2022-03-01T15:43:25Z</time>
      </trkpt>
      <trkpt lat="40.1496970" lon="-4.6988010">
        <ele>895.2</ele>
        <time>2022-03-01T15:43:26Z</time>
      </trkpt>
      <trkpt lat="40.1497040" lon="-4.6988410">
        <ele>895.3</ele>
        <time>2022-03-01T15:43:27Z</time>
      </trkpt>
      <trkpt lat="40.1497120" lon="-4.6988500">
        <ele>895.4</ele>
        <time>2022-03-01T15:43:28Z</time>
      </trkpt>
      <trkpt lat="40.1497080" lon="-4.6988970">
        <ele>895.5</ele>
        <time>2022-03-01T15:43:29Z</time>
      </trkpt>
      <trkpt lat="40.1497060" lon="-4.6989160">
        <ele>895.5</ele>
        <time>2022-03-01T15:43:30Z</time>
      </trkpt>
      <trkpt lat="40.1497010" lon="-4.6989720">
        <ele>895.7</ele>
        <time>2022-03-01T15:43:31Z</time>
      </trkpt>
      <trkpt lat="40.1496980" lon="-4.6990220">
        <ele>895.8</ele>
        <time>2022-03-01T15:43:32Z</time>
      </trkpt>
      <trkpt lat="40.1496830" lon="-4.6990620">
        <ele>896.0</ele>
        <time>2022-03-01T15:43:33Z</time>
      </trkpt>
      <trkpt lat="40.1496790" lon="-4.6991050">
        <ele>896.1</ele>
        <time>2022-03-01T15:43:34Z</time>
      </trkpt>
      <trkpt lat="40.1496720" lon="-4.6991500">
        <ele>896.3</ele>
        <time>2022-03-01T15:43:35Z</time>
      </trkpt>
      <trkpt lat="40.1496520" lon="-4.6992530">
        <ele>896.7</ele>
        <time>2022-03-01T15:43:36Z</time>
      </trkpt>
      <trkpt lat="40.1496450" lon="-4.6992980">
        <ele>896.9</ele>
        <time>2022-03-01T15:43:37Z</time>
      </trkpt>
      <trkpt lat="40.1496420" lon="-4.6993410">
        <ele>897.1</ele>
        <time>2022-03-01T15:43:38Z</time>
      </trkpt>
      <trkpt lat="40.1496310" lon="-4.6993920">
        <ele>897.4</ele>
        <time>2022-03-01T15:43:39Z</time>
      </trkpt>
      <trkpt lat="40.1496150" lon="-4.6994500">
        <ele>897.7</ele>
        <time>2022-03-01T15:43:40Z</time>
      </trkpt>
      <trkpt lat="40.1496050" lon="-4.6995020">
        <ele>897.9</ele>
        <time>2022-03-01T15:43:41Z</time>
      </trkpt>
      <trkpt lat="40.1496020" lon="-4.6995220">
        <ele>898.0</ele>
        <time>2022-03-01T15:43:42Z</time>
      </trkpt>
      <trkpt lat="40.1495950" lon="-4.6995610">
        <ele>898.2</ele>
        <time>2022-03-01T15:43:43Z</time>
      </trkpt>
      <trkpt lat="40.1495820" lon="-4.6996010">
        <ele>898.4</ele>
        <time>2022-03-01T15:43:44Z</time>
      </trkpt>
      <trkpt lat="40.1495560" lon="-4.6996580">
        <ele>898.7</ele>
        <time>2022-03-01T15:43:45Z</time>
      </trkpt>
      <trkpt lat="40.1495390" lon="-4.6996980">
        <ele>899.0</ele>
        <time>2022-03-01T15:43:46Z</time>
      </trkpt>
      <trkpt lat="40.1495210" lon="-4.6997440">
        <ele>899.2</ele>
        <time>2022-03-01T15:43:47Z</time>
      </trkpt>
      <trkpt lat="40.1495040" lon="-4.6997940">
        <ele>899.5</ele>
        <time>2022-03-01T15:43:48Z</time>
      </trkpt>
      <trkpt lat="40.1494780" lon="-4.6998460">
        <ele>899.8</ele>
        <time>2022-03-01T15:43:49Z</time>
      </trkpt>
      <trkpt lat="40.1494680" lon="-4.6998720">
        <ele>899.9</ele>
        <time>2022-03-01T15:43:50Z</time>
      </trkpt>
      <trkpt lat="40.1494540" lon="-4.6999120">
        <ele>900.1</ele>
        <time>2022-03-01T15:43:51Z</time>
      </trkpt>
      <trkpt lat="40.1494380" lon="-4.6999420">
        <ele>900.3</ele>
        <time>2022-03-01T15:43:52Z</time>
      </trkpt>
      <trkpt lat="40.1494160" lon="-4.6999890">
        <ele>900.5</ele>
        <time>2022-03-01T15:43:53Z</time>
      </trkpt>
      <trkpt lat="40.1494070" lon="-4.7000090">
        <ele>900.6</ele>
        <time>2022-03-01T15:43:54Z</time>
      </trkpt>
      <trkpt lat="40.1493860" lon="-4.7000390">
        <ele>900.9</ele>
        <time>2022-03-01T15:43:55Z</time>
      </trkpt>
      <trkpt lat="40.1493680" lon="-4.7000770">
        <ele>901.1</ele>
        <time>2022-03-01T15:43:56Z</time>
      </trkpt>
      <trkpt lat="40.1493450" lon="-4.7001210">
        <ele>901.4</ele>
        <time>2022-03-01T15:43:57Z</time>
      </trkpt>
      <trkpt lat="40.1493240" lon="-4.7001700">
        <ele>901.7</ele>
        <time>2022-03-01T15:43:58Z</time>
      </trkpt>
      <trkpt lat="40.1493000" lon="-4.7002250">
        <ele>902.0</ele>
        <time>2022-03-01T15:43:59Z</time>
      </trkpt>
      <trkpt lat="40.1492800" lon="-4.7002710">
        <ele>902.3</ele>
        <time>2022-03-01T15:44:00Z</time>
      </trkpt>
      <trkpt lat="40.1492770" lon="-4.7002890">
        <ele>902.4</ele>
        <time>2022-03-01T15:44:01Z</time>
      </trkpt>
      <trkpt lat="40.1492530" lon="-4.7003340">
        <ele>902.7</ele>
        <time>2022-03-01T15:44:02Z</time>
      </trkpt>
      <trkpt lat="40.1492380" lon="-4.7003750">
        <ele>903.0</ele>
        <time>2022-03-01T15:44:03Z</time>
      </trkpt>
      <trkpt lat="40.1492110" lon="-4.7004080">
        <ele>903.2</ele>
        <time>2022-03-01T15:44:04Z</time>
      </trkpt>
      <trkpt lat="40.1491800" lon="-4.7004480">
        <ele>903.6</ele>
        <time>2022-03-01T15:44:05Z</time>
      </trkpt>
      <trkpt lat="40.1491750" lon="-4.7004970">
        <ele>903.9</ele>
        <time>2022-03-01T15:44:06Z</time>
      </trkpt>
      <trkpt lat="40.1491410" lon="-4.7005400">
        <ele>904.2</ele>
        <time>2022-03-01T15:44:07Z</time>
      </trkpt>
      <trkpt lat="40.1491160" lon="-4.7005720">
        <ele>904.5</ele>
        <time>2022-03-01T15:44:08Z</time>
      </trkpt>
      <trkpt lat="40.1490850" lon="-4.7006220">
        <ele>904.9</ele>
        <time>2022-03-01T15:44:09Z</time>
      </trkpt>
      <trkpt lat="40.1490570" lon="-4.7006570">
        <ele>905.1</ele>
        <time>2022-03-01T15:44:10Z</time>
      </trkpt>
      <trkpt lat="40.1490240" lon="-4.7007120">
        <ele>905.5</ele>
        <time>2022-03-01T15:44:11Z</time>
      </trkpt>
      <trkpt lat="40.1490070" lon="-4.7007400">
        <ele>905.7</ele>
        <time>2022-03-01T15:44:12Z</time>
      </trkpt>
      <trkpt lat="40.1489900" lon="-4.7007760">
        <ele>906.0</ele>
        <time>2022-03-01T15:44:13Z</time>
      </trkpt>
      <trkpt lat="40.1489760" lon="-4.7008160">
        <ele>906.2</ele>
        <time>2022-03-01T15:44:14Z</time>
      </trkpt>
      <trkpt lat="40.1489750" lon="-4.7008130">
        <ele>906.2</ele>
        <time>2022-03-01T15:44:15Z</time>
      </trkpt>
      <trkpt lat="40.1489550" lon="-4.7008390">
        <ele>906.4</ele>
        <time>2022-03-01T15:44:16Z</time>
      </trkpt>
      <trkpt lat="40.1489350" lon="-4.7008830">
        <ele>906.7</ele>
        <time>2022-03-01T15:44:17Z</time>
      </trkpt>
      <trkpt lat="40.1489230" lon="-4.7009080">
        <ele>906.9</ele>
        <time>2022-03-01T15:44:18Z</time>
      </trkpt>
      <trkpt lat="40.1488970" lon="-4.7009410">
        <ele>907.1</ele>
        <time>2022-03-01T15:44:19Z</time>
      </trkpt>
      <trkpt lat="40.1488910" lon="-4.7009820">
        <ele>907.4</ele>
        <time>2022-03-01T15:44:20Z</time>
      </trkpt>
      <trkpt lat="40.1488730" lon="-4.7010470">
        <ele>907.8</ele>
        <time>2022-03-01T15:44:21Z</time>
      </trkpt>
      <trkpt lat="40.1488390" lon="-4.7010880">
        <ele>908.1</ele>
        <time>2022-03-01T15:44:22Z</time>
      </trkpt>
      <trkpt lat="40.1488230" lon="-4.7011210">
        <ele>908.4</ele>
        <time>2022-03-01T15:44:23Z</time>
      </trkpt>
      <trkpt lat="40.1488020" lon="-4.7011590">
        <ele>908.6</ele>
        <time>2022-03-01T15:44:24Z</time>
      </trkpt>
      <trkpt lat="40.1487650" lon="-4.7012000">
        <ele>909.0</ele>
        <time>2022-03-01T15:44:25Z</time>
      </trkpt>
      <trkpt lat="40.1487400" lon="-4.7012360">
        <ele>909.3</ele>
        <time>2022-03-01T15:44:26Z</time>
      </trkpt>
      <trkpt lat="40.1487080" lon="-4.7012800">
        <ele>909.7</ele>
        <time>2022-03-01T15:44:27Z</time>
      </trkpt>
      <trkpt lat="40.1486790" lon="-4.7013220">
        <ele>910.0</ele>
        <time>2022-03-01T15:44:28Z</time>
      </trkpt>
      <trkpt lat="40.1486500" lon="-4.7013590">
        <ele>910.3</ele>
        <time>2022-03-01T15:44:29Z</time>
      </trkpt>
      <trkpt lat="40.1486250" lon="-4.7013900">
        <ele>910.6</ele>
        <time>2022-03-01T15:44:30Z</time>
      </trkpt>
      <trkpt lat="40.1486120" lon="-4.7014300">
        <ele>910.9</ele>
        <time>2022-03-01T15:44:31Z</time>
      </trkpt>
      <trkpt lat="40.1486020" lon="-4.7014730">
        <ele>911.2</ele>
        <time>2022-03-01T15:44:32Z</time>
      </trkpt>
      <trkpt lat="40.1485810" lon="-4.7015090">
        <ele>911.5</ele>
        <time>2022-03-01T15:44:33Z</time>
      </trkpt>
      <trkpt lat="40.1485510" lon="-4.7015360">
        <ele>911.8</ele>
        <time>2022-03-01T15:44:34Z</time>
      </trkpt>
      <trkpt lat="40.1485380" lon="-4.7015700">
        <ele>912.0</ele>
        <time>2022-03-01T15:44:35Z</time>
      </trkpt>
      <trkpt lat="40.1485200" lon="-4.7016230">
        <ele>912.4</ele>
        <time>2022-03-01T15:44:36Z</time>
      </trkpt>
      <trkpt lat="40.1484980" lon="-4.7016780">
        <ele>912.7</ele>
        <time>2022-03-01T15:44:37Z</time>
      </trkpt>
      <trkpt lat="40.1484800" lon="-4.7017160">
        <ele>913.0</ele>
        <time>2022-03-01T15:44:38Z</time>
      </trkpt>
      <trkpt lat="40.1484720" lon="-4.7017570">
        <ele>913.3</ele>
        <time>2022-03-01T15:44:39Z</time>
      </trkpt>
      <trkpt lat="40.1484590" lon="-4.7017970">
        <ele>913.5</ele>
        <time>2022-03-01T15:44:40Z</time>
      </trkpt>
      <trkpt lat="40.1484560" lon="-4.7018340">
        <ele>913.7</ele>
        <time>2022-03-01T15:44:41Z</time>
      </trkpt>
      <trkpt lat="40.1484570" lon="-4.7018710">
        <ele>913.9</ele>
        <time>2022-03-01T15:44:42Z</time>
      </trkpt>
      <trkpt lat="40.1484450" lon="-4.7019070">
        <ele>914.2</ele>
        <time>2022-03-01T15:44:43Z</time>
      </trkpt>
      <trkpt lat="40.1484200" lon="-4.7019630">
        <ele>914.5</ele>
        <time>2022-03-01T15:44:44Z</time>
      </trkpt>
      <trkpt lat="40.1484120" lon="-4.7020040">
        <ele>914.8</ele>
        <time>2022-03-01T15:44:45Z</time>
      </trkpt>
      <trkpt lat="40.1484050" lon="-4.7020450">
        <ele>915.0</ele>
        <time>2022-03-01T15:44:46Z</time>
      </trkpt>
      <trkpt lat="40.1483880" lon="-4.7020890">
        <ele>915.2</ele>
        <time>2022-03-01T15:44:47Z</time>
      </trkpt>
      <trkpt lat="40.1483760" lon="-4.7021290">
        <ele>915.5</ele>
        <time>2022-03-01T15:44:48Z</time>
      </trkpt>
      <trkpt lat="40.1483670" lon="-4.7021660">
        <ele>915.7</ele>
        <time>2022-03-01T15:44:49Z</time>
      </trkpt>
      <trkpt lat="40.1483470" lon="-4.7022170">
        <ele>916.0</ele>
        <time>2022-03-01T15:44:50Z</time>
      </trkpt>
      <trkpt lat="40.1483270" lon="-4.7022570">
        <ele>916.3</ele>
        <time>2022-03-01T15:44:51Z</time>
      </trkpt>
      <trkpt lat="40.1483070" lon="-4.7022980">
        <ele>916.5</ele>
        <time>2022-03-01T15:44:52Z</time>
      </trkpt>
      <trkpt lat="40.1482880" lon="-4.7023160">
        <ele>916.7</ele>
        <time>2022-03-01T15:44:53Z</time>
      </trkpt>
      <trkpt lat="40.1482760" lon="-4.7023300">
        <ele>916.8</ele>
        <time>2022-03-01T15:44:54Z</time>
      </trkpt>
      <trkpt lat="40.1482510" lon="-4.7023600">
        <ele>917.1</ele>
        <time>2022-03-01T15:44:55Z</time>
      </trkpt>
      <trkpt lat="40.1482350" lon="-4.7023750">
        <ele>917.3</ele>
        <time>2022-03-01T15:44:56Z</time>
      </trkpt>
      <trkpt lat="40.1482040" lon="-4.7023980">
        <ele>917.6</ele>
        <time>2022-03-01T15:44:57Z</time>
      </trkpt>
      <trkpt lat="40.1481870" lon="-4.7024110">
        <ele>917.7</ele>
        <time>2022-03-01T15:44:58Z</time>
      </trkpt>
      <trkpt lat="40.1481600" lon="-4.7024300">
        <ele>918.0</ele>
        <time>2022-03-01T15:44:59Z</time>
      </trkpt>
      <trkpt lat="40.1481400" lon="-4.7024400">
        <ele>918.2</ele>
        <time>2022-03-01T15:45:00Z</time>
      </trkpt>
      <trkpt lat="40.1481140" lon="-4.7024580">
        <ele>918.4</ele>
        <time>2022-03-01T15:45:01Z</time>
      </trkpt>
      <trkpt lat="40.1480990" lon="-4.7024670">
        <ele>918.6</ele>
        <time>2022-03-01T15:45:02Z</time>
      </trkpt>
      <trkpt lat="40.1480630" lon="-4.7024940">
        <ele>918.9</ele>
        <time>2022-03-01T15:45:03Z</time>
      </trkpt>
      <trkpt lat="40.1480430" lon="-4.7025120">
        <ele>919.1</ele>
        <time>2022-03-01T15:45:04Z</time>
      </trkpt>
      <trkpt lat="40.1480350" lon="-4.7025160">
        <ele>919.2</ele>
        <time>2022-03-01T15:45:05Z</time>
      </trkpt>
      <trkpt lat="40.1480160" lon="-4.7025310">
        <ele>919.4</ele>
        <time>2022-03-01T15:45:06Z</time>
      </trkpt>
      <trkpt lat="40.1479900" lon="-4.7025690">
        <ele>919.7</ele>
        <time>2022-03-01T15:45:07Z</time>
      </trkpt>
      <trkpt lat="40.1479790" lon="-4.7025820">
        <ele>919.8</ele>
        <time>2022-03-01T15:45:08Z</time>
      </trkpt>
      <trkpt lat="40.1479490" lon="-4.7026060">
        <ele>920.1</ele>
        <time>2022-03-01T15:45:09Z</time>
      </trkpt>
      <trkpt lat="40.1479410" lon="-4.7026110">
        <ele>920.2</ele>
        <time>2022-03-01T15:45:10Z</time>
      </trkpt>
      <trkpt lat="40.1479180" lon="-4.7026350">
        <ele>920.5</ele>
        <time>2022-03-01T15:45:11Z</time>
      </trkpt>
      <trkpt lat="40.1478880" lon="-4.7026500">
        <ele>920.7</ele>
        <time>2022-03-01T15:45:12Z</time>
      </trkpt>
      <trkpt lat="40.1478770" lon="-4.7026610">
        <ele>920.8</ele>
        <time>2022-03-01T15:45:13Z</time>
      </trkpt>
      <trkpt lat="40.1478580" lon="-4.7027010">
        <ele>921.1</ele>
        <time>2022-03-01T15:45:14Z</time>
      </trkpt>
      <trkpt lat="40.1478170" lon="-4.7027450">
        <ele>921.5</ele>
        <time>2022-03-01T15:45:16Z</time>
      </trkpt>
      <trkpt lat="40.1477930" lon="-4.7027700">
        <ele>921.8</ele>
        <time>2022-03-01T15:45:17Z</time>
      </trkpt>
      <trkpt lat="40.1477720" lon="-4.7028000">
        <ele>922.0</ele>
        <time>2022-03-01T15:45:18Z</time>
      </trkpt>
      <trkpt lat="40.1477470" lon="-4.7028330">
        <ele>922.3</ele>
        <time>2022-03-01T15:45:19Z</time>
      </trkpt>
      <trkpt lat="40.1477210" lon="-4.7028670">
        <ele>922.6</ele>
        <time>2022-03-01T15:45:20Z</time>
      </trkpt>
      <trkpt lat="40.1476940" lon="-4.7028870">
        <ele>922.8</ele>
        <time>2022-03-01T15:45:21Z</time>
      </trkpt>
      <trkpt lat="40.1476670" lon="-4.7029200">
        <ele>923.1</ele>
        <time>2022-03-01T15:45:22Z</time>
      </trkpt>
      <trkpt lat="40.1476360" lon="-4.7029530">
        <ele>923.5</ele>
        <time>2022-03-01T15:45:23Z</time>
      </trkpt>
      <trkpt lat="40.1476140" lon="-4.7029910">
        <ele>923.8</ele>
        <time>2022-03-01T15:45:24Z</time>
      </trkpt>
      <trkpt lat="40.1475950" lon="-4.7030300">
        <ele>924.1</ele>
        <time>2022-03-01T15:45:25Z</time>
      </trkpt>
      <trkpt lat="40.1475730" lon="-4.7030670">
        <ele>924.4</ele>
        <time>2022-03-01T15:45:26Z</time>
      </trkpt>
      <trkpt lat="40.1475490" lon="-4.7030950">
        <ele>924.7</ele>
        <time>2022-03-01T15:45:27Z</time>
      </trkpt>
      <trkpt lat="40.1475270" lon="-4.7031360">
        <ele>925.0</ele>
        <time>2022-03-01T15:45:28Z</time>
      </trkpt>
      <trkpt lat="40.1475010" lon="-4.7031730">
        <ele>925.4</ele>
        <time>2022-03-01T15:45:29Z</time>
      </trkpt>
      <trkpt lat="40.1474790" lon="-4.7032070">
        <ele>925.8</ele>
        <time>2022-03-01T15:45:30Z</time>
      </trkpt>
      <trkpt lat="40.1474620" lon="-4.7032470">
        <ele>926.2</ele>
        <time>2022-03-01T15:45:31Z</time>
      </trkpt>
      <trkpt lat="40.1474500" lon="-4.7032830">
        <ele>926.6</ele>
        <time>2022-03-01T15:45:32Z</time>
      </trkpt>
      <trkpt lat="40.1474260" lon="-4.7033150">
        <ele>927.0</ele>
        <time>2022-03-01T15:45:33Z</time>
      </trkpt>
      <trkpt lat="40.1474120" lon="-4.7033460">
        <ele>927.3</ele>
        <time>2022-03-01T15:45:34Z</time>
      </trkpt>
      <trkpt lat="40.1473930" lon="-4.7033800">
        <ele>927.8</ele>
        <time>2022-03-01T15:45:35Z</time>
      </trkpt>
      <trkpt lat="40.1473680" lon="-4.7034150">
        <ele>928.2</ele>
        <time>2022-03-01T15:45:36Z</time>
      </trkpt>
      <trkpt lat="40.1473600" lon="-4.7034280">
        <ele>928.4</ele>
        <time>2022-03-01T15:45:37Z</time>
      </trkpt>
      <trkpt lat="40.1473370" lon="-4.7034610">
        <ele>928.8</ele>
        <time>2022-03-01T15:45:38Z</time>
      </trkpt>
      <trkpt lat="40.1473330" lon="-4.7034740">
        <ele>929.0</ele>
        <time>2022-03-01T15:45:39Z</time>
      </trkpt>
      <trkpt lat="40.1473250" lon="-4.7035050">
        <ele>929.3</ele>
        <time>2022-03-01T15:45:40Z</time>
      </trkpt>
      <trkpt lat="40.1473200" lon="-4.7035210">
        <ele>929.4</ele>
        <time>2022-03-01T15:45:41Z</time>
      </trkpt>
      <trkpt lat="40.1473100" lon="-4.7035650">
        <ele>929.8</ele>
        <time>2022-03-01T15:45:42Z</time>
      </trkpt>
      <trkpt lat="40.1473110" lon="-4.7035800">
        <ele>929.9</ele>
        <time>2022-03-01T15:45:43Z</time>
      </trkpt>
      <trkpt lat="40.1473210" lon="-4.7036140">
        <ele>930.2</ele>
        <time>2022-03-01T15:45:44Z</time>
      </trkpt>
      <trkpt lat="40.1473260" lon="-4.7036230">
        <ele>930.3</ele>
        <time>2022-03-01T15:45:45Z</time>
      </trkpt>
      <trkpt lat="40.1473300" lon="-4.7036580">
        <ele>930.5</ele>
        <time>2022-03-01T15:45:46Z</time>
      </trkpt>
      <trkpt lat="40.1473470" lon="-4.7036890">
        <ele>930.7</ele>
        <time>2022-03-01T15:45:47Z</time>
      </trkpt>
      <trkpt lat="40.1473590" lon="-4.7036910">
        <ele>930.8</ele>
        <time>2022-03-01T15:45:48Z</time>
      </trkpt>
      <trkpt lat="40.1473770" lon="-4.7036870">
        <ele>930.9</ele>
        <time>2022-03-01T15:45:49Z</time>
      </trkpt>
      <trkpt lat="40.1473910" lon="-4.7036910">
        <ele>931.0</ele>
        <time>2022-03-01T15:45:50Z</time>
      </trkpt>
      <trkpt lat="40.1474100" lon="-4.7036780">
        <ele>931.1</ele>
        <time>2022-03-01T15:45:51Z</time>
      </trkpt>
      <trkpt lat="40.1474180" lon="-4.7036720">
        <ele>931.2</ele>
        <time>2022-03-01T15:45:52Z</time>
      </trkpt>
      <trkpt lat="40.1474250" lon="-4.7036660">
        <ele>931.2</ele>
        <time>2022-03-01T15:45:53Z</time>
      </trkpt>
      <trkpt lat="40.1474480" lon="-4.7036400">
        <ele>931.3</ele>
        <time>2022-03-01T15:45:54Z</time>
      </trkpt>
      <trkpt lat="40.1474590" lon="-4.7036340">
        <ele>931.4</ele>
        <time>2022-03-01T15:45:55Z</time>
      </trkpt>
      <trkpt lat="40.1474760" lon="-4.7036010">
        <ele>931.4</ele>
        <time>2022-03-01T15:45:56Z</time>
      </trkpt>
      <trkpt lat="40.1474800" lon="-4.7035890">
        <ele>931.5</ele>
        <time>2022-03-01T15:45:57Z</time>
      </trkpt>
      <trkpt lat="40.1474970" lon="-4.7035570">
        <ele>931.5</ele>
        <time>2022-03-01T15:45:58Z</time>
      </trkpt>
      <trkpt lat="40.1475020" lon="-4.7035480">
        <ele>931.5</ele>
        <time>2022-03-01T15:45:59Z</time>
      </trkpt>
      <trkpt lat="40.1475240" lon="-4.7035270">
        <ele>931.5</ele>
        <time>2022-03-01T15:46:00Z</time>
      </trkpt>
      <trkpt lat="40.1475460" lon="-4.7034770">
        <ele>931.5</ele>
        <time>2022-03-01T15:46:01Z</time>
      </trkpt>
      <trkpt lat="40.1475590" lon="-4.7034530">
        <ele>931.5</ele>
        <time>2022-03-01T15:46:02Z</time>
      </trkpt>
      <trkpt lat="40.1475840" lon="-4.7034060">
        <ele>931.5</ele>
        <time>2022-03-01T15:46:03Z</time>
      </trkpt>
      <trkpt lat="40.1476040" lon="-4.7033810">
        <ele>931.5</ele>
        <time>2022-03-01T15:46:04Z</time>
      </trkpt>
      <trkpt lat="40.1476410" lon="-4.7033660">
        <ele>931.5</ele>
        <time>2022-03-01T15:46:05Z</time>
      </trkpt>
      <trkpt lat="40.1476730" lon="-4.7033330">
        <ele>931.5</ele>
        <time>2022-03-01T15:46:06Z</time>
      </trkpt>
      <trkpt lat="40.1476980" lon="-4.7032960">
        <ele>931.6</ele>
        <time>2022-03-01T15:46:07Z</time>
      </trkpt>
      <trkpt lat="40.1477240" lon="-4.7032700">
        <ele>931.6</ele>
        <time>2022-03-01T15:46:08Z</time>
      </trkpt>
      <trkpt lat="40.1477540" lon="-4.7032610">
        <ele>931.7</ele>
        <time>2022-03-01T15:46:09Z</time>
      </trkpt>
      <trkpt lat="40.1477940" lon="-4.7032440">
        <ele>931.7</ele>
        <time>2022-03-01T15:46:10Z</time>
      </trkpt>
      <trkpt lat="40.1478360" lon="-4.7032480">
        <ele>931.8</ele>
        <time>2022-03-01T15:46:11Z</time>
      </trkpt>
      <trkpt lat="40.1478740" lon="-4.7032330">
        <ele>932.0</ele>
        <time>2022-03-01T15:46:12Z</time>
      </trkpt>
      <trkpt lat="40.1479050" lon="-4.7032410">
        <ele>932.0</ele>
        <time>2022-03-01T15:46:13Z</time>
      </trkpt>
      <trkpt lat="40.1479120" lon="-4.7032480">
        <ele>932.1</ele>
        <time>2022-03-01T15:46:14Z</time>
      </trkpt>
      <trkpt lat="40.1479390" lon="-4.7032630">
        <ele>932.2</ele>
        <time>2022-03-01T15:46:15Z</time>
      </trkpt>
      <trkpt lat="40.1479690" lon="-4.7032770">
        <ele>932.3</ele>
        <time>2022-03-01T15:46:16Z</time>
      </trkpt>
      <trkpt lat="40.1480030" lon="-4.7032750">
        <ele>932.5</ele>
        <time>2022-03-01T15:46:17Z</time>
      </trkpt>
      <trkpt lat="40.1480390" lon="-4.7032750">
        <ele>932.7</ele>
        <time>2022-03-01T15:46:18Z</time>
      </trkpt>
      <trkpt lat="40.1480760" lon="-4.7032680">
        <ele>932.9</ele>
        <time>2022-03-01T15:46:19Z</time>
      </trkpt>
      <trkpt lat="40.1481190" lon="-4.7032610">
        <ele>933.1</ele>
        <time>2022-03-01T15:46:20Z</time>
      </trkpt>
      <trkpt lat="40.1481540" lon="-4.7032550">
        <ele>933.4</ele>
        <time>2022-03-01T15:46:21Z</time>
      </trkpt>
      <trkpt lat="40.1482020" lon="-4.7032490">
        <ele>933.7</ele>
        <time>2022-03-01T15:46:22Z</time>
      </trkpt>
      <trkpt lat="40.1482240" lon="-4.7032430">
        <ele>933.8</ele>
        <time>2022-03-01T15:46:23Z</time>
      </trkpt>
      <trkpt lat="40.1482730" lon="-4.7032140">
        <ele>934.2</ele>
        <time>2022-03-01T15:46:24Z</time>
      </trkpt>
      <trkpt lat="40.1483070" lon="-4.7032050">
        <ele>934.4</ele>
        <time>2022-03-01T15:46:25Z</time>
      </trkpt>
      <trkpt lat="40.1483430" lon="-4.7031820">
        <ele>934.7</ele>
        <time>2022-03-01T15:46:26Z</time>
      </trkpt>
      <trkpt lat="40.1483710" lon="-4.7031660">
        <ele>934.9</ele>
        <time>2022-03-01T15:46:27Z</time>
      </trkpt>
      <trkpt lat="40.1483810" lon="-4.7031570">
        <ele>935.0</ele>
        <time>2022-03-01T15:46:28Z</time>
      </trkpt>
      <trkpt lat="40.1484130" lon="-4.7031270">
        <ele>935.2</ele>
        <time>2022-03-01T15:46:29Z</time>
      </trkpt>
      <trkpt lat="40.1484240" lon="-4.7031170">
        <ele>935.3</ele>
        <time>2022-03-01T15:46:30Z</time>
      </trkpt>
      <trkpt lat="40.1484460" lon="-4.7030960">
        <ele>935.5</ele>
        <time>2022-03-01T15:46:31Z</time>
      </trkpt>
      <trkpt lat="40.1484660" lon="-4.7030720">
        <ele>935.6</ele>
        <time>2022-03-01T15:46:32Z</time>
      </trkpt>
      <trkpt lat="40.1484920" lon="-4.7030440">
        <ele>935.8</ele>
        <time>2022-03-01T15:46:33Z</time>
      </trkpt>
      <trkpt lat="40.1485280" lon="-4.7029890">
        <ele>936.1</ele>
        <time>2022-03-01T15:46:34Z</time>
      </trkpt>
      <trkpt lat="40.1485500" lon="-4.7029590">
        <ele>936.2</ele>
        <time>2022-03-01T15:46:35Z</time>
      </trkpt>
      <trkpt lat="40.1485860" lon="-4.7029210">
        <ele>936.4</ele>
        <time>2022-03-01T15:46:36Z</time>
      </trkpt>
      <trkpt lat="40.1486180" lon="-4.7028960">
        <ele>936.6</ele>
        <time>2022-03-01T15:46:37Z</time>
      </trkpt>
      <trkpt lat="40.1486320" lon="-4.7028930">
        <ele>936.7</ele>
        <time>2022-03-01T15:46:38Z</time>
      </trkpt>
      <trkpt lat="40.1486780" lon="-4.7028630">
        <ele>936.9</ele>
        <time>2022-03-01T15:46:39Z</time>
      </trkpt>
      <trkpt lat="40.1487000" lon="-4.7028470">
        <ele>937.0</ele>
        <time>2022-03-01T15:46:40Z</time>
      </trkpt>
      <trkpt lat="40.1487310" lon="-4.7028150">
        <ele>937.2</ele>
        <time>2022-03-01T15:46:41Z</time>
      </trkpt>
      <trkpt lat="40.1487760" lon="-4.7027900">
        <ele>937.5</ele>
        <time>2022-03-01T15:46:42Z</time>
      </trkpt>
      <trkpt lat="40.1488130" lon="-4.7027700">
        <ele>937.7</ele>
        <time>2022-03-01T15:46:43Z</time>
      </trkpt>
      <trkpt lat="40.1488570" lon="-4.7027670">
        <ele>937.9</ele>
        <time>2022-03-01T15:46:44Z</time>
      </trkpt>
      <trkpt lat="40.1488890" lon="-4.7027480">
        <ele>938.1</ele>
        <time>2022-03-01T15:46:45Z</time>
      </trkpt>
      <trkpt lat="40.1489180" lon="-4.7027240">
        <ele>938.3</ele>
        <time>2022-03-01T15:46:46Z</time>
      </trkpt>
      <trkpt lat="40.1489580" lon="-4.7026990">
        <ele>938.6</ele>
        <time>2022-03-01T15:46:47Z</time>
      </trkpt>
      <trkpt lat="40.1490060" lon="-4.7026780">
        <ele>938.9</ele>
        <time>2022-03-01T15:46:48Z</time>
      </trkpt>
      <trkpt lat="40.1490290" lon="-4.7026640">
        <ele>939.1</ele>
        <time>2022-03-01T15:46:49Z</time>
      </trkpt>
      <trkpt lat="40.1490650" lon="-4.7026290">
        <ele>939.4</ele>
        <time>2022-03-01T15:46:50Z</time>
      </trkpt>
      <trkpt lat="40.1490950" lon="-4.7026020">
        <ele>939.6</ele>
        <time>2022-03-01T15:46:51Z</time>
      </trkpt>
      <trkpt lat="40.1491730" lon="-4.7025660">
        <ele>940.2</ele>
        <time>2022-03-01T15:46:52Z</time>
      </trkpt>
      <trkpt lat="40.1492080" lon="-4.7025370">
        <ele>940.5</ele>
        <time>2022-03-01T15:46:53Z</time>
      </trkpt>
      <trkpt lat="40.1492500" lon="-4.7025280">
        <ele>940.7</ele>
        <time>2022-03-01T15:46:54Z</time>
      </trkpt>
      <trkpt lat="40.1492880" lon="-4.7024980">
        <ele>941.0</ele>
        <time>2022-03-01T15:46:55Z</time>
      </trkpt>
      <trkpt lat="40.1493240" lon="-4.7024680">
        <ele>941.3</ele>
        <time>2022-03-01T15:46:56Z</time>
      </trkpt>
      <trkpt lat="40.1493570" lon="-4.7024380">
        <ele>941.6</ele>
        <time>2022-03-01T15:46:57Z</time>
      </trkpt>
      <trkpt lat="40.1493990" lon="-4.7024220">
        <ele>941.9</ele>
        <time>2022-03-01T15:46:58Z</time>
      </trkpt>
      <trkpt lat="40.1494340" lon="-4.7023950">
        <ele>942.1</ele>
        <time>2022-03-01T15:46:59Z</time>
      </trkpt>
      <trkpt lat="40.1494690" lon="-4.7023780">
        <ele>942.4</ele>
        <time>2022-03-01T15:47:00Z</time>
      </trkpt>
      <trkpt lat="40.1495010" lon="-4.7023500">
        <ele>942.7</ele>
        <time>2022-03-01T15:47:01Z</time>
      </trkpt>
      <trkpt lat="40.1495340" lon="-4.7023320">
        <ele>942.9</ele>
        <time>2022-03-01T15:47:02Z</time>
      </trkpt>
      <trkpt lat="40.1495660" lon="-4.7023080">
        <ele>943.2</ele>
        <time>2022-03-01T15:47:03Z</time>
      </trkpt>
      <trkpt lat="40.1495950" lon="-4.7022840">
        <ele>943.5</ele>
        <time>2022-03-01T15:47:04Z</time>
      </trkpt>
      <trkpt lat="40.1496260" lon="-4.7022660">
        <ele>943.8</ele>
        <time>2022-03-01T15:47:05Z</time>
      </trkpt>
      <trkpt lat="40.1496590" lon="-4.7022480">
        <ele>944.1</ele>
        <time>2022-03-01T15:47:06Z</time>
      </trkpt>
      <trkpt lat="40.1496920" lon="-4.7022230">
        <ele>944.4</ele>
        <time>2022-03-01T15:47:07Z</time>
      </trkpt>
      <trkpt lat="40.1497130" lon="-4.7021930">
        <ele>944.7</ele>
        <time>2022-03-01T15:47:08Z</time>
      </trkpt>
      <trkpt lat="40.1497380" lon="-4.7021690">
        <ele>945.0</ele>
        <time>2022-03-01T15:47:09Z</time>
      </trkpt>
      <trkpt lat="40.1497660" lon="-4.7021470">
        <ele>945.3</ele>
        <time>2022-03-01T15:47:10Z</time>
      </trkpt>
      <trkpt lat="40.1497970" lon="-4.7021230">
        <ele>945.6</ele>
        <time>2022-03-01T15:47:11Z</time>
      </trkpt>
      <trkpt lat="40.1498330" lon="-4.7021020">
        <ele>945.9</ele>
        <time>2022-03-01T15:47:12Z</time>
      </trkpt>
      <trkpt lat="40.1498720" lon="-4.7020860">
        <ele>946.3</ele>
        <time>2022-03-01T15:47:13Z</time>
      </trkpt>
      <trkpt lat="40.1499070" lon="-4.7020670">
        <ele>946.7</ele>
        <time>2022-03-01T15:47:14Z</time>
      </trkpt>
      <trkpt lat="40.1499400" lon="-4.7020540">
        <ele>947.0</ele>
        <time>2022-03-01T15:47:15Z</time>
      </trkpt>
      <trkpt lat="40.1499750" lon="-4.7020560">
        <ele>947.3</ele>
        <time>2022-03-01T15:47:16Z</time>
      </trkpt>
      <trkpt lat="40.1500160" lon="-4.7020450">
        <ele>947.7</ele>
        <time>2022-03-01T15:47:17Z</time>
      </trkpt>
      <trkpt lat="40.1500550" lon="-4.7020310">
        <ele>948.1</ele>
        <time>2022-03-01T15:47:18Z</time>
      </trkpt>
      <trkpt lat="40.1500970" lon="-4.7020230">
        <ele>948.5</ele>
        <time>2022-03-01T15:47:19Z</time>
      </trkpt>
      <trkpt lat="40.1501340" lon="-4.7020200">
        <ele>948.8</ele>
        <time>2022-03-01T15:47:20Z</time>
      </trkpt>
      <trkpt lat="40.1501660" lon="-4.7020290">
        <ele>949.1</ele>
        <time>2022-03-01T15:47:22Z</time>
      </trkpt>
      <trkpt lat="40.1501980" lon="-4.7020320">
        <ele>949.4</ele>
        <time>2022-03-01T15:47:23Z</time>
      </trkpt>
      <trkpt lat="40.1502340" lon="-4.7020330">
        <ele>949.7</ele>
        <time>2022-03-01T15:47:24Z</time>
      </trkpt>
      <trkpt lat="40.1502690" lon="-4.7020210">
        <ele>950.0</ele>
        <time>2022-03-01T15:47:25Z</time>
      </trkpt>
      <trkpt lat="40.1503050" lon="-4.7020210">
        <ele>950.2</ele>
        <time>2022-03-01T15:47:26Z</time>
      </trkpt>
      <trkpt lat="40.1503190" lon="-4.7020140">
        <ele>950.4</ele>
        <time>2022-03-01T15:47:27Z</time>
      </trkpt>
      <trkpt lat="40.1503420" lon="-4.7019900">
        <ele>950.6</ele>
        <time>2022-03-01T15:47:28Z</time>
      </trkpt>
      <trkpt lat="40.1503800" lon="-4.7019860">
        <ele>950.8</ele>
        <time>2022-03-01T15:47:29Z</time>
      </trkpt>
      <trkpt lat="40.1504030" lon="-4.7019810">
        <ele>951.0</ele>
        <time>2022-03-01T15:47:30Z</time>
      </trkpt>
      <trkpt lat="40.1504150" lon="-4.7019770">
        <ele>951.1</ele>
        <time>2022-03-01T15:47:31Z</time>
      </trkpt>
      <trkpt lat="40.1504290" lon="-4.7019630">
        <ele>951.2</ele>
        <time>2022-03-01T15:47:32Z</time>
      </trkpt>
      <trkpt lat="40.1504390" lon="-4.7019480">
        <ele>951.3</ele>
        <time>2022-03-01T15:47:33Z</time>
      </trkpt>
      <trkpt lat="40.1504520" lon="-4.7019360">
        <ele>951.3</ele>
        <time>2022-03-01T15:47:34Z</time>
      </trkpt>
      <trkpt lat="40.1504660" lon="-4.7019230">
        <ele>951.4</ele>
        <time>2022-03-01T15:47:35Z</time>
      </trkpt>
      <trkpt lat="40.1504850" lon="-4.7019100">
        <ele>951.6</ele>
        <time>2022-03-01T15:47:36Z</time>
      </trkpt>
      <trkpt lat="40.1504920" lon="-4.7019010">
        <ele>951.6</ele>
        <time>2022-03-01T15:47:37Z</time>
      </trkpt>
      <trkpt lat="40.1505000" lon="-4.7018850">
        <ele>951.7</ele>
        <time>2022-03-01T15:47:38Z</time>
      </trkpt>
      <trkpt lat="40.1505080" lon="-4.7018720">
        <ele>951.8</ele>
        <time>2022-03-01T15:47:39Z</time>
      </trkpt>
      <trkpt lat="40.1505200" lon="-4.7018600">
        <ele>951.8</ele>
        <time>2022-03-01T15:47:40Z</time>
      </trkpt>
      <trkpt lat="40.1505290" lon="-4.7018390">
        <ele>951.9</ele>
        <time>2022-03-01T15:47:41Z</time>
      </trkpt>
      <trkpt lat="40.1505380" lon="-4.7018170">
        <ele>952.0</ele>
        <time>2022-03-01T15:47:42Z</time>
      </trkpt>
      <trkpt lat="40.1505500" lon="-4.7017720">
        <ele>952.4</ele>
        <time>2022-03-01T15:47:43Z</time>
      </trkpt>
      <trkpt lat="40.1505570" lon="-4.7017500">
        <ele>952.4</ele>
        <time>2022-03-01T15:47:44Z</time>
      </trkpt>
      <trkpt lat="40.1505790" lon="-4.7017120">
        <ele>952.6</ele>
        <time>2022-03-01T15:47:45Z</time>
      </trkpt>
      <trkpt lat="40.1505860" lon="-4.7016940">
        <ele>952.6</ele>
        <time>2022-03-01T15:47:46Z</time>
      </trkpt>
      <trkpt lat="40.1506010" lon="-4.7016510">
        <ele>952.8</ele>
        <time>2022-03-01T15:47:47Z</time>
      </trkpt>
      <trkpt lat="40.1506060" lon="-4.7016330">
        <ele>952.8</ele>
        <time>2022-03-01T15:47:48Z</time>
      </trkpt>
      <trkpt lat="40.1506150" lon="-4.7015990">
        <ele>952.9</ele>
        <time>2022-03-01T15:47:49Z</time>
      </trkpt>
      <trkpt lat="40.1506450" lon="-4.7015390">
        <ele>953.2</ele>
        <time>2022-03-01T15:47:50Z</time>
      </trkpt>
      <trkpt lat="40.1506640" lon="-4.7014910">
        <ele>953.3</ele>
        <time>2022-03-01T15:47:51Z</time>
      </trkpt>
      <trkpt lat="40.1506680" lon="-4.7014680">
        <ele>953.4</ele>
        <time>2022-03-01T15:47:52Z</time>
      </trkpt>
      <trkpt lat="40.1507000" lon="-4.7014250">
        <ele>953.6</ele>
        <time>2022-03-01T15:47:53Z</time>
      </trkpt>
      <trkpt lat="40.1507160" lon="-4.7014010">
        <ele>953.7</ele>
        <time>2022-03-01T15:47:54Z</time>
      </trkpt>
      <trkpt lat="40.1507430" lon="-4.7013710">
        <ele>953.9</ele>
        <time>2022-03-01T15:47:55Z</time>
      </trkpt>
      <trkpt lat="40.1507480" lon="-4.7013270">
        <ele>954.0</ele>
        <time>2022-03-01T15:47:56Z</time>
      </trkpt>
      <trkpt lat="40.1507360" lon="-4.7012840">
        <ele>954.2</ele>
        <time>2022-03-01T15:47:57Z</time>
      </trkpt>
      <trkpt lat="40.1507430" lon="-4.7012260">
        <ele>954.4</ele>
        <time>2022-03-01T15:47:58Z</time>
      </trkpt>
      <trkpt lat="40.1507450" lon="-4.7011980">
        <ele>954.5</ele>
        <time>2022-03-01T15:47:59Z</time>
      </trkpt>
      <trkpt lat="40.1507690" lon="-4.7011680">
        <ele>954.7</ele>
        <time>2022-03-01T15:48:00Z</time>
      </trkpt>
      <trkpt lat="40.1508010" lon="-4.7011170">
        <ele>955.0</ele>
        <time>2022-03-01T15:48:01Z</time>
      </trkpt>
      <trkpt lat="40.1508190" lon="-4.7010770">
        <ele>955.2</ele>
        <time>2022-03-01T15:48:02Z</time>
      </trkpt>
      <trkpt lat="40.1508430" lon="-4.7010090">
        <ele>955.6</ele>
        <time>2022-03-01T15:48:03Z</time>
      </trkpt>
      <trkpt lat="40.1508700" lon="-4.7009290">
        <ele>956.0</ele>
        <time>2022-03-01T15:48:04Z</time>
      </trkpt>
      <trkpt lat="40.1509100" lon="-4.7008920">
        <ele>956.4</ele>
        <time>2022-03-01T15:48:05Z</time>
      </trkpt>
      <trkpt lat="40.1509270" lon="-4.7008660">
        <ele>956.5</ele>
        <time>2022-03-01T15:48:06Z</time>
      </trkpt>
      <trkpt lat="40.1509550" lon="-4.7008330">
        <ele>956.8</ele>
        <time>2022-03-01T15:48:07Z</time>
      </trkpt>
      <trkpt lat="40.1509840" lon="-4.7007800">
        <ele>957.1</ele>
        <time>2022-03-01T15:48:08Z</time>
      </trkpt>
      <trkpt lat="40.1510020" lon="-4.7007410">
        <ele>957.4</ele>
        <time>2022-03-01T15:48:09Z</time>
      </trkpt>
      <trkpt lat="40.1510320" lon="-4.7006950">
        <ele>957.7</ele>
        <time>2022-03-01T15:48:10Z</time>
      </trkpt>
      <trkpt lat="40.1510600" lon="-4.7006580">
        <ele>957.9</ele>
        <time>2022-03-01T15:48:11Z</time>
      </trkpt>
      <trkpt lat="40.1510910" lon="-4.7006190">
        <ele>958.2</ele>
        <time>2022-03-01T15:48:12Z</time>
      </trkpt>
      <trkpt lat="40.1511010" lon="-4.7005830">
        <ele>958.3</ele>
        <time>2022-03-01T15:48:13Z</time>
      </trkpt>
      <trkpt lat="40.1511280" lon="-4.7005190">
        <ele>958.6</ele>
        <time>2022-03-01T15:48:14Z</time>
      </trkpt>
      <trkpt lat="40.1511490" lon="-4.7004690">
        <ele>958.8</ele>
        <time>2022-03-01T15:48:15Z</time>
      </trkpt>
      <trkpt lat="40.1511570" lon="-4.7004460">
        <ele>958.8</ele>
        <time>2022-03-01T15:48:16Z</time>
      </trkpt>
      <trkpt lat="40.1511620" lon="-4.7004050">
        <ele>958.9</ele>
        <time>2022-03-01T15:48:17Z</time>
      </trkpt>
      <trkpt lat="40.1511670" lon="-4.7003870">
        <ele>959.0</ele>
        <time>2022-03-01T15:48:18Z</time>
      </trkpt>
      <trkpt lat="40.1511790" lon="-4.7003360">
        <ele>959.1</ele>
        <time>2022-03-01T15:48:19Z</time>
      </trkpt>
      <trkpt lat="40.1511940" lon="-4.7002930">
        <ele>959.2</ele>
        <time>2022-03-01T15:48:20Z</time>
      </trkpt>
      <trkpt lat="40.1512040" lon="-4.7002670">
        <ele>959.3</ele>
        <time>2022-03-01T15:48:21Z</time>
      </trkpt>
      <trkpt lat="40.1512340" lon="-4.7002170">
        <ele>959.4</ele>
        <time>2022-03-01T15:48:22Z</time>
      </trkpt>
      <trkpt lat="40.1512510" lon="-4.7001900">
        <ele>959.5</ele>
        <time>2022-03-01T15:48:23Z</time>
      </trkpt>
      <trkpt lat="40.1512760" lon="-4.7001520">
        <ele>959.6</ele>
        <time>2022-03-01T15:48:24Z</time>
      </trkpt>
      <trkpt lat="40.1513020" lon="-4.7000980">
        <ele>959.7</ele>
        <time>2022-03-01T15:48:25Z</time>
      </trkpt>
      <trkpt lat="40.1513210" lon="-4.7000520">
        <ele>959.8</ele>
        <time>2022-03-01T15:48:26Z</time>
      </trkpt>
      <trkpt lat="40.1513400" lon="-4.7000170">
        <ele>959.9</ele>
        <time>2022-03-01T15:48:27Z</time>
      </trkpt>
      <trkpt lat="40.1513410" lon="-4.6999680">
        <ele>960.0</ele>
        <time>2022-03-01T15:48:28Z</time>
      </trkpt>
      <trkpt lat="40.1513530" lon="-4.6999170">
        <ele>960.1</ele>
        <time>2022-03-01T15:48:29Z</time>
      </trkpt>
      <trkpt lat="40.1513570" lon="-4.6998930">
        <ele>960.2</ele>
        <time>2022-03-01T15:48:30Z</time>
      </trkpt>
      <trkpt lat="40.1513870" lon="-4.6998630">
        <ele>960.3</ele>
        <time>2022-03-01T15:48:31Z</time>
      </trkpt>
      <trkpt lat="40.1514010" lon="-4.6998040">
        <ele>960.5</ele>
        <time>2022-03-01T15:48:32Z</time>
      </trkpt>
      <trkpt lat="40.1513970" lon="-4.6997620">
        <ele>960.7</ele>
        <time>2022-03-01T15:48:33Z</time>
      </trkpt>
      <trkpt lat="40.1514080" lon="-4.6997170">
        <ele>960.9</ele>
        <time>2022-03-01T15:48:34Z</time>
      </trkpt>
      <trkpt lat="40.1514180" lon="-4.6996720">
        <ele>961.1</ele>
        <time>2022-03-01T15:48:35Z</time>
      </trkpt>
      <trkpt lat="40.1514280" lon="-4.6996310">
        <ele>961.2</ele>
        <time>2022-03-01T15:48:36Z</time>
      </trkpt>
      <trkpt lat="40.1514700" lon="-4.6995480">
        <ele>961.7</ele>
        <time>2022-03-01T15:48:37Z</time>
      </trkpt>
      <trkpt lat="40.1514800" lon="-4.6994960">
        <ele>961.9</ele>
        <time>2022-03-01T15:48:38Z</time>
      </trkpt>
      <trkpt lat="40.1515020" lon="-4.6994330">
        <ele>962.3</ele>
        <time>2022-03-01T15:48:39Z</time>
      </trkpt>
      <trkpt lat="40.1515160" lon="-4.6993650">
        <ele>962.6</ele>
        <time>2022-03-01T15:48:40Z</time>
      </trkpt>
      <trkpt lat="40.1515400" lon="-4.6992980">
        <ele>963.0</ele>
        <time>2022-03-01T15:48:41Z</time>
      </trkpt>
      <trkpt lat="40.1515690" lon="-4.6992320">
        <ele>963.4</ele>
        <time>2022-03-01T15:48:42Z</time>
      </trkpt>
      <trkpt lat="40.1515780" lon="-4.6991810">
        <ele>963.7</ele>
        <time>2022-03-01T15:48:43Z</time>
      </trkpt>
      <trkpt lat="40.1515910" lon="-4.6991180">
        <ele>964.0</ele>
        <time>2022-03-01T15:48:44Z</time>
      </trkpt>
      <trkpt lat="40.1516040" lon="-4.6990670">
        <ele>964.3</ele>
        <time>2022-03-01T15:48:45Z</time>
      </trkpt>
      <trkpt lat="40.1516280" lon="-4.6989930">
        <ele>964.8</ele>
        <time>2022-03-01T15:48:46Z</time>
      </trkpt>
      <trkpt lat="40.1516590" lon="-4.6989400">
        <ele>965.2</ele>
        <time>2022-03-01T15:48:47Z</time>
      </trkpt>
      <trkpt lat="40.1516900" lon="-4.6988890">
        <ele>965.6</ele>
        <time>2022-03-01T15:48:48Z</time>
      </trkpt>
      <trkpt lat="40.1517230" lon="-4.6988370">
        <ele>966.0</ele>
        <time>2022-03-01T15:48:49Z</time>
      </trkpt>
      <trkpt lat="40.1517500" lon="-4.6987830">
        <ele>966.4</ele>
        <time>2022-03-01T15:48:50Z</time>
      </trkpt>
      <trkpt lat="40.1517780" lon="-4.6987190">
        <ele>966.8</ele>
        <time>2022-03-01T15:48:51Z</time>
      </trkpt>
      <trkpt lat="40.1517910" lon="-4.6986810">
        <ele>967.0</ele>
        <time>2022-03-01T15:48:52Z</time>
      </trkpt>
      <trkpt lat="40.1518250" lon="-4.6986410">
        <ele>967.4</ele>
        <time>2022-03-01T15:48:53Z</time>
      </trkpt>
      <trkpt lat="40.1518630" lon="-4.6986010">
        <ele>967.8</ele>
        <time>2022-03-01T15:48:54Z</time>
      </trkpt>
      <trkpt lat="40.1518970" lon="-4.6985660">
        <ele>968.1</ele>
        <time>2022-03-01T15:48:55Z</time>
      </trkpt>
      <trkpt lat="40.1519340" lon="-4.6985290">
        <ele>968.4</ele>
        <time>2022-03-01T15:48:56Z</time>
      </trkpt>
      <trkpt lat="40.1519680" lon="-4.6984960">
        <ele>968.7</ele>
        <time>2022-03-01T15:48:57Z</time>
      </trkpt>
      <trkpt lat="40.1520030" lon="-4.6984700">
        <ele>969.0</ele>
        <time>2022-03-01T15:48:58Z</time>
      </trkpt>
      <trkpt lat="40.1520380" lon="-4.6984550">
        <ele>969.2</ele>
        <time>2022-03-01T15:48:59Z</time>
      </trkpt>
      <trkpt lat="40.1520750" lon="-4.6984320">
        <ele>969.4</ele>
        <time>2022-03-01T15:49:00Z</time>
      </trkpt>
      <trkpt lat="40.1520920" lon="-4.6984210">
        <ele>969.6</ele>
        <time>2022-03-01T15:49:01Z</time>
      </trkpt>
      <trkpt lat="40.1521210" lon="-4.6984050">
        <ele>969.7</ele>
        <time>2022-03-01T15:49:02Z</time>
      </trkpt>
      <trkpt lat="40.1521450" lon="-4.6983860">
        <ele>969.9</ele>
        <time>2022-03-01T15:49:03Z</time>
      </trkpt>
      <trkpt lat="40.1521540" lon="-4.6983810">
        <ele>969.9</ele>
        <time>2022-03-01T15:49:04Z</time>
      </trkpt>
      <trkpt lat="40.1521740" lon="-4.6983570">
        <ele>970.1</ele>
        <time>2022-03-01T15:49:05Z</time>
      </trkpt>
      <trkpt lat="40.1522040" lon="-4.6983280">
        <ele>970.3</ele>
        <time>2022-03-01T15:49:06Z</time>
      </trkpt>
      <trkpt lat="40.1522230" lon="-4.6983160">
        <ele>970.4</ele>
        <time>2022-03-01T15:49:07Z</time>
      </trkpt>
      <trkpt lat="40.1522440" lon="-4.6983030">
        <ele>970.5</ele>
        <time>2022-03-01T15:49:08Z</time>
      </trkpt>
      <trkpt lat="40.1522580" lon="-4.6982930">
        <ele>970.5</ele>
        <time>2022-03-01T15:49:09Z</time>
      </trkpt>
      <trkpt lat="40.1523110" lon="-4.6982600">
        <ele>970.8</ele>
        <time>2022-03-01T15:49:10Z</time>
      </trkpt>
      <trkpt lat="40.1523290" lon="-4.6982410">
        <ele>970.9</ele>
        <time>2022-03-01T15:49:11Z</time>
      </trkpt>
      <trkpt lat="40.1523440" lon="-4.6982300">
        <ele>971.0</ele>
        <time>2022-03-01T15:49:12Z</time>
      </trkpt>
      <trkpt lat="40.1523720" lon="-4.6982020">
        <ele>971.2</ele>
        <time>2022-03-01T15:49:13Z</time>
      </trkpt>
      <trkpt lat="40.1523850" lon="-4.6981860">
        <ele>971.3</ele>
        <time>2022-03-01T15:49:14Z</time>
      </trkpt>
      <trkpt lat="40.1524190" lon="-4.6981560">
        <ele>971.5</ele>
        <time>2022-03-01T15:49:15Z</time>
      </trkpt>
      <trkpt lat="40.1524340" lon="-4.6981450">
        <ele>971.6</ele>
        <time>2022-03-01T15:49:16Z</time>
      </trkpt>
      <trkpt lat="40.1524650" lon="-4.6981230">
        <ele>971.8</ele>
        <time>2022-03-01T15:49:17Z</time>
      </trkpt>
      <trkpt lat="40.1524800" lon="-4.6981140">
        <ele>971.9</ele>
        <time>2022-03-01T15:49:18Z</time>
      </trkpt>
      <trkpt lat="40.1525220" lon="-4.6980810">
        <ele>972.2</ele>
        <time>2022-03-01T15:49:19Z</time>
      </trkpt>
      <trkpt lat="40.1525560" lon="-4.6980670">
        <ele>972.4</ele>
        <time>2022-03-01T15:49:20Z</time>
      </trkpt>
      <trkpt lat="40.1525770" lon="-4.6980520">
        <ele>972.5</ele>
        <time>2022-03-01T15:49:21Z</time>
      </trkpt>
      <trkpt lat="40.1526000" lon="-4.6980310">
        <ele>972.7</ele>
        <time>2022-03-01T15:49:22Z</time>
      </trkpt>
      <trkpt lat="40.1526150" lon="-4.6980250">
        <ele>972.8</ele>
        <time>2022-03-01T15:49:23Z</time>
      </trkpt>
      <trkpt lat="40.1526460" lon="-4.6980090">
        <ele>973.0</ele>
        <time>2022-03-01T15:49:24Z</time>
      </trkpt>
      <trkpt lat="40.1526790" lon="-4.6979860">
        <ele>973.3</ele>
        <time>2022-03-01T15:49:25Z</time>
      </trkpt>
      <trkpt lat="40.1526950" lon="-4.6979720">
        <ele>973.4</ele>
        <time>2022-03-01T15:49:26Z</time>
      </trkpt>
      <trkpt lat="40.1527270" lon="-4.6979450">
        <ele>973.7</ele>
        <time>2022-03-01T15:49:28Z</time>
      </trkpt>
      <trkpt lat="40.1527610" lon="-4.6979160">
        <ele>974.0</ele>
        <time>2022-03-01T15:49:29Z</time>
      </trkpt>
      <trkpt lat="40.1527750" lon="-4.6979020">
        <ele>974.1</ele>
        <time>2022-03-01T15:49:30Z</time>
      </trkpt>
      <trkpt lat="40.1528090" lon="-4.6978700">
        <ele>974.4</ele>
        <time>2022-03-01T15:49:31Z</time>
      </trkpt>
      <trkpt lat="40.1528390" lon="-4.6978520">
        <ele>974.6</ele>
        <time>2022-03-01T15:49:32Z</time>
      </trkpt>
      <trkpt lat="40.1528520" lon="-4.6978410">
        <ele>974.8</ele>
        <time>2022-03-01T15:49:33Z</time>
      </trkpt>
      <trkpt lat="40.1528890" lon="-4.6978050">
        <ele>975.1</ele>
        <time>2022-03-01T15:49:34Z</time>
      </trkpt>
      <trkpt lat="40.1529220" lon="-4.6977900">
        <ele>975.4</ele>
        <time>2022-03-01T15:49:35Z</time>
      </trkpt>
      <trkpt lat="40.1529360" lon="-4.6977790">
        <ele>975.5</ele>
        <time>2022-03-01T15:49:36Z</time>
      </trkpt>
      <trkpt lat="40.1529640" lon="-4.6977430">
        <ele>975.8</ele>
        <time>2022-03-01T15:49:37Z</time>
      </trkpt>
      <trkpt lat="40.1529950" lon="-4.6977110">
        <ele>976.2</ele>
        <time>2022-03-01T15:49:38Z</time>
      </trkpt>
      <trkpt lat="40.1530090" lon="-4.6977020">
        <ele>976.3</ele>
        <time>2022-03-01T15:49:39Z</time>
      </trkpt>
      <trkpt lat="40.1530400" lon="-4.6976970">
        <ele>976.5</ele>
        <time>2022-03-01T15:49:40Z</time>
      </trkpt>
      <trkpt lat="40.1530590" lon="-4.6976720">
        <ele>976.7</ele>
        <time>2022-03-01T15:49:41Z</time>
      </trkpt>
      <trkpt lat="40.1530920" lon="-4.6976260">
        <ele>977.1</ele>
        <time>2022-03-01T15:49:42Z</time>
      </trkpt>
      <trkpt lat="40.1531330" lon="-4.6975940">
        <ele>977.5</ele>
        <time>2022-03-01T15:49:43Z</time>
      </trkpt>
      <trkpt lat="40.1531750" lon="-4.6975570">
        <ele>977.9</ele>
        <time>2022-03-01T15:49:44Z</time>
      </trkpt>
      <trkpt lat="40.1532180" lon="-4.6974940">
        <ele>978.4</ele>
        <time>2022-03-01T15:49:45Z</time>
      </trkpt>
      <trkpt lat="40.1532590" lon="-4.6974470">
        <ele>978.8</ele>
        <time>2022-03-01T15:49:46Z</time>
      </trkpt>
      <trkpt lat="40.1532990" lon="-4.6974070">
        <ele>979.2</ele>
        <time>2022-03-01T15:49:47Z</time>
      </trkpt>
      <trkpt lat="40.1533340" lon="-4.6973750">
        <ele>979.5</ele>
        <time>2022-03-01T15:49:48Z</time>
      </trkpt>
      <trkpt lat="40.1533610" lon="-4.6973410">
        <ele>979.8</ele>
        <time>2022-03-01T15:49:49Z</time>
      </trkpt>
      <trkpt lat="40.1533910" lon="-4.6973140">
        <ele>980.1</ele>
        <time>2022-03-01T15:49:50Z</time>
      </trkpt>
      <trkpt lat="40.1534330" lon="-4.6972720">
        <ele>980.5</ele>
        <time>2022-03-01T15:49:51Z</time>
      </trkpt>
      <trkpt lat="40.1534750" lon="-4.6972300">
        <ele>980.9</ele>
        <time>2022-03-01T15:49:52Z</time>
      </trkpt>
      <trkpt lat="40.1535040" lon="-4.6972100">
        <ele>981.1</ele>
        <time>2022-03-01T15:49:53Z</time>
      </trkpt>
      <trkpt lat="40.1535420" lon="-4.6971660">
        <ele>981.5</ele>
        <time>2022-03-01T15:49:54Z</time>
      </trkpt>
      <trkpt lat="40.1535710" lon="-4.6971100">
        <ele>982.0</ele>
        <time>2022-03-01T15:49:55Z</time>
      </trkpt>
      <trkpt lat="40.1536080" lon="-4.6970770">
        <ele>982.3</ele>
        <time>2022-03-01T15:49:56Z</time>
      </trkpt>
      <trkpt lat="40.1536470" lon="-4.6970390">
        <ele>982.7</ele>
        <time>2022-03-01T15:49:57Z</time>
      </trkpt>
      <trkpt lat="40.1536780" lon="-4.6969990">
        <ele>983.1</ele>
        <time>2022-03-01T15:49:58Z</time>
      </trkpt>
      <trkpt lat="40.1537000" lon="-4.6969620">
        <ele>983.4</ele>
        <time>2022-03-01T15:49:59Z</time>
      </trkpt>
      <trkpt lat="40.1537270" lon="-4.6969230">
        <ele>983.7</ele>
        <time>2022-03-01T15:50:00Z</time>
      </trkpt>
      <trkpt lat="40.1537560" lon="-4.6968970">
        <ele>984.0</ele>
        <time>2022-03-01T15:50:01Z</time>
      </trkpt>
      <trkpt lat="40.1537810" lon="-4.6968710">
        <ele>984.3</ele>
        <time>2022-03-01T15:50:02Z</time>
      </trkpt>
      <trkpt lat="40.1538090" lon="-4.6968500">
        <ele>984.6</ele>
        <time>2022-03-01T15:50:03Z</time>
      </trkpt>
      <trkpt lat="40.1538430" lon="-4.6968330">
        <ele>984.9</ele>
        <time>2022-03-01T15:50:04Z</time>
      </trkpt>
      <trkpt lat="40.1538720" lon="-4.6968080">
        <ele>985.3</ele>
        <time>2022-03-01T15:50:05Z</time>
      </trkpt>
      <trkpt lat="40.1538980" lon="-4.6967890">
        <ele>985.6</ele>
        <time>2022-03-01T15:50:06Z</time>
      </trkpt>
      <trkpt lat="40.1539230" lon="-4.6967550">
        <ele>985.9</ele>
        <time>2022-03-01T15:50:07Z</time>
      </trkpt>
      <trkpt lat="40.1539460" lon="-4.6967240">
        <ele>986.3</ele>
        <time>2022-03-01T15:50:08Z</time>
      </trkpt>
      <trkpt lat="40.1539630" lon="-4.6966890">
        <ele>986.6</ele>
        <time>2022-03-01T15:50:09Z</time>
      </trkpt>
      <trkpt lat="40.1539890" lon="-4.6966490">
        <ele>987.1</ele>
        <time>2022-03-01T15:50:10Z</time>
      </trkpt>
      <trkpt lat="40.1540030" lon="-4.6966060">
        <ele>987.4</ele>
        <time>2022-03-01T15:50:11Z</time>
      </trkpt>
      <trkpt lat="40.1540190" lon="-4.6965760">
        <ele>987.7</ele>
        <time>2022-03-01T15:50:12Z</time>
      </trkpt>
      <trkpt lat="40.1540270" lon="-4.6965210">
        <ele>988.2</ele>
        <time>2022-03-01T15:50:13Z</time>
      </trkpt>
      <trkpt lat="40.1540290" lon="-4.6964990">
        <ele>988.4</ele>
        <time>2022-03-01T15:50:14Z</time>
      </trkpt>
      <trkpt lat="40.1540300" lon="-4.6964420">
        <ele>988.8</ele>
        <time>2022-03-01T15:50:15Z</time>
      </trkpt>
      <trkpt lat="40.1540380" lon="-4.6964030">
        <ele>989.1</ele>
        <time>2022-03-01T15:50:16Z</time>
      </trkpt>
      <trkpt lat="40.1540380" lon="-4.6963440">
        <ele>989.6</ele>
        <time>2022-03-01T15:50:17Z</time>
      </trkpt>
      <trkpt lat="40.1540350" lon="-4.6963180">
        <ele>989.8</ele>
        <time>2022-03-01T15:50:18Z</time>
      </trkpt>
      <trkpt lat="40.1540390" lon="-4.6963020">
        <ele>989.9</ele>
        <time>2022-03-01T15:50:19Z</time>
      </trkpt>
      <trkpt lat="40.1540350" lon="-4.6962740">
        <ele>990.1</ele>
        <time>2022-03-01T15:50:20Z</time>
      </trkpt>
      <trkpt lat="40.1540290" lon="-4.6962310">
        <ele>990.5</ele>
        <time>2022-03-01T15:50:21Z</time>
      </trkpt>
      <trkpt lat="40.1540330" lon="-4.6962210">
        <ele>990.5</ele>
        <time>2022-03-01T15:50:22Z</time>
      </trkpt>
      <trkpt lat="40.1540260" lon="-4.6961860">
        <ele>990.8</ele>
        <time>2022-03-01T15:50:23Z</time>
      </trkpt>
      <trkpt lat="40.1540240" lon="-4.6961440">
        <ele>991.1</ele>
        <time>2022-03-01T15:50:24Z</time>
      </trkpt>
      <trkpt lat="40.1540210" lon="-4.6961170">
        <ele>991.3</ele>
        <time>2022-03-01T15:50:25Z</time>
      </trkpt>
      <trkpt lat="40.1540280" lon="-4.6960690">
        <ele>991.6</ele>
        <time>2022-03-01T15:50:26Z</time>
      </trkpt>
      <trkpt lat="40.1540330" lon="-4.6960420">
        <ele>991.8</ele>
        <time>2022-03-01T15:50:27Z</time>
      </trkpt>
      <trkpt lat="40.1540450" lon="-4.6960010">
        <ele>992.0</ele>
        <time>2022-03-01T15:50:28Z</time>
      </trkpt>
      <trkpt lat="40.1540680" lon="-4.6959320">
        <ele>992.4</ele>
        <time>2022-03-01T15:50:29Z</time>
      </trkpt>
      <trkpt lat="40.1540960" lon="-4.6958650">
        <ele>992.7</ele>
        <time>2022-03-01T15:50:30Z</time>
      </trkpt>
      <trkpt lat="40.1541110" lon="-4.6958210">
        <ele>992.9</ele>
        <time>2022-03-01T15:50:31Z</time>
      </trkpt>
      <trkpt lat="40.1541370" lon="-4.6957650">
        <ele>993.2</ele>
        <time>2022-03-01T15:50:32Z</time>
      </trkpt>
      <trkpt lat="40.1541590" lon="-4.6957240">
        <ele>993.3</ele>
        <time>2022-03-01T15:50:33Z</time>
      </trkpt>
      <trkpt lat="40.1541710" lon="-4.6956990">
        <ele>993.4</ele>
        <time>2022-03-01T15:50:34Z</time>
      </trkpt>
      <trkpt lat="40.1541840" lon="-4.6956620">
        <ele>993.5</ele>
        <time>2022-03-01T15:50:35Z</time>
      </trkpt>
      <trkpt lat="40.1541950" lon="-4.6956360">
        <ele>993.5</ele>
        <time>2022-03-01T15:50:36Z</time>
      </trkpt>
      <trkpt lat="40.1542250" lon="-4.6955930">
        <ele>993.7</ele>
        <time>2022-03-01T15:50:37Z</time>
      </trkpt>
      <trkpt lat="40.1542420" lon="-4.6955660">
        <ele>993.7</ele>
        <time>2022-03-01T15:50:38Z</time>
      </trkpt>
      <trkpt lat="40.1542630" lon="-4.6955390">
        <ele>993.8</ele>
        <time>2022-03-01T15:50:39Z</time>
      </trkpt>
      <trkpt lat="40.1542740" lon="-4.6955210">
        <ele>993.9</ele>
        <time>2022-03-01T15:50:40Z</time>
      </trkpt>
      <trkpt lat="40.1542910" lon="-4.6954860">
        <ele>994.0</ele>
        <time>2022-03-01T15:50:41Z</time>
      </trkpt>
      <trkpt lat="40.1543010" lon="-4.6954650">
        <ele>994.1</ele>
        <time>2022-03-01T15:50:42Z</time>
      </trkpt>
      <trkpt lat="40.1543200" lon="-4.6954350">
        <ele>994.2</ele>
        <time>2022-03-01T15:50:43Z</time>
      </trkpt>
      <trkpt lat="40.1543390" lon="-4.6953940">
        <ele>994.3</ele>
        <time>2022-03-01T15:50:44Z</time>
      </trkpt>
      <trkpt lat="40.1543580" lon="-4.6953540">
        <ele>994.5</ele>
        <time>2022-03-01T15:50:45Z</time>
      </trkpt>
      <trkpt lat="40.1543770" lon="-4.6953070">
        <ele>994.7</ele>
        <time>2022-03-01T15:50:46Z</time>
      </trkpt>
      <trkpt lat="40.1544000" lon="-4.6952650">
        <ele>995.0</ele>
        <time>2022-03-01T15:50:47Z</time>
      </trkpt>
      <trkpt lat="40.1544190" lon="-4.6952300">
        <ele>995.2</ele>
        <time>2022-03-01T15:50:48Z</time>
      </trkpt>
      <trkpt lat="40.1544370" lon="-4.6951860">
        <ele>995.4</ele>
        <time>2022-03-01T15:50:49Z</time>
      </trkpt>
      <trkpt lat="40.1544520" lon="-4.6951520">
        <ele>995.6</ele>
        <time>2022-03-01T15:50:50Z</time>
      </trkpt>
      <trkpt lat="40.1544700" lon="-4.6951270">
        <ele>995.8</ele>
        <time>2022-03-01T15:50:51Z</time>
      </trkpt>
      <trkpt lat="40.1544880" lon="-4.6950930">
        <ele>996.0</ele>
        <time>2022-03-01T15:50:52Z</time>
      </trkpt>
      <trkpt lat="40.1545140" lon="-4.6950660">
        <ele>996.2</ele>
        <time>2022-03-01T15:50:53Z</time>
      </trkpt>
      <trkpt lat="40.1545370" lon="-4.6950340">
        <ele>996.5</ele>
        <time>2022-03-01T15:50:54Z</time>
      </trkpt>
      <trkpt lat="40.1545540" lon="-4.6950020">
        <ele>996.7</ele>
        <time>2022-03-01T15:50:55Z</time>
      </trkpt>
      <trkpt lat="40.1545750" lon="-4.6949730">
        <ele>997.0</ele>
        <time>2022-03-01T15:50:56Z</time>
      </trkpt>
      <trkpt lat="40.1545920" lon="-4.6949450">
        <ele>997.2</ele>
        <time>2022-03-01T15:50:57Z</time>
      </trkpt>
      <trkpt lat="40.1546170" lon="-4.6949060">
        <ele>997.5</ele>
        <time>2022-03-01T15:50:58Z</time>
      </trkpt>
      <trkpt lat="40.1546260" lon="-4.6948950">
        <ele>997.6</ele>
        <time>2022-03-01T15:50:59Z</time>
      </trkpt>
      <trkpt lat="40.1546510" lon="-4.6948710">
        <ele>997.8</ele>
        <time>2022-03-01T15:51:00Z</time>
      </trkpt>
      <trkpt lat="40.1546700" lon="-4.6948440">
        <ele>998.0</ele>
        <time>2022-03-01T15:51:01Z</time>
      </trkpt>
      <trkpt lat="40.1546910" lon="-4.6948230">
        <ele>998.2</ele>
        <time>2022-03-01T15:51:02Z</time>
      </trkpt>
      <trkpt lat="40.1547170" lon="-4.6948010">
        <ele>998.5</ele>
        <time>2022-03-01T15:51:03Z</time>
      </trkpt>
      <trkpt lat="40.1547550" lon="-4.6947720">
        <ele>998.8</ele>
        <time>2022-03-01T15:51:04Z</time>
      </trkpt>
      <trkpt lat="40.1547680" lon="-4.6947580">
        <ele>998.9</ele>
        <time>2022-03-01T15:51:05Z</time>
      </trkpt>
      <trkpt lat="40.1548030" lon="-4.6947300">
        <ele>999.3</ele>
        <time>2022-03-01T15:51:06Z</time>
      </trkpt>
      <trkpt lat="40.1548180" lon="-4.6947230">
        <ele>999.4</ele>
        <time>2022-03-01T15:51:07Z</time>
      </trkpt>
      <trkpt lat="40.1548500" lon="-4.6947030">
        <ele>999.6</ele>
        <time>2022-03-01T15:51:08Z</time>
      </trkpt>
      <trkpt lat="40.1548790" lon="-4.6946730">
        <ele>999.9</ele>
        <time>2022-03-01T15:51:09Z</time>
      </trkpt>
      <trkpt lat="40.1549080" lon="-4.6946460">
        <ele>1000.1</ele>
        <time>2022-03-01T15:51:10Z</time>
      </trkpt>
      <trkpt lat="40.1549380" lon="-4.6946270">
        <ele>1000.3</ele>
        <time>2022-03-01T15:51:11Z</time>
      </trkpt>
      <trkpt lat="40.1549630" lon="-4.6945970">
        <ele>1000.5</ele>
        <time>2022-03-01T15:51:12Z</time>
      </trkpt>
      <trkpt lat="40.1549970" lon="-4.6945690">
        <ele>1000.7</ele>
        <time>2022-03-01T15:51:13Z</time>
      </trkpt>
      <trkpt lat="40.1550350" lon="-4.6945460">
        <ele>1001.0</ele>
        <time>2022-03-01T15:51:14Z</time>
      </trkpt>
      <trkpt lat="40.1550750" lon="-4.6945250">
        <ele>1001.2</ele>
        <time>2022-03-01T15:51:15Z</time>
      </trkpt>
      <trkpt lat="40.1551080" lon="-4.6944990">
        <ele>1001.4</ele>
        <time>2022-03-01T15:51:16Z</time>
      </trkpt>
      <trkpt lat="40.1551420" lon="-4.6944720">
        <ele>1001.7</ele>
        <time>2022-03-01T15:51:17Z</time>
      </trkpt>
      <trkpt lat="40.1551800" lon="-4.6944500">
        <ele>1001.9</ele>
        <time>2022-03-01T15:51:18Z</time>
      </trkpt>
      <trkpt lat="40.1552090" lon="-4.6944220">
        <ele>1002.1</ele>
        <time>2022-03-01T15:51:19Z</time>
      </trkpt>
      <trkpt lat="40.1552390" lon="-4.6943930">
        <ele>1002.3</ele>
        <time>2022-03-01T15:51:20Z</time>
      </trkpt>
      <trkpt lat="40.1552740" lon="-4.6943670">
        <ele>1002.6</ele>
        <time>2022-03-01T15:51:21Z</time>
      </trkpt>
      <trkpt lat="40.1553040" lon="-4.6943520">
        <ele>1002.8</ele>
        <time>2022-03-01T15:51:22Z</time>
      </trkpt>
      <trkpt lat="40.1553260" lon="-4.6943290">
        <ele>1003.0</ele>
        <time>2022-03-01T15:51:23Z</time>
      </trkpt>
      <trkpt lat="40.1553560" lon="-4.6943000">
        <ele>1003.3</ele>
        <time>2022-03-01T15:51:24Z</time>
      </trkpt>
      <trkpt lat="40.1553860" lon="-4.6942760">
        <ele>1003.6</ele>
        <time>2022-03-01T15:51:25Z</time>
      </trkpt>
      <trkpt lat="40.1554140" lon="-4.6942640">
        <ele>1003.8</ele>
        <time>2022-03-01T15:51:26Z</time>
      </trkpt>
      <trkpt lat="40.1554420" lon="-4.6942520">
        <ele>1004.0</ele>
        <time>2022-03-01T15:51:27Z</time>
      </trkpt>
      <trkpt lat="40.1554780" lon="-4.6942300">
        <ele>1004.4</ele>
        <time>2022-03-01T15:51:28Z</time>
      </trkpt>
      <trkpt lat="40.1554920" lon="-4.6942260">
        <ele>1004.5</ele>
        <time>2022-03-01T15:51:29Z</time>
      </trkpt>
      <trkpt lat="40.1555120" lon="-4.6942000">
        <ele>1004.8</ele>
        <time>2022-03-01T15:51:30Z</time>
      </trkpt>
      <trkpt lat="40.1555470" lon="-4.6941900">
        <ele>1005.1</ele>
        <time>2022-03-01T15:51:31Z</time>
      </trkpt>
      <trkpt lat="40.1555700" lon="-4.6941850">
        <ele>1005.3</ele>
        <time>2022-03-01T15:51:32Z</time>
      </trkpt>
      <trkpt lat="40.1556160" lon="-4.6941770">
        <ele>1005.7</ele>
        <time>2022-03-01T15:51:34Z</time>
      </trkpt>
      <trkpt lat="40.1556570" lon="-4.6941640">
        <ele>1006.1</ele>
        <time>2022-03-01T15:51:35Z</time>
      </trkpt>
      <trkpt lat="40.1556850" lon="-4.6941610">
        <ele>1006.3</ele>
        <time>2022-03-01T15:51:36Z</time>
      </trkpt>
      <trkpt lat="40.1557220" lon="-4.6941720">
        <ele>1006.5</ele>
        <time>2022-03-01T15:51:37Z</time>
      </trkpt>
      <trkpt lat="40.1557350" lon="-4.6941760">
        <ele>1006.6</ele>
        <time>2022-03-01T15:51:38Z</time>
      </trkpt>
      <trkpt lat="40.1557670" lon="-4.6942070">
        <ele>1006.8</ele>
        <time>2022-03-01T15:51:39Z</time>
      </trkpt>
      <trkpt lat="40.1557750" lon="-4.6942240">
        <ele>1006.9</ele>
        <time>2022-03-01T15:51:40Z</time>
      </trkpt>
      <trkpt lat="40.1557930" lon="-4.6942540">
        <ele>1007.0</ele>
        <time>2022-03-01T15:51:41Z</time>
      </trkpt>
      <trkpt lat="40.1557960" lon="-4.6942660">
        <ele>1007.0</ele>
        <time>2022-03-01T15:51:42Z</time>
      </trkpt>
      <trkpt lat="40.1558040" lon="-4.6943020">
        <ele>1007.1</ele>
        <time>2022-03-01T15:51:43Z</time>
      </trkpt>
      <trkpt lat="40.1558070" lon="-4.6943390">
        <ele>1007.1</ele>
        <time>2022-03-01T15:51:44Z</time>
      </trkpt>
      <trkpt lat="40.1558010" lon="-4.6943770">
        <ele>1007.1</ele>
        <time>2022-03-01T15:51:45Z</time>
      </trkpt>
      <trkpt lat="40.1557890" lon="-4.6944180">
        <ele>1007.1</ele>
        <time>2022-03-01T15:51:46Z</time>
      </trkpt>
      <trkpt lat="40.1557840" lon="-4.6944300">
        <ele>1007.1</ele>
        <time>2022-03-01T15:51:47Z</time>
      </trkpt>
      <trkpt lat="40.1557610" lon="-4.6944620">
        <ele>1007.1</ele>
        <time>2022-03-01T15:51:48Z</time>
      </trkpt>
      <trkpt lat="40.1557490" lon="-4.6944710">
        <ele>1007.2</ele>
        <time>2022-03-01T15:51:49Z</time>
      </trkpt>
      <trkpt lat="40.1557150" lon="-4.6944930">
        <ele>1007.2</ele>
        <time>2022-03-01T15:51:50Z</time>
      </trkpt>
      <trkpt lat="40.1556750" lon="-4.6945240">
        <ele>1007.2</ele>
        <time>2022-03-01T15:51:51Z</time>
      </trkpt>
      <trkpt lat="40.1556270" lon="-4.6945410">
        <ele>1007.2</ele>
        <time>2022-03-01T15:51:52Z</time>
      </trkpt>
      <trkpt lat="40.1555770" lon="-4.6945490">
        <ele>1007.2</ele>
        <time>2022-03-01T15:51:53Z</time>
      </trkpt>
      <trkpt lat="40.1555290" lon="-4.6945720">
        <ele>1007.3</ele>
        <time>2022-03-01T15:51:54Z</time>
      </trkpt>
      <trkpt lat="40.1554870" lon="-4.6945850">
        <ele>1007.3</ele>
        <time>2022-03-01T15:51:55Z</time>
      </trkpt>
      <trkpt lat="40.1554550" lon="-4.6945850">
        <ele>1007.4</ele>
        <time>2022-03-01T15:51:56Z</time>
      </trkpt>
      <trkpt lat="40.1554100" lon="-4.6946050">
        <ele>1007.5</ele>
        <time>2022-03-01T15:51:57Z</time>
      </trkpt>
      <trkpt lat="40.1553540" lon="-4.6946360">
        <ele>1007.6</ele>
        <time>2022-03-01T15:51:58Z</time>
      </trkpt>
      <trkpt lat="40.1552980" lon="-4.6946680">
        <ele>1007.9</ele>
        <time>2022-03-01T15:51:59Z</time>
      </trkpt>
      <trkpt lat="40.1552400" lon="-4.6947140">
        <ele>1008.1</ele>
        <time>2022-03-01T15:52:00Z</time>
      </trkpt>
      <trkpt lat="40.1551970" lon="-4.6947540">
        <ele>1008.4</ele>
        <time>2022-03-01T15:52:01Z</time>
      </trkpt>
      <trkpt lat="40.1551450" lon="-4.6948060">
        <ele>1008.7</ele>
        <time>2022-03-01T15:52:02Z</time>
      </trkpt>
      <trkpt lat="40.1551060" lon="-4.6948570">
        <ele>1008.9</ele>
        <time>2022-03-01T15:52:03Z</time>
      </trkpt>
      <trkpt lat="40.1550740" lon="-4.6949100">
        <ele>1009.1</ele>
        <time>2022-03-01T15:52:04Z</time>
      </trkpt>
      <trkpt lat="40.1550540" lon="-4.6949960">
        <ele>1009.2</ele>
        <time>2022-03-01T15:52:05Z</time>
      </trkpt>
      <trkpt lat="40.1550520" lon="-4.6950560">
        <ele>1009.3</ele>
        <time>2022-03-01T15:52:06Z</time>
      </trkpt>
      <trkpt lat="40.1550500" lon="-4.6951070">
        <ele>1009.3</ele>
        <time>2022-03-01T15:52:07Z</time>
      </trkpt>
      <trkpt lat="40.1550440" lon="-4.6951620">
        <ele>1009.4</ele>
        <time>2022-03-01T15:52:08Z</time>
      </trkpt>
      <trkpt lat="40.1550330" lon="-4.6952130">
        <ele>1009.4</ele>
        <time>2022-03-01T15:52:09Z</time>
      </trkpt>
      <trkpt lat="40.1550260" lon="-4.6952560">
        <ele>1009.5</ele>
        <time>2022-03-01T15:52:10Z</time>
      </trkpt>
      <trkpt lat="40.1550210" lon="-4.6953030">
        <ele>1009.5</ele>
        <time>2022-03-01T15:52:11Z</time>
      </trkpt>
      <trkpt lat="40.1550240" lon="-4.6953570">
        <ele>1009.6</ele>
        <time>2022-03-01T15:52:12Z</time>
      </trkpt>
      <trkpt lat="40.1550290" lon="-4.6953930">
        <ele>1009.7</ele>
        <time>2022-03-01T15:52:13Z</time>
      </trkpt>
      <trkpt lat="40.1550260" lon="-4.6954280">
        <ele>1009.7</ele>
        <time>2022-03-01T15:52:14Z</time>
      </trkpt>
      <trkpt lat="40.1550300" lon="-4.6954650">
        <ele>1009.8</ele>
        <time>2022-03-01T15:52:15Z</time>
      </trkpt>
      <trkpt lat="40.1550290" lon="-4.6955270">
        <ele>1010.0</ele>
        <time>2022-03-01T15:52:16Z</time>
      </trkpt>
      <trkpt lat="40.1550170" lon="-4.6956380">
        <ele>1010.4</ele>
        <time>2022-03-01T15:52:17Z</time>
      </trkpt>
      <trkpt lat="40.1550120" lon="-4.6956860">
        <ele>1010.6</ele>
        <time>2022-03-01T15:52:18Z</time>
      </trkpt>
      <trkpt lat="40.1550020" lon="-4.6957350">
        <ele>1010.8</ele>
        <time>2022-03-01T15:52:19Z</time>
      </trkpt>
      <trkpt lat="40.1549970" lon="-4.6957570">
        <ele>1010.9</ele>
        <time>2022-03-01T15:52:20Z</time>
      </trkpt>
      <trkpt lat="40.1549910" lon="-4.6957970">
        <ele>1011.1</ele>
        <time>2022-03-01T15:52:21Z</time>
      </trkpt>
      <trkpt lat="40.1549920" lon="-4.6958090">
        <ele>1011.2</ele>
        <time>2022-03-01T15:52:22Z</time>
      </trkpt>
      <trkpt lat="40.1549800" lon="-4.6958650">
        <ele>1011.5</ele>
        <time>2022-03-01T15:52:23Z</time>
      </trkpt>
      <trkpt lat="40.1549730" lon="-4.6959050">
        <ele>1011.7</ele>
        <time>2022-03-01T15:52:24Z</time>
      </trkpt>
      <trkpt lat="40.1549640" lon="-4.6959490">
        <ele>1011.9</ele>
        <time>2022-03-01T15:52:25Z</time>
      </trkpt>
      <trkpt lat="40.1549610" lon="-4.6959700">
        <ele>1012.0</ele>
        <time>2022-03-01T15:52:26Z</time>
      </trkpt>
      <trkpt lat="40.1549660" lon="-4.6959510">
        <ele>1012.2</ele>
        <time>2022-03-01T15:52:27Z</time>
      </trkpt>
      <trkpt lat="40.1549590" lon="-4.6959730">
        <ele>1012.3</ele>
        <time>2022-03-01T15:52:28Z</time>
      </trkpt>
      <trkpt lat="40.1549480" lon="-4.6960050">
        <ele>1012.5</ele>
        <time>2022-03-01T15:52:29Z</time>
      </trkpt>
      <trkpt lat="40.1549310" lon="-4.6960430">
        <ele>1012.7</ele>
        <time>2022-03-01T15:52:30Z</time>
      </trkpt>
      <trkpt lat="40.1549220" lon="-4.6960600">
        <ele>1012.9</ele>
        <time>2022-03-01T15:52:31Z</time>
      </trkpt>
      <trkpt lat="40.1549150" lon="-4.6960830">
        <ele>1013.0</ele>
        <time>2022-03-01T15:52:32Z</time>
      </trkpt>
      <trkpt lat="40.1549080" lon="-4.6961060">
        <ele>1013.1</ele>
        <time>2022-03-01T15:52:33Z</time>
      </trkpt>
      <trkpt lat="40.1549020" lon="-4.6961290">
        <ele>1013.3</ele>
        <time>2022-03-01T15:52:34Z</time>
      </trkpt>
      <trkpt lat="40.1549080" lon="-4.6961340">
        <ele>1013.4</ele>
        <time>2022-03-01T15:52:35Z</time>
      </trkpt>
      <trkpt lat="40.1549050" lon="-4.6961670">
        <ele>1013.6</ele>
        <time>2022-03-01T15:52:36Z</time>
      </trkpt>
      <trkpt lat="40.1549120" lon="-4.6962180">
        <ele>1013.9</ele>
        <time>2022-03-01T15:52:37Z</time>
      </trkpt>
      <trkpt lat="40.1549110" lon="-4.6962380">
        <ele>1014.0</ele>
        <time>2022-03-01T15:52:38Z</time>
      </trkpt>
      <trkpt lat="40.1548970" lon="-4.6962790">
        <ele>1014.3</ele>
        <time>2022-03-01T15:52:39Z</time>
      </trkpt>
      <trkpt lat="40.1548940" lon="-4.6962950">
        <ele>1014.4</ele>
        <time>2022-03-01T15:52:40Z</time>
      </trkpt>
      <trkpt lat="40.1548820" lon="-4.6963320">
        <ele>1014.6</ele>
        <time>2022-03-01T15:52:41Z</time>
      </trkpt>
      <trkpt lat="40.1548740" lon="-4.6963790">
        <ele>1015.0</ele>
        <time>2022-03-01T15:52:42Z</time>
      </trkpt>
      <trkpt lat="40.1548700" lon="-4.6964200">
        <ele>1015.2</ele>
        <time>2022-03-01T15:52:43Z</time>
      </trkpt>
      <trkpt lat="40.1548630" lon="-4.6964590">
        <ele>1015.5</ele>
        <time>2022-03-01T15:52:44Z</time>
      </trkpt>
      <trkpt lat="40.1548580" lon="-4.6964940">
        <ele>1015.7</ele>
        <time>2022-03-01T15:52:45Z</time>
      </trkpt>
      <trkpt lat="40.1548580" lon="-4.6965110">
        <ele>1015.8</ele>
        <time>2022-03-01T15:52:46Z</time>
      </trkpt>
      <trkpt lat="40.1548500" lon="-4.6965460">
        <ele>1016.0</ele>
        <time>2022-03-01T15:52:47Z</time>
      </trkpt>
      <trkpt lat="40.1548340" lon="-4.6965910">
        <ele>1016.4</ele>
        <time>2022-03-01T15:52:48Z</time>
      </trkpt>
      <trkpt lat="40.1548270" lon="-4.6966080">
        <ele>1016.5</ele>
        <time>2022-03-01T15:52:49Z</time>
      </trkpt>
      <trkpt lat="40.1548100" lon="-4.6966450">
        <ele>1016.8</ele>
        <time>2022-03-01T15:52:50Z</time>
      </trkpt>
      <trkpt lat="40.1547990" lon="-4.6966730">
        <ele>1017.0</ele>
        <time>2022-03-01T15:52:51Z</time>
      </trkpt>
      <trkpt lat="40.1547910" lon="-4.6967220">
        <ele>1017.4</ele>
        <time>2022-03-01T15:52:52Z</time>
      </trkpt>
      <trkpt lat="40.1547860" lon="-4.6967390">
        <ele>1017.5</ele>
        <time>2022-03-01T15:52:53Z</time>
      </trkpt>
      <trkpt lat="40.1547670" lon="-4.6967840">
        <ele>1017.8</ele>
        <time>2022-03-01T15:52:54Z</time>
      </trkpt>
      <trkpt lat="40.1547580" lon="-4.6968070">
        <ele>1018.0</ele>
        <time>2022-03-01T15:52:55Z</time>
      </trkpt>
      <trkpt lat="40.1547430" lon="-4.6968360">
        <ele>1018.2</ele>
        <time>2022-03-01T15:52:56Z</time>
      </trkpt>
      <trkpt lat="40.1547340" lon="-4.6968520">
        <ele>1018.3</ele>
        <time>2022-03-01T15:52:57Z</time>
      </trkpt>
      <trkpt lat="40.1547020" lon="-4.6968820">
        <ele>1018.7</ele>
        <time>2022-03-01T15:52:58Z</time>
      </trkpt>
      <trkpt lat="40.1546880" lon="-4.6968940">
        <ele>1018.8</ele>
        <time>2022-03-01T15:52:59Z</time>
      </trkpt>
      <trkpt lat="40.1546650" lon="-4.6969270">
        <ele>1019.1</ele>
        <time>2022-03-01T15:53:00Z</time>
      </trkpt>
      <trkpt lat="40.1546520" lon="-4.6969440">
        <ele>1019.2</ele>
        <time>2022-03-01T15:53:01Z</time>
      </trkpt>
      <trkpt lat="40.1546320" lon="-4.6969690">
        <ele>1019.4</ele>
        <time>2022-03-01T15:53:02Z</time>
      </trkpt>
      <trkpt lat="40.1546090" lon="-4.6970140">
        <ele>1019.7</ele>
        <time>2022-03-01T15:53:03Z</time>
      </trkpt>
      <trkpt lat="40.1545870" lon="-4.6970680">
        <ele>1020.0</ele>
        <time>2022-03-01T15:53:04Z</time>
      </trkpt>
      <trkpt lat="40.1545780" lon="-4.6970920">
        <ele>1020.1</ele>
        <time>2022-03-01T15:53:05Z</time>
      </trkpt>
      <trkpt lat="40.1545590" lon="-4.6971400">
        <ele>1020.3</ele>
        <time>2022-03-01T15:53:06Z</time>
      </trkpt>
      <trkpt lat="40.1545480" lon="-4.6971570">
        <ele>1020.4</ele>
        <time>2022-03-01T15:53:07Z</time>
      </trkpt>
      <trkpt lat="40.1545200" lon="-4.6972000">
        <ele>1020.6</ele>
        <time>2022-03-01T15:53:08Z</time>
      </trkpt>
      <trkpt lat="40.1545070" lon="-4.6972210">
        <ele>1020.7</ele>
        <time>2022-03-01T15:53:09Z</time>
      </trkpt>
      <trkpt lat="40.1544970" lon="-4.6972680">
        <ele>1020.9</ele>
        <time>2022-03-01T15:53:10Z</time>
      </trkpt>
      <trkpt lat="40.1544870" lon="-4.6972900">
        <ele>1021.0</ele>
        <time>2022-03-01T15:53:11Z</time>
      </trkpt>
      <trkpt lat="40.1544610" lon="-4.6973250">
        <ele>1021.1</ele>
        <time>2022-03-01T15:53:12Z</time>
      </trkpt>
      <trkpt lat="40.1544500" lon="-4.6973460">
        <ele>1021.2</ele>
        <time>2022-03-01T15:53:13Z</time>
      </trkpt>
      <trkpt lat="40.1544360" lon="-4.6973810">
        <ele>1021.3</ele>
        <time>2022-03-01T15:53:14Z</time>
      </trkpt>
      <trkpt lat="40.1544110" lon="-4.6974240">
        <ele>1021.5</ele>
        <time>2022-03-01T15:53:15Z</time>
      </trkpt>
      <trkpt lat="40.1544000" lon="-4.6974440">
        <ele>1021.6</ele>
        <time>2022-03-01T15:53:16Z</time>
      </trkpt>
      <trkpt lat="40.1543880" lon="-4.6974840">
        <ele>1021.7</ele>
        <time>2022-03-01T15:53:17Z</time>
      </trkpt>
      <trkpt lat="40.1543730" lon="-4.6975180">
        <ele>1021.8</ele>
        <time>2022-03-01T15:53:18Z</time>
      </trkpt>
      <trkpt lat="40.1543590" lon="-4.6975550">
        <ele>1021.9</ele>
        <time>2022-03-01T15:53:19Z</time>
      </trkpt>
      <trkpt lat="40.1543440" lon="-4.6975870">
        <ele>1022.1</ele>
        <time>2022-03-01T15:53:20Z</time>
      </trkpt>
      <trkpt lat="40.1543200" lon="-4.6976250">
        <ele>1022.3</ele>
        <time>2022-03-01T15:53:21Z</time>
      </trkpt>
      <trkpt lat="40.1543110" lon="-4.6976370">
        <ele>1022.3</ele>
        <time>2022-03-01T15:53:22Z</time>
      </trkpt>
      <trkpt lat="40.1542730" lon="-4.6976760">
        <ele>1022.6</ele>
        <time>2022-03-01T15:53:23Z</time>
      </trkpt>
      <trkpt lat="40.1542580" lon="-4.6976960">
        <ele>1022.7</ele>
        <time>2022-03-01T15:53:24Z</time>
      </trkpt>
      <trkpt lat="40.1542520" lon="-4.6977350">
        <ele>1022.8</ele>
        <time>2022-03-01T15:53:25Z</time>
      </trkpt>
      <trkpt lat="40.1542200" lon="-4.6977750">
        <ele>1023.1</ele>
        <time>2022-03-01T15:53:26Z</time>
      </trkpt>
      <trkpt lat="40.1542050" lon="-4.6977950">
        <ele>1023.2</ele>
        <time>2022-03-01T15:53:27Z</time>
      </trkpt>
      <trkpt lat="40.1541770" lon="-4.6978380">
        <ele>1023.4</ele>
        <time>2022-03-01T15:53:28Z</time>
      </trkpt>
      <trkpt lat="40.1541670" lon="-4.6978580">
        <ele>1023.5</ele>
        <time>2022-03-01T15:53:29Z</time>
      </trkpt>
      <trkpt lat="40.1541440" lon="-4.6978930">
        <ele>1023.7</ele>
        <time>2022-03-01T15:53:30Z</time>
      </trkpt>
      <trkpt lat="40.1541280" lon="-4.6979300">
        <ele>1023.9</ele>
        <time>2022-03-01T15:53:31Z</time>
      </trkpt>
      <trkpt lat="40.1541110" lon="-4.6979590">
        <ele>1024.0</ele>
        <time>2022-03-01T15:53:32Z</time>
      </trkpt>
      <trkpt lat="40.1540820" lon="-4.6979780">
        <ele>1024.2</ele>
        <time>2022-03-01T15:53:33Z</time>
      </trkpt>
      <trkpt lat="40.1540740" lon="-4.6980150">
        <ele>1024.3</ele>
        <time>2022-03-01T15:53:34Z</time>
      </trkpt>
      <trkpt lat="40.1540650" lon="-4.6980500">
        <ele>1024.5</ele>
        <time>2022-03-01T15:53:35Z</time>
      </trkpt>
      <trkpt lat="40.1540480" lon="-4.6980810">
        <ele>1024.6</ele>
        <time>2022-03-01T15:53:36Z</time>
      </trkpt>
      <trkpt lat="40.1540240" lon="-4.6981380">
        <ele>1024.9</ele>
        <time>2022-03-01T15:53:37Z</time>
      </trkpt>
      <trkpt lat="40.1540250" lon="-4.6981600">
        <ele>1025.0</ele>
        <time>2022-03-01T15:53:38Z</time>
      </trkpt>
      <trkpt lat="40.1540190" lon="-4.6982010">
        <ele>1025.2</ele>
        <time>2022-03-01T15:53:40Z</time>
      </trkpt>
      <trkpt lat="40.1539990" lon="-4.6982210">
        <ele>1025.3</ele>
        <time>2022-03-01T15:53:41Z</time>
      </trkpt>
      <trkpt lat="40.1539870" lon="-4.6982340">
        <ele>1025.4</ele>
        <time>2022-03-01T15:53:42Z</time>
      </trkpt>
      <trkpt lat="40.1539580" lon="-4.6982700">
        <ele>1025.6</ele>
        <time>2022-03-01T15:53:43Z</time>
      </trkpt>
      <trkpt lat="40.1539450" lon="-4.6982950">
        <ele>1025.7</ele>
        <time>2022-03-01T15:53:44Z</time>
      </trkpt>
      <trkpt lat="40.1539310" lon="-4.6983330">
        <ele>1025.9</ele>
        <time>2022-03-01T15:53:45Z</time>
      </trkpt>
      <trkpt lat="40.1539240" lon="-4.6983570">
        <ele>1026.0</ele>
        <time>2022-03-01T15:53:46Z</time>
      </trkpt>
      <trkpt lat="40.1539080" lon="-4.6984110">
        <ele>1026.2</ele>
        <time>2022-03-01T15:53:47Z</time>
      </trkpt>
      <trkpt lat="40.1539050" lon="-4.6984380">
        <ele>1026.4</ele>
        <time>2022-03-01T15:53:48Z</time>
      </trkpt>
      <trkpt lat="40.1538860" lon="-4.6984880">
        <ele>1026.6</ele>
        <time>2022-03-01T15:53:49Z</time>
      </trkpt>
      <trkpt lat="40.1538620" lon="-4.6985260">
        <ele>1026.9</ele>
        <time>2022-03-01T15:53:50Z</time>
      </trkpt>
      <trkpt lat="40.1538420" lon="-4.6985560">
        <ele>1027.1</ele>
        <time>2022-03-01T15:53:51Z</time>
      </trkpt>
      <trkpt lat="40.1538270" lon="-4.6986060">
        <ele>1027.4</ele>
        <time>2022-03-01T15:53:52Z</time>
      </trkpt>
      <trkpt lat="40.1538040" lon="-4.6986720">
        <ele>1027.8</ele>
        <time>2022-03-01T15:53:53Z</time>
      </trkpt>
      <trkpt lat="40.1537890" lon="-4.6987150">
        <ele>1028.0</ele>
        <time>2022-03-01T15:53:54Z</time>
      </trkpt>
      <trkpt lat="40.1537680" lon="-4.6987530">
        <ele>1028.3</ele>
        <time>2022-03-01T15:53:55Z</time>
      </trkpt>
      <trkpt lat="40.1537450" lon="-4.6987920">
        <ele>1028.6</ele>
        <time>2022-03-01T15:53:56Z</time>
      </trkpt>
      <trkpt lat="40.1537200" lon="-4.6988300">
        <ele>1028.9</ele>
        <time>2022-03-01T15:53:57Z</time>
      </trkpt>
      <trkpt lat="40.1536930" lon="-4.6988790">
        <ele>1029.3</ele>
        <time>2022-03-01T15:53:58Z</time>
      </trkpt>
      <trkpt lat="40.1536780" lon="-4.6989200">
        <ele>1029.6</ele>
        <time>2022-03-01T15:53:59Z</time>
      </trkpt>
      <trkpt lat="40.1536510" lon="-4.6989670">
        <ele>1030.0</ele>
        <time>2022-03-01T15:54:00Z</time>
      </trkpt>
      <trkpt lat="40.1536250" lon="-4.6990170">
        <ele>1030.4</ele>
        <time>2022-03-01T15:54:01Z</time>
      </trkpt>
      <trkpt lat="40.1536040" lon="-4.6990680">
        <ele>1030.7</ele>
        <time>2022-03-01T15:54:02Z</time>
      </trkpt>
      <trkpt lat="40.1535820" lon="-4.6991210">
        <ele>1031.1</ele>
        <time>2022-03-01T15:54:03Z</time>
      </trkpt>
      <trkpt lat="40.1535590" lon="-4.6991700">
        <ele>1031.5</ele>
        <time>2022-03-01T15:54:04Z</time>
      </trkpt>
      <trkpt lat="40.1535370" lon="-4.6992190">
        <ele>1031.8</ele>
        <time>2022-03-01T15:54:05Z</time>
      </trkpt>
      <trkpt lat="40.1535090" lon="-4.6992660">
        <ele>1032.2</ele>
        <time>2022-03-01T15:54:06Z</time>
      </trkpt>
      <trkpt lat="40.1534820" lon="-4.6993120">
        <ele>1032.5</ele>
        <time>2022-03-01T15:54:07Z</time>
      </trkpt>
      <trkpt lat="40.1534630" lon="-4.6993530">
        <ele>1032.8</ele>
        <time>2022-03-01T15:54:08Z</time>
      </trkpt>
      <trkpt lat="40.1534330" lon="-4.6994130">
        <ele>1033.3</ele>
        <time>2022-03-01T15:54:09Z</time>
      </trkpt>
      <trkpt lat="40.1534100" lon="-4.6994630">
        <ele>1033.6</ele>
        <time>2022-03-01T15:54:10Z</time>
      </trkpt>
      <trkpt lat="40.1533820" lon="-4.6995170">
        <ele>1034.0</ele>
        <time>2022-03-01T15:54:11Z</time>
      </trkpt>
      <trkpt lat="40.1533580" lon="-4.6995670">
        <ele>1034.4</ele>
        <time>2022-03-01T15:54:12Z</time>
      </trkpt>
      <trkpt lat="40.1533280" lon="-4.6996030">
        <ele>1034.7</ele>
        <time>2022-03-01T15:54:13Z</time>
      </trkpt>
      <trkpt lat="40.1532900" lon="-4.6996550">
        <ele>1035.2</ele>
        <time>2022-03-01T15:54:14Z</time>
      </trkpt>
      <trkpt lat="40.1532510" lon="-4.6997070">
        <ele>1035.6</ele>
        <time>2022-03-01T15:54:15Z</time>
      </trkpt>
      <trkpt lat="40.1532110" lon="-4.6997630">
        <ele>1036.1</ele>
        <time>2022-03-01T15:54:16Z</time>
      </trkpt>
      <trkpt lat="40.1531750" lon="-4.6998140">
        <ele>1036.6</ele>
        <time>2022-03-01T15:54:17Z</time>
      </trkpt>
      <trkpt lat="40.1531360" lon="-4.6998620">
        <ele>1037.1</ele>
        <time>2022-03-01T15:54:18Z</time>
      </trkpt>
      <trkpt lat="40.1531090" lon="-4.6999090">
        <ele>1037.5</ele>
        <time>2022-03-01T15:54:19Z</time>
      </trkpt>
      <trkpt lat="40.1530880" lon="-4.6999510">
        <ele>1037.9</ele>
        <time>2022-03-01T15:54:20Z</time>
      </trkpt>
      <trkpt lat="40.1530570" lon="-4.7000440">
        <ele>1038.5</ele>
        <time>2022-03-01T15:54:21Z</time>
      </trkpt>
      <trkpt lat="40.1530420" lon="-4.7000990">
        <ele>1038.9</ele>
        <time>2022-03-01T15:54:22Z</time>
      </trkpt>
      <trkpt lat="40.1530220" lon="-4.7001380">
        <ele>1039.2</ele>
        <time>2022-03-01T15:54:23Z</time>
      </trkpt>
      <trkpt lat="40.1530040" lon="-4.7001870">
        <ele>1039.5</ele>
        <time>2022-03-01T15:54:24Z</time>
      </trkpt>
      <trkpt lat="40.1529950" lon="-4.7002300">
        <ele>1039.7</ele>
        <time>2022-03-01T15:54:25Z</time>
      </trkpt>
      <trkpt lat="40.1529770" lon="-4.7002920">
        <ele>1040.0</ele>
        <time>2022-03-01T15:54:26Z</time>
      </trkpt>
      <trkpt lat="40.1529580" lon="-4.7003310">
        <ele>1040.2</ele>
        <time>2022-03-01T15:54:27Z</time>
      </trkpt>
      <trkpt lat="40.1529510" lon="-4.7003840">
        <ele>1040.4</ele>
        <time>2022-03-01T15:54:28Z</time>
      </trkpt>
      <trkpt lat="40.1529430" lon="-4.7004250">
        <ele>1040.6</ele>
        <time>2022-03-01T15:54:29Z</time>
      </trkpt>
      <trkpt lat="40.1529350" lon="-4.7004760">
        <ele>1040.8</ele>
        <time>2022-03-01T15:54:30Z</time>
      </trkpt>
      <trkpt lat="40.1529420" lon="-4.7004890">
        <ele>1040.9</ele>
        <time>2022-03-01T15:54:31Z</time>
      </trkpt>
      <trkpt lat="40.1529420" lon="-4.7005080">
        <ele>1040.9</ele>
        <time>2022-03-01T15:54:32Z</time>
      </trkpt>
      <trkpt lat="40.1529420" lon="-4.7005270">
        <ele>1041.0</ele>
        <time>2022-03-01T15:54:33Z</time>
      </trkpt>
      <trkpt lat="40.1529350" lon="-4.7005650">
        <ele>1041.1</ele>
        <time>2022-03-01T15:54:34Z</time>
      </trkpt>
      <trkpt lat="40.1529340" lon="-4.7005780">
        <ele>1041.1</ele>
        <time>2022-03-01T15:54:35Z</time>
      </trkpt>
      <trkpt lat="40.1529410" lon="-4.7006220">
        <ele>1041.3</ele>
        <time>2022-03-01T15:54:36Z</time>
      </trkpt>
      <trkpt lat="40.1529430" lon="-4.7006360">
        <ele>1041.3</ele>
        <time>2022-03-01T15:54:37Z</time>
      </trkpt>
      <trkpt lat="40.1529470" lon="-4.7006800">
        <ele>1041.4</ele>
        <time>2022-03-01T15:54:38Z</time>
      </trkpt>
      <trkpt lat="40.1529480" lon="-4.7006990">
        <ele>1041.5</ele>
        <time>2022-03-01T15:54:39Z</time>
      </trkpt>
      <trkpt lat="40.1529550" lon="-4.7007450">
        <ele>1041.6</ele>
        <time>2022-03-01T15:54:40Z</time>
      </trkpt>
      <trkpt lat="40.1529560" lon="-4.7007630">
        <ele>1041.6</ele>
        <time>2022-03-01T15:54:41Z</time>
      </trkpt>
      <trkpt lat="40.1529560" lon="-4.7007990">
        <ele>1041.7</ele>
        <time>2022-03-01T15:54:42Z</time>
      </trkpt>
      <trkpt lat="40.1529540" lon="-4.7008500">
        <ele>1041.8</ele>
        <time>2022-03-01T15:54:43Z</time>
      </trkpt>
      <trkpt lat="40.1529550" lon="-4.7008680">
        <ele>1041.8</ele>
        <time>2022-03-01T15:54:44Z</time>
      </trkpt>
      <trkpt lat="40.1529640" lon="-4.7009050">
        <ele>1041.9</ele>
        <time>2022-03-01T15:54:45Z</time>
      </trkpt>
      <trkpt lat="40.1529470" lon="-4.7009510">
        <ele>1042.0</ele>
        <time>2022-03-01T15:54:46Z</time>
      </trkpt>
      <trkpt lat="40.1529590" lon="-4.7009930">
        <ele>1042.1</ele>
        <time>2022-03-01T15:54:47Z</time>
      </trkpt>
      <trkpt lat="40.1529710" lon="-4.7010260">
        <ele>1042.2</ele>
        <time>2022-03-01T15:54:48Z</time>
      </trkpt>
      <trkpt lat="40.1529680" lon="-4.7010720">
        <ele>1042.3</ele>
        <time>2022-03-01T15:54:49Z</time>
      </trkpt>
      <trkpt lat="40.1529490" lon="-4.7011380">
        <ele>1042.4</ele>
        <time>2022-03-01T15:54:50Z</time>
      </trkpt>
      <trkpt lat="40.1529250" lon="-4.7012070">
        <ele>1042.6</ele>
        <time>2022-03-01T15:54:51Z</time>
      </trkpt>
      <trkpt lat="40.1528940" lon="-4.7012880">
        <ele>1042.9</ele>
        <time>2022-03-01T15:54:52Z</time>
      </trkpt>
      <trkpt lat="40.1528700" lon="-4.7013660">
        <ele>1043.2</ele>
        <time>2022-03-01T15:54:53Z</time>
      </trkpt>
      <trkpt lat="40.1528440" lon="-4.7014390">
        <ele>1043.5</ele>
        <time>2022-03-01T15:54:54Z</time>
      </trkpt>
      <trkpt lat="40.1528200" lon="-4.7015130">
        <ele>1043.7</ele>
        <time>2022-03-01T15:54:55Z</time>
      </trkpt>
      <trkpt lat="40.1527910" lon="-4.7015830">
        <ele>1044.0</ele>
        <time>2022-03-01T15:54:56Z</time>
      </trkpt>
      <trkpt lat="40.1527660" lon="-4.7016470">
        <ele>1044.3</ele>
        <time>2022-03-01T15:54:57Z</time>
      </trkpt>
      <trkpt lat="40.1527470" lon="-4.7017270">
        <ele>1044.5</ele>
        <time>2022-03-01T15:54:58Z</time>
      </trkpt>
      <trkpt lat="40.1527160" lon="-4.7018340">
        <ele>1044.9</ele>
        <time>2022-03-01T15:54:59Z</time>
      </trkpt>
      <trkpt lat="40.1526920" lon="-4.7019220">
        <ele>1045.2</ele>
        <time>2022-03-01T15:55:00Z</time>
      </trkpt>
      <trkpt lat="40.1526820" lon="-4.7020040">
        <ele>1045.5</ele>
        <time>2022-03-01T15:55:01Z</time>
      </trkpt>
      <trkpt lat="40.1526670" lon="-4.7020870">
        <ele>1045.8</ele>
        <time>2022-03-01T15:55:02Z</time>
      </trkpt>
      <trkpt lat="40.1526570" lon="-4.7021600">
        <ele>1046.1</ele>
        <time>2022-03-01T15:55:03Z</time>
      </trkpt>
      <trkpt lat="40.1526500" lon="-4.7022330">
        <ele>1046.4</ele>
        <time>2022-03-01T15:55:04Z</time>
      </trkpt>
      <trkpt lat="40.1526440" lon="-4.7023020">
        <ele>1046.7</ele>
        <time>2022-03-01T15:55:05Z</time>
      </trkpt>
      <trkpt lat="40.1526390" lon="-4.7023770">
        <ele>1047.0</ele>
        <time>2022-03-01T15:55:06Z</time>
      </trkpt>
      <trkpt lat="40.1526380" lon="-4.7024420">
        <ele>1047.2</ele>
        <time>2022-03-01T15:55:07Z</time>
      </trkpt>
      <trkpt lat="40.1526360" lon="-4.7024880">
        <ele>1047.4</ele>
        <time>2022-03-01T15:55:08Z</time>
      </trkpt>
      <trkpt lat="40.1526340" lon="-4.7025400">
        <ele>1047.6</ele>
        <time>2022-03-01T15:55:09Z</time>
      </trkpt>
      <trkpt lat="40.1526370" lon="-4.7026120">
        <ele>1047.9</ele>
        <time>2022-03-01T15:55:10Z</time>
      </trkpt>
      <trkpt lat="40.1526490" lon="-4.7026680">
        <ele>1048.2</ele>
        <time>2022-03-01T15:55:11Z</time>
      </trkpt>
      <trkpt lat="40.1526500" lon="-4.7027160">
        <ele>1048.4</ele>
        <time>2022-03-01T15:55:12Z</time>
      </trkpt>
      <trkpt lat="40.1526500" lon="-4.7027790">
        <ele>1048.6</ele>
        <time>2022-03-01T15:55:13Z</time>
      </trkpt>
      <trkpt lat="40.1526530" lon="-4.7028210">
        <ele>1048.8</ele>
        <time>2022-03-01T15:55:14Z</time>
      </trkpt>
      <trkpt lat="40.1526520" lon="-4.7028850">
        <ele>1049.1</ele>
        <time>2022-03-01T15:55:15Z</time>
      </trkpt>
      <trkpt lat="40.1526640" lon="-4.7029480">
        <ele>1049.4</ele>
        <time>2022-03-01T15:55:16Z</time>
      </trkpt>
      <trkpt lat="40.1526590" lon="-4.7030030">
        <ele>1049.6</ele>
        <time>2022-03-01T15:55:17Z</time>
      </trkpt>
      <trkpt lat="40.1526740" lon="-4.7030450">
        <ele>1049.8</ele>
        <time>2022-03-01T15:55:18Z</time>
      </trkpt>
      <trkpt lat="40.1526810" lon="-4.7031000">
        <ele>1050.1</ele>
        <time>2022-03-01T15:55:19Z</time>
      </trkpt>
      <trkpt lat="40.1526910" lon="-4.7031510">
        <ele>1050.3</ele>
        <time>2022-03-01T15:55:20Z</time>
      </trkpt>
      <trkpt lat="40.1526880" lon="-4.7032080">
        <ele>1050.6</ele>
        <time>2022-03-01T15:55:21Z</time>
      </trkpt>
      <trkpt lat="40.1526890" lon="-4.7032640">
        <ele>1050.9</ele>
        <time>2022-03-01T15:55:22Z</time>
      </trkpt>
      <trkpt lat="40.1526930" lon="-4.7033170">
        <ele>1051.2</ele>
        <time>2022-03-01T15:55:23Z</time>
      </trkpt>
      <trkpt lat="40.1526920" lon="-4.7033660">
        <ele>1051.5</ele>
        <time>2022-03-01T15:55:24Z</time>
      </trkpt>
      <trkpt lat="40.1526960" lon="-4.7034190">
        <ele>1051.8</ele>
        <time>2022-03-01T15:55:25Z</time>
      </trkpt>
      <trkpt lat="40.1526980" lon="-4.7034630">
        <ele>1052.0</ele>
        <time>2022-03-01T15:55:26Z</time>
      </trkpt>
      <trkpt lat="40.1527050" lon="-4.7035130">
        <ele>1052.3</ele>
        <time>2022-03-01T15:55:27Z</time>
      </trkpt>
      <trkpt lat="40.1527070" lon="-4.7035650">
        <ele>1052.6</ele>
        <time>2022-03-01T15:55:28Z</time>
      </trkpt>
      <trkpt lat="40.1526990" lon="-4.7036050">
        <ele>1052.8</ele>
        <time>2022-03-01T15:55:29Z</time>
      </trkpt>
      <trkpt lat="40.1526960" lon="-4.7036600">
        <ele>1053.1</ele>
        <time>2022-03-01T15:55:30Z</time>
      </trkpt>
      <trkpt lat="40.1526860" lon="-4.7037160">
        <ele>1053.4</ele>
        <time>2022-03-01T15:55:31Z</time>
      </trkpt>
      <trkpt lat="40.1526980" lon="-4.7037590">
        <ele>1053.6</ele>
        <time>2022-03-01T15:55:32Z</time>
      </trkpt>
      <trkpt lat="40.1526920" lon="-4.7038110">
        <ele>1053.9</ele>
        <time>2022-03-01T15:55:33Z</time>
      </trkpt>
      <trkpt lat="40.1526870" lon="-4.7038610">
        <ele>1054.2</ele>
        <time>2022-03-01T15:55:34Z</time>
      </trkpt>
      <trkpt lat="40.1526820" lon="-4.7039120">
        <ele>1054.4</ele>
        <time>2022-03-01T15:55:35Z</time>
      </trkpt>
      <trkpt lat="40.1526750" lon="-4.7039500">
        <ele>1054.6</ele>
        <time>2022-03-01T15:55:36Z</time>
      </trkpt>
      <trkpt lat="40.1526620" lon="-4.7040020">
        <ele>1054.9</ele>
        <time>2022-03-01T15:55:37Z</time>
      </trkpt>
      <trkpt lat="40.1526510" lon="-4.7040200">
        <ele>1055.0</ele>
        <time>2022-03-01T15:55:38Z</time>
      </trkpt>
      <trkpt lat="40.1526310" lon="-4.7040700">
        <ele>1055.3</ele>
        <time>2022-03-01T15:55:39Z</time>
      </trkpt>
      <trkpt lat="40.1526230" lon="-4.7041230">
        <ele>1055.5</ele>
        <time>2022-03-01T15:55:40Z</time>
      </trkpt>
      <trkpt lat="40.1526070" lon="-4.7041640">
        <ele>1055.7</ele>
        <time>2022-03-01T15:55:41Z</time>
      </trkpt>
      <trkpt lat="40.1525940" lon="-4.7042080">
        <ele>1056.0</ele>
        <time>2022-03-01T15:55:42Z</time>
      </trkpt>
      <trkpt lat="40.1525770" lon="-4.7042650">
        <ele>1056.2</ele>
        <time>2022-03-01T15:55:43Z</time>
      </trkpt>
      <trkpt lat="40.1525580" lon="-4.7043150">
        <ele>1056.5</ele>
        <time>2022-03-01T15:55:44Z</time>
      </trkpt>
      <trkpt lat="40.1525410" lon="-4.7043740">
        <ele>1056.8</ele>
        <time>2022-03-01T15:55:46Z</time>
      </trkpt>
      <trkpt lat="40.1525160" lon="-4.7044150">
        <ele>1057.0</ele>
        <time>2022-03-01T15:55:47Z</time>
      </trkpt>
      <trkpt lat="40.1525000" lon="-4.7044460">
        <ele>1057.2</ele>
        <time>2022-03-01T15:55:48Z</time>
      </trkpt>
      <trkpt lat="40.1524830" lon="-4.7044940">
        <ele>1057.5</ele>
        <time>2022-03-01T15:55:49Z</time>
      </trkpt>
      <trkpt lat="40.1524640" lon="-4.7045270">
        <ele>1057.7</ele>
        <time>2022-03-01T15:55:50Z</time>
      </trkpt>
      <trkpt lat="40.1524380" lon="-4.7045670">
        <ele>1058.0</ele>
        <time>2022-03-01T15:55:51Z</time>
      </trkpt>
      <trkpt lat="40.1524160" lon="-4.7046170">
        <ele>1058.3</ele>
        <time>2022-03-01T15:55:52Z</time>
      </trkpt>
      <trkpt lat="40.1524080" lon="-4.7046390">
        <ele>1058.5</ele>
        <time>2022-03-01T15:55:53Z</time>
      </trkpt>
      <trkpt lat="40.1523850" lon="-4.7046830">
        <ele>1058.8</ele>
        <time>2022-03-01T15:55:54Z</time>
      </trkpt>
      <trkpt lat="40.1523630" lon="-4.7047100">
        <ele>1059.0</ele>
        <time>2022-03-01T15:55:55Z</time>
      </trkpt>
      <trkpt lat="40.1523310" lon="-4.7047380">
        <ele>1059.2</ele>
        <time>2022-03-01T15:55:56Z</time>
      </trkpt>
      <trkpt lat="40.1523010" lon="-4.7047720">
        <ele>1059.5</ele>
        <time>2022-03-01T15:55:57Z</time>
      </trkpt>
      <trkpt lat="40.1522610" lon="-4.7048350">
        <ele>1060.0</ele>
        <time>2022-03-01T15:55:58Z</time>
      </trkpt>
      <trkpt lat="40.1522320" lon="-4.7048760">
        <ele>1060.3</ele>
        <time>2022-03-01T15:55:59Z</time>
      </trkpt>
      <trkpt lat="40.1522060" lon="-4.7049030">
        <ele>1060.5</ele>
        <time>2022-03-01T15:56:00Z</time>
      </trkpt>
      <trkpt lat="40.1521790" lon="-4.7049210">
        <ele>1060.8</ele>
        <time>2022-03-01T15:56:01Z</time>
      </trkpt>
      <trkpt lat="40.1521530" lon="-4.7049480">
        <ele>1061.0</ele>
        <time>2022-03-01T15:56:02Z</time>
      </trkpt>
      <trkpt lat="40.1521150" lon="-4.7049780">
        <ele>1061.3</ele>
        <time>2022-03-01T15:56:03Z</time>
      </trkpt>
      <trkpt lat="40.1520790" lon="-4.7049980">
        <ele>1061.5</ele>
        <time>2022-03-01T15:56:04Z</time>
      </trkpt>
      <trkpt lat="40.1520480" lon="-4.7050200">
        <ele>1061.7</ele>
        <time>2022-03-01T15:56:05Z</time>
      </trkpt>
      <trkpt lat="40.1520050" lon="-4.7050420">
        <ele>1062.0</ele>
        <time>2022-03-01T15:56:06Z</time>
      </trkpt>
      <trkpt lat="40.1519850" lon="-4.7050490">
        <ele>1062.1</ele>
        <time>2022-03-01T15:56:07Z</time>
      </trkpt>
      <trkpt lat="40.1519500" lon="-4.7050750">
        <ele>1062.3</ele>
        <time>2022-03-01T15:56:08Z</time>
      </trkpt>
      <trkpt lat="40.1519120" lon="-4.7050960">
        <ele>1062.5</ele>
        <time>2022-03-01T15:56:09Z</time>
      </trkpt>
      <trkpt lat="40.1518700" lon="-4.7050820">
        <ele>1062.7</ele>
        <time>2022-03-01T15:56:10Z</time>
      </trkpt>
      <trkpt lat="40.1518300" lon="-4.7050890">
        <ele>1062.9</ele>
        <time>2022-03-01T15:56:11Z</time>
      </trkpt>
      <trkpt lat="40.1517970" lon="-4.7050960">
        <ele>1063.1</ele>
        <time>2022-03-01T15:56:12Z</time>
      </trkpt>
      <trkpt lat="40.1517510" lon="-4.7050980">
        <ele>1063.3</ele>
        <time>2022-03-01T15:56:13Z</time>
      </trkpt>
      <trkpt lat="40.1517020" lon="-4.7051020">
        <ele>1063.5</ele>
        <time>2022-03-01T15:56:14Z</time>
      </trkpt>
      <trkpt lat="40.1516670" lon="-4.7051100">
        <ele>1063.7</ele>
        <time>2022-03-01T15:56:15Z</time>
      </trkpt>
      <trkpt lat="40.1516230" lon="-4.7051040">
        <ele>1064.0</ele>
        <time>2022-03-01T15:56:16Z</time>
      </trkpt>
      <trkpt lat="40.1515780" lon="-4.7051120">
        <ele>1064.2</ele>
        <time>2022-03-01T15:56:17Z</time>
      </trkpt>
      <trkpt lat="40.1515410" lon="-4.7051200">
        <ele>1064.4</ele>
        <time>2022-03-01T15:56:18Z</time>
      </trkpt>
      <trkpt lat="40.1515040" lon="-4.7051350">
        <ele>1064.7</ele>
        <time>2022-03-01T15:56:19Z</time>
      </trkpt>
      <trkpt lat="40.1514480" lon="-4.7051490">
        <ele>1065.0</ele>
        <time>2022-03-01T15:56:20Z</time>
      </trkpt>
      <trkpt lat="40.1514020" lon="-4.7051500">
        <ele>1065.3</ele>
        <time>2022-03-01T15:56:21Z</time>
      </trkpt>
      <trkpt lat="40.1513530" lon="-4.7051580">
        <ele>1065.7</ele>
        <time>2022-03-01T15:56:22Z</time>
      </trkpt>
      <trkpt lat="40.1513140" lon="-4.7051750">
        <ele>1066.0</ele>
        <time>2022-03-01T15:56:23Z</time>
      </trkpt>
      <trkpt lat="40.1512780" lon="-4.7052130">
        <ele>1066.3</ele>
        <time>2022-03-01T15:56:24Z</time>
      </trkpt>
      <trkpt lat="40.1512450" lon="-4.7052270">
        <ele>1066.6</ele>
        <time>2022-03-01T15:56:25Z</time>
      </trkpt>
      <trkpt lat="40.1511870" lon="-4.7052320">
        <ele>1067.0</ele>
        <time>2022-03-01T15:56:26Z</time>
      </trkpt>
      <trkpt lat="40.1511560" lon="-4.7052580">
        <ele>1067.3</ele>
        <time>2022-03-01T15:56:27Z</time>
      </trkpt>
      <trkpt lat="40.1511250" lon="-4.7052770">
        <ele>1067.5</ele>
        <time>2022-03-01T15:56:28Z</time>
      </trkpt>
      <trkpt lat="40.1511000" lon="-4.7053030">
        <ele>1067.8</ele>
        <time>2022-03-01T15:56:29Z</time>
      </trkpt>
      <trkpt lat="40.1510760" lon="-4.7053260">
        <ele>1068.0</ele>
        <time>2022-03-01T15:56:30Z</time>
      </trkpt>
      <trkpt lat="40.1510440" lon="-4.7053440">
        <ele>1068.2</ele>
        <time>2022-03-01T15:56:31Z</time>
      </trkpt>
      <trkpt lat="40.1510340" lon="-4.7053450">
        <ele>1068.3</ele>
        <time>2022-03-01T15:56:32Z</time>
      </trkpt>
      <trkpt lat="40.1510070" lon="-4.7053700">
        <ele>1068.5</ele>
        <time>2022-03-01T15:56:33Z</time>
      </trkpt>
      <trkpt lat="40.1509780" lon="-4.7053880">
        <ele>1068.8</ele>
        <time>2022-03-01T15:56:34Z</time>
      </trkpt>
      <trkpt lat="40.1509410" lon="-4.7054310">
        <ele>1069.1</ele>
        <time>2022-03-01T15:56:35Z</time>
      </trkpt>
      <trkpt lat="40.1509200" lon="-4.7054680">
        <ele>1069.4</ele>
        <time>2022-03-01T15:56:36Z</time>
      </trkpt>
      <trkpt lat="40.1509140" lon="-4.7054840">
        <ele>1069.5</ele>
        <time>2022-03-01T15:56:37Z</time>
      </trkpt>
      <trkpt lat="40.1508940" lon="-4.7055160">
        <ele>1069.7</ele>
        <time>2022-03-01T15:56:38Z</time>
      </trkpt>
      <trkpt lat="40.1508720" lon="-4.7055520">
        <ele>1070.0</ele>
        <time>2022-03-01T15:56:39Z</time>
      </trkpt>
      <trkpt lat="40.1508490" lon="-4.7055800">
        <ele>1070.2</ele>
        <time>2022-03-01T15:56:40Z</time>
      </trkpt>
      <trkpt lat="40.1508210" lon="-4.7056060">
        <ele>1070.5</ele>
        <time>2022-03-01T15:56:41Z</time>
      </trkpt>
      <trkpt lat="40.1507960" lon="-4.7056350">
        <ele>1070.7</ele>
        <time>2022-03-01T15:56:42Z</time>
      </trkpt>
      <trkpt lat="40.1507630" lon="-4.7056670">
        <ele>1071.0</ele>
        <time>2022-03-01T15:56:43Z</time>
      </trkpt>
      <trkpt lat="40.1507490" lon="-4.7056820">
        <ele>1071.2</ele>
        <time>2022-03-01T15:56:44Z</time>
      </trkpt>
      <trkpt lat="40.1507240" lon="-4.7057120">
        <ele>1071.4</ele>
        <time>2022-03-01T15:56:45Z</time>
      </trkpt>
      <trkpt lat="40.1507020" lon="-4.7057390">
        <ele>1071.6</ele>
        <time>2022-03-01T15:56:46Z</time>
      </trkpt>
      <trkpt lat="40.1506660" lon="-4.7057720">
        <ele>1072.0</ele>
        <time>2022-03-01T15:56:47Z</time>
      </trkpt>
      <trkpt lat="40.1506510" lon="-4.7057850">
        <ele>1072.1</ele>
        <time>2022-03-01T15:56:48Z</time>
      </trkpt>
      <trkpt lat="40.1506280" lon="-4.7058120">
        <ele>1072.3</ele>
        <time>2022-03-01T15:56:49Z</time>
      </trkpt>
      <trkpt lat="40.1506000" lon="-4.7058450">
        <ele>1072.6</ele>
        <time>2022-03-01T15:56:50Z</time>
      </trkpt>
      <trkpt lat="40.1505710" lon="-4.7058890">
        <ele>1072.9</ele>
        <time>2022-03-01T15:56:51Z</time>
      </trkpt>
      <trkpt lat="40.1505470" lon="-4.7059220">
        <ele>1073.2</ele>
        <time>2022-03-01T15:56:52Z</time>
      </trkpt>
      <trkpt lat="40.1505290" lon="-4.7059530">
        <ele>1073.4</ele>
        <time>2022-03-01T15:56:53Z</time>
      </trkpt>
      <trkpt lat="40.1505060" lon="-4.7059890">
        <ele>1073.6</ele>
        <time>2022-03-01T15:56:54Z</time>
      </trkpt>
      <trkpt lat="40.1504990" lon="-4.7060060">
        <ele>1073.7</ele>
        <time>2022-03-01T15:56:55Z</time>
      </trkpt>
      <trkpt lat="40.1504840" lon="-4.7060520">
        <ele>1073.9</ele>
        <time>2022-03-01T15:56:56Z</time>
      </trkpt>
      <trkpt lat="40.1504560" lon="-4.7060980">
        <ele>1074.2</ele>
        <time>2022-03-01T15:56:57Z</time>
      </trkpt>
      <trkpt lat="40.1504470" lon="-4.7061220">
        <ele>1074.3</ele>
        <time>2022-03-01T15:56:58Z</time>
      </trkpt>
      <trkpt lat="40.1504240" lon="-4.7061640">
        <ele>1074.5</ele>
        <time>2022-03-01T15:56:59Z</time>
      </trkpt>
      <trkpt lat="40.1504190" lon="-4.7061870">
        <ele>1074.6</ele>
        <time>2022-03-01T15:57:00Z</time>
      </trkpt>
      <trkpt lat="40.1503970" lon="-4.7062320">
        <ele>1074.8</ele>
        <time>2022-03-01T15:57:01Z</time>
      </trkpt>
      <trkpt lat="40.1503740" lon="-4.7062660">
        <ele>1075.0</ele>
        <time>2022-03-01T15:57:02Z</time>
      </trkpt>
      <trkpt lat="40.1503570" lon="-4.7063120">
        <ele>1075.2</ele>
        <time>2022-03-01T15:57:03Z</time>
      </trkpt>
      <trkpt lat="40.1503380" lon="-4.7063500">
        <ele>1075.4</ele>
        <time>2022-03-01T15:57:04Z</time>
      </trkpt>
      <trkpt lat="40.1503240" lon="-4.7063900">
        <ele>1075.6</ele>
        <time>2022-03-01T15:57:05Z</time>
      </trkpt>
      <trkpt lat="40.1503140" lon="-4.7064350">
        <ele>1075.8</ele>
        <time>2022-03-01T15:57:06Z</time>
      </trkpt>
      <trkpt lat="40.1503060" lon="-4.7064760">
        <ele>1076.0</ele>
        <time>2022-03-01T15:57:07Z</time>
      </trkpt>
      <trkpt lat="40.1502950" lon="-4.7065220">
        <ele>1076.3</ele>
        <time>2022-03-01T15:57:08Z</time>
      </trkpt>
      <trkpt lat="40.1502810" lon="-4.7065590">
        <ele>1076.5</ele>
        <time>2022-03-01T15:57:09Z</time>
      </trkpt>
      <trkpt lat="40.1502790" lon="-4.7065710">
        <ele>1076.5</ele>
        <time>2022-03-01T15:57:10Z</time>
      </trkpt>
      <trkpt lat="40.1502640" lon="-4.7066100">
        <ele>1076.7</ele>
        <time>2022-03-01T15:57:11Z</time>
      </trkpt>
      <trkpt lat="40.1502390" lon="-4.7066530">
        <ele>1077.0</ele>
        <time>2022-03-01T15:57:12Z</time>
      </trkpt>
      <trkpt lat="40.1502330" lon="-4.7066710">
        <ele>1077.1</ele>
        <time>2022-03-01T15:57:13Z</time>
      </trkpt>
      <trkpt lat="40.1502270" lon="-4.7067160">
        <ele>1077.4</ele>
        <time>2022-03-01T15:57:14Z</time>
      </trkpt>
      <trkpt lat="40.1502160" lon="-4.7067570">
        <ele>1077.6</ele>
        <time>2022-03-01T15:57:15Z</time>
      </trkpt>
      <trkpt lat="40.1501940" lon="-4.7068060">
        <ele>1077.9</ele>
        <time>2022-03-01T15:57:16Z</time>
      </trkpt>
      <trkpt lat="40.1501720" lon="-4.7068510">
        <ele>1078.2</ele>
        <time>2022-03-01T15:57:17Z</time>
      </trkpt>
      <trkpt lat="40.1501520" lon="-4.7068870">
        <ele>1078.5</ele>
        <time>2022-03-01T15:57:18Z</time>
      </trkpt>
      <trkpt lat="40.1501330" lon="-4.7069370">
        <ele>1078.8</ele>
        <time>2022-03-01T15:57:19Z</time>
      </trkpt>
      <trkpt lat="40.1501120" lon="-4.7069700">
        <ele>1079.1</ele>
        <time>2022-03-01T15:57:20Z</time>
      </trkpt>
      <trkpt lat="40.1500880" lon="-4.7070110">
        <ele>1079.4</ele>
        <time>2022-03-01T15:57:21Z</time>
      </trkpt>
      <trkpt lat="40.1500580" lon="-4.7070530">
        <ele>1079.8</ele>
        <time>2022-03-01T15:57:22Z</time>
      </trkpt>
      <trkpt lat="40.1500460" lon="-4.7070720">
        <ele>1079.9</ele>
        <time>2022-03-01T15:57:23Z</time>
      </trkpt>
      <trkpt lat="40.1500200" lon="-4.7071110">
        <ele>1080.2</ele>
        <time>2022-03-01T15:57:24Z</time>
      </trkpt>
      <trkpt lat="40.1499940" lon="-4.7071570">
        <ele>1080.6</ele>
        <time>2022-03-01T15:57:25Z</time>
      </trkpt>
      <trkpt lat="40.1499680" lon="-4.7072030">
        <ele>1080.9</ele>
        <time>2022-03-01T15:57:26Z</time>
      </trkpt>
      <trkpt lat="40.1499500" lon="-4.7072350">
        <ele>1081.2</ele>
        <time>2022-03-01T15:57:27Z</time>
      </trkpt>
      <trkpt lat="40.1499300" lon="-4.7072640">
        <ele>1081.4</ele>
        <time>2022-03-01T15:57:28Z</time>
      </trkpt>
      <trkpt lat="40.1499120" lon="-4.7073010">
        <ele>1081.7</ele>
        <time>2022-03-01T15:57:29Z</time>
      </trkpt>
      <trkpt lat="40.1498830" lon="-4.7073350">
        <ele>1082.0</ele>
        <time>2022-03-01T15:57:30Z</time>
      </trkpt>
      <trkpt lat="40.1498560" lon="-4.7073780">
        <ele>1082.4</ele>
        <time>2022-03-01T15:57:31Z</time>
      </trkpt>
      <trkpt lat="40.1498270" lon="-4.7074130">
        <ele>1082.7</ele>
        <time>2022-03-01T15:57:32Z</time>
      </trkpt>
      <trkpt lat="40.1497990" lon="-4.7074500">
        <ele>1083.0</ele>
        <time>2022-03-01T15:57:33Z</time>
      </trkpt>
      <trkpt lat="40.1498060" lon="-4.7074400">
        <ele>1083.1</ele>
        <time>2022-03-01T15:57:34Z</time>
      </trkpt>
      <trkpt lat="40.1497740" lon="-4.7074650">
        <ele>1083.4</ele>
        <time>2022-03-01T15:57:35Z</time>
      </trkpt>
      <trkpt lat="40.1497420" lon="-4.7074850">
        <ele>1083.8</ele>
        <time>2022-03-01T15:57:36Z</time>
      </trkpt>
      <trkpt lat="40.1497240" lon="-4.7074960">
        <ele>1083.9</ele>
        <time>2022-03-01T15:57:37Z</time>
      </trkpt>
      <trkpt lat="40.1496970" lon="-4.7075170">
        <ele>1084.2</ele>
        <time>2022-03-01T15:57:38Z</time>
      </trkpt>
      <trkpt lat="40.1496830" lon="-4.7075350">
        <ele>1084.4</ele>
        <time>2022-03-01T15:57:39Z</time>
      </trkpt>
      <trkpt lat="40.1496550" lon="-4.7075400">
        <ele>1084.7</ele>
        <time>2022-03-01T15:57:40Z</time>
      </trkpt>
      <trkpt lat="40.1496400" lon="-4.7075480">
        <ele>1084.8</ele>
        <time>2022-03-01T15:57:41Z</time>
      </trkpt>
      <trkpt lat="40.1496000" lon="-4.7075760">
        <ele>1085.2</ele>
        <time>2022-03-01T15:57:42Z</time>
      </trkpt>
      <trkpt lat="40.1495430" lon="-4.7076040">
        <ele>1085.8</ele>
        <time>2022-03-01T15:57:43Z</time>
      </trkpt>
      <trkpt lat="40.1494990" lon="-4.7076150">
        <ele>1086.2</ele>
        <time>2022-03-01T15:57:44Z</time>
      </trkpt>
      <trkpt lat="40.1494690" lon="-4.7076450">
        <ele>1086.5</ele>
        <time>2022-03-01T15:57:45Z</time>
      </trkpt>
      <trkpt lat="40.1494250" lon="-4.7076730">
        <ele>1086.9</ele>
        <time>2022-03-01T15:57:46Z</time>
      </trkpt>
      <trkpt lat="40.1493860" lon="-4.7076910">
        <ele>1087.3</ele>
        <time>2022-03-01T15:57:47Z</time>
      </trkpt>
      <trkpt lat="40.1493660" lon="-4.7077010">
        <ele>1087.4</ele>
        <time>2022-03-01T15:57:48Z</time>
      </trkpt>
      <trkpt lat="40.1493400" lon="-4.7077190">
        <ele>1087.6</ele>
        <time>2022-03-01T15:57:49Z</time>
      </trkpt>
      <trkpt lat="40.1493150" lon="-4.7077310">
        <ele>1087.8</ele>
        <time>2022-03-01T15:57:50Z</time>
      </trkpt>
      <trkpt lat="40.1492640" lon="-4.7077450">
        <ele>1088.1</ele>
        <time>2022-03-01T15:57:52Z</time>
      </trkpt>
      <trkpt lat="40.1492300" lon="-4.7077580">
        <ele>1088.3</ele>
        <time>2022-03-01T15:57:53Z</time>
      </trkpt>
      <trkpt lat="40.1492140" lon="-4.7077650">
        <ele>1088.4</ele>
        <time>2022-03-01T15:57:54Z</time>
      </trkpt>
      <trkpt lat="40.1491840" lon="-4.7077750">
        <ele>1088.5</ele>
        <time>2022-03-01T15:57:55Z</time>
      </trkpt>
      <trkpt lat="40.1491470" lon="-4.7078050">
        <ele>1088.7</ele>
        <time>2022-03-01T15:57:56Z</time>
      </trkpt>
      <trkpt lat="40.1491290" lon="-4.7078200">
        <ele>1088.8</ele>
        <time>2022-03-01T15:57:57Z</time>
      </trkpt>
      <trkpt lat="40.1491040" lon="-4.7078430">
        <ele>1088.9</ele>
        <time>2022-03-01T15:57:58Z</time>
      </trkpt>
      <trkpt lat="40.1490930" lon="-4.7078520">
        <ele>1089.0</ele>
        <time>2022-03-01T15:57:59Z</time>
      </trkpt>
      <trkpt lat="40.1490450" lon="-4.7079050">
        <ele>1089.2</ele>
        <time>2022-03-01T15:58:00Z</time>
      </trkpt>
      <trkpt lat="40.1489960" lon="-4.7079490">
        <ele>1089.4</ele>
        <time>2022-03-01T15:58:01Z</time>
      </trkpt>
      <trkpt lat="40.1489550" lon="-4.7080050">
        <ele>1089.6</ele>
        <time>2022-03-01T15:58:02Z</time>
      </trkpt>
      <trkpt lat="40.1489330" lon="-4.7080390">
        <ele>1089.7</ele>
        <time>2022-03-01T15:58:03Z</time>
      </trkpt>
      <trkpt lat="40.1489040" lon="-4.7080700">
        <ele>1089.9</ele>
        <time>2022-03-01T15:58:04Z</time>
      </trkpt>
      <trkpt lat="40.1488770" lon="-4.7081090">
        <ele>1090.0</ele>
        <time>2022-03-01T15:58:05Z</time>
      </trkpt>
      <trkpt lat="40.1488590" lon="-4.7081560">
        <ele>1090.2</ele>
        <time>2022-03-01T15:58:06Z</time>
      </trkpt>
      <trkpt lat="40.1488340" lon="-4.7081750">
        <ele>1090.3</ele>
        <time>2022-03-01T15:58:07Z</time>
      </trkpt>
      <trkpt lat="40.1488030" lon="-4.7082200">
        <ele>1090.5</ele>
        <time>2022-03-01T15:58:08Z</time>
      </trkpt>
      <trkpt lat="40.1487870" lon="-4.7082590">
        <ele>1090.7</ele>
        <time>2022-03-01T15:58:09Z</time>
      </trkpt>
      <trkpt lat="40.1487710" lon="-4.7082980">
        <ele>1090.9</ele>
        <time>2022-03-01T15:58:10Z</time>
      </trkpt>
      <trkpt lat="40.1487460" lon="-4.7083460">
        <ele>1091.1</ele>
        <time>2022-03-01T15:58:11Z</time>
      </trkpt>
      <trkpt lat="40.1487270" lon="-4.7083850">
        <ele>1091.3</ele>
        <time>2022-03-01T15:58:12Z</time>
      </trkpt>
      <trkpt lat="40.1487090" lon="-4.7084080">
        <ele>1091.4</ele>
        <time>2022-03-01T15:58:13Z</time>
      </trkpt>
      <trkpt lat="40.1487030" lon="-4.7084230">
        <ele>1091.5</ele>
        <time>2022-03-01T15:58:14Z</time>
      </trkpt>
      <trkpt lat="40.1486770" lon="-4.7084660">
        <ele>1091.7</ele>
        <time>2022-03-01T15:58:15Z</time>
      </trkpt>
      <trkpt lat="40.1486660" lon="-4.7084870">
        <ele>1091.8</ele>
        <time>2022-03-01T15:58:16Z</time>
      </trkpt>
      <trkpt lat="40.1486410" lon="-4.7085410">
        <ele>1092.1</ele>
        <time>2022-03-01T15:58:17Z</time>
      </trkpt>
      <trkpt lat="40.1486270" lon="-4.7085760">
        <ele>1092.3</ele>
        <time>2022-03-01T15:58:18Z</time>
      </trkpt>
      <trkpt lat="40.1486170" lon="-4.7085770">
        <ele>1092.4</ele>
        <time>2022-03-01T15:58:19Z</time>
      </trkpt>
      <trkpt lat="40.1486050" lon="-4.7086090">
        <ele>1092.5</ele>
        <time>2022-03-01T15:58:20Z</time>
      </trkpt>
      <trkpt lat="40.1485880" lon="-4.7086500">
        <ele>1092.8</ele>
        <time>2022-03-01T15:58:21Z</time>
      </trkpt>
      <trkpt lat="40.1485720" lon="-4.7086910">
        <ele>1093.0</ele>
        <time>2022-03-01T15:58:22Z</time>
      </trkpt>
      <trkpt lat="40.1485640" lon="-4.7087050">
        <ele>1093.0</ele>
        <time>2022-03-01T15:58:23Z</time>
      </trkpt>
      <trkpt lat="40.1485460" lon="-4.7087630">
        <ele>1093.3</ele>
        <time>2022-03-01T15:58:24Z</time>
      </trkpt>
      <trkpt lat="40.1485230" lon="-4.7087950">
        <ele>1093.5</ele>
        <time>2022-03-01T15:58:25Z</time>
      </trkpt>
      <trkpt lat="40.1485150" lon="-4.7088100">
        <ele>1093.6</ele>
        <time>2022-03-01T15:58:26Z</time>
      </trkpt>
      <trkpt lat="40.1484960" lon="-4.7088600">
        <ele>1093.9</ele>
        <time>2022-03-01T15:58:27Z</time>
      </trkpt>
      <trkpt lat="40.1484650" lon="-4.7089160">
        <ele>1094.2</ele>
        <time>2022-03-01T15:58:28Z</time>
      </trkpt>
      <trkpt lat="40.1484460" lon="-4.7089480">
        <ele>1094.4</ele>
        <time>2022-03-01T15:58:29Z</time>
      </trkpt>
      <trkpt lat="40.1484170" lon="-4.7089970">
        <ele>1094.6</ele>
        <time>2022-03-01T15:58:30Z</time>
      </trkpt>
      <trkpt lat="40.1483940" lon="-4.7090310">
        <ele>1094.8</ele>
        <time>2022-03-01T15:58:31Z</time>
      </trkpt>
      <trkpt lat="40.1483730" lon="-4.7090720">
        <ele>1095.1</ele>
        <time>2022-03-01T15:58:32Z</time>
      </trkpt>
      <trkpt lat="40.1483470" lon="-4.7091090">
        <ele>1095.3</ele>
        <time>2022-03-01T15:58:33Z</time>
      </trkpt>
      <trkpt lat="40.1483200" lon="-4.7091490">
        <ele>1095.5</ele>
        <time>2022-03-01T15:58:34Z</time>
      </trkpt>
      <trkpt lat="40.1482940" lon="-4.7091880">
        <ele>1095.7</ele>
        <time>2022-03-01T15:58:35Z</time>
      </trkpt>
      <trkpt lat="40.1482650" lon="-4.7092220">
        <ele>1095.9</ele>
        <time>2022-03-01T15:58:36Z</time>
      </trkpt>
      <trkpt lat="40.1482360" lon="-4.7092520">
        <ele>1096.1</ele>
        <time>2022-03-01T15:58:37Z</time>
      </trkpt>
      <trkpt lat="40.1482050" lon="-4.7092840">
        <ele>1096.3</ele>
        <time>2022-03-01T15:58:38Z</time>
      </trkpt>
      <trkpt lat="40.1481750" lon="-4.7093200">
        <ele>1096.6</ele>
        <time>2022-03-01T15:58:39Z</time>
      </trkpt>
      <trkpt lat="40.1481400" lon="-4.7093560">
        <ele>1096.8</ele>
        <time>2022-03-01T15:58:40Z</time>
      </trkpt>
      <trkpt lat="40.1481130" lon="-4.7093890">
        <ele>1097.0</ele>
        <time>2022-03-01T15:58:41Z</time>
      </trkpt>
      <trkpt lat="40.1480830" lon="-4.7094270">
        <ele>1097.2</ele>
        <time>2022-03-01T15:58:42Z</time>
      </trkpt>
      <trkpt lat="40.1480530" lon="-4.7094580">
        <ele>1097.4</ele>
        <time>2022-03-01T15:58:43Z</time>
      </trkpt>
      <trkpt lat="40.1480220" lon="-4.7094980">
        <ele>1097.7</ele>
        <time>2022-03-01T15:58:44Z</time>
      </trkpt>
      <trkpt lat="40.1479910" lon="-4.7095440">
        <ele>1098.0</ele>
        <time>2022-03-01T15:58:45Z</time>
      </trkpt>
      <trkpt lat="40.1479280" lon="-4.7096340">
        <ele>1098.5</ele>
        <time>2022-03-01T15:58:46Z</time>
      </trkpt>
      <trkpt lat="40.1478970" lon="-4.7096910">
        <ele>1098.9</ele>
        <time>2022-03-01T15:58:47Z</time>
      </trkpt>
      <trkpt lat="40.1478690" lon="-4.7097460">
        <ele>1099.2</ele>
        <time>2022-03-01T15:58:48Z</time>
      </trkpt>
      <trkpt lat="40.1478470" lon="-4.7097900">
        <ele>1099.4</ele>
        <time>2022-03-01T15:58:49Z</time>
      </trkpt>
      <trkpt lat="40.1478230" lon="-4.7098410">
        <ele>1099.7</ele>
        <time>2022-03-01T15:58:50Z</time>
      </trkpt>
      <trkpt lat="40.1477970" lon="-4.7098760">
        <ele>1100.0</ele>
        <time>2022-03-01T15:58:51Z</time>
      </trkpt>
      <trkpt lat="40.1477800" lon="-4.7099220">
        <ele>1100.2</ele>
        <time>2022-03-01T15:58:52Z</time>
      </trkpt>
      <trkpt lat="40.1477630" lon="-4.7099700">
        <ele>1100.5</ele>
        <time>2022-03-01T15:58:53Z</time>
      </trkpt>
      <trkpt lat="40.1477470" lon="-4.7100200">
        <ele>1100.8</ele>
        <time>2022-03-01T15:58:54Z</time>
      </trkpt>
      <trkpt lat="40.1477330" lon="-4.7100620">
        <ele>1101.0</ele>
        <time>2022-03-01T15:58:55Z</time>
      </trkpt>
      <trkpt lat="40.1477120" lon="-4.7101000">
        <ele>1101.3</ele>
        <time>2022-03-01T15:58:56Z</time>
      </trkpt>
      <trkpt lat="40.1476820" lon="-4.7101360">
        <ele>1101.5</ele>
        <time>2022-03-01T15:58:57Z</time>
      </trkpt>
      <trkpt lat="40.1476530" lon="-4.7101790">
        <ele>1101.8</ele>
        <time>2022-03-01T15:58:58Z</time>
      </trkpt>
      <trkpt lat="40.1476220" lon="-4.7102140">
        <ele>1102.1</ele>
        <time>2022-03-01T15:58:59Z</time>
      </trkpt>
      <trkpt lat="40.1476010" lon="-4.7102530">
        <ele>1102.4</ele>
        <time>2022-03-01T15:59:00Z</time>
      </trkpt>
      <trkpt lat="40.1475720" lon="-4.7102860">
        <ele>1102.6</ele>
        <time>2022-03-01T15:59:01Z</time>
      </trkpt>
      <trkpt lat="40.1475420" lon="-4.7103190">
        <ele>1102.9</ele>
        <time>2022-03-01T15:59:02Z</time>
      </trkpt>
      <trkpt lat="40.1475120" lon="-4.7103510">
        <ele>1103.1</ele>
        <time>2022-03-01T15:59:03Z</time>
      </trkpt>
      <trkpt lat="40.1474800" lon="-4.7103760">
        <ele>1103.4</ele>
        <time>2022-03-01T15:59:04Z</time>
      </trkpt>
      <trkpt lat="40.1474490" lon="-4.7104140">
        <ele>1103.7</ele>
        <time>2022-03-01T15:59:05Z</time>
      </trkpt>
      <trkpt lat="40.1474130" lon="-4.7104630">
        <ele>1104.0</ele>
        <time>2022-03-01T15:59:06Z</time>
      </trkpt>
      <trkpt lat="40.1473740" lon="-4.7104790">
        <ele>1104.3</ele>
        <time>2022-03-01T15:59:07Z</time>
      </trkpt>
      <trkpt lat="40.1473390" lon="-4.7105180">
        <ele>1104.6</ele>
        <time>2022-03-01T15:59:08Z</time>
      </trkpt>
      <trkpt lat="40.1473100" lon="-4.7105480">
        <ele>1104.8</ele>
        <time>2022-03-01T15:59:09Z</time>
      </trkpt>
      <trkpt lat="40.1472670" lon="-4.7105830">
        <ele>1105.2</ele>
        <time>2022-03-01T15:59:10Z</time>
      </trkpt>
      <trkpt lat="40.1472270" lon="-4.7106210">
        <ele>1105.5</ele>
        <time>2022-03-01T15:59:11Z</time>
      </trkpt>
      <trkpt lat="40.1471950" lon="-4.7106500">
        <ele>1105.7</ele>
        <time>2022-03-01T15:59:12Z</time>
      </trkpt>
      <trkpt lat="40.1471620" lon="-4.7106690">
        <ele>1106.0</ele>
        <time>2022-03-01T15:59:13Z</time>
      </trkpt>
      <trkpt lat="40.1471290" lon="-4.7107030">
        <ele>1106.2</ele>
        <time>2022-03-01T15:59:14Z</time>
      </trkpt>
      <trkpt lat="40.1470870" lon="-4.7107270">
        <ele>1106.5</ele>
        <time>2022-03-01T15:59:15Z</time>
      </trkpt>
      <trkpt lat="40.1470590" lon="-4.7107410">
        <ele>1106.7</ele>
        <time>2022-03-01T15:59:16Z</time>
      </trkpt>
      <trkpt lat="40.1470210" lon="-4.7107760">
        <ele>1107.0</ele>
        <time>2022-03-01T15:59:17Z</time>
      </trkpt>
      <trkpt lat="40.1469860" lon="-4.7107810">
        <ele>1107.2</ele>
        <time>2022-03-01T15:59:18Z</time>
      </trkpt>
      <trkpt lat="40.1469450" lon="-4.7108140">
        <ele>1107.5</ele>
        <time>2022-03-01T15:59:19Z</time>
      </trkpt>
      <trkpt lat="40.1469280" lon="-4.7108350">
        <ele>1107.7</ele>
        <time>2022-03-01T15:59:20Z</time>
      </trkpt>
      <trkpt lat="40.1468910" lon="-4.7108470">
        <ele>1107.9</ele>
        <time>2022-03-01T15:59:21Z</time>
      </trkpt>
      <trkpt lat="40.1468580" lon="-4.7108630">
        <ele>1108.2</ele>
        <time>2022-03-01T15:59:22Z</time>
      </trkpt>
      <trkpt lat="40.1468260" lon="-4.7108900">
        <ele>1108.4</ele>
        <time>2022-03-01T15:59:23Z</time>
      </trkpt>
      <trkpt lat="40.1467890" lon="-4.7109070">
        <ele>1108.7</ele>
        <time>2022-03-01T15:59:24Z</time>
      </trkpt>
      <trkpt lat="40.1467590" lon="-4.7109400">
        <ele>1109.0</ele>
        <time>2022-03-01T15:59:25Z</time>
      </trkpt>
      <trkpt lat="40.1467270" lon="-4.7109650">
        <ele>1109.2</ele>
        <time>2022-03-01T15:59:26Z</time>
      </trkpt>
      <trkpt lat="40.1467040" lon="-4.7110010">
        <ele>1109.5</ele>
        <time>2022-03-01T15:59:27Z</time>
      </trkpt>
      <trkpt lat="40.1466710" lon="-4.7110380">
        <ele>1109.8</ele>
        <time>2022-03-01T15:59:28Z</time>
      </trkpt>
      <trkpt lat="40.1466370" lon="-4.7110780">
        <ele>1110.1</ele>
        <time>2022-03-01T15:59:29Z</time>
      </trkpt>
      <trkpt lat="40.1466050" lon="-4.7111060">
        <ele>1110.4</ele>
        <time>2022-03-01T15:59:30Z</time>
      </trkpt>
      <trkpt lat="40.1465630" lon="-4.7111280">
        <ele>1110.7</ele>
        <time>2022-03-01T15:59:31Z</time>
      </trkpt>
      <trkpt lat="40.1465470" lon="-4.7111450">
        <ele>1110.9</ele>
        <time>2022-03-01T15:59:32Z</time>
      </trkpt>
      <trkpt lat="40.1465140" lon="-4.7111940">
        <ele>1111.3</ele>
        <time>2022-03-01T15:59:33Z</time>
      </trkpt>
      <trkpt lat="40.1464870" lon="-4.7112310">
        <ele>1111.6</ele>
        <time>2022-03-01T15:59:34Z</time>
      </trkpt>
      <trkpt lat="40.1464570" lon="-4.7112670">
        <ele>1111.9</ele>
        <time>2022-03-01T15:59:35Z</time>
      </trkpt>
      <trkpt lat="40.1464490" lon="-4.7112880">
        <ele>1112.0</ele>
        <time>2022-03-01T15:59:36Z</time>
      </trkpt>
      <trkpt lat="40.1464170" lon="-4.7113210">
        <ele>1112.3</ele>
        <time>2022-03-01T15:59:37Z</time>
      </trkpt>
      <trkpt lat="40.1463920" lon="-4.7113700">
        <ele>1112.7</ele>
        <time>2022-03-01T15:59:38Z</time>
      </trkpt>
      <trkpt lat="40.1463670" lon="-4.7114090">
        <ele>1113.0</ele>
        <time>2022-03-01T15:59:39Z</time>
      </trkpt>
      <trkpt lat="40.1463470" lon="-4.7114530">
        <ele>1113.3</ele>
        <time>2022-03-01T15:59:40Z</time>
      </trkpt>
      <trkpt lat="40.1463320" lon="-4.7114840">
        <ele>1113.6</ele>
        <time>2022-03-01T15:59:41Z</time>
      </trkpt>
      <trkpt lat="40.1463160" lon="-4.7115200">
        <ele>1113.8</ele>
        <time>2022-03-01T15:59:42Z</time>
      </trkpt>
      <trkpt lat="40.1463010" lon="-4.7115550">
        <ele>1114.1</ele>
        <time>2022-03-01T15:59:43Z</time>
      </trkpt>
      <trkpt lat="40.1462790" lon="-4.7116020">
        <ele>1114.5</ele>
        <time>2022-03-01T15:59:44Z</time>
      </trkpt>
      <trkpt lat="40.1462440" lon="-4.7116580">
        <ele>1115.0</ele>
        <time>2022-03-01T15:59:45Z</time>
      </trkpt>
      <trkpt lat="40.1462200" lon="-4.7117080">
        <ele>1115.4</ele>
        <time>2022-03-01T15:59:46Z</time>
      </trkpt>
      <trkpt lat="40.1461990" lon="-4.7117390">
        <ele>1115.6</ele>
        <time>2022-03-01T15:59:47Z</time>
      </trkpt>
      <trkpt lat="40.1461780" lon="-4.7117670">
        <ele>1115.9</ele>
        <time>2022-03-01T15:59:48Z</time>
      </trkpt>
      <trkpt lat="40.1461600" lon="-4.7118060">
        <ele>1116.2</ele>
        <time>2022-03-01T15:59:49Z</time>
      </trkpt>
      <trkpt lat="40.1461400" lon="-4.7118510">
        <ele>1116.6</ele>
        <time>2022-03-01T15:59:50Z</time>
      </trkpt>
      <trkpt lat="40.1461170" lon="-4.7118950">
        <ele>1116.9</ele>
        <time>2022-03-01T15:59:51Z</time>
      </trkpt>
      <trkpt lat="40.1460840" lon="-4.7119430">
        <ele>1117.4</ele>
        <time>2022-03-01T15:59:52Z</time>
      </trkpt>
      <trkpt lat="40.1460560" lon="-4.7119810">
        <ele>1117.7</ele>
        <time>2022-03-01T15:59:53Z</time>
      </trkpt>
      <trkpt lat="40.1460200" lon="-4.7120180">
        <ele>1118.1</ele>
        <time>2022-03-01T15:59:54Z</time>
      </trkpt>
      <trkpt lat="40.1459840" lon="-4.7120470">
        <ele>1118.2</ele>
        <time>2022-03-01T15:59:55Z</time>
      </trkpt>
      <trkpt lat="40.1459480" lon="-4.7120700">
        <ele>1118.5</ele>
        <time>2022-03-01T15:59:56Z</time>
      </trkpt>
      <trkpt lat="40.1459200" lon="-4.7120930">
        <ele>1118.6</ele>
        <time>2022-03-01T15:59:58Z</time>
      </trkpt>
      <trkpt lat="40.1458810" lon="-4.7120930">
        <ele>1118.8</ele>
        <time>2022-03-01T15:59:59Z</time>
      </trkpt>
      <trkpt lat="40.1458370" lon="-4.7121060">
        <ele>1119.1</ele>
        <time>2022-03-01T16:00:00Z</time>
      </trkpt>
      <trkpt lat="40.1458040" lon="-4.7121050">
        <ele>1119.3</ele>
        <time>2022-03-01T16:00:01Z</time>
      </trkpt>
      <trkpt lat="40.1457640" lon="-4.7121210">
        <ele>1119.5</ele>
        <time>2022-03-01T16:00:02Z</time>
      </trkpt>
      <trkpt lat="40.1457160" lon="-4.7121310">
        <ele>1119.8</ele>
        <time>2022-03-01T16:00:03Z</time>
      </trkpt>
      <trkpt lat="40.1456770" lon="-4.7121420">
        <ele>1120.0</ele>
        <time>2022-03-01T16:00:04Z</time>
      </trkpt>
      <trkpt lat="40.1456280" lon="-4.7121500">
        <ele>1120.2</ele>
        <time>2022-03-01T16:00:05Z</time>
      </trkpt>
      <trkpt lat="40.1455890" lon="-4.7121580">
        <ele>1120.5</ele>
        <time>2022-03-01T16:00:06Z</time>
      </trkpt>
      <trkpt lat="40.1455590" lon="-4.7121700">
        <ele>1120.7</ele>
        <time>2022-03-01T16:00:07Z</time>
      </trkpt>
      <trkpt lat="40.1455190" lon="-4.7121870">
        <ele>1120.9</ele>
        <time>2022-03-01T16:00:08Z</time>
      </trkpt>
      <trkpt lat="40.1454720" lon="-4.7121840">
        <ele>1121.2</ele>
        <time>2022-03-01T16:00:09Z</time>
      </trkpt>
      <trkpt lat="40.1454400" lon="-4.7121880">
        <ele>1121.5</ele>
        <time>2022-03-01T16:00:10Z</time>
      </trkpt>
      <trkpt lat="40.1454000" lon="-4.7122080">
        <ele>1121.8</ele>
        <time>2022-03-01T16:00:11Z</time>
      </trkpt>
      <trkpt lat="40.1453690" lon="-4.7122140">
        <ele>1122.0</ele>
        <time>2022-03-01T16:00:12Z</time>
      </trkpt>
      <trkpt lat="40.1453280" lon="-4.7122230">
        <ele>1122.4</ele>
        <time>2022-03-01T16:00:13Z</time>
      </trkpt>
      <trkpt lat="40.1453030" lon="-4.7122400">
        <ele>1122.6</ele>
        <time>2022-03-01T16:00:14Z</time>
      </trkpt>
      <trkpt lat="40.1452680" lon="-4.7122650">
        <ele>1123.0</ele>
        <time>2022-03-01T16:00:15Z</time>
      </trkpt>
      <trkpt lat="40.1452380" lon="-4.7122900">
        <ele>1123.3</ele>
        <time>2022-03-01T16:00:16Z</time>
      </trkpt>
      <trkpt lat="40.1452070" lon="-4.7123260">
        <ele>1123.6</ele>
        <time>2022-03-01T16:00:17Z</time>
      </trkpt>
      <trkpt lat="40.1451730" lon="-4.7123390">
        <ele>1123.9</ele>
        <time>2022-03-01T16:00:18Z</time>
      </trkpt>
      <trkpt lat="40.1451570" lon="-4.7123440">
        <ele>1124.0</ele>
        <time>2022-03-01T16:00:19Z</time>
      </trkpt>
      <trkpt lat="40.1451190" lon="-4.7123640">
        <ele>1124.3</ele>
        <time>2022-03-01T16:00:20Z</time>
      </trkpt>
      <trkpt lat="40.1450880" lon="-4.7123920">
        <ele>1124.5</ele>
        <time>2022-03-01T16:00:21Z</time>
      </trkpt>
      <trkpt lat="40.1450810" lon="-4.7124110">
        <ele>1124.7</ele>
        <time>2022-03-01T16:00:22Z</time>
      </trkpt>
      <trkpt lat="40.1450540" lon="-4.7124510">
        <ele>1124.9</ele>
        <time>2022-03-01T16:00:23Z</time>
      </trkpt>
      <trkpt lat="40.1450340" lon="-4.7124880">
        <ele>1125.1</ele>
        <time>2022-03-01T16:00:24Z</time>
      </trkpt>
      <trkpt lat="40.1450080" lon="-4.7125210">
        <ele>1125.3</ele>
        <time>2022-03-01T16:00:25Z</time>
      </trkpt>
      <trkpt lat="40.1449900" lon="-4.7125600">
        <ele>1125.5</ele>
        <time>2022-03-01T16:00:26Z</time>
      </trkpt>
      <trkpt lat="40.1449630" lon="-4.7125850">
        <ele>1125.7</ele>
        <time>2022-03-01T16:00:27Z</time>
      </trkpt>
      <trkpt lat="40.1449520" lon="-4.7126010">
        <ele>1125.7</ele>
        <time>2022-03-01T16:00:28Z</time>
      </trkpt>
      <trkpt lat="40.1449200" lon="-4.7126420">
        <ele>1126.0</ele>
        <time>2022-03-01T16:00:29Z</time>
      </trkpt>
      <trkpt lat="40.1449060" lon="-4.7126650">
        <ele>1126.1</ele>
        <time>2022-03-01T16:00:30Z</time>
      </trkpt>
      <trkpt lat="40.1448840" lon="-4.7127050">
        <ele>1126.3</ele>
        <time>2022-03-01T16:00:31Z</time>
      </trkpt>
      <trkpt lat="40.1448630" lon="-4.7127300">
        <ele>1126.4</ele>
        <time>2022-03-01T16:00:32Z</time>
      </trkpt>
      <trkpt lat="40.1448410" lon="-4.7127750">
        <ele>1126.7</ele>
        <time>2022-03-01T16:00:33Z</time>
      </trkpt>
      <trkpt lat="40.1448190" lon="-4.7128170">
        <ele>1126.9</ele>
        <time>2022-03-01T16:00:34Z</time>
      </trkpt>
      <trkpt lat="40.1447860" lon="-4.7128240">
        <ele>1127.1</ele>
        <time>2022-03-01T16:00:35Z</time>
      </trkpt>
      <trkpt lat="40.1447730" lon="-4.7128250">
        <ele>1127.2</ele>
        <time>2022-03-01T16:00:36Z</time>
      </trkpt>
      <trkpt lat="40.1447480" lon="-4.7128500">
        <ele>1127.4</ele>
        <time>2022-03-01T16:00:37Z</time>
      </trkpt>
      <trkpt lat="40.1447200" lon="-4.7128830">
        <ele>1127.6</ele>
        <time>2022-03-01T16:00:38Z</time>
      </trkpt>
      <trkpt lat="40.1446880" lon="-4.7129200">
        <ele>1127.9</ele>
        <time>2022-03-01T16:00:39Z</time>
      </trkpt>
      <trkpt lat="40.1446760" lon="-4.7129380">
        <ele>1128.0</ele>
        <time>2022-03-01T16:00:40Z</time>
      </trkpt>
      <trkpt lat="40.1446480" lon="-4.7129510">
        <ele>1128.2</ele>
        <time>2022-03-01T16:00:41Z</time>
      </trkpt>
      <trkpt lat="40.1446130" lon="-4.7129690">
        <ele>1128.5</ele>
        <time>2022-03-01T16:00:42Z</time>
      </trkpt>
      <trkpt lat="40.1446000" lon="-4.7129740">
        <ele>1128.6</ele>
        <time>2022-03-01T16:00:43Z</time>
      </trkpt>
      <trkpt lat="40.1445640" lon="-4.7129900">
        <ele>1128.9</ele>
        <time>2022-03-01T16:00:44Z</time>
      </trkpt>
      <trkpt lat="40.1445510" lon="-4.7129980">
        <ele>1129.0</ele>
        <time>2022-03-01T16:00:45Z</time>
      </trkpt>
      <trkpt lat="40.1445200" lon="-4.7130140">
        <ele>1129.2</ele>
        <time>2022-03-01T16:00:46Z</time>
      </trkpt>
      <trkpt lat="40.1444940" lon="-4.7130470">
        <ele>1129.5</ele>
        <time>2022-03-01T16:00:47Z</time>
      </trkpt>
      <trkpt lat="40.1444680" lon="-4.7130570">
        <ele>1129.7</ele>
        <time>2022-03-01T16:00:48Z</time>
      </trkpt>
      <trkpt lat="40.1444450" lon="-4.7130790">
        <ele>1129.9</ele>
        <time>2022-03-01T16:00:49Z</time>
      </trkpt>
      <trkpt lat="40.1444130" lon="-4.7130960">
        <ele>1130.1</ele>
        <time>2022-03-01T16:00:50Z</time>
      </trkpt>
      <trkpt lat="40.1444030" lon="-4.7131020">
        <ele>1130.2</ele>
        <time>2022-03-01T16:00:51Z</time>
      </trkpt>
      <trkpt lat="40.1443780" lon="-4.7131330">
        <ele>1130.4</ele>
        <time>2022-03-01T16:00:52Z</time>
      </trkpt>
      <trkpt lat="40.1443430" lon="-4.7131430">
        <ele>1130.6</ele>
        <time>2022-03-01T16:00:53Z</time>
      </trkpt>
      <trkpt lat="40.1443140" lon="-4.7131510">
        <ele>1130.8</ele>
        <time>2022-03-01T16:00:54Z</time>
      </trkpt>
      <trkpt lat="40.1442880" lon="-4.7131830">
        <ele>1131.1</ele>
        <time>2022-03-01T16:00:55Z</time>
      </trkpt>
      <trkpt lat="40.1442600" lon="-4.7132010">
        <ele>1131.2</ele>
        <time>2022-03-01T16:00:56Z</time>
      </trkpt>
      <trkpt lat="40.1442320" lon="-4.7132150">
        <ele>1131.4</ele>
        <time>2022-03-01T16:00:57Z</time>
      </trkpt>
      <trkpt lat="40.1442080" lon="-4.7132460">
        <ele>1131.6</ele>
        <time>2022-03-01T16:00:58Z</time>
      </trkpt>
      <trkpt lat="40.1441810" lon="-4.7132690">
        <ele>1131.8</ele>
        <time>2022-03-01T16:00:59Z</time>
      </trkpt>
      <trkpt lat="40.1441330" lon="-4.7133020">
        <ele>1132.1</ele>
        <time>2022-03-01T16:01:00Z</time>
      </trkpt>
      <trkpt lat="40.1441020" lon="-4.7133140">
        <ele>1132.3</ele>
        <time>2022-03-01T16:01:01Z</time>
      </trkpt>
      <trkpt lat="40.1440740" lon="-4.7133380">
        <ele>1132.5</ele>
        <time>2022-03-01T16:01:02Z</time>
      </trkpt>
      <trkpt lat="40.1440520" lon="-4.7133640">
        <ele>1132.7</ele>
        <time>2022-03-01T16:01:03Z</time>
      </trkpt>
      <trkpt lat="40.1440240" lon="-4.7133800">
        <ele>1132.9</ele>
        <time>2022-03-01T16:01:04Z</time>
      </trkpt>
      <trkpt lat="40.1439920" lon="-4.7134100">
        <ele>1133.1</ele>
        <time>2022-03-01T16:01:05Z</time>
      </trkpt>
      <trkpt lat="40.1439760" lon="-4.7134240">
        <ele>1133.2</ele>
        <time>2022-03-01T16:01:06Z</time>
      </trkpt>
      <trkpt lat="40.1439550" lon="-4.7134610">
        <ele>1133.4</ele>
        <time>2022-03-01T16:01:07Z</time>
      </trkpt>
      <trkpt lat="40.1439440" lon="-4.7134720">
        <ele>1133.5</ele>
        <time>2022-03-01T16:01:08Z</time>
      </trkpt>
      <trkpt lat="40.1439170" lon="-4.7134910">
        <ele>1133.7</ele>
        <time>2022-03-01T16:01:09Z</time>
      </trkpt>
      <trkpt lat="40.1438860" lon="-4.7135330">
        <ele>1134.0</ele>
        <time>2022-03-01T16:01:10Z</time>
      </trkpt>
      <trkpt lat="40.1438730" lon="-4.7135600">
        <ele>1134.1</ele>
        <time>2022-03-01T16:01:11Z</time>
      </trkpt>
      <trkpt lat="40.1438500" lon="-4.7135850">
        <ele>1134.3</ele>
        <time>2022-03-01T16:01:12Z</time>
      </trkpt>
      <trkpt lat="40.1438410" lon="-4.7136030">
        <ele>1134.4</ele>
        <time>2022-03-01T16:01:13Z</time>
      </trkpt>
      <trkpt lat="40.1438130" lon="-4.7136230">
        <ele>1134.6</ele>
        <time>2022-03-01T16:01:14Z</time>
      </trkpt>
      <trkpt lat="40.1437830" lon="-4.7136660">
        <ele>1134.8</ele>
        <time>2022-03-01T16:01:15Z</time>
      </trkpt>
      <trkpt lat="40.1437660" lon="-4.7136870">
        <ele>1135.0</ele>
        <time>2022-03-01T16:01:16Z</time>
      </trkpt>
      <trkpt lat="40.1437400" lon="-4.7137090">
        <ele>1135.1</ele>
        <time>2022-03-01T16:01:17Z</time>
      </trkpt>
      <trkpt lat="40.1437240" lon="-4.7137280">
        <ele>1135.3</ele>
        <time>2022-03-01T16:01:18Z</time>
      </trkpt>
      <trkpt lat="40.1436940" lon="-4.7137790">
        <ele>1135.5</ele>
        <time>2022-03-01T16:01:19Z</time>
      </trkpt>
      <trkpt lat="40.1436770" lon="-4.7138150">
        <ele>1135.7</ele>
        <time>2022-03-01T16:01:20Z</time>
      </trkpt>
      <trkpt lat="40.1436510" lon="-4.7138520">
        <ele>1135.9</ele>
        <time>2022-03-01T16:01:21Z</time>
      </trkpt>
      <trkpt lat="40.1436310" lon="-4.7139080">
        <ele>1136.2</ele>
        <time>2022-03-01T16:01:22Z</time>
      </trkpt>
      <trkpt lat="40.1436040" lon="-4.7139500">
        <ele>1136.4</ele>
        <time>2022-03-01T16:01:23Z</time>
      </trkpt>
      <trkpt lat="40.1435680" lon="-4.7139760">
        <ele>1136.6</ele>
        <time>2022-03-01T16:01:24Z</time>
      </trkpt>
      <trkpt lat="40.1435330" lon="-4.7140240">
        <ele>1136.9</ele>
        <time>2022-03-01T16:01:25Z</time>
      </trkpt>
      <trkpt lat="40.1435120" lon="-4.7140690">
        <ele>1137.1</ele>
        <time>2022-03-01T16:01:26Z</time>
      </trkpt>
      <trkpt lat="40.1434900" lon="-4.7141200">
        <ele>1137.3</ele>
        <time>2022-03-01T16:01:27Z</time>
      </trkpt>
      <trkpt lat="40.1434690" lon="-4.7141600">
        <ele>1137.6</ele>
        <time>2022-03-01T16:01:28Z</time>
      </trkpt>
      <trkpt lat="40.1434430" lon="-4.7142040">
        <ele>1137.8</ele>
        <time>2022-03-01T16:01:29Z</time>
      </trkpt>
      <trkpt lat="40.1434030" lon="-4.7142370">
        <ele>1138.1</ele>
        <time>2022-03-01T16:01:30Z</time>
      </trkpt>
      <trkpt lat="40.1433750" lon="-4.7142850">
        <ele>1138.3</ele>
        <time>2022-03-01T16:01:31Z</time>
      </trkpt>
      <trkpt lat="40.1433500" lon="-4.7143340">
        <ele>1138.6</ele>
        <time>2022-03-01T16:01:32Z</time>
      </trkpt>
      <trkpt lat="40.1433270" lon="-4.7143680">
        <ele>1138.8</ele>
        <time>2022-03-01T16:01:33Z</time>
      </trkpt>
      <trkpt lat="40.1433030" lon="-4.7144170">
        <ele>1139.1</ele>
        <time>2022-03-01T16:01:34Z</time>
      </trkpt>
      <trkpt lat="40.1432750" lon="-4.7144520">
        <ele>1139.4</ele>
        <time>2022-03-01T16:01:35Z</time>
      </trkpt>
      <trkpt lat="40.1432440" lon="-4.7144860">
        <ele>1139.6</ele>
        <time>2022-03-01T16:01:36Z</time>
      </trkpt>
      <trkpt lat="40.1432160" lon="-4.7145360">
        <ele>1139.9</ele>
        <time>2022-03-01T16:01:37Z</time>
      </trkpt>
      <trkpt lat="40.1431850" lon="-4.7145720">
        <ele>1140.2</ele>
        <time>2022-03-01T16:01:38Z</time>
      </trkpt>
      <trkpt lat="40.1431600" lon="-4.7146100">
        <ele>1140.4</ele>
        <time>2022-03-01T16:01:39Z</time>
      </trkpt>
      <trkpt lat="40.1431290" lon="-4.7146370">
        <ele>1140.7</ele>
        <time>2022-03-01T16:01:40Z</time>
      </trkpt>
      <trkpt lat="40.1431020" lon="-4.7146740">
        <ele>1140.9</ele>
        <time>2022-03-01T16:01:41Z</time>
      </trkpt>
      <trkpt lat="40.1430700" lon="-4.7147260">
        <ele>1141.3</ele>
        <time>2022-03-01T16:01:42Z</time>
      </trkpt>
      <trkpt lat="40.1430420" lon="-4.7147510">
        <ele>1141.5</ele>
        <time>2022-03-01T16:01:43Z</time>
      </trkpt>
      <trkpt lat="40.1430130" lon="-4.7147800">
        <ele>1141.7</ele>
        <time>2022-03-01T16:01:44Z</time>
      </trkpt>
      <trkpt lat="40.1429780" lon="-4.7148220">
        <ele>1142.1</ele>
        <time>2022-03-01T16:01:45Z</time>
      </trkpt>
      <trkpt lat="40.1429520" lon="-4.7148550">
        <ele>1142.3</ele>
        <time>2022-03-01T16:01:46Z</time>
      </trkpt>
      <trkpt lat="40.1429100" lon="-4.7148990">
        <ele>1142.7</ele>
        <time>2022-03-01T16:01:47Z</time>
      </trkpt>
      <trkpt lat="40.1428780" lon="-4.7149370">
        <ele>1143.0</ele>
        <time>2022-03-01T16:01:48Z</time>
      </trkpt>
      <trkpt lat="40.1428510" lon="-4.7149490">
        <ele>1143.2</ele>
        <time>2022-03-01T16:01:49Z</time>
      </trkpt>
      <trkpt lat="40.1428250" lon="-4.7149660">
        <ele>1143.4</ele>
        <time>2022-03-01T16:01:50Z</time>
      </trkpt>
      <trkpt lat="40.1427870" lon="-4.7149690">
        <ele>1143.7</ele>
        <time>2022-03-01T16:01:51Z</time>
      </trkpt>
      <trkpt lat="40.1427570" lon="-4.7149700">
        <ele>1143.9</ele>
        <time>2022-03-01T16:01:52Z</time>
      </trkpt>
      <trkpt lat="40.1427280" lon="-4.7149920">
        <ele>1144.1</ele>
        <time>2022-03-01T16:01:53Z</time>
      </trkpt>
      <trkpt lat="40.1426940" lon="-4.7150200">
        <ele>1144.4</ele>
        <time>2022-03-01T16:01:54Z</time>
      </trkpt>
      <trkpt lat="40.1426790" lon="-4.7150300">
        <ele>1144.6</ele>
        <time>2022-03-01T16:01:55Z</time>
      </trkpt>
      <trkpt lat="40.1426510" lon="-4.7150360">
        <ele>1144.8</ele>
        <time>2022-03-01T16:01:56Z</time>
      </trkpt>
      <trkpt lat="40.1426290" lon="-4.7150650">
        <ele>1145.0</ele>
        <time>2022-03-01T16:01:57Z</time>
      </trkpt>
      <trkpt lat="40.1425980" lon="-4.7150910">
        <ele>1145.3</ele>
        <time>2022-03-01T16:01:58Z</time>
      </trkpt>
      <trkpt lat="40.1425870" lon="-4.7151010">
        <ele>1145.5</ele>
        <time>2022-03-01T16:01:59Z</time>
      </trkpt>
      <trkpt lat="40.1425560" lon="-4.7151200">
        <ele>1145.7</ele>
        <time>2022-03-01T16:02:00Z</time>
      </trkpt>
      <trkpt lat="40.1425460" lon="-4.7151200">
        <ele>1145.8</ele>
        <time>2022-03-01T16:02:01Z</time>
      </trkpt>
      <trkpt lat="40.1425230" lon="-4.7151370">
        <ele>1146.1</ele>
        <time>2022-03-01T16:02:02Z</time>
      </trkpt>
      <trkpt lat="40.1424900" lon="-4.7151640">
        <ele>1146.4</ele>
        <time>2022-03-01T16:02:04Z</time>
      </trkpt>
      <trkpt lat="40.1424620" lon="-4.7151730">
        <ele>1146.6</ele>
        <time>2022-03-01T16:02:05Z</time>
      </trkpt>
      <trkpt lat="40.1424190" lon="-4.7151920">
        <ele>1147.1</ele>
        <time>2022-03-01T16:02:06Z</time>
      </trkpt>
      <trkpt lat="40.1424030" lon="-4.7152050">
        <ele>1147.2</ele>
        <time>2022-03-01T16:02:07Z</time>
      </trkpt>
      <trkpt lat="40.1423670" lon="-4.7152270">
        <ele>1147.6</ele>
        <time>2022-03-01T16:02:08Z</time>
      </trkpt>
      <trkpt lat="40.1423530" lon="-4.7152300">
        <ele>1147.7</ele>
        <time>2022-03-01T16:02:09Z</time>
      </trkpt>
      <trkpt lat="40.1423330" lon="-4.7152580">
        <ele>1148.0</ele>
        <time>2022-03-01T16:02:10Z</time>
      </trkpt>
      <trkpt lat="40.1423090" lon="-4.7152750">
        <ele>1148.3</ele>
        <time>2022-03-01T16:02:11Z</time>
      </trkpt>
      <trkpt lat="40.1422840" lon="-4.7152960">
        <ele>1148.6</ele>
        <time>2022-03-01T16:02:12Z</time>
      </trkpt>
      <trkpt lat="40.1422460" lon="-4.7152970">
        <ele>1148.9</ele>
        <time>2022-03-01T16:02:13Z</time>
      </trkpt>
      <trkpt lat="40.1422040" lon="-4.7153080">
        <ele>1149.4</ele>
        <time>2022-03-01T16:02:14Z</time>
      </trkpt>
      <trkpt lat="40.1421890" lon="-4.7153230">
        <ele>1149.5</ele>
        <time>2022-03-01T16:02:15Z</time>
      </trkpt>
      <trkpt lat="40.1421600" lon="-4.7153530">
        <ele>1149.9</ele>
        <time>2022-03-01T16:02:16Z</time>
      </trkpt>
      <trkpt lat="40.1421190" lon="-4.7153460">
        <ele>1150.3</ele>
        <time>2022-03-01T16:02:17Z</time>
      </trkpt>
      <trkpt lat="40.1420780" lon="-4.7153680">
        <ele>1150.8</ele>
        <time>2022-03-01T16:02:18Z</time>
      </trkpt>
      <trkpt lat="40.1420610" lon="-4.7153740">
        <ele>1150.9</ele>
        <time>2022-03-01T16:02:19Z</time>
      </trkpt>
      <trkpt lat="40.1420320" lon="-4.7153900">
        <ele>1151.2</ele>
        <time>2022-03-01T16:02:20Z</time>
      </trkpt>
      <trkpt lat="40.1419950" lon="-4.7154020">
        <ele>1151.6</ele>
        <time>2022-03-01T16:02:21Z</time>
      </trkpt>
      <trkpt lat="40.1419820" lon="-4.7154170">
        <ele>1151.7</ele>
        <time>2022-03-01T16:02:22Z</time>
      </trkpt>
      <trkpt lat="40.1419460" lon="-4.7154410">
        <ele>1152.1</ele>
        <time>2022-03-01T16:02:23Z</time>
      </trkpt>
      <trkpt lat="40.1419350" lon="-4.7154530">
        <ele>1152.2</ele>
        <time>2022-03-01T16:02:24Z</time>
      </trkpt>
      <trkpt lat="40.1418920" lon="-4.7154730">
        <ele>1152.6</ele>
        <time>2022-03-01T16:02:25Z</time>
      </trkpt>
      <trkpt lat="40.1418730" lon="-4.7154830">
        <ele>1152.8</ele>
        <time>2022-03-01T16:02:26Z</time>
      </trkpt>
      <trkpt lat="40.1418280" lon="-4.7155040">
        <ele>1153.2</ele>
        <time>2022-03-01T16:02:27Z</time>
      </trkpt>
      <trkpt lat="40.1417940" lon="-4.7155300">
        <ele>1153.5</ele>
        <time>2022-03-01T16:02:28Z</time>
      </trkpt>
      <trkpt lat="40.1417590" lon="-4.7155500">
        <ele>1153.8</ele>
        <time>2022-03-01T16:02:29Z</time>
      </trkpt>
      <trkpt lat="40.1417250" lon="-4.7155750">
        <ele>1154.1</ele>
        <time>2022-03-01T16:02:30Z</time>
      </trkpt>
      <trkpt lat="40.1416870" lon="-4.7155920">
        <ele>1154.4</ele>
        <time>2022-03-01T16:02:31Z</time>
      </trkpt>
      <trkpt lat="40.1416450" lon="-4.7156080">
        <ele>1154.8</ele>
        <time>2022-03-01T16:02:32Z</time>
      </trkpt>
      <trkpt lat="40.1416000" lon="-4.7156160">
        <ele>1155.1</ele>
        <time>2022-03-01T16:02:33Z</time>
      </trkpt>
      <trkpt lat="40.1415710" lon="-4.7156280">
        <ele>1155.4</ele>
        <time>2022-03-01T16:02:34Z</time>
      </trkpt>
      <trkpt lat="40.1415270" lon="-4.7156510">
        <ele>1155.7</ele>
        <time>2022-03-01T16:02:35Z</time>
      </trkpt>
      <trkpt lat="40.1414980" lon="-4.7156530">
        <ele>1156.0</ele>
        <time>2022-03-01T16:02:36Z</time>
      </trkpt>
      <trkpt lat="40.1414510" lon="-4.7156410">
        <ele>1156.4</ele>
        <time>2022-03-01T16:02:37Z</time>
      </trkpt>
      <trkpt lat="40.1414020" lon="-4.7156370">
        <ele>1156.8</ele>
        <time>2022-03-01T16:02:38Z</time>
      </trkpt>
      <trkpt lat="40.1413620" lon="-4.7156470">
        <ele>1157.1</ele>
        <time>2022-03-01T16:02:39Z</time>
      </trkpt>
      <trkpt lat="40.1413410" lon="-4.7156550">
        <ele>1157.3</ele>
        <time>2022-03-01T16:02:40Z</time>
      </trkpt>
      <trkpt lat="40.1413020" lon="-4.7156660">
        <ele>1157.6</ele>
        <time>2022-03-01T16:02:41Z</time>
      </trkpt>
      <trkpt lat="40.1412640" lon="-4.7156830">
        <ele>1157.9</ele>
        <time>2022-03-01T16:02:42Z</time>
      </trkpt>
      <trkpt lat="40.1412280" lon="-4.7157000">
        <ele>1158.2</ele>
        <time>2022-03-01T16:02:43Z</time>
      </trkpt>
      <trkpt lat="40.1412170" lon="-4.7157050">
        <ele>1158.3</ele>
        <time>2022-03-01T16:02:44Z</time>
      </trkpt>
      <trkpt lat="40.1411900" lon="-4.7157210">
        <ele>1158.5</ele>
        <time>2022-03-01T16:02:45Z</time>
      </trkpt>
      <trkpt lat="40.1411590" lon="-4.7157370">
        <ele>1158.7</ele>
        <time>2022-03-01T16:02:46Z</time>
      </trkpt>
      <trkpt lat="40.1411280" lon="-4.7157590">
        <ele>1159.0</ele>
        <time>2022-03-01T16:02:47Z</time>
      </trkpt>
      <trkpt lat="40.1410910" lon="-4.7157890">
        <ele>1159.3</ele>
        <time>2022-03-01T16:02:48Z</time>
      </trkpt>
      <trkpt lat="40.1410520" lon="-4.7158080">
        <ele>1159.5</ele>
        <time>2022-03-01T16:02:49Z</time>
      </trkpt>
      <trkpt lat="40.1410210" lon="-4.7158410">
        <ele>1159.7</ele>
        <time>2022-03-01T16:02:50Z</time>
      </trkpt>
      <trkpt lat="40.1409880" lon="-4.7158720">
        <ele>1159.8</ele>
        <time>2022-03-01T16:02:51Z</time>
      </trkpt>
      <trkpt lat="40.1409560" lon="-4.7158990">
        <ele>1160.0</ele>
        <time>2022-03-01T16:02:52Z</time>
      </trkpt>
      <trkpt lat="40.1409270" lon="-4.7159330">
        <ele>1160.1</ele>
        <time>2022-03-01T16:02:53Z</time>
      </trkpt>
      <trkpt lat="40.1408900" lon="-4.7159530">
        <ele>1160.3</ele>
        <time>2022-03-01T16:02:54Z</time>
      </trkpt>
      <trkpt lat="40.1408570" lon="-4.7159890">
        <ele>1160.4</ele>
        <time>2022-03-01T16:02:55Z</time>
      </trkpt>
      <trkpt lat="40.1408230" lon="-4.7160380">
        <ele>1160.6</ele>
        <time>2022-03-01T16:02:56Z</time>
      </trkpt>
      <trkpt lat="40.1407850" lon="-4.7160670">
        <ele>1160.7</ele>
        <time>2022-03-01T16:02:57Z</time>
      </trkpt>
      <trkpt lat="40.1407460" lon="-4.7160880">
        <ele>1160.9</ele>
        <time>2022-03-01T16:02:58Z</time>
      </trkpt>
      <trkpt lat="40.1407290" lon="-4.7160980">
        <ele>1161.0</ele>
        <time>2022-03-01T16:02:59Z</time>
      </trkpt>
      <trkpt lat="40.1407030" lon="-4.7161320">
        <ele>1161.1</ele>
        <time>2022-03-01T16:03:00Z</time>
      </trkpt>
      <trkpt lat="40.1406730" lon="-4.7161620">
        <ele>1161.3</ele>
        <time>2022-03-01T16:03:01Z</time>
      </trkpt>
      <trkpt lat="40.1406350" lon="-4.7161940">
        <ele>1161.5</ele>
        <time>2022-03-01T16:03:02Z</time>
      </trkpt>
      <trkpt lat="40.1406190" lon="-4.7162160">
        <ele>1161.7</ele>
        <time>2022-03-01T16:03:03Z</time>
      </trkpt>
      <trkpt lat="40.1405800" lon="-4.7162590">
        <ele>1161.9</ele>
        <time>2022-03-01T16:03:04Z</time>
      </trkpt>
      <trkpt lat="40.1405520" lon="-4.7162880">
        <ele>1162.1</ele>
        <time>2022-03-01T16:03:05Z</time>
      </trkpt>
      <trkpt lat="40.1405040" lon="-4.7163210">
        <ele>1162.4</ele>
        <time>2022-03-01T16:03:06Z</time>
      </trkpt>
      <trkpt lat="40.1404570" lon="-4.7163670">
        <ele>1162.7</ele>
        <time>2022-03-01T16:03:07Z</time>
      </trkpt>
      <trkpt lat="40.1404270" lon="-4.7164020">
        <ele>1163.0</ele>
        <time>2022-03-01T16:03:08Z</time>
      </trkpt>
      <trkpt lat="40.1403900" lon="-4.7164380">
        <ele>1163.3</ele>
        <time>2022-03-01T16:03:09Z</time>
      </trkpt>
      <trkpt lat="40.1403590" lon="-4.7164620">
        <ele>1163.5</ele>
        <time>2022-03-01T16:03:10Z</time>
      </trkpt>
      <trkpt lat="40.1403280" lon="-4.7164900">
        <ele>1163.7</ele>
        <time>2022-03-01T16:03:11Z</time>
      </trkpt>
      <trkpt lat="40.1403010" lon="-4.7165280">
        <ele>1164.0</ele>
        <time>2022-03-01T16:03:12Z</time>
      </trkpt>
      <trkpt lat="40.1402650" lon="-4.7165660">
        <ele>1164.3</ele>
        <time>2022-03-01T16:03:13Z</time>
      </trkpt>
      <trkpt lat="40.1402330" lon="-4.7165880">
        <ele>1164.5</ele>
        <time>2022-03-01T16:03:14Z</time>
      </trkpt>
      <trkpt lat="40.1402010" lon="-4.7165970">
        <ele>1164.7</ele>
        <time>2022-03-01T16:03:15Z</time>
      </trkpt>
      <trkpt lat="40.1401780" lon="-4.7166230">
        <ele>1164.9</ele>
        <time>2022-03-01T16:03:16Z</time>
      </trkpt>
      <trkpt lat="40.1401470" lon="-4.7166580">
        <ele>1165.2</ele>
        <time>2022-03-01T16:03:17Z</time>
      </trkpt>
      <trkpt lat="40.1401210" lon="-4.7166890">
        <ele>1165.5</ele>
        <time>2022-03-01T16:03:18Z</time>
      </trkpt>
      <trkpt lat="40.1400920" lon="-4.7167240">
        <ele>1165.7</ele>
        <time>2022-03-01T16:03:19Z</time>
      </trkpt>
      <trkpt lat="40.1400660" lon="-4.7167600">
        <ele>1166.0</ele>
        <time>2022-03-01T16:03:20Z</time>
      </trkpt>
      <trkpt lat="40.1400300" lon="-4.7167810">
        <ele>1166.3</ele>
        <time>2022-03-01T16:03:21Z</time>
      </trkpt>
      <trkpt lat="40.1400050" lon="-4.7168010">
        <ele>1166.5</ele>
        <time>2022-03-01T16:03:22Z</time>
      </trkpt>
      <trkpt lat="40.1399690" lon="-4.7168300">
        <ele>1166.7</ele>
        <time>2022-03-01T16:03:23Z</time>
      </trkpt>
      <trkpt lat="40.1399580" lon="-4.7168440">
        <ele>1166.9</ele>
        <time>2022-03-01T16:03:24Z</time>
      </trkpt>
      <trkpt lat="40.1399210" lon="-4.7168850">
        <ele>1167.2</ele>
        <time>2022-03-01T16:03:25Z</time>
      </trkpt>
      <trkpt lat="40.1398950" lon="-4.7169060">
        <ele>1167.4</ele>
        <time>2022-03-01T16:03:26Z</time>
      </trkpt>
      <trkpt lat="40.1398640" lon="-4.7169410">
        <ele>1167.8</ele>
        <time>2022-03-01T16:03:27Z</time>
      </trkpt>
      <trkpt lat="40.1398270" lon="-4.7169670">
        <ele>1168.1</ele>
        <time>2022-03-01T16:03:28Z</time>
      </trkpt>
      <trkpt lat="40.1397930" lon="-4.7169940">
        <ele>1168.4</ele>
        <time>2022-03-01T16:03:29Z</time>
      </trkpt>
      <trkpt lat="40.1397680" lon="-4.7170210">
        <ele>1168.7</ele>
        <time>2022-03-01T16:03:30Z</time>
      </trkpt>
      <trkpt lat="40.1397460" lon="-4.7170610">
        <ele>1169.0</ele>
        <time>2022-03-01T16:03:31Z</time>
      </trkpt>
      <trkpt lat="40.1397130" lon="-4.7171000">
        <ele>1169.3</ele>
        <time>2022-03-01T16:03:32Z</time>
      </trkpt>
      <trkpt lat="40.1396950" lon="-4.7171220">
        <ele>1169.5</ele>
        <time>2022-03-01T16:03:33Z</time>
      </trkpt>
      <trkpt lat="40.1396540" lon="-4.7171540">
        <ele>1169.9</ele>
        <time>2022-03-01T16:03:34Z</time>
      </trkpt>
      <trkpt lat="40.1396340" lon="-4.7171770">
        <ele>1170.1</ele>
        <time>2022-03-01T16:03:35Z</time>
      </trkpt>
      <trkpt lat="40.1396060" lon="-4.7172060">
        <ele>1170.4</ele>
        <time>2022-03-01T16:03:36Z</time>
      </trkpt>
      <trkpt lat="40.1395940" lon="-4.7172210">
        <ele>1170.5</ele>
        <time>2022-03-01T16:03:37Z</time>
      </trkpt>
      <trkpt lat="40.1395720" lon="-4.7172640">
        <ele>1170.8</ele>
        <time>2022-03-01T16:03:38Z</time>
      </trkpt>
      <trkpt lat="40.1395320" lon="-4.7173070">
        <ele>1171.1</ele>
        <time>2022-03-01T16:03:39Z</time>
      </trkpt>
      <trkpt lat="40.1395120" lon="-4.7173340">
        <ele>1171.3</ele>
        <time>2022-03-01T16:03:40Z</time>
      </trkpt>
      <trkpt lat="40.1394760" lon="-4.7173760">
        <ele>1171.7</ele>
        <time>2022-03-01T16:03:41Z</time>
      </trkpt>
      <trkpt lat="40.1394490" lon="-4.7174030">
        <ele>1171.9</ele>
        <time>2022-03-01T16:03:42Z</time>
      </trkpt>
      <trkpt lat="40.1394270" lon="-4.7174400">
        <ele>1172.2</ele>
        <time>2022-03-01T16:03:43Z</time>
      </trkpt>
      <trkpt lat="40.1394150" lon="-4.7174570">
        <ele>1172.3</ele>
        <time>2022-03-01T16:03:44Z</time>
      </trkpt>
      <trkpt lat="40.1393870" lon="-4.7175050">
        <ele>1172.6</ele>
        <time>2022-03-01T16:03:45Z</time>
      </trkpt>
      <trkpt lat="40.1393720" lon="-4.7175270">
        <ele>1172.8</ele>
        <time>2022-03-01T16:03:46Z</time>
      </trkpt>
      <trkpt lat="40.1393380" lon="-4.7175580">
        <ele>1173.1</ele>
        <time>2022-03-01T16:03:47Z</time>
      </trkpt>
      <trkpt lat="40.1393230" lon="-4.7175680">
        <ele>1173.2</ele>
        <time>2022-03-01T16:03:48Z</time>
      </trkpt>
      <trkpt lat="40.1393030" lon="-4.7175980">
        <ele>1173.4</ele>
        <time>2022-03-01T16:03:49Z</time>
      </trkpt>
      <trkpt lat="40.1392620" lon="-4.7176340">
        <ele>1173.8</ele>
        <time>2022-03-01T16:03:50Z</time>
      </trkpt>
      <trkpt lat="40.1392300" lon="-4.7176930">
        <ele>1174.2</ele>
        <time>2022-03-01T16:03:51Z</time>
      </trkpt>
      <trkpt lat="40.1391990" lon="-4.7177460">
        <ele>1174.5</ele>
        <time>2022-03-01T16:03:52Z</time>
      </trkpt>
      <trkpt lat="40.1391700" lon="-4.7177960">
        <ele>1174.9</ele>
        <time>2022-03-01T16:03:53Z</time>
      </trkpt>
      <trkpt lat="40.1391560" lon="-4.7178190">
        <ele>1175.0</ele>
        <time>2022-03-01T16:03:54Z</time>
      </trkpt>
      <trkpt lat="40.1391380" lon="-4.7178660">
        <ele>1175.3</ele>
        <time>2022-03-01T16:03:55Z</time>
      </trkpt>
      <trkpt lat="40.1391180" lon="-4.7179170">
        <ele>1175.6</ele>
        <time>2022-03-01T16:03:56Z</time>
      </trkpt>
      <trkpt lat="40.1391130" lon="-4.7179680">
        <ele>1175.9</ele>
        <time>2022-03-01T16:03:57Z</time>
      </trkpt>
      <trkpt lat="40.1390790" lon="-4.7179900">
        <ele>1176.2</ele>
        <time>2022-03-01T16:03:58Z</time>
      </trkpt>
      <trkpt lat="40.1390510" lon="-4.7180310">
        <ele>1176.5</ele>
        <time>2022-03-01T16:03:59Z</time>
      </trkpt>
      <trkpt lat="40.1390230" lon="-4.7180750">
        <ele>1176.9</ele>
        <time>2022-03-01T16:04:00Z</time>
      </trkpt>
      <trkpt lat="40.1389900" lon="-4.7180970">
        <ele>1177.2</ele>
        <time>2022-03-01T16:04:01Z</time>
      </trkpt>
      <trkpt lat="40.1389620" lon="-4.7181360">
        <ele>1177.5</ele>
        <time>2022-03-01T16:04:02Z</time>
      </trkpt>
      <trkpt lat="40.1389340" lon="-4.7181650">
        <ele>1177.8</ele>
        <time>2022-03-01T16:04:03Z</time>
      </trkpt>
      <trkpt lat="40.1388970" lon="-4.7182010">
        <ele>1178.2</ele>
        <time>2022-03-01T16:04:04Z</time>
      </trkpt>
      <trkpt lat="40.1388590" lon="-4.7182540">
        <ele>1178.6</ele>
        <time>2022-03-01T16:04:05Z</time>
      </trkpt>
      <trkpt lat="40.1388240" lon="-4.7182800">
        <ele>1179.0</ele>
        <time>2022-03-01T16:04:06Z</time>
      </trkpt>
      <trkpt lat="40.1388010" lon="-4.7183170">
        <ele>1179.3</ele>
        <time>2022-03-01T16:04:07Z</time>
      </trkpt>
      <trkpt lat="40.1387760" lon="-4.7183560">
        <ele>1179.6</ele>
        <time>2022-03-01T16:04:08Z</time>
      </trkpt>
      <trkpt lat="40.1387390" lon="-4.7183840">
        <ele>1179.9</ele>
        <time>2022-03-01T16:04:10Z</time>
      </trkpt>
      <trkpt lat="40.1387030" lon="-4.7184180">
        <ele>1180.3</ele>
        <time>2022-03-01T16:04:11Z</time>
      </trkpt>
      <trkpt lat="40.1386670" lon="-4.7184480">
        <ele>1180.6</ele>
        <time>2022-03-01T16:04:12Z</time>
      </trkpt>
      <trkpt lat="40.1386500" lon="-4.7184810">
        <ele>1180.8</ele>
        <time>2022-03-01T16:04:13Z</time>
      </trkpt>
      <trkpt lat="40.1386190" lon="-4.7185040">
        <ele>1181.1</ele>
        <time>2022-03-01T16:04:14Z</time>
      </trkpt>
      <trkpt lat="40.1385800" lon="-4.7185410">
        <ele>1181.5</ele>
        <time>2022-03-01T16:04:15Z</time>
      </trkpt>
      <trkpt lat="40.1385650" lon="-4.7185630">
        <ele>1181.6</ele>
        <time>2022-03-01T16:04:16Z</time>
      </trkpt>
      <trkpt lat="40.1385240" lon="-4.7186170">
        <ele>1182.0</ele>
        <time>2022-03-01T16:04:17Z</time>
      </trkpt>
      <trkpt lat="40.1384850" lon="-4.7186400">
        <ele>1182.3</ele>
        <time>2022-03-01T16:04:18Z</time>
      </trkpt>
      <trkpt lat="40.1384610" lon="-4.7186630">
        <ele>1182.5</ele>
        <time>2022-03-01T16:04:19Z</time>
      </trkpt>
      <trkpt lat="40.1384360" lon="-4.7186910">
        <ele>1182.8</ele>
        <time>2022-03-01T16:04:20Z</time>
      </trkpt>
      <trkpt lat="40.1384030" lon="-4.7187140">
        <ele>1183.0</ele>
        <time>2022-03-01T16:04:21Z</time>
      </trkpt>
      <trkpt lat="40.1383720" lon="-4.7187350">
        <ele>1183.3</ele>
        <time>2022-03-01T16:04:22Z</time>
      </trkpt>
      <trkpt lat="40.1383420" lon="-4.7187590">
        <ele>1183.6</ele>
        <time>2022-03-01T16:04:23Z</time>
      </trkpt>
      <trkpt lat="40.1382950" lon="-4.7187820">
        <ele>1183.8</ele>
        <time>2022-03-01T16:04:24Z</time>
      </trkpt>
      <trkpt lat="40.1382620" lon="-4.7188090">
        <ele>1183.8</ele>
        <time>2022-03-01T16:04:25Z</time>
      </trkpt>
      <trkpt lat="40.1382200" lon="-4.7188180">
        <ele>1183.7</ele>
        <time>2022-03-01T16:04:26Z</time>
      </trkpt>
      <trkpt lat="40.1381820" lon="-4.7188290">
        <ele>1183.7</ele>
        <time>2022-03-01T16:04:27Z</time>
      </trkpt>
      <trkpt lat="40.1381410" lon="-4.7188450">
        <ele>1183.8</ele>
        <time>2022-03-01T16:04:28Z</time>
      </trkpt>
      <trkpt lat="40.1380980" lon="-4.7188770">
        <ele>1184.0</ele>
        <time>2022-03-01T16:04:29Z</time>
      </trkpt>
      <trkpt lat="40.1380600" lon="-4.7189030">
        <ele>1184.3</ele>
        <time>2022-03-01T16:04:30Z</time>
      </trkpt>
      <trkpt lat="40.1380230" lon="-4.7189190">
        <ele>1184.5</ele>
        <time>2022-03-01T16:04:31Z</time>
      </trkpt>
      <trkpt lat="40.1379820" lon="-4.7189440">
        <ele>1184.8</ele>
        <time>2022-03-01T16:04:32Z</time>
      </trkpt>
      <trkpt lat="40.1379530" lon="-4.7189680">
        <ele>1185.0</ele>
        <time>2022-03-01T16:04:33Z</time>
      </trkpt>
      <trkpt lat="40.1379200" lon="-4.7189960">
        <ele>1185.3</ele>
        <time>2022-03-01T16:04:34Z</time>
      </trkpt>
      <trkpt lat="40.1378860" lon="-4.7190170">
        <ele>1185.6</ele>
        <time>2022-03-01T16:04:35Z</time>
      </trkpt>
      <trkpt lat="40.1378550" lon="-4.7190480">
        <ele>1185.9</ele>
        <time>2022-03-01T16:04:36Z</time>
      </trkpt>
      <trkpt lat="40.1378280" lon="-4.7190840">
        <ele>1186.2</ele>
        <time>2022-03-01T16:04:37Z</time>
      </trkpt>
      <trkpt lat="40.1378020" lon="-4.7191150">
        <ele>1186.4</ele>
        <time>2022-03-01T16:04:38Z</time>
      </trkpt>
      <trkpt lat="40.1377790" lon="-4.7191340">
        <ele>1186.7</ele>
        <time>2022-03-01T16:04:39Z</time>
      </trkpt>
      <trkpt lat="40.1377600" lon="-4.7191610">
        <ele>1186.9</ele>
        <time>2022-03-01T16:04:40Z</time>
      </trkpt>
      <trkpt lat="40.1377360" lon="-4.7191930">
        <ele>1187.2</ele>
        <time>2022-03-01T16:04:41Z</time>
      </trkpt>
      <trkpt lat="40.1377150" lon="-4.7192370">
        <ele>1187.5</ele>
        <time>2022-03-01T16:04:42Z</time>
      </trkpt>
      <trkpt lat="40.1377020" lon="-4.7192760">
        <ele>1187.8</ele>
        <time>2022-03-01T16:04:43Z</time>
      </trkpt>
      <trkpt lat="40.1376820" lon="-4.7193180">
        <ele>1188.1</ele>
        <time>2022-03-01T16:04:44Z</time>
      </trkpt>
      <trkpt lat="40.1376580" lon="-4.7193480">
        <ele>1188.3</ele>
        <time>2022-03-01T16:04:45Z</time>
      </trkpt>
      <trkpt lat="40.1376540" lon="-4.7193940">
        <ele>1188.6</ele>
        <time>2022-03-01T16:04:46Z</time>
      </trkpt>
      <trkpt lat="40.1376410" lon="-4.7194300">
        <ele>1188.9</ele>
        <time>2022-03-01T16:04:47Z</time>
      </trkpt>
      <trkpt lat="40.1376250" lon="-4.7194750">
        <ele>1189.2</ele>
        <time>2022-03-01T16:04:48Z</time>
      </trkpt>
      <trkpt lat="40.1376180" lon="-4.7194950">
        <ele>1189.3</ele>
        <time>2022-03-01T16:04:49Z</time>
      </trkpt>
      <trkpt lat="40.1376170" lon="-4.7195400">
        <ele>1189.6</ele>
        <time>2022-03-01T16:04:50Z</time>
      </trkpt>
      <trkpt lat="40.1376170" lon="-4.7195860">
        <ele>1189.8</ele>
        <time>2022-03-01T16:04:51Z</time>
      </trkpt>
      <trkpt lat="40.1376070" lon="-4.7196250">
        <ele>1190.1</ele>
        <time>2022-03-01T16:04:52Z</time>
      </trkpt>
      <trkpt lat="40.1376030" lon="-4.7196650">
        <ele>1190.3</ele>
        <time>2022-03-01T16:04:53Z</time>
      </trkpt>
      <trkpt lat="40.1375980" lon="-4.7197060">
        <ele>1190.5</ele>
        <time>2022-03-01T16:04:54Z</time>
      </trkpt>
      <trkpt lat="40.1375930" lon="-4.7197420">
        <ele>1190.7</ele>
        <time>2022-03-01T16:04:55Z</time>
      </trkpt>
      <trkpt lat="40.1375940" lon="-4.7197840">
        <ele>1190.9</ele>
        <time>2022-03-01T16:04:56Z</time>
      </trkpt>
      <trkpt lat="40.1375860" lon="-4.7198250">
        <ele>1191.1</ele>
        <time>2022-03-01T16:04:57Z</time>
      </trkpt>
      <trkpt lat="40.1375870" lon="-4.7198680">
        <ele>1191.4</ele>
        <time>2022-03-01T16:04:58Z</time>
      </trkpt>
      <trkpt lat="40.1375850" lon="-4.7199040">
        <ele>1191.6</ele>
        <time>2022-03-01T16:04:59Z</time>
      </trkpt>
      <trkpt lat="40.1375870" lon="-4.7199580">
        <ele>1191.9</ele>
        <time>2022-03-01T16:05:00Z</time>
      </trkpt>
      <trkpt lat="40.1375840" lon="-4.7199780">
        <ele>1192.0</ele>
        <time>2022-03-01T16:05:01Z</time>
      </trkpt>
      <trkpt lat="40.1375820" lon="-4.7200180">
        <ele>1192.2</ele>
        <time>2022-03-01T16:05:02Z</time>
      </trkpt>
      <trkpt lat="40.1375790" lon="-4.7200850">
        <ele>1192.6</ele>
        <time>2022-03-01T16:05:03Z</time>
      </trkpt>
      <trkpt lat="40.1375790" lon="-4.7201200">
        <ele>1192.8</ele>
        <time>2022-03-01T16:05:04Z</time>
      </trkpt>
      <trkpt lat="40.1375730" lon="-4.7201580">
        <ele>1193.0</ele>
        <time>2022-03-01T16:05:05Z</time>
      </trkpt>
      <trkpt lat="40.1375670" lon="-4.7201940">
        <ele>1193.2</ele>
        <time>2022-03-01T16:05:06Z</time>
      </trkpt>
      <trkpt lat="40.1375730" lon="-4.7202380">
        <ele>1193.5</ele>
        <time>2022-03-01T16:05:07Z</time>
      </trkpt>
      <trkpt lat="40.1375650" lon="-4.7202810">
        <ele>1193.7</ele>
        <time>2022-03-01T16:05:08Z</time>
      </trkpt>
      <trkpt lat="40.1375660" lon="-4.7203180">
        <ele>1193.9</ele>
        <time>2022-03-01T16:05:09Z</time>
      </trkpt>
      <trkpt lat="40.1375640" lon="-4.7203560">
        <ele>1194.2</ele>
        <time>2022-03-01T16:05:10Z</time>
      </trkpt>
      <trkpt lat="40.1375640" lon="-4.7203920">
        <ele>1194.4</ele>
        <time>2022-03-01T16:05:11Z</time>
      </trkpt>
      <trkpt lat="40.1375650" lon="-4.7204320">
        <ele>1194.6</ele>
        <time>2022-03-01T16:05:12Z</time>
      </trkpt>
      <trkpt lat="40.1375640" lon="-4.7204840">
        <ele>1194.9</ele>
        <time>2022-03-01T16:05:13Z</time>
      </trkpt>
      <trkpt lat="40.1375640" lon="-4.7205010">
        <ele>1195.0</ele>
        <time>2022-03-01T16:05:14Z</time>
      </trkpt>
      <trkpt lat="40.1375710" lon="-4.7205430">
        <ele>1195.3</ele>
        <time>2022-03-01T16:05:15Z</time>
      </trkpt>
      <trkpt lat="40.1375650" lon="-4.7205870">
        <ele>1195.6</ele>
        <time>2022-03-01T16:05:16Z</time>
      </trkpt>
      <trkpt lat="40.1375640" lon="-4.7206430">
        <ele>1195.9</ele>
        <time>2022-03-01T16:05:17Z</time>
      </trkpt>
      <trkpt lat="40.1375600" lon="-4.7207060">
        <ele>1196.2</ele>
        <time>2022-03-01T16:05:18Z</time>
      </trkpt>
      <trkpt lat="40.1375610" lon="-4.7207660">
        <ele>1196.6</ele>
        <time>2022-03-01T16:05:19Z</time>
      </trkpt>
      <trkpt lat="40.1375650" lon="-4.7208170">
        <ele>1196.9</ele>
        <time>2022-03-01T16:05:20Z</time>
      </trkpt>
      <trkpt lat="40.1375630" lon="-4.7208810">
        <ele>1197.3</ele>
        <time>2022-03-01T16:05:21Z</time>
      </trkpt>
      <trkpt lat="40.1375600" lon="-4.7209370">
        <ele>1197.6</ele>
        <time>2022-03-01T16:05:22Z</time>
      </trkpt>
      <trkpt lat="40.1375520" lon="-4.7209860">
        <ele>1197.9</ele>
        <time>2022-03-01T16:05:23Z</time>
      </trkpt>
      <trkpt lat="40.1375500" lon="-4.7210410">
        <ele>1198.2</ele>
        <time>2022-03-01T16:05:24Z</time>
      </trkpt>
      <trkpt lat="40.1375490" lon="-4.7210920">
        <ele>1198.5</ele>
        <time>2022-03-01T16:05:25Z</time>
      </trkpt>
      <trkpt lat="40.1375470" lon="-4.7211330">
        <ele>1198.8</ele>
        <time>2022-03-01T16:05:26Z</time>
      </trkpt>
      <trkpt lat="40.1375390" lon="-4.7211810">
        <ele>1199.1</ele>
        <time>2022-03-01T16:05:27Z</time>
      </trkpt>
      <trkpt lat="40.1375320" lon="-4.7212190">
        <ele>1199.3</ele>
        <time>2022-03-01T16:05:28Z</time>
      </trkpt>
      <trkpt lat="40.1375220" lon="-4.7212710">
        <ele>1199.6</ele>
        <time>2022-03-01T16:05:29Z</time>
      </trkpt>
      <trkpt lat="40.1375070" lon="-4.7213300">
        <ele>1200.0</ele>
        <time>2022-03-01T16:05:30Z</time>
      </trkpt>
      <trkpt lat="40.1374980" lon="-4.7213830">
        <ele>1200.4</ele>
        <time>2022-03-01T16:05:31Z</time>
      </trkpt>
      <trkpt lat="40.1374880" lon="-4.7214350">
        <ele>1200.7</ele>
        <time>2022-03-01T16:05:32Z</time>
      </trkpt>
      <trkpt lat="40.1374770" lon="-4.7214870">
        <ele>1201.0</ele>
        <time>2022-03-01T16:05:33Z</time>
      </trkpt>
      <trkpt lat="40.1374680" lon="-4.7215240">
        <ele>1201.3</ele>
        <time>2022-03-01T16:05:34Z</time>
      </trkpt>
      <trkpt lat="40.1374550" lon="-4.7215900">
        <ele>1201.7</ele>
        <time>2022-03-01T16:05:35Z</time>
      </trkpt>
      <trkpt lat="40.1374400" lon="-4.7216390">
        <ele>1202.0</ele>
        <time>2022-03-01T16:05:36Z</time>
      </trkpt>
      <trkpt lat="40.1374250" lon="-4.7216990">
        <ele>1202.4</ele>
        <time>2022-03-01T16:05:37Z</time>
      </trkpt>
      <trkpt lat="40.1374140" lon="-4.7217540">
        <ele>1202.7</ele>
        <time>2022-03-01T16:05:38Z</time>
      </trkpt>
      <trkpt lat="40.1374020" lon="-4.7217920">
        <ele>1202.9</ele>
        <time>2022-03-01T16:05:39Z</time>
      </trkpt>
      <trkpt lat="40.1373840" lon="-4.7218370">
        <ele>1203.2</ele>
        <time>2022-03-01T16:05:40Z</time>
      </trkpt>
      <trkpt lat="40.1373700" lon="-4.7218750">
        <ele>1203.4</ele>
        <time>2022-03-01T16:05:41Z</time>
      </trkpt>
      <trkpt lat="40.1373560" lon="-4.7219190">
        <ele>1203.6</ele>
        <time>2022-03-01T16:05:42Z</time>
      </trkpt>
      <trkpt lat="40.1373420" lon="-4.7219610">
        <ele>1203.9</ele>
        <time>2022-03-01T16:05:43Z</time>
      </trkpt>
      <trkpt lat="40.1373280" lon="-4.7220030">
        <ele>1204.1</ele>
        <time>2022-03-01T16:05:44Z</time>
      </trkpt>
      <trkpt lat="40.1373120" lon="-4.7220460">
        <ele>1204.4</ele>
        <time>2022-03-01T16:05:45Z</time>
      </trkpt>
      <trkpt lat="40.1372920" lon="-4.7220900">
        <ele>1204.6</ele>
        <time>2022-03-01T16:05:46Z</time>
      </trkpt>
      <trkpt lat="40.1372790" lon="-4.7221320">
        <ele>1204.9</ele>
        <time>2022-03-01T16:05:47Z</time>
      </trkpt>
      <trkpt lat="40.1372660" lon="-4.7221810">
        <ele>1205.1</ele>
        <time>2022-03-01T16:05:48Z</time>
      </trkpt>
      <trkpt lat="40.1372540" lon="-4.7222220">
        <ele>1205.3</ele>
        <time>2022-03-01T16:05:49Z</time>
      </trkpt>
      <trkpt lat="40.1372390" lon="-4.7222650">
        <ele>1205.6</ele>
        <time>2022-03-01T16:05:50Z</time>
      </trkpt>
      <trkpt lat="40.1372240" lon="-4.7223200">
        <ele>1205.8</ele>
        <time>2022-03-01T16:05:51Z</time>
      </trkpt>
      <trkpt lat="40.1372000" lon="-4.7223730">
        <ele>1206.1</ele>
        <time>2022-03-01T16:05:52Z</time>
      </trkpt>
      <trkpt lat="40.1371800" lon="-4.7224240">
        <ele>1206.4</ele>
        <time>2022-03-01T16:05:53Z</time>
      </trkpt>
      <trkpt lat="40.1371650" lon="-4.7224530">
        <ele>1206.6</ele>
        <time>2022-03-01T16:05:54Z</time>
      </trkpt>
      <trkpt lat="40.1371490" lon="-4.7224900">
        <ele>1206.8</ele>
        <time>2022-03-01T16:05:55Z</time>
      </trkpt>
      <trkpt lat="40.1371300" lon="-4.7225320">
        <ele>1207.0</ele>
        <time>2022-03-01T16:05:56Z</time>
      </trkpt>
      <trkpt lat="40.1371100" lon="-4.7225780">
        <ele>1207.3</ele>
        <time>2022-03-01T16:05:57Z</time>
      </trkpt>
      <trkpt lat="40.1370870" lon="-4.7226160">
        <ele>1207.5</ele>
        <time>2022-03-01T16:05:58Z</time>
      </trkpt>
      <trkpt lat="40.1370690" lon="-4.7226520">
        <ele>1207.8</ele>
        <time>2022-03-01T16:05:59Z</time>
      </trkpt>
      <trkpt lat="40.1370500" lon="-4.7226970">
        <ele>1208.0</ele>
        <time>2022-03-01T16:06:00Z</time>
      </trkpt>
      <trkpt lat="40.1370350" lon="-4.7227300">
        <ele>1208.2</ele>
        <time>2022-03-01T16:06:01Z</time>
      </trkpt>
      <trkpt lat="40.1370190" lon="-4.7227690">
        <ele>1208.4</ele>
        <time>2022-03-01T16:06:02Z</time>
      </trkpt>
      <trkpt lat="40.1370040" lon="-4.7228070">
        <ele>1208.6</ele>
        <time>2022-03-01T16:06:03Z</time>
      </trkpt>
      <trkpt lat="40.1369850" lon="-4.7228510">
        <ele>1208.9</ele>
        <time>2022-03-01T16:06:04Z</time>
      </trkpt>
      <trkpt lat="40.1369740" lon="-4.7228950">
        <ele>1209.1</ele>
        <time>2022-03-01T16:06:05Z</time>
      </trkpt>
      <trkpt lat="40.1369630" lon="-4.7229380">
        <ele>1209.4</ele>
        <time>2022-03-01T16:06:06Z</time>
      </trkpt>
      <trkpt lat="40.1369510" lon="-4.7229870">
        <ele>1209.6</ele>
        <time>2022-03-01T16:06:07Z</time>
      </trkpt>
      <trkpt lat="40.1369420" lon="-4.7230220">
        <ele>1209.8</ele>
        <time>2022-03-01T16:06:08Z</time>
      </trkpt>
      <trkpt lat="40.1369370" lon="-4.7230660">
        <ele>1210.0</ele>
        <time>2022-03-01T16:06:09Z</time>
      </trkpt>
      <trkpt lat="40.1369330" lon="-4.7231010">
        <ele>1210.2</ele>
        <time>2022-03-01T16:06:10Z</time>
      </trkpt>
      <trkpt lat="40.1369260" lon="-4.7231420">
        <ele>1210.4</ele>
        <time>2022-03-01T16:06:11Z</time>
      </trkpt>
      <trkpt lat="40.1369220" lon="-4.7231700">
        <ele>1210.5</ele>
        <time>2022-03-01T16:06:12Z</time>
      </trkpt>
      <trkpt lat="40.1369270" lon="-4.7232170">
        <ele>1210.8</ele>
        <time>2022-03-01T16:06:13Z</time>
      </trkpt>
      <trkpt lat="40.1369290" lon="-4.7232480">
        <ele>1210.9</ele>
        <time>2022-03-01T16:06:14Z</time>
      </trkpt>
      <trkpt lat="40.1369260" lon="-4.7233100">
        <ele>1211.2</ele>
        <time>2022-03-01T16:06:16Z</time>
      </trkpt>
      <trkpt lat="40.1369180" lon="-4.7233620">
        <ele>1211.5</ele>
        <time>2022-03-01T16:06:17Z</time>
      </trkpt>
      <trkpt lat="40.1369090" lon="-4.7234070">
        <ele>1211.7</ele>
        <time>2022-03-01T16:06:18Z</time>
      </trkpt>
      <trkpt lat="40.1369140" lon="-4.7234490">
        <ele>1212.0</ele>
        <time>2022-03-01T16:06:19Z</time>
      </trkpt>
      <trkpt lat="40.1369060" lon="-4.7235070">
        <ele>1212.3</ele>
        <time>2022-03-01T16:06:20Z</time>
      </trkpt>
      <trkpt lat="40.1369020" lon="-4.7235310">
        <ele>1212.4</ele>
        <time>2022-03-01T16:06:21Z</time>
      </trkpt>
      <trkpt lat="40.1368980" lon="-4.7235740">
        <ele>1212.6</ele>
        <time>2022-03-01T16:06:22Z</time>
      </trkpt>
      <trkpt lat="40.1368930" lon="-4.7236220">
        <ele>1212.8</ele>
        <time>2022-03-01T16:06:23Z</time>
      </trkpt>
      <trkpt lat="40.1368870" lon="-4.7236700">
        <ele>1213.1</ele>
        <time>2022-03-01T16:06:24Z</time>
      </trkpt>
      <trkpt lat="40.1368900" lon="-4.7237160">
        <ele>1213.3</ele>
        <time>2022-03-01T16:06:25Z</time>
      </trkpt>
      <trkpt lat="40.1368730" lon="-4.7237700">
        <ele>1213.6</ele>
        <time>2022-03-01T16:06:26Z</time>
      </trkpt>
      <trkpt lat="40.1368640" lon="-4.7238060">
        <ele>1213.7</ele>
        <time>2022-03-01T16:06:27Z</time>
      </trkpt>
      <trkpt lat="40.1368550" lon="-4.7238550">
        <ele>1214.0</ele>
        <time>2022-03-01T16:06:28Z</time>
      </trkpt>
      <trkpt lat="40.1368570" lon="-4.7238970">
        <ele>1214.2</ele>
        <time>2022-03-01T16:06:29Z</time>
      </trkpt>
      <trkpt lat="40.1368500" lon="-4.7239440">
        <ele>1214.4</ele>
        <time>2022-03-01T16:06:30Z</time>
      </trkpt>
      <trkpt lat="40.1368440" lon="-4.7239820">
        <ele>1214.6</ele>
        <time>2022-03-01T16:06:31Z</time>
      </trkpt>
      <trkpt lat="40.1368390" lon="-4.7240060">
        <ele>1214.7</ele>
        <time>2022-03-01T16:06:32Z</time>
      </trkpt>
      <trkpt lat="40.1368490" lon="-4.7240520">
        <ele>1214.9</ele>
        <time>2022-03-01T16:06:33Z</time>
      </trkpt>
      <trkpt lat="40.1368430" lon="-4.7241130">
        <ele>1215.2</ele>
        <time>2022-03-01T16:06:34Z</time>
      </trkpt>
      <trkpt lat="40.1368410" lon="-4.7241440">
        <ele>1215.3</ele>
        <time>2022-03-01T16:06:35Z</time>
      </trkpt>
      <trkpt lat="40.1368450" lon="-4.7241790">
        <ele>1215.5</ele>
        <time>2022-03-01T16:06:36Z</time>
      </trkpt>
      <trkpt lat="40.1368460" lon="-4.7242000">
        <ele>1215.6</ele>
        <time>2022-03-01T16:06:37Z</time>
      </trkpt>
      <trkpt lat="40.1368420" lon="-4.7242500">
        <ele>1215.9</ele>
        <time>2022-03-01T16:06:38Z</time>
      </trkpt>
      <trkpt lat="40.1368620" lon="-4.7242940">
        <ele>1216.0</ele>
        <time>2022-03-01T16:06:39Z</time>
      </trkpt>
      <trkpt lat="40.1368670" lon="-4.7243120">
        <ele>1216.1</ele>
        <time>2022-03-01T16:06:40Z</time>
      </trkpt>
      <trkpt lat="40.1368820" lon="-4.7243720">
        <ele>1216.2</ele>
        <time>2022-03-01T16:06:41Z</time>
      </trkpt>
      <trkpt lat="40.1369040" lon="-4.7244270">
        <ele>1216.3</ele>
        <time>2022-03-01T16:06:42Z</time>
      </trkpt>
      <trkpt lat="40.1369280" lon="-4.7244650">
        <ele>1216.4</ele>
        <time>2022-03-01T16:06:43Z</time>
      </trkpt>
      <trkpt lat="40.1369360" lon="-4.7244920">
        <ele>1216.4</ele>
        <time>2022-03-01T16:06:44Z</time>
      </trkpt>
      <trkpt lat="40.1369410" lon="-4.7245100">
        <ele>1216.5</ele>
        <time>2022-03-01T16:06:45Z</time>
      </trkpt>
      <trkpt lat="40.1369600" lon="-4.7245390">
        <ele>1216.5</ele>
        <time>2022-03-01T16:06:46Z</time>
      </trkpt>
      <trkpt lat="40.1369830" lon="-4.7245820">
        <ele>1216.6</ele>
        <time>2022-03-01T16:06:47Z</time>
      </trkpt>
      <trkpt lat="40.1369960" lon="-4.7246000">
        <ele>1216.6</ele>
        <time>2022-03-01T16:06:48Z</time>
      </trkpt>
      <trkpt lat="40.1370310" lon="-4.7246080">
        <ele>1216.4</ele>
        <time>2022-03-01T16:06:49Z</time>
      </trkpt>
      <trkpt lat="40.1370530" lon="-4.7246320">
        <ele>1216.3</ele>
        <time>2022-03-01T16:06:50Z</time>
      </trkpt>
      <trkpt lat="40.1370580" lon="-4.7246400">
        <ele>1216.3</ele>
        <time>2022-03-01T16:06:51Z</time>
      </trkpt>
      <trkpt lat="40.1370850" lon="-4.7246460">
        <ele>1216.2</ele>
        <time>2022-03-01T16:06:52Z</time>
      </trkpt>
      <trkpt lat="40.1371070" lon="-4.7246650">
        <ele>1216.0</ele>
        <time>2022-03-01T16:06:53Z</time>
      </trkpt>
      <trkpt lat="40.1371230" lon="-4.7246710">
        <ele>1215.9</ele>
        <time>2022-03-01T16:06:54Z</time>
      </trkpt>
      <trkpt lat="40.1371530" lon="-4.7246880">
        <ele>1215.7</ele>
        <time>2022-03-01T16:06:55Z</time>
      </trkpt>
      <trkpt lat="40.1371740" lon="-4.7246980">
        <ele>1215.6</ele>
        <time>2022-03-01T16:06:56Z</time>
      </trkpt>
      <trkpt lat="40.1372180" lon="-4.7247170">
        <ele>1215.3</ele>
        <time>2022-03-01T16:06:57Z</time>
      </trkpt>
      <trkpt lat="40.1372840" lon="-4.7247090">
        <ele>1214.8</ele>
        <time>2022-03-01T16:06:58Z</time>
      </trkpt>
      <trkpt lat="40.1373140" lon="-4.7246970">
        <ele>1214.6</ele>
        <time>2022-03-01T16:06:59Z</time>
      </trkpt>
      <trkpt lat="40.1373770" lon="-4.7247000">
        <ele>1214.2</ele>
        <time>2022-03-01T16:07:00Z</time>
      </trkpt>
      <trkpt lat="40.1374420" lon="-4.7247240">
        <ele>1213.7</ele>
        <time>2022-03-01T16:07:01Z</time>
      </trkpt>
      <trkpt lat="40.1375060" lon="-4.7247480">
        <ele>1213.2</ele>
        <time>2022-03-01T16:07:02Z</time>
      </trkpt>
      <trkpt lat="40.1375710" lon="-4.7247730">
        <ele>1212.8</ele>
        <time>2022-03-01T16:07:03Z</time>
      </trkpt>
      <trkpt lat="40.1376320" lon="-4.7247910">
        <ele>1212.4</ele>
        <time>2022-03-01T16:07:04Z</time>
      </trkpt>
      <trkpt lat="40.1376930" lon="-4.7248120">
        <ele>1212.0</ele>
        <time>2022-03-01T16:07:05Z</time>
      </trkpt>
      <trkpt lat="40.1377390" lon="-4.7248530">
        <ele>1211.7</ele>
        <time>2022-03-01T16:07:06Z</time>
      </trkpt>
      <trkpt lat="40.1377930" lon="-4.7249230">
        <ele>1211.5</ele>
        <time>2022-03-01T16:07:07Z</time>
      </trkpt>
      <trkpt lat="40.1378260" lon="-4.7250140">
        <ele>1211.0</ele>
        <time>2022-03-01T16:07:08Z</time>
      </trkpt>
      <trkpt lat="40.1378380" lon="-4.7251170">
        <ele>1210.5</ele>
        <time>2022-03-01T16:07:09Z</time>
      </trkpt>
      <trkpt lat="40.1378160" lon="-4.7252200">
        <ele>1210.0</ele>
        <time>2022-03-01T16:07:10Z</time>
      </trkpt>
      <trkpt lat="40.1377610" lon="-4.7253090">
        <ele>1209.4</ele>
        <time>2022-03-01T16:07:11Z</time>
      </trkpt>
      <trkpt lat="40.1377160" lon="-4.7253600">
        <ele>1209.0</ele>
        <time>2022-03-01T16:07:12Z</time>
      </trkpt>
      <trkpt lat="40.1376640" lon="-4.7254380">
        <ele>1208.5</ele>
        <time>2022-03-01T16:07:13Z</time>
      </trkpt>
      <trkpt lat="40.1376130" lon="-4.7255190">
        <ele>1208.0</ele>
        <time>2022-03-01T16:07:14Z</time>
      </trkpt>
      <trkpt lat="40.1375700" lon="-4.7255860">
        <ele>1207.5</ele>
        <time>2022-03-01T16:07:15Z</time>
      </trkpt>
      <trkpt lat="40.1375020" lon="-4.7256370">
        <ele>1207.0</ele>
        <time>2022-03-01T16:07:16Z</time>
      </trkpt>
      <trkpt lat="40.1374290" lon="-4.7256860">
        <ele>1206.5</ele>
        <time>2022-03-01T16:07:17Z</time>
      </trkpt>
      <trkpt lat="40.1373580" lon="-4.7257350">
        <ele>1206.1</ele>
        <time>2022-03-01T16:07:18Z</time>
      </trkpt>
      <trkpt lat="40.1372840" lon="-4.7257940">
        <ele>1205.6</ele>
        <time>2022-03-01T16:07:19Z</time>
      </trkpt>
      <trkpt lat="40.1372150" lon="-4.7258560">
        <ele>1205.2</ele>
        <time>2022-03-01T16:07:20Z</time>
      </trkpt>
      <trkpt lat="40.1371470" lon="-4.7259120">
        <ele>1204.7</ele>
        <time>2022-03-01T16:07:21Z</time>
      </trkpt>
      <trkpt lat="40.1370690" lon="-4.7259710">
        <ele>1204.3</ele>
        <time>2022-03-01T16:07:22Z</time>
      </trkpt>
      <trkpt lat="40.1369930" lon="-4.7260300">
        <ele>1203.8</ele>
        <time>2022-03-01T16:07:23Z</time>
      </trkpt>
      <trkpt lat="40.1369220" lon="-4.7261040">
        <ele>1203.4</ele>
        <time>2022-03-01T16:07:24Z</time>
      </trkpt>
      <trkpt lat="40.1368750" lon="-4.7261890">
        <ele>1202.9</ele>
        <time>2022-03-01T16:07:25Z</time>
      </trkpt>
      <trkpt lat="40.1368500" lon="-4.7262950">
        <ele>1202.5</ele>
        <time>2022-03-01T16:07:26Z</time>
      </trkpt>
      <trkpt lat="40.1368340" lon="-4.7264100">
        <ele>1201.9</ele>
        <time>2022-03-01T16:07:27Z</time>
      </trkpt>
      <trkpt lat="40.1368220" lon="-4.7265230">
        <ele>1201.3</ele>
        <time>2022-03-01T16:07:28Z</time>
      </trkpt>
      <trkpt lat="40.1368240" lon="-4.7266430">
        <ele>1200.6</ele>
        <time>2022-03-01T16:07:29Z</time>
      </trkpt>
      <trkpt lat="40.1368410" lon="-4.7267580">
        <ele>1199.9</ele>
        <time>2022-03-01T16:07:30Z</time>
      </trkpt>
      <trkpt lat="40.1368630" lon="-4.7268690">
        <ele>1199.3</ele>
        <time>2022-03-01T16:07:31Z</time>
      </trkpt>
      <trkpt lat="40.1368780" lon="-4.7269820">
        <ele>1198.6</ele>
        <time>2022-03-01T16:07:32Z</time>
      </trkpt>
      <trkpt lat="40.1369030" lon="-4.7271070">
        <ele>1197.9</ele>
        <time>2022-03-01T16:07:33Z</time>
      </trkpt>
      <trkpt lat="40.1369210" lon="-4.7272210">
        <ele>1197.2</ele>
        <time>2022-03-01T16:07:34Z</time>
      </trkpt>
      <trkpt lat="40.1369420" lon="-4.7273460">
        <ele>1196.6</ele>
        <time>2022-03-01T16:07:35Z</time>
      </trkpt>
      <trkpt lat="40.1369560" lon="-4.7274570">
        <ele>1196.0</ele>
        <time>2022-03-01T16:07:36Z</time>
      </trkpt>
      <trkpt lat="40.1369580" lon="-4.7275700">
        <ele>1195.3</ele>
        <time>2022-03-01T16:07:37Z</time>
      </trkpt>
      <trkpt lat="40.1369650" lon="-4.7276760">
        <ele>1194.8</ele>
        <time>2022-03-01T16:07:38Z</time>
      </trkpt>
      <trkpt lat="40.1369560" lon="-4.7277950">
        <ele>1194.1</ele>
        <time>2022-03-01T16:07:39Z</time>
      </trkpt>
      <trkpt lat="40.1369460" lon="-4.7279070">
        <ele>1193.5</ele>
        <time>2022-03-01T16:07:40Z</time>
      </trkpt>
      <trkpt lat="40.1369270" lon="-4.7280290">
        <ele>1192.8</ele>
        <time>2022-03-01T16:07:41Z</time>
      </trkpt>
      <trkpt lat="40.1369090" lon="-4.7281500">
        <ele>1192.1</ele>
        <time>2022-03-01T16:07:42Z</time>
      </trkpt>
      <trkpt lat="40.1368860" lon="-4.7282700">
        <ele>1191.4</ele>
        <time>2022-03-01T16:07:43Z</time>
      </trkpt>
      <trkpt lat="40.1368600" lon="-4.7283850">
        <ele>1190.8</ele>
        <time>2022-03-01T16:07:44Z</time>
      </trkpt>
      <trkpt lat="40.1368240" lon="-4.7284890">
        <ele>1190.2</ele>
        <time>2022-03-01T16:07:45Z</time>
      </trkpt>
      <trkpt lat="40.1367930" lon="-4.7285800">
        <ele>1189.7</ele>
        <time>2022-03-01T16:07:46Z</time>
      </trkpt>
      <trkpt lat="40.1367520" lon="-4.7286760">
        <ele>1189.2</ele>
        <time>2022-03-01T16:07:47Z</time>
      </trkpt>
      <trkpt lat="40.1367100" lon="-4.7287730">
        <ele>1188.8</ele>
        <time>2022-03-01T16:07:48Z</time>
      </trkpt>
      <trkpt lat="40.1366920" lon="-4.7288810">
        <ele>1188.4</ele>
        <time>2022-03-01T16:07:49Z</time>
      </trkpt>
      <trkpt lat="40.1366900" lon="-4.7289980">
        <ele>1187.9</ele>
        <time>2022-03-01T16:07:50Z</time>
      </trkpt>
      <trkpt lat="40.1367010" lon="-4.7291130">
        <ele>1187.3</ele>
        <time>2022-03-01T16:07:51Z</time>
      </trkpt>
      <trkpt lat="40.1367160" lon="-4.7292370">
        <ele>1186.8</ele>
        <time>2022-03-01T16:07:52Z</time>
      </trkpt>
      <trkpt lat="40.1367450" lon="-4.7293420">
        <ele>1186.3</ele>
        <time>2022-03-01T16:07:53Z</time>
      </trkpt>
      <trkpt lat="40.1367930" lon="-4.7294460">
        <ele>1185.8</ele>
        <time>2022-03-01T16:07:54Z</time>
      </trkpt>
      <trkpt lat="40.1368390" lon="-4.7295530">
        <ele>1185.3</ele>
        <time>2022-03-01T16:07:55Z</time>
      </trkpt>
      <trkpt lat="40.1368900" lon="-4.7296420">
        <ele>1184.8</ele>
        <time>2022-03-01T16:07:56Z</time>
      </trkpt>
      <trkpt lat="40.1369350" lon="-4.7297380">
        <ele>1184.4</ele>
        <time>2022-03-01T16:07:57Z</time>
      </trkpt>
      <trkpt lat="40.1369790" lon="-4.7298240">
        <ele>1183.9</ele>
        <time>2022-03-01T16:07:58Z</time>
      </trkpt>
      <trkpt lat="40.1370190" lon="-4.7299100">
        <ele>1183.5</ele>
        <time>2022-03-01T16:07:59Z</time>
      </trkpt>
      <trkpt lat="40.1370490" lon="-4.7299880">
        <ele>1183.0</ele>
        <time>2022-03-01T16:08:00Z</time>
      </trkpt>
      <trkpt lat="40.1370690" lon="-4.7300730">
        <ele>1182.6</ele>
        <time>2022-03-01T16:08:01Z</time>
      </trkpt>
      <trkpt lat="40.1370810" lon="-4.7301510">
        <ele>1182.2</ele>
        <time>2022-03-01T16:08:02Z</time>
      </trkpt>
      <trkpt lat="40.1370870" lon="-4.7302300">
        <ele>1181.8</ele>
        <time>2022-03-01T16:08:03Z</time>
      </trkpt>
      <trkpt lat="40.1370800" lon="-4.7303230">
        <ele>1181.2</ele>
        <time>2022-03-01T16:08:04Z</time>
      </trkpt>
      <trkpt lat="40.1370660" lon="-4.7304100">
        <ele>1180.7</ele>
        <time>2022-03-01T16:08:05Z</time>
      </trkpt>
      <trkpt lat="40.1370500" lon="-4.7304980">
        <ele>1180.1</ele>
        <time>2022-03-01T16:08:06Z</time>
      </trkpt>
      <trkpt lat="40.1370140" lon="-4.7305860">
        <ele>1179.5</ele>
        <time>2022-03-01T16:08:07Z</time>
      </trkpt>
      <trkpt lat="40.1369880" lon="-4.7306780">
        <ele>1178.9</ele>
        <time>2022-03-01T16:08:08Z</time>
      </trkpt>
      <trkpt lat="40.1369710" lon="-4.7307730">
        <ele>1178.3</ele>
        <time>2022-03-01T16:08:09Z</time>
      </trkpt>
      <trkpt lat="40.1369740" lon="-4.7308930">
        <ele>1177.7</ele>
        <time>2022-03-01T16:08:10Z</time>
      </trkpt>
      <trkpt lat="40.1369850" lon="-4.7310280">
        <ele>1176.9</ele>
        <time>2022-03-01T16:08:11Z</time>
      </trkpt>
      <trkpt lat="40.1370060" lon="-4.7311400">
        <ele>1176.3</ele>
        <time>2022-03-01T16:08:12Z</time>
      </trkpt>
      <trkpt lat="40.1370470" lon="-4.7312420">
        <ele>1175.8</ele>
        <time>2022-03-01T16:08:13Z</time>
      </trkpt>
      <trkpt lat="40.1371010" lon="-4.7313340">
        <ele>1175.2</ele>
        <time>2022-03-01T16:08:14Z</time>
      </trkpt>
      <trkpt lat="40.1371700" lon="-4.7314150">
        <ele>1174.5</ele>
        <time>2022-03-01T16:08:15Z</time>
      </trkpt>
      <trkpt lat="40.1372400" lon="-4.7314950">
        <ele>1173.9</ele>
        <time>2022-03-01T16:08:16Z</time>
      </trkpt>
      <trkpt lat="40.1373060" lon="-4.7315870">
        <ele>1173.2</ele>
        <time>2022-03-01T16:08:17Z</time>
      </trkpt>
      <trkpt lat="40.1373540" lon="-4.7316930">
        <ele>1172.5</ele>
        <time>2022-03-01T16:08:18Z</time>
      </trkpt>
      <trkpt lat="40.1374100" lon="-4.7317970">
        <ele>1171.9</ele>
        <time>2022-03-01T16:08:19Z</time>
      </trkpt>
      <trkpt lat="40.1374730" lon="-4.7319110">
        <ele>1171.3</ele>
        <time>2022-03-01T16:08:20Z</time>
      </trkpt>
      <trkpt lat="40.1375330" lon="-4.7320190">
        <ele>1170.7</ele>
        <time>2022-03-01T16:08:22Z</time>
      </trkpt>
      <trkpt lat="40.1375850" lon="-4.7321210">
        <ele>1170.2</ele>
        <time>2022-03-01T16:08:23Z</time>
      </trkpt>
      <trkpt lat="40.1376260" lon="-4.7322240">
        <ele>1169.7</ele>
        <time>2022-03-01T16:08:24Z</time>
      </trkpt>
      <trkpt lat="40.1376500" lon="-4.7323330">
        <ele>1169.3</ele>
        <time>2022-03-01T16:08:25Z</time>
      </trkpt>
      <trkpt lat="40.1376770" lon="-4.7324320">
        <ele>1168.8</ele>
        <time>2022-03-01T16:08:26Z</time>
      </trkpt>
      <trkpt lat="40.1376960" lon="-4.7325220">
        <ele>1168.5</ele>
        <time>2022-03-01T16:08:27Z</time>
      </trkpt>
      <trkpt lat="40.1377210" lon="-4.7325930">
        <ele>1168.3</ele>
        <time>2022-03-01T16:08:28Z</time>
      </trkpt>
      <trkpt lat="40.1377490" lon="-4.7326650">
        <ele>1168.6</ele>
        <time>2022-03-01T16:08:29Z</time>
      </trkpt>
      <trkpt lat="40.1377720" lon="-4.7327180">
        <ele>1168.8</ele>
        <time>2022-03-01T16:08:30Z</time>
      </trkpt>
      <trkpt lat="40.1377930" lon="-4.7327490">
        <ele>1168.9</ele>
        <time>2022-03-01T16:08:31Z</time>
      </trkpt>
      <trkpt lat="40.1377990" lon="-4.7327610">
        <ele>1169.0</ele>
        <time>2022-03-01T16:08:32Z</time>
      </trkpt>
      <trkpt lat="40.1377880" lon="-4.7327590">
        <ele>1169.0</ele>
        <time>2022-03-01T16:08:33Z</time>
      </trkpt>
      <trkpt lat="40.1377770" lon="-4.7327580">
        <ele>1169.1</ele>
        <time>2022-03-01T16:08:34Z</time>
      </trkpt>
      <trkpt lat="40.1377650" lon="-4.7327570">
        <ele>1169.1</ele>
        <time>2022-03-01T16:08:35Z</time>
      </trkpt>
      <trkpt lat="40.1377540" lon="-4.7327560">
        <ele>1169.2</ele>
        <time>2022-03-01T16:08:36Z</time>
      </trkpt>
      <trkpt lat="40.1377220" lon="-4.7327310">
        <ele>1169.3</ele>
        <time>2022-03-01T16:08:37Z</time>
      </trkpt>
      <trkpt lat="40.1377120" lon="-4.7327220">
        <ele>1169.4</ele>
        <time>2022-03-01T16:08:38Z</time>
      </trkpt>
      <trkpt lat="40.1376910" lon="-4.7326990">
        <ele>1169.5</ele>
        <time>2022-03-01T16:08:39Z</time>
      </trkpt>
      <trkpt lat="40.1376630" lon="-4.7326590">
        <ele>1169.7</ele>
        <time>2022-03-01T16:08:40Z</time>
      </trkpt>
      <trkpt lat="40.1376510" lon="-4.7326460">
        <ele>1169.8</ele>
        <time>2022-03-01T16:08:41Z</time>
      </trkpt>
      <trkpt lat="40.1375610" lon="-4.7325300">
        <ele>1170.4</ele>
        <time>2022-03-01T16:08:44Z</time>
      </trkpt>
      <trkpt lat="40.1375500" lon="-4.7325100">
        <ele>1170.5</ele>
        <time>2022-03-01T16:08:45Z</time>
      </trkpt>
      <trkpt lat="40.1375290" lon="-4.7324800">
        <ele>1170.6</ele>
        <time>2022-03-01T16:08:46Z</time>
      </trkpt>
      <trkpt lat="40.1375060" lon="-4.7324380">
        <ele>1170.8</ele>
        <time>2022-03-01T16:08:47Z</time>
      </trkpt>
      <trkpt lat="40.1374840" lon="-4.7323860">
        <ele>1171.0</ele>
        <time>2022-03-01T16:08:48Z</time>
      </trkpt>
      <trkpt lat="40.1374530" lon="-4.7323380">
        <ele>1171.3</ele>
        <time>2022-03-01T16:08:49Z</time>
      </trkpt>
      <trkpt lat="40.1374180" lon="-4.7322990">
        <ele>1171.5</ele>
        <time>2022-03-01T16:08:50Z</time>
      </trkpt>
      <trkpt lat="40.1373870" lon="-4.7322440">
        <ele>1171.8</ele>
        <time>2022-03-01T16:08:51Z</time>
      </trkpt>
      <trkpt lat="40.1373510" lon="-4.7321950">
        <ele>1172.1</ele>
        <time>2022-03-01T16:08:52Z</time>
      </trkpt>
      <trkpt lat="40.1373150" lon="-4.7321430">
        <ele>1172.4</ele>
        <time>2022-03-01T16:08:53Z</time>
      </trkpt>
      <trkpt lat="40.1372820" lon="-4.7320880">
        <ele>1172.7</ele>
        <time>2022-03-01T16:08:54Z</time>
      </trkpt>
      <trkpt lat="40.1372520" lon="-4.7320300">
        <ele>1173.0</ele>
        <time>2022-03-01T16:08:55Z</time>
      </trkpt>
      <trkpt lat="40.1372210" lon="-4.7319720">
        <ele>1173.4</ele>
        <time>2022-03-01T16:08:56Z</time>
      </trkpt>
      <trkpt lat="40.1371900" lon="-4.7319220">
        <ele>1173.7</ele>
        <time>2022-03-01T16:08:57Z</time>
      </trkpt>
      <trkpt lat="40.1371610" lon="-4.7318770">
        <ele>1173.9</ele>
        <time>2022-03-01T16:08:58Z</time>
      </trkpt>
      <trkpt lat="40.1371340" lon="-4.7318280">
        <ele>1174.2</ele>
        <time>2022-03-01T16:08:59Z</time>
      </trkpt>
      <trkpt lat="40.1371100" lon="-4.7317710">
        <ele>1174.5</ele>
        <time>2022-03-01T16:09:00Z</time>
      </trkpt>
      <trkpt lat="40.1370870" lon="-4.7317260">
        <ele>1174.8</ele>
        <time>2022-03-01T16:09:01Z</time>
      </trkpt>
      <trkpt lat="40.1370570" lon="-4.7316730">
        <ele>1175.1</ele>
        <time>2022-03-01T16:09:02Z</time>
      </trkpt>
      <trkpt lat="40.1370180" lon="-4.7316150">
        <ele>1175.5</ele>
        <time>2022-03-01T16:09:03Z</time>
      </trkpt>
      <trkpt lat="40.1369990" lon="-4.7315620">
        <ele>1175.7</ele>
        <time>2022-03-01T16:09:04Z</time>
      </trkpt>
      <trkpt lat="40.1369670" lon="-4.7315020">
        <ele>1176.1</ele>
        <time>2022-03-01T16:09:05Z</time>
      </trkpt>
      <trkpt lat="40.1369440" lon="-4.7314540">
        <ele>1176.3</ele>
        <time>2022-03-01T16:09:06Z</time>
      </trkpt>
      <trkpt lat="40.1369250" lon="-4.7314250">
        <ele>1176.5</ele>
        <time>2022-03-01T16:09:07Z</time>
      </trkpt>
      <trkpt lat="40.1369100" lon="-4.7313800">
        <ele>1176.7</ele>
        <time>2022-03-01T16:09:08Z</time>
      </trkpt>
      <trkpt lat="40.1368890" lon="-4.7313270">
        <ele>1177.0</ele>
        <time>2022-03-01T16:09:09Z</time>
      </trkpt>
      <trkpt lat="40.1368760" lon="-4.7312730">
        <ele>1177.2</ele>
        <time>2022-03-01T16:09:10Z</time>
      </trkpt>
      <trkpt lat="40.1368760" lon="-4.7312320">
        <ele>1177.4</ele>
        <time>2022-03-01T16:09:11Z</time>
      </trkpt>
      <trkpt lat="40.1368780" lon="-4.7311820">
        <ele>1177.7</ele>
        <time>2022-03-01T16:09:12Z</time>
      </trkpt>
      <trkpt lat="40.1368650" lon="-4.7311370">
        <ele>1177.9</ele>
        <time>2022-03-01T16:09:13Z</time>
      </trkpt>
      <trkpt lat="40.1368710" lon="-4.7310840">
        <ele>1178.1</ele>
        <time>2022-03-01T16:09:14Z</time>
      </trkpt>
      <trkpt lat="40.1368720" lon="-4.7310450">
        <ele>1178.3</ele>
        <time>2022-03-01T16:09:15Z</time>
      </trkpt>
      <trkpt lat="40.1368810" lon="-4.7309830">
        <ele>1178.7</ele>
        <time>2022-03-01T16:09:16Z</time>
      </trkpt>
      <trkpt lat="40.1368970" lon="-4.7309060">
        <ele>1179.1</ele>
        <time>2022-03-01T16:09:17Z</time>
      </trkpt>
      <trkpt lat="40.1369160" lon="-4.7308490">
        <ele>1179.4</ele>
        <time>2022-03-01T16:09:18Z</time>
      </trkpt>
      <trkpt lat="40.1369240" lon="-4.7307870">
        <ele>1179.8</ele>
        <time>2022-03-01T16:09:19Z</time>
      </trkpt>
      <trkpt lat="40.1369360" lon="-4.7307240">
        <ele>1180.1</ele>
        <time>2022-03-01T16:09:20Z</time>
      </trkpt>
      <trkpt lat="40.1369490" lon="-4.7306570">
        <ele>1180.5</ele>
        <time>2022-03-01T16:09:21Z</time>
      </trkpt>
      <trkpt lat="40.1369510" lon="-4.7306030">
        <ele>1180.8</ele>
        <time>2022-03-01T16:09:22Z</time>
      </trkpt>
      <trkpt lat="40.1369370" lon="-4.7305550">
        <ele>1181.1</ele>
        <time>2022-03-01T16:09:23Z</time>
      </trkpt>
      <trkpt lat="40.1369400" lon="-4.7304890">
        <ele>1181.4</ele>
        <time>2022-03-01T16:09:24Z</time>
      </trkpt>
      <trkpt lat="40.1369350" lon="-4.7304430">
        <ele>1181.7</ele>
        <time>2022-03-01T16:09:25Z</time>
      </trkpt>
      <trkpt lat="40.1369350" lon="-4.7303780">
        <ele>1182.0</ele>
        <time>2022-03-01T16:09:26Z</time>
      </trkpt>
      <trkpt lat="40.1369200" lon="-4.7303300">
        <ele>1182.2</ele>
        <time>2022-03-01T16:09:27Z</time>
      </trkpt>
      <trkpt lat="40.1369120" lon="-4.7303070">
        <ele>1182.4</ele>
        <time>2022-03-01T16:09:28Z</time>
      </trkpt>
      <trkpt lat="40.1369100" lon="-4.7302660">
        <ele>1182.5</ele>
        <time>2022-03-01T16:09:29Z</time>
      </trkpt>
      <trkpt lat="40.1368970" lon="-4.7302250">
        <ele>1182.7</ele>
        <time>2022-03-01T16:09:30Z</time>
      </trkpt>
      <trkpt lat="40.1368840" lon="-4.7301800">
        <ele>1182.9</ele>
        <time>2022-03-01T16:09:31Z</time>
      </trkpt>
      <trkpt lat="40.1368640" lon="-4.7301380">
        <ele>1183.1</ele>
        <time>2022-03-01T16:09:32Z</time>
      </trkpt>
      <trkpt lat="40.1368450" lon="-4.7300970">
        <ele>1183.3</ele>
        <time>2022-03-01T16:09:33Z</time>
      </trkpt>
      <trkpt lat="40.1368240" lon="-4.7300450">
        <ele>1183.6</ele>
        <time>2022-03-01T16:09:34Z</time>
      </trkpt>
      <trkpt lat="40.1368090" lon="-4.7299950">
        <ele>1183.8</ele>
        <time>2022-03-01T16:09:35Z</time>
      </trkpt>
      <trkpt lat="40.1367990" lon="-4.7299740">
        <ele>1183.9</ele>
        <time>2022-03-01T16:09:36Z</time>
      </trkpt>
      <trkpt lat="40.1367700" lon="-4.7299120">
        <ele>1184.2</ele>
        <time>2022-03-01T16:09:37Z</time>
      </trkpt>
      <trkpt lat="40.1367500" lon="-4.7298760">
        <ele>1184.3</ele>
        <time>2022-03-01T16:09:38Z</time>
      </trkpt>
      <trkpt lat="40.1367350" lon="-4.7298340">
        <ele>1184.5</ele>
        <time>2022-03-01T16:09:39Z</time>
      </trkpt>
      <trkpt lat="40.1367230" lon="-4.7298070">
        <ele>1184.6</ele>
        <time>2022-03-01T16:09:40Z</time>
      </trkpt>
      <trkpt lat="40.1366940" lon="-4.7297700">
        <ele>1184.8</ele>
        <time>2022-03-01T16:09:41Z</time>
      </trkpt>
      <trkpt lat="40.1366760" lon="-4.7297460">
        <ele>1184.9</ele>
        <time>2022-03-01T16:09:42Z</time>
      </trkpt>
      <trkpt lat="40.1366570" lon="-4.7296880">
        <ele>1185.2</ele>
        <time>2022-03-01T16:09:43Z</time>
      </trkpt>
      <trkpt lat="40.1366440" lon="-4.7296610">
        <ele>1185.3</ele>
        <time>2022-03-01T16:09:44Z</time>
      </trkpt>
      <trkpt lat="40.1366230" lon="-4.7296240">
        <ele>1185.5</ele>
        <time>2022-03-01T16:09:45Z</time>
      </trkpt>
      <trkpt lat="40.1366130" lon="-4.7296110">
        <ele>1185.5</ele>
        <time>2022-03-01T16:09:46Z</time>
      </trkpt>
      <trkpt lat="40.1365960" lon="-4.7295650">
        <ele>1185.7</ele>
        <time>2022-03-01T16:09:47Z</time>
      </trkpt>
      <trkpt lat="40.1365750" lon="-4.7295130">
        <ele>1185.9</ele>
        <time>2022-03-01T16:09:48Z</time>
      </trkpt>
      <trkpt lat="40.1365660" lon="-4.7294850">
        <ele>1186.0</ele>
        <time>2022-03-01T16:09:49Z</time>
      </trkpt>
      <trkpt lat="40.1365630" lon="-4.7294360">
        <ele>1186.2</ele>
        <time>2022-03-01T16:09:50Z</time>
      </trkpt>
      <trkpt lat="40.1365590" lon="-4.7294170">
        <ele>1186.3</ele>
        <time>2022-03-01T16:09:51Z</time>
      </trkpt>
      <trkpt lat="40.1365520" lon="-4.7293740">
        <ele>1186.4</ele>
        <time>2022-03-01T16:09:52Z</time>
      </trkpt>
      <trkpt lat="40.1365400" lon="-4.7293200">
        <ele>1186.7</ele>
        <time>2022-03-01T16:09:53Z</time>
      </trkpt>
      <trkpt lat="40.1365370" lon="-4.7292920">
        <ele>1186.8</ele>
        <time>2022-03-01T16:09:54Z</time>
      </trkpt>
      <trkpt lat="40.1365460" lon="-4.7292380">
        <ele>1187.0</ele>
        <time>2022-03-01T16:09:55Z</time>
      </trkpt>
      <trkpt lat="40.1365480" lon="-4.7292140">
        <ele>1187.1</ele>
        <time>2022-03-01T16:09:56Z</time>
      </trkpt>
      <trkpt lat="40.1365660" lon="-4.7291600">
        <ele>1187.3</ele>
        <time>2022-03-01T16:09:57Z</time>
      </trkpt>
      <trkpt lat="40.1365720" lon="-4.7291320">
        <ele>1187.4</ele>
        <time>2022-03-01T16:09:58Z</time>
      </trkpt>
      <trkpt lat="40.1365760" lon="-4.7290790">
        <ele>1187.6</ele>
        <time>2022-03-01T16:09:59Z</time>
      </trkpt>
      <trkpt lat="40.1365910" lon="-4.7290380">
        <ele>1187.8</ele>
        <time>2022-03-01T16:10:00Z</time>
      </trkpt>
      <trkpt lat="40.1366030" lon="-4.7289750">
        <ele>1188.1</ele>
        <time>2022-03-01T16:10:01Z</time>
      </trkpt>
      <trkpt lat="40.1366220" lon="-4.7289480">
        <ele>1188.2</ele>
        <time>2022-03-01T16:10:02Z</time>
      </trkpt>
      <trkpt lat="40.1366360" lon="-4.7288980">
        <ele>1188.3</ele>
        <time>2022-03-01T16:10:03Z</time>
      </trkpt>
      <trkpt lat="40.1366490" lon="-4.7288430">
        <ele>1188.5</ele>
        <time>2022-03-01T16:10:04Z</time>
      </trkpt>
      <trkpt lat="40.1366730" lon="-4.7287770">
        <ele>1188.7</ele>
        <time>2022-03-01T16:10:05Z</time>
      </trkpt>
      <trkpt lat="40.1366810" lon="-4.7287390">
        <ele>1188.9</ele>
        <time>2022-03-01T16:10:06Z</time>
      </trkpt>
      <trkpt lat="40.1366870" lon="-4.7286940">
        <ele>1189.0</ele>
        <time>2022-03-01T16:10:07Z</time>
      </trkpt>
      <trkpt lat="40.1366910" lon="-4.7286730">
        <ele>1189.1</ele>
        <time>2022-03-01T16:10:08Z</time>
      </trkpt>
      <trkpt lat="40.1367070" lon="-4.7286310">
        <ele>1189.3</ele>
        <time>2022-03-01T16:10:09Z</time>
      </trkpt>
      <trkpt lat="40.1367230" lon="-4.7285330">
        <ele>1189.6</ele>
        <time>2022-03-01T16:10:10Z</time>
      </trkpt>
      <trkpt lat="40.1367590" lon="-4.7282290">
        <ele>1191.4</ele>
        <time>2022-03-01T16:10:11Z</time>
      </trkpt>
      <trkpt lat="40.1367720" lon="-4.7281740">
        <ele>1191.7</ele>
        <time>2022-03-01T16:10:12Z</time>
      </trkpt>
      <trkpt lat="40.1367880" lon="-4.7281050">
        <ele>1192.2</ele>
        <time>2022-03-01T16:10:13Z</time>
      </trkpt>
      <trkpt lat="40.1368010" lon="-4.7280400">
        <ele>1192.6</ele>
        <time>2022-03-01T16:10:14Z</time>
      </trkpt>
      <trkpt lat="40.1368090" lon="-4.7279790">
        <ele>1192.9</ele>
        <time>2022-03-01T16:10:15Z</time>
      </trkpt>
      <trkpt lat="40.1368200" lon="-4.7279160">
        <ele>1193.3</ele>
        <time>2022-03-01T16:10:16Z</time>
      </trkpt>
      <trkpt lat="40.1368290" lon="-4.7278520">
        <ele>1193.7</ele>
        <time>2022-03-01T16:10:17Z</time>
      </trkpt>
      <trkpt lat="40.1368400" lon="-4.7277870">
        <ele>1194.1</ele>
        <time>2022-03-01T16:10:18Z</time>
      </trkpt>
      <trkpt lat="40.1368450" lon="-4.7277240">
        <ele>1194.5</ele>
        <time>2022-03-01T16:10:19Z</time>
      </trkpt>
      <trkpt lat="40.1368480" lon="-4.7276640">
        <ele>1194.8</ele>
        <time>2022-03-01T16:10:20Z</time>
      </trkpt>
      <trkpt lat="40.1368480" lon="-4.7276060">
        <ele>1195.1</ele>
        <time>2022-03-01T16:10:21Z</time>
      </trkpt>
      <trkpt lat="40.1368460" lon="-4.7275470">
        <ele>1195.5</ele>
        <time>2022-03-01T16:10:22Z</time>
      </trkpt>
      <trkpt lat="40.1368450" lon="-4.7274880">
        <ele>1195.8</ele>
        <time>2022-03-01T16:10:23Z</time>
      </trkpt>
      <trkpt lat="40.1368410" lon="-4.7274300">
        <ele>1196.2</ele>
        <time>2022-03-01T16:10:24Z</time>
      </trkpt>
      <trkpt lat="40.1368390" lon="-4.7273760">
        <ele>1196.5</ele>
        <time>2022-03-01T16:10:25Z</time>
      </trkpt>
      <trkpt lat="40.1368350" lon="-4.7273190">
        <ele>1196.8</ele>
        <time>2022-03-01T16:10:26Z</time>
      </trkpt>
      <trkpt lat="40.1368320" lon="-4.7272660">
        <ele>1197.1</ele>
        <time>2022-03-01T16:10:28Z</time>
      </trkpt>
      <trkpt lat="40.1368210" lon="-4.7272160">
        <ele>1197.4</ele>
        <time>2022-03-01T16:10:29Z</time>
      </trkpt>
      <trkpt lat="40.1368130" lon="-4.7271620">
        <ele>1197.7</ele>
        <time>2022-03-01T16:10:30Z</time>
      </trkpt>
      <trkpt lat="40.1368030" lon="-4.7271120">
        <ele>1197.9</ele>
        <time>2022-03-01T16:10:31Z</time>
      </trkpt>
      <trkpt lat="40.1367780" lon="-4.7271760">
        <ele>1198.3</ele>
        <time>2022-03-01T16:10:32Z</time>
      </trkpt>
      <trkpt lat="40.1367720" lon="-4.7271300">
        <ele>1198.5</ele>
        <time>2022-03-01T16:10:33Z</time>
      </trkpt>
      <trkpt lat="40.1367640" lon="-4.7270790">
        <ele>1198.8</ele>
        <time>2022-03-01T16:10:34Z</time>
      </trkpt>
      <trkpt lat="40.1367410" lon="-4.7270320">
        <ele>1199.1</ele>
        <time>2022-03-01T16:10:35Z</time>
      </trkpt>
      <trkpt lat="40.1367390" lon="-4.7270050">
        <ele>1199.2</ele>
        <time>2022-03-01T16:10:36Z</time>
      </trkpt>
      <trkpt lat="40.1367320" lon="-4.7269480">
        <ele>1199.5</ele>
        <time>2022-03-01T16:10:37Z</time>
      </trkpt>
      <trkpt lat="40.1367240" lon="-4.7268880">
        <ele>1199.8</ele>
        <time>2022-03-01T16:10:38Z</time>
      </trkpt>
      <trkpt lat="40.1367180" lon="-4.7268400">
        <ele>1200.0</ele>
        <time>2022-03-01T16:10:39Z</time>
      </trkpt>
      <trkpt lat="40.1367110" lon="-4.7267790">
        <ele>1200.3</ele>
        <time>2022-03-01T16:10:40Z</time>
      </trkpt>
      <trkpt lat="40.1367050" lon="-4.7267380">
        <ele>1200.5</ele>
        <time>2022-03-01T16:10:41Z</time>
      </trkpt>
      <trkpt lat="40.1367020" lon="-4.7266870">
        <ele>1200.8</ele>
        <time>2022-03-01T16:10:42Z</time>
      </trkpt>
      <trkpt lat="40.1366940" lon="-4.7266530">
        <ele>1201.0</ele>
        <time>2022-03-01T16:10:43Z</time>
      </trkpt>
      <trkpt lat="40.1366950" lon="-4.7266060">
        <ele>1201.2</ele>
        <time>2022-03-01T16:10:44Z</time>
      </trkpt>
      <trkpt lat="40.1367100" lon="-4.7265590">
        <ele>1201.4</ele>
        <time>2022-03-01T16:10:45Z</time>
      </trkpt>
      <trkpt lat="40.1367040" lon="-4.7265140">
        <ele>1201.6</ele>
        <time>2022-03-01T16:10:46Z</time>
      </trkpt>
      <trkpt lat="40.1367060" lon="-4.7264910">
        <ele>1201.7</ele>
        <time>2022-03-01T16:10:47Z</time>
      </trkpt>
      <trkpt lat="40.1367080" lon="-4.7264460">
        <ele>1201.9</ele>
        <time>2022-03-01T16:10:48Z</time>
      </trkpt>
      <trkpt lat="40.1367270" lon="-4.7263790">
        <ele>1202.2</ele>
        <time>2022-03-01T16:10:49Z</time>
      </trkpt>
      <trkpt lat="40.1367430" lon="-4.7263420">
        <ele>1202.4</ele>
        <time>2022-03-01T16:10:50Z</time>
      </trkpt>
      <trkpt lat="40.1367700" lon="-4.7263200">
        <ele>1202.6</ele>
        <time>2022-03-01T16:10:51Z</time>
      </trkpt>
      <trkpt lat="40.1367970" lon="-4.7262710">
        <ele>1202.8</ele>
        <time>2022-03-01T16:10:52Z</time>
      </trkpt>
      <trkpt lat="40.1368080" lon="-4.7262490">
        <ele>1202.9</ele>
        <time>2022-03-01T16:10:53Z</time>
      </trkpt>
      <trkpt lat="40.1368350" lon="-4.7262110">
        <ele>1203.1</ele>
        <time>2022-03-01T16:10:54Z</time>
      </trkpt>
      <trkpt lat="40.1368760" lon="-4.7261700">
        <ele>1203.3</ele>
        <time>2022-03-01T16:10:55Z</time>
      </trkpt>
      <trkpt lat="40.1369160" lon="-4.7261330">
        <ele>1203.5</ele>
        <time>2022-03-01T16:10:56Z</time>
      </trkpt>
      <trkpt lat="40.1369620" lon="-4.7260960">
        <ele>1203.7</ele>
        <time>2022-03-01T16:10:57Z</time>
      </trkpt>
      <trkpt lat="40.1369930" lon="-4.7260520">
        <ele>1203.9</ele>
        <time>2022-03-01T16:10:58Z</time>
      </trkpt>
      <trkpt lat="40.1370370" lon="-4.7260160">
        <ele>1204.2</ele>
        <time>2022-03-01T16:10:59Z</time>
      </trkpt>
      <trkpt lat="40.1370770" lon="-4.7259860">
        <ele>1204.4</ele>
        <time>2022-03-01T16:11:00Z</time>
      </trkpt>
      <trkpt lat="40.1371200" lon="-4.7259470">
        <ele>1204.6</ele>
        <time>2022-03-01T16:11:01Z</time>
      </trkpt>
      <trkpt lat="40.1371500" lon="-4.7259120">
        <ele>1204.8</ele>
        <time>2022-03-01T16:11:02Z</time>
      </trkpt>
      <trkpt lat="40.1371830" lon="-4.7258790">
        <ele>1205.0</ele>
        <time>2022-03-01T16:11:03Z</time>
      </trkpt>
      <trkpt lat="40.1372200" lon="-4.7258380">
        <ele>1205.2</ele>
        <time>2022-03-01T16:11:04Z</time>
      </trkpt>
      <trkpt lat="40.1372900" lon="-4.7257570">
        <ele>1205.8</ele>
        <time>2022-03-01T16:11:05Z</time>
      </trkpt>
      <trkpt lat="40.1373160" lon="-4.7257200">
        <ele>1206.0</ele>
        <time>2022-03-01T16:11:06Z</time>
      </trkpt>
      <trkpt lat="40.1373460" lon="-4.7256840">
        <ele>1206.3</ele>
        <time>2022-03-01T16:11:07Z</time>
      </trkpt>
      <trkpt lat="40.1373720" lon="-4.7256510">
        <ele>1206.5</ele>
        <time>2022-03-01T16:11:08Z</time>
      </trkpt>
      <trkpt lat="40.1373950" lon="-4.7256160">
        <ele>1206.8</ele>
        <time>2022-03-01T16:11:09Z</time>
      </trkpt>
      <trkpt lat="40.1374310" lon="-4.7255700">
        <ele>1207.1</ele>
        <time>2022-03-01T16:11:10Z</time>
      </trkpt>
      <trkpt lat="40.1374620" lon="-4.7255280">
        <ele>1207.5</ele>
        <time>2022-03-01T16:11:11Z</time>
      </trkpt>
      <trkpt lat="40.1374910" lon="-4.7254930">
        <ele>1207.8</ele>
        <time>2022-03-01T16:11:12Z</time>
      </trkpt>
      <trkpt lat="40.1375210" lon="-4.7254550">
        <ele>1208.1</ele>
        <time>2022-03-01T16:11:13Z</time>
      </trkpt>
      <trkpt lat="40.1375660" lon="-4.7254270">
        <ele>1208.5</ele>
        <time>2022-03-01T16:11:14Z</time>
      </trkpt>
      <trkpt lat="40.1375970" lon="-4.7253850">
        <ele>1208.9</ele>
        <time>2022-03-01T16:11:15Z</time>
      </trkpt>
      <trkpt lat="40.1376200" lon="-4.7253400">
        <ele>1209.2</ele>
        <time>2022-03-01T16:11:16Z</time>
      </trkpt>
      <trkpt lat="40.1376370" lon="-4.7252970">
        <ele>1209.5</ele>
        <time>2022-03-01T16:11:17Z</time>
      </trkpt>
      <trkpt lat="40.1376410" lon="-4.7252540">
        <ele>1209.7</ele>
        <time>2022-03-01T16:11:18Z</time>
      </trkpt>
      <trkpt lat="40.1376740" lon="-4.7252070">
        <ele>1210.1</ele>
        <time>2022-03-01T16:11:19Z</time>
      </trkpt>
      <trkpt lat="40.1376840" lon="-4.7251430">
        <ele>1210.5</ele>
        <time>2022-03-01T16:11:20Z</time>
      </trkpt>
      <trkpt lat="40.1376940" lon="-4.7250990">
        <ele>1210.7</ele>
        <time>2022-03-01T16:11:21Z</time>
      </trkpt>
      <trkpt lat="40.1376900" lon="-4.7250620">
        <ele>1210.9</ele>
        <time>2022-03-01T16:11:22Z</time>
      </trkpt>
      <trkpt lat="40.1376650" lon="-4.7250470">
        <ele>1211.1</ele>
        <time>2022-03-01T16:11:23Z</time>
      </trkpt>
      <trkpt lat="40.1376470" lon="-4.7250360">
        <ele>1211.3</ele>
        <time>2022-03-01T16:11:24Z</time>
      </trkpt>
      <trkpt lat="40.1376420" lon="-4.7250210">
        <ele>1211.4</ele>
        <time>2022-03-01T16:11:25Z</time>
      </trkpt>
      <trkpt lat="40.1376150" lon="-4.7249950">
        <ele>1212.2</ele>
        <time>2022-03-01T16:11:26Z</time>
      </trkpt>
      <trkpt lat="40.1375830" lon="-4.7249810">
        <ele>1212.4</ele>
        <time>2022-03-01T16:11:27Z</time>
      </trkpt>
      <trkpt lat="40.1375480" lon="-4.7249650">
        <ele>1212.6</ele>
        <time>2022-03-01T16:11:28Z</time>
      </trkpt>
      <trkpt lat="40.1375130" lon="-4.7249500">
        <ele>1212.9</ele>
        <time>2022-03-01T16:11:29Z</time>
      </trkpt>
      <trkpt lat="40.1374790" lon="-4.7249280">
        <ele>1213.1</ele>
        <time>2022-03-01T16:11:30Z</time>
      </trkpt>
      <trkpt lat="40.1374530" lon="-4.7249090">
        <ele>1213.3</ele>
        <time>2022-03-01T16:11:31Z</time>
      </trkpt>
      <trkpt lat="40.1374210" lon="-4.7248930">
        <ele>1213.6</ele>
        <time>2022-03-01T16:11:32Z</time>
      </trkpt>
      <trkpt lat="40.1374070" lon="-4.7248850">
        <ele>1213.7</ele>
        <time>2022-03-01T16:11:33Z</time>
      </trkpt>
      <trkpt lat="40.1373650" lon="-4.7248660">
        <ele>1214.0</ele>
        <time>2022-03-01T16:11:34Z</time>
      </trkpt>
      <trkpt lat="40.1373180" lon="-4.7248440">
        <ele>1214.3</ele>
        <time>2022-03-01T16:11:35Z</time>
      </trkpt>
      <trkpt lat="40.1372790" lon="-4.7248270">
        <ele>1214.6</ele>
        <time>2022-03-01T16:11:36Z</time>
      </trkpt>
      <trkpt lat="40.1372430" lon="-4.7248140">
        <ele>1214.9</ele>
        <time>2022-03-01T16:11:37Z</time>
      </trkpt>
      <trkpt lat="40.1372140" lon="-4.7247970">
        <ele>1215.1</ele>
        <time>2022-03-01T16:11:38Z</time>
      </trkpt>
      <trkpt lat="40.1371850" lon="-4.7247880">
        <ele>1215.3</ele>
        <time>2022-03-01T16:11:39Z</time>
      </trkpt>
      <trkpt lat="40.1371550" lon="-4.7247780">
        <ele>1215.5</ele>
        <time>2022-03-01T16:11:40Z</time>
      </trkpt>
      <trkpt lat="40.1371270" lon="-4.7247760">
        <ele>1215.7</ele>
        <time>2022-03-01T16:11:41Z</time>
      </trkpt>
      <trkpt lat="40.1370940" lon="-4.7247600">
        <ele>1215.9</ele>
        <time>2022-03-01T16:11:42Z</time>
      </trkpt>
      <trkpt lat="40.1370630" lon="-4.7247440">
        <ele>1216.1</ele>
        <time>2022-03-01T16:11:43Z</time>
      </trkpt>
      <trkpt lat="40.1370290" lon="-4.7247250">
        <ele>1216.2</ele>
        <time>2022-03-01T16:11:44Z</time>
      </trkpt>
      <trkpt lat="40.1370050" lon="-4.7247020">
        <ele>1216.4</ele>
        <time>2022-03-01T16:11:45Z</time>
      </trkpt>
      <trkpt lat="40.1369770" lon="-4.7246810">
        <ele>1216.5</ele>
        <time>2022-03-01T16:11:46Z</time>
      </trkpt>
      <trkpt lat="40.1369590" lon="-4.7246510">
        <ele>1216.6</ele>
        <time>2022-03-01T16:11:47Z</time>
      </trkpt>
      <trkpt lat="40.1369360" lon="-4.7246140">
        <ele>1216.5</ele>
        <time>2022-03-01T16:11:48Z</time>
      </trkpt>
      <trkpt lat="40.1369120" lon="-4.7245790">
        <ele>1216.5</ele>
        <time>2022-03-01T16:11:49Z</time>
      </trkpt>
      <trkpt lat="40.1368910" lon="-4.7245450">
        <ele>1216.4</ele>
        <time>2022-03-01T16:11:50Z</time>
      </trkpt>
      <trkpt lat="40.1368700" lon="-4.7245100">
        <ele>1216.4</ele>
        <time>2022-03-01T16:11:51Z</time>
      </trkpt>
      <trkpt lat="40.1368560" lon="-4.7244780">
        <ele>1216.3</ele>
        <time>2022-03-01T16:11:52Z</time>
      </trkpt>
      <trkpt lat="40.1368400" lon="-4.7244290">
        <ele>1216.3</ele>
        <time>2022-03-01T16:11:53Z</time>
      </trkpt>
      <trkpt lat="40.1368220" lon="-4.7243780">
        <ele>1216.2</ele>
        <time>2022-03-01T16:11:54Z</time>
      </trkpt>
      <trkpt lat="40.1368020" lon="-4.7243230">
        <ele>1216.0</ele>
        <time>2022-03-01T16:11:55Z</time>
      </trkpt>
      <trkpt lat="40.1367950" lon="-4.7242520">
        <ele>1215.9</ele>
        <time>2022-03-01T16:11:56Z</time>
      </trkpt>
      <trkpt lat="40.1367950" lon="-4.7241950">
        <ele>1215.6</ele>
        <time>2022-03-01T16:11:57Z</time>
      </trkpt>
      <trkpt lat="40.1367900" lon="-4.7241410">
        <ele>1215.4</ele>
        <time>2022-03-01T16:11:58Z</time>
      </trkpt>
      <trkpt lat="40.1367830" lon="-4.7240930">
        <ele>1215.1</ele>
        <time>2022-03-01T16:11:59Z</time>
      </trkpt>
      <trkpt lat="40.1367830" lon="-4.7240440">
        <ele>1214.9</ele>
        <time>2022-03-01T16:12:00Z</time>
      </trkpt>
      <trkpt lat="40.1367870" lon="-4.7240060">
        <ele>1214.7</ele>
        <time>2022-03-01T16:12:01Z</time>
      </trkpt>
      <trkpt lat="40.1367860" lon="-4.7239840">
        <ele>1214.7</ele>
        <time>2022-03-01T16:12:02Z</time>
      </trkpt>
      <trkpt lat="40.1367850" lon="-4.7239780">
        <ele>1214.6</ele>
        <time>2022-03-01T16:12:03Z</time>
      </trkpt>
      <trkpt lat="40.1367840" lon="-4.7239710">
        <ele>1214.6</ele>
        <time>2022-03-01T16:12:04Z</time>
      </trkpt>
      <trkpt lat="40.1367830" lon="-4.7239650">
        <ele>1214.6</ele>
        <time>2022-03-01T16:12:05Z</time>
      </trkpt>
      <trkpt lat="40.1367830" lon="-4.7239580">
        <ele>1214.5</ele>
        <time>2022-03-01T16:12:06Z</time>
      </trkpt>
      <trkpt lat="40.1367820" lon="-4.7239520">
        <ele>1214.5</ele>
        <time>2022-03-01T16:12:07Z</time>
      </trkpt>
      <trkpt lat="40.1367810" lon="-4.7239450">
        <ele>1214.5</ele>
        <time>2022-03-01T16:12:08Z</time>
      </trkpt>
      <trkpt lat="40.1367810" lon="-4.7239390">
        <ele>1214.4</ele>
        <time>2022-03-01T16:12:09Z</time>
      </trkpt>
      <trkpt lat="40.1367800" lon="-4.7239320">
        <ele>1214.4</ele>
        <time>2022-03-01T16:12:10Z</time>
      </trkpt>
      <trkpt lat="40.1367790" lon="-4.7239260">
        <ele>1214.4</ele>
        <time>2022-03-01T16:12:11Z</time>
      </trkpt>
      <trkpt lat="40.1367780" lon="-4.7239190">
        <ele>1214.4</ele>
        <time>2022-03-01T16:12:12Z</time>
      </trkpt>
      <trkpt lat="40.1367780" lon="-4.7239130">
        <ele>1214.3</ele>
        <time>2022-03-01T16:12:56Z</time>
      </trkpt>
      <trkpt lat="40.1367770" lon="-4.7239060">
        <ele>1214.3</ele>
        <time>2022-03-01T16:12:57Z</time>
      </trkpt>
      <trkpt lat="40.1367760" lon="-4.7239000">
        <ele>1214.3</ele>
        <time>2022-03-01T16:12:58Z</time>
      </trkpt>
      <trkpt lat="40.1367750" lon="-4.7238930">
        <ele>1214.2</ele>
        <time>2022-03-01T16:12:59Z</time>
      </trkpt>
      <trkpt lat="40.1367750" lon="-4.7238860">
        <ele>1214.2</ele>
        <time>2022-03-01T16:13:00Z</time>
      </trkpt>
      <trkpt lat="40.1367740" lon="-4.7238800">
        <ele>1214.2</ele>
        <time>2022-03-01T16:13:01Z</time>
      </trkpt>
      <trkpt lat="40.1367730" lon="-4.7238730">
        <ele>1214.1</ele>
        <time>2022-03-01T16:13:02Z</time>
      </trkpt>
      <trkpt lat="40.1367720" lon="-4.7238670">
        <ele>1214.1</ele>
        <time>2022-03-01T16:13:03Z</time>
      </trkpt>
      <trkpt lat="40.1367720" lon="-4.7238600">
        <ele>1214.1</ele>
        <time>2022-03-01T16:13:04Z</time>
      </trkpt>
      <trkpt lat="40.1367710" lon="-4.7238540">
        <ele>1214.1</ele>
        <time>2022-03-01T16:13:05Z</time>
      </trkpt>
      <trkpt lat="40.1367700" lon="-4.7238470">
        <ele>1214.0</ele>
        <time>2022-03-01T16:13:06Z</time>
      </trkpt>
      <trkpt lat="40.1367700" lon="-4.7238410">
        <ele>1214.0</ele>
        <time>2022-03-01T16:13:07Z</time>
      </trkpt>
      <trkpt lat="40.1367690" lon="-4.7238340">
        <ele>1214.0</ele>
        <time>2022-03-01T16:13:08Z</time>
      </trkpt>
      <trkpt lat="40.1367680" lon="-4.7238280">
        <ele>1213.9</ele>
        <time>2022-03-01T16:13:09Z</time>
      </trkpt>
      <trkpt lat="40.1367670" lon="-4.7238210">
        <ele>1213.9</ele>
        <time>2022-03-01T16:13:10Z</time>
      </trkpt>
      <trkpt lat="40.1367670" lon="-4.7238150">
        <ele>1213.9</ele>
        <time>2022-03-01T16:15:33Z</time>
      </trkpt>
      <trkpt lat="40.1367660" lon="-4.7238080">
        <ele>1213.9</ele>
        <time>2022-03-01T16:15:34Z</time>
      </trkpt>
      <trkpt lat="40.1367770" lon="-4.7237340">
        <ele>1213.5</ele>
        <time>2022-03-01T16:15:35Z</time>
      </trkpt>
      <trkpt lat="40.1367890" lon="-4.7236720">
        <ele>1213.2</ele>
        <time>2022-03-01T16:15:36Z</time>
      </trkpt>
      <trkpt lat="40.1367990" lon="-4.7236390">
        <ele>1213.0</ele>
        <time>2022-03-01T16:15:37Z</time>
      </trkpt>
      <trkpt lat="40.1368100" lon="-4.7236010">
        <ele>1212.8</ele>
        <time>2022-03-01T16:15:38Z</time>
      </trkpt>
      <trkpt lat="40.1368140" lon="-4.7235570">
        <ele>1212.6</ele>
        <time>2022-03-01T16:15:39Z</time>
      </trkpt>
      <trkpt lat="40.1368190" lon="-4.7235000">
        <ele>1212.4</ele>
        <time>2022-03-01T16:15:40Z</time>
      </trkpt>
      <trkpt lat="40.1368190" lon="-4.7234470">
        <ele>1212.1</ele>
        <time>2022-03-01T16:15:41Z</time>
      </trkpt>
      <trkpt lat="40.1368240" lon="-4.7233930">
        <ele>1211.9</ele>
        <time>2022-03-01T16:15:42Z</time>
      </trkpt>
      <trkpt lat="40.1368260" lon="-4.7233480">
        <ele>1211.6</ele>
        <time>2022-03-01T16:15:43Z</time>
      </trkpt>
      <trkpt lat="40.1368340" lon="-4.7232970">
        <ele>1211.4</ele>
        <time>2022-03-01T16:15:44Z</time>
      </trkpt>
      <trkpt lat="40.1368410" lon="-4.7232420">
        <ele>1211.1</ele>
        <time>2022-03-01T16:15:45Z</time>
      </trkpt>
      <trkpt lat="40.1368460" lon="-4.7231990">
        <ele>1210.9</ele>
        <time>2022-03-01T16:15:46Z</time>
      </trkpt>
      <trkpt lat="40.1368480" lon="-4.7231580">
        <ele>1210.7</ele>
        <time>2022-03-01T16:15:47Z</time>
      </trkpt>
      <trkpt lat="40.1368560" lon="-4.7231210">
        <ele>1210.5</ele>
        <time>2022-03-01T16:15:48Z</time>
      </trkpt>
      <trkpt lat="40.1368580" lon="-4.7231040">
        <ele>1210.4</ele>
        <time>2022-03-01T16:15:49Z</time>
      </trkpt>
      <trkpt lat="40.1368680" lon="-4.7230660">
        <ele>1210.2</ele>
        <time>2022-03-01T16:15:50Z</time>
      </trkpt>
      <trkpt lat="40.1368770" lon="-4.7230300">
        <ele>1210.0</ele>
        <time>2022-03-01T16:15:51Z</time>
      </trkpt>
      <trkpt lat="40.1368910" lon="-4.7229800">
        <ele>1209.8</ele>
        <time>2022-03-01T16:15:52Z</time>
      </trkpt>
      <trkpt lat="40.1369060" lon="-4.7229310">
        <ele>1209.5</ele>
        <time>2022-03-01T16:15:53Z</time>
      </trkpt>
      <trkpt lat="40.1369290" lon="-4.7228830">
        <ele>1209.3</ele>
        <time>2022-03-01T16:15:54Z</time>
      </trkpt>
      <trkpt lat="40.1369480" lon="-4.7228360">
        <ele>1209.0</ele>
        <time>2022-03-01T16:15:55Z</time>
      </trkpt>
      <trkpt lat="40.1369710" lon="-4.7227960">
        <ele>1208.8</ele>
        <time>2022-03-01T16:15:56Z</time>
      </trkpt>
      <trkpt lat="40.1369970" lon="-4.7227540">
        <ele>1208.5</ele>
        <time>2022-03-01T16:15:57Z</time>
      </trkpt>
      <trkpt lat="40.1370070" lon="-4.7227030">
        <ele>1208.2</ele>
        <time>2022-03-01T16:15:58Z</time>
      </trkpt>
      <trkpt lat="40.1370270" lon="-4.7226550">
        <ele>1208.0</ele>
        <time>2022-03-01T16:15:59Z</time>
      </trkpt>
      <trkpt lat="40.1370570" lon="-4.7226130">
        <ele>1207.7</ele>
        <time>2022-03-01T16:16:00Z</time>
      </trkpt>
      <trkpt lat="40.1370680" lon="-4.7225730">
        <ele>1207.5</ele>
        <time>2022-03-01T16:16:01Z</time>
      </trkpt>
      <trkpt lat="40.1370850" lon="-4.7225270">
        <ele>1207.2</ele>
        <time>2022-03-01T16:16:02Z</time>
      </trkpt>
      <trkpt lat="40.1371080" lon="-4.7224840">
        <ele>1207.0</ele>
        <time>2022-03-01T16:16:03Z</time>
      </trkpt>
      <trkpt lat="40.1371340" lon="-4.7224360">
        <ele>1206.7</ele>
        <time>2022-03-01T16:16:04Z</time>
      </trkpt>
      <trkpt lat="40.1371530" lon="-4.7223800">
        <ele>1206.4</ele>
        <time>2022-03-01T16:16:05Z</time>
      </trkpt>
      <trkpt lat="40.1371880" lon="-4.7223230">
        <ele>1206.1</ele>
        <time>2022-03-01T16:16:06Z</time>
      </trkpt>
      <trkpt lat="40.1372110" lon="-4.7222550">
        <ele>1205.7</ele>
        <time>2022-03-01T16:16:07Z</time>
      </trkpt>
      <trkpt lat="40.1372380" lon="-4.7221960">
        <ele>1205.4</ele>
        <time>2022-03-01T16:16:08Z</time>
      </trkpt>
      <trkpt lat="40.1372670" lon="-4.7221220">
        <ele>1205.0</ele>
        <time>2022-03-01T16:16:09Z</time>
      </trkpt>
      <trkpt lat="40.1372870" lon="-4.7220510">
        <ele>1204.6</ele>
        <time>2022-03-01T16:16:10Z</time>
      </trkpt>
      <trkpt lat="40.1373040" lon="-4.7219740">
        <ele>1204.2</ele>
        <time>2022-03-01T16:16:11Z</time>
      </trkpt>
      <trkpt lat="40.1373220" lon="-4.7219120">
        <ele>1203.9</ele>
        <time>2022-03-01T16:16:12Z</time>
      </trkpt>
      <trkpt lat="40.1373400" lon="-4.7218350">
        <ele>1203.5</ele>
        <time>2022-03-01T16:16:13Z</time>
      </trkpt>
      <trkpt lat="40.1373760" lon="-4.7217500">
        <ele>1203.0</ele>
        <time>2022-03-01T16:16:14Z</time>
      </trkpt>
      <trkpt lat="40.1374110" lon="-4.7216430">
        <ele>1202.4</ele>
        <time>2022-03-01T16:16:15Z</time>
      </trkpt>
      <trkpt lat="40.1374260" lon="-4.7215400">
        <ele>1201.8</ele>
        <time>2022-03-01T16:16:16Z</time>
      </trkpt>
      <trkpt lat="40.1374430" lon="-4.7214300">
        <ele>1201.1</ele>
        <time>2022-03-01T16:16:17Z</time>
      </trkpt>
      <trkpt lat="40.1374610" lon="-4.7213270">
        <ele>1200.5</ele>
        <time>2022-03-01T16:16:18Z</time>
      </trkpt>
      <trkpt lat="40.1374790" lon="-4.7212150">
        <ele>1199.8</ele>
        <time>2022-03-01T16:16:19Z</time>
      </trkpt>
      <trkpt lat="40.1374810" lon="-4.7210850">
        <ele>1199.0</ele>
        <time>2022-03-01T16:16:20Z</time>
      </trkpt>
      <trkpt lat="40.1374740" lon="-4.7209670">
        <ele>1198.3</ele>
        <time>2022-03-01T16:16:21Z</time>
      </trkpt>
      <trkpt lat="40.1374730" lon="-4.7208330">
        <ele>1197.6</ele>
        <time>2022-03-01T16:16:22Z</time>
      </trkpt>
      <trkpt lat="40.1374710" lon="-4.7206950">
        <ele>1196.8</ele>
        <time>2022-03-01T16:16:23Z</time>
      </trkpt>
      <trkpt lat="40.1374740" lon="-4.7205500">
        <ele>1196.0</ele>
        <time>2022-03-01T16:16:24Z</time>
      </trkpt>
      <trkpt lat="40.1374760" lon="-4.7204010">
        <ele>1195.1</ele>
        <time>2022-03-01T16:16:25Z</time>
      </trkpt>
      <trkpt lat="40.1374860" lon="-4.7202520">
        <ele>1194.2</ele>
        <time>2022-03-01T16:16:26Z</time>
      </trkpt>
      <trkpt lat="40.1374910" lon="-4.7201000">
        <ele>1193.4</ele>
        <time>2022-03-01T16:16:27Z</time>
      </trkpt>
      <trkpt lat="40.1374860" lon="-4.7199400">
        <ele>1192.5</ele>
        <time>2022-03-01T16:16:28Z</time>
      </trkpt>
      <trkpt lat="40.1374950" lon="-4.7197850">
        <ele>1191.7</ele>
        <time>2022-03-01T16:16:29Z</time>
      </trkpt>
      <trkpt lat="40.1374990" lon="-4.7196300">
        <ele>1190.8</ele>
        <time>2022-03-01T16:16:30Z</time>
      </trkpt>
      <trkpt lat="40.1375100" lon="-4.7194730">
        <ele>1190.0</ele>
        <time>2022-03-01T16:16:31Z</time>
      </trkpt>
      <trkpt lat="40.1375330" lon="-4.7193260">
        <ele>1189.2</ele>
        <time>2022-03-01T16:16:32Z</time>
      </trkpt>
      <trkpt lat="40.1375760" lon="-4.7191870">
        <ele>1188.3</ele>
        <time>2022-03-01T16:16:33Z</time>
      </trkpt>
      <trkpt lat="40.1376560" lon="-4.7190630">
        <ele>1187.3</ele>
        <time>2022-03-01T16:16:34Z</time>
      </trkpt>
      <trkpt lat="40.1377570" lon="-4.7189680">
        <ele>1186.3</ele>
        <time>2022-03-01T16:16:35Z</time>
      </trkpt>
      <trkpt lat="40.1378670" lon="-4.7188960">
        <ele>1185.4</ele>
        <time>2022-03-01T16:16:36Z</time>
      </trkpt>
      <trkpt lat="40.1379860" lon="-4.7188400">
        <ele>1184.6</ele>
        <time>2022-03-01T16:16:37Z</time>
      </trkpt>
      <trkpt lat="40.1381040" lon="-4.7187940">
        <ele>1183.9</ele>
        <time>2022-03-01T16:16:38Z</time>
      </trkpt>
      <trkpt lat="40.1382230" lon="-4.7187510">
        <ele>1183.8</ele>
        <time>2022-03-01T16:16:39Z</time>
      </trkpt>
      <trkpt lat="40.1383330" lon="-4.7186790">
        <ele>1183.5</ele>
        <time>2022-03-01T16:16:40Z</time>
      </trkpt>
      <trkpt lat="40.1384340" lon="-4.7185970">
        <ele>1182.6</ele>
        <time>2022-03-01T16:16:41Z</time>
      </trkpt>
      <trkpt lat="40.1385370" lon="-4.7184940">
        <ele>1181.7</ele>
        <time>2022-03-01T16:16:42Z</time>
      </trkpt>
      <trkpt lat="40.1386320" lon="-4.7183760">
        <ele>1180.7</ele>
        <time>2022-03-01T16:16:43Z</time>
      </trkpt>
      <trkpt lat="40.1387240" lon="-4.7182590">
        <ele>1179.7</ele>
        <time>2022-03-01T16:16:44Z</time>
      </trkpt>
      <trkpt lat="40.1388190" lon="-4.7181380">
        <ele>1178.6</ele>
        <time>2022-03-01T16:16:45Z</time>
      </trkpt>
      <trkpt lat="40.1389020" lon="-4.7180150">
        <ele>1177.6</ele>
        <time>2022-03-01T16:16:46Z</time>
      </trkpt>
      <trkpt lat="40.1389860" lon="-4.7178950">
        <ele>1176.6</ele>
        <time>2022-03-01T16:16:47Z</time>
      </trkpt>
      <trkpt lat="40.1390770" lon="-4.7177560">
        <ele>1175.5</ele>
        <time>2022-03-01T16:16:48Z</time>
      </trkpt>
      <trkpt lat="40.1391670" lon="-4.7176350">
        <ele>1174.6</ele>
        <time>2022-03-01T16:16:49Z</time>
      </trkpt>
      <trkpt lat="40.1392490" lon="-4.7175090">
        <ele>1173.7</ele>
        <time>2022-03-01T16:16:50Z</time>
      </trkpt>
      <trkpt lat="40.1393300" lon="-4.7173870">
        <ele>1172.8</ele>
        <time>2022-03-01T16:16:51Z</time>
      </trkpt>
      <trkpt lat="40.1394290" lon="-4.7172700">
        <ele>1171.9</ele>
        <time>2022-03-01T16:16:52Z</time>
      </trkpt>
      <trkpt lat="40.1395300" lon="-4.7171520">
        <ele>1170.9</ele>
        <time>2022-03-01T16:16:53Z</time>
      </trkpt>
      <trkpt lat="40.1396310" lon="-4.7170440">
        <ele>1169.9</ele>
        <time>2022-03-01T16:16:54Z</time>
      </trkpt>
      <trkpt lat="40.1397330" lon="-4.7169390">
        <ele>1168.9</ele>
        <time>2022-03-01T16:16:55Z</time>
      </trkpt>
      <trkpt lat="40.1398320" lon="-4.7168230">
        <ele>1167.8</ele>
        <time>2022-03-01T16:16:56Z</time>
      </trkpt>
      <trkpt lat="40.1399360" lon="-4.7167120">
        <ele>1166.8</ele>
        <time>2022-03-01T16:16:57Z</time>
      </trkpt>
      <trkpt lat="40.1400400" lon="-4.7166010">
        <ele>1165.9</ele>
        <time>2022-03-01T16:16:58Z</time>
      </trkpt>
      <trkpt lat="40.1401390" lon="-4.7164900">
        <ele>1165.0</ele>
        <time>2022-03-01T16:16:59Z</time>
      </trkpt>
      <trkpt lat="40.1402350" lon="-4.7163750">
        <ele>1164.2</ele>
        <time>2022-03-01T16:17:00Z</time>
      </trkpt>
      <trkpt lat="40.1403260" lon="-4.7162580">
        <ele>1163.3</ele>
        <time>2022-03-01T16:17:01Z</time>
      </trkpt>
      <trkpt lat="40.1404210" lon="-4.7161420">
        <ele>1162.5</ele>
        <time>2022-03-01T16:17:02Z</time>
      </trkpt>
      <trkpt lat="40.1405150" lon="-4.7160190">
        <ele>1161.8</ele>
        <time>2022-03-01T16:17:03Z</time>
      </trkpt>
      <trkpt lat="40.1406100" lon="-4.7158990">
        <ele>1161.2</ele>
        <time>2022-03-01T16:17:04Z</time>
      </trkpt>
      <trkpt lat="40.1407090" lon="-4.7157780">
        <ele>1160.6</ele>
        <time>2022-03-01T16:17:05Z</time>
      </trkpt>
      <trkpt lat="40.1408140" lon="-4.7156650">
        <ele>1160.2</ele>
        <time>2022-03-01T16:17:06Z</time>
      </trkpt>
      <trkpt lat="40.1409310" lon="-4.7155830">
        <ele>1159.6</ele>
        <time>2022-03-01T16:17:07Z</time>
      </trkpt>
      <trkpt lat="40.1410690" lon="-4.7155460">
        <ele>1158.9</ele>
        <time>2022-03-01T16:17:08Z</time>
      </trkpt>
      <trkpt lat="40.1411960" lon="-4.7155400">
        <ele>1157.9</ele>
        <time>2022-03-01T16:17:09Z</time>
      </trkpt>
      <trkpt lat="40.1413220" lon="-4.7155490">
        <ele>1156.9</ele>
        <time>2022-03-01T16:17:10Z</time>
      </trkpt>
      <trkpt lat="40.1414430" lon="-4.7155270">
        <ele>1155.9</ele>
        <time>2022-03-01T16:17:11Z</time>
      </trkpt>
      <trkpt lat="40.1415560" lon="-4.7154700">
        <ele>1154.9</ele>
        <time>2022-03-01T16:17:12Z</time>
      </trkpt>
      <trkpt lat="40.1416690" lon="-4.7153980">
        <ele>1154.0</ele>
        <time>2022-03-01T16:17:13Z</time>
      </trkpt>
      <trkpt lat="40.1417990" lon="-4.7153620">
        <ele>1152.9</ele>
        <time>2022-03-01T16:17:14Z</time>
      </trkpt>
      <trkpt lat="40.1419230" lon="-4.7153250">
        <ele>1151.8</ele>
        <time>2022-03-01T16:17:15Z</time>
      </trkpt>
      <trkpt lat="40.1420510" lon="-4.7152890">
        <ele>1150.5</ele>
        <time>2022-03-01T16:17:16Z</time>
      </trkpt>
      <trkpt lat="40.1421870" lon="-4.7152500">
        <ele>1149.2</ele>
        <time>2022-03-01T16:17:17Z</time>
      </trkpt>
      <trkpt lat="40.1423130" lon="-4.7152080">
        <ele>1147.9</ele>
        <time>2022-03-01T16:17:18Z</time>
      </trkpt>
      <trkpt lat="40.1424400" lon="-4.7151580">
        <ele>1146.7</ele>
        <time>2022-03-01T16:17:19Z</time>
      </trkpt>
      <trkpt lat="40.1425650" lon="-4.7150830">
        <ele>1145.5</ele>
        <time>2022-03-01T16:17:20Z</time>
      </trkpt>
      <trkpt lat="40.1426890" lon="-4.7149940">
        <ele>1144.4</ele>
        <time>2022-03-01T16:17:21Z</time>
      </trkpt>
      <trkpt lat="40.1427990" lon="-4.7148840">
        <ele>1143.3</ele>
        <time>2022-03-01T16:17:22Z</time>
      </trkpt>
      <trkpt lat="40.1429050" lon="-4.7147510">
        <ele>1142.3</ele>
        <time>2022-03-01T16:17:23Z</time>
      </trkpt>
      <trkpt lat="40.1430010" lon="-4.7146120">
        <ele>1141.3</ele>
        <time>2022-03-01T16:17:24Z</time>
      </trkpt>
      <trkpt lat="40.1430920" lon="-4.7144600">
        <ele>1140.4</ele>
        <time>2022-03-01T16:17:25Z</time>
      </trkpt>
      <trkpt lat="40.1431870" lon="-4.7143100">
        <ele>1139.4</ele>
        <time>2022-03-01T16:17:26Z</time>
      </trkpt>
      <trkpt lat="40.1432780" lon="-4.7141660">
        <ele>1138.5</ele>
        <time>2022-03-01T16:17:27Z</time>
      </trkpt>
      <trkpt lat="40.1433610" lon="-4.7140210">
        <ele>1137.7</ele>
        <time>2022-03-01T16:17:28Z</time>
      </trkpt>
      <trkpt lat="40.1434490" lon="-4.7138770">
        <ele>1136.9</ele>
        <time>2022-03-01T16:17:29Z</time>
      </trkpt>
      <trkpt lat="40.1435380" lon="-4.7137360">
        <ele>1136.2</ele>
        <time>2022-03-01T16:17:30Z</time>
      </trkpt>
      <trkpt lat="40.1436320" lon="-4.7136080">
        <ele>1135.4</ele>
        <time>2022-03-01T16:17:31Z</time>
      </trkpt>
      <trkpt lat="40.1437390" lon="-4.7134910">
        <ele>1134.6</ele>
        <time>2022-03-01T16:17:32Z</time>
      </trkpt>
      <trkpt lat="40.1438480" lon="-4.7133850">
        <ele>1133.8</ele>
        <time>2022-03-01T16:17:33Z</time>
      </trkpt>
      <trkpt lat="40.1439670" lon="-4.7132920">
        <ele>1133.0</ele>
        <time>2022-03-01T16:17:34Z</time>
      </trkpt>
      <trkpt lat="40.1440910" lon="-4.7132120">
        <ele>1132.2</ele>
        <time>2022-03-01T16:17:35Z</time>
      </trkpt>
      <trkpt lat="40.1442170" lon="-4.7131390">
        <ele>1131.4</ele>
        <time>2022-03-01T16:17:36Z</time>
      </trkpt>
      <trkpt lat="40.1443480" lon="-4.7130700">
        <ele>1130.5</ele>
        <time>2022-03-01T16:17:37Z</time>
      </trkpt>
      <trkpt lat="40.1444740" lon="-4.7129970">
        <ele>1129.5</ele>
        <time>2022-03-01T16:17:38Z</time>
      </trkpt>
      <trkpt lat="40.1445940" lon="-4.7129100">
        <ele>1128.5</ele>
        <time>2022-03-01T16:17:39Z</time>
      </trkpt>
      <trkpt lat="40.1447090" lon="-4.7127920">
        <ele>1127.5</ele>
        <time>2022-03-01T16:17:40Z</time>
      </trkpt>
      <trkpt lat="40.1448100" lon="-4.7126650">
        <ele>1126.7</ele>
        <time>2022-03-01T16:17:41Z</time>
      </trkpt>
      <trkpt lat="40.1448930" lon="-4.7125280">
        <ele>1126.0</ele>
        <time>2022-03-01T16:17:42Z</time>
      </trkpt>
      <trkpt lat="40.1449790" lon="-4.7123890">
        <ele>1125.2</ele>
        <time>2022-03-01T16:17:43Z</time>
      </trkpt>
      <trkpt lat="40.1450860" lon="-4.7122810">
        <ele>1124.4</ele>
        <time>2022-03-01T16:17:44Z</time>
      </trkpt>
      <trkpt lat="40.1452000" lon="-4.7121990">
        <ele>1123.4</ele>
        <time>2022-03-01T16:17:45Z</time>
      </trkpt>
      <trkpt lat="40.1453270" lon="-4.7121440">
        <ele>1122.3</ele>
        <time>2022-03-01T16:17:46Z</time>
      </trkpt>
      <trkpt lat="40.1454630" lon="-4.7121130">
        <ele>1121.2</ele>
        <time>2022-03-01T16:17:47Z</time>
      </trkpt>
      <trkpt lat="40.1456000" lon="-4.7120930">
        <ele>1120.3</ele>
        <time>2022-03-01T16:17:48Z</time>
      </trkpt>
      <trkpt lat="40.1457350" lon="-4.7120810">
        <ele>1119.5</ele>
        <time>2022-03-01T16:17:49Z</time>
      </trkpt>
      <trkpt lat="40.1458540" lon="-4.7120500">
        <ele>1118.8</ele>
        <time>2022-03-01T16:17:50Z</time>
      </trkpt>
      <trkpt lat="40.1459510" lon="-4.7119680">
        <ele>1118.1</ele>
        <time>2022-03-01T16:17:51Z</time>
      </trkpt>
      <trkpt lat="40.1460180" lon="-4.7118530">
        <ele>1117.2</ele>
        <time>2022-03-01T16:17:52Z</time>
      </trkpt>
      <trkpt lat="40.1460690" lon="-4.7117140">
        <ele>1116.2</ele>
        <time>2022-03-01T16:17:53Z</time>
      </trkpt>
      <trkpt lat="40.1461220" lon="-4.7115820">
        <ele>1115.1</ele>
        <time>2022-03-01T16:17:54Z</time>
      </trkpt>
      <trkpt lat="40.1461810" lon="-4.7114500">
        <ele>1114.1</ele>
        <time>2022-03-01T16:17:55Z</time>
      </trkpt>
      <trkpt lat="40.1462520" lon="-4.7113170">
        <ele>1113.1</ele>
        <time>2022-03-01T16:17:56Z</time>
      </trkpt>
      <trkpt lat="40.1463360" lon="-4.7111940">
        <ele>1112.1</ele>
        <time>2022-03-01T16:17:57Z</time>
      </trkpt>
      <trkpt lat="40.1464260" lon="-4.7110820">
        <ele>1111.1</ele>
        <time>2022-03-01T16:17:58Z</time>
      </trkpt>
      <trkpt lat="40.1465360" lon="-4.7109840">
        <ele>1110.2</ele>
        <time>2022-03-01T16:17:59Z</time>
      </trkpt>
      <trkpt lat="40.1466520" lon="-4.7109000">
        <ele>1109.2</ele>
        <time>2022-03-01T16:18:00Z</time>
      </trkpt>
      <trkpt lat="40.1467700" lon="-4.7108260">
        <ele>1108.3</ele>
        <time>2022-03-01T16:18:01Z</time>
      </trkpt>
      <trkpt lat="40.1468830" lon="-4.7107390">
        <ele>1107.5</ele>
        <time>2022-03-01T16:18:02Z</time>
      </trkpt>
      <trkpt lat="40.1470070" lon="-4.7106650">
        <ele>1106.6</ele>
        <time>2022-03-01T16:18:03Z</time>
      </trkpt>
      <trkpt lat="40.1471240" lon="-4.7105900">
        <ele>1105.8</ele>
        <time>2022-03-01T16:18:04Z</time>
      </trkpt>
      <trkpt lat="40.1472420" lon="-4.7105050">
        <ele>1104.9</ele>
        <time>2022-03-01T16:18:05Z</time>
      </trkpt>
      <trkpt lat="40.1473540" lon="-4.7104150">
        <ele>1104.1</ele>
        <time>2022-03-01T16:18:06Z</time>
      </trkpt>
      <trkpt lat="40.1474570" lon="-4.7103070">
        <ele>1103.2</ele>
        <time>2022-03-01T16:18:07Z</time>
      </trkpt>
      <trkpt lat="40.1475500" lon="-4.7101850">
        <ele>1102.3</ele>
        <time>2022-03-01T16:18:08Z</time>
      </trkpt>
      <trkpt lat="40.1476260" lon="-4.7100450">
        <ele>1101.5</ele>
        <time>2022-03-01T16:18:09Z</time>
      </trkpt>
      <trkpt lat="40.1476900" lon="-4.7098940">
        <ele>1100.6</ele>
        <time>2022-03-01T16:18:10Z</time>
      </trkpt>
      <trkpt lat="40.1477620" lon="-4.7097450">
        <ele>1099.7</ele>
        <time>2022-03-01T16:18:11Z</time>
      </trkpt>
      <trkpt lat="40.1478510" lon="-4.7096170">
        <ele>1098.9</ele>
        <time>2022-03-01T16:18:12Z</time>
      </trkpt>
      <trkpt lat="40.1479580" lon="-4.7095020">
        <ele>1098.0</ele>
        <time>2022-03-01T16:18:13Z</time>
      </trkpt>
      <trkpt lat="40.1480790" lon="-4.7094090">
        <ele>1097.2</ele>
        <time>2022-03-01T16:18:14Z</time>
      </trkpt>
      <trkpt lat="40.1481850" lon="-4.7093010">
        <ele>1096.5</ele>
        <time>2022-03-01T16:18:15Z</time>
      </trkpt>
      <trkpt lat="40.1482890" lon="-4.7091810">
        <ele>1095.8</ele>
        <time>2022-03-01T16:18:16Z</time>
      </trkpt>
      <trkpt lat="40.1483650" lon="-4.7090430">
        <ele>1095.0</ele>
        <time>2022-03-01T16:18:17Z</time>
      </trkpt>
      <trkpt lat="40.1484320" lon="-4.7088790">
        <ele>1094.2</ele>
        <time>2022-03-01T16:18:18Z</time>
      </trkpt>
      <trkpt lat="40.1484810" lon="-4.7087240">
        <ele>1093.5</ele>
        <time>2022-03-01T16:18:19Z</time>
      </trkpt>
      <trkpt lat="40.1485410" lon="-4.7085680">
        <ele>1092.7</ele>
        <time>2022-03-01T16:18:20Z</time>
      </trkpt>
      <trkpt lat="40.1486110" lon="-4.7084120">
        <ele>1091.9</ele>
        <time>2022-03-01T16:18:21Z</time>
      </trkpt>
      <trkpt lat="40.1486780" lon="-4.7082540">
        <ele>1091.1</ele>
        <time>2022-03-01T16:18:22Z</time>
      </trkpt>
      <trkpt lat="40.1487530" lon="-4.7081010">
        <ele>1090.4</ele>
        <time>2022-03-01T16:18:23Z</time>
      </trkpt>
      <trkpt lat="40.1488400" lon="-4.7079550">
        <ele>1089.8</ele>
        <time>2022-03-01T16:18:24Z</time>
      </trkpt>
      <trkpt lat="40.1489510" lon="-4.7078280">
        <ele>1089.3</ele>
        <time>2022-03-01T16:18:25Z</time>
      </trkpt>
      <trkpt lat="40.1490690" lon="-4.7077240">
        <ele>1088.8</ele>
        <time>2022-03-01T16:18:26Z</time>
      </trkpt>
      <trkpt lat="40.1491790" lon="-4.7076520">
        <ele>1088.3</ele>
        <time>2022-03-01T16:18:27Z</time>
      </trkpt>
      <trkpt lat="40.1493000" lon="-4.7076190">
        <ele>1087.5</ele>
        <time>2022-03-01T16:18:28Z</time>
      </trkpt>
      <trkpt lat="40.1494180" lon="-4.7076120">
        <ele>1086.6</ele>
        <time>2022-03-01T16:18:29Z</time>
      </trkpt>
      <trkpt lat="40.1495430" lon="-4.7075960">
        <ele>1085.5</ele>
        <time>2022-03-01T16:18:30Z</time>
      </trkpt>
      <trkpt lat="40.1496620" lon="-4.7075240">
        <ele>1084.3</ele>
        <time>2022-03-01T16:18:31Z</time>
      </trkpt>
      <trkpt lat="40.1497680" lon="-4.7074180">
        <ele>1083.1</ele>
        <time>2022-03-01T16:18:32Z</time>
      </trkpt>
      <trkpt lat="40.1498520" lon="-4.7073050">
        <ele>1082.1</ele>
        <time>2022-03-01T16:18:33Z</time>
      </trkpt>
      <trkpt lat="40.1499400" lon="-4.7071720">
        <ele>1081.0</ele>
        <time>2022-03-01T16:18:34Z</time>
      </trkpt>
      <trkpt lat="40.1500050" lon="-4.7070410">
        <ele>1080.1</ele>
        <time>2022-03-01T16:18:35Z</time>
      </trkpt>
      <trkpt lat="40.1500810" lon="-4.7069010">
        <ele>1079.0</ele>
        <time>2022-03-01T16:18:36Z</time>
      </trkpt>
      <trkpt lat="40.1501290" lon="-4.7067360">
        <ele>1078.0</ele>
        <time>2022-03-01T16:18:37Z</time>
      </trkpt>
      <trkpt lat="40.1501650" lon="-4.7065730">
        <ele>1077.1</ele>
        <time>2022-03-01T16:18:38Z</time>
      </trkpt>
      <trkpt lat="40.1502210" lon="-4.7064260">
        <ele>1076.2</ele>
        <time>2022-03-01T16:18:39Z</time>
      </trkpt>
      <trkpt lat="40.1502760" lon="-4.7062690">
        <ele>1075.4</ele>
        <time>2022-03-01T16:18:40Z</time>
      </trkpt>
      <trkpt lat="40.1503340" lon="-4.7061060">
        <ele>1074.7</ele>
        <time>2022-03-01T16:18:41Z</time>
      </trkpt>
      <trkpt lat="40.1503960" lon="-4.7059570">
        <ele>1074.0</ele>
        <time>2022-03-01T16:18:42Z</time>
      </trkpt>
      <trkpt lat="40.1504750" lon="-4.7058300">
        <ele>1073.2</ele>
        <time>2022-03-01T16:18:43Z</time>
      </trkpt>
      <trkpt lat="40.1505680" lon="-4.7057170">
        <ele>1072.3</ele>
        <time>2022-03-01T16:18:44Z</time>
      </trkpt>
      <trkpt lat="40.1506710" lon="-4.7056020">
        <ele>1071.3</ele>
        <time>2022-03-01T16:18:45Z</time>
      </trkpt>
      <trkpt lat="40.1507610" lon="-4.7054780">
        <ele>1070.3</ele>
        <time>2022-03-01T16:18:46Z</time>
      </trkpt>
      <trkpt lat="40.1508500" lon="-4.7053720">
        <ele>1069.4</ele>
        <time>2022-03-01T16:18:47Z</time>
      </trkpt>
      <trkpt lat="40.1509540" lon="-4.7052570">
        <ele>1068.5</ele>
        <time>2022-03-01T16:18:48Z</time>
      </trkpt>
      <trkpt lat="40.1510770" lon="-4.7051600">
        <ele>1067.4</ele>
        <time>2022-03-01T16:18:49Z</time>
      </trkpt>
      <trkpt lat="40.1512130" lon="-4.7050930">
        <ele>1066.4</ele>
        <time>2022-03-01T16:18:50Z</time>
      </trkpt>
      <trkpt lat="40.1513550" lon="-4.7050510">
        <ele>1065.4</ele>
        <time>2022-03-01T16:18:51Z</time>
      </trkpt>
      <trkpt lat="40.1514940" lon="-4.7050150">
        <ele>1064.5</ele>
        <time>2022-03-01T16:18:52Z</time>
      </trkpt>
      <trkpt lat="40.1516370" lon="-4.7049950">
        <ele>1063.7</ele>
        <time>2022-03-01T16:18:53Z</time>
      </trkpt>
      <trkpt lat="40.1517740" lon="-4.7049860">
        <ele>1063.0</ele>
        <time>2022-03-01T16:18:54Z</time>
      </trkpt>
      <trkpt lat="40.1519080" lon="-4.7049970">
        <ele>1062.4</ele>
        <time>2022-03-01T16:18:55Z</time>
      </trkpt>
      <trkpt lat="40.1520360" lon="-4.7049830">
        <ele>1061.7</ele>
        <time>2022-03-01T16:18:56Z</time>
      </trkpt>
      <trkpt lat="40.1521590" lon="-4.7049310">
        <ele>1060.8</ele>
        <time>2022-03-01T16:18:57Z</time>
      </trkpt>
      <trkpt lat="40.1522610" lon="-4.7048330">
        <ele>1060.0</ele>
        <time>2022-03-01T16:18:58Z</time>
      </trkpt>
      <trkpt lat="40.1523380" lon="-4.7046950">
        <ele>1059.0</ele>
        <time>2022-03-01T16:18:59Z</time>
      </trkpt>
      <trkpt lat="40.1524100" lon="-4.7045550">
        <ele>1058.1</ele>
        <time>2022-03-01T16:19:00Z</time>
      </trkpt>
      <trkpt lat="40.1524690" lon="-4.7044110">
        <ele>1057.2</ele>
        <time>2022-03-01T16:19:01Z</time>
      </trkpt>
      <trkpt lat="40.1525270" lon="-4.7042670">
        <ele>1056.4</ele>
        <time>2022-03-01T16:19:02Z</time>
      </trkpt>
      <trkpt lat="40.1525750" lon="-4.7041280">
        <ele>1055.7</ele>
        <time>2022-03-01T16:19:03Z</time>
      </trkpt>
      <trkpt lat="40.1526150" lon="-4.7039740">
        <ele>1055.0</ele>
        <time>2022-03-01T16:19:04Z</time>
      </trkpt>
      <trkpt lat="40.1526380" lon="-4.7038180">
        <ele>1054.2</ele>
        <time>2022-03-01T16:19:05Z</time>
      </trkpt>
      <trkpt lat="40.1526410" lon="-4.7036590">
        <ele>1053.3</ele>
        <time>2022-03-01T16:19:06Z</time>
      </trkpt>
      <trkpt lat="40.1526480" lon="-4.7035040">
        <ele>1052.5</ele>
        <time>2022-03-01T16:19:07Z</time>
      </trkpt>
      <trkpt lat="40.1526380" lon="-4.7033390">
        <ele>1051.6</ele>
        <time>2022-03-01T16:19:08Z</time>
      </trkpt>
      <trkpt lat="40.1526220" lon="-4.7031750">
        <ele>1050.7</ele>
        <time>2022-03-01T16:19:09Z</time>
      </trkpt>
      <trkpt lat="40.1525960" lon="-4.7030040">
        <ele>1049.8</ele>
        <time>2022-03-01T16:19:10Z</time>
      </trkpt>
      <trkpt lat="40.1525880" lon="-4.7028360">
        <ele>1049.1</ele>
        <time>2022-03-01T16:19:11Z</time>
      </trkpt>
      <trkpt lat="40.1525800" lon="-4.7026650">
        <ele>1048.3</ele>
        <time>2022-03-01T16:19:12Z</time>
      </trkpt>
      <trkpt lat="40.1525710" lon="-4.7024950">
        <ele>1047.6</ele>
        <time>2022-03-01T16:19:13Z</time>
      </trkpt>
      <trkpt lat="40.1525720" lon="-4.7023290">
        <ele>1046.9</ele>
        <time>2022-03-01T16:19:14Z</time>
      </trkpt>
      <trkpt lat="40.1525900" lon="-4.7021680">
        <ele>1046.3</ele>
        <time>2022-03-01T16:19:15Z</time>
      </trkpt>
      <trkpt lat="40.1526170" lon="-4.7020060">
        <ele>1045.7</ele>
        <time>2022-03-01T16:19:16Z</time>
      </trkpt>
      <trkpt lat="40.1526610" lon="-4.7018550">
        <ele>1045.1</ele>
        <time>2022-03-01T16:19:17Z</time>
      </trkpt>
      <trkpt lat="40.1527130" lon="-4.7017090">
        <ele>1044.6</ele>
        <time>2022-03-01T16:19:18Z</time>
      </trkpt>
      <trkpt lat="40.1527640" lon="-4.7015670">
        <ele>1044.0</ele>
        <time>2022-03-01T16:19:19Z</time>
      </trkpt>
      <trkpt lat="40.1528030" lon="-4.7014190">
        <ele>1043.5</ele>
        <time>2022-03-01T16:19:20Z</time>
      </trkpt>
      <trkpt lat="40.1528240" lon="-4.7012650">
        <ele>1043.0</ele>
        <time>2022-03-01T16:19:21Z</time>
      </trkpt>
      <trkpt lat="40.1528300" lon="-4.7011040">
        <ele>1042.5</ele>
        <time>2022-03-01T16:19:22Z</time>
      </trkpt>
      <trkpt lat="40.1528270" lon="-4.7009490">
        <ele>1042.1</ele>
        <time>2022-03-01T16:19:23Z</time>
      </trkpt>
      <trkpt lat="40.1528250" lon="-4.7007960">
        <ele>1041.8</ele>
        <time>2022-03-01T16:19:24Z</time>
      </trkpt>
      <trkpt lat="40.1528280" lon="-4.7006430">
        <ele>1041.5</ele>
        <time>2022-03-01T16:19:25Z</time>
      </trkpt>
      <trkpt lat="40.1528380" lon="-4.7004900">
        <ele>1041.1</ele>
        <time>2022-03-01T16:19:26Z</time>
      </trkpt>
      <trkpt lat="40.1528610" lon="-4.7003340">
        <ele>1040.5</ele>
        <time>2022-03-01T16:19:27Z</time>
      </trkpt>
      <trkpt lat="40.1528920" lon="-4.7001810">
        <ele>1039.8</ele>
        <time>2022-03-01T16:19:28Z</time>
      </trkpt>
      <trkpt lat="40.1529470" lon="-4.7000310">
        <ele>1038.9</ele>
        <time>2022-03-01T16:19:29Z</time>
      </trkpt>
      <trkpt lat="40.1530240" lon="-4.6998930">
        <ele>1037.8</ele>
        <time>2022-03-01T16:19:30Z</time>
      </trkpt>
      <trkpt lat="40.1531110" lon="-4.6997640">
        <ele>1036.6</ele>
        <time>2022-03-01T16:19:31Z</time>
      </trkpt>
      <trkpt lat="40.1532050" lon="-4.6996420">
        <ele>1035.4</ele>
        <time>2022-03-01T16:19:32Z</time>
      </trkpt>
      <trkpt lat="40.1532980" lon="-4.6995150">
        <ele>1034.3</ele>
        <time>2022-03-01T16:19:33Z</time>
      </trkpt>
      <trkpt lat="40.1533860" lon="-4.6993790">
        <ele>1033.2</ele>
        <time>2022-03-01T16:19:34Z</time>
      </trkpt>
      <trkpt lat="40.1534530" lon="-4.6992280">
        <ele>1032.1</ele>
        <time>2022-03-01T16:19:35Z</time>
      </trkpt>
      <trkpt lat="40.1535200" lon="-4.6990790">
        <ele>1031.1</ele>
        <time>2022-03-01T16:19:36Z</time>
      </trkpt>
      <trkpt lat="40.1535850" lon="-4.6989310">
        <ele>1030.0</ele>
        <time>2022-03-01T16:19:37Z</time>
      </trkpt>
      <trkpt lat="40.1536490" lon="-4.6987810">
        <ele>1028.9</ele>
        <time>2022-03-01T16:19:38Z</time>
      </trkpt>
      <trkpt lat="40.1537120" lon="-4.6986310">
        <ele>1027.8</ele>
        <time>2022-03-01T16:19:39Z</time>
      </trkpt>
      <trkpt lat="40.1537760" lon="-4.6984810">
        <ele>1026.9</ele>
        <time>2022-03-01T16:19:40Z</time>
      </trkpt>
      <trkpt lat="40.1538410" lon="-4.6983340">
        <ele>1026.1</ele>
        <time>2022-03-01T16:19:41Z</time>
      </trkpt>
      <trkpt lat="40.1539140" lon="-4.6981920">
        <ele>1025.4</ele>
        <time>2022-03-01T16:19:42Z</time>
      </trkpt>
      <trkpt lat="40.1539980" lon="-4.6980630">
        <ele>1024.7</ele>
        <time>2022-03-01T16:19:43Z</time>
      </trkpt>
      <trkpt lat="40.1540780" lon="-4.6979270">
        <ele>1024.0</ele>
        <time>2022-03-01T16:19:44Z</time>
      </trkpt>
      <trkpt lat="40.1541400" lon="-4.6977840">
        <ele>1023.3</ele>
        <time>2022-03-01T16:19:45Z</time>
      </trkpt>
      <trkpt lat="40.1542010" lon="-4.6976370">
        <ele>1022.6</ele>
        <time>2022-03-01T16:19:46Z</time>
      </trkpt>
      <trkpt lat="40.1542670" lon="-4.6974920">
        <ele>1022.0</ele>
        <time>2022-03-01T16:19:47Z</time>
      </trkpt>
      <trkpt lat="40.1543580" lon="-4.6973630">
        <ele>1021.4</ele>
        <time>2022-03-01T16:19:48Z</time>
      </trkpt>
      <trkpt lat="40.1544570" lon="-4.6972570">
        <ele>1020.9</ele>
        <time>2022-03-01T16:19:49Z</time>
      </trkpt>
      <trkpt lat="40.1545500" lon="-4.6971650">
        <ele>1020.4</ele>
        <time>2022-03-01T16:19:50Z</time>
      </trkpt>
      <trkpt lat="40.1546250" lon="-4.6970540">
        <ele>1019.7</ele>
        <time>2022-03-01T16:19:51Z</time>
      </trkpt>
      <trkpt lat="40.1546800" lon="-4.6969220">
        <ele>1018.9</ele>
        <time>2022-03-01T16:19:52Z</time>
      </trkpt>
      <trkpt lat="40.1547190" lon="-4.6967820">
        <ele>1017.9</ele>
        <time>2022-03-01T16:19:53Z</time>
      </trkpt>
      <trkpt lat="40.1547550" lon="-4.6966320">
        <ele>1016.9</ele>
        <time>2022-03-01T16:19:54Z</time>
      </trkpt>
      <trkpt lat="40.1547900" lon="-4.6964760">
        <ele>1015.8</ele>
        <time>2022-03-01T16:19:55Z</time>
      </trkpt>
      <trkpt lat="40.1548220" lon="-4.6963140">
        <ele>1014.7</ele>
        <time>2022-03-01T16:19:56Z</time>
      </trkpt>
      <trkpt lat="40.1548510" lon="-4.6961500">
        <ele>1013.6</ele>
        <time>2022-03-01T16:19:57Z</time>
      </trkpt>
      <trkpt lat="40.1548810" lon="-4.6959780">
        <ele>1012.6</ele>
        <time>2022-03-01T16:19:58Z</time>
      </trkpt>
      <trkpt lat="40.1549110" lon="-4.6958150">
        <ele>1011.7</ele>
        <time>2022-03-01T16:19:59Z</time>
      </trkpt>
      <trkpt lat="40.1549300" lon="-4.6956490">
        <ele>1010.8</ele>
        <time>2022-03-01T16:20:00Z</time>
      </trkpt>
      <trkpt lat="40.1549380" lon="-4.6954780">
        <ele>1010.2</ele>
        <time>2022-03-01T16:20:01Z</time>
      </trkpt>
      <trkpt lat="40.1549470" lon="-4.6953070">
        <ele>1009.7</ele>
        <time>2022-03-01T16:20:02Z</time>
      </trkpt>
      <trkpt lat="40.1549620" lon="-4.6951440">
        <ele>1009.4</ele>
        <time>2022-03-01T16:20:03Z</time>
      </trkpt>
      <trkpt lat="40.1549930" lon="-4.6949980">
        <ele>1009.3</ele>
        <time>2022-03-01T16:20:04Z</time>
      </trkpt>
      <trkpt lat="40.1550440" lon="-4.6948670">
        <ele>1009.1</ele>
        <time>2022-03-01T16:20:05Z</time>
      </trkpt>
      <trkpt lat="40.1551190" lon="-4.6947660">
        <ele>1008.8</ele>
        <time>2022-03-01T16:20:06Z</time>
      </trkpt>
      <trkpt lat="40.1552100" lon="-4.6946970">
        <ele>1008.3</ele>
        <time>2022-03-01T16:20:07Z</time>
      </trkpt>
      <trkpt lat="40.1553100" lon="-4.6946440">
        <ele>1007.8</ele>
        <time>2022-03-01T16:20:08Z</time>
      </trkpt>
      <trkpt lat="40.1554110" lon="-4.6946100">
        <ele>1007.5</ele>
        <time>2022-03-01T16:20:09Z</time>
      </trkpt>
      <trkpt lat="40.1555120" lon="-4.6945850">
        <ele>1007.3</ele>
        <time>2022-03-01T16:20:10Z</time>
      </trkpt>
      <trkpt lat="40.1556080" lon="-4.6945640">
        <ele>1007.2</ele>
        <time>2022-03-01T16:20:11Z</time>
      </trkpt>
      <trkpt lat="40.1557010" lon="-4.6945280">
        <ele>1007.2</ele>
        <time>2022-03-01T16:20:12Z</time>
      </trkpt>
      <trkpt lat="40.1557800" lon="-4.6944630">
        <ele>1007.1</ele>
        <time>2022-03-01T16:20:13Z</time>
      </trkpt>
      <trkpt lat="40.1558230" lon="-4.6943730">
        <ele>1007.1</ele>
        <time>2022-03-01T16:20:14Z</time>
      </trkpt>
      <trkpt lat="40.1558190" lon="-4.6942600">
        <ele>1007.0</ele>
        <time>2022-03-01T16:20:15Z</time>
      </trkpt>
      <trkpt lat="40.1557820" lon="-4.6941730">
        <ele>1006.7</ele>
        <time>2022-03-01T16:20:16Z</time>
      </trkpt>
      <trkpt lat="40.1557090" lon="-4.6941300">
        <ele>1006.2</ele>
        <time>2022-03-01T16:20:17Z</time>
      </trkpt>
      <trkpt lat="40.1556290" lon="-4.6941300">
        <ele>1005.5</ele>
        <time>2022-03-01T16:20:18Z</time>
      </trkpt>
      <trkpt lat="40.1555450" lon="-4.6941760">
        <ele>1004.7</ele>
        <time>2022-03-01T16:20:19Z</time>
      </trkpt>
      <trkpt lat="40.1554570" lon="-4.6942390">
        <ele>1003.9</ele>
        <time>2022-03-01T16:20:20Z</time>
      </trkpt>
      <trkpt lat="40.1553700" lon="-4.6943110">
        <ele>1003.1</ele>
        <time>2022-03-01T16:20:21Z</time>
      </trkpt>
      <trkpt lat="40.1552850" lon="-4.6943860">
        <ele>1002.4</ele>
        <time>2022-03-01T16:20:22Z</time>
      </trkpt>
      <trkpt lat="40.1551950" lon="-4.6944510">
        <ele>1001.8</ele>
        <time>2022-03-01T16:20:23Z</time>
      </trkpt>
      <trkpt lat="40.1551000" lon="-4.6945140">
        <ele>1001.2</ele>
        <time>2022-03-01T16:20:24Z</time>
      </trkpt>
      <trkpt lat="40.1549990" lon="-4.6945810">
        <ele>1000.6</ele>
        <time>2022-03-01T16:20:25Z</time>
      </trkpt>
      <trkpt lat="40.1548990" lon="-4.6946450">
        <ele>999.9</ele>
        <time>2022-03-01T16:20:26Z</time>
      </trkpt>
      <trkpt lat="40.1548030" lon="-4.6947240">
        <ele>999.1</ele>
        <time>2022-03-01T16:20:27Z</time>
      </trkpt>
      <trkpt lat="40.1547180" lon="-4.6948180">
        <ele>998.3</ele>
        <time>2022-03-01T16:20:28Z</time>
      </trkpt>
      <trkpt lat="40.1546420" lon="-4.6949240">
        <ele>997.4</ele>
        <time>2022-03-01T16:20:29Z</time>
      </trkpt>
      <trkpt lat="40.1545760" lon="-4.6950450">
        <ele>996.6</ele>
        <time>2022-03-01T16:20:30Z</time>
      </trkpt>
      <trkpt lat="40.1545020" lon="-4.6951600">
        <ele>995.7</ele>
        <time>2022-03-01T16:20:31Z</time>
      </trkpt>
      <trkpt lat="40.1544230" lon="-4.6952740">
        <ele>995.0</ele>
        <time>2022-03-01T16:20:32Z</time>
      </trkpt>
      <trkpt lat="40.1543460" lon="-4.6953930">
        <ele>994.4</ele>
        <time>2022-03-01T16:20:33Z</time>
      </trkpt>
      <trkpt lat="40.1542660" lon="-4.6955140">
        <ele>993.9</ele>
        <time>2022-03-01T16:20:34Z</time>
      </trkpt>
      <trkpt lat="40.1542010" lon="-4.6956430">
        <ele>993.6</ele>
        <time>2022-03-01T16:20:35Z</time>
      </trkpt>
      <trkpt lat="40.1541630" lon="-4.6957750">
        <ele>993.2</ele>
        <time>2022-03-01T16:20:36Z</time>
      </trkpt>
      <trkpt lat="40.1541550" lon="-4.6958980">
        <ele>992.8</ele>
        <time>2022-03-01T16:20:37Z</time>
      </trkpt>
      <trkpt lat="40.1541760" lon="-4.6960230">
        <ele>992.2</ele>
        <time>2022-03-01T16:20:38Z</time>
      </trkpt>
      <trkpt lat="40.1542020" lon="-4.6961540">
        <ele>991.4</ele>
        <time>2022-03-01T16:20:39Z</time>
      </trkpt>
      <trkpt lat="40.1542180" lon="-4.6962920">
        <ele>990.5</ele>
        <time>2022-03-01T16:20:40Z</time>
      </trkpt>
      <trkpt lat="40.1541970" lon="-4.6964180">
        <ele>989.5</ele>
        <time>2022-03-01T16:20:41Z</time>
      </trkpt>
      <trkpt lat="40.1541450" lon="-4.6965280">
        <ele>988.6</ele>
        <time>2022-03-01T16:20:42Z</time>
      </trkpt>
      <trkpt lat="40.1540690" lon="-4.6966260">
        <ele>987.4</ele>
        <time>2022-03-01T16:20:43Z</time>
      </trkpt>
      <trkpt lat="40.1539890" lon="-4.6967280">
        <ele>986.3</ele>
        <time>2022-03-01T16:20:44Z</time>
      </trkpt>
      <trkpt lat="40.1539040" lon="-4.6968300">
        <ele>985.1</ele>
        <time>2022-03-01T16:20:45Z</time>
      </trkpt>
      <trkpt lat="40.1538200" lon="-4.6969360">
        <ele>984.1</ele>
        <time>2022-03-01T16:20:46Z</time>
      </trkpt>
      <trkpt lat="40.1537330" lon="-4.6970440">
        <ele>983.1</ele>
        <time>2022-03-01T16:20:47Z</time>
      </trkpt>
      <trkpt lat="40.1536480" lon="-4.6971480">
        <ele>982.1</ele>
        <time>2022-03-01T16:20:48Z</time>
      </trkpt>
      <trkpt lat="40.1535650" lon="-4.6972560">
        <ele>981.2</ele>
        <time>2022-03-01T16:20:49Z</time>
      </trkpt>
      <trkpt lat="40.1534780" lon="-4.6973680">
        <ele>980.3</ele>
        <time>2022-03-01T16:20:50Z</time>
      </trkpt>
      <trkpt lat="40.1533890" lon="-4.6974800">
        <ele>979.4</ele>
        <time>2022-03-01T16:20:51Z</time>
      </trkpt>
      <trkpt lat="40.1532940" lon="-4.6975880">
        <ele>978.4</ele>
        <time>2022-03-01T16:20:52Z</time>
      </trkpt>
      <trkpt lat="40.1531960" lon="-4.6976800">
        <ele>977.5</ele>
        <time>2022-03-01T16:20:53Z</time>
      </trkpt>
      <trkpt lat="40.1530840" lon="-4.6977570">
        <ele>976.5</ele>
        <time>2022-03-01T16:20:54Z</time>
      </trkpt>
      <trkpt lat="40.1529750" lon="-4.6978330">
        <ele>975.5</ele>
        <time>2022-03-01T16:20:55Z</time>
      </trkpt>
      <trkpt lat="40.1528670" lon="-4.6979140">
        <ele>974.6</ele>
        <time>2022-03-01T16:20:56Z</time>
      </trkpt>
      <trkpt lat="40.1527580" lon="-4.6979890">
        <ele>973.7</ele>
        <time>2022-03-01T16:20:57Z</time>
      </trkpt>
      <trkpt lat="40.1526500" lon="-4.6980640">
        <ele>972.9</ele>
        <time>2022-03-01T16:20:58Z</time>
      </trkpt>
      <trkpt lat="40.1525380" lon="-4.6981430">
        <ele>972.1</ele>
        <time>2022-03-01T16:20:59Z</time>
      </trkpt>
      <trkpt lat="40.1524230" lon="-4.6982210">
        <ele>971.4</ele>
        <time>2022-03-01T16:21:00Z</time>
      </trkpt>
      <trkpt lat="40.1523150" lon="-4.6982990">
        <ele>970.8</ele>
        <time>2022-03-01T16:21:01Z</time>
      </trkpt>
      <trkpt lat="40.1522030" lon="-4.6983730">
        <ele>970.2</ele>
        <time>2022-03-01T16:21:02Z</time>
      </trkpt>
      <trkpt lat="40.1520980" lon="-4.6984690">
        <ele>969.5</ele>
        <time>2022-03-01T16:21:03Z</time>
      </trkpt>
      <trkpt lat="40.1520080" lon="-4.6985840">
        <ele>968.8</ele>
        <time>2022-03-01T16:21:04Z</time>
      </trkpt>
      <trkpt lat="40.1519360" lon="-4.6987210">
        <ele>967.9</ele>
        <time>2022-03-01T16:21:05Z</time>
      </trkpt>
      <trkpt lat="40.1518750" lon="-4.6988650">
        <ele>967.0</ele>
        <time>2022-03-01T16:21:06Z</time>
      </trkpt>
      <trkpt lat="40.1518190" lon="-4.6990100">
        <ele>966.0</ele>
        <time>2022-03-01T16:21:07Z</time>
      </trkpt>
      <trkpt lat="40.1517640" lon="-4.6991620">
        <ele>965.0</ele>
        <time>2022-03-01T16:21:08Z</time>
      </trkpt>
      <trkpt lat="40.1516820" lon="-4.6993020">
        <ele>964.0</ele>
        <time>2022-03-01T16:21:09Z</time>
      </trkpt>
      <trkpt lat="40.1516270" lon="-4.6994590">
        <ele>963.1</ele>
        <time>2022-03-01T16:21:10Z</time>
      </trkpt>
      <trkpt lat="40.1515750" lon="-4.6996120">
        <ele>962.3</ele>
        <time>2022-03-01T16:21:11Z</time>
      </trkpt>
      <trkpt lat="40.1515270" lon="-4.6997700">
        <ele>961.5</ele>
        <time>2022-03-01T16:21:12Z</time>
      </trkpt>
      <trkpt lat="40.1514810" lon="-4.6999260">
        <ele>960.8</ele>
        <time>2022-03-01T16:21:13Z</time>
      </trkpt>
      <trkpt lat="40.1514300" lon="-4.7000830">
        <ele>960.3</ele>
        <time>2022-03-01T16:21:14Z</time>
      </trkpt>
      <trkpt lat="40.1513580" lon="-4.7002150">
        <ele>959.9</ele>
        <time>2022-03-01T16:21:15Z</time>
      </trkpt>
      <trkpt lat="40.1512670" lon="-4.7003380">
        <ele>959.5</ele>
        <time>2022-03-01T16:21:16Z</time>
      </trkpt>
      <trkpt lat="40.1511820" lon="-4.7004560">
        <ele>959.2</ele>
        <time>2022-03-01T16:21:17Z</time>
      </trkpt>
      <trkpt lat="40.1511240" lon="-4.7005740">
        <ele>958.9</ele>
        <time>2022-03-01T16:21:18Z</time>
      </trkpt>
      <trkpt lat="40.1510980" lon="-4.7007080">
        <ele>958.5</ele>
        <time>2022-03-01T16:21:19Z</time>
      </trkpt>
      <trkpt lat="40.1510880" lon="-4.7008440">
        <ele>957.9</ele>
        <time>2022-03-01T16:21:20Z</time>
      </trkpt>
      <trkpt lat="40.1510740" lon="-4.7009890">
        <ele>957.2</ele>
        <time>2022-03-01T16:21:21Z</time>
      </trkpt>
      <trkpt lat="40.1510500" lon="-4.7011280">
        <ele>956.5</ele>
        <time>2022-03-01T16:21:22Z</time>
      </trkpt>
      <trkpt lat="40.1510170" lon="-4.7012730">
        <ele>955.7</ele>
        <time>2022-03-01T16:21:23Z</time>
      </trkpt>
      <trkpt lat="40.1509850" lon="-4.7014160">
        <ele>955.0</ele>
        <time>2022-03-01T16:21:24Z</time>
      </trkpt>
      <trkpt lat="40.1509470" lon="-4.7015570">
        <ele>954.4</ele>
        <time>2022-03-01T16:21:25Z</time>
      </trkpt>
      <trkpt lat="40.1509040" lon="-4.7016990">
        <ele>953.8</ele>
        <time>2022-03-01T16:21:26Z</time>
      </trkpt>
      <trkpt lat="40.1508430" lon="-4.7018240">
        <ele>953.3</ele>
        <time>2022-03-01T16:21:27Z</time>
      </trkpt>
      <trkpt lat="40.1507620" lon="-4.7019300">
        <ele>952.9</ele>
        <time>2022-03-01T16:21:28Z</time>
      </trkpt>
      <trkpt lat="40.1506730" lon="-4.7019980">
        <ele>952.5</ele>
        <time>2022-03-01T16:21:29Z</time>
      </trkpt>
      <trkpt lat="40.1505560" lon="-4.7020230">
        <ele>951.9</ele>
        <time>2022-03-01T16:21:30Z</time>
      </trkpt>
      <trkpt lat="40.1504330" lon="-4.7020240">
        <ele>951.3</ele>
        <time>2022-03-01T16:21:31Z</time>
      </trkpt>
      <trkpt lat="40.1503140" lon="-4.7020120">
        <ele>950.5</ele>
        <time>2022-03-01T16:21:32Z</time>
      </trkpt>
      <trkpt lat="40.1501910" lon="-4.7020290">
        <ele>949.6</ele>
        <time>2022-03-01T16:21:33Z</time>
      </trkpt>
      <trkpt lat="40.1500720" lon="-4.7020720">
        <ele>948.6</ele>
        <time>2022-03-01T16:21:34Z</time>
      </trkpt>
      <trkpt lat="40.1499580" lon="-4.7021400">
        <ele>947.4</ele>
        <time>2022-03-01T16:21:35Z</time>
      </trkpt>
      <trkpt lat="40.1498440" lon="-4.7022270">
        <ele>946.2</ele>
        <time>2022-03-01T16:21:36Z</time>
      </trkpt>
      <trkpt lat="40.1497250" lon="-4.7023120">
        <ele>945.0</ele>
        <time>2022-03-01T16:21:37Z</time>
      </trkpt>
      <trkpt lat="40.1496270" lon="-4.7024070">
        <ele>944.0</ele>
        <time>2022-03-01T16:21:38Z</time>
      </trkpt>
      <trkpt lat="40.1495220" lon="-4.7025020">
        <ele>943.0</ele>
        <time>2022-03-01T16:21:39Z</time>
      </trkpt>
      <trkpt lat="40.1494020" lon="-4.7025790">
        <ele>942.0</ele>
        <time>2022-03-01T16:21:40Z</time>
      </trkpt>
      <trkpt lat="40.1492770" lon="-4.7026390">
        <ele>941.2</ele>
        <time>2022-03-01T16:21:41Z</time>
      </trkpt>
      <trkpt lat="40.1491570" lon="-4.7027000">
        <ele>940.4</ele>
        <time>2022-03-01T16:21:42Z</time>
      </trkpt>
      <trkpt lat="40.1490640" lon="-4.7027640">
        <ele>939.7</ele>
        <time>2022-03-01T16:21:43Z</time>
      </trkpt>
      <trkpt lat="40.1489530" lon="-4.7028430">
        <ele>938.9</ele>
        <time>2022-03-01T16:21:44Z</time>
      </trkpt>
      <trkpt lat="40.1488420" lon="-4.7029370">
        <ele>938.0</ele>
        <time>2022-03-01T16:21:45Z</time>
      </trkpt>
      <trkpt lat="40.1487380" lon="-4.7030320">
        <ele>937.4</ele>
        <time>2022-03-01T16:21:46Z</time>
      </trkpt>
      <trkpt lat="40.1486330" lon="-4.7031430">
        <ele>936.7</ele>
        <time>2022-03-01T16:21:47Z</time>
      </trkpt>
      <trkpt lat="40.1485290" lon="-4.7032450">
        <ele>936.2</ele>
        <time>2022-03-01T16:21:48Z</time>
      </trkpt>
      <trkpt lat="40.1484160" lon="-4.7033130">
        <ele>935.6</ele>
        <time>2022-03-01T16:21:49Z</time>
      </trkpt>
      <trkpt lat="40.1483000" lon="-4.7033410">
        <ele>934.8</ele>
        <time>2022-03-01T16:21:50Z</time>
      </trkpt>
      <trkpt lat="40.1481710" lon="-4.7033380">
        <ele>934.0</ele>
        <time>2022-03-01T16:21:51Z</time>
      </trkpt>
      <trkpt lat="40.1480480" lon="-4.7033330">
        <ele>933.2</ele>
        <time>2022-03-01T16:21:52Z</time>
      </trkpt>
      <trkpt lat="40.1479250" lon="-4.7033380">
        <ele>932.5</ele>
        <time>2022-03-01T16:21:53Z</time>
      </trkpt>
      <trkpt lat="40.1478050" lon="-4.7033690">
        <ele>932.0</ele>
        <time>2022-03-01T16:21:54Z</time>
      </trkpt>
      <trkpt lat="40.1477050" lon="-4.7034360">
        <ele>931.7</ele>
        <time>2022-03-01T16:21:55Z</time>
      </trkpt>
      <trkpt lat="40.1476170" lon="-4.7035230">
        <ele>931.5</ele>
        <time>2022-03-01T16:21:56Z</time>
      </trkpt>
      <trkpt lat="40.1475560" lon="-4.7036370">
        <ele>931.5</ele>
        <time>2022-03-01T16:21:57Z</time>
      </trkpt>
      <trkpt lat="40.1475020" lon="-4.7037420">
        <ele>931.5</ele>
        <time>2022-03-01T16:21:58Z</time>
      </trkpt>
      <trkpt lat="40.1474300" lon="-4.7038250">
        <ele>931.5</ele>
        <time>2022-03-01T16:21:59Z</time>
      </trkpt>
      <trkpt lat="40.1473540" lon="-4.7038670">
        <ele>931.3</ele>
        <time>2022-03-01T16:22:00Z</time>
      </trkpt>
      <trkpt lat="40.1472700" lon="-4.7038570">
        <ele>930.9</ele>
        <time>2022-03-01T16:22:01Z</time>
      </trkpt>
      <trkpt lat="40.1472090" lon="-4.7037890">
        <ele>930.3</ele>
        <time>2022-03-01T16:22:02Z</time>
      </trkpt>
      <trkpt lat="40.1471670" lon="-4.7036910">
        <ele>929.4</ele>
        <time>2022-03-01T16:22:03Z</time>
      </trkpt>
      <trkpt lat="40.1471640" lon="-4.7035740">
        <ele>928.3</ele>
        <time>2022-03-01T16:22:04Z</time>
      </trkpt>
      <trkpt lat="40.1472060" lon="-4.7034600">
        <ele>927.1</ele>
        <time>2022-03-01T16:22:05Z</time>
      </trkpt>
      <trkpt lat="40.1472620" lon="-4.7033540">
        <ele>926.0</ele>
        <time>2022-03-01T16:22:06Z</time>
      </trkpt>
      <trkpt lat="40.1473350" lon="-4.7032440">
        <ele>924.8</ele>
        <time>2022-03-01T16:22:07Z</time>
      </trkpt>
      <trkpt lat="40.1474060" lon="-4.7031380">
        <ele>923.9</ele>
        <time>2022-03-01T16:22:08Z</time>
      </trkpt>
      <trkpt lat="40.1474870" lon="-4.7030270">
        <ele>922.9</ele>
        <time>2022-03-01T16:22:09Z</time>
      </trkpt>
      <trkpt lat="40.1475710" lon="-4.7029220">
        <ele>922.0</ele>
        <time>2022-03-01T16:22:10Z</time>
      </trkpt>
      <trkpt lat="40.1476600" lon="-4.7028140">
        <ele>921.1</ele>
        <time>2022-03-01T16:22:11Z</time>
      </trkpt>
      <trkpt lat="40.1477510" lon="-4.7027060">
        <ele>920.1</ele>
        <time>2022-03-01T16:22:12Z</time>
      </trkpt>
      <trkpt lat="40.1478490" lon="-4.7026030">
        <ele>919.1</ele>
        <time>2022-03-01T16:22:13Z</time>
      </trkpt>
      <trkpt lat="40.1479570" lon="-4.7025140">
        <ele>918.0</ele>
        <time>2022-03-01T16:22:14Z</time>
      </trkpt>
      <trkpt lat="40.1480680" lon="-4.7024350">
        <ele>917.0</ele>
        <time>2022-03-01T16:22:15Z</time>
      </trkpt>
      <trkpt lat="40.1481680" lon="-4.7023410">
        <ele>916.1</ele>
        <time>2022-03-01T16:22:16Z</time>
      </trkpt>
      <trkpt lat="40.1482490" lon="-4.7022160">
        <ele>915.2</ele>
        <time>2022-03-01T16:22:17Z</time>
      </trkpt>
      <trkpt lat="40.1482980" lon="-4.7020670">
        <ele>914.4</ele>
        <time>2022-03-01T16:22:18Z</time>
      </trkpt>
      <trkpt lat="40.1483340" lon="-4.7019170">
        <ele>913.5</ele>
        <time>2022-03-01T16:22:19Z</time>
      </trkpt>
      <trkpt lat="40.1483690" lon="-4.7017620">
        <ele>912.5</ele>
        <time>2022-03-01T16:22:20Z</time>
      </trkpt>
      <trkpt lat="40.1484140" lon="-4.7016080">
        <ele>911.5</ele>
        <time>2022-03-01T16:22:21Z</time>
      </trkpt>
      <trkpt lat="40.1484820" lon="-4.7014610">
        <ele>910.5</ele>
        <time>2022-03-01T16:22:22Z</time>
      </trkpt>
      <trkpt lat="40.1485630" lon="-4.7013320">
        <ele>909.5</ele>
        <time>2022-03-01T16:22:23Z</time>
      </trkpt>
      <trkpt lat="40.1486550" lon="-4.7012010">
        <ele>908.4</ele>
        <time>2022-03-01T16:22:24Z</time>
      </trkpt>
      <trkpt lat="40.1487410" lon="-4.7010680">
        <ele>907.4</ele>
        <time>2022-03-01T16:22:25Z</time>
      </trkpt>
      <trkpt lat="40.1488230" lon="-4.7009320">
        <ele>906.5</ele>
        <time>2022-03-01T16:22:26Z</time>
      </trkpt>
      <trkpt lat="40.1489040" lon="-4.7007910">
        <ele>905.6</ele>
        <time>2022-03-01T16:22:27Z</time>
      </trkpt>
      <trkpt lat="40.1489850" lon="-4.7006530">
        <ele>904.6</ele>
        <time>2022-03-01T16:22:28Z</time>
      </trkpt>
      <trkpt lat="40.1490680" lon="-4.7005120">
        <ele>903.6</ele>
        <time>2022-03-01T16:22:29Z</time>
      </trkpt>
      <trkpt lat="40.1491470" lon="-4.7003640">
        <ele>902.6</ele>
        <time>2022-03-01T16:22:30Z</time>
      </trkpt>
      <trkpt lat="40.1492300" lon="-4.7002190">
        <ele>901.6</ele>
        <time>2022-03-01T16:22:31Z</time>
      </trkpt>
      <trkpt lat="40.1492990" lon="-4.7000650">
        <ele>900.7</ele>
        <time>2022-03-01T16:22:32Z</time>
      </trkpt>
      <trkpt lat="40.1493810" lon="-4.6999210">
        <ele>899.9</ele>
        <time>2022-03-01T16:22:33Z</time>
      </trkpt>
      <trkpt lat="40.1494530" lon="-4.6997680">
        <ele>899.0</ele>
        <time>2022-03-01T16:22:34Z</time>
      </trkpt>
      <trkpt lat="40.1495180" lon="-4.6996030">
        <ele>898.2</ele>
        <time>2022-03-01T16:22:35Z</time>
      </trkpt>
      <trkpt lat="40.1495660" lon="-4.6994320">
        <ele>897.3</ele>
        <time>2022-03-01T16:22:36Z</time>
      </trkpt>
      <trkpt lat="40.1496090" lon="-4.6992620">
        <ele>896.6</ele>
        <time>2022-03-01T16:22:37Z</time>
      </trkpt>
      <trkpt lat="40.1496440" lon="-4.6990870">
        <ele>895.9</ele>
        <time>2022-03-01T16:22:38Z</time>
      </trkpt>
      <trkpt lat="40.1496520" lon="-4.6989150">
        <ele>895.4</ele>
        <time>2022-03-01T16:22:39Z</time>
      </trkpt>
      <trkpt lat="40.1496480" lon="-4.6987550">
        <ele>895.1</ele>
        <time>2022-03-01T16:22:40Z</time>
      </trkpt>
      <trkpt lat="40.1496500" lon="-4.6986070">
        <ele>894.8</ele>
        <time>2022-03-01T16:22:41Z</time>
      </trkpt>
      <trkpt lat="40.1496660" lon="-4.6984640">
        <ele>894.4</ele>
        <time>2022-03-01T16:22:42Z</time>
      </trkpt>
      <trkpt lat="40.1497170" lon="-4.6983330">
        <ele>893.9</ele>
        <time>2022-03-01T16:22:43Z</time>
      </trkpt>
      <trkpt lat="40.1497980" lon="-4.6982260">
        <ele>892.8</ele>
        <time>2022-03-01T16:22:44Z</time>
      </trkpt>
      <trkpt lat="40.1498950" lon="-4.6981370">
        <ele>891.8</ele>
        <time>2022-03-01T16:22:45Z</time>
      </trkpt>
      <trkpt lat="40.1499970" lon="-4.6980610">
        <ele>890.9</ele>
        <time>2022-03-01T16:22:46Z</time>
      </trkpt>
      <trkpt lat="40.1501000" lon="-4.6979800">
        <ele>890.1</ele>
        <time>2022-03-01T16:22:47Z</time>
      </trkpt>
      <trkpt lat="40.1501960" lon="-4.6978880">
        <ele>889.4</ele>
        <time>2022-03-01T16:22:48Z</time>
      </trkpt>
      <trkpt lat="40.1502870" lon="-4.6977780">
        <ele>888.7</ele>
        <time>2022-03-01T16:22:49Z</time>
      </trkpt>
      <trkpt lat="40.1503640" lon="-4.6976590">
        <ele>888.1</ele>
        <time>2022-03-01T16:22:50Z</time>
      </trkpt>
      <trkpt lat="40.1504250" lon="-4.6975250">
        <ele>887.3</ele>
        <time>2022-03-01T16:22:51Z</time>
      </trkpt>
      <trkpt lat="40.1504700" lon="-4.6973820">
        <ele>886.5</ele>
        <time>2022-03-01T16:22:52Z</time>
      </trkpt>
      <trkpt lat="40.1504890" lon="-4.6972240">
        <ele>885.6</ele>
        <time>2022-03-01T16:22:53Z</time>
      </trkpt>
      <trkpt lat="40.1504910" lon="-4.6970620">
        <ele>884.7</ele>
        <time>2022-03-01T16:22:54Z</time>
      </trkpt>
      <trkpt lat="40.1504880" lon="-4.6968990">
        <ele>883.9</ele>
        <time>2022-03-01T16:22:55Z</time>
      </trkpt>
      <trkpt lat="40.1504940" lon="-4.6967380">
        <ele>883.2</ele>
        <time>2022-03-01T16:22:56Z</time>
      </trkpt>
      <trkpt lat="40.1505200" lon="-4.6965830">
        <ele>882.5</ele>
        <time>2022-03-01T16:22:57Z</time>
      </trkpt>
      <trkpt lat="40.1505760" lon="-4.6964330">
        <ele>881.7</ele>
        <time>2022-03-01T16:22:58Z</time>
      </trkpt>
      <trkpt lat="40.1506400" lon="-4.6962980">
        <ele>880.9</ele>
        <time>2022-03-01T16:22:59Z</time>
      </trkpt>
      <trkpt lat="40.1506990" lon="-4.6961650">
        <ele>880.2</ele>
        <time>2022-03-01T16:23:00Z</time>
      </trkpt>
      <trkpt lat="40.1507400" lon="-4.6960270">
        <ele>879.3</ele>
        <time>2022-03-01T16:23:01Z</time>
      </trkpt>
      <trkpt lat="40.1507490" lon="-4.6958790">
        <ele>878.5</ele>
        <time>2022-03-01T16:23:02Z</time>
      </trkpt>
      <trkpt lat="40.1507180" lon="-4.6957330">
        <ele>877.7</ele>
        <time>2022-03-01T16:23:03Z</time>
      </trkpt>
      <trkpt lat="40.1506560" lon="-4.6955980">
        <ele>876.8</ele>
        <time>2022-03-01T16:23:04Z</time>
      </trkpt>
      <trkpt lat="40.1505870" lon="-4.6954710">
        <ele>876.0</ele>
        <time>2022-03-01T16:23:05Z</time>
      </trkpt>
      <trkpt lat="40.1505170" lon="-4.6953510">
        <ele>875.2</ele>
        <time>2022-03-01T16:23:06Z</time>
      </trkpt>
      <trkpt lat="40.1504550" lon="-4.6952190">
        <ele>874.3</ele>
        <time>2022-03-01T16:23:07Z</time>
      </trkpt>
      <trkpt lat="40.1504040" lon="-4.6950780">
        <ele>873.5</ele>
        <time>2022-03-01T16:23:08Z</time>
      </trkpt>
      <trkpt lat="40.1503670" lon="-4.6949280">
        <ele>872.5</ele>
        <time>2022-03-01T16:23:09Z</time>
      </trkpt>
      <trkpt lat="40.1503580" lon="-4.6947670">
        <ele>871.6</ele>
        <time>2022-03-01T16:23:10Z</time>
      </trkpt>
      <trkpt lat="40.1503720" lon="-4.6946010">
        <ele>870.7</ele>
        <time>2022-03-01T16:23:11Z</time>
      </trkpt>
      <trkpt lat="40.1504050" lon="-4.6944380">
        <ele>869.8</ele>
        <time>2022-03-01T16:23:12Z</time>
      </trkpt>
      <trkpt lat="40.1504460" lon="-4.6942800">
        <ele>868.9</ele>
        <time>2022-03-01T16:23:13Z</time>
      </trkpt>
      <trkpt lat="40.1504920" lon="-4.6941180">
        <ele>868.0</ele>
        <time>2022-03-01T16:23:14Z</time>
      </trkpt>
      <trkpt lat="40.1505430" lon="-4.6939600">
        <ele>867.1</ele>
        <time>2022-03-01T16:23:15Z</time>
      </trkpt>
      <trkpt lat="40.1505970" lon="-4.6938020">
        <ele>866.2</ele>
        <time>2022-03-01T16:23:16Z</time>
      </trkpt>
      <trkpt lat="40.1506570" lon="-4.6936440">
        <ele>865.3</ele>
        <time>2022-03-01T16:23:17Z</time>
      </trkpt>
      <trkpt lat="40.1507210" lon="-4.6934920">
        <ele>864.5</ele>
        <time>2022-03-01T16:23:18Z</time>
      </trkpt>
      <trkpt lat="40.1507920" lon="-4.6933400">
        <ele>863.7</ele>
        <time>2022-03-01T16:23:19Z</time>
      </trkpt>
      <trkpt lat="40.1508610" lon="-4.6931860">
        <ele>862.9</ele>
        <time>2022-03-01T16:23:20Z</time>
      </trkpt>
      <trkpt lat="40.1509340" lon="-4.6930420">
        <ele>862.3</ele>
        <time>2022-03-01T16:23:21Z</time>
      </trkpt>
      <trkpt lat="40.1510100" lon="-4.6928990">
        <ele>861.7</ele>
        <time>2022-03-01T16:23:22Z</time>
      </trkpt>
      <trkpt lat="40.1510900" lon="-4.6927600">
        <ele>861.1</ele>
        <time>2022-03-01T16:23:23Z</time>
      </trkpt>
      <trkpt lat="40.1511700" lon="-4.6926310">
        <ele>860.7</ele>
        <time>2022-03-01T16:23:24Z</time>
      </trkpt>
      <trkpt lat="40.1512530" lon="-4.6925050">
        <ele>860.2</ele>
        <time>2022-03-01T16:23:25Z</time>
      </trkpt>
      <trkpt lat="40.1513360" lon="-4.6923820">
        <ele>859.9</ele>
        <time>2022-03-01T16:23:26Z</time>
      </trkpt>
      <trkpt lat="40.1514130" lon="-4.6922670">
        <ele>859.7</ele>
        <time>2022-03-01T16:23:27Z</time>
      </trkpt>
      <trkpt lat="40.1514890" lon="-4.6921450">
        <ele>859.6</ele>
        <time>2022-03-01T16:23:28Z</time>
      </trkpt>
      <trkpt lat="40.1515480" lon="-4.6920100">
        <ele>859.5</ele>
        <time>2022-03-01T16:23:29Z</time>
      </trkpt>
      <trkpt lat="40.1515850" lon="-4.6918700">
        <ele>859.6</ele>
        <time>2022-03-01T16:23:30Z</time>
      </trkpt>
      <trkpt lat="40.1516010" lon="-4.6917310">
        <ele>859.6</ele>
        <time>2022-03-01T16:23:31Z</time>
      </trkpt>
      <trkpt lat="40.1515810" lon="-4.6915910">
        <ele>859.8</ele>
        <time>2022-03-01T16:23:32Z</time>
      </trkpt>
      <trkpt lat="40.1515520" lon="-4.6914560">
        <ele>860.0</ele>
        <time>2022-03-01T16:23:33Z</time>
      </trkpt>
      <trkpt lat="40.1515120" lon="-4.6913380">
        <ele>860.3</ele>
        <time>2022-03-01T16:23:34Z</time>
      </trkpt>
      <trkpt lat="40.1514710" lon="-4.6912320">
        <ele>860.7</ele>
        <time>2022-03-01T16:23:35Z</time>
      </trkpt>
      <trkpt lat="40.1514390" lon="-4.6911320">
        <ele>861.2</ele>
        <time>2022-03-01T16:23:36Z</time>
      </trkpt>
      <trkpt lat="40.1514010" lon="-4.6910470">
        <ele>861.8</ele>
        <time>2022-03-01T16:23:37Z</time>
      </trkpt>
      <trkpt lat="40.1513520" lon="-4.6909860">
        <ele>861.8</ele>
        <time>2022-03-01T16:23:38Z</time>
      </trkpt>
      <trkpt lat="40.1512920" lon="-4.6909580">
        <ele>861.7</ele>
        <time>2022-03-01T16:23:39Z</time>
      </trkpt>
      <trkpt lat="40.1512290" lon="-4.6909510">
        <ele>861.4</ele>
        <time>2022-03-01T16:23:40Z</time>
      </trkpt>
      <trkpt lat="40.1511610" lon="-4.6909710">
        <ele>861.1</ele>
        <time>2022-03-01T16:23:41Z</time>
      </trkpt>
      <trkpt lat="40.1510920" lon="-4.6909870">
        <ele>860.8</ele>
        <time>2022-03-01T16:23:42Z</time>
      </trkpt>
      <trkpt lat="40.1510170" lon="-4.6909950">
        <ele>860.6</ele>
        <time>2022-03-01T16:23:43Z</time>
      </trkpt>
      <trkpt lat="40.1509370" lon="-4.6909820">
        <ele>860.3</ele>
        <time>2022-03-01T16:23:44Z</time>
      </trkpt>
      <trkpt lat="40.1508560" lon="-4.6909620">
        <ele>860.1</ele>
        <time>2022-03-01T16:23:45Z</time>
      </trkpt>
      <trkpt lat="40.1507730" lon="-4.6909320">
        <ele>859.9</ele>
        <time>2022-03-01T16:23:46Z</time>
      </trkpt>
      <trkpt lat="40.1506940" lon="-4.6908980">
        <ele>859.7</ele>
        <time>2022-03-01T16:23:47Z</time>
      </trkpt>
      <trkpt lat="40.1506150" lon="-4.6908680">
        <ele>859.5</ele>
        <time>2022-03-01T16:23:48Z</time>
      </trkpt>
      <trkpt lat="40.1505330" lon="-4.6908470">
        <ele>859.4</ele>
        <time>2022-03-01T16:23:49Z</time>
      </trkpt>
      <trkpt lat="40.1504440" lon="-4.6908420">
        <ele>859.2</ele>
        <time>2022-03-01T16:23:50Z</time>
      </trkpt>
      <trkpt lat="40.1503590" lon="-4.6908480">
        <ele>859.2</ele>
        <time>2022-03-01T16:23:51Z</time>
      </trkpt>
      <trkpt lat="40.1502750" lon="-4.6908630">
        <ele>859.1</ele>
        <time>2022-03-01T16:23:52Z</time>
      </trkpt>
      <trkpt lat="40.1501940" lon="-4.6908730">
        <ele>859.1</ele>
        <time>2022-03-01T16:23:53Z</time>
      </trkpt>
      <trkpt lat="40.1501160" lon="-4.6908830">
        <ele>859.1</ele>
        <time>2022-03-01T16:23:54Z</time>
      </trkpt>
      <trkpt lat="40.1500360" lon="-4.6908910">
        <ele>859.1</ele>
        <time>2022-03-01T16:23:55Z</time>
      </trkpt>
      <trkpt lat="40.1499600" lon="-4.6909000">
        <ele>859.1</ele>
        <time>2022-03-01T16:23:56Z</time>
      </trkpt>
      <trkpt lat="40.1498840" lon="-4.6909150">
        <ele>859.1</ele>
        <time>2022-03-01T16:23:57Z</time>
      </trkpt>
      <trkpt lat="40.1498090" lon="-4.6909310">
        <ele>859.1</ele>
        <time>2022-03-01T16:23:58Z</time>
      </trkpt>
      <trkpt lat="40.1497290" lon="-4.6909470">
        <ele>859.0</ele>
        <time>2022-03-01T16:23:59Z</time>
      </trkpt>
      <trkpt lat="40.1496490" lon="-4.6909630">
        <ele>858.9</ele>
        <time>2022-03-01T16:24:00Z</time>
      </trkpt>
      <trkpt lat="40.1495690" lon="-4.6909840">
        <ele>858.8</ele>
        <time>2022-03-01T16:24:01Z</time>
      </trkpt>
      <trkpt lat="40.1494870" lon="-4.6910080">
        <ele>858.7</ele>
        <time>2022-03-01T16:24:02Z</time>
      </trkpt>
      <trkpt lat="40.1494040" lon="-4.6910350">
        <ele>858.6</ele>
        <time>2022-03-01T16:24:03Z</time>
      </trkpt>
      <trkpt lat="40.1493330" lon="-4.6910650">
        <ele>858.4</ele>
        <time>2022-03-01T16:24:04Z</time>
      </trkpt>
      <trkpt lat="40.1492520" lon="-4.6910920">
        <ele>858.1</ele>
        <time>2022-03-01T16:24:05Z</time>
      </trkpt>
      <trkpt lat="40.1491710" lon="-4.6911180">
        <ele>857.8</ele>
        <time>2022-03-01T16:24:06Z</time>
      </trkpt>
      <trkpt lat="40.1490880" lon="-4.6911470">
        <ele>857.5</ele>
        <time>2022-03-01T16:24:07Z</time>
      </trkpt>
      <trkpt lat="40.1490060" lon="-4.6911790">
        <ele>857.1</ele>
        <time>2022-03-01T16:24:08Z</time>
      </trkpt>
      <trkpt lat="40.1489200" lon="-4.6912140">
        <ele>856.6</ele>
        <time>2022-03-01T16:24:09Z</time>
      </trkpt>
      <trkpt lat="40.1488370" lon="-4.6912460">
        <ele>856.2</ele>
        <time>2022-03-01T16:24:10Z</time>
      </trkpt>
      <trkpt lat="40.1487500" lon="-4.6912810">
        <ele>855.7</ele>
        <time>2022-03-01T16:24:11Z</time>
      </trkpt>
      <trkpt lat="40.1486560" lon="-4.6913160">
        <ele>855.1</ele>
        <time>2022-03-01T16:24:12Z</time>
      </trkpt>
      <trkpt lat="40.1485590" lon="-4.6913490">
        <ele>854.5</ele>
        <time>2022-03-01T16:24:13Z</time>
      </trkpt>
      <trkpt lat="40.1484590" lon="-4.6913790">
        <ele>853.8</ele>
        <time>2022-03-01T16:24:14Z</time>
      </trkpt>
      <trkpt lat="40.1483570" lon="-4.6914050">
        <ele>853.2</ele>
        <time>2022-03-01T16:24:15Z</time>
      </trkpt>
      <trkpt lat="40.1482500" lon="-4.6914220">
        <ele>852.5</ele>
        <time>2022-03-01T16:24:16Z</time>
      </trkpt>
      <trkpt lat="40.1481400" lon="-4.6914400">
        <ele>851.6</ele>
        <time>2022-03-01T16:24:17Z</time>
      </trkpt>
      <trkpt lat="40.1480280" lon="-4.6914670">
        <ele>850.6</ele>
        <time>2022-03-01T16:24:18Z</time>
      </trkpt>
      <trkpt lat="40.1479110" lon="-4.6914850">
        <ele>849.6</ele>
        <time>2022-03-01T16:24:19Z</time>
      </trkpt>
      <trkpt lat="40.1477940" lon="-4.6915030">
        <ele>848.5</ele>
        <time>2022-03-01T16:24:20Z</time>
      </trkpt>
      <trkpt lat="40.1476750" lon="-4.6915210">
        <ele>847.5</ele>
        <time>2022-03-01T16:24:21Z</time>
      </trkpt>
      <trkpt lat="40.1475560" lon="-4.6915430">
        <ele>846.4</ele>
        <time>2022-03-01T16:24:22Z</time>
      </trkpt>
      <trkpt lat="40.1474370" lon="-4.6915650">
        <ele>845.4</ele>
        <time>2022-03-01T16:24:23Z</time>
      </trkpt>
      <trkpt lat="40.1473170" lon="-4.6915800">
        <ele>844.4</ele>
        <time>2022-03-01T16:24:24Z</time>
      </trkpt>
      <trkpt lat="40.1471930" lon="-4.6915890">
        <ele>843.3</ele>
        <time>2022-03-01T16:24:25Z</time>
      </trkpt>
      <trkpt lat="40.1470680" lon="-4.6915990">
        <ele>842.1</ele>
        <time>2022-03-01T16:24:26Z</time>
      </trkpt>
      <trkpt lat="40.1469410" lon="-4.6916100">
        <ele>840.9</ele>
        <time>2022-03-01T16:24:27Z</time>
      </trkpt>
      <trkpt lat="40.1468090" lon="-4.6916170">
        <ele>839.7</ele>
        <time>2022-03-01T16:24:28Z</time>
      </trkpt>
      <trkpt lat="40.1466820" lon="-4.6916270">
        <ele>838.5</ele>
        <time>2022-03-01T16:24:29Z</time>
      </trkpt>
      <trkpt lat="40.1465470" lon="-4.6916250">
        <ele>837.2</ele>
        <time>2022-03-01T16:24:30Z</time>
      </trkpt>
      <trkpt lat="40.1464090" lon="-4.6916110">
        <ele>835.8</ele>
        <time>2022-03-01T16:24:31Z</time>
      </trkpt>
      <trkpt lat="40.1462740" lon="-4.6915700">
        <ele>834.4</ele>
        <time>2022-03-01T16:24:32Z</time>
      </trkpt>
      <trkpt lat="40.1461400" lon="-4.6915090">
        <ele>832.8</ele>
        <time>2022-03-01T16:24:33Z</time>
      </trkpt>
      <trkpt lat="40.1460080" lon="-4.6914380">
        <ele>831.3</ele>
        <time>2022-03-01T16:24:34Z</time>
      </trkpt>
      <trkpt lat="40.1458770" lon="-4.6913560">
        <ele>829.7</ele>
        <time>2022-03-01T16:24:35Z</time>
      </trkpt>
      <trkpt lat="40.1457470" lon="-4.6912750">
        <ele>828.2</ele>
        <time>2022-03-01T16:24:36Z</time>
      </trkpt>
      <trkpt lat="40.1456170" lon="-4.6911930">
        <ele>827.5</ele>
        <time>2022-03-01T16:24:37Z</time>
      </trkpt>
      <trkpt lat="40.1454940" lon="-4.6911140">
        <ele>827.0</ele>
        <time>2022-03-01T16:24:38Z</time>
      </trkpt>
      <trkpt lat="40.1453660" lon="-4.6910560">
        <ele>825.5</ele>
        <time>2022-03-01T16:24:39Z</time>
      </trkpt>
      <trkpt lat="40.1452350" lon="-4.6910280">
        <ele>824.0</ele>
        <time>2022-03-01T16:24:40Z</time>
      </trkpt>
      <trkpt lat="40.1451000" lon="-4.6910380">
        <ele>822.5</ele>
        <time>2022-03-01T16:24:41Z</time>
      </trkpt>
      <trkpt lat="40.1449620" lon="-4.6910640">
        <ele>820.9</ele>
        <time>2022-03-01T16:24:42Z</time>
      </trkpt>
      <trkpt lat="40.1448240" lon="-4.6910840">
        <ele>819.3</ele>
        <time>2022-03-01T16:24:43Z</time>
      </trkpt>
      <trkpt lat="40.1446810" lon="-4.6910910">
        <ele>817.8</ele>
        <time>2022-03-01T16:24:44Z</time>
      </trkpt>
      <trkpt lat="40.1445380" lon="-4.6910710">
        <ele>816.3</ele>
        <time>2022-03-01T16:24:45Z</time>
      </trkpt>
      <trkpt lat="40.1443930" lon="-4.6910400">
        <ele>816.5</ele>
        <time>2022-03-01T16:24:46Z</time>
      </trkpt>
      <trkpt lat="40.1442520" lon="-4.6910020">
        <ele>814.8</ele>
        <time>2022-03-01T16:24:47Z</time>
      </trkpt>
      <trkpt lat="40.1441060" lon="-4.6909650">
        <ele>812.9</ele>
        <time>2022-03-01T16:24:48Z</time>
      </trkpt>
      <trkpt lat="40.1439640" lon="-4.6909310">
        <ele>811.1</ele>
        <time>2022-03-01T16:24:49Z</time>
      </trkpt>
      <trkpt lat="40.1438200" lon="-4.6908990">
        <ele>809.3</ele>
        <time>2022-03-01T16:24:50Z</time>
      </trkpt>
      <trkpt lat="40.1436780" lon="-4.6908720">
        <ele>807.7</ele>
        <time>2022-03-01T16:24:51Z</time>
      </trkpt>
      <trkpt lat="40.1435340" lon="-4.6908560">
        <ele>806.0</ele>
        <time>2022-03-01T16:24:52Z</time>
      </trkpt>
      <trkpt lat="40.1433960" lon="-4.6908700">
        <ele>804.6</ele>
        <time>2022-03-01T16:24:53Z</time>
      </trkpt>
      <trkpt lat="40.1432660" lon="-4.6908930">
        <ele>803.4</ele>
        <time>2022-03-01T16:24:54Z</time>
      </trkpt>
      <trkpt lat="40.1431350" lon="-4.6909070">
        <ele>802.1</ele>
        <time>2022-03-01T16:24:55Z</time>
      </trkpt>
      <trkpt lat="40.1430040" lon="-4.6909030">
        <ele>800.8</ele>
        <time>2022-03-01T16:24:56Z</time>
      </trkpt>
      <trkpt lat="40.1428700" lon="-4.6908730">
        <ele>799.5</ele>
        <time>2022-03-01T16:24:57Z</time>
      </trkpt>
      <trkpt lat="40.1427320" lon="-4.6908430">
        <ele>798.2</ele>
        <time>2022-03-01T16:24:58Z</time>
      </trkpt>
      <trkpt lat="40.1425950" lon="-4.6908150">
        <ele>797.3</ele>
        <time>2022-03-01T16:24:59Z</time>
      </trkpt>
      <trkpt lat="40.1424510" lon="-4.6908020">
        <ele>796.7</ele>
        <time>2022-03-01T16:25:00Z</time>
      </trkpt>
      <trkpt lat="40.1423070" lon="-4.6908040">
        <ele>794.9</ele>
        <time>2022-03-01T16:25:01Z</time>
      </trkpt>
      <trkpt lat="40.1421700" lon="-4.6908020">
        <ele>793.3</ele>
        <time>2022-03-01T16:25:02Z</time>
      </trkpt>
      <trkpt lat="40.1420330" lon="-4.6907880">
        <ele>791.9</ele>
        <time>2022-03-01T16:25:03Z</time>
      </trkpt>
      <trkpt lat="40.1418890" lon="-4.6907580">
        <ele>791.0</ele>
        <time>2022-03-01T16:25:04Z</time>
      </trkpt>
      <trkpt lat="40.1417540" lon="-4.6907160">
        <ele>788.7</ele>
        <time>2022-03-01T16:25:05Z</time>
      </trkpt>
      <trkpt lat="40.1416130" lon="-4.6906670">
        <ele>786.6</ele>
        <time>2022-03-01T16:25:06Z</time>
      </trkpt>
      <trkpt lat="40.1414710" lon="-4.6906190">
        <ele>784.8</ele>
        <time>2022-03-01T16:25:07Z</time>
      </trkpt>
      <trkpt lat="40.1413220" lon="-4.6906050">
        <ele>783.1</ele>
        <time>2022-03-01T16:25:08Z</time>
      </trkpt>
      <trkpt lat="40.1411710" lon="-4.6906050">
        <ele>782.2</ele>
        <time>2022-03-01T16:25:09Z</time>
      </trkpt>
      <trkpt lat="40.1410160" lon="-4.6906250">
        <ele>780.9</ele>
        <time>2022-03-01T16:25:10Z</time>
      </trkpt>
      <trkpt lat="40.1408590" lon="-4.6906440">
        <ele>778.8</ele>
        <time>2022-03-01T16:25:11Z</time>
      </trkpt>
      <trkpt lat="40.1406990" lon="-4.6906660">
        <ele>776.7</ele>
        <time>2022-03-01T16:25:12Z</time>
      </trkpt>
      <trkpt lat="40.1405350" lon="-4.6906920">
        <ele>775.0</ele>
        <time>2022-03-01T16:25:13Z</time>
      </trkpt>
      <trkpt lat="40.1403750" lon="-4.6907140">
        <ele>774.3</ele>
        <time>2022-03-01T16:25:14Z</time>
      </trkpt>
      <trkpt lat="40.1402110" lon="-4.6907420">
        <ele>772.0</ele>
        <time>2022-03-01T16:25:15Z</time>
      </trkpt>
      <trkpt lat="40.1400430" lon="-4.6907650">
        <ele>769.6</ele>
        <time>2022-03-01T16:25:16Z</time>
      </trkpt>
      <trkpt lat="40.1398750" lon="-4.6907860">
        <ele>767.3</ele>
        <time>2022-03-01T16:25:17Z</time>
      </trkpt>
      <trkpt lat="40.1397010" lon="-4.6907870">
        <ele>765.9</ele>
        <time>2022-03-01T16:25:18Z</time>
      </trkpt>
      <trkpt lat="40.1395370" lon="-4.6907820">
        <ele>765.0</ele>
        <time>2022-03-01T16:25:19Z</time>
      </trkpt>
      <trkpt lat="40.1393680" lon="-4.6907670">
        <ele>763.1</ele>
        <time>2022-03-01T16:25:20Z</time>
      </trkpt>
      <trkpt lat="40.1392030" lon="-4.6907440">
        <ele>761.3</ele>
        <time>2022-03-01T16:25:21Z</time>
      </trkpt>
      <trkpt lat="40.1390380" lon="-4.6907240">
        <ele>759.5</ele>
        <time>2022-03-01T16:25:22Z</time>
      </trkpt>
      <trkpt lat="40.1388820" lon="-4.6907020">
        <ele>758.0</ele>
        <time>2022-03-01T16:25:23Z</time>
      </trkpt>
      <trkpt lat="40.1387370" lon="-4.6906990">
        <ele>756.9</ele>
        <time>2022-03-01T16:25:24Z</time>
      </trkpt>
      <trkpt lat="40.1385940" lon="-4.6907190">
        <ele>755.9</ele>
        <time>2022-03-01T16:25:25Z</time>
      </trkpt>
      <trkpt lat="40.1384560" lon="-4.6907380">
        <ele>755.1</ele>
        <time>2022-03-01T16:25:26Z</time>
      </trkpt>
      <trkpt lat="40.1383300" lon="-4.6907590">
        <ele>754.6</ele>
        <time>2022-03-01T16:25:27Z</time>
      </trkpt>
      <trkpt lat="40.1382100" lon="-4.6907850">
        <ele>754.1</ele>
        <time>2022-03-01T16:25:28Z</time>
      </trkpt>
      <trkpt lat="40.1380930" lon="-4.6907820">
        <ele>753.7</ele>
        <time>2022-03-01T16:25:29Z</time>
      </trkpt>
      <trkpt lat="40.1379860" lon="-4.6907620">
        <ele>753.3</ele>
        <time>2022-03-01T16:25:30Z</time>
      </trkpt>
      <trkpt lat="40.1378710" lon="-4.6906940">
        <ele>752.8</ele>
        <time>2022-03-01T16:25:31Z</time>
      </trkpt>
      <trkpt lat="40.1377660" lon="-4.6906390">
        <ele>752.5</ele>
        <time>2022-03-01T16:25:32Z</time>
      </trkpt>
      <trkpt lat="40.1376590" lon="-4.6905990">
        <ele>752.1</ele>
        <time>2022-03-01T16:25:33Z</time>
      </trkpt>
      <trkpt lat="40.1375530" lon="-4.6905620">
        <ele>751.7</ele>
        <time>2022-03-01T16:25:34Z</time>
      </trkpt>
      <trkpt lat="40.1374570" lon="-4.6905030">
        <ele>751.2</ele>
        <time>2022-03-01T16:25:35Z</time>
      </trkpt>
      <trkpt lat="40.1373480" lon="-4.6904570">
        <ele>750.9</ele>
        <time>2022-03-01T16:25:36Z</time>
      </trkpt>
      <trkpt lat="40.1372510" lon="-4.6904340">
        <ele>750.5</ele>
        <time>2022-03-01T16:25:37Z</time>
      </trkpt>
      <trkpt lat="40.1371580" lon="-4.6904390">
        <ele>750.1</ele>
        <time>2022-03-01T16:25:38Z</time>
      </trkpt>
      <trkpt lat="40.1370680" lon="-4.6904460">
        <ele>749.8</ele>
        <time>2022-03-01T16:25:39Z</time>
      </trkpt>
      <trkpt lat="40.1369900" lon="-4.6904410">
        <ele>749.7</ele>
        <time>2022-03-01T16:25:40Z</time>
      </trkpt>
      <trkpt lat="40.1369100" lon="-4.6904300">
        <ele>749.4</ele>
        <time>2022-03-01T16:25:41Z</time>
      </trkpt>
      <trkpt lat="40.1368280" lon="-4.6904580">
        <ele>748.9</ele>
        <time>2022-03-01T16:25:42Z</time>
      </trkpt>
      <trkpt lat="40.1367710" lon="-4.6905060">
        <ele>748.5</ele>
        <time>2022-03-01T16:25:43Z</time>
      </trkpt>
      <trkpt lat="40.1367230" lon="-4.6905360">
        <ele>748.3</ele>
        <time>2022-03-01T16:25:44Z</time>
      </trkpt>
      <trkpt lat="40.1366770" lon="-4.6905890">
        <ele>748.1</ele>
        <time>2022-03-01T16:25:45Z</time>
      </trkpt>
      <trkpt lat="40.1366270" lon="-4.6906400">
        <ele>747.9</ele>
        <time>2022-03-01T16:25:46Z</time>
      </trkpt>
      <trkpt lat="40.1365860" lon="-4.6907030">
        <ele>747.7</ele>
        <time>2022-03-01T16:25:47Z</time>
      </trkpt>
      <trkpt lat="40.1365350" lon="-4.6907610">
        <ele>747.4</ele>
        <time>2022-03-01T16:25:48Z</time>
      </trkpt>
      <trkpt lat="40.1364680" lon="-4.6908070">
        <ele>747.1</ele>
        <time>2022-03-01T16:25:49Z</time>
      </trkpt>
      <trkpt lat="40.1363910" lon="-4.6908480">
        <ele>746.7</ele>
        <time>2022-03-01T16:25:50Z</time>
      </trkpt>
      <trkpt lat="40.1363220" lon="-4.6908800">
        <ele>746.3</ele>
        <time>2022-03-01T16:25:51Z</time>
      </trkpt>
      <trkpt lat="40.1362350" lon="-4.6909120">
        <ele>745.8</ele>
        <time>2022-03-01T16:25:52Z</time>
      </trkpt>
      <trkpt lat="40.1361520" lon="-4.6909900">
        <ele>744.9</ele>
        <time>2022-03-01T16:25:53Z</time>
      </trkpt>
      <trkpt lat="40.1360680" lon="-4.6910450">
        <ele>743.9</ele>
        <time>2022-03-01T16:25:54Z</time>
      </trkpt>
      <trkpt lat="40.1359850" lon="-4.6911260">
        <ele>742.8</ele>
        <time>2022-03-01T16:25:55Z</time>
      </trkpt>
      <trkpt lat="40.1358900" lon="-4.6911800">
        <ele>741.5</ele>
        <time>2022-03-01T16:25:56Z</time>
      </trkpt>
      <trkpt lat="40.1358160" lon="-4.6912750">
        <ele>740.3</ele>
        <time>2022-03-01T16:25:57Z</time>
      </trkpt>
      <trkpt lat="40.1356990" lon="-4.6912980">
        <ele>738.9</ele>
        <time>2022-03-01T16:25:58Z</time>
      </trkpt>
      <trkpt lat="40.1355850" lon="-4.6913410">
        <ele>737.5</ele>
        <time>2022-03-01T16:25:59Z</time>
      </trkpt>
      <trkpt lat="40.1354550" lon="-4.6913800">
        <ele>736.0</ele>
        <time>2022-03-01T16:26:00Z</time>
      </trkpt>
      <trkpt lat="40.1353250" lon="-4.6914470">
        <ele>734.5</ele>
        <time>2022-03-01T16:26:01Z</time>
      </trkpt>
      <trkpt lat="40.1351950" lon="-4.6915030">
        <ele>733.0</ele>
        <time>2022-03-01T16:26:02Z</time>
      </trkpt>
      <trkpt lat="40.1350710" lon="-4.6915700">
        <ele>731.7</ele>
        <time>2022-03-01T16:26:03Z</time>
      </trkpt>
      <trkpt lat="40.1349390" lon="-4.6916340">
        <ele>730.3</ele>
        <time>2022-03-01T16:26:04Z</time>
      </trkpt>
      <trkpt lat="40.1348090" lon="-4.6916970">
        <ele>728.9</ele>
        <time>2022-03-01T16:26:05Z</time>
      </trkpt>
      <trkpt lat="40.1346740" lon="-4.6917550">
        <ele>727.6</ele>
        <time>2022-03-01T16:26:06Z</time>
      </trkpt>
      <trkpt lat="40.1345420" lon="-4.6918290">
        <ele>726.3</ele>
        <time>2022-03-01T16:26:07Z</time>
      </trkpt>
      <trkpt lat="40.1344110" lon="-4.6919200">
        <ele>725.0</ele>
        <time>2022-03-01T16:26:08Z</time>
      </trkpt>
      <trkpt lat="40.1342950" lon="-4.6920200">
        <ele>724.8</ele>
        <time>2022-03-01T16:26:09Z</time>
      </trkpt>
      <trkpt lat="40.1341720" lon="-4.6921140">
        <ele>723.0</ele>
        <time>2022-03-01T16:26:10Z</time>
      </trkpt>
      <trkpt lat="40.1340330" lon="-4.6921970">
        <ele>720.9</ele>
        <time>2022-03-01T16:26:11Z</time>
      </trkpt>
      <trkpt lat="40.1339050" lon="-4.6922900">
        <ele>719.0</ele>
        <time>2022-03-01T16:26:12Z</time>
      </trkpt>
      <trkpt lat="40.1337710" lon="-4.6923840">
        <ele>717.5</ele>
        <time>2022-03-01T16:26:13Z</time>
      </trkpt>
      <trkpt lat="40.1336380" lon="-4.6924700">
        <ele>716.2</ele>
        <time>2022-03-01T16:26:14Z</time>
      </trkpt>
      <trkpt lat="40.1335070" lon="-4.6925570">
        <ele>715.1</ele>
        <time>2022-03-01T16:26:15Z</time>
      </trkpt>
      <trkpt lat="40.1333750" lon="-4.6926510">
        <ele>714.1</ele>
        <time>2022-03-01T16:26:16Z</time>
      </trkpt>
      <trkpt lat="40.1332550" lon="-4.6927540">
        <ele>713.2</ele>
        <time>2022-03-01T16:26:17Z</time>
      </trkpt>
      <trkpt lat="40.1331160" lon="-4.6928360">
        <ele>712.4</ele>
        <time>2022-03-01T16:26:18Z</time>
      </trkpt>
      <trkpt lat="40.1329900" lon="-4.6929250">
        <ele>711.6</ele>
        <time>2022-03-01T16:26:19Z</time>
      </trkpt>
      <trkpt lat="40.1328660" lon="-4.6930080">
        <ele>710.7</ele>
        <time>2022-03-01T16:26:20Z</time>
      </trkpt>
      <trkpt lat="40.1327430" lon="-4.6930900">
        <ele>709.8</ele>
        <time>2022-03-01T16:26:21Z</time>
      </trkpt>
      <trkpt lat="40.1326270" lon="-4.6931750">
        <ele>708.8</ele>
        <time>2022-03-01T16:26:22Z</time>
      </trkpt>
      <trkpt lat="40.1325050" lon="-4.6932460">
        <ele>707.9</ele>
        <time>2022-03-01T16:26:23Z</time>
      </trkpt>
      <trkpt lat="40.1323750" lon="-4.6932980">
        <ele>707.0</ele>
        <time>2022-03-01T16:26:24Z</time>
      </trkpt>
      <trkpt lat="40.1322410" lon="-4.6933340">
        <ele>706.0</ele>
        <time>2022-03-01T16:26:25Z</time>
      </trkpt>
      <trkpt lat="40.1321010" lon="-4.6933660">
        <ele>705.1</ele>
        <time>2022-03-01T16:26:26Z</time>
      </trkpt>
      <trkpt lat="40.1319710" lon="-4.6934070">
        <ele>704.1</ele>
        <time>2022-03-01T16:26:27Z</time>
      </trkpt>
      <trkpt lat="40.1318370" lon="-4.6934430">
        <ele>703.2</ele>
        <time>2022-03-01T16:26:28Z</time>
      </trkpt>
      <trkpt lat="40.1317120" lon="-4.6934930">
        <ele>702.2</ele>
        <time>2022-03-01T16:26:29Z</time>
      </trkpt>
      <trkpt lat="40.1315710" lon="-4.6935280">
        <ele>701.1</ele>
        <time>2022-03-01T16:26:30Z</time>
      </trkpt>
      <trkpt lat="40.1314380" lon="-4.6935680">
        <ele>700.0</ele>
        <time>2022-03-01T16:26:31Z</time>
      </trkpt>
      <trkpt lat="40.1313140" lon="-4.6936270">
        <ele>698.8</ele>
        <time>2022-03-01T16:26:32Z</time>
      </trkpt>
      <trkpt lat="40.1311870" lon="-4.6936820">
        <ele>697.6</ele>
        <time>2022-03-01T16:26:33Z</time>
      </trkpt>
      <trkpt lat="40.1310610" lon="-4.6937550">
        <ele>696.4</ele>
        <time>2022-03-01T16:26:34Z</time>
      </trkpt>
      <trkpt lat="40.1309300" lon="-4.6938230">
        <ele>695.2</ele>
        <time>2022-03-01T16:26:35Z</time>
      </trkpt>
      <trkpt lat="40.1307940" lon="-4.6938710">
        <ele>694.1</ele>
        <time>2022-03-01T16:26:36Z</time>
      </trkpt>
      <trkpt lat="40.1306520" lon="-4.6939110">
        <ele>693.0</ele>
        <time>2022-03-01T16:26:37Z</time>
      </trkpt>
      <trkpt lat="40.1305150" lon="-4.6939420">
        <ele>692.0</ele>
        <time>2022-03-01T16:26:38Z</time>
      </trkpt>
      <trkpt lat="40.1303730" lon="-4.6939630">
        <ele>690.9</ele>
        <time>2022-03-01T16:26:39Z</time>
      </trkpt>
      <trkpt lat="40.1302320" lon="-4.6939880">
        <ele>689.9</ele>
        <time>2022-03-01T16:26:40Z</time>
      </trkpt>
      <trkpt lat="40.1300980" lon="-4.6940170">
        <ele>688.8</ele>
        <time>2022-03-01T16:26:41Z</time>
      </trkpt>
      <trkpt lat="40.1299600" lon="-4.6940460">
        <ele>687.8</ele>
        <time>2022-03-01T16:26:42Z</time>
      </trkpt>
      <trkpt lat="40.1298200" lon="-4.6940930">
        <ele>686.8</ele>
        <time>2022-03-01T16:26:43Z</time>
      </trkpt>
      <trkpt lat="40.1296800" lon="-4.6941530">
        <ele>685.9</ele>
        <time>2022-03-01T16:26:44Z</time>
      </trkpt>
      <trkpt lat="40.1295510" lon="-4.6942230">
        <ele>685.1</ele>
        <time>2022-03-01T16:26:45Z</time>
      </trkpt>
      <trkpt lat="40.1294290" lon="-4.6943220">
        <ele>684.4</ele>
        <time>2022-03-01T16:26:46Z</time>
      </trkpt>
      <trkpt lat="40.1293330" lon="-4.6944490">
        <ele>684.9</ele>
        <time>2022-03-01T16:26:47Z</time>
      </trkpt>
      <trkpt lat="40.1292520" lon="-4.6945850">
        <ele>685.6</ele>
        <time>2022-03-01T16:26:48Z</time>
      </trkpt>
      <trkpt lat="40.1291740" lon="-4.6947200">
        <ele>686.1</ele>
        <time>2022-03-01T16:26:49Z</time>
      </trkpt>
      <trkpt lat="40.1290980" lon="-4.6948410">
        <ele>685.6</ele>
        <time>2022-03-01T16:26:50Z</time>
      </trkpt>
      <trkpt lat="40.1290370" lon="-4.6949590">
        <ele>685.3</ele>
        <time>2022-03-01T16:26:51Z</time>
      </trkpt>
      <trkpt lat="40.1289670" lon="-4.6950710">
        <ele>685.4</ele>
        <time>2022-03-01T16:26:52Z</time>
      </trkpt>
      <trkpt lat="40.1288900" lon="-4.6951740">
        <ele>685.6</ele>
        <time>2022-03-01T16:26:53Z</time>
      </trkpt>
      <trkpt lat="40.1288220" lon="-4.6952690">
        <ele>686.0</ele>
        <time>2022-03-01T16:26:54Z</time>
      </trkpt>
      <trkpt lat="40.1287630" lon="-4.6953580">
        <ele>686.4</ele>
        <time>2022-03-01T16:26:55Z</time>
      </trkpt>
      <trkpt lat="40.1287010" lon="-4.6954430">
        <ele>686.9</ele>
        <time>2022-03-01T16:26:56Z</time>
      </trkpt>
      <trkpt lat="40.1286480" lon="-4.6955210">
        <ele>687.3</ele>
        <time>2022-03-01T16:26:57Z</time>
      </trkpt>
      <trkpt lat="40.1285970" lon="-4.6955930">
        <ele>687.8</ele>
        <time>2022-03-01T16:26:58Z</time>
      </trkpt>
      <trkpt lat="40.1285500" lon="-4.6956630">
        <ele>688.2</ele>
        <time>2022-03-01T16:26:59Z</time>
      </trkpt>
      <trkpt lat="40.1285110" lon="-4.6957300">
        <ele>688.7</ele>
        <time>2022-03-01T16:27:00Z</time>
      </trkpt>
      <trkpt lat="40.1284650" lon="-4.6957910">
        <ele>689.2</ele>
        <time>2022-03-01T16:27:01Z</time>
      </trkpt>
      <trkpt lat="40.1284270" lon="-4.6958470">
        <ele>689.6</ele>
        <time>2022-03-01T16:27:02Z</time>
      </trkpt>
      <trkpt lat="40.1283940" lon="-4.6959030">
        <ele>690.1</ele>
        <time>2022-03-01T16:27:03Z</time>
      </trkpt>
      <trkpt lat="40.1283600" lon="-4.6959530">
        <ele>690.6</ele>
        <time>2022-03-01T16:27:04Z</time>
      </trkpt>
      <trkpt lat="40.1283250" lon="-4.6960000">
        <ele>691.1</ele>
        <time>2022-03-01T16:27:05Z</time>
      </trkpt>
      <trkpt lat="40.1282890" lon="-4.6960460">
        <ele>691.6</ele>
        <time>2022-03-01T16:27:06Z</time>
      </trkpt>
      <trkpt lat="40.1282580" lon="-4.6960840">
        <ele>692.0</ele>
        <time>2022-03-01T16:27:07Z</time>
      </trkpt>
      <trkpt lat="40.1282270" lon="-4.6961300">
        <ele>692.5</ele>
        <time>2022-03-01T16:27:08Z</time>
      </trkpt>
      <trkpt lat="40.1281980" lon="-4.6961720">
        <ele>692.9</ele>
        <time>2022-03-01T16:27:09Z</time>
      </trkpt>
      <trkpt lat="40.1281680" lon="-4.6962110">
        <ele>693.3</ele>
        <time>2022-03-01T16:27:10Z</time>
      </trkpt>
      <trkpt lat="40.1281400" lon="-4.6962470">
        <ele>693.7</ele>
        <time>2022-03-01T16:27:11Z</time>
      </trkpt>
      <trkpt lat="40.1281100" lon="-4.6962950">
        <ele>694.2</ele>
        <time>2022-03-01T16:27:12Z</time>
      </trkpt>
      <trkpt lat="40.1280830" lon="-4.6963400">
        <ele>694.6</ele>
        <time>2022-03-01T16:27:13Z</time>
      </trkpt>
      <trkpt lat="40.1280500" lon="-4.6963850">
        <ele>695.0</ele>
        <time>2022-03-01T16:27:14Z</time>
      </trkpt>
      <trkpt lat="40.1280150" lon="-4.6964180">
        <ele>695.4</ele>
        <time>2022-03-01T16:27:15Z</time>
      </trkpt>
      <trkpt lat="40.1279790" lon="-4.6964630">
        <ele>695.9</ele>
        <time>2022-03-01T16:27:16Z</time>
      </trkpt>
      <trkpt lat="40.1279380" lon="-4.6965000">
        <ele>696.3</ele>
        <time>2022-03-01T16:27:17Z</time>
      </trkpt>
      <trkpt lat="40.1278940" lon="-4.6965490">
        <ele>696.8</ele>
        <time>2022-03-01T16:27:18Z</time>
      </trkpt>
      <trkpt lat="40.1278580" lon="-4.6965860">
        <ele>697.1</ele>
        <time>2022-03-01T16:27:19Z</time>
      </trkpt>
      <trkpt lat="40.1278200" lon="-4.6966220">
        <ele>697.5</ele>
        <time>2022-03-01T16:27:20Z</time>
      </trkpt>
      <trkpt lat="40.1277860" lon="-4.6966540">
        <ele>697.8</ele>
        <time>2022-03-01T16:27:21Z</time>
      </trkpt>
      <trkpt lat="40.1277460" lon="-4.6966850">
        <ele>698.2</ele>
        <time>2022-03-01T16:27:22Z</time>
      </trkpt>
      <trkpt lat="40.1277090" lon="-4.6967160">
        <ele>698.5</ele>
        <time>2022-03-01T16:27:23Z</time>
      </trkpt>
      <trkpt lat="40.1276840" lon="-4.6967440">
        <ele>698.7</ele>
        <time>2022-03-01T16:27:24Z</time>
      </trkpt>
      <trkpt lat="40.1276450" lon="-4.6967510">
        <ele>698.9</ele>
        <time>2022-03-01T16:27:25Z</time>
      </trkpt>
      <trkpt lat="40.1276150" lon="-4.6967750">
        <ele>699.1</ele>
        <time>2022-03-01T16:27:26Z</time>
      </trkpt>
      <trkpt lat="40.1275530" lon="-4.6967880">
        <ele>699.5</ele>
        <time>2022-03-01T16:27:27Z</time>
      </trkpt>
      <trkpt lat="40.1275160" lon="-4.6967870">
        <ele>699.7</ele>
        <time>2022-03-01T16:27:28Z</time>
      </trkpt>
      <trkpt lat="40.1274490" lon="-4.6968070">
        <ele>699.9</ele>
        <time>2022-03-01T16:27:29Z</time>
      </trkpt>
      <trkpt lat="40.1274040" lon="-4.6968260">
        <ele>700.0</ele>
        <time>2022-03-01T16:27:30Z</time>
      </trkpt>
      <trkpt lat="40.1273450" lon="-4.6968360">
        <ele>700.2</ele>
        <time>2022-03-01T16:27:31Z</time>
      </trkpt>
      <trkpt lat="40.1272880" lon="-4.6968370">
        <ele>700.4</ele>
        <time>2022-03-01T16:27:32Z</time>
      </trkpt>
      <trkpt lat="40.1272330" lon="-4.6968060">
        <ele>700.5</ele>
        <time>2022-03-01T16:27:33Z</time>
      </trkpt>
      <trkpt lat="40.1271810" lon="-4.6967580">
        <ele>701.1</ele>
        <time>2022-03-01T16:27:34Z</time>
      </trkpt>
      <trkpt lat="40.1271450" lon="-4.6967020">
        <ele>701.6</ele>
        <time>2022-03-01T16:27:35Z</time>
      </trkpt>
      <trkpt lat="40.1271200" lon="-4.6966370">
        <ele>702.1</ele>
        <time>2022-03-01T16:27:36Z</time>
      </trkpt>
      <trkpt lat="40.1271160" lon="-4.6965530">
        <ele>702.2</ele>
        <time>2022-03-01T16:27:37Z</time>
      </trkpt>
      <trkpt lat="40.1271170" lon="-4.6964300">
        <ele>701.0</ele>
        <time>2022-03-01T16:27:38Z</time>
      </trkpt>
      <trkpt lat="40.1271100" lon="-4.6963110">
        <ele>699.6</ele>
        <time>2022-03-01T16:27:39Z</time>
      </trkpt>
      <trkpt lat="40.1271030" lon="-4.6961920">
        <ele>698.5</ele>
        <time>2022-03-01T16:27:40Z</time>
      </trkpt>
      <trkpt lat="40.1270830" lon="-4.6960740">
        <ele>697.9</ele>
        <time>2022-03-01T16:27:41Z</time>
      </trkpt>
      <trkpt lat="40.1270720" lon="-4.6959310">
        <ele>697.2</ele>
        <time>2022-03-01T16:27:42Z</time>
      </trkpt>
      <trkpt lat="40.1270550" lon="-4.6957960">
        <ele>696.4</ele>
        <time>2022-03-01T16:27:43Z</time>
      </trkpt>
      <trkpt lat="40.1270460" lon="-4.6956560">
        <ele>695.6</ele>
        <time>2022-03-01T16:27:44Z</time>
      </trkpt>
      <trkpt lat="40.1270270" lon="-4.6955110">
        <ele>694.8</ele>
        <time>2022-03-01T16:27:45Z</time>
      </trkpt>
      <trkpt lat="40.1270170" lon="-4.6953630">
        <ele>693.9</ele>
        <time>2022-03-01T16:27:46Z</time>
      </trkpt>
      <trkpt lat="40.1270010" lon="-4.6952110">
        <ele>692.8</ele>
        <time>2022-03-01T16:27:47Z</time>
      </trkpt>
      <trkpt lat="40.1269840" lon="-4.6950540">
        <ele>691.8</ele>
        <time>2022-03-01T16:27:48Z</time>
      </trkpt>
      <trkpt lat="40.1269730" lon="-4.6948920">
        <ele>690.7</ele>
        <time>2022-03-01T16:27:49Z</time>
      </trkpt>
      <trkpt lat="40.1269510" lon="-4.6947320">
        <ele>689.6</ele>
        <time>2022-03-01T16:27:50Z</time>
      </trkpt>
      <trkpt lat="40.1269260" lon="-4.6945650">
        <ele>688.5</ele>
        <time>2022-03-01T16:27:51Z</time>
      </trkpt>
      <trkpt lat="40.1268910" lon="-4.6944050">
        <ele>687.3</ele>
        <time>2022-03-01T16:27:52Z</time>
      </trkpt>
      <trkpt lat="40.1268410" lon="-4.6942380">
        <ele>686.1</ele>
        <time>2022-03-01T16:27:53Z</time>
      </trkpt>
      <trkpt lat="40.1267770" lon="-4.6940820">
        <ele>684.8</ele>
        <time>2022-03-01T16:27:54Z</time>
      </trkpt>
      <trkpt lat="40.1267110" lon="-4.6939150">
        <ele>683.4</ele>
        <time>2022-03-01T16:27:55Z</time>
      </trkpt>
      <trkpt lat="40.1266210" lon="-4.6937630">
        <ele>682.0</ele>
        <time>2022-03-01T16:27:56Z</time>
      </trkpt>
      <trkpt lat="40.1265240" lon="-4.6936120">
        <ele>680.8</ele>
        <time>2022-03-01T16:27:57Z</time>
      </trkpt>
      <trkpt lat="40.1264160" lon="-4.6934690">
        <ele>679.7</ele>
        <time>2022-03-01T16:27:58Z</time>
      </trkpt>
      <trkpt lat="40.1263080" lon="-4.6933310">
        <ele>678.7</ele>
        <time>2022-03-01T16:27:59Z</time>
      </trkpt>
      <trkpt lat="40.1261780" lon="-4.6932370">
        <ele>677.9</ele>
        <time>2022-03-01T16:28:00Z</time>
      </trkpt>
      <trkpt lat="40.1260450" lon="-4.6931500">
        <ele>677.3</ele>
        <time>2022-03-01T16:28:01Z</time>
      </trkpt>
      <trkpt lat="40.1259120" lon="-4.6930760">
        <ele>676.8</ele>
        <time>2022-03-01T16:28:02Z</time>
      </trkpt>
      <trkpt lat="40.1257820" lon="-4.6930120">
        <ele>676.6</ele>
        <time>2022-03-01T16:28:03Z</time>
      </trkpt>
      <trkpt lat="40.1256540" lon="-4.6929430">
        <ele>676.4</ele>
        <time>2022-03-01T16:28:04Z</time>
      </trkpt>
      <trkpt lat="40.1255320" lon="-4.6928780">
        <ele>676.3</ele>
        <time>2022-03-01T16:28:05Z</time>
      </trkpt>
      <trkpt lat="40.1254200" lon="-4.6928000">
        <ele>676.3</ele>
        <time>2022-03-01T16:28:06Z</time>
      </trkpt>
      <trkpt lat="40.1253160" lon="-4.6927140">
        <ele>676.3</ele>
        <time>2022-03-01T16:28:07Z</time>
      </trkpt>
      <trkpt lat="40.1252160" lon="-4.6926170">
        <ele>676.4</ele>
        <time>2022-03-01T16:28:08Z</time>
      </trkpt>
      <trkpt lat="40.1251270" lon="-4.6925150">
        <ele>676.5</ele>
        <time>2022-03-01T16:28:09Z</time>
      </trkpt>
      <trkpt lat="40.1250440" lon="-4.6924020">
        <ele>676.6</ele>
        <time>2022-03-01T16:28:10Z</time>
      </trkpt>
      <trkpt lat="40.1249690" lon="-4.6922810">
        <ele>676.8</ele>
        <time>2022-03-01T16:28:11Z</time>
      </trkpt>
      <trkpt lat="40.1249010" lon="-4.6921640">
        <ele>676.9</ele>
        <time>2022-03-01T16:28:12Z</time>
      </trkpt>
      <trkpt lat="40.1248420" lon="-4.6920420">
        <ele>677.0</ele>
        <time>2022-03-01T16:28:13Z</time>
      </trkpt>
      <trkpt lat="40.1247890" lon="-4.6919120">
        <ele>677.1</ele>
        <time>2022-03-01T16:28:14Z</time>
      </trkpt>
      <trkpt lat="40.1247410" lon="-4.6917770">
        <ele>677.3</ele>
        <time>2022-03-01T16:28:15Z</time>
      </trkpt>
      <trkpt lat="40.1246960" lon="-4.6916430">
        <ele>677.4</ele>
        <time>2022-03-01T16:28:16Z</time>
      </trkpt>
      <trkpt lat="40.1246520" lon="-4.6915160">
        <ele>677.5</ele>
        <time>2022-03-01T16:28:17Z</time>
      </trkpt>
      <trkpt lat="40.1246050" lon="-4.6913920">
        <ele>677.7</ele>
        <time>2022-03-01T16:28:18Z</time>
      </trkpt>
      <trkpt lat="40.1245530" lon="-4.6912760">
        <ele>677.8</ele>
        <time>2022-03-01T16:28:19Z</time>
      </trkpt>
      <trkpt lat="40.1244980" lon="-4.6911540">
        <ele>677.9</ele>
        <time>2022-03-01T16:28:20Z</time>
      </trkpt>
      <trkpt lat="40.1244420" lon="-4.6910410">
        <ele>678.0</ele>
        <time>2022-03-01T16:28:21Z</time>
      </trkpt>
      <trkpt lat="40.1243760" lon="-4.6909400">
        <ele>678.2</ele>
        <time>2022-03-01T16:28:22Z</time>
      </trkpt>
      <trkpt lat="40.1243110" lon="-4.6908460">
        <ele>678.3</ele>
        <time>2022-03-01T16:28:23Z</time>
      </trkpt>
      <trkpt lat="40.1242360" lon="-4.6907600">
        <ele>678.4</ele>
        <time>2022-03-01T16:28:24Z</time>
      </trkpt>
      <trkpt lat="40.1241600" lon="-4.6906840">
        <ele>678.5</ele>
        <time>2022-03-01T16:28:25Z</time>
      </trkpt>
      <trkpt lat="40.1240800" lon="-4.6906130">
        <ele>678.6</ele>
        <time>2022-03-01T16:28:26Z</time>
      </trkpt>
      <trkpt lat="40.1240000" lon="-4.6905450">
        <ele>678.7</ele>
        <time>2022-03-01T16:28:27Z</time>
      </trkpt>
      <trkpt lat="40.1239160" lon="-4.6904960">
        <ele>678.8</ele>
        <time>2022-03-01T16:28:28Z</time>
      </trkpt>
      <trkpt lat="40.1238300" lon="-4.6904450">
        <ele>678.9</ele>
        <time>2022-03-01T16:28:29Z</time>
      </trkpt>
      <trkpt lat="40.1237400" lon="-4.6904340">
        <ele>679.1</ele>
        <time>2022-03-01T16:28:30Z</time>
      </trkpt>
      <trkpt lat="40.1236530" lon="-4.6903980">
        <ele>679.1</ele>
        <time>2022-03-01T16:28:31Z</time>
      </trkpt>
      <trkpt lat="40.1235660" lon="-4.6903710">
        <ele>679.2</ele>
        <time>2022-03-01T16:28:32Z</time>
      </trkpt>
      <trkpt lat="40.1234770" lon="-4.6903580">
        <ele>679.3</ele>
        <time>2022-03-01T16:28:33Z</time>
      </trkpt>
      <trkpt lat="40.1233880" lon="-4.6903450">
        <ele>679.4</ele>
        <time>2022-03-01T16:28:34Z</time>
      </trkpt>
      <trkpt lat="40.1233010" lon="-4.6903370">
        <ele>679.4</ele>
        <time>2022-03-01T16:28:35Z</time>
      </trkpt>
      <trkpt lat="40.1232130" lon="-4.6903390">
        <ele>679.4</ele>
        <time>2022-03-01T16:28:36Z</time>
      </trkpt>
      <trkpt lat="40.1231260" lon="-4.6903460">
        <ele>679.4</ele>
        <time>2022-03-01T16:28:37Z</time>
      </trkpt>
      <trkpt lat="40.1230410" lon="-4.6903640">
        <ele>679.3</ele>
        <time>2022-03-01T16:28:38Z</time>
      </trkpt>
      <trkpt lat="40.1229520" lon="-4.6903810">
        <ele>679.1</ele>
        <time>2022-03-01T16:28:39Z</time>
      </trkpt>
      <trkpt lat="40.1228620" lon="-4.6903990">
        <ele>678.9</ele>
        <time>2022-03-01T16:28:40Z</time>
      </trkpt>
      <trkpt lat="40.1227740" lon="-4.6904180">
        <ele>678.7</ele>
        <time>2022-03-01T16:28:41Z</time>
      </trkpt>
      <trkpt lat="40.1226840" lon="-4.6904390">
        <ele>678.4</ele>
        <time>2022-03-01T16:28:42Z</time>
      </trkpt>
      <trkpt lat="40.1225920" lon="-4.6904670">
        <ele>678.1</ele>
        <time>2022-03-01T16:28:43Z</time>
      </trkpt>
      <trkpt lat="40.1224990" lon="-4.6904980">
        <ele>677.8</ele>
        <time>2022-03-01T16:28:44Z</time>
      </trkpt>
      <trkpt lat="40.1224050" lon="-4.6905340">
        <ele>677.3</ele>
        <time>2022-03-01T16:28:45Z</time>
      </trkpt>
      <trkpt lat="40.1223110" lon="-4.6905650">
        <ele>676.9</ele>
        <time>2022-03-01T16:28:46Z</time>
      </trkpt>
      <trkpt lat="40.1222140" lon="-4.6906030">
        <ele>676.4</ele>
        <time>2022-03-01T16:28:47Z</time>
      </trkpt>
      <trkpt lat="40.1221170" lon="-4.6906430">
        <ele>675.8</ele>
        <time>2022-03-01T16:28:48Z</time>
      </trkpt>
      <trkpt lat="40.1220110" lon="-4.6906850">
        <ele>675.2</ele>
        <time>2022-03-01T16:28:49Z</time>
      </trkpt>
      <trkpt lat="40.1219100" lon="-4.6907240">
        <ele>674.5</ele>
        <time>2022-03-01T16:28:50Z</time>
      </trkpt>
      <trkpt lat="40.1218080" lon="-4.6907620">
        <ele>673.9</ele>
        <time>2022-03-01T16:28:51Z</time>
      </trkpt>
      <trkpt lat="40.1216970" lon="-4.6908100">
        <ele>673.2</ele>
        <time>2022-03-01T16:28:52Z</time>
      </trkpt>
      <trkpt lat="40.1215930" lon="-4.6908570">
        <ele>672.5</ele>
        <time>2022-03-01T16:28:53Z</time>
      </trkpt>
      <trkpt lat="40.1214920" lon="-4.6909020">
        <ele>671.8</ele>
        <time>2022-03-01T16:28:54Z</time>
      </trkpt>
      <trkpt lat="40.1213770" lon="-4.6909440">
        <ele>670.9</ele>
        <time>2022-03-01T16:28:55Z</time>
      </trkpt>
      <trkpt lat="40.1212720" lon="-4.6909870">
        <ele>670.2</ele>
        <time>2022-03-01T16:28:56Z</time>
      </trkpt>
      <trkpt lat="40.1211550" lon="-4.6910350">
        <ele>669.3</ele>
        <time>2022-03-01T16:28:57Z</time>
      </trkpt>
      <trkpt lat="40.1210450" lon="-4.6910820">
        <ele>668.5</ele>
        <time>2022-03-01T16:28:58Z</time>
      </trkpt>
      <trkpt lat="40.1209300" lon="-4.6911300">
        <ele>667.7</ele>
        <time>2022-03-01T16:28:59Z</time>
      </trkpt>
      <trkpt lat="40.1208200" lon="-4.6911840">
        <ele>666.8</ele>
        <time>2022-03-01T16:29:00Z</time>
      </trkpt>
      <trkpt lat="40.1207040" lon="-4.6912230">
        <ele>666.0</ele>
        <time>2022-03-01T16:29:01Z</time>
      </trkpt>
      <trkpt lat="40.1205940" lon="-4.6912690">
        <ele>665.2</ele>
        <time>2022-03-01T16:29:02Z</time>
      </trkpt>
      <trkpt lat="40.1204770" lon="-4.6913000">
        <ele>664.4</ele>
        <time>2022-03-01T16:29:03Z</time>
      </trkpt>
      <trkpt lat="40.1203600" lon="-4.6913330">
        <ele>663.6</ele>
        <time>2022-03-01T16:29:04Z</time>
      </trkpt>
      <trkpt lat="40.1202420" lon="-4.6913590">
        <ele>662.8</ele>
        <time>2022-03-01T16:29:05Z</time>
      </trkpt>
      <trkpt lat="40.1201280" lon="-4.6913880">
        <ele>662.0</ele>
        <time>2022-03-01T16:29:06Z</time>
      </trkpt>
      <trkpt lat="40.1200080" lon="-4.6914130">
        <ele>661.1</ele>
        <time>2022-03-01T16:29:07Z</time>
      </trkpt>
      <trkpt lat="40.1198910" lon="-4.6914340">
        <ele>660.3</ele>
        <time>2022-03-01T16:29:08Z</time>
      </trkpt>
      <trkpt lat="40.1197720" lon="-4.6914490">
        <ele>659.5</ele>
        <time>2022-03-01T16:29:09Z</time>
      </trkpt>
      <trkpt lat="40.1196480" lon="-4.6914550">
        <ele>658.6</ele>
        <time>2022-03-01T16:29:10Z</time>
      </trkpt>
      <trkpt lat="40.1195340" lon="-4.6914630">
        <ele>657.9</ele>
        <time>2022-03-01T16:29:11Z</time>
      </trkpt>
      <trkpt lat="40.1194150" lon="-4.6914760">
        <ele>657.1</ele>
        <time>2022-03-01T16:29:12Z</time>
      </trkpt>
      <trkpt lat="40.1192910" lon="-4.6914790">
        <ele>656.3</ele>
        <time>2022-03-01T16:29:13Z</time>
      </trkpt>
      <trkpt lat="40.1191740" lon="-4.6914800">
        <ele>655.6</ele>
        <time>2022-03-01T16:29:14Z</time>
      </trkpt>
      <trkpt lat="40.1190540" lon="-4.6914730">
        <ele>654.8</ele>
        <time>2022-03-01T16:29:15Z</time>
      </trkpt>
      <trkpt lat="40.1189310" lon="-4.6914660">
        <ele>654.0</ele>
        <time>2022-03-01T16:29:16Z</time>
      </trkpt>
      <trkpt lat="40.1188160" lon="-4.6914520">
        <ele>653.2</ele>
        <time>2022-03-01T16:29:17Z</time>
      </trkpt>
      <trkpt lat="40.1186980" lon="-4.6914410">
        <ele>652.5</ele>
        <time>2022-03-01T16:29:18Z</time>
      </trkpt>
      <trkpt lat="40.1185750" lon="-4.6914230">
        <ele>651.6</ele>
        <time>2022-03-01T16:29:19Z</time>
      </trkpt>
      <trkpt lat="40.1184600" lon="-4.6914020">
        <ele>650.9</ele>
        <time>2022-03-01T16:29:20Z</time>
      </trkpt>
      <trkpt lat="40.1183440" lon="-4.6913810">
        <ele>650.1</ele>
        <time>2022-03-01T16:29:21Z</time>
      </trkpt>
      <trkpt lat="40.1182300" lon="-4.6913740">
        <ele>649.4</ele>
        <time>2022-03-01T16:29:22Z</time>
      </trkpt>
      <trkpt lat="40.1181140" lon="-4.6913400">
        <ele>648.6</ele>
        <time>2022-03-01T16:29:23Z</time>
      </trkpt>
      <trkpt lat="40.1179970" lon="-4.6913050">
        <ele>647.9</ele>
        <time>2022-03-01T16:29:24Z</time>
      </trkpt>
      <trkpt lat="40.1178770" lon="-4.6912660">
        <ele>647.0</ele>
        <time>2022-03-01T16:29:25Z</time>
      </trkpt>
      <trkpt lat="40.1177610" lon="-4.6912270">
        <ele>646.2</ele>
        <time>2022-03-01T16:29:26Z</time>
      </trkpt>
      <trkpt lat="40.1176420" lon="-4.6911870">
        <ele>645.4</ele>
        <time>2022-03-01T16:29:27Z</time>
      </trkpt>
      <trkpt lat="40.1175220" lon="-4.6911490">
        <ele>644.5</ele>
        <time>2022-03-01T16:29:28Z</time>
      </trkpt>
      <trkpt lat="40.1173960" lon="-4.6911030">
        <ele>643.6</ele>
        <time>2022-03-01T16:29:29Z</time>
      </trkpt>
      <trkpt lat="40.1172740" lon="-4.6910540">
        <ele>642.8</ele>
        <time>2022-03-01T16:29:30Z</time>
      </trkpt>
      <trkpt lat="40.1171550" lon="-4.6910110">
        <ele>642.0</ele>
        <time>2022-03-01T16:29:31Z</time>
      </trkpt>
      <trkpt lat="40.1170360" lon="-4.6909470">
        <ele>641.1</ele>
        <time>2022-03-01T16:29:32Z</time>
      </trkpt>
      <trkpt lat="40.1169180" lon="-4.6908750">
        <ele>640.2</ele>
        <time>2022-03-01T16:29:33Z</time>
      </trkpt>
      <trkpt lat="40.1168050" lon="-4.6907850">
        <ele>639.3</ele>
        <time>2022-03-01T16:29:34Z</time>
      </trkpt>
      <trkpt lat="40.1167010" lon="-4.6906910">
        <ele>638.5</ele>
        <time>2022-03-01T16:29:35Z</time>
      </trkpt>
      <trkpt lat="40.1165990" lon="-4.6905850">
        <ele>637.6</ele>
        <time>2022-03-01T16:29:36Z</time>
      </trkpt>
      <trkpt lat="40.1165010" lon="-4.6904640">
        <ele>636.8</ele>
        <time>2022-03-01T16:29:37Z</time>
      </trkpt>
      <trkpt lat="40.1164130" lon="-4.6903360">
        <ele>636.1</ele>
        <time>2022-03-01T16:29:38Z</time>
      </trkpt>
      <trkpt lat="40.1163270" lon="-4.6901940">
        <ele>635.3</ele>
        <time>2022-03-01T16:29:39Z</time>
      </trkpt>
      <trkpt lat="40.1162560" lon="-4.6900530">
        <ele>634.7</ele>
        <time>2022-03-01T16:29:40Z</time>
      </trkpt>
      <trkpt lat="40.1161940" lon="-4.6899060">
        <ele>634.2</ele>
        <time>2022-03-01T16:29:41Z</time>
      </trkpt>
      <trkpt lat="40.1161300" lon="-4.6897630">
        <ele>633.8</ele>
        <time>2022-03-01T16:29:42Z</time>
      </trkpt>
      <trkpt lat="40.1160840" lon="-4.6896070">
        <ele>633.5</ele>
        <time>2022-03-01T16:29:43Z</time>
      </trkpt>
      <trkpt lat="40.1160380" lon="-4.6894570">
        <ele>633.3</ele>
        <time>2022-03-01T16:29:44Z</time>
      </trkpt>
      <trkpt lat="40.1159990" lon="-4.6893080">
        <ele>633.1</ele>
        <time>2022-03-01T16:29:45Z</time>
      </trkpt>
      <trkpt lat="40.1159600" lon="-4.6891590">
        <ele>633.1</ele>
        <time>2022-03-01T16:29:46Z</time>
      </trkpt>
      <trkpt lat="40.1159190" lon="-4.6890180">
        <ele>633.1</ele>
        <time>2022-03-01T16:29:47Z</time>
      </trkpt>
      <trkpt lat="40.1158810" lon="-4.6888780">
        <ele>633.2</ele>
        <time>2022-03-01T16:29:48Z</time>
      </trkpt>
      <trkpt lat="40.1158440" lon="-4.6887420">
        <ele>633.3</ele>
        <time>2022-03-01T16:29:49Z</time>
      </trkpt>
      <trkpt lat="40.1158070" lon="-4.6886040">
        <ele>633.5</ele>
        <time>2022-03-01T16:29:50Z</time>
      </trkpt>
      <trkpt lat="40.1157710" lon="-4.6884720">
        <ele>633.7</ele>
        <time>2022-03-01T16:29:51Z</time>
      </trkpt>
      <trkpt lat="40.1157350" lon="-4.6883390">
        <ele>633.9</ele>
        <time>2022-03-01T16:29:52Z</time>
      </trkpt>
      <trkpt lat="40.1157000" lon="-4.6882100">
        <ele>634.1</ele>
        <time>2022-03-01T16:29:53Z</time>
      </trkpt>
      <trkpt lat="40.1156620" lon="-4.6880830">
        <ele>634.3</ele>
        <time>2022-03-01T16:29:54Z</time>
      </trkpt>
      <trkpt lat="40.1156270" lon="-4.6879540">
        <ele>634.6</ele>
        <time>2022-03-01T16:29:55Z</time>
      </trkpt>
      <trkpt lat="40.1155920" lon="-4.6878240">
        <ele>634.8</ele>
        <time>2022-03-01T16:29:56Z</time>
      </trkpt>
      <trkpt lat="40.1155550" lon="-4.6877050">
        <ele>634.9</ele>
        <time>2022-03-01T16:29:57Z</time>
      </trkpt>
      <trkpt lat="40.1155150" lon="-4.6875820">
        <ele>635.0</ele>
        <time>2022-03-01T16:29:58Z</time>
      </trkpt>
      <trkpt lat="40.1154670" lon="-4.6874690">
        <ele>635.0</ele>
        <time>2022-03-01T16:29:59Z</time>
      </trkpt>
      <trkpt lat="40.1154200" lon="-4.6873480">
        <ele>635.0</ele>
        <time>2022-03-01T16:30:00Z</time>
      </trkpt>
      <trkpt lat="40.1153700" lon="-4.6872280">
        <ele>634.8</ele>
        <time>2022-03-01T16:30:01Z</time>
      </trkpt>
      <trkpt lat="40.1153110" lon="-4.6871130">
        <ele>634.5</ele>
        <time>2022-03-01T16:30:02Z</time>
      </trkpt>
      <trkpt lat="40.1152440" lon="-4.6870130">
        <ele>634.2</ele>
        <time>2022-03-01T16:30:03Z</time>
      </trkpt>
      <trkpt lat="40.1151680" lon="-4.6869210">
        <ele>633.8</ele>
        <time>2022-03-01T16:30:04Z</time>
      </trkpt>
      <trkpt lat="40.1150910" lon="-4.6868230">
        <ele>633.4</ele>
        <time>2022-03-01T16:30:05Z</time>
      </trkpt>
      <trkpt lat="40.1150060" lon="-4.6867300">
        <ele>632.8</ele>
        <time>2022-03-01T16:30:06Z</time>
      </trkpt>
      <trkpt lat="40.1149200" lon="-4.6866340">
        <ele>632.2</ele>
        <time>2022-03-01T16:30:07Z</time>
      </trkpt>
      <trkpt lat="40.1148290" lon="-4.6865410">
        <ele>631.6</ele>
        <time>2022-03-01T16:30:08Z</time>
      </trkpt>
      <trkpt lat="40.1147340" lon="-4.6864430">
        <ele>630.8</ele>
        <time>2022-03-01T16:30:09Z</time>
      </trkpt>
      <trkpt lat="40.1146490" lon="-4.6863350">
        <ele>630.1</ele>
        <time>2022-03-01T16:30:10Z</time>
      </trkpt>
      <trkpt lat="40.1145660" lon="-4.6862130">
        <ele>629.3</ele>
        <time>2022-03-01T16:30:11Z</time>
      </trkpt>
      <trkpt lat="40.1144910" lon="-4.6860850">
        <ele>628.4</ele>
        <time>2022-03-01T16:30:12Z</time>
      </trkpt>
      <trkpt lat="40.1144250" lon="-4.6859520">
        <ele>627.4</ele>
        <time>2022-03-01T16:30:13Z</time>
      </trkpt>
      <trkpt lat="40.1143670" lon="-4.6858070">
        <ele>626.3</ele>
        <time>2022-03-01T16:30:14Z</time>
      </trkpt>
      <trkpt lat="40.1143200" lon="-4.6856550">
        <ele>625.2</ele>
        <time>2022-03-01T16:30:15Z</time>
      </trkpt>
      <trkpt lat="40.1142850" lon="-4.6854970">
        <ele>624.0</ele>
        <time>2022-03-01T16:30:16Z</time>
      </trkpt>
      <trkpt lat="40.1142600" lon="-4.6853280">
        <ele>622.7</ele>
        <time>2022-03-01T16:30:17Z</time>
      </trkpt>
      <trkpt lat="40.1142490" lon="-4.6851530">
        <ele>621.6</ele>
        <time>2022-03-01T16:30:18Z</time>
      </trkpt>
      <trkpt lat="40.1142520" lon="-4.6849730">
        <ele>620.4</ele>
        <time>2022-03-01T16:30:19Z</time>
      </trkpt>
      <trkpt lat="40.1142540" lon="-4.6847940">
        <ele>619.2</ele>
        <time>2022-03-01T16:30:20Z</time>
      </trkpt>
      <trkpt lat="40.1142540" lon="-4.6846100">
        <ele>617.9</ele>
        <time>2022-03-01T16:30:21Z</time>
      </trkpt>
      <trkpt lat="40.1142500" lon="-4.6844200">
        <ele>616.5</ele>
        <time>2022-03-01T16:30:22Z</time>
      </trkpt>
      <trkpt lat="40.1142270" lon="-4.6842330">
        <ele>615.2</ele>
        <time>2022-03-01T16:30:23Z</time>
      </trkpt>
      <trkpt lat="40.1141880" lon="-4.6840480">
        <ele>613.9</ele>
        <time>2022-03-01T16:30:24Z</time>
      </trkpt>
      <trkpt lat="40.1141300" lon="-4.6838690">
        <ele>612.4</ele>
        <time>2022-03-01T16:30:25Z</time>
      </trkpt>
      <trkpt lat="40.1140530" lon="-4.6836970">
        <ele>610.9</ele>
        <time>2022-03-01T16:30:26Z</time>
      </trkpt>
      <trkpt lat="40.1139610" lon="-4.6835380">
        <ele>609.4</ele>
        <time>2022-03-01T16:30:27Z</time>
      </trkpt>
      <trkpt lat="40.1138510" lon="-4.6833950">
        <ele>607.8</ele>
        <time>2022-03-01T16:30:28Z</time>
      </trkpt>
      <trkpt lat="40.1137280" lon="-4.6832700">
        <ele>606.2</ele>
        <time>2022-03-01T16:30:29Z</time>
      </trkpt>
      <trkpt lat="40.1135920" lon="-4.6831670">
        <ele>604.7</ele>
        <time>2022-03-01T16:30:30Z</time>
      </trkpt>
      <trkpt lat="40.1134530" lon="-4.6830700">
        <ele>603.2</ele>
        <time>2022-03-01T16:30:31Z</time>
      </trkpt>
      <trkpt lat="40.1133130" lon="-4.6829820">
        <ele>601.8</ele>
        <time>2022-03-01T16:30:32Z</time>
      </trkpt>
      <trkpt lat="40.1131700" lon="-4.6828870">
        <ele>600.3</ele>
        <time>2022-03-01T16:30:33Z</time>
      </trkpt>
      <trkpt lat="40.1130280" lon="-4.6827930">
        <ele>598.8</ele>
        <time>2022-03-01T16:30:34Z</time>
      </trkpt>
      <trkpt lat="40.1128830" lon="-4.6826950">
        <ele>597.2</ele>
        <time>2022-03-01T16:30:35Z</time>
      </trkpt>
      <trkpt lat="40.1127380" lon="-4.6825990">
        <ele>595.7</ele>
        <time>2022-03-01T16:30:36Z</time>
      </trkpt>
      <trkpt lat="40.1125940" lon="-4.6825020">
        <ele>594.2</ele>
        <time>2022-03-01T16:30:37Z</time>
      </trkpt>
      <trkpt lat="40.1124450" lon="-4.6824170">
        <ele>592.9</ele>
        <time>2022-03-01T16:30:38Z</time>
      </trkpt>
      <trkpt lat="40.1122910" lon="-4.6823460">
        <ele>591.6</ele>
        <time>2022-03-01T16:30:39Z</time>
      </trkpt>
      <trkpt lat="40.1121340" lon="-4.6822900">
        <ele>590.5</ele>
        <time>2022-03-01T16:30:40Z</time>
      </trkpt>
      <trkpt lat="40.1119770" lon="-4.6822520">
        <ele>589.4</ele>
        <time>2022-03-01T16:30:41Z</time>
      </trkpt>
      <trkpt lat="40.1118190" lon="-4.6822410">
        <ele>588.5</ele>
        <time>2022-03-01T16:30:42Z</time>
      </trkpt>
      <trkpt lat="40.1116630" lon="-4.6822440">
        <ele>587.6</ele>
        <time>2022-03-01T16:30:43Z</time>
      </trkpt>
      <trkpt lat="40.1115140" lon="-4.6822670">
        <ele>586.9</ele>
        <time>2022-03-01T16:30:44Z</time>
      </trkpt>
      <trkpt lat="40.1113700" lon="-4.6823030">
        <ele>586.2</ele>
        <time>2022-03-01T16:30:45Z</time>
      </trkpt>
      <trkpt lat="40.1112320" lon="-4.6823520">
        <ele>585.4</ele>
        <time>2022-03-01T16:30:46Z</time>
      </trkpt>
      <trkpt lat="40.1110960" lon="-4.6824140">
        <ele>584.5</ele>
        <time>2022-03-01T16:30:47Z</time>
      </trkpt>
      <trkpt lat="40.1109600" lon="-4.6824820">
        <ele>583.6</ele>
        <time>2022-03-01T16:30:48Z</time>
      </trkpt>
      <trkpt lat="40.1108220" lon="-4.6825520">
        <ele>582.6</ele>
        <time>2022-03-01T16:30:49Z</time>
      </trkpt>
      <trkpt lat="40.1106840" lon="-4.6826200">
        <ele>581.6</ele>
        <time>2022-03-01T16:30:50Z</time>
      </trkpt>
      <trkpt lat="40.1105410" lon="-4.6826770">
        <ele>580.6</ele>
        <time>2022-03-01T16:30:51Z</time>
      </trkpt>
      <trkpt lat="40.1103960" lon="-4.6827120">
        <ele>579.6</ele>
        <time>2022-03-01T16:30:52Z</time>
      </trkpt>
      <trkpt lat="40.1102510" lon="-4.6827020">
        <ele>578.6</ele>
        <time>2022-03-01T16:30:53Z</time>
      </trkpt>
      <trkpt lat="40.1101080" lon="-4.6826660">
        <ele>577.6</ele>
        <time>2022-03-01T16:30:54Z</time>
      </trkpt>
      <trkpt lat="40.1099730" lon="-4.6825960">
        <ele>576.6</ele>
        <time>2022-03-01T16:30:55Z</time>
      </trkpt>
      <trkpt lat="40.1098500" lon="-4.6824990">
        <ele>575.7</ele>
        <time>2022-03-01T16:30:56Z</time>
      </trkpt>
      <trkpt lat="40.1097300" lon="-4.6823870">
        <ele>574.6</ele>
        <time>2022-03-01T16:30:57Z</time>
      </trkpt>
      <trkpt lat="40.1096110" lon="-4.6822700">
        <ele>573.4</ele>
        <time>2022-03-01T16:30:58Z</time>
      </trkpt>
      <trkpt lat="40.1094940" lon="-4.6821440">
        <ele>572.2</ele>
        <time>2022-03-01T16:30:59Z</time>
      </trkpt>
      <trkpt lat="40.1093790" lon="-4.6820170">
        <ele>571.1</ele>
        <time>2022-03-01T16:31:00Z</time>
      </trkpt>
      <trkpt lat="40.1092660" lon="-4.6818820">
        <ele>569.9</ele>
        <time>2022-03-01T16:31:01Z</time>
      </trkpt>
      <trkpt lat="40.1091560" lon="-4.6817410">
        <ele>568.8</ele>
        <time>2022-03-01T16:31:02Z</time>
      </trkpt>
      <trkpt lat="40.1090490" lon="-4.6815930">
        <ele>567.7</ele>
        <time>2022-03-01T16:31:03Z</time>
      </trkpt>
      <trkpt lat="40.1089510" lon="-4.6814420">
        <ele>566.8</ele>
        <time>2022-03-01T16:31:04Z</time>
      </trkpt>
      <trkpt lat="40.1088450" lon="-4.6812930">
        <ele>566.1</ele>
        <time>2022-03-01T16:31:05Z</time>
      </trkpt>
      <trkpt lat="40.1087360" lon="-4.6811520">
        <ele>565.5</ele>
        <time>2022-03-01T16:31:06Z</time>
      </trkpt>
      <trkpt lat="40.1086220" lon="-4.6810220">
        <ele>565.0</ele>
        <time>2022-03-01T16:31:07Z</time>
      </trkpt>
      <trkpt lat="40.1085000" lon="-4.6809270">
        <ele>564.6</ele>
        <time>2022-03-01T16:31:08Z</time>
      </trkpt>
      <trkpt lat="40.1083590" lon="-4.6808730">
        <ele>564.3</ele>
        <time>2022-03-01T16:31:09Z</time>
      </trkpt>
      <trkpt lat="40.1082050" lon="-4.6808460">
        <ele>563.9</ele>
        <time>2022-03-01T16:31:10Z</time>
      </trkpt>
      <trkpt lat="40.1080710" lon="-4.6808610">
        <ele>563.6</ele>
        <time>2022-03-01T16:31:11Z</time>
      </trkpt>
      <trkpt lat="40.1079380" lon="-4.6808610">
        <ele>563.3</ele>
        <time>2022-03-01T16:31:12Z</time>
      </trkpt>
      <trkpt lat="40.1077980" lon="-4.6808580">
        <ele>562.8</ele>
        <time>2022-03-01T16:31:13Z</time>
      </trkpt>
      <trkpt lat="40.1076740" lon="-4.6808790">
        <ele>562.3</ele>
        <time>2022-03-01T16:31:14Z</time>
      </trkpt>
      <trkpt lat="40.1075490" lon="-4.6809140">
        <ele>561.7</ele>
        <time>2022-03-01T16:31:15Z</time>
      </trkpt>
      <trkpt lat="40.1074230" lon="-4.6809650">
        <ele>561.1</ele>
        <time>2022-03-01T16:31:16Z</time>
      </trkpt>
      <trkpt lat="40.1073020" lon="-4.6810140">
        <ele>560.5</ele>
        <time>2022-03-01T16:31:17Z</time>
      </trkpt>
      <trkpt lat="40.1071790" lon="-4.6810630">
        <ele>559.8</ele>
        <time>2022-03-01T16:31:18Z</time>
      </trkpt>
      <trkpt lat="40.1070650" lon="-4.6811410">
        <ele>559.2</ele>
        <time>2022-03-01T16:31:19Z</time>
      </trkpt>
      <trkpt lat="40.1069740" lon="-4.6812590">
        <ele>558.4</ele>
        <time>2022-03-01T16:31:20Z</time>
      </trkpt>
      <trkpt lat="40.1069110" lon="-4.6813980">
        <ele>557.7</ele>
        <time>2022-03-01T16:31:21Z</time>
      </trkpt>
      <trkpt lat="40.1068360" lon="-4.6815430">
        <ele>556.9</ele>
        <time>2022-03-01T16:31:22Z</time>
      </trkpt>
      <trkpt lat="40.1067830" lon="-4.6816960">
        <ele>556.0</ele>
        <time>2022-03-01T16:31:23Z</time>
      </trkpt>
      <trkpt lat="40.1067150" lon="-4.6818410">
        <ele>555.2</ele>
        <time>2022-03-01T16:31:24Z</time>
      </trkpt>
      <trkpt lat="40.1066210" lon="-4.6819370">
        <ele>554.5</ele>
        <time>2022-03-01T16:31:25Z</time>
      </trkpt>
      <trkpt lat="40.1065070" lon="-4.6820290">
        <ele>553.5</ele>
        <time>2022-03-01T16:31:26Z</time>
      </trkpt>
      <trkpt lat="40.1063960" lon="-4.6821030">
        <ele>552.7</ele>
        <time>2022-03-01T16:31:27Z</time>
      </trkpt>
      <trkpt lat="40.1062860" lon="-4.6821770">
        <ele>551.9</ele>
        <time>2022-03-01T16:31:28Z</time>
      </trkpt>
      <trkpt lat="40.1061770" lon="-4.6822540">
        <ele>551.1</ele>
        <time>2022-03-01T16:31:29Z</time>
      </trkpt>
      <trkpt lat="40.1060550" lon="-4.6823060">
        <ele>550.2</ele>
        <time>2022-03-01T16:31:30Z</time>
      </trkpt>
      <trkpt lat="40.1059390" lon="-4.6823790">
        <ele>549.4</ele>
        <time>2022-03-01T16:31:31Z</time>
      </trkpt>
      <trkpt lat="40.1058210" lon="-4.6824510">
        <ele>548.5</ele>
        <time>2022-03-01T16:31:32Z</time>
      </trkpt>
      <trkpt lat="40.1056980" lon="-4.6825310">
        <ele>547.6</ele>
        <time>2022-03-01T16:31:33Z</time>
      </trkpt>
      <trkpt lat="40.1055820" lon="-4.6826010">
        <ele>546.7</ele>
        <time>2022-03-01T16:31:34Z</time>
      </trkpt>
      <trkpt lat="40.1054580" lon="-4.6826690">
        <ele>545.9</ele>
        <time>2022-03-01T16:31:35Z</time>
      </trkpt>
      <trkpt lat="40.1053380" lon="-4.6827310">
        <ele>545.0</ele>
        <time>2022-03-01T16:31:36Z</time>
      </trkpt>
      <trkpt lat="40.1052100" lon="-4.6827860">
        <ele>544.2</ele>
        <time>2022-03-01T16:31:37Z</time>
      </trkpt>
      <trkpt lat="40.1050830" lon="-4.6828320">
        <ele>543.4</ele>
        <time>2022-03-01T16:31:38Z</time>
      </trkpt>
      <trkpt lat="40.1049680" lon="-4.6828870">
        <ele>542.7</ele>
        <time>2022-03-01T16:31:39Z</time>
      </trkpt>
      <trkpt lat="40.1048560" lon="-4.6829460">
        <ele>542.0</ele>
        <time>2022-03-01T16:31:40Z</time>
      </trkpt>
      <trkpt lat="40.1047270" lon="-4.6829940">
        <ele>541.1</ele>
        <time>2022-03-01T16:31:41Z</time>
      </trkpt>
      <trkpt lat="40.1046030" lon="-4.6830520">
        <ele>540.3</ele>
        <time>2022-03-01T16:31:42Z</time>
      </trkpt>
      <trkpt lat="40.1044720" lon="-4.6831030">
        <ele>539.6</ele>
        <time>2022-03-01T16:31:43Z</time>
      </trkpt>
      <trkpt lat="40.1043490" lon="-4.6831610">
        <ele>539.1</ele>
        <time>2022-03-01T16:31:44Z</time>
      </trkpt>
      <trkpt lat="40.1042300" lon="-4.6832210">
        <ele>538.6</ele>
        <time>2022-03-01T16:31:45Z</time>
      </trkpt>
      <trkpt lat="40.1041030" lon="-4.6832720">
        <ele>538.1</ele>
        <time>2022-03-01T16:31:46Z</time>
      </trkpt>
      <trkpt lat="40.1039900" lon="-4.6833270">
        <ele>537.8</ele>
        <time>2022-03-01T16:31:47Z</time>
      </trkpt>
      <trkpt lat="40.1038680" lon="-4.6833640">
        <ele>537.5</ele>
        <time>2022-03-01T16:31:48Z</time>
      </trkpt>
      <trkpt lat="40.1037430" lon="-4.6833930">
        <ele>537.4</ele>
        <time>2022-03-01T16:31:49Z</time>
      </trkpt>
      <trkpt lat="40.1036260" lon="-4.6834240">
        <ele>537.2</ele>
        <time>2022-03-01T16:31:50Z</time>
      </trkpt>
      <trkpt lat="40.1035150" lon="-4.6834560">
        <ele>537.1</ele>
        <time>2022-03-01T16:31:51Z</time>
      </trkpt>
      <trkpt lat="40.1034150" lon="-4.6834990">
        <ele>537.1</ele>
        <time>2022-03-01T16:31:52Z</time>
      </trkpt>
      <trkpt lat="40.1033270" lon="-4.6835460">
        <ele>537.0</ele>
        <time>2022-03-01T16:31:53Z</time>
      </trkpt>
      <trkpt lat="40.1032290" lon="-4.6835780">
        <ele>537.0</ele>
        <time>2022-03-01T16:31:54Z</time>
      </trkpt>
      <trkpt lat="40.1031430" lon="-4.6836090">
        <ele>537.1</ele>
        <time>2022-03-01T16:31:55Z</time>
      </trkpt>
      <trkpt lat="40.1030520" lon="-4.6836400">
        <ele>537.2</ele>
        <time>2022-03-01T16:31:56Z</time>
      </trkpt>
      <trkpt lat="40.1029650" lon="-4.6836700">
        <ele>537.3</ele>
        <time>2022-03-01T16:31:57Z</time>
      </trkpt>
      <trkpt lat="40.1028850" lon="-4.6836990">
        <ele>537.5</ele>
        <time>2022-03-01T16:31:58Z</time>
      </trkpt>
      <trkpt lat="40.1028000" lon="-4.6837310">
        <ele>537.7</ele>
        <time>2022-03-01T16:31:59Z</time>
      </trkpt>
      <trkpt lat="40.1027310" lon="-4.6837800">
        <ele>537.9</ele>
        <time>2022-03-01T16:32:00Z</time>
      </trkpt>
      <trkpt lat="40.1027010" lon="-4.6838420">
        <ele>538.0</ele>
        <time>2022-03-01T16:32:01Z</time>
      </trkpt>
      <trkpt lat="40.1026480" lon="-4.6838760">
        <ele>538.2</ele>
        <time>2022-03-01T16:32:02Z</time>
      </trkpt>
      <trkpt lat="40.1025600" lon="-4.6838970">
        <ele>538.5</ele>
        <time>2022-03-01T16:32:03Z</time>
      </trkpt>
      <trkpt lat="40.1025070" lon="-4.6839320">
        <ele>538.8</ele>
        <time>2022-03-01T16:32:04Z</time>
      </trkpt>
      <trkpt lat="40.1024550" lon="-4.6839790">
        <ele>539.1</ele>
        <time>2022-03-01T16:32:05Z</time>
      </trkpt>
      <trkpt lat="40.1023980" lon="-4.6840310">
        <ele>539.4</ele>
        <time>2022-03-01T16:32:06Z</time>
      </trkpt>
      <trkpt lat="40.1023370" lon="-4.6840760">
        <ele>539.9</ele>
        <time>2022-03-01T16:32:07Z</time>
      </trkpt>
      <trkpt lat="40.1022660" lon="-4.6840890">
        <ele>540.3</ele>
        <time>2022-03-01T16:32:08Z</time>
      </trkpt>
      <trkpt lat="40.1022010" lon="-4.6841040">
        <ele>540.8</ele>
        <time>2022-03-01T16:32:09Z</time>
      </trkpt>
      <trkpt lat="40.1021410" lon="-4.6841240">
        <ele>541.1</ele>
        <time>2022-03-01T16:32:10Z</time>
      </trkpt>
      <trkpt lat="40.1020770" lon="-4.6841320">
        <ele>541.5</ele>
        <time>2022-03-01T16:32:11Z</time>
      </trkpt>
      <trkpt lat="40.1020100" lon="-4.6841570">
        <ele>542.0</ele>
        <time>2022-03-01T16:32:12Z</time>
      </trkpt>
      <trkpt lat="40.1019530" lon="-4.6841800">
        <ele>542.3</ele>
        <time>2022-03-01T16:32:13Z</time>
      </trkpt>
      <trkpt lat="40.1018970" lon="-4.6841900">
        <ele>542.6</ele>
        <time>2022-03-01T16:32:14Z</time>
      </trkpt>
      <trkpt lat="40.1018480" lon="-4.6842170">
        <ele>543.0</ele>
        <time>2022-03-01T16:32:15Z</time>
      </trkpt>
      <trkpt lat="40.1018230" lon="-4.6842850">
        <ele>543.3</ele>
        <time>2022-03-01T16:32:16Z</time>
      </trkpt>
      <trkpt lat="40.1018050" lon="-4.6843290">
        <ele>543.5</ele>
        <time>2022-03-01T16:32:17Z</time>
      </trkpt>
      <trkpt lat="40.1017760" lon="-4.6843820">
        <ele>543.8</ele>
        <time>2022-03-01T16:32:18Z</time>
      </trkpt>
      <trkpt lat="40.1016900" lon="-4.6843200">
        <ele>544.2</ele>
        <time>2022-03-01T16:32:19Z</time>
      </trkpt>
      <trkpt lat="40.1016670" lon="-4.6843570">
        <ele>544.3</ele>
        <time>2022-03-01T16:32:20Z</time>
      </trkpt>
      <trkpt lat="40.1016630" lon="-4.6844120">
        <ele>544.5</ele>
        <time>2022-03-01T16:32:21Z</time>
      </trkpt>
      <trkpt lat="40.1016780" lon="-4.6845170">
        <ele>544.7</ele>
        <time>2022-03-01T16:32:22Z</time>
      </trkpt>
      <trkpt lat="40.1016410" lon="-4.6846150">
        <ele>544.9</ele>
        <time>2022-03-01T16:32:23Z</time>
      </trkpt>
      <trkpt lat="40.1016050" lon="-4.6846710">
        <ele>544.9</ele>
        <time>2022-03-01T16:32:24Z</time>
      </trkpt>
      <trkpt lat="40.1015550" lon="-4.6847420">
        <ele>545.0</ele>
        <time>2022-03-01T16:32:25Z</time>
      </trkpt>
      <trkpt lat="40.1015080" lon="-4.6847980">
        <ele>545.0</ele>
        <time>2022-03-01T16:32:26Z</time>
      </trkpt>
      <trkpt lat="40.1014580" lon="-4.6848390">
        <ele>544.9</ele>
        <time>2022-03-01T16:32:27Z</time>
      </trkpt>
      <trkpt lat="40.1014190" lon="-4.6849070">
        <ele>544.8</ele>
        <time>2022-03-01T16:32:28Z</time>
      </trkpt>
      <trkpt lat="40.1013900" lon="-4.6849750">
        <ele>544.7</ele>
        <time>2022-03-01T16:32:29Z</time>
      </trkpt>
      <trkpt lat="40.1013390" lon="-4.6850300">
        <ele>544.6</ele>
        <time>2022-03-01T16:32:30Z</time>
      </trkpt>
      <trkpt lat="40.1012910" lon="-4.6851100">
        <ele>544.3</ele>
        <time>2022-03-01T16:32:31Z</time>
      </trkpt>
      <trkpt lat="40.1012490" lon="-4.6851920">
        <ele>544.0</ele>
        <time>2022-03-01T16:32:32Z</time>
      </trkpt>
      <trkpt lat="40.1011550" lon="-4.6852070">
        <ele>543.8</ele>
        <time>2022-03-01T16:32:33Z</time>
      </trkpt>
      <trkpt lat="40.1010660" lon="-4.6852330">
        <ele>543.3</ele>
        <time>2022-03-01T16:32:34Z</time>
      </trkpt>
      <trkpt lat="40.1009750" lon="-4.6852690">
        <ele>542.8</ele>
        <time>2022-03-01T16:32:35Z</time>
      </trkpt>
      <trkpt lat="40.1008840" lon="-4.6852770">
        <ele>542.4</ele>
        <time>2022-03-01T16:32:36Z</time>
      </trkpt>
      <trkpt lat="40.1008100" lon="-4.6852910">
        <ele>542.0</ele>
        <time>2022-03-01T16:32:37Z</time>
      </trkpt>
      <trkpt lat="40.1007220" lon="-4.6852950">
        <ele>541.6</ele>
        <time>2022-03-01T16:32:38Z</time>
      </trkpt>
      <trkpt lat="40.1006400" lon="-4.6853080">
        <ele>540.9</ele>
        <time>2022-03-01T16:32:39Z</time>
      </trkpt>
      <trkpt lat="40.1005460" lon="-4.6853350">
        <ele>540.3</ele>
        <time>2022-03-01T16:32:40Z</time>
      </trkpt>
      <trkpt lat="40.1004580" lon="-4.6853630">
        <ele>539.8</ele>
        <time>2022-03-01T16:32:41Z</time>
      </trkpt>
      <trkpt lat="40.1003760" lon="-4.6853700">
        <ele>539.3</ele>
        <time>2022-03-01T16:32:42Z</time>
      </trkpt>
      <trkpt lat="40.1003220" lon="-4.6853860">
        <ele>539.0</ele>
        <time>2022-03-01T16:32:43Z</time>
      </trkpt>
      <trkpt lat="40.1002680" lon="-4.6853730">
        <ele>538.7</ele>
        <time>2022-03-01T16:32:44Z</time>
      </trkpt>
      <trkpt lat="40.1002080" lon="-4.6853630">
        <ele>538.3</ele>
        <time>2022-03-01T16:32:45Z</time>
      </trkpt>
      <trkpt lat="40.1001410" lon="-4.6853540">
        <ele>537.5</ele>
        <time>2022-03-01T16:32:46Z</time>
      </trkpt>
      <trkpt lat="40.1000630" lon="-4.6852740">
        <ele>536.4</ele>
        <time>2022-03-01T16:32:47Z</time>
      </trkpt>
      <trkpt lat="40.1000150" lon="-4.6851820">
        <ele>535.6</ele>
        <time>2022-03-01T16:32:48Z</time>
      </trkpt>
      <trkpt lat="40.0999610" lon="-4.6850700">
        <ele>534.7</ele>
        <time>2022-03-01T16:32:49Z</time>
      </trkpt>
      <trkpt lat="40.0998840" lon="-4.6849790">
        <ele>533.9</ele>
        <time>2022-03-01T16:32:50Z</time>
      </trkpt>
      <trkpt lat="40.0998180" lon="-4.6848660">
        <ele>533.5</ele>
        <time>2022-03-01T16:32:51Z</time>
      </trkpt>
      <trkpt lat="40.0997850" lon="-4.6847250">
        <ele>533.2</ele>
        <time>2022-03-01T16:32:52Z</time>
      </trkpt>
      <trkpt lat="40.0997520" lon="-4.6845830">
        <ele>532.9</ele>
        <time>2022-03-01T16:32:53Z</time>
      </trkpt>
      <trkpt lat="40.0997100" lon="-4.6844380">
        <ele>532.6</ele>
        <time>2022-03-01T16:32:54Z</time>
      </trkpt>
      <trkpt lat="40.0996790" lon="-4.6843060">
        <ele>532.5</ele>
        <time>2022-03-01T16:32:55Z</time>
      </trkpt>
      <trkpt lat="40.0996440" lon="-4.6841780">
        <ele>532.4</ele>
        <time>2022-03-01T16:32:56Z</time>
      </trkpt>
      <trkpt lat="40.0996110" lon="-4.6840450">
        <ele>532.3</ele>
        <time>2022-03-01T16:32:57Z</time>
      </trkpt>
      <trkpt lat="40.0995690" lon="-4.6839380">
        <ele>532.4</ele>
        <time>2022-03-01T16:32:58Z</time>
      </trkpt>
      <trkpt lat="40.0995180" lon="-4.6838680">
        <ele>532.5</ele>
        <time>2022-03-01T16:32:59Z</time>
      </trkpt>
      <trkpt lat="40.0994620" lon="-4.6837550">
        <ele>532.7</ele>
        <time>2022-03-01T16:33:00Z</time>
      </trkpt>
      <trkpt lat="40.0994190" lon="-4.6836400">
        <ele>532.9</ele>
        <time>2022-03-01T16:33:01Z</time>
      </trkpt>
      <trkpt lat="40.0993730" lon="-4.6835420">
        <ele>533.1</ele>
        <time>2022-03-01T16:33:02Z</time>
      </trkpt>
      <trkpt lat="40.0993260" lon="-4.6834550">
        <ele>533.2</ele>
        <time>2022-03-01T16:33:03Z</time>
      </trkpt>
      <trkpt lat="40.0992810" lon="-4.6833630">
        <ele>533.3</ele>
        <time>2022-03-01T16:33:04Z</time>
      </trkpt>
      <trkpt lat="40.0992360" lon="-4.6832760">
        <ele>533.5</ele>
        <time>2022-03-01T16:33:05Z</time>
      </trkpt>
      <trkpt lat="40.0991900" lon="-4.6831910">
        <ele>533.6</ele>
        <time>2022-03-01T16:33:06Z</time>
      </trkpt>
      <trkpt lat="40.0991460" lon="-4.6831000">
        <ele>533.8</ele>
        <time>2022-03-01T16:33:07Z</time>
      </trkpt>
      <trkpt lat="40.0991010" lon="-4.6830160">
        <ele>534.0</ele>
        <time>2022-03-01T16:33:08Z</time>
      </trkpt>
      <trkpt lat="40.0990540" lon="-4.6829410">
        <ele>534.1</ele>
        <time>2022-03-01T16:33:09Z</time>
      </trkpt>
      <trkpt lat="40.0990030" lon="-4.6828870">
        <ele>534.3</ele>
        <time>2022-03-01T16:33:10Z</time>
      </trkpt>
      <trkpt lat="40.0989450" lon="-4.6828360">
        <ele>534.4</ele>
        <time>2022-03-01T16:33:11Z</time>
      </trkpt>
      <trkpt lat="40.0988870" lon="-4.6827910">
        <ele>534.5</ele>
        <time>2022-03-01T16:33:12Z</time>
      </trkpt>
      <trkpt lat="40.0988310" lon="-4.6827400">
        <ele>534.7</ele>
        <time>2022-03-01T16:33:13Z</time>
      </trkpt>
      <trkpt lat="40.0987680" lon="-4.6827020">
        <ele>534.8</ele>
        <time>2022-03-01T16:33:14Z</time>
      </trkpt>
      <trkpt lat="40.0987090" lon="-4.6826320">
        <ele>534.9</ele>
        <time>2022-03-01T16:33:15Z</time>
      </trkpt>
      <trkpt lat="40.0986600" lon="-4.6826020">
        <ele>535.0</ele>
        <time>2022-03-01T16:33:16Z</time>
      </trkpt>
      <trkpt lat="40.0986070" lon="-4.6825510">
        <ele>535.0</ele>
        <time>2022-03-01T16:33:17Z</time>
      </trkpt>
      <trkpt lat="40.0985510" lon="-4.6824970">
        <ele>535.1</ele>
        <time>2022-03-01T16:33:18Z</time>
      </trkpt>
      <trkpt lat="40.0984930" lon="-4.6824460">
        <ele>535.1</ele>
        <time>2022-03-01T16:33:19Z</time>
      </trkpt>
      <trkpt lat="40.0984320" lon="-4.6824080">
        <ele>535.1</ele>
        <time>2022-03-01T16:33:20Z</time>
      </trkpt>
      <trkpt lat="40.0983690" lon="-4.6823800">
        <ele>535.2</ele>
        <time>2022-03-01T16:33:21Z</time>
      </trkpt>
      <trkpt lat="40.0983050" lon="-4.6823630">
        <ele>535.2</ele>
        <time>2022-03-01T16:33:22Z</time>
      </trkpt>
      <trkpt lat="40.0982400" lon="-4.6823560">
        <ele>535.2</ele>
        <time>2022-03-01T16:33:23Z</time>
      </trkpt>
      <trkpt lat="40.0981780" lon="-4.6823510">
        <ele>535.2</ele>
        <time>2022-03-01T16:33:24Z</time>
      </trkpt>
      <trkpt lat="40.0981130" lon="-4.6823540">
        <ele>535.2</ele>
        <time>2022-03-01T16:33:25Z</time>
      </trkpt>
      <trkpt lat="40.0980480" lon="-4.6823580">
        <ele>535.2</ele>
        <time>2022-03-01T16:33:26Z</time>
      </trkpt>
      <trkpt lat="40.0979830" lon="-4.6823600">
        <ele>535.1</ele>
        <time>2022-03-01T16:33:27Z</time>
      </trkpt>
      <trkpt lat="40.0979240" lon="-4.6823700">
        <ele>535.1</ele>
        <time>2022-03-01T16:33:28Z</time>
      </trkpt>
      <trkpt lat="40.0978730" lon="-4.6823730">
        <ele>535.1</ele>
        <time>2022-03-01T16:33:29Z</time>
      </trkpt>
      <trkpt lat="40.0978160" lon="-4.6823760">
        <ele>535.1</ele>
        <time>2022-03-01T16:33:30Z</time>
      </trkpt>
      <trkpt lat="40.0977620" lon="-4.6823940">
        <ele>535.1</ele>
        <time>2022-03-01T16:33:31Z</time>
      </trkpt>
      <trkpt lat="40.0977000" lon="-4.6824010">
        <ele>535.1</ele>
        <time>2022-03-01T16:33:32Z</time>
      </trkpt>
      <trkpt lat="40.0976350" lon="-4.6824080">
        <ele>535.2</ele>
        <time>2022-03-01T16:33:33Z</time>
      </trkpt>
      <trkpt lat="40.0975580" lon="-4.6823980">
        <ele>535.4</ele>
        <time>2022-03-01T16:33:34Z</time>
      </trkpt>
      <trkpt lat="40.0974920" lon="-4.6823750">
        <ele>535.5</ele>
        <time>2022-03-01T16:33:35Z</time>
      </trkpt>
      <trkpt lat="40.0974280" lon="-4.6823140">
        <ele>535.6</ele>
        <time>2022-03-01T16:33:36Z</time>
      </trkpt>
      <trkpt lat="40.0973810" lon="-4.6822320">
        <ele>535.7</ele>
        <time>2022-03-01T16:33:37Z</time>
      </trkpt>
      <trkpt lat="40.0973530" lon="-4.6821410">
        <ele>535.9</ele>
        <time>2022-03-01T16:33:38Z</time>
      </trkpt>
      <trkpt lat="40.0973320" lon="-4.6820530">
        <ele>535.6</ele>
        <time>2022-03-01T16:33:39Z</time>
      </trkpt>
      <trkpt lat="40.0973210" lon="-4.6819560">
        <ele>535.0</ele>
        <time>2022-03-01T16:33:40Z</time>
      </trkpt>
      <trkpt lat="40.0973160" lon="-4.6818560">
        <ele>534.3</ele>
        <time>2022-03-01T16:33:41Z</time>
      </trkpt>
      <trkpt lat="40.0973130" lon="-4.6817490">
        <ele>533.9</ele>
        <time>2022-03-01T16:33:42Z</time>
      </trkpt>
      <trkpt lat="40.0973150" lon="-4.6816430">
        <ele>533.6</ele>
        <time>2022-03-01T16:33:43Z</time>
      </trkpt>
      <trkpt lat="40.0973210" lon="-4.6815330">
        <ele>533.2</ele>
        <time>2022-03-01T16:33:44Z</time>
      </trkpt>
      <trkpt lat="40.0973320" lon="-4.6814240">
        <ele>532.8</ele>
        <time>2022-03-01T16:33:45Z</time>
      </trkpt>
      <trkpt lat="40.0973410" lon="-4.6813100">
        <ele>532.3</ele>
        <time>2022-03-01T16:33:46Z</time>
      </trkpt>
      <trkpt lat="40.0973530" lon="-4.6811840">
        <ele>531.8</ele>
        <time>2022-03-01T16:33:47Z</time>
      </trkpt>
      <trkpt lat="40.0973630" lon="-4.6810560">
        <ele>531.3</ele>
        <time>2022-03-01T16:33:48Z</time>
      </trkpt>
      <trkpt lat="40.0973750" lon="-4.6809230">
        <ele>530.7</ele>
        <time>2022-03-01T16:33:49Z</time>
      </trkpt>
      <trkpt lat="40.0973890" lon="-4.6807890">
        <ele>530.1</ele>
        <time>2022-03-01T16:33:50Z</time>
      </trkpt>
      <trkpt lat="40.0974020" lon="-4.6806520">
        <ele>529.5</ele>
        <time>2022-03-01T16:33:51Z</time>
      </trkpt>
      <trkpt lat="40.0974120" lon="-4.6805110">
        <ele>528.9</ele>
        <time>2022-03-01T16:33:52Z</time>
      </trkpt>
      <trkpt lat="40.0974180" lon="-4.6803700">
        <ele>528.3</ele>
        <time>2022-03-01T16:33:53Z</time>
      </trkpt>
      <trkpt lat="40.0974250" lon="-4.6802240">
        <ele>527.7</ele>
        <time>2022-03-01T16:33:54Z</time>
      </trkpt>
      <trkpt lat="40.0974270" lon="-4.6800760">
        <ele>527.1</ele>
        <time>2022-03-01T16:33:55Z</time>
      </trkpt>
      <trkpt lat="40.0974260" lon="-4.6799270">
        <ele>526.4</ele>
        <time>2022-03-01T16:33:56Z</time>
      </trkpt>
      <trkpt lat="40.0974230" lon="-4.6797770">
        <ele>525.8</ele>
        <time>2022-03-01T16:33:57Z</time>
      </trkpt>
      <trkpt lat="40.0974170" lon="-4.6796240">
        <ele>525.2</ele>
        <time>2022-03-01T16:33:58Z</time>
      </trkpt>
      <trkpt lat="40.0974050" lon="-4.6794710">
        <ele>524.6</ele>
        <time>2022-03-01T16:33:59Z</time>
      </trkpt>
      <trkpt lat="40.0973940" lon="-4.6793160">
        <ele>524.0</ele>
        <time>2022-03-01T16:34:00Z</time>
      </trkpt>
      <trkpt lat="40.0973810" lon="-4.6791620">
        <ele>523.5</ele>
        <time>2022-03-01T16:34:01Z</time>
      </trkpt>
      <trkpt lat="40.0973660" lon="-4.6790050">
        <ele>522.9</ele>
        <time>2022-03-01T16:34:02Z</time>
      </trkpt>
      <trkpt lat="40.0973500" lon="-4.6788480">
        <ele>522.4</ele>
        <time>2022-03-01T16:34:03Z</time>
      </trkpt>
      <trkpt lat="40.0973360" lon="-4.6786870">
        <ele>521.8</ele>
        <time>2022-03-01T16:34:04Z</time>
      </trkpt>
      <trkpt lat="40.0973180" lon="-4.6785260">
        <ele>521.3</ele>
        <time>2022-03-01T16:34:05Z</time>
      </trkpt>
      <trkpt lat="40.0973000" lon="-4.6783620">
        <ele>520.7</ele>
        <time>2022-03-01T16:34:06Z</time>
      </trkpt>
      <trkpt lat="40.0972640" lon="-4.6782130">
        <ele>520.1</ele>
        <time>2022-03-01T16:34:07Z</time>
      </trkpt>
      <trkpt lat="40.0971940" lon="-4.6780860">
        <ele>519.5</ele>
        <time>2022-03-01T16:34:08Z</time>
      </trkpt>
      <trkpt lat="40.0970970" lon="-4.6779910">
        <ele>518.7</ele>
        <time>2022-03-01T16:34:09Z</time>
      </trkpt>
      <trkpt lat="40.0969840" lon="-4.6779460">
        <ele>518.0</ele>
        <time>2022-03-01T16:34:10Z</time>
      </trkpt>
      <trkpt lat="40.0968700" lon="-4.6779600">
        <ele>517.2</ele>
        <time>2022-03-01T16:34:11Z</time>
      </trkpt>
      <trkpt lat="40.0967670" lon="-4.6780120">
        <ele>516.5</ele>
        <time>2022-03-01T16:34:12Z</time>
      </trkpt>
      <trkpt lat="40.0966670" lon="-4.6780840">
        <ele>515.6</ele>
        <time>2022-03-01T16:34:13Z</time>
      </trkpt>
      <trkpt lat="40.0965730" lon="-4.6781770">
        <ele>514.6</ele>
        <time>2022-03-01T16:34:14Z</time>
      </trkpt>
      <trkpt lat="40.0964820" lon="-4.6782870">
        <ele>513.6</ele>
        <time>2022-03-01T16:34:15Z</time>
      </trkpt>
      <trkpt lat="40.0963960" lon="-4.6783920">
        <ele>512.6</ele>
        <time>2022-03-01T16:34:16Z</time>
      </trkpt>
      <trkpt lat="40.0963130" lon="-4.6785000">
        <ele>511.6</ele>
        <time>2022-03-01T16:34:17Z</time>
      </trkpt>
      <trkpt lat="40.0962290" lon="-4.6786210">
        <ele>510.5</ele>
        <time>2022-03-01T16:34:18Z</time>
      </trkpt>
      <trkpt lat="40.0961540" lon="-4.6787430">
        <ele>509.4</ele>
        <time>2022-03-01T16:34:19Z</time>
      </trkpt>
      <trkpt lat="40.0960720" lon="-4.6788720">
        <ele>508.1</ele>
        <time>2022-03-01T16:34:20Z</time>
      </trkpt>
      <trkpt lat="40.0959970" lon="-4.6790020">
        <ele>507.0</ele>
        <time>2022-03-01T16:34:21Z</time>
      </trkpt>
      <trkpt lat="40.0959150" lon="-4.6791320">
        <ele>505.8</ele>
        <time>2022-03-01T16:34:22Z</time>
      </trkpt>
      <trkpt lat="40.0958270" lon="-4.6792630">
        <ele>504.6</ele>
        <time>2022-03-01T16:34:23Z</time>
      </trkpt>
      <trkpt lat="40.0957180" lon="-4.6793680">
        <ele>503.3</ele>
        <time>2022-03-01T16:34:24Z</time>
      </trkpt>
      <trkpt lat="40.0955920" lon="-4.6794510">
        <ele>502.0</ele>
        <time>2022-03-01T16:34:25Z</time>
      </trkpt>
      <trkpt lat="40.0954660" lon="-4.6795310">
        <ele>500.6</ele>
        <time>2022-03-01T16:34:26Z</time>
      </trkpt>
      <trkpt lat="40.0953250" lon="-4.6795850">
        <ele>499.1</ele>
        <time>2022-03-01T16:34:27Z</time>
      </trkpt>
      <trkpt lat="40.0951800" lon="-4.6796280">
        <ele>497.5</ele>
        <time>2022-03-01T16:34:28Z</time>
      </trkpt>
      <trkpt lat="40.0950300" lon="-4.6796660">
        <ele>495.8</ele>
        <time>2022-03-01T16:34:29Z</time>
      </trkpt>
      <trkpt lat="40.0948780" lon="-4.6796820">
        <ele>494.0</ele>
        <time>2022-03-01T16:34:30Z</time>
      </trkpt>
      <trkpt lat="40.0947200" lon="-4.6796860">
        <ele>492.0</ele>
        <time>2022-03-01T16:34:31Z</time>
      </trkpt>
      <trkpt lat="40.0945610" lon="-4.6796750">
        <ele>490.0</ele>
        <time>2022-03-01T16:34:32Z</time>
      </trkpt>
      <trkpt lat="40.0944000" lon="-4.6796490">
        <ele>488.1</ele>
        <time>2022-03-01T16:34:33Z</time>
      </trkpt>
      <trkpt lat="40.0942350" lon="-4.6796090">
        <ele>486.2</ele>
        <time>2022-03-01T16:34:34Z</time>
      </trkpt>
      <trkpt lat="40.0940700" lon="-4.6795540">
        <ele>484.4</ele>
        <time>2022-03-01T16:34:35Z</time>
      </trkpt>
      <trkpt lat="40.0939100" lon="-4.6794840">
        <ele>482.8</ele>
        <time>2022-03-01T16:34:36Z</time>
      </trkpt>
      <trkpt lat="40.0937480" lon="-4.6794200">
        <ele>481.3</ele>
        <time>2022-03-01T16:34:37Z</time>
      </trkpt>
      <trkpt lat="40.0935960" lon="-4.6793200">
        <ele>479.6</ele>
        <time>2022-03-01T16:34:38Z</time>
      </trkpt>
      <trkpt lat="40.0934460" lon="-4.6792170">
        <ele>478.0</ele>
        <time>2022-03-01T16:34:39Z</time>
      </trkpt>
      <trkpt lat="40.0932930" lon="-4.6791100">
        <ele>476.4</ele>
        <time>2022-03-01T16:34:40Z</time>
      </trkpt>
      <trkpt lat="40.0931400" lon="-4.6789930">
        <ele>474.7</ele>
        <time>2022-03-01T16:34:41Z</time>
      </trkpt>
      <trkpt lat="40.0929860" lon="-4.6788760">
        <ele>472.9</ele>
        <time>2022-03-01T16:34:42Z</time>
      </trkpt>
      <trkpt lat="40.0928310" lon="-4.6787670">
        <ele>471.2</ele>
        <time>2022-03-01T16:34:43Z</time>
      </trkpt>
      <trkpt lat="40.0926770" lon="-4.6786430">
        <ele>469.4</ele>
        <time>2022-03-01T16:34:44Z</time>
      </trkpt>
      <trkpt lat="40.0925250" lon="-4.6785300">
        <ele>467.6</ele>
        <time>2022-03-01T16:34:45Z</time>
      </trkpt>
      <trkpt lat="40.0923710" lon="-4.6784110">
        <ele>465.9</ele>
        <time>2022-03-01T16:34:46Z</time>
      </trkpt>
      <trkpt lat="40.0922120" lon="-4.6782920">
        <ele>464.1</ele>
        <time>2022-03-01T16:34:47Z</time>
      </trkpt>
      <trkpt lat="40.0920530" lon="-4.6781720">
        <ele>462.4</ele>
        <time>2022-03-01T16:34:48Z</time>
      </trkpt>
      <trkpt lat="40.0918970" lon="-4.6780500">
        <ele>460.7</ele>
        <time>2022-03-01T16:34:49Z</time>
      </trkpt>
      <trkpt lat="40.0917420" lon="-4.6779280">
        <ele>459.1</ele>
        <time>2022-03-01T16:34:50Z</time>
      </trkpt>
      <trkpt lat="40.0915820" lon="-4.6778080">
        <ele>457.5</ele>
        <time>2022-03-01T16:34:51Z</time>
      </trkpt>
      <trkpt lat="40.0914250" lon="-4.6776880">
        <ele>456.0</ele>
        <time>2022-03-01T16:34:52Z</time>
      </trkpt>
      <trkpt lat="40.0912700" lon="-4.6775690">
        <ele>454.7</ele>
        <time>2022-03-01T16:34:53Z</time>
      </trkpt>
      <trkpt lat="40.0911170" lon="-4.6774510">
        <ele>453.5</ele>
        <time>2022-03-01T16:34:54Z</time>
      </trkpt>
      <trkpt lat="40.0909680" lon="-4.6773350">
        <ele>452.5</ele>
        <time>2022-03-01T16:34:55Z</time>
      </trkpt>
      <trkpt lat="40.0908190" lon="-4.6772220">
        <ele>451.9</ele>
        <time>2022-03-01T16:34:56Z</time>
      </trkpt>
      <trkpt lat="40.0906720" lon="-4.6771190">
        <ele>450.9</ele>
        <time>2022-03-01T16:34:57Z</time>
      </trkpt>
      <trkpt lat="40.0905270" lon="-4.6770120">
        <ele>449.9</ele>
        <time>2022-03-01T16:34:58Z</time>
      </trkpt>
      <trkpt lat="40.0903840" lon="-4.6769120">
        <ele>449.4</ele>
        <time>2022-03-01T16:34:59Z</time>
      </trkpt>
      <trkpt lat="40.0902480" lon="-4.6768070">
        <ele>449.1</ele>
        <time>2022-03-01T16:35:00Z</time>
      </trkpt>
      <trkpt lat="40.0901110" lon="-4.6767030">
        <ele>448.7</ele>
        <time>2022-03-01T16:35:01Z</time>
      </trkpt>
      <trkpt lat="40.0899780" lon="-4.6766050">
        <ele>448.3</ele>
        <time>2022-03-01T16:35:02Z</time>
      </trkpt>
      <trkpt lat="40.0898470" lon="-4.6765080">
        <ele>448.0</ele>
        <time>2022-03-01T16:35:03Z</time>
      </trkpt>
      <trkpt lat="40.0897200" lon="-4.6764130">
        <ele>447.7</ele>
        <time>2022-03-01T16:35:04Z</time>
      </trkpt>
      <trkpt lat="40.0895940" lon="-4.6763200">
        <ele>447.4</ele>
        <time>2022-03-01T16:35:05Z</time>
      </trkpt>
      <trkpt lat="40.0894690" lon="-4.6762250">
        <ele>447.2</ele>
        <time>2022-03-01T16:35:06Z</time>
      </trkpt>
      <trkpt lat="40.0893460" lon="-4.6761330">
        <ele>446.9</ele>
        <time>2022-03-01T16:35:07Z</time>
      </trkpt>
      <trkpt lat="40.0892280" lon="-4.6760460">
        <ele>446.7</ele>
        <time>2022-03-01T16:35:08Z</time>
      </trkpt>
      <trkpt lat="40.0891100" lon="-4.6759590">
        <ele>446.5</ele>
        <time>2022-03-01T16:35:09Z</time>
      </trkpt>
      <trkpt lat="40.0889930" lon="-4.6758730">
        <ele>446.3</ele>
        <time>2022-03-01T16:35:10Z</time>
      </trkpt>
      <trkpt lat="40.0888680" lon="-4.6758220">
        <ele>446.1</ele>
        <time>2022-03-01T16:35:11Z</time>
      </trkpt>
      <trkpt lat="40.0887590" lon="-4.6757370">
        <ele>445.9</ele>
        <time>2022-03-01T16:35:12Z</time>
      </trkpt>
      <trkpt lat="40.0886500" lon="-4.6756560">
        <ele>445.7</ele>
        <time>2022-03-01T16:35:13Z</time>
      </trkpt>
      <trkpt lat="40.0885420" lon="-4.6755800">
        <ele>445.4</ele>
        <time>2022-03-01T16:35:14Z</time>
      </trkpt>
      <trkpt lat="40.0884370" lon="-4.6754970">
        <ele>445.2</ele>
        <time>2022-03-01T16:35:15Z</time>
      </trkpt>
      <trkpt lat="40.0883310" lon="-4.6754200">
        <ele>445.0</ele>
        <time>2022-03-01T16:35:16Z</time>
      </trkpt>
      <trkpt lat="40.0882280" lon="-4.6753400">
        <ele>444.7</ele>
        <time>2022-03-01T16:35:17Z</time>
      </trkpt>
      <trkpt lat="40.0881270" lon="-4.6752620">
        <ele>444.5</ele>
        <time>2022-03-01T16:35:18Z</time>
      </trkpt>
      <trkpt lat="40.0880260" lon="-4.6751940">
        <ele>444.3</ele>
        <time>2022-03-01T16:35:19Z</time>
      </trkpt>
      <trkpt lat="40.0879220" lon="-4.6751140">
        <ele>444.0</ele>
        <time>2022-03-01T16:35:20Z</time>
      </trkpt>
      <trkpt lat="40.0878210" lon="-4.6750350">
        <ele>443.8</ele>
        <time>2022-03-01T16:35:21Z</time>
      </trkpt>
      <trkpt lat="40.0877240" lon="-4.6749610">
        <ele>443.6</ele>
        <time>2022-03-01T16:35:22Z</time>
      </trkpt>
      <trkpt lat="40.0876240" lon="-4.6748900">
        <ele>443.4</ele>
        <time>2022-03-01T16:35:23Z</time>
      </trkpt>
      <trkpt lat="40.0875230" lon="-4.6748150">
        <ele>443.1</ele>
        <time>2022-03-01T16:35:24Z</time>
      </trkpt>
      <trkpt lat="40.0874260" lon="-4.6747350">
        <ele>442.9</ele>
        <time>2022-03-01T16:35:25Z</time>
      </trkpt>
      <trkpt lat="40.0873250" lon="-4.6746610">
        <ele>442.7</ele>
        <time>2022-03-01T16:35:26Z</time>
      </trkpt>
      <trkpt lat="40.0872270" lon="-4.6746000">
        <ele>442.6</ele>
        <time>2022-03-01T16:35:27Z</time>
      </trkpt>
      <trkpt lat="40.0871280" lon="-4.6745320">
        <ele>442.4</ele>
        <time>2022-03-01T16:35:28Z</time>
      </trkpt>
      <trkpt lat="40.0870280" lon="-4.6744550">
        <ele>442.2</ele>
        <time>2022-03-01T16:35:29Z</time>
      </trkpt>
      <trkpt lat="40.0869330" lon="-4.6743870">
        <ele>442.0</ele>
        <time>2022-03-01T16:35:30Z</time>
      </trkpt>
      <trkpt lat="40.0868380" lon="-4.6743160">
        <ele>441.8</ele>
        <time>2022-03-01T16:35:31Z</time>
      </trkpt>
      <trkpt lat="40.0867410" lon="-4.6742410">
        <ele>441.6</ele>
        <time>2022-03-01T16:35:32Z</time>
      </trkpt>
      <trkpt lat="40.0866430" lon="-4.6741670">
        <ele>441.4</ele>
        <time>2022-03-01T16:35:33Z</time>
      </trkpt>
      <trkpt lat="40.0865460" lon="-4.6740960">
        <ele>441.2</ele>
        <time>2022-03-01T16:35:34Z</time>
      </trkpt>
      <trkpt lat="40.0864490" lon="-4.6740210">
        <ele>441.0</ele>
        <time>2022-03-01T16:35:35Z</time>
      </trkpt>
      <trkpt lat="40.0863530" lon="-4.6739500">
        <ele>440.8</ele>
        <time>2022-03-01T16:35:36Z</time>
      </trkpt>
      <trkpt lat="40.0862570" lon="-4.6738770">
        <ele>440.5</ele>
        <time>2022-03-01T16:35:37Z</time>
      </trkpt>
      <trkpt lat="40.0861600" lon="-4.6738050">
        <ele>440.3</ele>
        <time>2022-03-01T16:35:38Z</time>
      </trkpt>
      <trkpt lat="40.0860600" lon="-4.6737370">
        <ele>440.1</ele>
        <time>2022-03-01T16:35:39Z</time>
      </trkpt>
      <trkpt lat="40.0859670" lon="-4.6736660">
        <ele>439.8</ele>
        <time>2022-03-01T16:35:40Z</time>
      </trkpt>
      <trkpt lat="40.0858740" lon="-4.6735930">
        <ele>439.6</ele>
        <time>2022-03-01T16:35:41Z</time>
      </trkpt>
      <trkpt lat="40.0857770" lon="-4.6735180">
        <ele>439.4</ele>
        <time>2022-03-01T16:35:42Z</time>
      </trkpt>
      <trkpt lat="40.0856810" lon="-4.6734450">
        <ele>439.2</ele>
        <time>2022-03-01T16:35:43Z</time>
      </trkpt>
      <trkpt lat="40.0855850" lon="-4.6733710">
        <ele>439.0</ele>
        <time>2022-03-01T16:35:44Z</time>
      </trkpt>
      <trkpt lat="40.0854880" lon="-4.6733000">
        <ele>438.8</ele>
        <time>2022-03-01T16:35:45Z</time>
      </trkpt>
      <trkpt lat="40.0853920" lon="-4.6732270">
        <ele>438.6</ele>
        <time>2022-03-01T16:35:46Z</time>
      </trkpt>
      <trkpt lat="40.0852950" lon="-4.6731550">
        <ele>438.4</ele>
        <time>2022-03-01T16:35:47Z</time>
      </trkpt>
      <trkpt lat="40.0851980" lon="-4.6730810">
        <ele>438.2</ele>
        <time>2022-03-01T16:35:48Z</time>
      </trkpt>
      <trkpt lat="40.0851020" lon="-4.6730110">
        <ele>438.0</ele>
        <time>2022-03-01T16:35:49Z</time>
      </trkpt>
      <trkpt lat="40.0850070" lon="-4.6729430">
        <ele>437.8</ele>
        <time>2022-03-01T16:35:50Z</time>
      </trkpt>
      <trkpt lat="40.0849160" lon="-4.6728810">
        <ele>437.7</ele>
        <time>2022-03-01T16:35:51Z</time>
      </trkpt>
      <trkpt lat="40.0848220" lon="-4.6728070">
        <ele>437.5</ele>
        <time>2022-03-01T16:35:52Z</time>
      </trkpt>
      <trkpt lat="40.0847300" lon="-4.6727370">
        <ele>437.3</ele>
        <time>2022-03-01T16:35:53Z</time>
      </trkpt>
      <trkpt lat="40.0846390" lon="-4.6726600">
        <ele>437.1</ele>
        <time>2022-03-01T16:35:54Z</time>
      </trkpt>
      <trkpt lat="40.0845460" lon="-4.6725900">
        <ele>436.9</ele>
        <time>2022-03-01T16:35:55Z</time>
      </trkpt>
      <trkpt lat="40.0844530" lon="-4.6725230">
        <ele>436.7</ele>
        <time>2022-03-01T16:35:56Z</time>
      </trkpt>
      <trkpt lat="40.0843600" lon="-4.6724550">
        <ele>436.6</ele>
        <time>2022-03-01T16:35:57Z</time>
      </trkpt>
      <trkpt lat="40.0842630" lon="-4.6723790">
        <ele>436.4</ele>
        <time>2022-03-01T16:35:58Z</time>
      </trkpt>
      <trkpt lat="40.0841680" lon="-4.6723070">
        <ele>436.2</ele>
        <time>2022-03-01T16:35:59Z</time>
      </trkpt>
      <trkpt lat="40.0840730" lon="-4.6722340">
        <ele>436.0</ele>
        <time>2022-03-01T16:36:00Z</time>
      </trkpt>
      <trkpt lat="40.0839780" lon="-4.6721680">
        <ele>435.8</ele>
        <time>2022-03-01T16:36:01Z</time>
      </trkpt>
      <trkpt lat="40.0838850" lon="-4.6720960">
        <ele>435.5</ele>
        <time>2022-03-01T16:36:02Z</time>
      </trkpt>
      <trkpt lat="40.0837880" lon="-4.6720260">
        <ele>435.3</ele>
        <time>2022-03-01T16:36:03Z</time>
      </trkpt>
      <trkpt lat="40.0836920" lon="-4.6719540">
        <ele>435.1</ele>
        <time>2022-03-01T16:36:04Z</time>
      </trkpt>
      <trkpt lat="40.0835980" lon="-4.6718830">
        <ele>435.0</ele>
        <time>2022-03-01T16:36:05Z</time>
      </trkpt>
      <trkpt lat="40.0835020" lon="-4.6718120">
        <ele>434.8</ele>
        <time>2022-03-01T16:36:06Z</time>
      </trkpt>
      <trkpt lat="40.0834080" lon="-4.6717430">
        <ele>434.5</ele>
        <time>2022-03-01T16:36:07Z</time>
      </trkpt>
      <trkpt lat="40.0833160" lon="-4.6716740">
        <ele>434.3</ele>
        <time>2022-03-01T16:36:08Z</time>
      </trkpt>
      <trkpt lat="40.0832220" lon="-4.6716040">
        <ele>434.1</ele>
        <time>2022-03-01T16:36:09Z</time>
      </trkpt>
      <trkpt lat="40.0831300" lon="-4.6715370">
        <ele>434.0</ele>
        <time>2022-03-01T16:36:10Z</time>
      </trkpt>
      <trkpt lat="40.0830460" lon="-4.6714750">
        <ele>433.8</ele>
        <time>2022-03-01T16:36:11Z</time>
      </trkpt>
      <trkpt lat="40.0829530" lon="-4.6714060">
        <ele>433.6</ele>
        <time>2022-03-01T16:36:12Z</time>
      </trkpt>
      <trkpt lat="40.0828580" lon="-4.6713380">
        <ele>433.4</ele>
        <time>2022-03-01T16:36:13Z</time>
      </trkpt>
      <trkpt lat="40.0827640" lon="-4.6712700">
        <ele>433.3</ele>
        <time>2022-03-01T16:36:14Z</time>
      </trkpt>
      <trkpt lat="40.0826670" lon="-4.6712000">
        <ele>433.1</ele>
        <time>2022-03-01T16:36:15Z</time>
      </trkpt>
      <trkpt lat="40.0825740" lon="-4.6711320">
        <ele>433.0</ele>
        <time>2022-03-01T16:36:16Z</time>
      </trkpt>
      <trkpt lat="40.0824810" lon="-4.6710620">
        <ele>433.0</ele>
        <time>2022-03-01T16:36:17Z</time>
      </trkpt>
      <trkpt lat="40.0823890" lon="-4.6709900">
        <ele>433.0</ele>
        <time>2022-03-01T16:36:18Z</time>
      </trkpt>
      <trkpt lat="40.0822970" lon="-4.6709190">
        <ele>433.0</ele>
        <time>2022-03-01T16:36:19Z</time>
      </trkpt>
      <trkpt lat="40.0822080" lon="-4.6708680">
        <ele>433.0</ele>
        <time>2022-03-01T16:36:20Z</time>
      </trkpt>
      <trkpt lat="40.0821110" lon="-4.6707830">
        <ele>433.1</ele>
        <time>2022-03-01T16:36:21Z</time>
      </trkpt>
      <trkpt lat="40.0820200" lon="-4.6707240">
        <ele>433.2</ele>
        <time>2022-03-01T16:36:22Z</time>
      </trkpt>
      <trkpt lat="40.0819380" lon="-4.6706560">
        <ele>433.2</ele>
        <time>2022-03-01T16:36:23Z</time>
      </trkpt>
      <trkpt lat="40.0818560" lon="-4.6705960">
        <ele>433.3</ele>
        <time>2022-03-01T16:36:24Z</time>
      </trkpt>
      <trkpt lat="40.0817690" lon="-4.6705610">
        <ele>433.4</ele>
        <time>2022-03-01T16:36:25Z</time>
      </trkpt>
      <trkpt lat="40.0816860" lon="-4.6704960">
        <ele>433.5</ele>
        <time>2022-03-01T16:36:26Z</time>
      </trkpt>
      <trkpt lat="40.0816030" lon="-4.6704300">
        <ele>433.7</ele>
        <time>2022-03-01T16:36:27Z</time>
      </trkpt>
      <trkpt lat="40.0815250" lon="-4.6703670">
        <ele>433.9</ele>
        <time>2022-03-01T16:36:28Z</time>
      </trkpt>
      <trkpt lat="40.0814510" lon="-4.6703100">
        <ele>434.1</ele>
        <time>2022-03-01T16:36:29Z</time>
      </trkpt>
      <trkpt lat="40.0813770" lon="-4.6702580">
        <ele>434.2</ele>
        <time>2022-03-01T16:36:30Z</time>
      </trkpt>
      <trkpt lat="40.0812980" lon="-4.6701990">
        <ele>434.4</ele>
        <time>2022-03-01T16:36:31Z</time>
      </trkpt>
      <trkpt lat="40.0812250" lon="-4.6701400">
        <ele>434.6</ele>
        <time>2022-03-01T16:36:32Z</time>
      </trkpt>
      <trkpt lat="40.0811520" lon="-4.6700860">
        <ele>434.8</ele>
        <time>2022-03-01T16:36:33Z</time>
      </trkpt>
      <trkpt lat="40.0810810" lon="-4.6700330">
        <ele>434.9</ele>
        <time>2022-03-01T16:36:34Z</time>
      </trkpt>
      <trkpt lat="40.0810070" lon="-4.6699800">
        <ele>435.1</ele>
        <time>2022-03-01T16:36:35Z</time>
      </trkpt>
      <trkpt lat="40.0809350" lon="-4.6699320">
        <ele>435.2</ele>
        <time>2022-03-01T16:36:36Z</time>
      </trkpt>
      <trkpt lat="40.0808630" lon="-4.6698770">
        <ele>435.3</ele>
        <time>2022-03-01T16:36:37Z</time>
      </trkpt>
      <trkpt lat="40.0807940" lon="-4.6698220">
        <ele>435.5</ele>
        <time>2022-03-01T16:36:38Z</time>
      </trkpt>
      <trkpt lat="40.0807210" lon="-4.6697710">
        <ele>435.6</ele>
        <time>2022-03-01T16:36:39Z</time>
      </trkpt>
      <trkpt lat="40.0806560" lon="-4.6697250">
        <ele>435.7</ele>
        <time>2022-03-01T16:36:40Z</time>
      </trkpt>
      <trkpt lat="40.0805830" lon="-4.6696710">
        <ele>435.8</ele>
        <time>2022-03-01T16:36:41Z</time>
      </trkpt>
      <trkpt lat="40.0805110" lon="-4.6696180">
        <ele>435.8</ele>
        <time>2022-03-01T16:36:42Z</time>
      </trkpt>
      <trkpt lat="40.0804390" lon="-4.6695620">
        <ele>435.9</ele>
        <time>2022-03-01T16:36:43Z</time>
      </trkpt>
      <trkpt lat="40.0803690" lon="-4.6695090">
        <ele>435.9</ele>
        <time>2022-03-01T16:36:44Z</time>
      </trkpt>
      <trkpt lat="40.0802980" lon="-4.6694550">
        <ele>435.9</ele>
        <time>2022-03-01T16:36:45Z</time>
      </trkpt>
      <trkpt lat="40.0802280" lon="-4.6694000">
        <ele>435.8</ele>
        <time>2022-03-01T16:36:46Z</time>
      </trkpt>
      <trkpt lat="40.0801520" lon="-4.6693450">
        <ele>435.8</ele>
        <time>2022-03-01T16:36:47Z</time>
      </trkpt>
      <trkpt lat="40.0800790" lon="-4.6692910">
        <ele>435.7</ele>
        <time>2022-03-01T16:36:48Z</time>
      </trkpt>
      <trkpt lat="40.0800050" lon="-4.6692390">
        <ele>435.5</ele>
        <time>2022-03-01T16:36:49Z</time>
      </trkpt>
      <trkpt lat="40.0799330" lon="-4.6691840">
        <ele>435.3</ele>
        <time>2022-03-01T16:36:50Z</time>
      </trkpt>
      <trkpt lat="40.0798540" lon="-4.6691240">
        <ele>435.1</ele>
        <time>2022-03-01T16:36:51Z</time>
      </trkpt>
      <trkpt lat="40.0797720" lon="-4.6690780">
        <ele>434.9</ele>
        <time>2022-03-01T16:36:52Z</time>
      </trkpt>
      <trkpt lat="40.0796950" lon="-4.6690230">
        <ele>434.7</ele>
        <time>2022-03-01T16:36:53Z</time>
      </trkpt>
      <trkpt lat="40.0796250" lon="-4.6689540">
        <ele>434.5</ele>
        <time>2022-03-01T16:36:54Z</time>
      </trkpt>
      <trkpt lat="40.0795440" lon="-4.6689010">
        <ele>434.2</ele>
        <time>2022-03-01T16:36:55Z</time>
      </trkpt>
      <trkpt lat="40.0794640" lon="-4.6688380">
        <ele>433.9</ele>
        <time>2022-03-01T16:36:56Z</time>
      </trkpt>
      <trkpt lat="40.0793770" lon="-4.6687770">
        <ele>433.5</ele>
        <time>2022-03-01T16:36:57Z</time>
      </trkpt>
      <trkpt lat="40.0792910" lon="-4.6687100">
        <ele>433.2</ele>
        <time>2022-03-01T16:36:58Z</time>
      </trkpt>
      <trkpt lat="40.0792080" lon="-4.6686430">
        <ele>432.8</ele>
        <time>2022-03-01T16:36:59Z</time>
      </trkpt>
      <trkpt lat="40.0791190" lon="-4.6685780">
        <ele>432.4</ele>
        <time>2022-03-01T16:37:00Z</time>
      </trkpt>
      <trkpt lat="40.0790310" lon="-4.6685190">
        <ele>432.1</ele>
        <time>2022-03-01T16:37:01Z</time>
      </trkpt>
      <trkpt lat="40.0789520" lon="-4.6684520">
        <ele>431.7</ele>
        <time>2022-03-01T16:37:02Z</time>
      </trkpt>
      <trkpt lat="40.0788600" lon="-4.6683860">
        <ele>431.3</ele>
        <time>2022-03-01T16:37:03Z</time>
      </trkpt>
      <trkpt lat="40.0787690" lon="-4.6683170">
        <ele>430.8</ele>
        <time>2022-03-01T16:37:04Z</time>
      </trkpt>
      <trkpt lat="40.0786800" lon="-4.6682490">
        <ele>430.4</ele>
        <time>2022-03-01T16:37:05Z</time>
      </trkpt>
      <trkpt lat="40.0785930" lon="-4.6681860">
        <ele>430.0</ele>
        <time>2022-03-01T16:37:06Z</time>
      </trkpt>
      <trkpt lat="40.0785040" lon="-4.6681190">
        <ele>429.7</ele>
        <time>2022-03-01T16:37:07Z</time>
      </trkpt>
      <trkpt lat="40.0784150" lon="-4.6680580">
        <ele>429.3</ele>
        <time>2022-03-01T16:37:08Z</time>
      </trkpt>
      <trkpt lat="40.0783280" lon="-4.6679840">
        <ele>428.9</ele>
        <time>2022-03-01T16:37:09Z</time>
      </trkpt>
      <trkpt lat="40.0782350" lon="-4.6679230">
        <ele>428.4</ele>
        <time>2022-03-01T16:37:10Z</time>
      </trkpt>
      <trkpt lat="40.0781440" lon="-4.6678520">
        <ele>428.0</ele>
        <time>2022-03-01T16:37:11Z</time>
      </trkpt>
      <trkpt lat="40.0780520" lon="-4.6677860">
        <ele>427.7</ele>
        <time>2022-03-01T16:37:12Z</time>
      </trkpt>
      <trkpt lat="40.0779610" lon="-4.6677130">
        <ele>427.3</ele>
        <time>2022-03-01T16:37:13Z</time>
      </trkpt>
      <trkpt lat="40.0778700" lon="-4.6676500">
        <ele>427.0</ele>
        <time>2022-03-01T16:37:14Z</time>
      </trkpt>
      <trkpt lat="40.0777710" lon="-4.6675730">
        <ele>426.7</ele>
        <time>2022-03-01T16:37:15Z</time>
      </trkpt>
      <trkpt lat="40.0776800" lon="-4.6674990">
        <ele>426.4</ele>
        <time>2022-03-01T16:37:16Z</time>
      </trkpt>
      <trkpt lat="40.0775910" lon="-4.6674400">
        <ele>426.3</ele>
        <time>2022-03-01T16:37:17Z</time>
      </trkpt>
      <trkpt lat="40.0775060" lon="-4.6673720">
        <ele>426.2</ele>
        <time>2022-03-01T16:37:18Z</time>
      </trkpt>
      <trkpt lat="40.0774190" lon="-4.6673060">
        <ele>426.2</ele>
        <time>2022-03-01T16:37:19Z</time>
      </trkpt>
      <trkpt lat="40.0773310" lon="-4.6672440">
        <ele>426.2</ele>
        <time>2022-03-01T16:37:20Z</time>
      </trkpt>
      <trkpt lat="40.0772440" lon="-4.6671840">
        <ele>426.2</ele>
        <time>2022-03-01T16:37:21Z</time>
      </trkpt>
      <trkpt lat="40.0771610" lon="-4.6671210">
        <ele>426.4</ele>
        <time>2022-03-01T16:37:22Z</time>
      </trkpt>
      <trkpt lat="40.0770840" lon="-4.6670620">
        <ele>426.5</ele>
        <time>2022-03-01T16:37:23Z</time>
      </trkpt>
      <trkpt lat="40.0770040" lon="-4.6670000">
        <ele>426.7</ele>
        <time>2022-03-01T16:37:24Z</time>
      </trkpt>
      <trkpt lat="40.0769280" lon="-4.6669450">
        <ele>426.9</ele>
        <time>2022-03-01T16:37:25Z</time>
      </trkpt>
      <trkpt lat="40.0768540" lon="-4.6668870">
        <ele>427.2</ele>
        <time>2022-03-01T16:37:26Z</time>
      </trkpt>
      <trkpt lat="40.0767800" lon="-4.6668320">
        <ele>427.5</ele>
        <time>2022-03-01T16:37:27Z</time>
      </trkpt>
      <trkpt lat="40.0767060" lon="-4.6667800">
        <ele>427.8</ele>
        <time>2022-03-01T16:37:28Z</time>
      </trkpt>
      <trkpt lat="40.0766370" lon="-4.6667240">
        <ele>428.1</ele>
        <time>2022-03-01T16:37:29Z</time>
      </trkpt>
      <trkpt lat="40.0765720" lon="-4.6666860">
        <ele>428.4</ele>
        <time>2022-03-01T16:37:30Z</time>
      </trkpt>
      <trkpt lat="40.0765010" lon="-4.6666250">
        <ele>428.8</ele>
        <time>2022-03-01T16:37:31Z</time>
      </trkpt>
      <trkpt lat="40.0764340" lon="-4.6665770">
        <ele>429.3</ele>
        <time>2022-03-01T16:37:32Z</time>
      </trkpt>
      <trkpt lat="40.0763660" lon="-4.6665340">
        <ele>429.7</ele>
        <time>2022-03-01T16:37:33Z</time>
      </trkpt>
      <trkpt lat="40.0763040" lon="-4.6664950">
        <ele>430.0</ele>
        <time>2022-03-01T16:37:34Z</time>
      </trkpt>
      <trkpt lat="40.0762430" lon="-4.6664510">
        <ele>430.4</ele>
        <time>2022-03-01T16:37:35Z</time>
      </trkpt>
      <trkpt lat="40.0761820" lon="-4.6664080">
        <ele>430.8</ele>
        <time>2022-03-01T16:37:36Z</time>
      </trkpt>
      <trkpt lat="40.0761250" lon="-4.6663670">
        <ele>431.1</ele>
        <time>2022-03-01T16:37:37Z</time>
      </trkpt>
      <trkpt lat="40.0760640" lon="-4.6663250">
        <ele>431.4</ele>
        <time>2022-03-01T16:37:38Z</time>
      </trkpt>
      <trkpt lat="40.0760060" lon="-4.6662760">
        <ele>431.7</ele>
        <time>2022-03-01T16:37:39Z</time>
      </trkpt>
      <trkpt lat="40.0759470" lon="-4.6662280">
        <ele>432.0</ele>
        <time>2022-03-01T16:37:40Z</time>
      </trkpt>
      <trkpt lat="40.0758910" lon="-4.6661870">
        <ele>432.3</ele>
        <time>2022-03-01T16:37:41Z</time>
      </trkpt>
      <trkpt lat="40.0758300" lon="-4.6661370">
        <ele>432.6</ele>
        <time>2022-03-01T16:37:42Z</time>
      </trkpt>
      <trkpt lat="40.0757690" lon="-4.6660950">
        <ele>432.8</ele>
        <time>2022-03-01T16:37:43Z</time>
      </trkpt>
      <trkpt lat="40.0757090" lon="-4.6660500">
        <ele>433.1</ele>
        <time>2022-03-01T16:37:44Z</time>
      </trkpt>
      <trkpt lat="40.0756470" lon="-4.6660050">
        <ele>433.3</ele>
        <time>2022-03-01T16:37:45Z</time>
      </trkpt>
      <trkpt lat="40.0755900" lon="-4.6659580">
        <ele>433.5</ele>
        <time>2022-03-01T16:37:46Z</time>
      </trkpt>
      <trkpt lat="40.0755330" lon="-4.6659110">
        <ele>433.7</ele>
        <time>2022-03-01T16:37:47Z</time>
      </trkpt>
      <trkpt lat="40.0754720" lon="-4.6658620">
        <ele>433.9</ele>
        <time>2022-03-01T16:37:48Z</time>
      </trkpt>
      <trkpt lat="40.0754060" lon="-4.6658160">
        <ele>434.1</ele>
        <time>2022-03-01T16:37:49Z</time>
      </trkpt>
      <trkpt lat="40.0753420" lon="-4.6657710">
        <ele>434.3</ele>
        <time>2022-03-01T16:37:50Z</time>
      </trkpt>
      <trkpt lat="40.0752790" lon="-4.6657200">
        <ele>434.4</ele>
        <time>2022-03-01T16:37:51Z</time>
      </trkpt>
      <trkpt lat="40.0752140" lon="-4.6656690">
        <ele>434.5</ele>
        <time>2022-03-01T16:37:52Z</time>
      </trkpt>
      <trkpt lat="40.0751480" lon="-4.6656200">
        <ele>434.6</ele>
        <time>2022-03-01T16:37:53Z</time>
      </trkpt>
      <trkpt lat="40.0750810" lon="-4.6655690">
        <ele>434.7</ele>
        <time>2022-03-01T16:37:54Z</time>
      </trkpt>
      <trkpt lat="40.0750150" lon="-4.6655200">
        <ele>434.8</ele>
        <time>2022-03-01T16:37:55Z</time>
      </trkpt>
      <trkpt lat="40.0749500" lon="-4.6654670">
        <ele>434.9</ele>
        <time>2022-03-01T16:37:56Z</time>
      </trkpt>
      <trkpt lat="40.0748840" lon="-4.6654180">
        <ele>435.0</ele>
        <time>2022-03-01T16:37:57Z</time>
      </trkpt>
      <trkpt lat="40.0748190" lon="-4.6653730">
        <ele>435.1</ele>
        <time>2022-03-01T16:37:58Z</time>
      </trkpt>
      <trkpt lat="40.0747500" lon="-4.6653220">
        <ele>435.2</ele>
        <time>2022-03-01T16:37:59Z</time>
      </trkpt>
      <trkpt lat="40.0746840" lon="-4.6652730">
        <ele>435.3</ele>
        <time>2022-03-01T16:38:00Z</time>
      </trkpt>
      <trkpt lat="40.0746160" lon="-4.6652230">
        <ele>435.3</ele>
        <time>2022-03-01T16:38:01Z</time>
      </trkpt>
      <trkpt lat="40.0745530" lon="-4.6651760">
        <ele>435.4</ele>
        <time>2022-03-01T16:38:02Z</time>
      </trkpt>
      <trkpt lat="40.0744860" lon="-4.6651310">
        <ele>435.5</ele>
        <time>2022-03-01T16:38:03Z</time>
      </trkpt>
      <trkpt lat="40.0744200" lon="-4.6650830">
        <ele>435.6</ele>
        <time>2022-03-01T16:38:04Z</time>
      </trkpt>
      <trkpt lat="40.0743540" lon="-4.6650320">
        <ele>435.6</ele>
        <time>2022-03-01T16:38:05Z</time>
      </trkpt>
      <trkpt lat="40.0742860" lon="-4.6649830">
        <ele>435.7</ele>
        <time>2022-03-01T16:38:06Z</time>
      </trkpt>
      <trkpt lat="40.0742160" lon="-4.6649310">
        <ele>435.8</ele>
        <time>2022-03-01T16:38:07Z</time>
      </trkpt>
      <trkpt lat="40.0741500" lon="-4.6648800">
        <ele>435.9</ele>
        <time>2022-03-01T16:38:08Z</time>
      </trkpt>
      <trkpt lat="40.0740830" lon="-4.6648320">
        <ele>435.9</ele>
        <time>2022-03-01T16:38:09Z</time>
      </trkpt>
      <trkpt lat="40.0740140" lon="-4.6647830">
        <ele>436.0</ele>
        <time>2022-03-01T16:38:10Z</time>
      </trkpt>
      <trkpt lat="40.0739440" lon="-4.6647310">
        <ele>436.1</ele>
        <time>2022-03-01T16:38:11Z</time>
      </trkpt>
      <trkpt lat="40.0738770" lon="-4.6646780">
        <ele>436.2</ele>
        <time>2022-03-01T16:38:12Z</time>
      </trkpt>
      <trkpt lat="40.0738120" lon="-4.6646280">
        <ele>436.3</ele>
        <time>2022-03-01T16:38:13Z</time>
      </trkpt>
      <trkpt lat="40.0737440" lon="-4.6645790">
        <ele>436.3</ele>
        <time>2022-03-01T16:38:14Z</time>
      </trkpt>
      <trkpt lat="40.0736740" lon="-4.6645320">
        <ele>436.4</ele>
        <time>2022-03-01T16:38:15Z</time>
      </trkpt>
      <trkpt lat="40.0736090" lon="-4.6644840">
        <ele>436.5</ele>
        <time>2022-03-01T16:38:16Z</time>
      </trkpt>
      <trkpt lat="40.0735430" lon="-4.6644380">
        <ele>436.5</ele>
        <time>2022-03-01T16:38:17Z</time>
      </trkpt>
      <trkpt lat="40.0734750" lon="-4.6643830">
        <ele>436.6</ele>
        <time>2022-03-01T16:38:18Z</time>
      </trkpt>
      <trkpt lat="40.0734040" lon="-4.6643290">
        <ele>436.6</ele>
        <time>2022-03-01T16:38:19Z</time>
      </trkpt>
      <trkpt lat="40.0733420" lon="-4.6642760">
        <ele>436.7</ele>
        <time>2022-03-01T16:38:20Z</time>
      </trkpt>
      <trkpt lat="40.0732770" lon="-4.6642290">
        <ele>436.7</ele>
        <time>2022-03-01T16:38:21Z</time>
      </trkpt>
      <trkpt lat="40.0732080" lon="-4.6641810">
        <ele>436.8</ele>
        <time>2022-03-01T16:38:22Z</time>
      </trkpt>
      <trkpt lat="40.0731400" lon="-4.6641340">
        <ele>436.8</ele>
        <time>2022-03-01T16:38:23Z</time>
      </trkpt>
      <trkpt lat="40.0730730" lon="-4.6640860">
        <ele>436.8</ele>
        <time>2022-03-01T16:38:24Z</time>
      </trkpt>
      <trkpt lat="40.0730050" lon="-4.6640340">
        <ele>436.7</ele>
        <time>2022-03-01T16:38:25Z</time>
      </trkpt>
      <trkpt lat="40.0729380" lon="-4.6639820">
        <ele>436.6</ele>
        <time>2022-03-01T16:38:26Z</time>
      </trkpt>
      <trkpt lat="40.0728710" lon="-4.6639330">
        <ele>436.4</ele>
        <time>2022-03-01T16:38:27Z</time>
      </trkpt>
      <trkpt lat="40.0728020" lon="-4.6638830">
        <ele>436.3</ele>
        <time>2022-03-01T16:38:28Z</time>
      </trkpt>
      <trkpt lat="40.0727290" lon="-4.6638250">
        <ele>436.1</ele>
        <time>2022-03-01T16:38:29Z</time>
      </trkpt>
      <trkpt lat="40.0726550" lon="-4.6637690">
        <ele>435.9</ele>
        <time>2022-03-01T16:38:30Z</time>
      </trkpt>
      <trkpt lat="40.0725800" lon="-4.6637160">
        <ele>435.7</ele>
        <time>2022-03-01T16:38:31Z</time>
      </trkpt>
      <trkpt lat="40.0725060" lon="-4.6636650">
        <ele>435.4</ele>
        <time>2022-03-01T16:38:32Z</time>
      </trkpt>
      <trkpt lat="40.0724290" lon="-4.6636070">
        <ele>435.2</ele>
        <time>2022-03-01T16:38:33Z</time>
      </trkpt>
      <trkpt lat="40.0723530" lon="-4.6635500">
        <ele>435.0</ele>
        <time>2022-03-01T16:38:34Z</time>
      </trkpt>
      <trkpt lat="40.0722740" lon="-4.6634950">
        <ele>434.7</ele>
        <time>2022-03-01T16:38:35Z</time>
      </trkpt>
      <trkpt lat="40.0721960" lon="-4.6634320">
        <ele>434.4</ele>
        <time>2022-03-01T16:38:36Z</time>
      </trkpt>
      <trkpt lat="40.0721200" lon="-4.6633750">
        <ele>434.1</ele>
        <time>2022-03-01T16:38:37Z</time>
      </trkpt>
      <trkpt lat="40.0720410" lon="-4.6633100">
        <ele>433.8</ele>
        <time>2022-03-01T16:38:38Z</time>
      </trkpt>
      <trkpt lat="40.0719530" lon="-4.6632470">
        <ele>433.5</ele>
        <time>2022-03-01T16:38:39Z</time>
      </trkpt>
      <trkpt lat="40.0718710" lon="-4.6631820">
        <ele>433.2</ele>
        <time>2022-03-01T16:38:40Z</time>
      </trkpt>
      <trkpt lat="40.0717880" lon="-4.6631200">
        <ele>432.9</ele>
        <time>2022-03-01T16:38:41Z</time>
      </trkpt>
      <trkpt lat="40.0717040" lon="-4.6630580">
        <ele>432.6</ele>
        <time>2022-03-01T16:38:42Z</time>
      </trkpt>
      <trkpt lat="40.0716200" lon="-4.6629920">
        <ele>432.3</ele>
        <time>2022-03-01T16:38:43Z</time>
      </trkpt>
      <trkpt lat="40.0715350" lon="-4.6629310">
        <ele>431.9</ele>
        <time>2022-03-01T16:38:44Z</time>
      </trkpt>
      <trkpt lat="40.0714480" lon="-4.6628660">
        <ele>431.7</ele>
        <time>2022-03-01T16:38:45Z</time>
      </trkpt>
      <trkpt lat="40.0713600" lon="-4.6628030">
        <ele>431.3</ele>
        <time>2022-03-01T16:38:46Z</time>
      </trkpt>
      <trkpt lat="40.0712750" lon="-4.6627370">
        <ele>431.0</ele>
        <time>2022-03-01T16:38:47Z</time>
      </trkpt>
      <trkpt lat="40.0711860" lon="-4.6626690">
        <ele>430.6</ele>
        <time>2022-03-01T16:38:48Z</time>
      </trkpt>
      <trkpt lat="40.0710950" lon="-4.6626040">
        <ele>430.3</ele>
        <time>2022-03-01T16:38:49Z</time>
      </trkpt>
      <trkpt lat="40.0710080" lon="-4.6625400">
        <ele>429.9</ele>
        <time>2022-03-01T16:38:50Z</time>
      </trkpt>
      <trkpt lat="40.0709200" lon="-4.6624740">
        <ele>429.6</ele>
        <time>2022-03-01T16:38:51Z</time>
      </trkpt>
      <trkpt lat="40.0708330" lon="-4.6624070">
        <ele>429.2</ele>
        <time>2022-03-01T16:38:52Z</time>
      </trkpt>
      <trkpt lat="40.0707470" lon="-4.6623400">
        <ele>428.9</ele>
        <time>2022-03-01T16:38:53Z</time>
      </trkpt>
      <trkpt lat="40.0706500" lon="-4.6623040">
        <ele>428.6</ele>
        <time>2022-03-01T16:38:54Z</time>
      </trkpt>
      <trkpt lat="40.0705580" lon="-4.6622360">
        <ele>428.2</ele>
        <time>2022-03-01T16:38:55Z</time>
      </trkpt>
      <trkpt lat="40.0704700" lon="-4.6621730">
        <ele>427.9</ele>
        <time>2022-03-01T16:38:56Z</time>
      </trkpt>
      <trkpt lat="40.0703800" lon="-4.6621090">
        <ele>427.6</ele>
        <time>2022-03-01T16:38:57Z</time>
      </trkpt>
      <trkpt lat="40.0702930" lon="-4.6620410">
        <ele>427.3</ele>
        <time>2022-03-01T16:38:58Z</time>
      </trkpt>
      <trkpt lat="40.0702050" lon="-4.6619710">
        <ele>427.0</ele>
        <time>2022-03-01T16:38:59Z</time>
      </trkpt>
      <trkpt lat="40.0701170" lon="-4.6619000">
        <ele>426.6</ele>
        <time>2022-03-01T16:39:00Z</time>
      </trkpt>
      <trkpt lat="40.0700310" lon="-4.6618400">
        <ele>426.3</ele>
        <time>2022-03-01T16:39:01Z</time>
      </trkpt>
      <trkpt lat="40.0699380" lon="-4.6617690">
        <ele>426.0</ele>
        <time>2022-03-01T16:39:02Z</time>
      </trkpt>
      <trkpt lat="40.0698500" lon="-4.6617050">
        <ele>425.7</ele>
        <time>2022-03-01T16:39:03Z</time>
      </trkpt>
      <trkpt lat="40.0697580" lon="-4.6616360">
        <ele>425.4</ele>
        <time>2022-03-01T16:39:04Z</time>
      </trkpt>
      <trkpt lat="40.0696660" lon="-4.6615640">
        <ele>425.1</ele>
        <time>2022-03-01T16:39:05Z</time>
      </trkpt>
      <trkpt lat="40.0695760" lon="-4.6614970">
        <ele>424.8</ele>
        <time>2022-03-01T16:39:06Z</time>
      </trkpt>
      <trkpt lat="40.0694790" lon="-4.6614260">
        <ele>424.5</ele>
        <time>2022-03-01T16:39:07Z</time>
      </trkpt>
      <trkpt lat="40.0693870" lon="-4.6613570">
        <ele>424.2</ele>
        <time>2022-03-01T16:39:08Z</time>
      </trkpt>
      <trkpt lat="40.0692950" lon="-4.6612880">
        <ele>424.0</ele>
        <time>2022-03-01T16:39:09Z</time>
      </trkpt>
      <trkpt lat="40.0692020" lon="-4.6612200">
        <ele>423.8</ele>
        <time>2022-03-01T16:39:10Z</time>
      </trkpt>
      <trkpt lat="40.0691110" lon="-4.6611520">
        <ele>423.6</ele>
        <time>2022-03-01T16:39:11Z</time>
      </trkpt>
      <trkpt lat="40.0690160" lon="-4.6610810">
        <ele>423.4</ele>
        <time>2022-03-01T16:39:12Z</time>
      </trkpt>
      <trkpt lat="40.0689240" lon="-4.6610120">
        <ele>423.2</ele>
        <time>2022-03-01T16:39:13Z</time>
      </trkpt>
      <trkpt lat="40.0688350" lon="-4.6609390">
        <ele>423.0</ele>
        <time>2022-03-01T16:39:14Z</time>
      </trkpt>
      <trkpt lat="40.0687420" lon="-4.6608710">
        <ele>422.8</ele>
        <time>2022-03-01T16:39:15Z</time>
      </trkpt>
      <trkpt lat="40.0686500" lon="-4.6608060">
        <ele>422.6</ele>
        <time>2022-03-01T16:39:16Z</time>
      </trkpt>
      <trkpt lat="40.0685580" lon="-4.6607350">
        <ele>422.4</ele>
        <time>2022-03-01T16:39:17Z</time>
      </trkpt>
      <trkpt lat="40.0684670" lon="-4.6606670">
        <ele>422.2</ele>
        <time>2022-03-01T16:39:18Z</time>
      </trkpt>
      <trkpt lat="40.0683750" lon="-4.6605980">
        <ele>422.1</ele>
        <time>2022-03-01T16:39:19Z</time>
      </trkpt>
      <trkpt lat="40.0682840" lon="-4.6605300">
        <ele>421.9</ele>
        <time>2022-03-01T16:39:20Z</time>
      </trkpt>
      <trkpt lat="40.0681930" lon="-4.6604610">
        <ele>421.6</ele>
        <time>2022-03-01T16:39:21Z</time>
      </trkpt>
      <trkpt lat="40.0681020" lon="-4.6603910">
        <ele>421.5</ele>
        <time>2022-03-01T16:39:22Z</time>
      </trkpt>
      <trkpt lat="40.0680120" lon="-4.6603220">
        <ele>421.3</ele>
        <time>2022-03-01T16:39:23Z</time>
      </trkpt>
      <trkpt lat="40.0679220" lon="-4.6602620">
        <ele>421.1</ele>
        <time>2022-03-01T16:39:24Z</time>
      </trkpt>
      <trkpt lat="40.0678320" lon="-4.6601940">
        <ele>421.0</ele>
        <time>2022-03-01T16:39:25Z</time>
      </trkpt>
      <trkpt lat="40.0677390" lon="-4.6601280">
        <ele>420.8</ele>
        <time>2022-03-01T16:39:26Z</time>
      </trkpt>
      <trkpt lat="40.0676490" lon="-4.6600640">
        <ele>420.6</ele>
        <time>2022-03-01T16:39:27Z</time>
      </trkpt>
      <trkpt lat="40.0675600" lon="-4.6600020">
        <ele>420.4</ele>
        <time>2022-03-01T16:39:28Z</time>
      </trkpt>
      <trkpt lat="40.0674750" lon="-4.6599340">
        <ele>420.2</ele>
        <time>2022-03-01T16:39:29Z</time>
      </trkpt>
      <trkpt lat="40.0673870" lon="-4.6598730">
        <ele>420.1</ele>
        <time>2022-03-01T16:39:30Z</time>
      </trkpt>
      <trkpt lat="40.0672990" lon="-4.6598040">
        <ele>419.9</ele>
        <time>2022-03-01T16:39:31Z</time>
      </trkpt>
      <trkpt lat="40.0672110" lon="-4.6597410">
        <ele>419.7</ele>
        <time>2022-03-01T16:39:32Z</time>
      </trkpt>
      <trkpt lat="40.0671210" lon="-4.6596750">
        <ele>419.5</ele>
        <time>2022-03-01T16:39:33Z</time>
      </trkpt>
      <trkpt lat="40.0670340" lon="-4.6596100">
        <ele>419.3</ele>
        <time>2022-03-01T16:39:34Z</time>
      </trkpt>
      <trkpt lat="40.0669460" lon="-4.6595470">
        <ele>419.0</ele>
        <time>2022-03-01T16:39:35Z</time>
      </trkpt>
      <trkpt lat="40.0668600" lon="-4.6594790">
        <ele>418.8</ele>
        <time>2022-03-01T16:39:36Z</time>
      </trkpt>
      <trkpt lat="40.0667740" lon="-4.6594150">
        <ele>418.6</ele>
        <time>2022-03-01T16:39:37Z</time>
      </trkpt>
      <trkpt lat="40.0666880" lon="-4.6593480">
        <ele>418.2</ele>
        <time>2022-03-01T16:39:38Z</time>
      </trkpt>
      <trkpt lat="40.0666000" lon="-4.6592830">
        <ele>417.9</ele>
        <time>2022-03-01T16:39:39Z</time>
      </trkpt>
      <trkpt lat="40.0665100" lon="-4.6592180">
        <ele>417.6</ele>
        <time>2022-03-01T16:39:40Z</time>
      </trkpt>
      <trkpt lat="40.0664190" lon="-4.6591510">
        <ele>417.2</ele>
        <time>2022-03-01T16:39:41Z</time>
      </trkpt>
      <trkpt lat="40.0663290" lon="-4.6590870">
        <ele>416.8</ele>
        <time>2022-03-01T16:39:42Z</time>
      </trkpt>
      <trkpt lat="40.0662390" lon="-4.6590230">
        <ele>416.4</ele>
        <time>2022-03-01T16:39:43Z</time>
      </trkpt>
      <trkpt lat="40.0661500" lon="-4.6589540">
        <ele>416.0</ele>
        <time>2022-03-01T16:39:44Z</time>
      </trkpt>
      <trkpt lat="40.0660580" lon="-4.6588870">
        <ele>415.5</ele>
        <time>2022-03-01T16:39:45Z</time>
      </trkpt>
      <trkpt lat="40.0659680" lon="-4.6588170">
        <ele>415.0</ele>
        <time>2022-03-01T16:39:46Z</time>
      </trkpt>
      <trkpt lat="40.0658750" lon="-4.6587470">
        <ele>414.4</ele>
        <time>2022-03-01T16:39:47Z</time>
      </trkpt>
      <trkpt lat="40.0657840" lon="-4.6586790">
        <ele>414.0</ele>
        <time>2022-03-01T16:39:48Z</time>
      </trkpt>
      <trkpt lat="40.0656920" lon="-4.6586110">
        <ele>413.5</ele>
        <time>2022-03-01T16:39:49Z</time>
      </trkpt>
      <trkpt lat="40.0656010" lon="-4.6585430">
        <ele>413.1</ele>
        <time>2022-03-01T16:39:50Z</time>
      </trkpt>
      <trkpt lat="40.0655050" lon="-4.6584670">
        <ele>412.6</ele>
        <time>2022-03-01T16:39:51Z</time>
      </trkpt>
      <trkpt lat="40.0654110" lon="-4.6583960">
        <ele>412.1</ele>
        <time>2022-03-01T16:39:52Z</time>
      </trkpt>
      <trkpt lat="40.0653170" lon="-4.6583270">
        <ele>411.6</ele>
        <time>2022-03-01T16:39:53Z</time>
      </trkpt>
      <trkpt lat="40.0652210" lon="-4.6582570">
        <ele>411.2</ele>
        <time>2022-03-01T16:39:54Z</time>
      </trkpt>
      <trkpt lat="40.0651250" lon="-4.6581870">
        <ele>410.8</ele>
        <time>2022-03-01T16:39:55Z</time>
      </trkpt>
      <trkpt lat="40.0650270" lon="-4.6581170">
        <ele>410.5</ele>
        <time>2022-03-01T16:39:56Z</time>
      </trkpt>
      <trkpt lat="40.0649310" lon="-4.6580410">
        <ele>410.2</ele>
        <time>2022-03-01T16:39:57Z</time>
      </trkpt>
      <trkpt lat="40.0648290" lon="-4.6579950">
        <ele>409.9</ele>
        <time>2022-03-01T16:39:58Z</time>
      </trkpt>
      <trkpt lat="40.0647340" lon="-4.6579290">
        <ele>409.7</ele>
        <time>2022-03-01T16:39:59Z</time>
      </trkpt>
      <trkpt lat="40.0646400" lon="-4.6578590">
        <ele>409.5</ele>
        <time>2022-03-01T16:40:00Z</time>
      </trkpt>
      <trkpt lat="40.0645470" lon="-4.6577820">
        <ele>409.3</ele>
        <time>2022-03-01T16:40:01Z</time>
      </trkpt>
      <trkpt lat="40.0644530" lon="-4.6577050">
        <ele>409.1</ele>
        <time>2022-03-01T16:40:02Z</time>
      </trkpt>
      <trkpt lat="40.0643630" lon="-4.6576290">
        <ele>409.0</ele>
        <time>2022-03-01T16:40:03Z</time>
      </trkpt>
      <trkpt lat="40.0642740" lon="-4.6575610">
        <ele>408.9</ele>
        <time>2022-03-01T16:40:04Z</time>
      </trkpt>
      <trkpt lat="40.0641840" lon="-4.6574920">
        <ele>408.8</ele>
        <time>2022-03-01T16:40:05Z</time>
      </trkpt>
      <trkpt lat="40.0640960" lon="-4.6574260">
        <ele>408.8</ele>
        <time>2022-03-01T16:40:06Z</time>
      </trkpt>
      <trkpt lat="40.0640080" lon="-4.6573600">
        <ele>408.8</ele>
        <time>2022-03-01T16:40:07Z</time>
      </trkpt>
      <trkpt lat="40.0639210" lon="-4.6572940">
        <ele>408.7</ele>
        <time>2022-03-01T16:40:08Z</time>
      </trkpt>
      <trkpt lat="40.0638340" lon="-4.6572270">
        <ele>408.7</ele>
        <time>2022-03-01T16:40:09Z</time>
      </trkpt>
      <trkpt lat="40.0637470" lon="-4.6571620">
        <ele>408.7</ele>
        <time>2022-03-01T16:40:10Z</time>
      </trkpt>
      <trkpt lat="40.0636610" lon="-4.6570910">
        <ele>408.7</ele>
        <time>2022-03-01T16:40:11Z</time>
      </trkpt>
      <trkpt lat="40.0635750" lon="-4.6570230">
        <ele>408.6</ele>
        <time>2022-03-01T16:40:12Z</time>
      </trkpt>
      <trkpt lat="40.0634890" lon="-4.6569520">
        <ele>408.6</ele>
        <time>2022-03-01T16:40:13Z</time>
      </trkpt>
      <trkpt lat="40.0634000" lon="-4.6568820">
        <ele>408.6</ele>
        <time>2022-03-01T16:40:14Z</time>
      </trkpt>
      <trkpt lat="40.0633130" lon="-4.6568170">
        <ele>408.6</ele>
        <time>2022-03-01T16:40:15Z</time>
      </trkpt>
      <trkpt lat="40.0632280" lon="-4.6567530">
        <ele>408.5</ele>
        <time>2022-03-01T16:40:16Z</time>
      </trkpt>
      <trkpt lat="40.0631460" lon="-4.6566950">
        <ele>408.5</ele>
        <time>2022-03-01T16:40:17Z</time>
      </trkpt>
      <trkpt lat="40.0630580" lon="-4.6566320">
        <ele>408.5</ele>
        <time>2022-03-01T16:40:18Z</time>
      </trkpt>
      <trkpt lat="40.0629720" lon="-4.6565680">
        <ele>408.5</ele>
        <time>2022-03-01T16:40:19Z</time>
      </trkpt>
      <trkpt lat="40.0628910" lon="-4.6565090">
        <ele>408.5</ele>
        <time>2022-03-01T16:40:20Z</time>
      </trkpt>
      <trkpt lat="40.0628110" lon="-4.6564490">
        <ele>408.5</ele>
        <time>2022-03-01T16:40:21Z</time>
      </trkpt>
      <trkpt lat="40.0627350" lon="-4.6563870">
        <ele>408.5</ele>
        <time>2022-03-01T16:40:22Z</time>
      </trkpt>
      <trkpt lat="40.0626630" lon="-4.6563240">
        <ele>408.4</ele>
        <time>2022-03-01T16:40:23Z</time>
      </trkpt>
      <trkpt lat="40.0625940" lon="-4.6562580">
        <ele>408.3</ele>
        <time>2022-03-01T16:40:24Z</time>
      </trkpt>
      <trkpt lat="40.0625330" lon="-4.6561840">
        <ele>408.2</ele>
        <time>2022-03-01T16:40:25Z</time>
      </trkpt>
      <trkpt lat="40.0624740" lon="-4.6561010">
        <ele>408.0</ele>
        <time>2022-03-01T16:40:26Z</time>
      </trkpt>
      <trkpt lat="40.0624190" lon="-4.6560190">
        <ele>407.7</ele>
        <time>2022-03-01T16:40:27Z</time>
      </trkpt>
      <trkpt lat="40.0623740" lon="-4.6559280">
        <ele>407.4</ele>
        <time>2022-03-01T16:40:28Z</time>
      </trkpt>
      <trkpt lat="40.0623240" lon="-4.6558180">
        <ele>407.0</ele>
        <time>2022-03-01T16:40:29Z</time>
      </trkpt>
      <trkpt lat="40.0622790" lon="-4.6557160">
        <ele>406.6</ele>
        <time>2022-03-01T16:40:30Z</time>
      </trkpt>
      <trkpt lat="40.0622340" lon="-4.6556160">
        <ele>406.2</ele>
        <time>2022-03-01T16:40:31Z</time>
      </trkpt>
      <trkpt lat="40.0621900" lon="-4.6555100">
        <ele>405.8</ele>
        <time>2022-03-01T16:40:32Z</time>
      </trkpt>
      <trkpt lat="40.0621390" lon="-4.6553980">
        <ele>405.3</ele>
        <time>2022-03-01T16:40:33Z</time>
      </trkpt>
      <trkpt lat="40.0620910" lon="-4.6552810">
        <ele>405.0</ele>
        <time>2022-03-01T16:40:34Z</time>
      </trkpt>
      <trkpt lat="40.0620410" lon="-4.6551600">
        <ele>404.7</ele>
        <time>2022-03-01T16:40:35Z</time>
      </trkpt>
      <trkpt lat="40.0619760" lon="-4.6550570">
        <ele>404.4</ele>
        <time>2022-03-01T16:40:36Z</time>
      </trkpt>
      <trkpt lat="40.0619150" lon="-4.6549500">
        <ele>403.9</ele>
        <time>2022-03-01T16:40:37Z</time>
      </trkpt>
      <trkpt lat="40.0618510" lon="-4.6548300">
        <ele>403.5</ele>
        <time>2022-03-01T16:40:38Z</time>
      </trkpt>
      <trkpt lat="40.0617860" lon="-4.6547220">
        <ele>403.0</ele>
        <time>2022-03-01T16:40:39Z</time>
      </trkpt>
      <trkpt lat="40.0617130" lon="-4.6546150">
        <ele>402.9</ele>
        <time>2022-03-01T16:40:40Z</time>
      </trkpt>
      <trkpt lat="40.0616340" lon="-4.6545150">
        <ele>402.3</ele>
        <time>2022-03-01T16:40:41Z</time>
      </trkpt>
      <trkpt lat="40.0615540" lon="-4.6544230">
        <ele>401.7</ele>
        <time>2022-03-01T16:40:42Z</time>
      </trkpt>
      <trkpt lat="40.0614630" lon="-4.6543530">
        <ele>401.1</ele>
        <time>2022-03-01T16:40:43Z</time>
      </trkpt>
      <trkpt lat="40.0613750" lon="-4.6542740">
        <ele>400.4</ele>
        <time>2022-03-01T16:40:44Z</time>
      </trkpt>
      <trkpt lat="40.0612830" lon="-4.6542130">
        <ele>399.9</ele>
        <time>2022-03-01T16:40:45Z</time>
      </trkpt>
      <trkpt lat="40.0611870" lon="-4.6541640">
        <ele>399.6</ele>
        <time>2022-03-01T16:40:46Z</time>
      </trkpt>
      <trkpt lat="40.0610900" lon="-4.6541250">
        <ele>399.6</ele>
        <time>2022-03-01T16:40:47Z</time>
      </trkpt>
      <trkpt lat="40.0609910" lon="-4.6540930">
        <ele>399.6</ele>
        <time>2022-03-01T16:40:48Z</time>
      </trkpt>
      <trkpt lat="40.0609000" lon="-4.6540670">
        <ele>399.5</ele>
        <time>2022-03-01T16:40:49Z</time>
      </trkpt>
      <trkpt lat="40.0608030" lon="-4.6540430">
        <ele>399.4</ele>
        <time>2022-03-01T16:40:50Z</time>
      </trkpt>
      <trkpt lat="40.0607040" lon="-4.6540200">
        <ele>399.4</ele>
        <time>2022-03-01T16:40:51Z</time>
      </trkpt>
      <trkpt lat="40.0606080" lon="-4.6540010">
        <ele>399.3</ele>
        <time>2022-03-01T16:40:52Z</time>
      </trkpt>
      <trkpt lat="40.0605150" lon="-4.6539860">
        <ele>399.3</ele>
        <time>2022-03-01T16:40:53Z</time>
      </trkpt>
      <trkpt lat="40.0604200" lon="-4.6539760">
        <ele>399.4</ele>
        <time>2022-03-01T16:40:54Z</time>
      </trkpt>
      <trkpt lat="40.0603300" lon="-4.6539620">
        <ele>399.5</ele>
        <time>2022-03-01T16:40:55Z</time>
      </trkpt>
      <trkpt lat="40.0602420" lon="-4.6539530">
        <ele>399.6</ele>
        <time>2022-03-01T16:40:56Z</time>
      </trkpt>
      <trkpt lat="40.0601510" lon="-4.6539410">
        <ele>399.7</ele>
        <time>2022-03-01T16:40:57Z</time>
      </trkpt>
      <trkpt lat="40.0600630" lon="-4.6539320">
        <ele>399.8</ele>
        <time>2022-03-01T16:40:58Z</time>
      </trkpt>
      <trkpt lat="40.0599770" lon="-4.6539210">
        <ele>400.0</ele>
        <time>2022-03-01T16:40:59Z</time>
      </trkpt>
      <trkpt lat="40.0598930" lon="-4.6539140">
        <ele>400.2</ele>
        <time>2022-03-01T16:41:00Z</time>
      </trkpt>
      <trkpt lat="40.0598080" lon="-4.6539010">
        <ele>400.4</ele>
        <time>2022-03-01T16:41:01Z</time>
      </trkpt>
      <trkpt lat="40.0597240" lon="-4.6538920">
        <ele>400.6</ele>
        <time>2022-03-01T16:41:02Z</time>
      </trkpt>
      <trkpt lat="40.0596460" lon="-4.6538830">
        <ele>400.8</ele>
        <time>2022-03-01T16:41:03Z</time>
      </trkpt>
      <trkpt lat="40.0595650" lon="-4.6538700">
        <ele>401.1</ele>
        <time>2022-03-01T16:41:04Z</time>
      </trkpt>
      <trkpt lat="40.0594890" lon="-4.6538600">
        <ele>401.3</ele>
        <time>2022-03-01T16:41:05Z</time>
      </trkpt>
      <trkpt lat="40.0594130" lon="-4.6538470">
        <ele>401.6</ele>
        <time>2022-03-01T16:41:06Z</time>
      </trkpt>
      <trkpt lat="40.0593420" lon="-4.6538370">
        <ele>401.8</ele>
        <time>2022-03-01T16:41:07Z</time>
      </trkpt>
      <trkpt lat="40.0592740" lon="-4.6538250">
        <ele>402.1</ele>
        <time>2022-03-01T16:41:08Z</time>
      </trkpt>
      <trkpt lat="40.0592050" lon="-4.6538160">
        <ele>402.4</ele>
        <time>2022-03-01T16:41:09Z</time>
      </trkpt>
      <trkpt lat="40.0591330" lon="-4.6538050">
        <ele>402.6</ele>
        <time>2022-03-01T16:41:10Z</time>
      </trkpt>
      <trkpt lat="40.0590610" lon="-4.6537970">
        <ele>402.9</ele>
        <time>2022-03-01T16:41:11Z</time>
      </trkpt>
      <trkpt lat="40.0589920" lon="-4.6537790">
        <ele>403.1</ele>
        <time>2022-03-01T16:41:12Z</time>
      </trkpt>
      <trkpt lat="40.0589260" lon="-4.6537720">
        <ele>403.4</ele>
        <time>2022-03-01T16:41:13Z</time>
      </trkpt>
      <trkpt lat="40.0588540" lon="-4.6537600">
        <ele>403.6</ele>
        <time>2022-03-01T16:41:14Z</time>
      </trkpt>
      <trkpt lat="40.0587930" lon="-4.6537550">
        <ele>403.9</ele>
        <time>2022-03-01T16:41:15Z</time>
      </trkpt>
      <trkpt lat="40.0587280" lon="-4.6537470">
        <ele>404.1</ele>
        <time>2022-03-01T16:41:16Z</time>
      </trkpt>
      <trkpt lat="40.0586570" lon="-4.6537340">
        <ele>404.3</ele>
        <time>2022-03-01T16:41:17Z</time>
      </trkpt>
      <trkpt lat="40.0585880" lon="-4.6537250">
        <ele>404.5</ele>
        <time>2022-03-01T16:41:18Z</time>
      </trkpt>
      <trkpt lat="40.0585210" lon="-4.6537170">
        <ele>404.7</ele>
        <time>2022-03-01T16:41:19Z</time>
      </trkpt>
      <trkpt lat="40.0584510" lon="-4.6537090">
        <ele>404.9</ele>
        <time>2022-03-01T16:41:20Z</time>
      </trkpt>
      <trkpt lat="40.0583810" lon="-4.6536930">
        <ele>405.1</ele>
        <time>2022-03-01T16:41:21Z</time>
      </trkpt>
      <trkpt lat="40.0583130" lon="-4.6536840">
        <ele>405.3</ele>
        <time>2022-03-01T16:41:22Z</time>
      </trkpt>
      <trkpt lat="40.0582450" lon="-4.6536790">
        <ele>405.4</ele>
        <time>2022-03-01T16:41:23Z</time>
      </trkpt>
      <trkpt lat="40.0581750" lon="-4.6536690">
        <ele>405.5</ele>
        <time>2022-03-01T16:41:24Z</time>
      </trkpt>
      <trkpt lat="40.0581100" lon="-4.6536630">
        <ele>405.6</ele>
        <time>2022-03-01T16:41:25Z</time>
      </trkpt>
      <trkpt lat="40.0580410" lon="-4.6536570">
        <ele>405.8</ele>
        <time>2022-03-01T16:41:26Z</time>
      </trkpt>
      <trkpt lat="40.0579720" lon="-4.6536480">
        <ele>405.9</ele>
        <time>2022-03-01T16:41:27Z</time>
      </trkpt>
      <trkpt lat="40.0579040" lon="-4.6536420">
        <ele>405.9</ele>
        <time>2022-03-01T16:41:28Z</time>
      </trkpt>
      <trkpt lat="40.0578390" lon="-4.6536130">
        <ele>406.0</ele>
        <time>2022-03-01T16:41:29Z</time>
      </trkpt>
      <trkpt lat="40.0577750" lon="-4.6536160">
        <ele>406.1</ele>
        <time>2022-03-01T16:41:30Z</time>
      </trkpt>
      <trkpt lat="40.0576980" lon="-4.6536030">
        <ele>406.1</ele>
        <time>2022-03-01T16:41:31Z</time>
      </trkpt>
      <trkpt lat="40.0576290" lon="-4.6535940">
        <ele>406.2</ele>
        <time>2022-03-01T16:41:32Z</time>
      </trkpt>
      <trkpt lat="40.0575640" lon="-4.6535920">
        <ele>406.2</ele>
        <time>2022-03-01T16:41:33Z</time>
      </trkpt>
      <trkpt lat="40.0574900" lon="-4.6535780">
        <ele>406.2</ele>
        <time>2022-03-01T16:41:34Z</time>
      </trkpt>
      <trkpt lat="40.0574160" lon="-4.6535720">
        <ele>406.2</ele>
        <time>2022-03-01T16:41:35Z</time>
      </trkpt>
      <trkpt lat="40.0573460" lon="-4.6535640">
        <ele>406.2</ele>
        <time>2022-03-01T16:41:36Z</time>
      </trkpt>
      <trkpt lat="40.0572800" lon="-4.6535560">
        <ele>406.1</ele>
        <time>2022-03-01T16:41:37Z</time>
      </trkpt>
      <trkpt lat="40.0572080" lon="-4.6535450">
        <ele>406.1</ele>
        <time>2022-03-01T16:41:38Z</time>
      </trkpt>
      <trkpt lat="40.0571370" lon="-4.6535430">
        <ele>406.0</ele>
        <time>2022-03-01T16:41:39Z</time>
      </trkpt>
      <trkpt lat="40.0570610" lon="-4.6535300">
        <ele>406.0</ele>
        <time>2022-03-01T16:41:40Z</time>
      </trkpt>
      <trkpt lat="40.0569870" lon="-4.6535180">
        <ele>405.9</ele>
        <time>2022-03-01T16:41:41Z</time>
      </trkpt>
      <trkpt lat="40.0569170" lon="-4.6535140">
        <ele>405.8</ele>
        <time>2022-03-01T16:41:42Z</time>
      </trkpt>
      <trkpt lat="40.0568370" lon="-4.6534970">
        <ele>405.7</ele>
        <time>2022-03-01T16:41:43Z</time>
      </trkpt>
      <trkpt lat="40.0567630" lon="-4.6534880">
        <ele>405.7</ele>
        <time>2022-03-01T16:41:44Z</time>
      </trkpt>
      <trkpt lat="40.0566870" lon="-4.6534800">
        <ele>405.6</ele>
        <time>2022-03-01T16:41:45Z</time>
      </trkpt>
      <trkpt lat="40.0566120" lon="-4.6534720">
        <ele>405.5</ele>
        <time>2022-03-01T16:41:46Z</time>
      </trkpt>
      <trkpt lat="40.0565400" lon="-4.6534670">
        <ele>405.4</ele>
        <time>2022-03-01T16:41:47Z</time>
      </trkpt>
      <trkpt lat="40.0564660" lon="-4.6534520">
        <ele>405.3</ele>
        <time>2022-03-01T16:41:48Z</time>
      </trkpt>
      <trkpt lat="40.0563870" lon="-4.6534430">
        <ele>405.2</ele>
        <time>2022-03-01T16:41:49Z</time>
      </trkpt>
      <trkpt lat="40.0563110" lon="-4.6534360">
        <ele>405.1</ele>
        <time>2022-03-01T16:41:50Z</time>
      </trkpt>
      <trkpt lat="40.0562280" lon="-4.6534260">
        <ele>405.1</ele>
        <time>2022-03-01T16:41:51Z</time>
      </trkpt>
      <trkpt lat="40.0561460" lon="-4.6534250">
        <ele>405.0</ele>
        <time>2022-03-01T16:41:52Z</time>
      </trkpt>
      <trkpt lat="40.0560640" lon="-4.6534100">
        <ele>404.9</ele>
        <time>2022-03-01T16:41:53Z</time>
      </trkpt>
      <trkpt lat="40.0559820" lon="-4.6533930">
        <ele>404.8</ele>
        <time>2022-03-01T16:41:54Z</time>
      </trkpt>
      <trkpt lat="40.0559010" lon="-4.6533830">
        <ele>404.7</ele>
        <time>2022-03-01T16:41:55Z</time>
      </trkpt>
      <trkpt lat="40.0558180" lon="-4.6533720">
        <ele>404.6</ele>
        <time>2022-03-01T16:41:56Z</time>
      </trkpt>
      <trkpt lat="40.0557350" lon="-4.6533610">
        <ele>404.5</ele>
        <time>2022-03-01T16:41:57Z</time>
      </trkpt>
      <trkpt lat="40.0556480" lon="-4.6533510">
        <ele>404.4</ele>
        <time>2022-03-01T16:41:58Z</time>
      </trkpt>
      <trkpt lat="40.0555650" lon="-4.6533410">
        <ele>404.3</ele>
        <time>2022-03-01T16:41:59Z</time>
      </trkpt>
      <trkpt lat="40.0554820" lon="-4.6533290">
        <ele>404.2</ele>
        <time>2022-03-01T16:42:00Z</time>
      </trkpt>
      <trkpt lat="40.0553950" lon="-4.6533180">
        <ele>404.0</ele>
        <time>2022-03-01T16:42:01Z</time>
      </trkpt>
      <trkpt lat="40.0553140" lon="-4.6533100">
        <ele>403.9</ele>
        <time>2022-03-01T16:42:02Z</time>
      </trkpt>
      <trkpt lat="40.0552250" lon="-4.6532980">
        <ele>403.8</ele>
        <time>2022-03-01T16:42:03Z</time>
      </trkpt>
      <trkpt lat="40.0551440" lon="-4.6532860">
        <ele>403.7</ele>
        <time>2022-03-01T16:42:04Z</time>
      </trkpt>
      <trkpt lat="40.0550610" lon="-4.6532750">
        <ele>403.6</ele>
        <time>2022-03-01T16:42:05Z</time>
      </trkpt>
      <trkpt lat="40.0549780" lon="-4.6532680">
        <ele>403.5</ele>
        <time>2022-03-01T16:42:06Z</time>
      </trkpt>
      <trkpt lat="40.0548900" lon="-4.6532590">
        <ele>403.4</ele>
        <time>2022-03-01T16:42:07Z</time>
      </trkpt>
      <trkpt lat="40.0547990" lon="-4.6532440">
        <ele>403.2</ele>
        <time>2022-03-01T16:42:08Z</time>
      </trkpt>
      <trkpt lat="40.0547120" lon="-4.6532220">
        <ele>403.1</ele>
        <time>2022-03-01T16:42:09Z</time>
      </trkpt>
      <trkpt lat="40.0546250" lon="-4.6532090">
        <ele>403.0</ele>
        <time>2022-03-01T16:42:10Z</time>
      </trkpt>
      <trkpt lat="40.0545380" lon="-4.6531980">
        <ele>402.9</ele>
        <time>2022-03-01T16:42:11Z</time>
      </trkpt>
      <trkpt lat="40.0544480" lon="-4.6531870">
        <ele>402.7</ele>
        <time>2022-03-01T16:42:12Z</time>
      </trkpt>
      <trkpt lat="40.0543590" lon="-4.6531730">
        <ele>402.6</ele>
        <time>2022-03-01T16:42:13Z</time>
      </trkpt>
      <trkpt lat="40.0542740" lon="-4.6531640">
        <ele>402.4</ele>
        <time>2022-03-01T16:42:14Z</time>
      </trkpt>
      <trkpt lat="40.0541840" lon="-4.6531550">
        <ele>402.3</ele>
        <time>2022-03-01T16:42:15Z</time>
      </trkpt>
      <trkpt lat="40.0540900" lon="-4.6531420">
        <ele>402.2</ele>
        <time>2022-03-01T16:42:16Z</time>
      </trkpt>
      <trkpt lat="40.0539960" lon="-4.6531300">
        <ele>402.1</ele>
        <time>2022-03-01T16:42:17Z</time>
      </trkpt>
      <trkpt lat="40.0539030" lon="-4.6531200">
        <ele>401.9</ele>
        <time>2022-03-01T16:42:18Z</time>
      </trkpt>
      <trkpt lat="40.0538030" lon="-4.6531030">
        <ele>401.8</ele>
        <time>2022-03-01T16:42:19Z</time>
      </trkpt>
      <trkpt lat="40.0537110" lon="-4.6530910">
        <ele>401.7</ele>
        <time>2022-03-01T16:42:20Z</time>
      </trkpt>
      <trkpt lat="40.0536180" lon="-4.6530770">
        <ele>401.5</ele>
        <time>2022-03-01T16:42:21Z</time>
      </trkpt>
      <trkpt lat="40.0535240" lon="-4.6530690">
        <ele>401.4</ele>
        <time>2022-03-01T16:42:22Z</time>
      </trkpt>
      <trkpt lat="40.0534290" lon="-4.6530590">
        <ele>401.3</ele>
        <time>2022-03-01T16:42:23Z</time>
      </trkpt>
      <trkpt lat="40.0533340" lon="-4.6530450">
        <ele>401.1</ele>
        <time>2022-03-01T16:42:24Z</time>
      </trkpt>
      <trkpt lat="40.0532440" lon="-4.6530320">
        <ele>401.0</ele>
        <time>2022-03-01T16:42:25Z</time>
      </trkpt>
      <trkpt lat="40.0531530" lon="-4.6530160">
        <ele>400.9</ele>
        <time>2022-03-01T16:42:26Z</time>
      </trkpt>
      <trkpt lat="40.0530600" lon="-4.6530030">
        <ele>400.8</ele>
        <time>2022-03-01T16:42:27Z</time>
      </trkpt>
      <trkpt lat="40.0529650" lon="-4.6529860">
        <ele>400.7</ele>
        <time>2022-03-01T16:42:28Z</time>
      </trkpt>
      <trkpt lat="40.0528690" lon="-4.6529750">
        <ele>400.5</ele>
        <time>2022-03-01T16:42:29Z</time>
      </trkpt>
      <trkpt lat="40.0527750" lon="-4.6529630">
        <ele>400.4</ele>
        <time>2022-03-01T16:42:30Z</time>
      </trkpt>
      <trkpt lat="40.0526770" lon="-4.6529480">
        <ele>400.3</ele>
        <time>2022-03-01T16:42:31Z</time>
      </trkpt>
      <trkpt lat="40.0525800" lon="-4.6529370">
        <ele>400.2</ele>
        <time>2022-03-01T16:42:32Z</time>
      </trkpt>
      <trkpt lat="40.0524840" lon="-4.6529260">
        <ele>400.1</ele>
        <time>2022-03-01T16:42:33Z</time>
      </trkpt>
      <trkpt lat="40.0523880" lon="-4.6529140">
        <ele>400.0</ele>
        <time>2022-03-01T16:42:34Z</time>
      </trkpt>
      <trkpt lat="40.0522910" lon="-4.6528980">
        <ele>399.9</ele>
        <time>2022-03-01T16:42:35Z</time>
      </trkpt>
      <trkpt lat="40.0521920" lon="-4.6528830">
        <ele>399.7</ele>
        <time>2022-03-01T16:42:36Z</time>
      </trkpt>
      <trkpt lat="40.0520990" lon="-4.6528710">
        <ele>399.6</ele>
        <time>2022-03-01T16:42:37Z</time>
      </trkpt>
      <trkpt lat="40.0520000" lon="-4.6528590">
        <ele>399.6</ele>
        <time>2022-03-01T16:42:38Z</time>
      </trkpt>
      <trkpt lat="40.0519030" lon="-4.6528460">
        <ele>399.5</ele>
        <time>2022-03-01T16:42:39Z</time>
      </trkpt>
      <trkpt lat="40.0518070" lon="-4.6528330">
        <ele>399.4</ele>
        <time>2022-03-01T16:42:40Z</time>
      </trkpt>
      <trkpt lat="40.0517130" lon="-4.6528200">
        <ele>399.3</ele>
        <time>2022-03-01T16:42:41Z</time>
      </trkpt>
      <trkpt lat="40.0516180" lon="-4.6528080">
        <ele>399.3</ele>
        <time>2022-03-01T16:42:42Z</time>
      </trkpt>
      <trkpt lat="40.0515220" lon="-4.6527950">
        <ele>399.2</ele>
        <time>2022-03-01T16:42:43Z</time>
      </trkpt>
      <trkpt lat="40.0514260" lon="-4.6527800">
        <ele>399.2</ele>
        <time>2022-03-01T16:42:44Z</time>
      </trkpt>
      <trkpt lat="40.0513280" lon="-4.6527690">
        <ele>399.2</ele>
        <time>2022-03-01T16:42:45Z</time>
      </trkpt>
      <trkpt lat="40.0512370" lon="-4.6527570">
        <ele>399.2</ele>
        <time>2022-03-01T16:42:46Z</time>
      </trkpt>
      <trkpt lat="40.0511440" lon="-4.6527440">
        <ele>399.2</ele>
        <time>2022-03-01T16:42:47Z</time>
      </trkpt>
      <trkpt lat="40.0510460" lon="-4.6527310">
        <ele>399.2</ele>
        <time>2022-03-01T16:42:48Z</time>
      </trkpt>
      <trkpt lat="40.0509550" lon="-4.6527200">
        <ele>399.2</ele>
        <time>2022-03-01T16:42:49Z</time>
      </trkpt>
      <trkpt lat="40.0508640" lon="-4.6527120">
        <ele>399.2</ele>
        <time>2022-03-01T16:42:50Z</time>
      </trkpt>
      <trkpt lat="40.0507720" lon="-4.6527010">
        <ele>399.2</ele>
        <time>2022-03-01T16:42:51Z</time>
      </trkpt>
      <trkpt lat="40.0506820" lon="-4.6526880">
        <ele>399.2</ele>
        <time>2022-03-01T16:42:52Z</time>
      </trkpt>
      <trkpt lat="40.0505940" lon="-4.6526760">
        <ele>399.2</ele>
        <time>2022-03-01T16:42:53Z</time>
      </trkpt>
      <trkpt lat="40.0505070" lon="-4.6526690">
        <ele>399.1</ele>
        <time>2022-03-01T16:42:54Z</time>
      </trkpt>
      <trkpt lat="40.0504180" lon="-4.6526570">
        <ele>399.1</ele>
        <time>2022-03-01T16:42:55Z</time>
      </trkpt>
      <trkpt lat="40.0503270" lon="-4.6526410">
        <ele>399.1</ele>
        <time>2022-03-01T16:42:56Z</time>
      </trkpt>
      <trkpt lat="40.0502380" lon="-4.6526310">
        <ele>399.1</ele>
        <time>2022-03-01T16:42:57Z</time>
      </trkpt>
      <trkpt lat="40.0501510" lon="-4.6526180">
        <ele>399.1</ele>
        <time>2022-03-01T16:42:58Z</time>
      </trkpt>
      <trkpt lat="40.0500640" lon="-4.6526060">
        <ele>399.2</ele>
        <time>2022-03-01T16:42:59Z</time>
      </trkpt>
      <trkpt lat="40.0499770" lon="-4.6525880">
        <ele>399.2</ele>
        <time>2022-03-01T16:43:00Z</time>
      </trkpt>
      <trkpt lat="40.0498910" lon="-4.6525830">
        <ele>399.2</ele>
        <time>2022-03-01T16:43:01Z</time>
      </trkpt>
      <trkpt lat="40.0498010" lon="-4.6525710">
        <ele>399.2</ele>
        <time>2022-03-01T16:43:02Z</time>
      </trkpt>
      <trkpt lat="40.0497140" lon="-4.6525590">
        <ele>399.2</ele>
        <time>2022-03-01T16:43:03Z</time>
      </trkpt>
      <trkpt lat="40.0496240" lon="-4.6525470">
        <ele>399.3</ele>
        <time>2022-03-01T16:43:04Z</time>
      </trkpt>
      <trkpt lat="40.0495370" lon="-4.6525340">
        <ele>399.3</ele>
        <time>2022-03-01T16:43:05Z</time>
      </trkpt>
      <trkpt lat="40.0494480" lon="-4.6525240">
        <ele>399.3</ele>
        <time>2022-03-01T16:43:06Z</time>
      </trkpt>
      <trkpt lat="40.0493610" lon="-4.6525120">
        <ele>399.3</ele>
        <time>2022-03-01T16:43:07Z</time>
      </trkpt>
      <trkpt lat="40.0492740" lon="-4.6525020">
        <ele>399.3</ele>
        <time>2022-03-01T16:43:08Z</time>
      </trkpt>
      <trkpt lat="40.0491870" lon="-4.6524900">
        <ele>399.3</ele>
        <time>2022-03-01T16:43:09Z</time>
      </trkpt>
      <trkpt lat="40.0490980" lon="-4.6524760">
        <ele>399.3</ele>
        <time>2022-03-01T16:43:10Z</time>
      </trkpt>
      <trkpt lat="40.0490120" lon="-4.6524640">
        <ele>399.3</ele>
        <time>2022-03-01T16:43:11Z</time>
      </trkpt>
      <trkpt lat="40.0489260" lon="-4.6524530">
        <ele>399.3</ele>
        <time>2022-03-01T16:43:12Z</time>
      </trkpt>
      <trkpt lat="40.0488400" lon="-4.6524420">
        <ele>399.2</ele>
        <time>2022-03-01T16:43:13Z</time>
      </trkpt>
      <trkpt lat="40.0487560" lon="-4.6524300">
        <ele>399.2</ele>
        <time>2022-03-01T16:43:14Z</time>
      </trkpt>
      <trkpt lat="40.0486770" lon="-4.6524250">
        <ele>399.2</ele>
        <time>2022-03-01T16:43:15Z</time>
      </trkpt>
      <trkpt lat="40.0485820" lon="-4.6524110">
        <ele>399.2</ele>
        <time>2022-03-01T16:43:16Z</time>
      </trkpt>
      <trkpt lat="40.0484960" lon="-4.6523950">
        <ele>399.2</ele>
        <time>2022-03-01T16:43:17Z</time>
      </trkpt>
      <trkpt lat="40.0484090" lon="-4.6523840">
        <ele>399.2</ele>
        <time>2022-03-01T16:43:18Z</time>
      </trkpt>
      <trkpt lat="40.0483230" lon="-4.6523730">
        <ele>399.2</ele>
        <time>2022-03-01T16:43:19Z</time>
      </trkpt>
      <trkpt lat="40.0482380" lon="-4.6523670">
        <ele>399.2</ele>
        <time>2022-03-01T16:43:20Z</time>
      </trkpt>
      <trkpt lat="40.0481500" lon="-4.6523580">
        <ele>399.2</ele>
        <time>2022-03-01T16:43:21Z</time>
      </trkpt>
      <trkpt lat="40.0480610" lon="-4.6523460">
        <ele>399.2</ele>
        <time>2022-03-01T16:43:22Z</time>
      </trkpt>
      <trkpt lat="40.0479750" lon="-4.6523310">
        <ele>399.2</ele>
        <time>2022-03-01T16:43:23Z</time>
      </trkpt>
      <trkpt lat="40.0478880" lon="-4.6523230">
        <ele>399.2</ele>
        <time>2022-03-01T16:43:24Z</time>
      </trkpt>
      <trkpt lat="40.0478040" lon="-4.6523090">
        <ele>399.2</ele>
        <time>2022-03-01T16:43:25Z</time>
      </trkpt>
      <trkpt lat="40.0477190" lon="-4.6522980">
        <ele>399.2</ele>
        <time>2022-03-01T16:43:26Z</time>
      </trkpt>
      <trkpt lat="40.0476360" lon="-4.6522820">
        <ele>399.2</ele>
        <time>2022-03-01T16:43:27Z</time>
      </trkpt>
      <trkpt lat="40.0475570" lon="-4.6522790">
        <ele>399.2</ele>
        <time>2022-03-01T16:43:28Z</time>
      </trkpt>
      <trkpt lat="40.0474640" lon="-4.6522650">
        <ele>399.2</ele>
        <time>2022-03-01T16:43:29Z</time>
      </trkpt>
      <trkpt lat="40.0473750" lon="-4.6522490">
        <ele>399.2</ele>
        <time>2022-03-01T16:43:30Z</time>
      </trkpt>
      <trkpt lat="40.0472990" lon="-4.6522390">
        <ele>399.2</ele>
        <time>2022-03-01T16:43:31Z</time>
      </trkpt>
      <trkpt lat="40.0472120" lon="-4.6522240">
        <ele>399.2</ele>
        <time>2022-03-01T16:43:32Z</time>
      </trkpt>
      <trkpt lat="40.0471210" lon="-4.6522090">
        <ele>399.2</ele>
        <time>2022-03-01T16:43:33Z</time>
      </trkpt>
      <trkpt lat="40.0470290" lon="-4.6521930">
        <ele>399.1</ele>
        <time>2022-03-01T16:43:34Z</time>
      </trkpt>
      <trkpt lat="40.0469440" lon="-4.6521880">
        <ele>399.0</ele>
        <time>2022-03-01T16:43:35Z</time>
      </trkpt>
      <trkpt lat="40.0468580" lon="-4.6521760">
        <ele>398.9</ele>
        <time>2022-03-01T16:43:36Z</time>
      </trkpt>
      <trkpt lat="40.0467710" lon="-4.6521670">
        <ele>398.9</ele>
        <time>2022-03-01T16:43:37Z</time>
      </trkpt>
      <trkpt lat="40.0466830" lon="-4.6521530">
        <ele>398.8</ele>
        <time>2022-03-01T16:43:38Z</time>
      </trkpt>
      <trkpt lat="40.0465960" lon="-4.6521440">
        <ele>398.7</ele>
        <time>2022-03-01T16:43:39Z</time>
      </trkpt>
      <trkpt lat="40.0465080" lon="-4.6521320">
        <ele>398.6</ele>
        <time>2022-03-01T16:43:40Z</time>
      </trkpt>
      <trkpt lat="40.0464230" lon="-4.6521220">
        <ele>398.5</ele>
        <time>2022-03-01T16:43:41Z</time>
      </trkpt>
      <trkpt lat="40.0463340" lon="-4.6521170">
        <ele>398.5</ele>
        <time>2022-03-01T16:43:42Z</time>
      </trkpt>
      <trkpt lat="40.0462470" lon="-4.6520970">
        <ele>398.3</ele>
        <time>2022-03-01T16:43:43Z</time>
      </trkpt>
      <trkpt lat="40.0461580" lon="-4.6520830">
        <ele>398.2</ele>
        <time>2022-03-01T16:43:44Z</time>
      </trkpt>
      <trkpt lat="40.0460700" lon="-4.6520700">
        <ele>398.1</ele>
        <time>2022-03-01T16:43:45Z</time>
      </trkpt>
      <trkpt lat="40.0459790" lon="-4.6520590">
        <ele>398.0</ele>
        <time>2022-03-01T16:43:46Z</time>
      </trkpt>
      <trkpt lat="40.0458900" lon="-4.6520510">
        <ele>397.9</ele>
        <time>2022-03-01T16:43:47Z</time>
      </trkpt>
      <trkpt lat="40.0457980" lon="-4.6520360">
        <ele>397.8</ele>
        <time>2022-03-01T16:43:48Z</time>
      </trkpt>
      <trkpt lat="40.0457080" lon="-4.6520220">
        <ele>397.7</ele>
        <time>2022-03-01T16:43:49Z</time>
      </trkpt>
      <trkpt lat="40.0456200" lon="-4.6520110">
        <ele>397.5</ele>
        <time>2022-03-01T16:43:50Z</time>
      </trkpt>
      <trkpt lat="40.0455280" lon="-4.6520030">
        <ele>397.4</ele>
        <time>2022-03-01T16:43:51Z</time>
      </trkpt>
      <trkpt lat="40.0454390" lon="-4.6519900">
        <ele>397.3</ele>
        <time>2022-03-01T16:43:52Z</time>
      </trkpt>
      <trkpt lat="40.0453470" lon="-4.6519780">
        <ele>397.1</ele>
        <time>2022-03-01T16:43:53Z</time>
      </trkpt>
      <trkpt lat="40.0452560" lon="-4.6519680">
        <ele>397.0</ele>
        <time>2022-03-01T16:43:54Z</time>
      </trkpt>
      <trkpt lat="40.0451640" lon="-4.6519600">
        <ele>396.8</ele>
        <time>2022-03-01T16:43:55Z</time>
      </trkpt>
      <trkpt lat="40.0450710" lon="-4.6519570">
        <ele>396.6</ele>
        <time>2022-03-01T16:43:56Z</time>
      </trkpt>
      <trkpt lat="40.0449820" lon="-4.6519540">
        <ele>396.5</ele>
        <time>2022-03-01T16:43:57Z</time>
      </trkpt>
      <trkpt lat="40.0448870" lon="-4.6519510">
        <ele>396.3</ele>
        <time>2022-03-01T16:43:58Z</time>
      </trkpt>
      <trkpt lat="40.0447960" lon="-4.6519520">
        <ele>396.2</ele>
        <time>2022-03-01T16:43:59Z</time>
      </trkpt>
      <trkpt lat="40.0447060" lon="-4.6519620">
        <ele>396.1</ele>
        <time>2022-03-01T16:44:00Z</time>
      </trkpt>
      <trkpt lat="40.0446140" lon="-4.6519710">
        <ele>395.9</ele>
        <time>2022-03-01T16:44:01Z</time>
      </trkpt>
      <trkpt lat="40.0445220" lon="-4.6519800">
        <ele>395.8</ele>
        <time>2022-03-01T16:44:02Z</time>
      </trkpt>
      <trkpt lat="40.0444300" lon="-4.6519930">
        <ele>395.6</ele>
        <time>2022-03-01T16:44:03Z</time>
      </trkpt>
      <trkpt lat="40.0443380" lon="-4.6520130">
        <ele>395.5</ele>
        <time>2022-03-01T16:44:04Z</time>
      </trkpt>
      <trkpt lat="40.0442500" lon="-4.6520300">
        <ele>395.3</ele>
        <time>2022-03-01T16:44:05Z</time>
      </trkpt>
      <trkpt lat="40.0441600" lon="-4.6520500">
        <ele>395.1</ele>
        <time>2022-03-01T16:44:06Z</time>
      </trkpt>
      <trkpt lat="40.0440710" lon="-4.6520690">
        <ele>395.0</ele>
        <time>2022-03-01T16:44:07Z</time>
      </trkpt>
      <trkpt lat="40.0439880" lon="-4.6520900">
        <ele>394.8</ele>
        <time>2022-03-01T16:44:08Z</time>
      </trkpt>
      <trkpt lat="40.0439030" lon="-4.6521130">
        <ele>394.7</ele>
        <time>2022-03-01T16:44:09Z</time>
      </trkpt>
      <trkpt lat="40.0438220" lon="-4.6521300">
        <ele>394.5</ele>
        <time>2022-03-01T16:44:10Z</time>
      </trkpt>
      <trkpt lat="40.0437350" lon="-4.6521480">
        <ele>394.4</ele>
        <time>2022-03-01T16:44:11Z</time>
      </trkpt>
      <trkpt lat="40.0436480" lon="-4.6521630">
        <ele>394.3</ele>
        <time>2022-03-01T16:44:12Z</time>
      </trkpt>
      <trkpt lat="40.0435620" lon="-4.6521730">
        <ele>394.2</ele>
        <time>2022-03-01T16:44:13Z</time>
      </trkpt>
      <trkpt lat="40.0434860" lon="-4.6522070">
        <ele>394.1</ele>
        <time>2022-03-01T16:44:14Z</time>
      </trkpt>
      <trkpt lat="40.0433970" lon="-4.6522130">
        <ele>394.0</ele>
        <time>2022-03-01T16:44:15Z</time>
      </trkpt>
      <trkpt lat="40.0433100" lon="-4.6522120">
        <ele>393.9</ele>
        <time>2022-03-01T16:44:16Z</time>
      </trkpt>
      <trkpt lat="40.0432180" lon="-4.6522080">
        <ele>393.8</ele>
        <time>2022-03-01T16:44:17Z</time>
      </trkpt>
      <trkpt lat="40.0431290" lon="-4.6522000">
        <ele>393.7</ele>
        <time>2022-03-01T16:44:18Z</time>
      </trkpt>
      <trkpt lat="40.0430450" lon="-4.6521860">
        <ele>393.5</ele>
        <time>2022-03-01T16:44:19Z</time>
      </trkpt>
      <trkpt lat="40.0429570" lon="-4.6521680">
        <ele>393.4</ele>
        <time>2022-03-01T16:44:20Z</time>
      </trkpt>
      <trkpt lat="40.0428670" lon="-4.6521420">
        <ele>393.3</ele>
        <time>2022-03-01T16:44:21Z</time>
      </trkpt>
      <trkpt lat="40.0427830" lon="-4.6521080">
        <ele>393.2</ele>
        <time>2022-03-01T16:44:22Z</time>
      </trkpt>
      <trkpt lat="40.0426930" lon="-4.6520670">
        <ele>393.0</ele>
        <time>2022-03-01T16:44:23Z</time>
      </trkpt>
      <trkpt lat="40.0426060" lon="-4.6520290">
        <ele>392.9</ele>
        <time>2022-03-01T16:44:24Z</time>
      </trkpt>
      <trkpt lat="40.0425220" lon="-4.6519860">
        <ele>392.8</ele>
        <time>2022-03-01T16:44:25Z</time>
      </trkpt>
      <trkpt lat="40.0424280" lon="-4.6519590">
        <ele>392.7</ele>
        <time>2022-03-01T16:44:26Z</time>
      </trkpt>
      <trkpt lat="40.0423450" lon="-4.6518920">
        <ele>392.7</ele>
        <time>2022-03-01T16:44:27Z</time>
      </trkpt>
      <trkpt lat="40.0422660" lon="-4.6518290">
        <ele>392.6</ele>
        <time>2022-03-01T16:44:28Z</time>
      </trkpt>
      <trkpt lat="40.0421930" lon="-4.6517610">
        <ele>392.5</ele>
        <time>2022-03-01T16:44:29Z</time>
      </trkpt>
      <trkpt lat="40.0421190" lon="-4.6516930">
        <ele>392.5</ele>
        <time>2022-03-01T16:44:30Z</time>
      </trkpt>
      <trkpt lat="40.0420480" lon="-4.6516260">
        <ele>392.5</ele>
        <time>2022-03-01T16:44:31Z</time>
      </trkpt>
      <trkpt lat="40.0419770" lon="-4.6515570">
        <ele>392.5</ele>
        <time>2022-03-01T16:44:32Z</time>
      </trkpt>
      <trkpt lat="40.0419080" lon="-4.6514840">
        <ele>392.4</ele>
        <time>2022-03-01T16:44:33Z</time>
      </trkpt>
      <trkpt lat="40.0418400" lon="-4.6514090">
        <ele>392.4</ele>
        <time>2022-03-01T16:44:34Z</time>
      </trkpt>
      <trkpt lat="40.0417700" lon="-4.6513350">
        <ele>392.4</ele>
        <time>2022-03-01T16:44:35Z</time>
      </trkpt>
      <trkpt lat="40.0417010" lon="-4.6512590">
        <ele>392.4</ele>
        <time>2022-03-01T16:44:36Z</time>
      </trkpt>
      <trkpt lat="40.0416330" lon="-4.6511880">
        <ele>392.4</ele>
        <time>2022-03-01T16:44:37Z</time>
      </trkpt>
      <trkpt lat="40.0415650" lon="-4.6511180">
        <ele>392.4</ele>
        <time>2022-03-01T16:44:38Z</time>
      </trkpt>
      <trkpt lat="40.0414970" lon="-4.6510430">
        <ele>392.4</ele>
        <time>2022-03-01T16:44:39Z</time>
      </trkpt>
      <trkpt lat="40.0414320" lon="-4.6509700">
        <ele>392.4</ele>
        <time>2022-03-01T16:44:40Z</time>
      </trkpt>
      <trkpt lat="40.0413680" lon="-4.6509010">
        <ele>392.4</ele>
        <time>2022-03-01T16:44:41Z</time>
      </trkpt>
      <trkpt lat="40.0412990" lon="-4.6508340">
        <ele>392.4</ele>
        <time>2022-03-01T16:44:42Z</time>
      </trkpt>
      <trkpt lat="40.0412330" lon="-4.6507660">
        <ele>392.4</ele>
        <time>2022-03-01T16:44:43Z</time>
      </trkpt>
      <trkpt lat="40.0411690" lon="-4.6506960">
        <ele>392.4</ele>
        <time>2022-03-01T16:44:44Z</time>
      </trkpt>
      <trkpt lat="40.0411060" lon="-4.6506270">
        <ele>392.4</ele>
        <time>2022-03-01T16:44:45Z</time>
      </trkpt>
      <trkpt lat="40.0410410" lon="-4.6505550">
        <ele>392.4</ele>
        <time>2022-03-01T16:44:46Z</time>
      </trkpt>
      <trkpt lat="40.0409760" lon="-4.6504870">
        <ele>392.4</ele>
        <time>2022-03-01T16:44:47Z</time>
      </trkpt>
      <trkpt lat="40.0409120" lon="-4.6504140">
        <ele>392.4</ele>
        <time>2022-03-01T16:44:48Z</time>
      </trkpt>
      <trkpt lat="40.0408480" lon="-4.6503480">
        <ele>392.4</ele>
        <time>2022-03-01T16:44:49Z</time>
      </trkpt>
      <trkpt lat="40.0407840" lon="-4.6502790">
        <ele>392.4</ele>
        <time>2022-03-01T16:44:50Z</time>
      </trkpt>
      <trkpt lat="40.0407210" lon="-4.6502120">
        <ele>392.4</ele>
        <time>2022-03-01T16:44:51Z</time>
      </trkpt>
      <trkpt lat="40.0406570" lon="-4.6501470">
        <ele>392.4</ele>
        <time>2022-03-01T16:44:52Z</time>
      </trkpt>
      <trkpt lat="40.0405890" lon="-4.6500720">
        <ele>392.5</ele>
        <time>2022-03-01T16:44:53Z</time>
      </trkpt>
      <trkpt lat="40.0405260" lon="-4.6499990">
        <ele>392.5</ele>
        <time>2022-03-01T16:44:54Z</time>
      </trkpt>
      <trkpt lat="40.0404630" lon="-4.6499290">
        <ele>392.5</ele>
        <time>2022-03-01T16:44:55Z</time>
      </trkpt>
      <trkpt lat="40.0404010" lon="-4.6498630">
        <ele>392.5</ele>
        <time>2022-03-01T16:44:56Z</time>
      </trkpt>
      <trkpt lat="40.0403390" lon="-4.6497960">
        <ele>392.5</ele>
        <time>2022-03-01T16:44:57Z</time>
      </trkpt>
      <trkpt lat="40.0402780" lon="-4.6497280">
        <ele>392.5</ele>
        <time>2022-03-01T16:44:58Z</time>
      </trkpt>
      <trkpt lat="40.0402180" lon="-4.6496600">
        <ele>392.5</ele>
        <time>2022-03-01T16:44:59Z</time>
      </trkpt>
      <trkpt lat="40.0401570" lon="-4.6495960">
        <ele>392.5</ele>
        <time>2022-03-01T16:45:00Z</time>
      </trkpt>
      <trkpt lat="40.0400980" lon="-4.6495410">
        <ele>392.5</ele>
        <time>2022-03-01T16:45:01Z</time>
      </trkpt>
      <trkpt lat="40.0400380" lon="-4.6494750">
        <ele>392.4</ele>
        <time>2022-03-01T16:45:02Z</time>
      </trkpt>
      <trkpt lat="40.0399780" lon="-4.6494110">
        <ele>392.4</ele>
        <time>2022-03-01T16:45:03Z</time>
      </trkpt>
      <trkpt lat="40.0399190" lon="-4.6493420">
        <ele>392.4</ele>
        <time>2022-03-01T16:45:04Z</time>
      </trkpt>
      <trkpt lat="40.0398590" lon="-4.6492740">
        <ele>392.5</ele>
        <time>2022-03-01T16:45:05Z</time>
      </trkpt>
      <trkpt lat="40.0397970" lon="-4.6492050">
        <ele>392.5</ele>
        <time>2022-03-01T16:45:06Z</time>
      </trkpt>
      <trkpt lat="40.0397340" lon="-4.6491360">
        <ele>392.5</ele>
        <time>2022-03-01T16:45:07Z</time>
      </trkpt>
      <trkpt lat="40.0396730" lon="-4.6490670">
        <ele>392.5</ele>
        <time>2022-03-01T16:45:08Z</time>
      </trkpt>
      <trkpt lat="40.0396060" lon="-4.6489980">
        <ele>392.5</ele>
        <time>2022-03-01T16:45:09Z</time>
      </trkpt>
      <trkpt lat="40.0395450" lon="-4.6489320">
        <ele>392.4</ele>
        <time>2022-03-01T16:45:10Z</time>
      </trkpt>
      <trkpt lat="40.0394800" lon="-4.6488660">
        <ele>392.4</ele>
        <time>2022-03-01T16:45:11Z</time>
      </trkpt>
      <trkpt lat="40.0394180" lon="-4.6487920">
        <ele>392.4</ele>
        <time>2022-03-01T16:45:12Z</time>
      </trkpt>
      <trkpt lat="40.0393570" lon="-4.6487300">
        <ele>392.4</ele>
        <time>2022-03-01T16:45:13Z</time>
      </trkpt>
      <trkpt lat="40.0392980" lon="-4.6486670">
        <ele>392.4</ele>
        <time>2022-03-01T16:45:14Z</time>
      </trkpt>
      <trkpt lat="40.0392390" lon="-4.6486040">
        <ele>392.3</ele>
        <time>2022-03-01T16:45:15Z</time>
      </trkpt>
      <trkpt lat="40.0391760" lon="-4.6485370">
        <ele>392.3</ele>
        <time>2022-03-01T16:45:16Z</time>
      </trkpt>
      <trkpt lat="40.0391170" lon="-4.6484770">
        <ele>392.2</ele>
        <time>2022-03-01T16:45:17Z</time>
      </trkpt>
      <trkpt lat="40.0390500" lon="-4.6484050">
        <ele>392.2</ele>
        <time>2022-03-01T16:45:18Z</time>
      </trkpt>
      <trkpt lat="40.0389950" lon="-4.6483410">
        <ele>392.2</ele>
        <time>2022-03-01T16:45:19Z</time>
      </trkpt>
      <trkpt lat="40.0389330" lon="-4.6482740">
        <ele>392.1</ele>
        <time>2022-03-01T16:45:20Z</time>
      </trkpt>
      <trkpt lat="40.0388730" lon="-4.6482120">
        <ele>392.1</ele>
        <time>2022-03-01T16:45:21Z</time>
      </trkpt>
      <trkpt lat="40.0388090" lon="-4.6481390">
        <ele>392.0</ele>
        <time>2022-03-01T16:45:22Z</time>
      </trkpt>
      <trkpt lat="40.0387510" lon="-4.6480710">
        <ele>391.9</ele>
        <time>2022-03-01T16:45:23Z</time>
      </trkpt>
      <trkpt lat="40.0386830" lon="-4.6480010">
        <ele>391.8</ele>
        <time>2022-03-01T16:45:24Z</time>
      </trkpt>
      <trkpt lat="40.0386160" lon="-4.6479360">
        <ele>391.7</ele>
        <time>2022-03-01T16:45:25Z</time>
      </trkpt>
      <trkpt lat="40.0385520" lon="-4.6478610">
        <ele>391.6</ele>
        <time>2022-03-01T16:45:26Z</time>
      </trkpt>
      <trkpt lat="40.0384880" lon="-4.6477960">
        <ele>391.5</ele>
        <time>2022-03-01T16:45:27Z</time>
      </trkpt>
      <trkpt lat="40.0384220" lon="-4.6477420">
        <ele>391.4</ele>
        <time>2022-03-01T16:45:28Z</time>
      </trkpt>
      <trkpt lat="40.0383610" lon="-4.6476680">
        <ele>391.4</ele>
        <time>2022-03-01T16:45:29Z</time>
      </trkpt>
      <trkpt lat="40.0382900" lon="-4.6476060">
        <ele>391.3</ele>
        <time>2022-03-01T16:45:30Z</time>
      </trkpt>
      <trkpt lat="40.0382160" lon="-4.6475520">
        <ele>391.2</ele>
        <time>2022-03-01T16:45:31Z</time>
      </trkpt>
      <trkpt lat="40.0381510" lon="-4.6474790">
        <ele>391.1</ele>
        <time>2022-03-01T16:45:32Z</time>
      </trkpt>
      <trkpt lat="40.0380890" lon="-4.6474060">
        <ele>391.0</ele>
        <time>2022-03-01T16:45:33Z</time>
      </trkpt>
      <trkpt lat="40.0380320" lon="-4.6473490">
        <ele>391.0</ele>
        <time>2022-03-01T16:45:34Z</time>
      </trkpt>
      <trkpt lat="40.0379660" lon="-4.6472830">
        <ele>390.9</ele>
        <time>2022-03-01T16:45:35Z</time>
      </trkpt>
      <trkpt lat="40.0379020" lon="-4.6472060">
        <ele>390.8</ele>
        <time>2022-03-01T16:45:36Z</time>
      </trkpt>
      <trkpt lat="40.0378290" lon="-4.6471410">
        <ele>390.7</ele>
        <time>2022-03-01T16:45:37Z</time>
      </trkpt>
      <trkpt lat="40.0377630" lon="-4.6470770">
        <ele>390.6</ele>
        <time>2022-03-01T16:45:38Z</time>
      </trkpt>
      <trkpt lat="40.0376970" lon="-4.6470160">
        <ele>390.6</ele>
        <time>2022-03-01T16:45:39Z</time>
      </trkpt>
      <trkpt lat="40.0376330" lon="-4.6469520">
        <ele>390.5</ele>
        <time>2022-03-01T16:45:40Z</time>
      </trkpt>
      <trkpt lat="40.0375720" lon="-4.6468930">
        <ele>390.5</ele>
        <time>2022-03-01T16:45:41Z</time>
      </trkpt>
      <trkpt lat="40.0375060" lon="-4.6468220">
        <ele>390.4</ele>
        <time>2022-03-01T16:45:42Z</time>
      </trkpt>
      <trkpt lat="40.0374430" lon="-4.6467460">
        <ele>390.4</ele>
        <time>2022-03-01T16:45:43Z</time>
      </trkpt>
      <trkpt lat="40.0373850" lon="-4.6466700">
        <ele>390.4</ele>
        <time>2022-03-01T16:45:44Z</time>
      </trkpt>
      <trkpt lat="40.0373240" lon="-4.6465980">
        <ele>390.4</ele>
        <time>2022-03-01T16:45:45Z</time>
      </trkpt>
      <trkpt lat="40.0372640" lon="-4.6465270">
        <ele>390.4</ele>
        <time>2022-03-01T16:45:46Z</time>
      </trkpt>
      <trkpt lat="40.0372050" lon="-4.6464550">
        <ele>390.5</ele>
        <time>2022-03-01T16:45:47Z</time>
      </trkpt>
      <trkpt lat="40.0371460" lon="-4.6463770">
        <ele>390.5</ele>
        <time>2022-03-01T16:45:48Z</time>
      </trkpt>
      <trkpt lat="40.0370900" lon="-4.6463060">
        <ele>390.6</ele>
        <time>2022-03-01T16:45:49Z</time>
      </trkpt>
      <trkpt lat="40.0370330" lon="-4.6462330">
        <ele>390.6</ele>
        <time>2022-03-01T16:45:50Z</time>
      </trkpt>
      <trkpt lat="40.0369770" lon="-4.6461680">
        <ele>390.7</ele>
        <time>2022-03-01T16:45:51Z</time>
      </trkpt>
      <trkpt lat="40.0369180" lon="-4.6460970">
        <ele>390.7</ele>
        <time>2022-03-01T16:45:52Z</time>
      </trkpt>
      <trkpt lat="40.0368650" lon="-4.6460320">
        <ele>390.8</ele>
        <time>2022-03-01T16:45:53Z</time>
      </trkpt>
      <trkpt lat="40.0368070" lon="-4.6459650">
        <ele>390.9</ele>
        <time>2022-03-01T16:45:54Z</time>
      </trkpt>
      <trkpt lat="40.0367510" lon="-4.6459010">
        <ele>390.9</ele>
        <time>2022-03-01T16:45:55Z</time>
      </trkpt>
      <trkpt lat="40.0366920" lon="-4.6458360">
        <ele>391.0</ele>
        <time>2022-03-01T16:45:56Z</time>
      </trkpt>
      <trkpt lat="40.0366400" lon="-4.6457790">
        <ele>391.1</ele>
        <time>2022-03-01T16:45:57Z</time>
      </trkpt>
      <trkpt lat="40.0365810" lon="-4.6457080">
        <ele>391.2</ele>
        <time>2022-03-01T16:45:58Z</time>
      </trkpt>
      <trkpt lat="40.0365210" lon="-4.6456490">
        <ele>391.2</ele>
        <time>2022-03-01T16:45:59Z</time>
      </trkpt>
      <trkpt lat="40.0364620" lon="-4.6455850">
        <ele>391.2</ele>
        <time>2022-03-01T16:46:00Z</time>
      </trkpt>
      <trkpt lat="40.0364080" lon="-4.6455230">
        <ele>391.2</ele>
        <time>2022-03-01T16:46:01Z</time>
      </trkpt>
      <trkpt lat="40.0363520" lon="-4.6454630">
        <ele>391.2</ele>
        <time>2022-03-01T16:46:02Z</time>
      </trkpt>
      <trkpt lat="40.0362940" lon="-4.6453980">
        <ele>391.2</ele>
        <time>2022-03-01T16:46:03Z</time>
      </trkpt>
      <trkpt lat="40.0362400" lon="-4.6453390">
        <ele>391.2</ele>
        <time>2022-03-01T16:46:04Z</time>
      </trkpt>
      <trkpt lat="40.0361830" lon="-4.6452740">
        <ele>391.3</ele>
        <time>2022-03-01T16:46:05Z</time>
      </trkpt>
      <trkpt lat="40.0361280" lon="-4.6452180">
        <ele>391.3</ele>
        <time>2022-03-01T16:46:06Z</time>
      </trkpt>
      <trkpt lat="40.0360720" lon="-4.6451560">
        <ele>391.3</ele>
        <time>2022-03-01T16:46:07Z</time>
      </trkpt>
      <trkpt lat="40.0360140" lon="-4.6450960">
        <ele>391.3</ele>
        <time>2022-03-01T16:46:08Z</time>
      </trkpt>
      <trkpt lat="40.0359600" lon="-4.6450370">
        <ele>391.3</ele>
        <time>2022-03-01T16:46:09Z</time>
      </trkpt>
      <trkpt lat="40.0359050" lon="-4.6449760">
        <ele>391.4</ele>
        <time>2022-03-01T16:46:10Z</time>
      </trkpt>
      <trkpt lat="40.0358500" lon="-4.6449130">
        <ele>391.4</ele>
        <time>2022-03-01T16:46:11Z</time>
      </trkpt>
      <trkpt lat="40.0357930" lon="-4.6448540">
        <ele>391.4</ele>
        <time>2022-03-01T16:46:12Z</time>
      </trkpt>
      <trkpt lat="40.0357360" lon="-4.6447950">
        <ele>391.4</ele>
        <time>2022-03-01T16:46:13Z</time>
      </trkpt>
      <trkpt lat="40.0356770" lon="-4.6447330">
        <ele>391.5</ele>
        <time>2022-03-01T16:46:14Z</time>
      </trkpt>
      <trkpt lat="40.0356190" lon="-4.6446690">
        <ele>391.5</ele>
        <time>2022-03-01T16:46:15Z</time>
      </trkpt>
      <trkpt lat="40.0355610" lon="-4.6446100">
        <ele>391.6</ele>
        <time>2022-03-01T16:46:16Z</time>
      </trkpt>
      <trkpt lat="40.0355040" lon="-4.6445490">
        <ele>391.6</ele>
        <time>2022-03-01T16:46:17Z</time>
      </trkpt>
      <trkpt lat="40.0354480" lon="-4.6444880">
        <ele>391.7</ele>
        <time>2022-03-01T16:46:18Z</time>
      </trkpt>
      <trkpt lat="40.0353960" lon="-4.6444210">
        <ele>391.7</ele>
        <time>2022-03-01T16:46:19Z</time>
      </trkpt>
      <trkpt lat="40.0353400" lon="-4.6443590">
        <ele>391.8</ele>
        <time>2022-03-01T16:46:20Z</time>
      </trkpt>
      <trkpt lat="40.0352880" lon="-4.6443040">
        <ele>391.8</ele>
        <time>2022-03-01T16:46:21Z</time>
      </trkpt>
      <trkpt lat="40.0352380" lon="-4.6442340">
        <ele>391.9</ele>
        <time>2022-03-01T16:46:22Z</time>
      </trkpt>
      <trkpt lat="40.0351850" lon="-4.6441840">
        <ele>392.0</ele>
        <time>2022-03-01T16:46:23Z</time>
      </trkpt>
      <trkpt lat="40.0351400" lon="-4.6441280">
        <ele>392.0</ele>
        <time>2022-03-01T16:46:24Z</time>
      </trkpt>
      <trkpt lat="40.0350770" lon="-4.6440600">
        <ele>392.1</ele>
        <time>2022-03-01T16:46:25Z</time>
      </trkpt>
      <trkpt lat="40.0350250" lon="-4.6440080">
        <ele>392.2</ele>
        <time>2022-03-01T16:46:26Z</time>
      </trkpt>
      <trkpt lat="40.0349720" lon="-4.6439530">
        <ele>392.2</ele>
        <time>2022-03-01T16:46:27Z</time>
      </trkpt>
      <trkpt lat="40.0349210" lon="-4.6438800">
        <ele>392.3</ele>
        <time>2022-03-01T16:46:28Z</time>
      </trkpt>
      <trkpt lat="40.0348680" lon="-4.6438220">
        <ele>392.3</ele>
        <time>2022-03-01T16:46:29Z</time>
      </trkpt>
      <trkpt lat="40.0348170" lon="-4.6437620">
        <ele>392.4</ele>
        <time>2022-03-01T16:46:30Z</time>
      </trkpt>
      <trkpt lat="40.0347610" lon="-4.6437100">
        <ele>392.5</ele>
        <time>2022-03-01T16:46:31Z</time>
      </trkpt>
      <trkpt lat="40.0347070" lon="-4.6436440">
        <ele>392.6</ele>
        <time>2022-03-01T16:46:32Z</time>
      </trkpt>
      <trkpt lat="40.0346560" lon="-4.6435870">
        <ele>392.7</ele>
        <time>2022-03-01T16:46:33Z</time>
      </trkpt>
      <trkpt lat="40.0346010" lon="-4.6435340">
        <ele>392.8</ele>
        <time>2022-03-01T16:46:34Z</time>
      </trkpt>
      <trkpt lat="40.0345510" lon="-4.6434720">
        <ele>392.9</ele>
        <time>2022-03-01T16:46:35Z</time>
      </trkpt>
      <trkpt lat="40.0344950" lon="-4.6434060">
        <ele>393.0</ele>
        <time>2022-03-01T16:46:36Z</time>
      </trkpt>
      <trkpt lat="40.0344400" lon="-4.6433550">
        <ele>393.2</ele>
        <time>2022-03-01T16:46:37Z</time>
      </trkpt>
      <trkpt lat="40.0343830" lon="-4.6432960">
        <ele>393.3</ele>
        <time>2022-03-01T16:46:38Z</time>
      </trkpt>
      <trkpt lat="40.0343330" lon="-4.6432310">
        <ele>393.4</ele>
        <time>2022-03-01T16:46:39Z</time>
      </trkpt>
      <trkpt lat="40.0342800" lon="-4.6431710">
        <ele>393.5</ele>
        <time>2022-03-01T16:46:40Z</time>
      </trkpt>
      <trkpt lat="40.0342250" lon="-4.6431140">
        <ele>393.6</ele>
        <time>2022-03-01T16:46:41Z</time>
      </trkpt>
      <trkpt lat="40.0341660" lon="-4.6430570">
        <ele>393.7</ele>
        <time>2022-03-01T16:46:42Z</time>
      </trkpt>
      <trkpt lat="40.0341200" lon="-4.6429940">
        <ele>393.8</ele>
        <time>2022-03-01T16:46:43Z</time>
      </trkpt>
      <trkpt lat="40.0340610" lon="-4.6429380">
        <ele>393.9</ele>
        <time>2022-03-01T16:46:44Z</time>
      </trkpt>
      <trkpt lat="40.0340070" lon="-4.6428720">
        <ele>394.1</ele>
        <time>2022-03-01T16:46:45Z</time>
      </trkpt>
      <trkpt lat="40.0339520" lon="-4.6428140">
        <ele>394.2</ele>
        <time>2022-03-01T16:46:46Z</time>
      </trkpt>
      <trkpt lat="40.0339040" lon="-4.6427560">
        <ele>394.2</ele>
        <time>2022-03-01T16:46:47Z</time>
      </trkpt>
      <trkpt lat="40.0338440" lon="-4.6426970">
        <ele>394.4</ele>
        <time>2022-03-01T16:46:48Z</time>
      </trkpt>
      <trkpt lat="40.0337850" lon="-4.6426350">
        <ele>394.5</ele>
        <time>2022-03-01T16:46:49Z</time>
      </trkpt>
      <trkpt lat="40.0337340" lon="-4.6425680">
        <ele>394.6</ele>
        <time>2022-03-01T16:46:50Z</time>
      </trkpt>
      <trkpt lat="40.0336770" lon="-4.6425100">
        <ele>394.7</ele>
        <time>2022-03-01T16:46:51Z</time>
      </trkpt>
      <trkpt lat="40.0336170" lon="-4.6424340">
        <ele>394.8</ele>
        <time>2022-03-01T16:46:52Z</time>
      </trkpt>
      <trkpt lat="40.0335620" lon="-4.6423780">
        <ele>394.8</ele>
        <time>2022-03-01T16:46:53Z</time>
      </trkpt>
      <trkpt lat="40.0335060" lon="-4.6423180">
        <ele>394.9</ele>
        <time>2022-03-01T16:46:54Z</time>
      </trkpt>
      <trkpt lat="40.0334540" lon="-4.6422560">
        <ele>395.0</ele>
        <time>2022-03-01T16:46:55Z</time>
      </trkpt>
      <trkpt lat="40.0333990" lon="-4.6422000">
        <ele>395.0</ele>
        <time>2022-03-01T16:46:56Z</time>
      </trkpt>
      <trkpt lat="40.0333420" lon="-4.6421380">
        <ele>395.1</ele>
        <time>2022-03-01T16:46:57Z</time>
      </trkpt>
      <trkpt lat="40.0332860" lon="-4.6420740">
        <ele>395.1</ele>
        <time>2022-03-01T16:46:58Z</time>
      </trkpt>
      <trkpt lat="40.0332320" lon="-4.6420170">
        <ele>395.2</ele>
        <time>2022-03-01T16:46:59Z</time>
      </trkpt>
      <trkpt lat="40.0331760" lon="-4.6419590">
        <ele>395.3</ele>
        <time>2022-03-01T16:47:00Z</time>
      </trkpt>
      <trkpt lat="40.0331220" lon="-4.6419040">
        <ele>395.3</ele>
        <time>2022-03-01T16:47:01Z</time>
      </trkpt>
      <trkpt lat="40.0330690" lon="-4.6418480">
        <ele>395.4</ele>
        <time>2022-03-01T16:47:02Z</time>
      </trkpt>
      <trkpt lat="40.0330190" lon="-4.6417900">
        <ele>395.4</ele>
        <time>2022-03-01T16:47:03Z</time>
      </trkpt>
      <trkpt lat="40.0329670" lon="-4.6417340">
        <ele>395.5</ele>
        <time>2022-03-01T16:47:04Z</time>
      </trkpt>
      <trkpt lat="40.0329200" lon="-4.6416820">
        <ele>395.5</ele>
        <time>2022-03-01T16:47:05Z</time>
      </trkpt>
      <trkpt lat="40.0328690" lon="-4.6416300">
        <ele>395.6</ele>
        <time>2022-03-01T16:47:06Z</time>
      </trkpt>
      <trkpt lat="40.0328170" lon="-4.6415820">
        <ele>395.7</ele>
        <time>2022-03-01T16:47:07Z</time>
      </trkpt>
      <trkpt lat="40.0327750" lon="-4.6415160">
        <ele>395.8</ele>
        <time>2022-03-01T16:47:08Z</time>
      </trkpt>
      <trkpt lat="40.0327160" lon="-4.6414660">
        <ele>395.9</ele>
        <time>2022-03-01T16:47:09Z</time>
      </trkpt>
      <trkpt lat="40.0326540" lon="-4.6414070">
        <ele>396.0</ele>
        <time>2022-03-01T16:47:10Z</time>
      </trkpt>
      <trkpt lat="40.0326090" lon="-4.6413490">
        <ele>396.1</ele>
        <time>2022-03-01T16:47:11Z</time>
      </trkpt>
      <trkpt lat="40.0325610" lon="-4.6412890">
        <ele>396.3</ele>
        <time>2022-03-01T16:47:12Z</time>
      </trkpt>
      <trkpt lat="40.0325150" lon="-4.6412390">
        <ele>396.4</ele>
        <time>2022-03-01T16:47:13Z</time>
      </trkpt>
      <trkpt lat="40.0324610" lon="-4.6411860">
        <ele>396.5</ele>
        <time>2022-03-01T16:47:14Z</time>
      </trkpt>
      <trkpt lat="40.0324120" lon="-4.6411220">
        <ele>396.7</ele>
        <time>2022-03-01T16:47:15Z</time>
      </trkpt>
      <trkpt lat="40.0323690" lon="-4.6410800">
        <ele>396.9</ele>
        <time>2022-03-01T16:47:16Z</time>
      </trkpt>
      <trkpt lat="40.0323160" lon="-4.6410300">
        <ele>397.2</ele>
        <time>2022-03-01T16:47:17Z</time>
      </trkpt>
      <trkpt lat="40.0322800" lon="-4.6409810">
        <ele>397.3</ele>
        <time>2022-03-01T16:47:18Z</time>
      </trkpt>
      <trkpt lat="40.0322280" lon="-4.6409280">
        <ele>397.6</ele>
        <time>2022-03-01T16:47:19Z</time>
      </trkpt>
      <trkpt lat="40.0321820" lon="-4.6408810">
        <ele>397.8</ele>
        <time>2022-03-01T16:47:20Z</time>
      </trkpt>
      <trkpt lat="40.0321360" lon="-4.6408320">
        <ele>398.0</ele>
        <time>2022-03-01T16:47:21Z</time>
      </trkpt>
      <trkpt lat="40.0320950" lon="-4.6407800">
        <ele>398.2</ele>
        <time>2022-03-01T16:47:22Z</time>
      </trkpt>
      <trkpt lat="40.0320550" lon="-4.6407310">
        <ele>398.3</ele>
        <time>2022-03-01T16:47:23Z</time>
      </trkpt>
      <trkpt lat="40.0320090" lon="-4.6406890">
        <ele>398.5</ele>
        <time>2022-03-01T16:47:24Z</time>
      </trkpt>
      <trkpt lat="40.0319740" lon="-4.6406240">
        <ele>398.7</ele>
        <time>2022-03-01T16:47:25Z</time>
      </trkpt>
      <trkpt lat="40.0319280" lon="-4.6405640">
        <ele>398.9</ele>
        <time>2022-03-01T16:47:26Z</time>
      </trkpt>
      <trkpt lat="40.0318960" lon="-4.6405230">
        <ele>399.1</ele>
        <time>2022-03-01T16:47:27Z</time>
      </trkpt>
      <trkpt lat="40.0318550" lon="-4.6404790">
        <ele>399.3</ele>
        <time>2022-03-01T16:47:28Z</time>
      </trkpt>
      <trkpt lat="40.0318190" lon="-4.6404240">
        <ele>399.4</ele>
        <time>2022-03-01T16:47:29Z</time>
      </trkpt>
      <trkpt lat="40.0317750" lon="-4.6403740">
        <ele>399.6</ele>
        <time>2022-03-01T16:47:30Z</time>
      </trkpt>
      <trkpt lat="40.0317380" lon="-4.6403270">
        <ele>399.7</ele>
        <time>2022-03-01T16:47:31Z</time>
      </trkpt>
      <trkpt lat="40.0317000" lon="-4.6402780">
        <ele>399.9</ele>
        <time>2022-03-01T16:47:32Z</time>
      </trkpt>
      <trkpt lat="40.0316640" lon="-4.6402210">
        <ele>400.1</ele>
        <time>2022-03-01T16:47:33Z</time>
      </trkpt>
      <trkpt lat="40.0316280" lon="-4.6401640">
        <ele>400.2</ele>
        <time>2022-03-01T16:47:34Z</time>
      </trkpt>
      <trkpt lat="40.0315930" lon="-4.6401130">
        <ele>400.4</ele>
        <time>2022-03-01T16:47:35Z</time>
      </trkpt>
      <trkpt lat="40.0315570" lon="-4.6400730">
        <ele>400.5</ele>
        <time>2022-03-01T16:47:36Z</time>
      </trkpt>
      <trkpt lat="40.0315190" lon="-4.6400230">
        <ele>400.6</ele>
        <time>2022-03-01T16:47:37Z</time>
      </trkpt>
      <trkpt lat="40.0314820" lon="-4.6399700">
        <ele>400.7</ele>
        <time>2022-03-01T16:47:38Z</time>
      </trkpt>
      <trkpt lat="40.0314480" lon="-4.6399190">
        <ele>400.8</ele>
        <time>2022-03-01T16:47:39Z</time>
      </trkpt>
      <trkpt lat="40.0314130" lon="-4.6398650">
        <ele>401.0</ele>
        <time>2022-03-01T16:47:40Z</time>
      </trkpt>
      <trkpt lat="40.0313820" lon="-4.6398200">
        <ele>401.1</ele>
        <time>2022-03-01T16:47:41Z</time>
      </trkpt>
      <trkpt lat="40.0313440" lon="-4.6397690">
        <ele>401.2</ele>
        <time>2022-03-01T16:47:42Z</time>
      </trkpt>
      <trkpt lat="40.0313070" lon="-4.6397230">
        <ele>401.3</ele>
        <time>2022-03-01T16:47:43Z</time>
      </trkpt>
      <trkpt lat="40.0312640" lon="-4.6396770">
        <ele>401.4</ele>
        <time>2022-03-01T16:47:44Z</time>
      </trkpt>
      <trkpt lat="40.0312330" lon="-4.6396260">
        <ele>401.6</ele>
        <time>2022-03-01T16:47:45Z</time>
      </trkpt>
      <trkpt lat="40.0311960" lon="-4.6395760">
        <ele>401.7</ele>
        <time>2022-03-01T16:47:46Z</time>
      </trkpt>
      <trkpt lat="40.0311590" lon="-4.6395180">
        <ele>401.8</ele>
        <time>2022-03-01T16:47:47Z</time>
      </trkpt>
      <trkpt lat="40.0311140" lon="-4.6394610">
        <ele>401.9</ele>
        <time>2022-03-01T16:47:48Z</time>
      </trkpt>
      <trkpt lat="40.0310760" lon="-4.6394020">
        <ele>402.0</ele>
        <time>2022-03-01T16:47:49Z</time>
      </trkpt>
      <trkpt lat="40.0310360" lon="-4.6393460">
        <ele>402.1</ele>
        <time>2022-03-01T16:47:50Z</time>
      </trkpt>
      <trkpt lat="40.0309970" lon="-4.6392920">
        <ele>402.2</ele>
        <time>2022-03-01T16:47:51Z</time>
      </trkpt>
      <trkpt lat="40.0309580" lon="-4.6392320">
        <ele>402.3</ele>
        <time>2022-03-01T16:47:52Z</time>
      </trkpt>
      <trkpt lat="40.0309190" lon="-4.6391770">
        <ele>402.4</ele>
        <time>2022-03-01T16:47:53Z</time>
      </trkpt>
      <trkpt lat="40.0308810" lon="-4.6391200">
        <ele>402.5</ele>
        <time>2022-03-01T16:47:54Z</time>
      </trkpt>
      <trkpt lat="40.0308430" lon="-4.6390550">
        <ele>402.7</ele>
        <time>2022-03-01T16:47:55Z</time>
      </trkpt>
      <trkpt lat="40.0308050" lon="-4.6390010">
        <ele>402.8</ele>
        <time>2022-03-01T16:47:56Z</time>
      </trkpt>
      <trkpt lat="40.0307670" lon="-4.6389460">
        <ele>402.9</ele>
        <time>2022-03-01T16:47:57Z</time>
      </trkpt>
      <trkpt lat="40.0307300" lon="-4.6388960">
        <ele>403.0</ele>
        <time>2022-03-01T16:47:58Z</time>
      </trkpt>
      <trkpt lat="40.0306880" lon="-4.6388410">
        <ele>403.1</ele>
        <time>2022-03-01T16:47:59Z</time>
      </trkpt>
      <trkpt lat="40.0306530" lon="-4.6387890">
        <ele>403.1</ele>
        <time>2022-03-01T16:48:00Z</time>
      </trkpt>
      <trkpt lat="40.0306210" lon="-4.6387380">
        <ele>403.2</ele>
        <time>2022-03-01T16:48:01Z</time>
      </trkpt>
      <trkpt lat="40.0305860" lon="-4.6386840">
        <ele>403.3</ele>
        <time>2022-03-01T16:48:02Z</time>
      </trkpt>
      <trkpt lat="40.0305530" lon="-4.6386270">
        <ele>403.4</ele>
        <time>2022-03-01T16:48:03Z</time>
      </trkpt>
      <trkpt lat="40.0305200" lon="-4.6385700">
        <ele>403.5</ele>
        <time>2022-03-01T16:48:04Z</time>
      </trkpt>
      <trkpt lat="40.0304880" lon="-4.6385100">
        <ele>403.6</ele>
        <time>2022-03-01T16:48:05Z</time>
      </trkpt>
      <trkpt lat="40.0304560" lon="-4.6384510">
        <ele>403.8</ele>
        <time>2022-03-01T16:48:06Z</time>
      </trkpt>
      <trkpt lat="40.0304240" lon="-4.6383920">
        <ele>403.9</ele>
        <time>2022-03-01T16:48:07Z</time>
      </trkpt>
      <trkpt lat="40.0303880" lon="-4.6383410">
        <ele>404.0</ele>
        <time>2022-03-01T16:48:08Z</time>
      </trkpt>
      <trkpt lat="40.0303620" lon="-4.6382920">
        <ele>404.1</ele>
        <time>2022-03-01T16:48:09Z</time>
      </trkpt>
      <trkpt lat="40.0303310" lon="-4.6382370">
        <ele>404.2</ele>
        <time>2022-03-01T16:48:10Z</time>
      </trkpt>
      <trkpt lat="40.0303000" lon="-4.6381760">
        <ele>404.3</ele>
        <time>2022-03-01T16:48:11Z</time>
      </trkpt>
      <trkpt lat="40.0302750" lon="-4.6381160">
        <ele>404.4</ele>
        <time>2022-03-01T16:48:12Z</time>
      </trkpt>
      <trkpt lat="40.0302480" lon="-4.6380560">
        <ele>404.6</ele>
        <time>2022-03-01T16:48:13Z</time>
      </trkpt>
      <trkpt lat="40.0302220" lon="-4.6380040">
        <ele>404.7</ele>
        <time>2022-03-01T16:48:14Z</time>
      </trkpt>
      <trkpt lat="40.0301970" lon="-4.6379510">
        <ele>404.8</ele>
        <time>2022-03-01T16:48:15Z</time>
      </trkpt>
      <trkpt lat="40.0301720" lon="-4.6378830">
        <ele>405.0</ele>
        <time>2022-03-01T16:48:16Z</time>
      </trkpt>
      <trkpt lat="40.0301540" lon="-4.6378270">
        <ele>405.1</ele>
        <time>2022-03-01T16:48:17Z</time>
      </trkpt>
      <trkpt lat="40.0301320" lon="-4.6377790">
        <ele>405.3</ele>
        <time>2022-03-01T16:48:18Z</time>
      </trkpt>
      <trkpt lat="40.0301090" lon="-4.6377160">
        <ele>405.5</ele>
        <time>2022-03-01T16:48:19Z</time>
      </trkpt>
      <trkpt lat="40.0300910" lon="-4.6376590">
        <ele>405.6</ele>
        <time>2022-03-01T16:48:20Z</time>
      </trkpt>
      <trkpt lat="40.0300700" lon="-4.6376100">
        <ele>405.8</ele>
        <time>2022-03-01T16:48:21Z</time>
      </trkpt>
      <trkpt lat="40.0300580" lon="-4.6375390">
        <ele>406.0</ele>
        <time>2022-03-01T16:48:22Z</time>
      </trkpt>
      <trkpt lat="40.0300420" lon="-4.6374770">
        <ele>406.1</ele>
        <time>2022-03-01T16:48:23Z</time>
      </trkpt>
      <trkpt lat="40.0300250" lon="-4.6374160">
        <ele>406.3</ele>
        <time>2022-03-01T16:48:24Z</time>
      </trkpt>
      <trkpt lat="40.0300070" lon="-4.6373660">
        <ele>406.5</ele>
        <time>2022-03-01T16:48:25Z</time>
      </trkpt>
      <trkpt lat="40.0299930" lon="-4.6373130">
        <ele>406.7</ele>
        <time>2022-03-01T16:48:26Z</time>
      </trkpt>
      <trkpt lat="40.0299740" lon="-4.6372570">
        <ele>406.9</ele>
        <time>2022-03-01T16:48:27Z</time>
      </trkpt>
      <trkpt lat="40.0299570" lon="-4.6371900">
        <ele>407.0</ele>
        <time>2022-03-01T16:48:28Z</time>
      </trkpt>
      <trkpt lat="40.0299460" lon="-4.6371160">
        <ele>407.2</ele>
        <time>2022-03-01T16:48:29Z</time>
      </trkpt>
      <trkpt lat="40.0299400" lon="-4.6370780">
        <ele>407.3</ele>
        <time>2022-03-01T16:48:30Z</time>
      </trkpt>
      <trkpt lat="40.0299330" lon="-4.6370430">
        <ele>407.4</ele>
        <time>2022-03-01T16:48:31Z</time>
      </trkpt>
      <trkpt lat="40.0299180" lon="-4.6369900">
        <ele>407.6</ele>
        <time>2022-03-01T16:48:32Z</time>
      </trkpt>
      <trkpt lat="40.0299140" lon="-4.6369360">
        <ele>407.7</ele>
        <time>2022-03-01T16:48:33Z</time>
      </trkpt>
      <trkpt lat="40.0299020" lon="-4.6368800">
        <ele>407.9</ele>
        <time>2022-03-01T16:48:34Z</time>
      </trkpt>
      <trkpt lat="40.0298850" lon="-4.6368360">
        <ele>408.0</ele>
        <time>2022-03-01T16:48:35Z</time>
      </trkpt>
      <trkpt lat="40.0298600" lon="-4.6367020">
        <ele>408.3</ele>
        <time>2022-03-01T16:48:36Z</time>
      </trkpt>
      <trkpt lat="40.0298400" lon="-4.6365940">
        <ele>408.6</ele>
        <time>2022-03-01T16:48:37Z</time>
      </trkpt>
      <trkpt lat="40.0298320" lon="-4.6365060">
        <ele>408.8</ele>
        <time>2022-03-01T16:48:38Z</time>
      </trkpt>
      <trkpt lat="40.0298170" lon="-4.6364310">
        <ele>409.0</ele>
        <time>2022-03-01T16:48:39Z</time>
      </trkpt>
      <trkpt lat="40.0298010" lon="-4.6363580">
        <ele>409.2</ele>
        <time>2022-03-01T16:48:40Z</time>
      </trkpt>
      <trkpt lat="40.0297920" lon="-4.6362860">
        <ele>409.4</ele>
        <time>2022-03-01T16:48:41Z</time>
      </trkpt>
      <trkpt lat="40.0297830" lon="-4.6362150">
        <ele>409.6</ele>
        <time>2022-03-01T16:48:42Z</time>
      </trkpt>
      <trkpt lat="40.0297660" lon="-4.6361490">
        <ele>409.8</ele>
        <time>2022-03-01T16:48:43Z</time>
      </trkpt>
      <trkpt lat="40.0297520" lon="-4.6360770">
        <ele>410.0</ele>
        <time>2022-03-01T16:48:44Z</time>
      </trkpt>
      <trkpt lat="40.0297400" lon="-4.6360080">
        <ele>410.1</ele>
        <time>2022-03-01T16:48:45Z</time>
      </trkpt>
      <trkpt lat="40.0297270" lon="-4.6359420">
        <ele>410.3</ele>
        <time>2022-03-01T16:48:46Z</time>
      </trkpt>
      <trkpt lat="40.0297130" lon="-4.6358670">
        <ele>410.5</ele>
        <time>2022-03-01T16:48:47Z</time>
      </trkpt>
      <trkpt lat="40.0297020" lon="-4.6357800">
        <ele>410.7</ele>
        <time>2022-03-01T16:48:48Z</time>
      </trkpt>
      <trkpt lat="40.0296870" lon="-4.6357040">
        <ele>410.9</ele>
        <time>2022-03-01T16:48:49Z</time>
      </trkpt>
      <trkpt lat="40.0296770" lon="-4.6356240">
        <ele>411.1</ele>
        <time>2022-03-01T16:48:50Z</time>
      </trkpt>
      <trkpt lat="40.0296640" lon="-4.6355480">
        <ele>411.3</ele>
        <time>2022-03-01T16:48:51Z</time>
      </trkpt>
      <trkpt lat="40.0296520" lon="-4.6354720">
        <ele>411.5</ele>
        <time>2022-03-01T16:48:52Z</time>
      </trkpt>
      <trkpt lat="40.0296410" lon="-4.6354000">
        <ele>411.7</ele>
        <time>2022-03-01T16:48:53Z</time>
      </trkpt>
      <trkpt lat="40.0296280" lon="-4.6353210">
        <ele>411.9</ele>
        <time>2022-03-01T16:48:54Z</time>
      </trkpt>
      <trkpt lat="40.0296140" lon="-4.6352450">
        <ele>412.1</ele>
        <time>2022-03-01T16:48:55Z</time>
      </trkpt>
      <trkpt lat="40.0296000" lon="-4.6351710">
        <ele>412.3</ele>
        <time>2022-03-01T16:48:56Z</time>
      </trkpt>
      <trkpt lat="40.0295870" lon="-4.6350990">
        <ele>412.5</ele>
        <time>2022-03-01T16:48:57Z</time>
      </trkpt>
      <trkpt lat="40.0295730" lon="-4.6350250">
        <ele>412.7</ele>
        <time>2022-03-01T16:48:58Z</time>
      </trkpt>
      <trkpt lat="40.0295590" lon="-4.6349530">
        <ele>412.9</ele>
        <time>2022-03-01T16:48:59Z</time>
      </trkpt>
      <trkpt lat="40.0295500" lon="-4.6348780">
        <ele>413.1</ele>
        <time>2022-03-01T16:49:00Z</time>
      </trkpt>
      <trkpt lat="40.0295400" lon="-4.6348070">
        <ele>413.3</ele>
        <time>2022-03-01T16:49:01Z</time>
      </trkpt>
      <trkpt lat="40.0295160" lon="-4.6347440">
        <ele>413.5</ele>
        <time>2022-03-01T16:49:02Z</time>
      </trkpt>
      <trkpt lat="40.0295120" lon="-4.6346720">
        <ele>413.6</ele>
        <time>2022-03-01T16:49:03Z</time>
      </trkpt>
      <trkpt lat="40.0295000" lon="-4.6346030">
        <ele>413.8</ele>
        <time>2022-03-01T16:49:04Z</time>
      </trkpt>
      <trkpt lat="40.0294830" lon="-4.6345350">
        <ele>414.0</ele>
        <time>2022-03-01T16:49:05Z</time>
      </trkpt>
      <trkpt lat="40.0294690" lon="-4.6344700">
        <ele>414.1</ele>
        <time>2022-03-01T16:49:06Z</time>
      </trkpt>
      <trkpt lat="40.0294480" lon="-4.6344020">
        <ele>414.3</ele>
        <time>2022-03-01T16:49:07Z</time>
      </trkpt>
      <trkpt lat="40.0294520" lon="-4.6343280">
        <ele>414.5</ele>
        <time>2022-03-01T16:49:08Z</time>
      </trkpt>
      <trkpt lat="40.0294320" lon="-4.6342550">
        <ele>414.7</ele>
        <time>2022-03-01T16:49:09Z</time>
      </trkpt>
      <trkpt lat="40.0294170" lon="-4.6341800">
        <ele>414.8</ele>
        <time>2022-03-01T16:49:10Z</time>
      </trkpt>
      <trkpt lat="40.0294130" lon="-4.6341090">
        <ele>415.0</ele>
        <time>2022-03-01T16:49:11Z</time>
      </trkpt>
      <trkpt lat="40.0294010" lon="-4.6340370">
        <ele>415.2</ele>
        <time>2022-03-01T16:49:12Z</time>
      </trkpt>
      <trkpt lat="40.0293840" lon="-4.6339600">
        <ele>415.4</ele>
        <time>2022-03-01T16:49:13Z</time>
      </trkpt>
      <trkpt lat="40.0293710" lon="-4.6339000">
        <ele>415.5</ele>
        <time>2022-03-01T16:49:14Z</time>
      </trkpt>
      <trkpt lat="40.0293600" lon="-4.6338260">
        <ele>415.7</ele>
        <time>2022-03-01T16:49:15Z</time>
      </trkpt>
      <trkpt lat="40.0293460" lon="-4.6337530">
        <ele>415.9</ele>
        <time>2022-03-01T16:49:16Z</time>
      </trkpt>
      <trkpt lat="40.0293320" lon="-4.6336820">
        <ele>416.0</ele>
        <time>2022-03-01T16:49:17Z</time>
      </trkpt>
      <trkpt lat="40.0293160" lon="-4.6336130">
        <ele>416.2</ele>
        <time>2022-03-01T16:49:18Z</time>
      </trkpt>
      <trkpt lat="40.0292990" lon="-4.6335410">
        <ele>416.3</ele>
        <time>2022-03-01T16:49:19Z</time>
      </trkpt>
      <trkpt lat="40.0292780" lon="-4.6334740">
        <ele>416.5</ele>
        <time>2022-03-01T16:49:20Z</time>
      </trkpt>
      <trkpt lat="40.0292590" lon="-4.6334050">
        <ele>416.7</ele>
        <time>2022-03-01T16:49:21Z</time>
      </trkpt>
      <trkpt lat="40.0292370" lon="-4.6333320">
        <ele>416.8</ele>
        <time>2022-03-01T16:49:22Z</time>
      </trkpt>
      <trkpt lat="40.0292170" lon="-4.6332660">
        <ele>417.0</ele>
        <time>2022-03-01T16:49:23Z</time>
      </trkpt>
      <trkpt lat="40.0291950" lon="-4.6331910">
        <ele>417.1</ele>
        <time>2022-03-01T16:49:24Z</time>
      </trkpt>
      <trkpt lat="40.0291710" lon="-4.6331190">
        <ele>417.3</ele>
        <time>2022-03-01T16:49:25Z</time>
      </trkpt>
      <trkpt lat="40.0291490" lon="-4.6330480">
        <ele>417.4</ele>
        <time>2022-03-01T16:49:26Z</time>
      </trkpt>
      <trkpt lat="40.0291170" lon="-4.6329840">
        <ele>417.6</ele>
        <time>2022-03-01T16:49:27Z</time>
      </trkpt>
      <trkpt lat="40.0290960" lon="-4.6329060">
        <ele>417.7</ele>
        <time>2022-03-01T16:49:28Z</time>
      </trkpt>
      <trkpt lat="40.0290750" lon="-4.6328380">
        <ele>417.8</ele>
        <time>2022-03-01T16:49:29Z</time>
      </trkpt>
      <trkpt lat="40.0290450" lon="-4.6327660">
        <ele>418.0</ele>
        <time>2022-03-01T16:49:30Z</time>
      </trkpt>
      <trkpt lat="40.0290180" lon="-4.6327050">
        <ele>418.2</ele>
        <time>2022-03-01T16:49:31Z</time>
      </trkpt>
      <trkpt lat="40.0289770" lon="-4.6326450">
        <ele>418.3</ele>
        <time>2022-03-01T16:49:32Z</time>
      </trkpt>
      <trkpt lat="40.0289430" lon="-4.6325790">
        <ele>418.5</ele>
        <time>2022-03-01T16:49:33Z</time>
      </trkpt>
      <trkpt lat="40.0289180" lon="-4.6325080">
        <ele>418.7</ele>
        <time>2022-03-01T16:49:34Z</time>
      </trkpt>
      <trkpt lat="40.0288800" lon="-4.6324460">
        <ele>418.9</ele>
        <time>2022-03-01T16:49:35Z</time>
      </trkpt>
      <trkpt lat="40.0288420" lon="-4.6323800">
        <ele>419.0</ele>
        <time>2022-03-01T16:49:36Z</time>
      </trkpt>
      <trkpt lat="40.0288030" lon="-4.6323210">
        <ele>419.2</ele>
        <time>2022-03-01T16:49:37Z</time>
      </trkpt>
      <trkpt lat="40.0287710" lon="-4.6322500">
        <ele>419.3</ele>
        <time>2022-03-01T16:49:38Z</time>
      </trkpt>
      <trkpt lat="40.0287340" lon="-4.6321830">
        <ele>419.5</ele>
        <time>2022-03-01T16:49:39Z</time>
      </trkpt>
      <trkpt lat="40.0286890" lon="-4.6321270">
        <ele>419.6</ele>
        <time>2022-03-01T16:49:40Z</time>
      </trkpt>
      <trkpt lat="40.0286430" lon="-4.6320630">
        <ele>419.8</ele>
        <time>2022-03-01T16:49:41Z</time>
      </trkpt>
      <trkpt lat="40.0286040" lon="-4.6320050">
        <ele>419.9</ele>
        <time>2022-03-01T16:49:42Z</time>
      </trkpt>
      <trkpt lat="40.0285630" lon="-4.6319480">
        <ele>420.1</ele>
        <time>2022-03-01T16:49:43Z</time>
      </trkpt>
      <trkpt lat="40.0285220" lon="-4.6318920">
        <ele>420.2</ele>
        <time>2022-03-01T16:49:44Z</time>
      </trkpt>
      <trkpt lat="40.0284780" lon="-4.6318360">
        <ele>420.4</ele>
        <time>2022-03-01T16:49:45Z</time>
      </trkpt>
      <trkpt lat="40.0284320" lon="-4.6317840">
        <ele>420.5</ele>
        <time>2022-03-01T16:49:46Z</time>
      </trkpt>
      <trkpt lat="40.0283870" lon="-4.6317260">
        <ele>420.7</ele>
        <time>2022-03-01T16:49:47Z</time>
      </trkpt>
      <trkpt lat="40.0283380" lon="-4.6316690">
        <ele>420.9</ele>
        <time>2022-03-01T16:49:48Z</time>
      </trkpt>
      <trkpt lat="40.0282970" lon="-4.6316160">
        <ele>421.0</ele>
        <time>2022-03-01T16:49:49Z</time>
      </trkpt>
      <trkpt lat="40.0282530" lon="-4.6315630">
        <ele>421.1</ele>
        <time>2022-03-01T16:49:50Z</time>
      </trkpt>
      <trkpt lat="40.0282010" lon="-4.6315160">
        <ele>421.3</ele>
        <time>2022-03-01T16:49:51Z</time>
      </trkpt>
      <trkpt lat="40.0281500" lon="-4.6314650">
        <ele>421.4</ele>
        <time>2022-03-01T16:49:52Z</time>
      </trkpt>
      <trkpt lat="40.0281000" lon="-4.6314160">
        <ele>421.5</ele>
        <time>2022-03-01T16:49:53Z</time>
      </trkpt>
      <trkpt lat="40.0280520" lon="-4.6313620">
        <ele>421.7</ele>
        <time>2022-03-01T16:49:54Z</time>
      </trkpt>
      <trkpt lat="40.0280030" lon="-4.6313230">
        <ele>421.9</ele>
        <time>2022-03-01T16:49:55Z</time>
      </trkpt>
      <trkpt lat="40.0279490" lon="-4.6312800">
        <ele>422.0</ele>
        <time>2022-03-01T16:49:56Z</time>
      </trkpt>
      <trkpt lat="40.0279020" lon="-4.6312380">
        <ele>422.2</ele>
        <time>2022-03-01T16:49:57Z</time>
      </trkpt>
      <trkpt lat="40.0278530" lon="-4.6311880">
        <ele>422.3</ele>
        <time>2022-03-01T16:49:58Z</time>
      </trkpt>
      <trkpt lat="40.0278030" lon="-4.6311400">
        <ele>422.4</ele>
        <time>2022-03-01T16:49:59Z</time>
      </trkpt>
      <trkpt lat="40.0277510" lon="-4.6310900">
        <ele>422.5</ele>
        <time>2022-03-01T16:50:00Z</time>
      </trkpt>
      <trkpt lat="40.0276980" lon="-4.6310380">
        <ele>422.6</ele>
        <time>2022-03-01T16:50:01Z</time>
      </trkpt>
      <trkpt lat="40.0276490" lon="-4.6309950">
        <ele>422.7</ele>
        <time>2022-03-01T16:50:02Z</time>
      </trkpt>
      <trkpt lat="40.0275920" lon="-4.6309410">
        <ele>422.8</ele>
        <time>2022-03-01T16:50:03Z</time>
      </trkpt>
      <trkpt lat="40.0275370" lon="-4.6308990">
        <ele>422.9</ele>
        <time>2022-03-01T16:50:04Z</time>
      </trkpt>
      <trkpt lat="40.0274850" lon="-4.6308420">
        <ele>423.0</ele>
        <time>2022-03-01T16:50:05Z</time>
      </trkpt>
      <trkpt lat="40.0274290" lon="-4.6307920">
        <ele>423.1</ele>
        <time>2022-03-01T16:50:06Z</time>
      </trkpt>
      <trkpt lat="40.0273760" lon="-4.6307440">
        <ele>423.2</ele>
        <time>2022-03-01T16:50:07Z</time>
      </trkpt>
      <trkpt lat="40.0273230" lon="-4.6306950">
        <ele>423.3</ele>
        <time>2022-03-01T16:50:08Z</time>
      </trkpt>
      <trkpt lat="40.0272660" lon="-4.6306430">
        <ele>423.4</ele>
        <time>2022-03-01T16:50:09Z</time>
      </trkpt>
      <trkpt lat="40.0272080" lon="-4.6306020">
        <ele>423.5</ele>
        <time>2022-03-01T16:50:10Z</time>
      </trkpt>
      <trkpt lat="40.0271550" lon="-4.6305580">
        <ele>423.6</ele>
        <time>2022-03-01T16:50:11Z</time>
      </trkpt>
      <trkpt lat="40.0270960" lon="-4.6305200">
        <ele>423.7</ele>
        <time>2022-03-01T16:50:12Z</time>
      </trkpt>
      <trkpt lat="40.0270410" lon="-4.6304770">
        <ele>423.8</ele>
        <time>2022-03-01T16:50:13Z</time>
      </trkpt>
      <trkpt lat="40.0269810" lon="-4.6304380">
        <ele>423.8</ele>
        <time>2022-03-01T16:50:14Z</time>
      </trkpt>
      <trkpt lat="40.0269230" lon="-4.6303990">
        <ele>423.9</ele>
        <time>2022-03-01T16:50:15Z</time>
      </trkpt>
      <trkpt lat="40.0268640" lon="-4.6303600">
        <ele>424.0</ele>
        <time>2022-03-01T16:50:16Z</time>
      </trkpt>
      <trkpt lat="40.0268060" lon="-4.6303240">
        <ele>424.1</ele>
        <time>2022-03-01T16:50:17Z</time>
      </trkpt>
      <trkpt lat="40.0267450" lon="-4.6302930">
        <ele>424.2</ele>
        <time>2022-03-01T16:50:18Z</time>
      </trkpt>
      <trkpt lat="40.0266860" lon="-4.6302630">
        <ele>424.3</ele>
        <time>2022-03-01T16:50:19Z</time>
      </trkpt>
      <trkpt lat="40.0266270" lon="-4.6302370">
        <ele>424.4</ele>
        <time>2022-03-01T16:50:20Z</time>
      </trkpt>
      <trkpt lat="40.0265650" lon="-4.6302110">
        <ele>424.5</ele>
        <time>2022-03-01T16:50:21Z</time>
      </trkpt>
      <trkpt lat="40.0265020" lon="-4.6301860">
        <ele>424.6</ele>
        <time>2022-03-01T16:50:22Z</time>
      </trkpt>
      <trkpt lat="40.0264400" lon="-4.6301590">
        <ele>424.7</ele>
        <time>2022-03-01T16:50:23Z</time>
      </trkpt>
      <trkpt lat="40.0263760" lon="-4.6301370">
        <ele>424.8</ele>
        <time>2022-03-01T16:50:24Z</time>
      </trkpt>
      <trkpt lat="40.0263180" lon="-4.6301150">
        <ele>424.9</ele>
        <time>2022-03-01T16:50:25Z</time>
      </trkpt>
      <trkpt lat="40.0262590" lon="-4.6300910">
        <ele>425.0</ele>
        <time>2022-03-01T16:50:26Z</time>
      </trkpt>
      <trkpt lat="40.0261990" lon="-4.6300810">
        <ele>425.1</ele>
        <time>2022-03-01T16:50:27Z</time>
      </trkpt>
      <trkpt lat="40.0261380" lon="-4.6300630">
        <ele>425.2</ele>
        <time>2022-03-01T16:50:28Z</time>
      </trkpt>
      <trkpt lat="40.0260780" lon="-4.6300510">
        <ele>425.4</ele>
        <time>2022-03-01T16:50:29Z</time>
      </trkpt>
      <trkpt lat="40.0260160" lon="-4.6300340">
        <ele>425.5</ele>
        <time>2022-03-01T16:50:30Z</time>
      </trkpt>
      <trkpt lat="40.0259590" lon="-4.6300230">
        <ele>425.6</ele>
        <time>2022-03-01T16:50:31Z</time>
      </trkpt>
      <trkpt lat="40.0259010" lon="-4.6300100">
        <ele>425.7</ele>
        <time>2022-03-01T16:50:32Z</time>
      </trkpt>
      <trkpt lat="40.0258440" lon="-4.6300070">
        <ele>425.8</ele>
        <time>2022-03-01T16:50:33Z</time>
      </trkpt>
      <trkpt lat="40.0257870" lon="-4.6299990">
        <ele>425.9</ele>
        <time>2022-03-01T16:50:34Z</time>
      </trkpt>
      <trkpt lat="40.0257280" lon="-4.6299900">
        <ele>426.0</ele>
        <time>2022-03-01T16:50:35Z</time>
      </trkpt>
      <trkpt lat="40.0256700" lon="-4.6299820">
        <ele>426.1</ele>
        <time>2022-03-01T16:50:36Z</time>
      </trkpt>
      <trkpt lat="40.0256110" lon="-4.6299720">
        <ele>426.2</ele>
        <time>2022-03-01T16:50:37Z</time>
      </trkpt>
      <trkpt lat="40.0255550" lon="-4.6299660">
        <ele>426.3</ele>
        <time>2022-03-01T16:50:38Z</time>
      </trkpt>
      <trkpt lat="40.0254980" lon="-4.6299550">
        <ele>426.4</ele>
        <time>2022-03-01T16:50:39Z</time>
      </trkpt>
      <trkpt lat="40.0254370" lon="-4.6299440">
        <ele>426.5</ele>
        <time>2022-03-01T16:50:40Z</time>
      </trkpt>
      <trkpt lat="40.0253820" lon="-4.6299410">
        <ele>426.6</ele>
        <time>2022-03-01T16:50:41Z</time>
      </trkpt>
      <trkpt lat="40.0253250" lon="-4.6299310">
        <ele>426.7</ele>
        <time>2022-03-01T16:50:42Z</time>
      </trkpt>
      <trkpt lat="40.0252700" lon="-4.6299250">
        <ele>426.8</ele>
        <time>2022-03-01T16:50:43Z</time>
      </trkpt>
      <trkpt lat="40.0252150" lon="-4.6299150">
        <ele>426.9</ele>
        <time>2022-03-01T16:50:44Z</time>
      </trkpt>
      <trkpt lat="40.0251590" lon="-4.6299080">
        <ele>427.1</ele>
        <time>2022-03-01T16:50:45Z</time>
      </trkpt>
      <trkpt lat="40.0251030" lon="-4.6298980">
        <ele>427.2</ele>
        <time>2022-03-01T16:50:46Z</time>
      </trkpt>
      <trkpt lat="40.0250470" lon="-4.6298920">
        <ele>427.3</ele>
        <time>2022-03-01T16:50:47Z</time>
      </trkpt>
      <trkpt lat="40.0249930" lon="-4.6298830">
        <ele>427.5</ele>
        <time>2022-03-01T16:50:48Z</time>
      </trkpt>
      <trkpt lat="40.0249390" lon="-4.6298710">
        <ele>427.6</ele>
        <time>2022-03-01T16:50:49Z</time>
      </trkpt>
      <trkpt lat="40.0248860" lon="-4.6298590">
        <ele>427.8</ele>
        <time>2022-03-01T16:50:50Z</time>
      </trkpt>
      <trkpt lat="40.0248340" lon="-4.6298490">
        <ele>427.9</ele>
        <time>2022-03-01T16:50:51Z</time>
      </trkpt>
      <trkpt lat="40.0247810" lon="-4.6298420">
        <ele>428.1</ele>
        <time>2022-03-01T16:50:52Z</time>
      </trkpt>
      <trkpt lat="40.0247350" lon="-4.6298280">
        <ele>428.2</ele>
        <time>2022-03-01T16:50:53Z</time>
      </trkpt>
      <trkpt lat="40.0246830" lon="-4.6298150">
        <ele>428.4</ele>
        <time>2022-03-01T16:50:54Z</time>
      </trkpt>
      <trkpt lat="40.0246360" lon="-4.6298000">
        <ele>428.6</ele>
        <time>2022-03-01T16:50:55Z</time>
      </trkpt>
      <trkpt lat="40.0245830" lon="-4.6297850">
        <ele>428.8</ele>
        <time>2022-03-01T16:50:56Z</time>
      </trkpt>
      <trkpt lat="40.0245310" lon="-4.6297700">
        <ele>429.0</ele>
        <time>2022-03-01T16:50:57Z</time>
      </trkpt>
      <trkpt lat="40.0244920" lon="-4.6297660">
        <ele>429.2</ele>
        <time>2022-03-01T16:50:58Z</time>
      </trkpt>
      <trkpt lat="40.0244350" lon="-4.6297380">
        <ele>429.4</ele>
        <time>2022-03-01T16:50:59Z</time>
      </trkpt>
      <trkpt lat="40.0243840" lon="-4.6297230">
        <ele>429.7</ele>
        <time>2022-03-01T16:51:00Z</time>
      </trkpt>
      <trkpt lat="40.0243380" lon="-4.6296990">
        <ele>429.9</ele>
        <time>2022-03-01T16:51:01Z</time>
      </trkpt>
      <trkpt lat="40.0242910" lon="-4.6296730">
        <ele>430.2</ele>
        <time>2022-03-01T16:51:02Z</time>
      </trkpt>
      <trkpt lat="40.0242560" lon="-4.6296640">
        <ele>430.4</ele>
        <time>2022-03-01T16:51:03Z</time>
      </trkpt>
      <trkpt lat="40.0242040" lon="-4.6296480">
        <ele>430.6</ele>
        <time>2022-03-01T16:51:04Z</time>
      </trkpt>
      <trkpt lat="40.0241590" lon="-4.6296220">
        <ele>430.9</ele>
        <time>2022-03-01T16:51:05Z</time>
      </trkpt>
      <trkpt lat="40.0241160" lon="-4.6295920">
        <ele>431.2</ele>
        <time>2022-03-01T16:51:06Z</time>
      </trkpt>
      <trkpt lat="40.0240720" lon="-4.6295740">
        <ele>431.4</ele>
        <time>2022-03-01T16:51:07Z</time>
      </trkpt>
      <trkpt lat="40.0240300" lon="-4.6295520">
        <ele>431.7</ele>
        <time>2022-03-01T16:51:08Z</time>
      </trkpt>
      <trkpt lat="40.0239880" lon="-4.6295260">
        <ele>432.0</ele>
        <time>2022-03-01T16:51:09Z</time>
      </trkpt>
      <trkpt lat="40.0239480" lon="-4.6294940">
        <ele>432.2</ele>
        <time>2022-03-01T16:51:10Z</time>
      </trkpt>
      <trkpt lat="40.0239090" lon="-4.6294640">
        <ele>432.5</ele>
        <time>2022-03-01T16:51:11Z</time>
      </trkpt>
      <trkpt lat="40.0238730" lon="-4.6294310">
        <ele>432.8</ele>
        <time>2022-03-01T16:51:12Z</time>
      </trkpt>
      <trkpt lat="40.0238350" lon="-4.6294030">
        <ele>433.0</ele>
        <time>2022-03-01T16:51:13Z</time>
      </trkpt>
      <trkpt lat="40.0237960" lon="-4.6293800">
        <ele>433.3</ele>
        <time>2022-03-01T16:51:14Z</time>
      </trkpt>
      <trkpt lat="40.0237620" lon="-4.6293480">
        <ele>433.5</ele>
        <time>2022-03-01T16:51:15Z</time>
      </trkpt>
      <trkpt lat="40.0237180" lon="-4.6293210">
        <ele>433.8</ele>
        <time>2022-03-01T16:51:16Z</time>
      </trkpt>
      <trkpt lat="40.0236870" lon="-4.6292810">
        <ele>434.1</ele>
        <time>2022-03-01T16:51:17Z</time>
      </trkpt>
      <trkpt lat="40.0236550" lon="-4.6292520">
        <ele>434.4</ele>
        <time>2022-03-01T16:51:18Z</time>
      </trkpt>
      <trkpt lat="40.0236160" lon="-4.6292160">
        <ele>434.7</ele>
        <time>2022-03-01T16:51:19Z</time>
      </trkpt>
      <trkpt lat="40.0235770" lon="-4.6291840">
        <ele>435.0</ele>
        <time>2022-03-01T16:51:20Z</time>
      </trkpt>
      <trkpt lat="40.0235420" lon="-4.6291520">
        <ele>435.2</ele>
        <time>2022-03-01T16:51:21Z</time>
      </trkpt>
      <trkpt lat="40.0235070" lon="-4.6291150">
        <ele>435.5</ele>
        <time>2022-03-01T16:51:22Z</time>
      </trkpt>
      <trkpt lat="40.0234660" lon="-4.6290750">
        <ele>435.8</ele>
        <time>2022-03-01T16:51:23Z</time>
      </trkpt>
      <trkpt lat="40.0234280" lon="-4.6290270">
        <ele>436.1</ele>
        <time>2022-03-01T16:51:24Z</time>
      </trkpt>
      <trkpt lat="40.0233860" lon="-4.6289840">
        <ele>436.4</ele>
        <time>2022-03-01T16:51:25Z</time>
      </trkpt>
      <trkpt lat="40.0233470" lon="-4.6289350">
        <ele>436.7</ele>
        <time>2022-03-01T16:51:26Z</time>
      </trkpt>
      <trkpt lat="40.0233030" lon="-4.6288940">
        <ele>437.0</ele>
        <time>2022-03-01T16:51:27Z</time>
      </trkpt>
      <trkpt lat="40.0232630" lon="-4.6288450">
        <ele>437.4</ele>
        <time>2022-03-01T16:51:28Z</time>
      </trkpt>
      <trkpt lat="40.0232240" lon="-4.6287990">
        <ele>437.7</ele>
        <time>2022-03-01T16:51:29Z</time>
      </trkpt>
      <trkpt lat="40.0231860" lon="-4.6287500">
        <ele>438.0</ele>
        <time>2022-03-01T16:51:30Z</time>
      </trkpt>
      <trkpt lat="40.0231470" lon="-4.6287050">
        <ele>438.3</ele>
        <time>2022-03-01T16:51:31Z</time>
      </trkpt>
      <trkpt lat="40.0231080" lon="-4.6286540">
        <ele>438.7</ele>
        <time>2022-03-01T16:51:32Z</time>
      </trkpt>
      <trkpt lat="40.0230820" lon="-4.6285990">
        <ele>439.0</ele>
        <time>2022-03-01T16:51:33Z</time>
      </trkpt>
      <trkpt lat="40.0230370" lon="-4.6285570">
        <ele>439.3</ele>
        <time>2022-03-01T16:51:34Z</time>
      </trkpt>
      <trkpt lat="40.0229970" lon="-4.6285110">
        <ele>439.7</ele>
        <time>2022-03-01T16:51:35Z</time>
      </trkpt>
      <trkpt lat="40.0229610" lon="-4.6284640">
        <ele>440.0</ele>
        <time>2022-03-01T16:51:36Z</time>
      </trkpt>
      <trkpt lat="40.0229340" lon="-4.6284120">
        <ele>440.2</ele>
        <time>2022-03-01T16:51:37Z</time>
      </trkpt>
      <trkpt lat="40.0228970" lon="-4.6283610">
        <ele>440.5</ele>
        <time>2022-03-01T16:51:38Z</time>
      </trkpt>
      <trkpt lat="40.0228620" lon="-4.6283210">
        <ele>440.8</ele>
        <time>2022-03-01T16:51:39Z</time>
      </trkpt>
      <trkpt lat="40.0228310" lon="-4.6282770">
        <ele>441.1</ele>
        <time>2022-03-01T16:51:40Z</time>
      </trkpt>
      <trkpt lat="40.0227940" lon="-4.6282290">
        <ele>441.3</ele>
        <time>2022-03-01T16:51:41Z</time>
      </trkpt>
      <trkpt lat="40.0227600" lon="-4.6281900">
        <ele>441.6</ele>
        <time>2022-03-01T16:51:42Z</time>
      </trkpt>
      <trkpt lat="40.0227320" lon="-4.6281400">
        <ele>441.8</ele>
        <time>2022-03-01T16:51:43Z</time>
      </trkpt>
      <trkpt lat="40.0227020" lon="-4.6280920">
        <ele>442.1</ele>
        <time>2022-03-01T16:51:44Z</time>
      </trkpt>
      <trkpt lat="40.0226710" lon="-4.6280450">
        <ele>442.4</ele>
        <time>2022-03-01T16:51:45Z</time>
      </trkpt>
      <trkpt lat="40.0226360" lon="-4.6280030">
        <ele>442.7</ele>
        <time>2022-03-01T16:51:46Z</time>
      </trkpt>
      <trkpt lat="40.0226100" lon="-4.6279660">
        <ele>442.9</ele>
        <time>2022-03-01T16:51:47Z</time>
      </trkpt>
      <trkpt lat="40.0225740" lon="-4.6279250">
        <ele>443.2</ele>
        <time>2022-03-01T16:51:48Z</time>
      </trkpt>
      <trkpt lat="40.0225460" lon="-4.6278850">
        <ele>443.4</ele>
        <time>2022-03-01T16:51:49Z</time>
      </trkpt>
      <trkpt lat="40.0225150" lon="-4.6278440">
        <ele>443.7</ele>
        <time>2022-03-01T16:51:50Z</time>
      </trkpt>
      <trkpt lat="40.0224780" lon="-4.6278080">
        <ele>444.0</ele>
        <time>2022-03-01T16:51:51Z</time>
      </trkpt>
      <trkpt lat="40.0224420" lon="-4.6277650">
        <ele>444.2</ele>
        <time>2022-03-01T16:51:52Z</time>
      </trkpt>
      <trkpt lat="40.0224100" lon="-4.6277170">
        <ele>444.5</ele>
        <time>2022-03-01T16:51:53Z</time>
      </trkpt>
      <trkpt lat="40.0223770" lon="-4.6276760">
        <ele>444.7</ele>
        <time>2022-03-01T16:51:54Z</time>
      </trkpt>
      <trkpt lat="40.0223460" lon="-4.6276300">
        <ele>445.0</ele>
        <time>2022-03-01T16:51:55Z</time>
      </trkpt>
      <trkpt lat="40.0223150" lon="-4.6275810">
        <ele>445.3</ele>
        <time>2022-03-01T16:51:56Z</time>
      </trkpt>
      <trkpt lat="40.0222810" lon="-4.6275360">
        <ele>445.5</ele>
        <time>2022-03-01T16:51:57Z</time>
      </trkpt>
      <trkpt lat="40.0222470" lon="-4.6274930">
        <ele>445.7</ele>
        <time>2022-03-01T16:51:58Z</time>
      </trkpt>
      <trkpt lat="40.0222140" lon="-4.6274450">
        <ele>446.0</ele>
        <time>2022-03-01T16:51:59Z</time>
      </trkpt>
      <trkpt lat="40.0221810" lon="-4.6274000">
        <ele>446.2</ele>
        <time>2022-03-01T16:52:00Z</time>
      </trkpt>
      <trkpt lat="40.0221430" lon="-4.6273480">
        <ele>446.4</ele>
        <time>2022-03-01T16:52:01Z</time>
      </trkpt>
      <trkpt lat="40.0221110" lon="-4.6273010">
        <ele>446.6</ele>
        <time>2022-03-01T16:52:02Z</time>
      </trkpt>
      <trkpt lat="40.0220810" lon="-4.6272620">
        <ele>446.8</ele>
        <time>2022-03-01T16:52:03Z</time>
      </trkpt>
      <trkpt lat="40.0220450" lon="-4.6272000">
        <ele>447.0</ele>
        <time>2022-03-01T16:52:04Z</time>
      </trkpt>
      <trkpt lat="40.0220030" lon="-4.6271540">
        <ele>447.2</ele>
        <time>2022-03-01T16:52:05Z</time>
      </trkpt>
      <trkpt lat="40.0219690" lon="-4.6271090">
        <ele>447.3</ele>
        <time>2022-03-01T16:52:06Z</time>
      </trkpt>
      <trkpt lat="40.0219320" lon="-4.6270570">
        <ele>447.4</ele>
        <time>2022-03-01T16:52:07Z</time>
      </trkpt>
      <trkpt lat="40.0218930" lon="-4.6270020">
        <ele>447.6</ele>
        <time>2022-03-01T16:52:08Z</time>
      </trkpt>
      <trkpt lat="40.0218580" lon="-4.6269520">
        <ele>447.7</ele>
        <time>2022-03-01T16:52:09Z</time>
      </trkpt>
      <trkpt lat="40.0218100" lon="-4.6268950">
        <ele>447.8</ele>
        <time>2022-03-01T16:52:10Z</time>
      </trkpt>
      <trkpt lat="40.0217620" lon="-4.6268420">
        <ele>447.9</ele>
        <time>2022-03-01T16:52:11Z</time>
      </trkpt>
      <trkpt lat="40.0217240" lon="-4.6267740">
        <ele>448.0</ele>
        <time>2022-03-01T16:52:12Z</time>
      </trkpt>
      <trkpt lat="40.0216790" lon="-4.6267200">
        <ele>448.1</ele>
        <time>2022-03-01T16:52:13Z</time>
      </trkpt>
      <trkpt lat="40.0216350" lon="-4.6266590">
        <ele>448.1</ele>
        <time>2022-03-01T16:52:14Z</time>
      </trkpt>
      <trkpt lat="40.0215880" lon="-4.6266020">
        <ele>448.2</ele>
        <time>2022-03-01T16:52:15Z</time>
      </trkpt>
      <trkpt lat="40.0215430" lon="-4.6265450">
        <ele>448.2</ele>
        <time>2022-03-01T16:52:16Z</time>
      </trkpt>
      <trkpt lat="40.0214960" lon="-4.6264810">
        <ele>448.3</ele>
        <time>2022-03-01T16:52:17Z</time>
      </trkpt>
      <trkpt lat="40.0214490" lon="-4.6264160">
        <ele>448.3</ele>
        <time>2022-03-01T16:52:18Z</time>
      </trkpt>
      <trkpt lat="40.0214030" lon="-4.6263550">
        <ele>448.3</ele>
        <time>2022-03-01T16:52:19Z</time>
      </trkpt>
      <trkpt lat="40.0213560" lon="-4.6262920">
        <ele>448.4</ele>
        <time>2022-03-01T16:52:20Z</time>
      </trkpt>
      <trkpt lat="40.0213090" lon="-4.6262340">
        <ele>448.4</ele>
        <time>2022-03-01T16:52:21Z</time>
      </trkpt>
      <trkpt lat="40.0212640" lon="-4.6261670">
        <ele>448.4</ele>
        <time>2022-03-01T16:52:22Z</time>
      </trkpt>
      <trkpt lat="40.0212160" lon="-4.6261040">
        <ele>448.5</ele>
        <time>2022-03-01T16:52:23Z</time>
      </trkpt>
      <trkpt lat="40.0211680" lon="-4.6260420">
        <ele>448.5</ele>
        <time>2022-03-01T16:52:24Z</time>
      </trkpt>
      <trkpt lat="40.0211140" lon="-4.6259820">
        <ele>448.5</ele>
        <time>2022-03-01T16:52:25Z</time>
      </trkpt>
      <trkpt lat="40.0210580" lon="-4.6259240">
        <ele>448.6</ele>
        <time>2022-03-01T16:52:26Z</time>
      </trkpt>
      <trkpt lat="40.0210070" lon="-4.6258640">
        <ele>448.6</ele>
        <time>2022-03-01T16:52:27Z</time>
      </trkpt>
      <trkpt lat="40.0209510" lon="-4.6258060">
        <ele>448.7</ele>
        <time>2022-03-01T16:52:28Z</time>
      </trkpt>
      <trkpt lat="40.0208970" lon="-4.6257500">
        <ele>448.7</ele>
        <time>2022-03-01T16:52:29Z</time>
      </trkpt>
      <trkpt lat="40.0208420" lon="-4.6256970">
        <ele>448.7</ele>
        <time>2022-03-01T16:52:30Z</time>
      </trkpt>
      <trkpt lat="40.0207810" lon="-4.6256460">
        <ele>448.8</ele>
        <time>2022-03-01T16:52:31Z</time>
      </trkpt>
      <trkpt lat="40.0207220" lon="-4.6256000">
        <ele>448.9</ele>
        <time>2022-03-01T16:52:32Z</time>
      </trkpt>
      <trkpt lat="40.0206630" lon="-4.6255520">
        <ele>449.0</ele>
        <time>2022-03-01T16:52:33Z</time>
      </trkpt>
      <trkpt lat="40.0206030" lon="-4.6255070">
        <ele>449.1</ele>
        <time>2022-03-01T16:52:34Z</time>
      </trkpt>
      <trkpt lat="40.0205440" lon="-4.6254640">
        <ele>449.2</ele>
        <time>2022-03-01T16:52:35Z</time>
      </trkpt>
      <trkpt lat="40.0204840" lon="-4.6254250">
        <ele>449.4</ele>
        <time>2022-03-01T16:52:36Z</time>
      </trkpt>
      <trkpt lat="40.0204220" lon="-4.6253900">
        <ele>449.5</ele>
        <time>2022-03-01T16:52:37Z</time>
      </trkpt>
      <trkpt lat="40.0203610" lon="-4.6253490">
        <ele>449.6</ele>
        <time>2022-03-01T16:52:38Z</time>
      </trkpt>
      <trkpt lat="40.0203010" lon="-4.6253150">
        <ele>449.7</ele>
        <time>2022-03-01T16:52:39Z</time>
      </trkpt>
      <trkpt lat="40.0202370" lon="-4.6252800">
        <ele>449.8</ele>
        <time>2022-03-01T16:52:40Z</time>
      </trkpt>
      <trkpt lat="40.0201730" lon="-4.6252420">
        <ele>449.9</ele>
        <time>2022-03-01T16:52:41Z</time>
      </trkpt>
      <trkpt lat="40.0201110" lon="-4.6252150">
        <ele>450.0</ele>
        <time>2022-03-01T16:52:42Z</time>
      </trkpt>
      <trkpt lat="40.0200470" lon="-4.6251820">
        <ele>450.1</ele>
        <time>2022-03-01T16:52:43Z</time>
      </trkpt>
      <trkpt lat="40.0199770" lon="-4.6251540">
        <ele>450.2</ele>
        <time>2022-03-01T16:52:44Z</time>
      </trkpt>
      <trkpt lat="40.0199090" lon="-4.6251220">
        <ele>450.2</ele>
        <time>2022-03-01T16:52:45Z</time>
      </trkpt>
      <trkpt lat="40.0198420" lon="-4.6250860">
        <ele>450.2</ele>
        <time>2022-03-01T16:52:46Z</time>
      </trkpt>
      <trkpt lat="40.0197720" lon="-4.6250600">
        <ele>450.2</ele>
        <time>2022-03-01T16:52:47Z</time>
      </trkpt>
      <trkpt lat="40.0196970" lon="-4.6250290">
        <ele>450.2</ele>
        <time>2022-03-01T16:52:48Z</time>
      </trkpt>
      <trkpt lat="40.0196280" lon="-4.6249970">
        <ele>450.2</ele>
        <time>2022-03-01T16:52:49Z</time>
      </trkpt>
      <trkpt lat="40.0195540" lon="-4.6249650">
        <ele>450.1</ele>
        <time>2022-03-01T16:52:50Z</time>
      </trkpt>
      <trkpt lat="40.0194800" lon="-4.6249310">
        <ele>450.1</ele>
        <time>2022-03-01T16:52:51Z</time>
      </trkpt>
      <trkpt lat="40.0194080" lon="-4.6248960">
        <ele>450.0</ele>
        <time>2022-03-01T16:52:52Z</time>
      </trkpt>
      <trkpt lat="40.0193310" lon="-4.6248620">
        <ele>450.0</ele>
        <time>2022-03-01T16:52:53Z</time>
      </trkpt>
      <trkpt lat="40.0192580" lon="-4.6248290">
        <ele>450.0</ele>
        <time>2022-03-01T16:52:54Z</time>
      </trkpt>
      <trkpt lat="40.0191870" lon="-4.6247940">
        <ele>449.9</ele>
        <time>2022-03-01T16:52:55Z</time>
      </trkpt>
      <trkpt lat="40.0191090" lon="-4.6247610">
        <ele>449.9</ele>
        <time>2022-03-01T16:52:56Z</time>
      </trkpt>
      <trkpt lat="40.0190320" lon="-4.6247280">
        <ele>449.8</ele>
        <time>2022-03-01T16:52:57Z</time>
      </trkpt>
      <trkpt lat="40.0189560" lon="-4.6246950">
        <ele>449.8</ele>
        <time>2022-03-01T16:52:58Z</time>
      </trkpt>
      <trkpt lat="40.0188770" lon="-4.6246650">
        <ele>449.7</ele>
        <time>2022-03-01T16:52:59Z</time>
      </trkpt>
      <trkpt lat="40.0187980" lon="-4.6246250">
        <ele>449.7</ele>
        <time>2022-03-01T16:53:00Z</time>
      </trkpt>
      <trkpt lat="40.0187180" lon="-4.6245910">
        <ele>449.6</ele>
        <time>2022-03-01T16:53:01Z</time>
      </trkpt>
      <trkpt lat="40.0186450" lon="-4.6245670">
        <ele>449.6</ele>
        <time>2022-03-01T16:53:02Z</time>
      </trkpt>
      <trkpt lat="40.0185600" lon="-4.6245240">
        <ele>449.5</ele>
        <time>2022-03-01T16:53:03Z</time>
      </trkpt>
      <trkpt lat="40.0184770" lon="-4.6244960">
        <ele>449.4</ele>
        <time>2022-03-01T16:53:04Z</time>
      </trkpt>
      <trkpt lat="40.0183990" lon="-4.6244760">
        <ele>449.3</ele>
        <time>2022-03-01T16:53:05Z</time>
      </trkpt>
      <trkpt lat="40.0183200" lon="-4.6244400">
        <ele>449.2</ele>
        <time>2022-03-01T16:53:06Z</time>
      </trkpt>
      <trkpt lat="40.0182370" lon="-4.6244050">
        <ele>449.1</ele>
        <time>2022-03-01T16:53:07Z</time>
      </trkpt>
      <trkpt lat="40.0181560" lon="-4.6243720">
        <ele>449.0</ele>
        <time>2022-03-01T16:53:08Z</time>
      </trkpt>
      <trkpt lat="40.0180800" lon="-4.6243350">
        <ele>448.9</ele>
        <time>2022-03-01T16:53:09Z</time>
      </trkpt>
      <trkpt lat="40.0179980" lon="-4.6243000">
        <ele>448.8</ele>
        <time>2022-03-01T16:53:10Z</time>
      </trkpt>
      <trkpt lat="40.0179160" lon="-4.6242630">
        <ele>448.6</ele>
        <time>2022-03-01T16:53:11Z</time>
      </trkpt>
      <trkpt lat="40.0178360" lon="-4.6242290">
        <ele>448.5</ele>
        <time>2022-03-01T16:53:12Z</time>
      </trkpt>
      <trkpt lat="40.0177550" lon="-4.6241910">
        <ele>448.4</ele>
        <time>2022-03-01T16:53:13Z</time>
      </trkpt>
      <trkpt lat="40.0176740" lon="-4.6241570">
        <ele>448.3</ele>
        <time>2022-03-01T16:53:14Z</time>
      </trkpt>
      <trkpt lat="40.0175890" lon="-4.6241200">
        <ele>448.1</ele>
        <time>2022-03-01T16:53:15Z</time>
      </trkpt>
      <trkpt lat="40.0175040" lon="-4.6240830">
        <ele>448.0</ele>
        <time>2022-03-01T16:53:16Z</time>
      </trkpt>
      <trkpt lat="40.0174200" lon="-4.6240470">
        <ele>447.9</ele>
        <time>2022-03-01T16:53:17Z</time>
      </trkpt>
      <trkpt lat="40.0173360" lon="-4.6240110">
        <ele>447.7</ele>
        <time>2022-03-01T16:53:18Z</time>
      </trkpt>
      <trkpt lat="40.0172520" lon="-4.6239780">
        <ele>447.6</ele>
        <time>2022-03-01T16:53:19Z</time>
      </trkpt>
      <trkpt lat="40.0171660" lon="-4.6239390">
        <ele>447.5</ele>
        <time>2022-03-01T16:53:20Z</time>
      </trkpt>
      <trkpt lat="40.0170830" lon="-4.6239050">
        <ele>447.4</ele>
        <time>2022-03-01T16:53:21Z</time>
      </trkpt>
      <trkpt lat="40.0170000" lon="-4.6238690">
        <ele>447.3</ele>
        <time>2022-03-01T16:53:22Z</time>
      </trkpt>
      <trkpt lat="40.0169180" lon="-4.6238350">
        <ele>447.2</ele>
        <time>2022-03-01T16:53:23Z</time>
      </trkpt>
      <trkpt lat="40.0168300" lon="-4.6237990">
        <ele>447.2</ele>
        <time>2022-03-01T16:53:24Z</time>
      </trkpt>
      <trkpt lat="40.0167470" lon="-4.6237670">
        <ele>447.1</ele>
        <time>2022-03-01T16:53:25Z</time>
      </trkpt>
      <trkpt lat="40.0166650" lon="-4.6237310">
        <ele>447.0</ele>
        <time>2022-03-01T16:53:26Z</time>
      </trkpt>
      <trkpt lat="40.0165830" lon="-4.6236940">
        <ele>446.9</ele>
        <time>2022-03-01T16:53:27Z</time>
      </trkpt>
      <trkpt lat="40.0165030" lon="-4.6236590">
        <ele>446.8</ele>
        <time>2022-03-01T16:53:28Z</time>
      </trkpt>
      <trkpt lat="40.0164220" lon="-4.6236190">
        <ele>446.7</ele>
        <time>2022-03-01T16:53:29Z</time>
      </trkpt>
      <trkpt lat="40.0163430" lon="-4.6235840">
        <ele>446.7</ele>
        <time>2022-03-01T16:53:30Z</time>
      </trkpt>
      <trkpt lat="40.0162630" lon="-4.6235520">
        <ele>446.8</ele>
        <time>2022-03-01T16:53:31Z</time>
      </trkpt>
      <trkpt lat="40.0161870" lon="-4.6235170">
        <ele>446.8</ele>
        <time>2022-03-01T16:53:32Z</time>
      </trkpt>
      <trkpt lat="40.0161050" lon="-4.6234870">
        <ele>446.8</ele>
        <time>2022-03-01T16:53:33Z</time>
      </trkpt>
      <trkpt lat="40.0160260" lon="-4.6234520">
        <ele>446.9</ele>
        <time>2022-03-01T16:53:34Z</time>
      </trkpt>
      <trkpt lat="40.0159510" lon="-4.6234150">
        <ele>447.0</ele>
        <time>2022-03-01T16:53:35Z</time>
      </trkpt>
      <trkpt lat="40.0158800" lon="-4.6233820">
        <ele>447.1</ele>
        <time>2022-03-01T16:53:36Z</time>
      </trkpt>
      <trkpt lat="40.0158030" lon="-4.6233500">
        <ele>447.2</ele>
        <time>2022-03-01T16:53:37Z</time>
      </trkpt>
      <trkpt lat="40.0157310" lon="-4.6233170">
        <ele>447.4</ele>
        <time>2022-03-01T16:53:38Z</time>
      </trkpt>
      <trkpt lat="40.0156710" lon="-4.6232950">
        <ele>447.5</ele>
        <time>2022-03-01T16:53:39Z</time>
      </trkpt>
      <trkpt lat="40.0155950" lon="-4.6232630">
        <ele>447.7</ele>
        <time>2022-03-01T16:53:40Z</time>
      </trkpt>
      <trkpt lat="40.0155300" lon="-4.6232380">
        <ele>447.8</ele>
        <time>2022-03-01T16:53:41Z</time>
      </trkpt>
      <trkpt lat="40.0154640" lon="-4.6232110">
        <ele>448.0</ele>
        <time>2022-03-01T16:53:42Z</time>
      </trkpt>
      <trkpt lat="40.0153980" lon="-4.6231750">
        <ele>448.1</ele>
        <time>2022-03-01T16:53:43Z</time>
      </trkpt>
      <trkpt lat="40.0153320" lon="-4.6231480">
        <ele>448.3</ele>
        <time>2022-03-01T16:53:44Z</time>
      </trkpt>
      <trkpt lat="40.0152680" lon="-4.6231200">
        <ele>448.5</ele>
        <time>2022-03-01T16:53:45Z</time>
      </trkpt>
      <trkpt lat="40.0152050" lon="-4.6231000">
        <ele>448.7</ele>
        <time>2022-03-01T16:53:46Z</time>
      </trkpt>
      <trkpt lat="40.0151420" lon="-4.6230630">
        <ele>448.9</ele>
        <time>2022-03-01T16:53:47Z</time>
      </trkpt>
      <trkpt lat="40.0150780" lon="-4.6230310">
        <ele>449.1</ele>
        <time>2022-03-01T16:53:48Z</time>
      </trkpt>
      <trkpt lat="40.0150150" lon="-4.6230070">
        <ele>449.2</ele>
        <time>2022-03-01T16:53:49Z</time>
      </trkpt>
      <trkpt lat="40.0149510" lon="-4.6229910">
        <ele>449.4</ele>
        <time>2022-03-01T16:53:50Z</time>
      </trkpt>
      <trkpt lat="40.0148910" lon="-4.6229580">
        <ele>449.6</ele>
        <time>2022-03-01T16:53:51Z</time>
      </trkpt>
      <trkpt lat="40.0148270" lon="-4.6229290">
        <ele>449.8</ele>
        <time>2022-03-01T16:53:52Z</time>
      </trkpt>
      <trkpt lat="40.0147680" lon="-4.6229050">
        <ele>450.0</ele>
        <time>2022-03-01T16:53:53Z</time>
      </trkpt>
      <trkpt lat="40.0147050" lon="-4.6228750">
        <ele>450.2</ele>
        <time>2022-03-01T16:53:54Z</time>
      </trkpt>
      <trkpt lat="40.0146430" lon="-4.6228540">
        <ele>450.3</ele>
        <time>2022-03-01T16:53:55Z</time>
      </trkpt>
      <trkpt lat="40.0145810" lon="-4.6228230">
        <ele>450.5</ele>
        <time>2022-03-01T16:53:56Z</time>
      </trkpt>
      <trkpt lat="40.0145260" lon="-4.6227990">
        <ele>450.7</ele>
        <time>2022-03-01T16:53:57Z</time>
      </trkpt>
      <trkpt lat="40.0144670" lon="-4.6227750">
        <ele>450.9</ele>
        <time>2022-03-01T16:53:58Z</time>
      </trkpt>
      <trkpt lat="40.0144110" lon="-4.6227550">
        <ele>451.0</ele>
        <time>2022-03-01T16:53:59Z</time>
      </trkpt>
      <trkpt lat="40.0143520" lon="-4.6227180">
        <ele>451.2</ele>
        <time>2022-03-01T16:54:00Z</time>
      </trkpt>
      <trkpt lat="40.0142960" lon="-4.6227070">
        <ele>451.3</ele>
        <time>2022-03-01T16:54:01Z</time>
      </trkpt>
      <trkpt lat="40.0142350" lon="-4.6226770">
        <ele>451.5</ele>
        <time>2022-03-01T16:54:02Z</time>
      </trkpt>
      <trkpt lat="40.0141820" lon="-4.6226550">
        <ele>451.7</ele>
        <time>2022-03-01T16:54:03Z</time>
      </trkpt>
      <trkpt lat="40.0141260" lon="-4.6226270">
        <ele>451.8</ele>
        <time>2022-03-01T16:54:04Z</time>
      </trkpt>
      <trkpt lat="40.0140710" lon="-4.6225990">
        <ele>452.0</ele>
        <time>2022-03-01T16:54:05Z</time>
      </trkpt>
      <trkpt lat="40.0140130" lon="-4.6225800">
        <ele>452.1</ele>
        <time>2022-03-01T16:54:06Z</time>
      </trkpt>
      <trkpt lat="40.0139570" lon="-4.6225530">
        <ele>452.3</ele>
        <time>2022-03-01T16:54:07Z</time>
      </trkpt>
      <trkpt lat="40.0139000" lon="-4.6225270">
        <ele>452.5</ele>
        <time>2022-03-01T16:54:08Z</time>
      </trkpt>
      <trkpt lat="40.0138460" lon="-4.6225020">
        <ele>452.6</ele>
        <time>2022-03-01T16:54:09Z</time>
      </trkpt>
      <trkpt lat="40.0137940" lon="-4.6224890">
        <ele>452.7</ele>
        <time>2022-03-01T16:54:10Z</time>
      </trkpt>
      <trkpt lat="40.0137380" lon="-4.6224650">
        <ele>452.9</ele>
        <time>2022-03-01T16:54:11Z</time>
      </trkpt>
      <trkpt lat="40.0136790" lon="-4.6224330">
        <ele>453.0</ele>
        <time>2022-03-01T16:54:12Z</time>
      </trkpt>
      <trkpt lat="40.0136270" lon="-4.6224210">
        <ele>453.1</ele>
        <time>2022-03-01T16:54:13Z</time>
      </trkpt>
      <trkpt lat="40.0135700" lon="-4.6223900">
        <ele>453.2</ele>
        <time>2022-03-01T16:54:14Z</time>
      </trkpt>
      <trkpt lat="40.0135090" lon="-4.6223650">
        <ele>453.4</ele>
        <time>2022-03-01T16:54:15Z</time>
      </trkpt>
      <trkpt lat="40.0134520" lon="-4.6223470">
        <ele>453.5</ele>
        <time>2022-03-01T16:54:16Z</time>
      </trkpt>
      <trkpt lat="40.0133950" lon="-4.6223180">
        <ele>453.6</ele>
        <time>2022-03-01T16:54:17Z</time>
      </trkpt>
      <trkpt lat="40.0133420" lon="-4.6222970">
        <ele>453.7</ele>
        <time>2022-03-01T16:54:18Z</time>
      </trkpt>
      <trkpt lat="40.0132770" lon="-4.6222750">
        <ele>453.8</ele>
        <time>2022-03-01T16:54:19Z</time>
      </trkpt>
      <trkpt lat="40.0132190" lon="-4.6222550">
        <ele>453.9</ele>
        <time>2022-03-01T16:54:20Z</time>
      </trkpt>
      <trkpt lat="40.0131590" lon="-4.6222260">
        <ele>454.0</ele>
        <time>2022-03-01T16:54:21Z</time>
      </trkpt>
      <trkpt lat="40.0130990" lon="-4.6222030">
        <ele>454.0</ele>
        <time>2022-03-01T16:54:22Z</time>
      </trkpt>
      <trkpt lat="40.0130380" lon="-4.6221800">
        <ele>454.1</ele>
        <time>2022-03-01T16:54:23Z</time>
      </trkpt>
      <trkpt lat="40.0129780" lon="-4.6221550">
        <ele>454.2</ele>
        <time>2022-03-01T16:54:24Z</time>
      </trkpt>
      <trkpt lat="40.0129190" lon="-4.6221270">
        <ele>454.3</ele>
        <time>2022-03-01T16:54:25Z</time>
      </trkpt>
      <trkpt lat="40.0128570" lon="-4.6221010">
        <ele>454.4</ele>
        <time>2022-03-01T16:54:26Z</time>
      </trkpt>
      <trkpt lat="40.0127970" lon="-4.6220760">
        <ele>454.4</ele>
        <time>2022-03-01T16:54:27Z</time>
      </trkpt>
      <trkpt lat="40.0127390" lon="-4.6220520">
        <ele>454.5</ele>
        <time>2022-03-01T16:54:28Z</time>
      </trkpt>
      <trkpt lat="40.0126810" lon="-4.6220300">
        <ele>454.5</ele>
        <time>2022-03-01T16:54:29Z</time>
      </trkpt>
      <trkpt lat="40.0126180" lon="-4.6220010">
        <ele>454.5</ele>
        <time>2022-03-01T16:54:30Z</time>
      </trkpt>
      <trkpt lat="40.0125580" lon="-4.6219790">
        <ele>454.6</ele>
        <time>2022-03-01T16:54:31Z</time>
      </trkpt>
      <trkpt lat="40.0125000" lon="-4.6219530">
        <ele>454.7</ele>
        <time>2022-03-01T16:54:32Z</time>
      </trkpt>
      <trkpt lat="40.0124410" lon="-4.6219340">
        <ele>454.7</ele>
        <time>2022-03-01T16:54:33Z</time>
      </trkpt>
      <trkpt lat="40.0123800" lon="-4.6219080">
        <ele>454.7</ele>
        <time>2022-03-01T16:54:34Z</time>
      </trkpt>
      <trkpt lat="40.0123210" lon="-4.6218790">
        <ele>454.8</ele>
        <time>2022-03-01T16:54:35Z</time>
      </trkpt>
      <trkpt lat="40.0122610" lon="-4.6218560">
        <ele>454.8</ele>
        <time>2022-03-01T16:54:36Z</time>
      </trkpt>
      <trkpt lat="40.0122020" lon="-4.6218290">
        <ele>454.9</ele>
        <time>2022-03-01T16:54:37Z</time>
      </trkpt>
      <trkpt lat="40.0121420" lon="-4.6218100">
        <ele>454.9</ele>
        <time>2022-03-01T16:54:38Z</time>
      </trkpt>
      <trkpt lat="40.0120850" lon="-4.6217810">
        <ele>455.0</ele>
        <time>2022-03-01T16:54:39Z</time>
      </trkpt>
      <trkpt lat="40.0120240" lon="-4.6217570">
        <ele>455.1</ele>
        <time>2022-03-01T16:54:40Z</time>
      </trkpt>
      <trkpt lat="40.0119660" lon="-4.6217320">
        <ele>455.1</ele>
        <time>2022-03-01T16:54:41Z</time>
      </trkpt>
      <trkpt lat="40.0119050" lon="-4.6216980">
        <ele>455.2</ele>
        <time>2022-03-01T16:54:42Z</time>
      </trkpt>
      <trkpt lat="40.0118490" lon="-4.6216720">
        <ele>455.2</ele>
        <time>2022-03-01T16:54:43Z</time>
      </trkpt>
      <trkpt lat="40.0117820" lon="-4.6216610">
        <ele>455.3</ele>
        <time>2022-03-01T16:54:44Z</time>
      </trkpt>
      <trkpt lat="40.0117210" lon="-4.6216480">
        <ele>455.3</ele>
        <time>2022-03-01T16:54:45Z</time>
      </trkpt>
      <trkpt lat="40.0116540" lon="-4.6216210">
        <ele>455.4</ele>
        <time>2022-03-01T16:54:46Z</time>
      </trkpt>
      <trkpt lat="40.0115960" lon="-4.6215900">
        <ele>455.4</ele>
        <time>2022-03-01T16:54:47Z</time>
      </trkpt>
      <trkpt lat="40.0115320" lon="-4.6215600">
        <ele>455.5</ele>
        <time>2022-03-01T16:54:48Z</time>
      </trkpt>
      <trkpt lat="40.0114680" lon="-4.6215320">
        <ele>455.6</ele>
        <time>2022-03-01T16:54:49Z</time>
      </trkpt>
      <trkpt lat="40.0114040" lon="-4.6215130">
        <ele>455.6</ele>
        <time>2022-03-01T16:54:50Z</time>
      </trkpt>
      <trkpt lat="40.0113440" lon="-4.6214860">
        <ele>455.7</ele>
        <time>2022-03-01T16:54:51Z</time>
      </trkpt>
      <trkpt lat="40.0112760" lon="-4.6214600">
        <ele>455.7</ele>
        <time>2022-03-01T16:54:52Z</time>
      </trkpt>
      <trkpt lat="40.0112090" lon="-4.6214360">
        <ele>455.8</ele>
        <time>2022-03-01T16:54:53Z</time>
      </trkpt>
      <trkpt lat="40.0111470" lon="-4.6214090">
        <ele>455.8</ele>
        <time>2022-03-01T16:54:54Z</time>
      </trkpt>
      <trkpt lat="40.0110860" lon="-4.6213800">
        <ele>455.9</ele>
        <time>2022-03-01T16:54:55Z</time>
      </trkpt>
      <trkpt lat="40.0110140" lon="-4.6213490">
        <ele>455.9</ele>
        <time>2022-03-01T16:54:56Z</time>
      </trkpt>
      <trkpt lat="40.0109590" lon="-4.6213210">
        <ele>455.9</ele>
        <time>2022-03-01T16:54:57Z</time>
      </trkpt>
      <trkpt lat="40.0108990" lon="-4.6212920">
        <ele>456.0</ele>
        <time>2022-03-01T16:54:58Z</time>
      </trkpt>
      <trkpt lat="40.0108380" lon="-4.6212690">
        <ele>456.0</ele>
        <time>2022-03-01T16:54:59Z</time>
      </trkpt>
      <trkpt lat="40.0107760" lon="-4.6212380">
        <ele>456.0</ele>
        <time>2022-03-01T16:55:00Z</time>
      </trkpt>
      <trkpt lat="40.0107200" lon="-4.6212180">
        <ele>456.0</ele>
        <time>2022-03-01T16:55:01Z</time>
      </trkpt>
      <trkpt lat="40.0106480" lon="-4.6211840">
        <ele>456.0</ele>
        <time>2022-03-01T16:55:02Z</time>
      </trkpt>
      <trkpt lat="40.0105960" lon="-4.6211590">
        <ele>456.0</ele>
        <time>2022-03-01T16:55:03Z</time>
      </trkpt>
      <trkpt lat="40.0105250" lon="-4.6211170">
        <ele>456.0</ele>
        <time>2022-03-01T16:55:04Z</time>
      </trkpt>
      <trkpt lat="40.0104580" lon="-4.6210970">
        <ele>455.9</ele>
        <time>2022-03-01T16:55:05Z</time>
      </trkpt>
      <trkpt lat="40.0103940" lon="-4.6210720">
        <ele>455.9</ele>
        <time>2022-03-01T16:55:06Z</time>
      </trkpt>
      <trkpt lat="40.0103300" lon="-4.6210460">
        <ele>455.9</ele>
        <time>2022-03-01T16:55:07Z</time>
      </trkpt>
      <trkpt lat="40.0102710" lon="-4.6210220">
        <ele>455.7</ele>
        <time>2022-03-01T16:55:08Z</time>
      </trkpt>
      <trkpt lat="40.0102070" lon="-4.6209940">
        <ele>455.6</ele>
        <time>2022-03-01T16:55:09Z</time>
      </trkpt>
      <trkpt lat="40.0101490" lon="-4.6209680">
        <ele>455.4</ele>
        <time>2022-03-01T16:55:10Z</time>
      </trkpt>
      <trkpt lat="40.0100910" lon="-4.6209460">
        <ele>455.2</ele>
        <time>2022-03-01T16:55:11Z</time>
      </trkpt>
      <trkpt lat="40.0100270" lon="-4.6209150">
        <ele>455.0</ele>
        <time>2022-03-01T16:55:12Z</time>
      </trkpt>
      <trkpt lat="40.0099620" lon="-4.6208900">
        <ele>454.7</ele>
        <time>2022-03-01T16:55:13Z</time>
      </trkpt>
      <trkpt lat="40.0099030" lon="-4.6208760">
        <ele>454.4</ele>
        <time>2022-03-01T16:55:14Z</time>
      </trkpt>
      <trkpt lat="40.0098430" lon="-4.6208540">
        <ele>454.1</ele>
        <time>2022-03-01T16:55:15Z</time>
      </trkpt>
      <trkpt lat="40.0097770" lon="-4.6208320">
        <ele>453.8</ele>
        <time>2022-03-01T16:55:16Z</time>
      </trkpt>
      <trkpt lat="40.0097060" lon="-4.6207980">
        <ele>453.4</ele>
        <time>2022-03-01T16:55:17Z</time>
      </trkpt>
      <trkpt lat="40.0096320" lon="-4.6207680">
        <ele>453.1</ele>
        <time>2022-03-01T16:55:18Z</time>
      </trkpt>
      <trkpt lat="40.0095540" lon="-4.6207430">
        <ele>452.7</ele>
        <time>2022-03-01T16:55:19Z</time>
      </trkpt>
      <trkpt lat="40.0094740" lon="-4.6207030">
        <ele>452.3</ele>
        <time>2022-03-01T16:55:20Z</time>
      </trkpt>
      <trkpt lat="40.0093960" lon="-4.6206700">
        <ele>451.9</ele>
        <time>2022-03-01T16:55:21Z</time>
      </trkpt>
      <trkpt lat="40.0093150" lon="-4.6206330">
        <ele>451.6</ele>
        <time>2022-03-01T16:55:22Z</time>
      </trkpt>
      <trkpt lat="40.0092300" lon="-4.6206210">
        <ele>451.7</ele>
        <time>2022-03-01T16:55:23Z</time>
      </trkpt>
      <trkpt lat="40.0091400" lon="-4.6206140">
        <ele>451.7</ele>
        <time>2022-03-01T16:55:24Z</time>
      </trkpt>
      <trkpt lat="40.0090590" lon="-4.6206340">
        <ele>451.8</ele>
        <time>2022-03-01T16:55:25Z</time>
      </trkpt>
      <trkpt lat="40.0089850" lon="-4.6206190">
        <ele>450.6</ele>
        <time>2022-03-01T16:55:26Z</time>
      </trkpt>
      <trkpt lat="40.0089140" lon="-4.6205680">
        <ele>450.1</ele>
        <time>2022-03-01T16:55:27Z</time>
      </trkpt>
      <trkpt lat="40.0088910" lon="-4.6204880">
        <ele>449.8</ele>
        <time>2022-03-01T16:55:28Z</time>
      </trkpt>
      <trkpt lat="40.0089060" lon="-4.6203890">
        <ele>449.6</ele>
        <time>2022-03-01T16:55:29Z</time>
      </trkpt>
      <trkpt lat="40.0089380" lon="-4.6202950">
        <ele>449.6</ele>
        <time>2022-03-01T16:55:30Z</time>
      </trkpt>
      <trkpt lat="40.0089600" lon="-4.6201960">
        <ele>449.4</ele>
        <time>2022-03-01T16:55:31Z</time>
      </trkpt>
      <trkpt lat="40.0089650" lon="-4.6201130">
        <ele>449.3</ele>
        <time>2022-03-01T16:55:32Z</time>
      </trkpt>
      <trkpt lat="40.0089450" lon="-4.6200270">
        <ele>449.2</ele>
        <time>2022-03-01T16:55:33Z</time>
      </trkpt>
      <trkpt lat="40.0089500" lon="-4.6199240">
        <ele>449.1</ele>
        <time>2022-03-01T16:55:34Z</time>
      </trkpt>
      <trkpt lat="40.0089610" lon="-4.6198140">
        <ele>449.1</ele>
        <time>2022-03-01T16:55:35Z</time>
      </trkpt>
      <trkpt lat="40.0089750" lon="-4.6197110">
        <ele>449.1</ele>
        <time>2022-03-01T16:55:36Z</time>
      </trkpt>
      <trkpt lat="40.0089880" lon="-4.6196080">
        <ele>449.3</ele>
        <time>2022-03-01T16:55:37Z</time>
      </trkpt>
      <trkpt lat="40.0090000" lon="-4.6195150">
        <ele>449.4</ele>
        <time>2022-03-01T16:55:38Z</time>
      </trkpt>
      <trkpt lat="40.0090120" lon="-4.6194230">
        <ele>449.6</ele>
        <time>2022-03-01T16:55:39Z</time>
      </trkpt>
      <trkpt lat="40.0090230" lon="-4.6193320">
        <ele>449.8</ele>
        <time>2022-03-01T16:55:40Z</time>
      </trkpt>
      <trkpt lat="40.0090360" lon="-4.6192440">
        <ele>450.1</ele>
        <time>2022-03-01T16:55:41Z</time>
      </trkpt>
      <trkpt lat="40.0090450" lon="-4.6191630">
        <ele>450.4</ele>
        <time>2022-03-01T16:55:42Z</time>
      </trkpt>
      <trkpt lat="40.0090570" lon="-4.6190760">
        <ele>450.8</ele>
        <time>2022-03-01T16:55:43Z</time>
      </trkpt>
      <trkpt lat="40.0090690" lon="-4.6189950">
        <ele>451.1</ele>
        <time>2022-03-01T16:55:44Z</time>
      </trkpt>
      <trkpt lat="40.0090780" lon="-4.6189160">
        <ele>451.4</ele>
        <time>2022-03-01T16:55:45Z</time>
      </trkpt>
      <trkpt lat="40.0090890" lon="-4.6188370">
        <ele>451.7</ele>
        <time>2022-03-01T16:55:46Z</time>
      </trkpt>
      <trkpt lat="40.0090990" lon="-4.6187590">
        <ele>452.0</ele>
        <time>2022-03-01T16:55:47Z</time>
      </trkpt>
      <trkpt lat="40.0091070" lon="-4.6186840">
        <ele>452.3</ele>
        <time>2022-03-01T16:55:48Z</time>
      </trkpt>
      <trkpt lat="40.0091140" lon="-4.6186150">
        <ele>452.6</ele>
        <time>2022-03-01T16:55:49Z</time>
      </trkpt>
      <trkpt lat="40.0091220" lon="-4.6185390">
        <ele>452.8</ele>
        <time>2022-03-01T16:55:50Z</time>
      </trkpt>
      <trkpt lat="40.0091330" lon="-4.6184700">
        <ele>453.1</ele>
        <time>2022-03-01T16:55:51Z</time>
      </trkpt>
      <trkpt lat="40.0091410" lon="-4.6183970">
        <ele>453.4</ele>
        <time>2022-03-01T16:55:52Z</time>
      </trkpt>
      <trkpt lat="40.0091520" lon="-4.6183260">
        <ele>453.7</ele>
        <time>2022-03-01T16:55:53Z</time>
      </trkpt>
      <trkpt lat="40.0091650" lon="-4.6182540">
        <ele>454.0</ele>
        <time>2022-03-01T16:55:54Z</time>
      </trkpt>
      <trkpt lat="40.0091750" lon="-4.6181820">
        <ele>454.2</ele>
        <time>2022-03-01T16:55:55Z</time>
      </trkpt>
      <trkpt lat="40.0091880" lon="-4.6181090">
        <ele>454.5</ele>
        <time>2022-03-01T16:55:56Z</time>
      </trkpt>
      <trkpt lat="40.0092000" lon="-4.6180410">
        <ele>454.8</ele>
        <time>2022-03-01T16:55:57Z</time>
      </trkpt>
      <trkpt lat="40.0092160" lon="-4.6179760">
        <ele>455.0</ele>
        <time>2022-03-01T16:55:58Z</time>
      </trkpt>
      <trkpt lat="40.0092150" lon="-4.6179060">
        <ele>455.3</ele>
        <time>2022-03-01T16:55:59Z</time>
      </trkpt>
      <trkpt lat="40.0092180" lon="-4.6178450">
        <ele>455.5</ele>
        <time>2022-03-01T16:56:00Z</time>
      </trkpt>
      <trkpt lat="40.0092360" lon="-4.6177750">
        <ele>455.7</ele>
        <time>2022-03-01T16:56:01Z</time>
      </trkpt>
      <trkpt lat="40.0092460" lon="-4.6177090">
        <ele>455.9</ele>
        <time>2022-03-01T16:56:02Z</time>
      </trkpt>
      <trkpt lat="40.0092490" lon="-4.6176500">
        <ele>456.1</ele>
        <time>2022-03-01T16:56:03Z</time>
      </trkpt>
      <trkpt lat="40.0092490" lon="-4.6175880">
        <ele>456.2</ele>
        <time>2022-03-01T16:56:04Z</time>
      </trkpt>
      <trkpt lat="40.0092480" lon="-4.6175280">
        <ele>456.3</ele>
        <time>2022-03-01T16:56:05Z</time>
      </trkpt>
      <trkpt lat="40.0092260" lon="-4.6174740">
        <ele>456.4</ele>
        <time>2022-03-01T16:56:06Z</time>
      </trkpt>
      <trkpt lat="40.0092220" lon="-4.6174170">
        <ele>456.5</ele>
        <time>2022-03-01T16:56:07Z</time>
      </trkpt>
      <trkpt lat="40.0092100" lon="-4.6173490">
        <ele>456.6</ele>
        <time>2022-03-01T16:56:08Z</time>
      </trkpt>
      <trkpt lat="40.0092040" lon="-4.6172880">
        <ele>456.7</ele>
        <time>2022-03-01T16:56:09Z</time>
      </trkpt>
      <trkpt lat="40.0092170" lon="-4.6172150">
        <ele>456.9</ele>
        <time>2022-03-01T16:56:10Z</time>
      </trkpt>
      <trkpt lat="40.0092420" lon="-4.6171620">
        <ele>457.1</ele>
        <time>2022-03-01T16:56:11Z</time>
      </trkpt>
      <trkpt lat="40.0092770" lon="-4.6171100">
        <ele>457.4</ele>
        <time>2022-03-01T16:56:12Z</time>
      </trkpt>
      <trkpt lat="40.0093100" lon="-4.6170520">
        <ele>457.5</ele>
        <time>2022-03-01T16:56:13Z</time>
      </trkpt>
      <trkpt lat="40.0093360" lon="-4.6169850">
        <ele>457.6</ele>
        <time>2022-03-01T16:56:14Z</time>
      </trkpt>
      <trkpt lat="40.0093500" lon="-4.6169160">
        <ele>457.7</ele>
        <time>2022-03-01T16:56:15Z</time>
      </trkpt>
      <trkpt lat="40.0093580" lon="-4.6168400">
        <ele>457.8</ele>
        <time>2022-03-01T16:56:16Z</time>
      </trkpt>
      <trkpt lat="40.0093630" lon="-4.6167690">
        <ele>457.8</ele>
        <time>2022-03-01T16:56:17Z</time>
      </trkpt>
      <trkpt lat="40.0093750" lon="-4.6166970">
        <ele>457.8</ele>
        <time>2022-03-01T16:56:18Z</time>
      </trkpt>
      <trkpt lat="40.0093880" lon="-4.6166280">
        <ele>457.9</ele>
        <time>2022-03-01T16:56:19Z</time>
      </trkpt>
      <trkpt lat="40.0094010" lon="-4.6165570">
        <ele>457.9</ele>
        <time>2022-03-01T16:56:20Z</time>
      </trkpt>
      <trkpt lat="40.0094090" lon="-4.6164860">
        <ele>457.9</ele>
        <time>2022-03-01T16:56:21Z</time>
      </trkpt>
      <trkpt lat="40.0094210" lon="-4.6164140">
        <ele>457.9</ele>
        <time>2022-03-01T16:56:22Z</time>
      </trkpt>
      <trkpt lat="40.0094330" lon="-4.6163430">
        <ele>457.9</ele>
        <time>2022-03-01T16:56:23Z</time>
      </trkpt>
      <trkpt lat="40.0094450" lon="-4.6162680">
        <ele>457.9</ele>
        <time>2022-03-01T16:56:24Z</time>
      </trkpt>
      <trkpt lat="40.0094590" lon="-4.6161930">
        <ele>457.9</ele>
        <time>2022-03-01T16:56:25Z</time>
      </trkpt>
      <trkpt lat="40.0094750" lon="-4.6161190">
        <ele>457.9</ele>
        <time>2022-03-01T16:56:26Z</time>
      </trkpt>
      <trkpt lat="40.0094940" lon="-4.6160440">
        <ele>457.8</ele>
        <time>2022-03-01T16:56:27Z</time>
      </trkpt>
      <trkpt lat="40.0095070" lon="-4.6159700">
        <ele>457.8</ele>
        <time>2022-03-01T16:56:28Z</time>
      </trkpt>
      <trkpt lat="40.0095250" lon="-4.6158930">
        <ele>457.7</ele>
        <time>2022-03-01T16:56:29Z</time>
      </trkpt>
      <trkpt lat="40.0095440" lon="-4.6158190">
        <ele>457.7</ele>
        <time>2022-03-01T16:56:30Z</time>
      </trkpt>
      <trkpt lat="40.0095620" lon="-4.6157400">
        <ele>457.6</ele>
        <time>2022-03-01T16:56:31Z</time>
      </trkpt>
      <trkpt lat="40.0095850" lon="-4.6156600">
        <ele>457.5</ele>
        <time>2022-03-01T16:56:32Z</time>
      </trkpt>
      <trkpt lat="40.0096070" lon="-4.6155770">
        <ele>457.4</ele>
        <time>2022-03-01T16:56:33Z</time>
      </trkpt>
      <trkpt lat="40.0096280" lon="-4.6154890">
        <ele>457.2</ele>
        <time>2022-03-01T16:56:34Z</time>
      </trkpt>
      <trkpt lat="40.0096640" lon="-4.6154000">
        <ele>457.1</ele>
        <time>2022-03-01T16:56:35Z</time>
      </trkpt>
      <trkpt lat="40.0096930" lon="-4.6153020">
        <ele>456.9</ele>
        <time>2022-03-01T16:56:36Z</time>
      </trkpt>
      <trkpt lat="40.0097160" lon="-4.6152060">
        <ele>456.7</ele>
        <time>2022-03-01T16:56:37Z</time>
      </trkpt>
      <trkpt lat="40.0097440" lon="-4.6151070">
        <ele>456.4</ele>
        <time>2022-03-01T16:56:38Z</time>
      </trkpt>
      <trkpt lat="40.0097670" lon="-4.6150080">
        <ele>456.2</ele>
        <time>2022-03-01T16:56:39Z</time>
      </trkpt>
      <trkpt lat="40.0097950" lon="-4.6149050">
        <ele>455.9</ele>
        <time>2022-03-01T16:56:40Z</time>
      </trkpt>
      <trkpt lat="40.0098240" lon="-4.6148020">
        <ele>455.5</ele>
        <time>2022-03-01T16:56:41Z</time>
      </trkpt>
      <trkpt lat="40.0098540" lon="-4.6146950">
        <ele>455.2</ele>
        <time>2022-03-01T16:56:42Z</time>
      </trkpt>
      <trkpt lat="40.0098800" lon="-4.6145900">
        <ele>454.9</ele>
        <time>2022-03-01T16:56:43Z</time>
      </trkpt>
      <trkpt lat="40.0099040" lon="-4.6144800">
        <ele>454.5</ele>
        <time>2022-03-01T16:56:44Z</time>
      </trkpt>
      <trkpt lat="40.0099390" lon="-4.6143680">
        <ele>454.0</ele>
        <time>2022-03-01T16:56:45Z</time>
      </trkpt>
      <trkpt lat="40.0099720" lon="-4.6142520">
        <ele>453.6</ele>
        <time>2022-03-01T16:56:46Z</time>
      </trkpt>
      <trkpt lat="40.0100050" lon="-4.6141410">
        <ele>453.1</ele>
        <time>2022-03-01T16:56:47Z</time>
      </trkpt>
      <trkpt lat="40.0100420" lon="-4.6140250">
        <ele>452.6</ele>
        <time>2022-03-01T16:56:48Z</time>
      </trkpt>
      <trkpt lat="40.0100660" lon="-4.6139130">
        <ele>452.2</ele>
        <time>2022-03-01T16:56:49Z</time>
      </trkpt>
      <trkpt lat="40.0100990" lon="-4.6137920">
        <ele>451.7</ele>
        <time>2022-03-01T16:56:50Z</time>
      </trkpt>
      <trkpt lat="40.0101310" lon="-4.6136700">
        <ele>451.2</ele>
        <time>2022-03-01T16:56:51Z</time>
      </trkpt>
      <trkpt lat="40.0101640" lon="-4.6135470">
        <ele>450.7</ele>
        <time>2022-03-01T16:56:52Z</time>
      </trkpt>
      <trkpt lat="40.0101960" lon="-4.6134250">
        <ele>450.2</ele>
        <time>2022-03-01T16:56:53Z</time>
      </trkpt>
      <trkpt lat="40.0102270" lon="-4.6132990">
        <ele>449.7</ele>
        <time>2022-03-01T16:56:54Z</time>
      </trkpt>
      <trkpt lat="40.0102530" lon="-4.6131660">
        <ele>449.1</ele>
        <time>2022-03-01T16:56:55Z</time>
      </trkpt>
      <trkpt lat="40.0102780" lon="-4.6130290">
        <ele>448.6</ele>
        <time>2022-03-01T16:56:56Z</time>
      </trkpt>
      <trkpt lat="40.0103030" lon="-4.6128950">
        <ele>448.0</ele>
        <time>2022-03-01T16:56:57Z</time>
      </trkpt>
      <trkpt lat="40.0103260" lon="-4.6127570">
        <ele>447.4</ele>
        <time>2022-03-01T16:56:58Z</time>
      </trkpt>
      <trkpt lat="40.0103380" lon="-4.6126150">
        <ele>446.9</ele>
        <time>2022-03-01T16:56:59Z</time>
      </trkpt>
      <trkpt lat="40.0103450" lon="-4.6124730">
        <ele>446.4</ele>
        <time>2022-03-01T16:57:00Z</time>
      </trkpt>
      <trkpt lat="40.0103480" lon="-4.6123310">
        <ele>446.0</ele>
        <time>2022-03-01T16:57:01Z</time>
      </trkpt>
      <trkpt lat="40.0103430" lon="-4.6121890">
        <ele>445.5</ele>
        <time>2022-03-01T16:57:02Z</time>
      </trkpt>
      <trkpt lat="40.0103330" lon="-4.6120460">
        <ele>445.1</ele>
        <time>2022-03-01T16:57:03Z</time>
      </trkpt>
      <trkpt lat="40.0103150" lon="-4.6119060">
        <ele>444.7</ele>
        <time>2022-03-01T16:57:04Z</time>
      </trkpt>
      <trkpt lat="40.0102990" lon="-4.6117640">
        <ele>444.3</ele>
        <time>2022-03-01T16:57:05Z</time>
      </trkpt>
      <trkpt lat="40.0102710" lon="-4.6116220">
        <ele>443.9</ele>
        <time>2022-03-01T16:57:06Z</time>
      </trkpt>
      <trkpt lat="40.0102410" lon="-4.6114810">
        <ele>443.5</ele>
        <time>2022-03-01T16:57:07Z</time>
      </trkpt>
      <trkpt lat="40.0102040" lon="-4.6113450">
        <ele>443.1</ele>
        <time>2022-03-01T16:57:08Z</time>
      </trkpt>
      <trkpt lat="40.0101600" lon="-4.6112160">
        <ele>442.8</ele>
        <time>2022-03-01T16:57:09Z</time>
      </trkpt>
      <trkpt lat="40.0101230" lon="-4.6110860">
        <ele>442.4</ele>
        <time>2022-03-01T16:57:10Z</time>
      </trkpt>
      <trkpt lat="40.0100740" lon="-4.6109570">
        <ele>442.0</ele>
        <time>2022-03-01T16:57:11Z</time>
      </trkpt>
      <trkpt lat="40.0100230" lon="-4.6108270">
        <ele>441.7</ele>
        <time>2022-03-01T16:57:12Z</time>
      </trkpt>
      <trkpt lat="40.0099620" lon="-4.6107160">
        <ele>441.3</ele>
        <time>2022-03-01T16:57:13Z</time>
      </trkpt>
      <trkpt lat="40.0098970" lon="-4.6106020">
        <ele>441.1</ele>
        <time>2022-03-01T16:57:14Z</time>
      </trkpt>
      <trkpt lat="40.0098320" lon="-4.6104900">
        <ele>440.8</ele>
        <time>2022-03-01T16:57:15Z</time>
      </trkpt>
      <trkpt lat="40.0097650" lon="-4.6103890">
        <ele>440.5</ele>
        <time>2022-03-01T16:57:16Z</time>
      </trkpt>
      <trkpt lat="40.0096980" lon="-4.6102790">
        <ele>440.2</ele>
        <time>2022-03-01T16:57:17Z</time>
      </trkpt>
      <trkpt lat="40.0096270" lon="-4.6101800">
        <ele>440.0</ele>
        <time>2022-03-01T16:57:18Z</time>
      </trkpt>
      <trkpt lat="40.0095580" lon="-4.6100770">
        <ele>439.7</ele>
        <time>2022-03-01T16:57:19Z</time>
      </trkpt>
      <trkpt lat="40.0094880" lon="-4.6099780">
        <ele>439.6</ele>
        <time>2022-03-01T16:57:20Z</time>
      </trkpt>
      <trkpt lat="40.0094200" lon="-4.6098820">
        <ele>439.4</ele>
        <time>2022-03-01T16:57:21Z</time>
      </trkpt>
      <trkpt lat="40.0093520" lon="-4.6097750">
        <ele>439.3</ele>
        <time>2022-03-01T16:57:22Z</time>
      </trkpt>
      <trkpt lat="40.0092850" lon="-4.6096800">
        <ele>439.2</ele>
        <time>2022-03-01T16:57:23Z</time>
      </trkpt>
      <trkpt lat="40.0092180" lon="-4.6095860">
        <ele>439.2</ele>
        <time>2022-03-01T16:57:24Z</time>
      </trkpt>
      <trkpt lat="40.0091470" lon="-4.6095040">
        <ele>439.1</ele>
        <time>2022-03-01T16:57:25Z</time>
      </trkpt>
      <trkpt lat="40.0090760" lon="-4.6094260">
        <ele>439.1</ele>
        <time>2022-03-01T16:57:26Z</time>
      </trkpt>
      <trkpt lat="40.0090090" lon="-4.6093350">
        <ele>439.1</ele>
        <time>2022-03-01T16:57:27Z</time>
      </trkpt>
      <trkpt lat="40.0089440" lon="-4.6092410">
        <ele>439.1</ele>
        <time>2022-03-01T16:57:28Z</time>
      </trkpt>
      <trkpt lat="40.0088820" lon="-4.6091520">
        <ele>439.1</ele>
        <time>2022-03-01T16:57:29Z</time>
      </trkpt>
      <trkpt lat="40.0088250" lon="-4.6090640">
        <ele>439.1</ele>
        <time>2022-03-01T16:57:30Z</time>
      </trkpt>
      <trkpt lat="40.0087630" lon="-4.6089720">
        <ele>439.2</ele>
        <time>2022-03-01T16:57:31Z</time>
      </trkpt>
      <trkpt lat="40.0087050" lon="-4.6088820">
        <ele>439.2</ele>
        <time>2022-03-01T16:57:32Z</time>
      </trkpt>
      <trkpt lat="40.0086460" lon="-4.6087930">
        <ele>439.3</ele>
        <time>2022-03-01T16:57:33Z</time>
      </trkpt>
      <trkpt lat="40.0085880" lon="-4.6087060">
        <ele>439.4</ele>
        <time>2022-03-01T16:57:34Z</time>
      </trkpt>
      <trkpt lat="40.0085310" lon="-4.6086250">
        <ele>439.5</ele>
        <time>2022-03-01T16:57:35Z</time>
      </trkpt>
      <trkpt lat="40.0084690" lon="-4.6085490">
        <ele>439.6</ele>
        <time>2022-03-01T16:57:36Z</time>
      </trkpt>
      <trkpt lat="40.0084100" lon="-4.6084710">
        <ele>439.6</ele>
        <time>2022-03-01T16:57:37Z</time>
      </trkpt>
      <trkpt lat="40.0083520" lon="-4.6083910">
        <ele>439.7</ele>
        <time>2022-03-01T16:57:38Z</time>
      </trkpt>
      <trkpt lat="40.0082960" lon="-4.6083170">
        <ele>439.8</ele>
        <time>2022-03-01T16:57:39Z</time>
      </trkpt>
      <trkpt lat="40.0082380" lon="-4.6082410">
        <ele>439.9</ele>
        <time>2022-03-01T16:57:40Z</time>
      </trkpt>
      <trkpt lat="40.0081820" lon="-4.6081610">
        <ele>439.9</ele>
        <time>2022-03-01T16:57:41Z</time>
      </trkpt>
      <trkpt lat="40.0081270" lon="-4.6080850">
        <ele>440.0</ele>
        <time>2022-03-01T16:57:42Z</time>
      </trkpt>
      <trkpt lat="40.0080740" lon="-4.6080110">
        <ele>440.1</ele>
        <time>2022-03-01T16:57:43Z</time>
      </trkpt>
      <trkpt lat="40.0080200" lon="-4.6079370">
        <ele>440.1</ele>
        <time>2022-03-01T16:57:44Z</time>
      </trkpt>
      <trkpt lat="40.0079640" lon="-4.6078590">
        <ele>440.2</ele>
        <time>2022-03-01T16:57:45Z</time>
      </trkpt>
      <trkpt lat="40.0079120" lon="-4.6077850">
        <ele>440.2</ele>
        <time>2022-03-01T16:57:46Z</time>
      </trkpt>
      <trkpt lat="40.0078540" lon="-4.6077100">
        <ele>440.3</ele>
        <time>2022-03-01T16:57:47Z</time>
      </trkpt>
      <trkpt lat="40.0077970" lon="-4.6076350">
        <ele>440.4</ele>
        <time>2022-03-01T16:57:48Z</time>
      </trkpt>
      <trkpt lat="40.0077420" lon="-4.6075520">
        <ele>440.4</ele>
        <time>2022-03-01T16:57:49Z</time>
      </trkpt>
      <trkpt lat="40.0076860" lon="-4.6074800">
        <ele>440.5</ele>
        <time>2022-03-01T16:57:50Z</time>
      </trkpt>
      <trkpt lat="40.0076260" lon="-4.6074020">
        <ele>440.6</ele>
        <time>2022-03-01T16:57:51Z</time>
      </trkpt>
      <trkpt lat="40.0075750" lon="-4.6073300">
        <ele>440.6</ele>
        <time>2022-03-01T16:57:52Z</time>
      </trkpt>
      <trkpt lat="40.0075240" lon="-4.6072580">
        <ele>440.7</ele>
        <time>2022-03-01T16:57:53Z</time>
      </trkpt>
      <trkpt lat="40.0074700" lon="-4.6071850">
        <ele>440.8</ele>
        <time>2022-03-01T16:57:54Z</time>
      </trkpt>
      <trkpt lat="40.0074180" lon="-4.6071190">
        <ele>440.8</ele>
        <time>2022-03-01T16:57:55Z</time>
      </trkpt>
      <trkpt lat="40.0073670" lon="-4.6070470">
        <ele>440.9</ele>
        <time>2022-03-01T16:57:56Z</time>
      </trkpt>
      <trkpt lat="40.0073150" lon="-4.6069740">
        <ele>440.9</ele>
        <time>2022-03-01T16:57:57Z</time>
      </trkpt>
      <trkpt lat="40.0072620" lon="-4.6069050">
        <ele>441.0</ele>
        <time>2022-03-01T16:57:58Z</time>
      </trkpt>
      <trkpt lat="40.0072120" lon="-4.6068300">
        <ele>441.0</ele>
        <time>2022-03-01T16:57:59Z</time>
      </trkpt>
      <trkpt lat="40.0071640" lon="-4.6067610">
        <ele>441.0</ele>
        <time>2022-03-01T16:58:00Z</time>
      </trkpt>
      <trkpt lat="40.0071130" lon="-4.6066920">
        <ele>441.1</ele>
        <time>2022-03-01T16:58:01Z</time>
      </trkpt>
      <trkpt lat="40.0070640" lon="-4.6066200">
        <ele>441.1</ele>
        <time>2022-03-01T16:58:02Z</time>
      </trkpt>
      <trkpt lat="40.0070130" lon="-4.6065500">
        <ele>441.2</ele>
        <time>2022-03-01T16:58:03Z</time>
      </trkpt>
      <trkpt lat="40.0069630" lon="-4.6064810">
        <ele>441.2</ele>
        <time>2022-03-01T16:58:04Z</time>
      </trkpt>
      <trkpt lat="40.0069120" lon="-4.6064140">
        <ele>441.3</ele>
        <time>2022-03-01T16:58:05Z</time>
      </trkpt>
      <trkpt lat="40.0068670" lon="-4.6063450">
        <ele>441.3</ele>
        <time>2022-03-01T16:58:06Z</time>
      </trkpt>
      <trkpt lat="40.0068130" lon="-4.6062750">
        <ele>441.4</ele>
        <time>2022-03-01T16:58:07Z</time>
      </trkpt>
      <trkpt lat="40.0067620" lon="-4.6062050">
        <ele>441.4</ele>
        <time>2022-03-01T16:58:08Z</time>
      </trkpt>
      <trkpt lat="40.0067100" lon="-4.6061310">
        <ele>441.4</ele>
        <time>2022-03-01T16:58:09Z</time>
      </trkpt>
      <trkpt lat="40.0066650" lon="-4.6060610">
        <ele>441.5</ele>
        <time>2022-03-01T16:58:10Z</time>
      </trkpt>
      <trkpt lat="40.0066130" lon="-4.6059990">
        <ele>441.5</ele>
        <time>2022-03-01T16:58:11Z</time>
      </trkpt>
      <trkpt lat="40.0065640" lon="-4.6059290">
        <ele>441.5</ele>
        <time>2022-03-01T16:58:12Z</time>
      </trkpt>
      <trkpt lat="40.0065150" lon="-4.6058610">
        <ele>441.6</ele>
        <time>2022-03-01T16:58:13Z</time>
      </trkpt>
      <trkpt lat="40.0064660" lon="-4.6057950">
        <ele>441.6</ele>
        <time>2022-03-01T16:58:14Z</time>
      </trkpt>
      <trkpt lat="40.0064170" lon="-4.6057280">
        <ele>441.6</ele>
        <time>2022-03-01T16:58:15Z</time>
      </trkpt>
      <trkpt lat="40.0063650" lon="-4.6056680">
        <ele>441.7</ele>
        <time>2022-03-01T16:58:16Z</time>
      </trkpt>
      <trkpt lat="40.0063150" lon="-4.6055990">
        <ele>441.7</ele>
        <time>2022-03-01T16:58:17Z</time>
      </trkpt>
      <trkpt lat="40.0062650" lon="-4.6055330">
        <ele>441.7</ele>
        <time>2022-03-01T16:58:18Z</time>
      </trkpt>
      <trkpt lat="40.0062140" lon="-4.6054630">
        <ele>441.8</ele>
        <time>2022-03-01T16:58:19Z</time>
      </trkpt>
      <trkpt lat="40.0061640" lon="-4.6053980">
        <ele>441.8</ele>
        <time>2022-03-01T16:58:20Z</time>
      </trkpt>
      <trkpt lat="40.0061130" lon="-4.6053320">
        <ele>441.9</ele>
        <time>2022-03-01T16:58:21Z</time>
      </trkpt>
      <trkpt lat="40.0060620" lon="-4.6052700">
        <ele>441.9</ele>
        <time>2022-03-01T16:58:22Z</time>
      </trkpt>
      <trkpt lat="40.0060120" lon="-4.6051930">
        <ele>442.0</ele>
        <time>2022-03-01T16:58:23Z</time>
      </trkpt>
      <trkpt lat="40.0059620" lon="-4.6051400">
        <ele>442.0</ele>
        <time>2022-03-01T16:58:24Z</time>
      </trkpt>
      <trkpt lat="40.0059150" lon="-4.6050700">
        <ele>442.0</ele>
        <time>2022-03-01T16:58:25Z</time>
      </trkpt>
      <trkpt lat="40.0058680" lon="-4.6050030">
        <ele>442.0</ele>
        <time>2022-03-01T16:58:26Z</time>
      </trkpt>
      <trkpt lat="40.0058210" lon="-4.6049380">
        <ele>442.1</ele>
        <time>2022-03-01T16:58:27Z</time>
      </trkpt>
      <trkpt lat="40.0057720" lon="-4.6048630">
        <ele>442.1</ele>
        <time>2022-03-01T16:58:28Z</time>
      </trkpt>
      <trkpt lat="40.0057220" lon="-4.6047960">
        <ele>442.1</ele>
        <time>2022-03-01T16:58:29Z</time>
      </trkpt>
      <trkpt lat="40.0056750" lon="-4.6047250">
        <ele>442.2</ele>
        <time>2022-03-01T16:58:30Z</time>
      </trkpt>
      <trkpt lat="40.0056260" lon="-4.6046520">
        <ele>442.2</ele>
        <time>2022-03-01T16:58:31Z</time>
      </trkpt>
      <trkpt lat="40.0055740" lon="-4.6045820">
        <ele>442.3</ele>
        <time>2022-03-01T16:58:32Z</time>
      </trkpt>
      <trkpt lat="40.0055220" lon="-4.6045060">
        <ele>442.3</ele>
        <time>2022-03-01T16:58:33Z</time>
      </trkpt>
      <trkpt lat="40.0054740" lon="-4.6044360">
        <ele>442.4</ele>
        <time>2022-03-01T16:58:34Z</time>
      </trkpt>
      <trkpt lat="40.0054270" lon="-4.6043660">
        <ele>442.5</ele>
        <time>2022-03-01T16:58:35Z</time>
      </trkpt>
      <trkpt lat="40.0053770" lon="-4.6042930">
        <ele>442.5</ele>
        <time>2022-03-01T16:58:36Z</time>
      </trkpt>
      <trkpt lat="40.0053270" lon="-4.6042230">
        <ele>442.5</ele>
        <time>2022-03-01T16:58:37Z</time>
      </trkpt>
      <trkpt lat="40.0052770" lon="-4.6041510">
        <ele>442.6</ele>
        <time>2022-03-01T16:58:38Z</time>
      </trkpt>
      <trkpt lat="40.0052280" lon="-4.6040780">
        <ele>442.6</ele>
        <time>2022-03-01T16:58:39Z</time>
      </trkpt>
      <trkpt lat="40.0051770" lon="-4.6040060">
        <ele>442.7</ele>
        <time>2022-03-01T16:58:40Z</time>
      </trkpt>
      <trkpt lat="40.0051260" lon="-4.6039380">
        <ele>442.7</ele>
        <time>2022-03-01T16:58:41Z</time>
      </trkpt>
      <trkpt lat="40.0050740" lon="-4.6038680">
        <ele>442.8</ele>
        <time>2022-03-01T16:58:42Z</time>
      </trkpt>
      <trkpt lat="40.0050250" lon="-4.6038060">
        <ele>442.8</ele>
        <time>2022-03-01T16:58:43Z</time>
      </trkpt>
      <trkpt lat="40.0049670" lon="-4.6037260">
        <ele>442.9</ele>
        <time>2022-03-01T16:58:44Z</time>
      </trkpt>
      <trkpt lat="40.0049170" lon="-4.6036680">
        <ele>442.9</ele>
        <time>2022-03-01T16:58:45Z</time>
      </trkpt>
      <trkpt lat="40.0048680" lon="-4.6035980">
        <ele>442.9</ele>
        <time>2022-03-01T16:58:46Z</time>
      </trkpt>
      <trkpt lat="40.0048200" lon="-4.6035320">
        <ele>442.9</ele>
        <time>2022-03-01T16:58:47Z</time>
      </trkpt>
      <trkpt lat="40.0047740" lon="-4.6034680">
        <ele>443.0</ele>
        <time>2022-03-01T16:58:48Z</time>
      </trkpt>
      <trkpt lat="40.0047230" lon="-4.6033930">
        <ele>443.0</ele>
        <time>2022-03-01T16:58:49Z</time>
      </trkpt>
      <trkpt lat="40.0046700" lon="-4.6033310">
        <ele>443.1</ele>
        <time>2022-03-01T16:58:50Z</time>
      </trkpt>
      <trkpt lat="40.0046180" lon="-4.6032530">
        <ele>443.1</ele>
        <time>2022-03-01T16:58:51Z</time>
      </trkpt>
      <trkpt lat="40.0045680" lon="-4.6031840">
        <ele>443.2</ele>
        <time>2022-03-01T16:58:52Z</time>
      </trkpt>
      <trkpt lat="40.0045170" lon="-4.6031110">
        <ele>443.2</ele>
        <time>2022-03-01T16:58:53Z</time>
      </trkpt>
      <trkpt lat="40.0044620" lon="-4.6030420">
        <ele>443.3</ele>
        <time>2022-03-01T16:58:54Z</time>
      </trkpt>
      <trkpt lat="40.0044100" lon="-4.6029720">
        <ele>443.3</ele>
        <time>2022-03-01T16:58:55Z</time>
      </trkpt>
      <trkpt lat="40.0043620" lon="-4.6028940">
        <ele>443.4</ele>
        <time>2022-03-01T16:58:56Z</time>
      </trkpt>
      <trkpt lat="40.0043080" lon="-4.6028250">
        <ele>443.5</ele>
        <time>2022-03-01T16:58:57Z</time>
      </trkpt>
      <trkpt lat="40.0042560" lon="-4.6027540">
        <ele>443.5</ele>
        <time>2022-03-01T16:58:58Z</time>
      </trkpt>
      <trkpt lat="40.0042040" lon="-4.6026780">
        <ele>443.6</ele>
        <time>2022-03-01T16:58:59Z</time>
      </trkpt>
      <trkpt lat="40.0041530" lon="-4.6026040">
        <ele>443.6</ele>
        <time>2022-03-01T16:59:00Z</time>
      </trkpt>
      <trkpt lat="40.0041010" lon="-4.6025280">
        <ele>443.7</ele>
        <time>2022-03-01T16:59:01Z</time>
      </trkpt>
      <trkpt lat="40.0040470" lon="-4.6024630">
        <ele>443.7</ele>
        <time>2022-03-01T16:59:02Z</time>
      </trkpt>
      <trkpt lat="40.0039960" lon="-4.6023890">
        <ele>443.8</ele>
        <time>2022-03-01T16:59:03Z</time>
      </trkpt>
      <trkpt lat="40.0039420" lon="-4.6023130">
        <ele>443.8</ele>
        <time>2022-03-01T16:59:04Z</time>
      </trkpt>
      <trkpt lat="40.0038900" lon="-4.6022420">
        <ele>443.9</ele>
        <time>2022-03-01T16:59:05Z</time>
      </trkpt>
      <trkpt lat="40.0038360" lon="-4.6021740">
        <ele>443.9</ele>
        <time>2022-03-01T16:59:06Z</time>
      </trkpt>
      <trkpt lat="40.0037810" lon="-4.6021020">
        <ele>444.0</ele>
        <time>2022-03-01T16:59:07Z</time>
      </trkpt>
      <trkpt lat="40.0037280" lon="-4.6020280">
        <ele>444.0</ele>
        <time>2022-03-01T16:59:08Z</time>
      </trkpt>
      <trkpt lat="40.0036740" lon="-4.6019550">
        <ele>444.1</ele>
        <time>2022-03-01T16:59:09Z</time>
      </trkpt>
      <trkpt lat="40.0036210" lon="-4.6018820">
        <ele>444.1</ele>
        <time>2022-03-01T16:59:10Z</time>
      </trkpt>
      <trkpt lat="40.0035670" lon="-4.6018090">
        <ele>444.2</ele>
        <time>2022-03-01T16:59:11Z</time>
      </trkpt>
      <trkpt lat="40.0035140" lon="-4.6017350">
        <ele>444.2</ele>
        <time>2022-03-01T16:59:12Z</time>
      </trkpt>
      <trkpt lat="40.0034620" lon="-4.6016600">
        <ele>444.3</ele>
        <time>2022-03-01T16:59:13Z</time>
      </trkpt>
      <trkpt lat="40.0034100" lon="-4.6015880">
        <ele>444.3</ele>
        <time>2022-03-01T16:59:14Z</time>
      </trkpt>
      <trkpt lat="40.0033540" lon="-4.6015140">
        <ele>444.4</ele>
        <time>2022-03-01T16:59:15Z</time>
      </trkpt>
      <trkpt lat="40.0033010" lon="-4.6014410">
        <ele>444.4</ele>
        <time>2022-03-01T16:59:16Z</time>
      </trkpt>
      <trkpt lat="40.0032470" lon="-4.6013660">
        <ele>444.4</ele>
        <time>2022-03-01T16:59:17Z</time>
      </trkpt>
      <trkpt lat="40.0031940" lon="-4.6012900">
        <ele>444.4</ele>
        <time>2022-03-01T16:59:18Z</time>
      </trkpt>
      <trkpt lat="40.0031410" lon="-4.6012140">
        <ele>444.5</ele>
        <time>2022-03-01T16:59:19Z</time>
      </trkpt>
      <trkpt lat="40.0030870" lon="-4.6011400">
        <ele>444.5</ele>
        <time>2022-03-01T16:59:20Z</time>
      </trkpt>
      <trkpt lat="40.0030330" lon="-4.6010640">
        <ele>444.6</ele>
        <time>2022-03-01T16:59:21Z</time>
      </trkpt>
      <trkpt lat="40.0029750" lon="-4.6009890">
        <ele>444.6</ele>
        <time>2022-03-01T16:59:22Z</time>
      </trkpt>
      <trkpt lat="40.0029190" lon="-4.6009140">
        <ele>444.7</ele>
        <time>2022-03-01T16:59:23Z</time>
      </trkpt>
      <trkpt lat="40.0028640" lon="-4.6008370">
        <ele>444.7</ele>
        <time>2022-03-01T16:59:24Z</time>
      </trkpt>
      <trkpt lat="40.0028090" lon="-4.6007620">
        <ele>444.8</ele>
        <time>2022-03-01T16:59:25Z</time>
      </trkpt>
      <trkpt lat="40.0027550" lon="-4.6006840">
        <ele>444.8</ele>
        <time>2022-03-01T16:59:26Z</time>
      </trkpt>
      <trkpt lat="40.0027010" lon="-4.6006070">
        <ele>444.8</ele>
        <time>2022-03-01T16:59:27Z</time>
      </trkpt>
      <trkpt lat="40.0026440" lon="-4.6005350">
        <ele>444.8</ele>
        <time>2022-03-01T16:59:28Z</time>
      </trkpt>
      <trkpt lat="40.0025870" lon="-4.6004570">
        <ele>444.8</ele>
        <time>2022-03-01T16:59:29Z</time>
      </trkpt>
      <trkpt lat="40.0025300" lon="-4.6003790">
        <ele>444.8</ele>
        <time>2022-03-01T16:59:30Z</time>
      </trkpt>
      <trkpt lat="40.0024750" lon="-4.6003040">
        <ele>444.8</ele>
        <time>2022-03-01T16:59:31Z</time>
      </trkpt>
      <trkpt lat="40.0024220" lon="-4.6002300">
        <ele>444.9</ele>
        <time>2022-03-01T16:59:32Z</time>
      </trkpt>
      <trkpt lat="40.0023680" lon="-4.6001520">
        <ele>444.9</ele>
        <time>2022-03-01T16:59:33Z</time>
      </trkpt>
      <trkpt lat="40.0023140" lon="-4.6000740">
        <ele>444.9</ele>
        <time>2022-03-01T16:59:34Z</time>
      </trkpt>
      <trkpt lat="40.0022600" lon="-4.5999950">
        <ele>444.8</ele>
        <time>2022-03-01T16:59:35Z</time>
      </trkpt>
      <trkpt lat="40.0022120" lon="-4.5999310">
        <ele>444.8</ele>
        <time>2022-03-01T16:59:36Z</time>
      </trkpt>
      <trkpt lat="40.0021570" lon="-4.5998660">
        <ele>444.8</ele>
        <time>2022-03-01T16:59:37Z</time>
      </trkpt>
      <trkpt lat="40.0021030" lon="-4.5997950">
        <ele>444.8</ele>
        <time>2022-03-01T16:59:38Z</time>
      </trkpt>
      <trkpt lat="40.0020490" lon="-4.5997240">
        <ele>444.8</ele>
        <time>2022-03-01T16:59:39Z</time>
      </trkpt>
      <trkpt lat="40.0019950" lon="-4.5996480">
        <ele>444.7</ele>
        <time>2022-03-01T16:59:40Z</time>
      </trkpt>
      <trkpt lat="40.0019420" lon="-4.5995770">
        <ele>444.7</ele>
        <time>2022-03-01T16:59:41Z</time>
      </trkpt>
      <trkpt lat="40.0018890" lon="-4.5995010">
        <ele>444.7</ele>
        <time>2022-03-01T16:59:42Z</time>
      </trkpt>
      <trkpt lat="40.0018360" lon="-4.5994230">
        <ele>444.7</ele>
        <time>2022-03-01T16:59:43Z</time>
      </trkpt>
      <trkpt lat="40.0017800" lon="-4.5993510">
        <ele>444.6</ele>
        <time>2022-03-01T16:59:44Z</time>
      </trkpt>
      <trkpt lat="40.0017320" lon="-4.5992810">
        <ele>444.6</ele>
        <time>2022-03-01T16:59:45Z</time>
      </trkpt>
      <trkpt lat="40.0016770" lon="-4.5992070">
        <ele>444.5</ele>
        <time>2022-03-01T16:59:46Z</time>
      </trkpt>
      <trkpt lat="40.0016180" lon="-4.5991330">
        <ele>444.5</ele>
        <time>2022-03-01T16:59:47Z</time>
      </trkpt>
      <trkpt lat="40.0015630" lon="-4.5990610">
        <ele>444.4</ele>
        <time>2022-03-01T16:59:48Z</time>
      </trkpt>
      <trkpt lat="40.0015080" lon="-4.5989900">
        <ele>444.4</ele>
        <time>2022-03-01T16:59:49Z</time>
      </trkpt>
      <trkpt lat="40.0014500" lon="-4.5989200">
        <ele>444.4</ele>
        <time>2022-03-01T16:59:50Z</time>
      </trkpt>
      <trkpt lat="40.0014000" lon="-4.5988350">
        <ele>444.3</ele>
        <time>2022-03-01T16:59:51Z</time>
      </trkpt>
      <trkpt lat="40.0013510" lon="-4.5987720">
        <ele>444.3</ele>
        <time>2022-03-01T16:59:52Z</time>
      </trkpt>
      <trkpt lat="40.0012970" lon="-4.5986900">
        <ele>444.2</ele>
        <time>2022-03-01T16:59:53Z</time>
      </trkpt>
      <trkpt lat="40.0012440" lon="-4.5986180">
        <ele>444.2</ele>
        <time>2022-03-01T16:59:54Z</time>
      </trkpt>
      <trkpt lat="40.0011910" lon="-4.5985410">
        <ele>444.1</ele>
        <time>2022-03-01T16:59:55Z</time>
      </trkpt>
      <trkpt lat="40.0011350" lon="-4.5984620">
        <ele>444.0</ele>
        <time>2022-03-01T16:59:56Z</time>
      </trkpt>
      <trkpt lat="40.0010800" lon="-4.5983890">
        <ele>444.0</ele>
        <time>2022-03-01T16:59:57Z</time>
      </trkpt>
      <trkpt lat="40.0010240" lon="-4.5983140">
        <ele>443.9</ele>
        <time>2022-03-01T16:59:58Z</time>
      </trkpt>
      <trkpt lat="40.0009670" lon="-4.5982380">
        <ele>443.8</ele>
        <time>2022-03-01T16:59:59Z</time>
      </trkpt>
      <trkpt lat="40.0009140" lon="-4.5981630">
        <ele>443.8</ele>
        <time>2022-03-01T17:00:00Z</time>
      </trkpt>
      <trkpt lat="40.0008570" lon="-4.5980820">
        <ele>443.7</ele>
        <time>2022-03-01T17:00:01Z</time>
      </trkpt>
      <trkpt lat="40.0008020" lon="-4.5980090">
        <ele>443.7</ele>
        <time>2022-03-01T17:00:02Z</time>
      </trkpt>
      <trkpt lat="40.0007440" lon="-4.5979300">
        <ele>443.6</ele>
        <time>2022-03-01T17:00:03Z</time>
      </trkpt>
      <trkpt lat="40.0006880" lon="-4.5978500">
        <ele>443.5</ele>
        <time>2022-03-01T17:00:04Z</time>
      </trkpt>
      <trkpt lat="40.0006250" lon="-4.5977780">
        <ele>443.4</ele>
        <time>2022-03-01T17:00:05Z</time>
      </trkpt>
      <trkpt lat="40.0005700" lon="-4.5976970">
        <ele>443.3</ele>
        <time>2022-03-01T17:00:06Z</time>
      </trkpt>
      <trkpt lat="40.0005170" lon="-4.5976150">
        <ele>443.2</ele>
        <time>2022-03-01T17:00:07Z</time>
      </trkpt>
      <trkpt lat="40.0004580" lon="-4.5975330">
        <ele>443.1</ele>
        <time>2022-03-01T17:00:08Z</time>
      </trkpt>
      <trkpt lat="40.0003970" lon="-4.5974440">
        <ele>443.0</ele>
        <time>2022-03-01T17:00:09Z</time>
      </trkpt>
      <trkpt lat="40.0003480" lon="-4.5973850">
        <ele>442.9</ele>
        <time>2022-03-01T17:00:10Z</time>
      </trkpt>
      <trkpt lat="40.0002860" lon="-4.5973190">
        <ele>442.7</ele>
        <time>2022-03-01T17:00:11Z</time>
      </trkpt>
      <trkpt lat="40.0002220" lon="-4.5972370">
        <ele>442.6</ele>
        <time>2022-03-01T17:00:12Z</time>
      </trkpt>
      <trkpt lat="40.0001670" lon="-4.5971540">
        <ele>442.5</ele>
        <time>2022-03-01T17:00:13Z</time>
      </trkpt>
      <trkpt lat="40.0001180" lon="-4.5970540">
        <ele>442.4</ele>
        <time>2022-03-01T17:00:14Z</time>
      </trkpt>
      <trkpt lat="40.0000640" lon="-4.5969760">
        <ele>442.3</ele>
        <time>2022-03-01T17:00:15Z</time>
      </trkpt>
      <trkpt lat="40.0000030" lon="-4.5968990">
        <ele>442.1</ele>
        <time>2022-03-01T17:00:16Z</time>
      </trkpt>
      <trkpt lat="39.9999430" lon="-4.5968250">
        <ele>442.0</ele>
        <time>2022-03-01T17:00:17Z</time>
      </trkpt>
      <trkpt lat="39.9998830" lon="-4.5967490">
        <ele>441.9</ele>
        <time>2022-03-01T17:00:18Z</time>
      </trkpt>
      <trkpt lat="39.9998260" lon="-4.5966700">
        <ele>441.8</ele>
        <time>2022-03-01T17:00:19Z</time>
      </trkpt>
      <trkpt lat="39.9997740" lon="-4.5965960">
        <ele>441.7</ele>
        <time>2022-03-01T17:00:20Z</time>
      </trkpt>
      <trkpt lat="39.9997180" lon="-4.5964980">
        <ele>441.5</ele>
        <time>2022-03-01T17:00:21Z</time>
      </trkpt>
      <trkpt lat="39.9996480" lon="-4.5964300">
        <ele>441.4</ele>
        <time>2022-03-01T17:00:22Z</time>
      </trkpt>
      <trkpt lat="39.9995880" lon="-4.5963440">
        <ele>441.3</ele>
        <time>2022-03-01T17:00:23Z</time>
      </trkpt>
      <trkpt lat="39.9995290" lon="-4.5962620">
        <ele>441.2</ele>
        <time>2022-03-01T17:00:24Z</time>
      </trkpt>
      <trkpt lat="39.9994720" lon="-4.5961830">
        <ele>441.0</ele>
        <time>2022-03-01T17:00:25Z</time>
      </trkpt>
      <trkpt lat="39.9994150" lon="-4.5961010">
        <ele>440.9</ele>
        <time>2022-03-01T17:00:26Z</time>
      </trkpt>
      <trkpt lat="39.9993540" lon="-4.5960250">
        <ele>440.8</ele>
        <time>2022-03-01T17:00:27Z</time>
      </trkpt>
      <trkpt lat="39.9992940" lon="-4.5959420">
        <ele>440.7</ele>
        <time>2022-03-01T17:00:28Z</time>
      </trkpt>
      <trkpt lat="39.9992360" lon="-4.5958590">
        <ele>440.6</ele>
        <time>2022-03-01T17:00:29Z</time>
      </trkpt>
      <trkpt lat="39.9991790" lon="-4.5957790">
        <ele>440.5</ele>
        <time>2022-03-01T17:00:30Z</time>
      </trkpt>
      <trkpt lat="39.9991200" lon="-4.5956940">
        <ele>440.5</ele>
        <time>2022-03-01T17:00:31Z</time>
      </trkpt>
      <trkpt lat="39.9990620" lon="-4.5956130">
        <ele>440.4</ele>
        <time>2022-03-01T17:00:32Z</time>
      </trkpt>
      <trkpt lat="39.9990020" lon="-4.5955360">
        <ele>440.4</ele>
        <time>2022-03-01T17:00:33Z</time>
      </trkpt>
      <trkpt lat="39.9989430" lon="-4.5954560">
        <ele>440.4</ele>
        <time>2022-03-01T17:00:34Z</time>
      </trkpt>
      <trkpt lat="39.9988850" lon="-4.5953780">
        <ele>440.3</ele>
        <time>2022-03-01T17:00:35Z</time>
      </trkpt>
      <trkpt lat="39.9988270" lon="-4.5952960">
        <ele>440.3</ele>
        <time>2022-03-01T17:00:36Z</time>
      </trkpt>
      <trkpt lat="39.9987700" lon="-4.5952170">
        <ele>440.3</ele>
        <time>2022-03-01T17:00:37Z</time>
      </trkpt>
      <trkpt lat="39.9987140" lon="-4.5951420">
        <ele>440.2</ele>
        <time>2022-03-01T17:00:38Z</time>
      </trkpt>
      <trkpt lat="39.9986570" lon="-4.5950670">
        <ele>440.2</ele>
        <time>2022-03-01T17:00:39Z</time>
      </trkpt>
      <trkpt lat="39.9986000" lon="-4.5949950">
        <ele>440.2</ele>
        <time>2022-03-01T17:00:40Z</time>
      </trkpt>
      <trkpt lat="39.9985420" lon="-4.5949170">
        <ele>440.2</ele>
        <time>2022-03-01T17:00:41Z</time>
      </trkpt>
      <trkpt lat="39.9984850" lon="-4.5948380">
        <ele>440.1</ele>
        <time>2022-03-01T17:00:42Z</time>
      </trkpt>
      <trkpt lat="39.9984310" lon="-4.5947640">
        <ele>440.1</ele>
        <time>2022-03-01T17:00:43Z</time>
      </trkpt>
      <trkpt lat="39.9983800" lon="-4.5946900">
        <ele>440.1</ele>
        <time>2022-03-01T17:00:44Z</time>
      </trkpt>
      <trkpt lat="39.9983280" lon="-4.5946180">
        <ele>440.1</ele>
        <time>2022-03-01T17:00:45Z</time>
      </trkpt>
      <trkpt lat="39.9982760" lon="-4.5945470">
        <ele>440.1</ele>
        <time>2022-03-01T17:00:46Z</time>
      </trkpt>
      <trkpt lat="39.9982230" lon="-4.5944770">
        <ele>440.1</ele>
        <time>2022-03-01T17:00:47Z</time>
      </trkpt>
      <trkpt lat="39.9981700" lon="-4.5944060">
        <ele>440.1</ele>
        <time>2022-03-01T17:00:48Z</time>
      </trkpt>
      <trkpt lat="39.9981170" lon="-4.5943350">
        <ele>440.2</ele>
        <time>2022-03-01T17:00:49Z</time>
      </trkpt>
      <trkpt lat="39.9980650" lon="-4.5942640">
        <ele>440.2</ele>
        <time>2022-03-01T17:00:50Z</time>
      </trkpt>
      <trkpt lat="39.9980150" lon="-4.5941890">
        <ele>440.2</ele>
        <time>2022-03-01T17:00:51Z</time>
      </trkpt>
      <trkpt lat="39.9979650" lon="-4.5941110">
        <ele>440.2</ele>
        <time>2022-03-01T17:00:52Z</time>
      </trkpt>
      <trkpt lat="39.9979070" lon="-4.5940390">
        <ele>440.2</ele>
        <time>2022-03-01T17:00:53Z</time>
      </trkpt>
      <trkpt lat="39.9978570" lon="-4.5939650">
        <ele>440.2</ele>
        <time>2022-03-01T17:00:54Z</time>
      </trkpt>
      <trkpt lat="39.9978020" lon="-4.5938930">
        <ele>440.2</ele>
        <time>2022-03-01T17:00:55Z</time>
      </trkpt>
      <trkpt lat="39.9977480" lon="-4.5938130">
        <ele>440.2</ele>
        <time>2022-03-01T17:00:56Z</time>
      </trkpt>
      <trkpt lat="39.9977000" lon="-4.5937420">
        <ele>440.2</ele>
        <time>2022-03-01T17:00:57Z</time>
      </trkpt>
      <trkpt lat="39.9976480" lon="-4.5936730">
        <ele>440.2</ele>
        <time>2022-03-01T17:00:58Z</time>
      </trkpt>
      <trkpt lat="39.9975950" lon="-4.5936060">
        <ele>440.2</ele>
        <time>2022-03-01T17:00:59Z</time>
      </trkpt>
      <trkpt lat="39.9975420" lon="-4.5935320">
        <ele>440.2</ele>
        <time>2022-03-01T17:01:00Z</time>
      </trkpt>
      <trkpt lat="39.9974920" lon="-4.5934590">
        <ele>440.2</ele>
        <time>2022-03-01T17:01:01Z</time>
      </trkpt>
      <trkpt lat="39.9974400" lon="-4.5933820">
        <ele>440.2</ele>
        <time>2022-03-01T17:01:02Z</time>
      </trkpt>
      <trkpt lat="39.9973870" lon="-4.5933090">
        <ele>440.2</ele>
        <time>2022-03-01T17:01:03Z</time>
      </trkpt>
      <trkpt lat="39.9973290" lon="-4.5932340">
        <ele>440.2</ele>
        <time>2022-03-01T17:01:04Z</time>
      </trkpt>
      <trkpt lat="39.9972760" lon="-4.5931540">
        <ele>440.2</ele>
        <time>2022-03-01T17:01:05Z</time>
      </trkpt>
      <trkpt lat="39.9972180" lon="-4.5930790">
        <ele>440.2</ele>
        <time>2022-03-01T17:01:06Z</time>
      </trkpt>
      <trkpt lat="39.9971620" lon="-4.5929990">
        <ele>440.2</ele>
        <time>2022-03-01T17:01:07Z</time>
      </trkpt>
      <trkpt lat="39.9971030" lon="-4.5929180">
        <ele>440.2</ele>
        <time>2022-03-01T17:01:08Z</time>
      </trkpt>
      <trkpt lat="39.9970440" lon="-4.5928360">
        <ele>440.2</ele>
        <time>2022-03-01T17:01:09Z</time>
      </trkpt>
      <trkpt lat="39.9969860" lon="-4.5927490">
        <ele>440.2</ele>
        <time>2022-03-01T17:01:10Z</time>
      </trkpt>
      <trkpt lat="39.9969310" lon="-4.5926620">
        <ele>440.3</ele>
        <time>2022-03-01T17:01:11Z</time>
      </trkpt>
      <trkpt lat="39.9968750" lon="-4.5925820">
        <ele>440.3</ele>
        <time>2022-03-01T17:01:12Z</time>
      </trkpt>
      <trkpt lat="39.9968130" lon="-4.5925020">
        <ele>440.2</ele>
        <time>2022-03-01T17:01:13Z</time>
      </trkpt>
      <trkpt lat="39.9967540" lon="-4.5924260">
        <ele>440.2</ele>
        <time>2022-03-01T17:01:14Z</time>
      </trkpt>
      <trkpt lat="39.9966940" lon="-4.5923510">
        <ele>440.2</ele>
        <time>2022-03-01T17:01:15Z</time>
      </trkpt>
      <trkpt lat="39.9966300" lon="-4.5922660">
        <ele>440.2</ele>
        <time>2022-03-01T17:01:16Z</time>
      </trkpt>
      <trkpt lat="39.9965720" lon="-4.5921770">
        <ele>440.2</ele>
        <time>2022-03-01T17:01:17Z</time>
      </trkpt>
      <trkpt lat="39.9965070" lon="-4.5920970">
        <ele>440.2</ele>
        <time>2022-03-01T17:01:18Z</time>
      </trkpt>
      <trkpt lat="39.9964540" lon="-4.5920050">
        <ele>440.2</ele>
        <time>2022-03-01T17:01:19Z</time>
      </trkpt>
      <trkpt lat="39.9963960" lon="-4.5919260">
        <ele>440.2</ele>
        <time>2022-03-01T17:01:20Z</time>
      </trkpt>
      <trkpt lat="39.9963370" lon="-4.5918470">
        <ele>440.2</ele>
        <time>2022-03-01T17:01:21Z</time>
      </trkpt>
      <trkpt lat="39.9962760" lon="-4.5917680">
        <ele>440.3</ele>
        <time>2022-03-01T17:01:22Z</time>
      </trkpt>
      <trkpt lat="39.9962140" lon="-4.5916860">
        <ele>440.3</ele>
        <time>2022-03-01T17:01:23Z</time>
      </trkpt>
      <trkpt lat="39.9961560" lon="-4.5915970">
        <ele>440.4</ele>
        <time>2022-03-01T17:01:24Z</time>
      </trkpt>
      <trkpt lat="39.9961000" lon="-4.5915100">
        <ele>440.5</ele>
        <time>2022-03-01T17:01:25Z</time>
      </trkpt>
      <trkpt lat="39.9960370" lon="-4.5914330">
        <ele>440.6</ele>
        <time>2022-03-01T17:01:26Z</time>
      </trkpt>
      <trkpt lat="39.9959790" lon="-4.5913480">
        <ele>440.7</ele>
        <time>2022-03-01T17:01:27Z</time>
      </trkpt>
      <trkpt lat="39.9959220" lon="-4.5912640">
        <ele>440.7</ele>
        <time>2022-03-01T17:01:28Z</time>
      </trkpt>
      <trkpt lat="39.9958660" lon="-4.5911870">
        <ele>440.8</ele>
        <time>2022-03-01T17:01:29Z</time>
      </trkpt>
      <trkpt lat="39.9958070" lon="-4.5911170">
        <ele>440.9</ele>
        <time>2022-03-01T17:01:30Z</time>
      </trkpt>
      <trkpt lat="39.9957500" lon="-4.5910370">
        <ele>441.0</ele>
        <time>2022-03-01T17:01:31Z</time>
      </trkpt>
      <trkpt lat="39.9956920" lon="-4.5909620">
        <ele>441.1</ele>
        <time>2022-03-01T17:01:32Z</time>
      </trkpt>
      <trkpt lat="39.9956410" lon="-4.5908930">
        <ele>441.2</ele>
        <time>2022-03-01T17:01:33Z</time>
      </trkpt>
      <trkpt lat="39.9955890" lon="-4.5908240">
        <ele>441.3</ele>
        <time>2022-03-01T17:01:34Z</time>
      </trkpt>
      <trkpt lat="39.9955350" lon="-4.5907500">
        <ele>441.5</ele>
        <time>2022-03-01T17:01:35Z</time>
      </trkpt>
      <trkpt lat="39.9954850" lon="-4.5906780">
        <ele>441.6</ele>
        <time>2022-03-01T17:01:36Z</time>
      </trkpt>
      <trkpt lat="39.9954320" lon="-4.5906060">
        <ele>441.8</ele>
        <time>2022-03-01T17:01:37Z</time>
      </trkpt>
      <trkpt lat="39.9953780" lon="-4.5905330">
        <ele>442.0</ele>
        <time>2022-03-01T17:01:38Z</time>
      </trkpt>
      <trkpt lat="39.9953230" lon="-4.5904620">
        <ele>442.1</ele>
        <time>2022-03-01T17:01:39Z</time>
      </trkpt>
      <trkpt lat="39.9952710" lon="-4.5903900">
        <ele>442.3</ele>
        <time>2022-03-01T17:01:40Z</time>
      </trkpt>
      <trkpt lat="39.9952190" lon="-4.5903180">
        <ele>442.5</ele>
        <time>2022-03-01T17:01:41Z</time>
      </trkpt>
      <trkpt lat="39.9951700" lon="-4.5902520">
        <ele>442.7</ele>
        <time>2022-03-01T17:01:42Z</time>
      </trkpt>
      <trkpt lat="39.9951180" lon="-4.5901800">
        <ele>442.9</ele>
        <time>2022-03-01T17:01:43Z</time>
      </trkpt>
      <trkpt lat="39.9950700" lon="-4.5901140">
        <ele>443.1</ele>
        <time>2022-03-01T17:01:44Z</time>
      </trkpt>
      <trkpt lat="39.9950250" lon="-4.5900510">
        <ele>443.3</ele>
        <time>2022-03-01T17:01:45Z</time>
      </trkpt>
      <trkpt lat="39.9949770" lon="-4.5899850">
        <ele>443.5</ele>
        <time>2022-03-01T17:01:46Z</time>
      </trkpt>
      <trkpt lat="39.9949300" lon="-4.5899250">
        <ele>443.7</ele>
        <time>2022-03-01T17:01:47Z</time>
      </trkpt>
      <trkpt lat="39.9948820" lon="-4.5898580">
        <ele>444.0</ele>
        <time>2022-03-01T17:01:48Z</time>
      </trkpt>
      <trkpt lat="39.9948370" lon="-4.5897950">
        <ele>444.2</ele>
        <time>2022-03-01T17:01:49Z</time>
      </trkpt>
      <trkpt lat="39.9947900" lon="-4.5897360">
        <ele>444.4</ele>
        <time>2022-03-01T17:01:50Z</time>
      </trkpt>
      <trkpt lat="39.9947460" lon="-4.5896660">
        <ele>444.6</ele>
        <time>2022-03-01T17:01:51Z</time>
      </trkpt>
      <trkpt lat="39.9946990" lon="-4.5896090">
        <ele>444.9</ele>
        <time>2022-03-01T17:01:52Z</time>
      </trkpt>
      <trkpt lat="39.9946560" lon="-4.5895480">
        <ele>445.1</ele>
        <time>2022-03-01T17:01:53Z</time>
      </trkpt>
      <trkpt lat="39.9946140" lon="-4.5894950">
        <ele>445.3</ele>
        <time>2022-03-01T17:01:54Z</time>
      </trkpt>
      <trkpt lat="39.9945770" lon="-4.5894410">
        <ele>445.5</ele>
        <time>2022-03-01T17:01:55Z</time>
      </trkpt>
      <trkpt lat="39.9945330" lon="-4.5893760">
        <ele>445.7</ele>
        <time>2022-03-01T17:01:56Z</time>
      </trkpt>
      <trkpt lat="39.9944900" lon="-4.5893210">
        <ele>445.9</ele>
        <time>2022-03-01T17:01:57Z</time>
      </trkpt>
      <trkpt lat="39.9944490" lon="-4.5892650">
        <ele>446.1</ele>
        <time>2022-03-01T17:01:58Z</time>
      </trkpt>
      <trkpt lat="39.9944170" lon="-4.5892080">
        <ele>446.3</ele>
        <time>2022-03-01T17:01:59Z</time>
      </trkpt>
      <trkpt lat="39.9943730" lon="-4.5891480">
        <ele>446.5</ele>
        <time>2022-03-01T17:02:00Z</time>
      </trkpt>
      <trkpt lat="39.9943260" lon="-4.5891030">
        <ele>446.7</ele>
        <time>2022-03-01T17:02:01Z</time>
      </trkpt>
      <trkpt lat="39.9942820" lon="-4.5890520">
        <ele>446.9</ele>
        <time>2022-03-01T17:02:02Z</time>
      </trkpt>
      <trkpt lat="39.9942440" lon="-4.5889870">
        <ele>447.1</ele>
        <time>2022-03-01T17:02:03Z</time>
      </trkpt>
      <trkpt lat="39.9942060" lon="-4.5889250">
        <ele>447.3</ele>
        <time>2022-03-01T17:02:04Z</time>
      </trkpt>
      <trkpt lat="39.9941610" lon="-4.5888730">
        <ele>447.5</ele>
        <time>2022-03-01T17:02:05Z</time>
      </trkpt>
      <trkpt lat="39.9941180" lon="-4.5888080">
        <ele>447.8</ele>
        <time>2022-03-01T17:02:06Z</time>
      </trkpt>
      <trkpt lat="39.9940820" lon="-4.5887430">
        <ele>448.0</ele>
        <time>2022-03-01T17:02:07Z</time>
      </trkpt>
      <trkpt lat="39.9940360" lon="-4.5886910">
        <ele>448.2</ele>
        <time>2022-03-01T17:02:08Z</time>
      </trkpt>
      <trkpt lat="39.9939920" lon="-4.5886330">
        <ele>448.4</ele>
        <time>2022-03-01T17:02:09Z</time>
      </trkpt>
      <trkpt lat="39.9939530" lon="-4.5885760">
        <ele>448.6</ele>
        <time>2022-03-01T17:02:10Z</time>
      </trkpt>
      <trkpt lat="39.9939120" lon="-4.5885090">
        <ele>448.8</ele>
        <time>2022-03-01T17:02:11Z</time>
      </trkpt>
      <trkpt lat="39.9938710" lon="-4.5884560">
        <ele>449.0</ele>
        <time>2022-03-01T17:02:12Z</time>
      </trkpt>
      <trkpt lat="39.9938270" lon="-4.5883960">
        <ele>449.2</ele>
        <time>2022-03-01T17:02:13Z</time>
      </trkpt>
      <trkpt lat="39.9937820" lon="-4.5883340">
        <ele>449.5</ele>
        <time>2022-03-01T17:02:14Z</time>
      </trkpt>
      <trkpt lat="39.9937400" lon="-4.5882740">
        <ele>449.7</ele>
        <time>2022-03-01T17:02:15Z</time>
      </trkpt>
      <trkpt lat="39.9936880" lon="-4.5882140">
        <ele>449.9</ele>
        <time>2022-03-01T17:02:16Z</time>
      </trkpt>
      <trkpt lat="39.9936480" lon="-4.5881540">
        <ele>450.1</ele>
        <time>2022-03-01T17:02:17Z</time>
      </trkpt>
      <trkpt lat="39.9936060" lon="-4.5880990">
        <ele>450.4</ele>
        <time>2022-03-01T17:02:18Z</time>
      </trkpt>
      <trkpt lat="39.9935620" lon="-4.5880380">
        <ele>450.6</ele>
        <time>2022-03-01T17:02:19Z</time>
      </trkpt>
      <trkpt lat="39.9935200" lon="-4.5879810">
        <ele>450.8</ele>
        <time>2022-03-01T17:02:20Z</time>
      </trkpt>
      <trkpt lat="39.9934780" lon="-4.5879270">
        <ele>451.0</ele>
        <time>2022-03-01T17:02:21Z</time>
      </trkpt>
      <trkpt lat="39.9934370" lon="-4.5878740">
        <ele>451.2</ele>
        <time>2022-03-01T17:02:22Z</time>
      </trkpt>
      <trkpt lat="39.9933970" lon="-4.5878180">
        <ele>451.5</ele>
        <time>2022-03-01T17:02:23Z</time>
      </trkpt>
      <trkpt lat="39.9933560" lon="-4.5877640">
        <ele>451.7</ele>
        <time>2022-03-01T17:02:24Z</time>
      </trkpt>
      <trkpt lat="39.9933150" lon="-4.5877070">
        <ele>451.9</ele>
        <time>2022-03-01T17:02:25Z</time>
      </trkpt>
      <trkpt lat="39.9932760" lon="-4.5876510">
        <ele>452.1</ele>
        <time>2022-03-01T17:02:26Z</time>
      </trkpt>
      <trkpt lat="39.9932340" lon="-4.5875970">
        <ele>452.3</ele>
        <time>2022-03-01T17:02:27Z</time>
      </trkpt>
      <trkpt lat="39.9931940" lon="-4.5875380">
        <ele>452.5</ele>
        <time>2022-03-01T17:02:28Z</time>
      </trkpt>
      <trkpt lat="39.9931490" lon="-4.5874870">
        <ele>452.7</ele>
        <time>2022-03-01T17:02:29Z</time>
      </trkpt>
      <trkpt lat="39.9931130" lon="-4.5874270">
        <ele>452.9</ele>
        <time>2022-03-01T17:02:30Z</time>
      </trkpt>
      <trkpt lat="39.9930670" lon="-4.5873700">
        <ele>453.1</ele>
        <time>2022-03-01T17:02:31Z</time>
      </trkpt>
      <trkpt lat="39.9930250" lon="-4.5873180">
        <ele>453.2</ele>
        <time>2022-03-01T17:02:32Z</time>
      </trkpt>
      <trkpt lat="39.9929840" lon="-4.5872570">
        <ele>453.4</ele>
        <time>2022-03-01T17:02:33Z</time>
      </trkpt>
      <trkpt lat="39.9929390" lon="-4.5872000">
        <ele>453.6</ele>
        <time>2022-03-01T17:02:34Z</time>
      </trkpt>
      <trkpt lat="39.9928950" lon="-4.5871440">
        <ele>453.8</ele>
        <time>2022-03-01T17:02:35Z</time>
      </trkpt>
      <trkpt lat="39.9928550" lon="-4.5870790">
        <ele>454.0</ele>
        <time>2022-03-01T17:02:36Z</time>
      </trkpt>
      <trkpt lat="39.9928120" lon="-4.5870160">
        <ele>454.2</ele>
        <time>2022-03-01T17:02:37Z</time>
      </trkpt>
      <trkpt lat="39.9927710" lon="-4.5869570">
        <ele>454.3</ele>
        <time>2022-03-01T17:02:38Z</time>
      </trkpt>
      <trkpt lat="39.9927270" lon="-4.5869000">
        <ele>454.5</ele>
        <time>2022-03-01T17:02:39Z</time>
      </trkpt>
      <trkpt lat="39.9926870" lon="-4.5868370">
        <ele>454.6</ele>
        <time>2022-03-01T17:02:40Z</time>
      </trkpt>
      <trkpt lat="39.9926420" lon="-4.5867790">
        <ele>454.8</ele>
        <time>2022-03-01T17:02:41Z</time>
      </trkpt>
      <trkpt lat="39.9926000" lon="-4.5867160">
        <ele>455.0</ele>
        <time>2022-03-01T17:02:42Z</time>
      </trkpt>
      <trkpt lat="39.9925580" lon="-4.5866580">
        <ele>455.2</ele>
        <time>2022-03-01T17:02:43Z</time>
      </trkpt>
      <trkpt lat="39.9925160" lon="-4.5866030">
        <ele>455.3</ele>
        <time>2022-03-01T17:02:44Z</time>
      </trkpt>
      <trkpt lat="39.9924710" lon="-4.5865450">
        <ele>455.5</ele>
        <time>2022-03-01T17:02:45Z</time>
      </trkpt>
      <trkpt lat="39.9924290" lon="-4.5864890">
        <ele>455.7</ele>
        <time>2022-03-01T17:02:46Z</time>
      </trkpt>
      <trkpt lat="39.9923850" lon="-4.5864250">
        <ele>455.8</ele>
        <time>2022-03-01T17:02:47Z</time>
      </trkpt>
      <trkpt lat="39.9923450" lon="-4.5863640">
        <ele>456.0</ele>
        <time>2022-03-01T17:02:48Z</time>
      </trkpt>
      <trkpt lat="39.9922990" lon="-4.5863060">
        <ele>456.2</ele>
        <time>2022-03-01T17:02:49Z</time>
      </trkpt>
      <trkpt lat="39.9922530" lon="-4.5862440">
        <ele>456.3</ele>
        <time>2022-03-01T17:02:50Z</time>
      </trkpt>
      <trkpt lat="39.9922110" lon="-4.5861820">
        <ele>456.5</ele>
        <time>2022-03-01T17:02:51Z</time>
      </trkpt>
      <trkpt lat="39.9921720" lon="-4.5861380">
        <ele>456.6</ele>
        <time>2022-03-01T17:02:52Z</time>
      </trkpt>
      <trkpt lat="39.9921170" lon="-4.5860690">
        <ele>456.7</ele>
        <time>2022-03-01T17:02:53Z</time>
      </trkpt>
      <trkpt lat="39.9920730" lon="-4.5860120">
        <ele>456.8</ele>
        <time>2022-03-01T17:02:54Z</time>
      </trkpt>
      <trkpt lat="39.9920310" lon="-4.5859460">
        <ele>457.0</ele>
        <time>2022-03-01T17:02:55Z</time>
      </trkpt>
      <trkpt lat="39.9919900" lon="-4.5858870">
        <ele>457.1</ele>
        <time>2022-03-01T17:02:56Z</time>
      </trkpt>
      <trkpt lat="39.9919410" lon="-4.5858310">
        <ele>457.2</ele>
        <time>2022-03-01T17:02:57Z</time>
      </trkpt>
      <trkpt lat="39.9918980" lon="-4.5857690">
        <ele>457.3</ele>
        <time>2022-03-01T17:02:58Z</time>
      </trkpt>
      <trkpt lat="39.9918570" lon="-4.5857100">
        <ele>457.4</ele>
        <time>2022-03-01T17:02:59Z</time>
      </trkpt>
      <trkpt lat="39.9918160" lon="-4.5856470">
        <ele>457.5</ele>
        <time>2022-03-01T17:03:00Z</time>
      </trkpt>
      <trkpt lat="39.9917720" lon="-4.5855860">
        <ele>457.6</ele>
        <time>2022-03-01T17:03:01Z</time>
      </trkpt>
      <trkpt lat="39.9917290" lon="-4.5855210">
        <ele>457.7</ele>
        <time>2022-03-01T17:03:02Z</time>
      </trkpt>
      <trkpt lat="39.9916860" lon="-4.5854670">
        <ele>457.8</ele>
        <time>2022-03-01T17:03:03Z</time>
      </trkpt>
      <trkpt lat="39.9916380" lon="-4.5854090">
        <ele>457.9</ele>
        <time>2022-03-01T17:03:04Z</time>
      </trkpt>
      <trkpt lat="39.9915930" lon="-4.5853470">
        <ele>458.0</ele>
        <time>2022-03-01T17:03:05Z</time>
      </trkpt>
      <trkpt lat="39.9915470" lon="-4.5852860">
        <ele>458.1</ele>
        <time>2022-03-01T17:03:06Z</time>
      </trkpt>
      <trkpt lat="39.9915010" lon="-4.5852280">
        <ele>458.2</ele>
        <time>2022-03-01T17:03:07Z</time>
      </trkpt>
      <trkpt lat="39.9914540" lon="-4.5851700">
        <ele>458.3</ele>
        <time>2022-03-01T17:03:08Z</time>
      </trkpt>
      <trkpt lat="39.9914060" lon="-4.5851070">
        <ele>458.4</ele>
        <time>2022-03-01T17:03:09Z</time>
      </trkpt>
      <trkpt lat="39.9913610" lon="-4.5850430">
        <ele>458.5</ele>
        <time>2022-03-01T17:03:10Z</time>
      </trkpt>
      <trkpt lat="39.9913110" lon="-4.5849860">
        <ele>458.6</ele>
        <time>2022-03-01T17:03:11Z</time>
      </trkpt>
      <trkpt lat="39.9912650" lon="-4.5849130">
        <ele>458.7</ele>
        <time>2022-03-01T17:03:12Z</time>
      </trkpt>
      <trkpt lat="39.9912180" lon="-4.5848510">
        <ele>458.8</ele>
        <time>2022-03-01T17:03:13Z</time>
      </trkpt>
      <trkpt lat="39.9911740" lon="-4.5847900">
        <ele>458.8</ele>
        <time>2022-03-01T17:03:14Z</time>
      </trkpt>
      <trkpt lat="39.9911330" lon="-4.5847220">
        <ele>458.9</ele>
        <time>2022-03-01T17:03:15Z</time>
      </trkpt>
      <trkpt lat="39.9910840" lon="-4.5846610">
        <ele>459.0</ele>
        <time>2022-03-01T17:03:16Z</time>
      </trkpt>
      <trkpt lat="39.9910380" lon="-4.5846000">
        <ele>459.1</ele>
        <time>2022-03-01T17:03:17Z</time>
      </trkpt>
      <trkpt lat="39.9909910" lon="-4.5845450">
        <ele>459.2</ele>
        <time>2022-03-01T17:03:18Z</time>
      </trkpt>
      <trkpt lat="39.9909440" lon="-4.5844760">
        <ele>459.2</ele>
        <time>2022-03-01T17:03:19Z</time>
      </trkpt>
      <trkpt lat="39.9909000" lon="-4.5844070">
        <ele>459.3</ele>
        <time>2022-03-01T17:03:20Z</time>
      </trkpt>
      <trkpt lat="39.9908540" lon="-4.5843410">
        <ele>459.4</ele>
        <time>2022-03-01T17:03:21Z</time>
      </trkpt>
      <trkpt lat="39.9908080" lon="-4.5842740">
        <ele>459.4</ele>
        <time>2022-03-01T17:03:22Z</time>
      </trkpt>
      <trkpt lat="39.9907610" lon="-4.5842070">
        <ele>459.5</ele>
        <time>2022-03-01T17:03:23Z</time>
      </trkpt>
      <trkpt lat="39.9907130" lon="-4.5841440">
        <ele>459.6</ele>
        <time>2022-03-01T17:03:24Z</time>
      </trkpt>
      <trkpt lat="39.9906650" lon="-4.5840720">
        <ele>459.6</ele>
        <time>2022-03-01T17:03:25Z</time>
      </trkpt>
      <trkpt lat="39.9906160" lon="-4.5840000">
        <ele>459.7</ele>
        <time>2022-03-01T17:03:26Z</time>
      </trkpt>
      <trkpt lat="39.9905660" lon="-4.5839390">
        <ele>459.8</ele>
        <time>2022-03-01T17:03:27Z</time>
      </trkpt>
      <trkpt lat="39.9905210" lon="-4.5838760">
        <ele>459.8</ele>
        <time>2022-03-01T17:03:28Z</time>
      </trkpt>
      <trkpt lat="39.9904730" lon="-4.5838080">
        <ele>459.9</ele>
        <time>2022-03-01T17:03:29Z</time>
      </trkpt>
      <trkpt lat="39.9904270" lon="-4.5837450">
        <ele>460.0</ele>
        <time>2022-03-01T17:03:30Z</time>
      </trkpt>
      <trkpt lat="39.9903820" lon="-4.5836770">
        <ele>460.0</ele>
        <time>2022-03-01T17:03:31Z</time>
      </trkpt>
      <trkpt lat="39.9903360" lon="-4.5836150">
        <ele>460.1</ele>
        <time>2022-03-01T17:03:32Z</time>
      </trkpt>
      <trkpt lat="39.9902880" lon="-4.5835450">
        <ele>460.2</ele>
        <time>2022-03-01T17:03:33Z</time>
      </trkpt>
      <trkpt lat="39.9902460" lon="-4.5834810">
        <ele>460.2</ele>
        <time>2022-03-01T17:03:34Z</time>
      </trkpt>
      <trkpt lat="39.9901990" lon="-4.5834150">
        <ele>460.3</ele>
        <time>2022-03-01T17:03:35Z</time>
      </trkpt>
      <trkpt lat="39.9901510" lon="-4.5833520">
        <ele>460.3</ele>
        <time>2022-03-01T17:03:36Z</time>
      </trkpt>
      <trkpt lat="39.9901050" lon="-4.5832810">
        <ele>460.4</ele>
        <time>2022-03-01T17:03:37Z</time>
      </trkpt>
      <trkpt lat="39.9900590" lon="-4.5832160">
        <ele>460.5</ele>
        <time>2022-03-01T17:03:38Z</time>
      </trkpt>
      <trkpt lat="39.9900100" lon="-4.5831490">
        <ele>460.5</ele>
        <time>2022-03-01T17:03:39Z</time>
      </trkpt>
      <trkpt lat="39.9899620" lon="-4.5830810">
        <ele>460.6</ele>
        <time>2022-03-01T17:03:40Z</time>
      </trkpt>
      <trkpt lat="39.9899150" lon="-4.5830180">
        <ele>460.6</ele>
        <time>2022-03-01T17:03:41Z</time>
      </trkpt>
      <trkpt lat="39.9898650" lon="-4.5829530">
        <ele>460.7</ele>
        <time>2022-03-01T17:03:42Z</time>
      </trkpt>
      <trkpt lat="39.9898200" lon="-4.5828890">
        <ele>460.8</ele>
        <time>2022-03-01T17:03:43Z</time>
      </trkpt>
      <trkpt lat="39.9897700" lon="-4.5828170">
        <ele>460.8</ele>
        <time>2022-03-01T17:03:44Z</time>
      </trkpt>
      <trkpt lat="39.9897190" lon="-4.5827500">
        <ele>460.9</ele>
        <time>2022-03-01T17:03:45Z</time>
      </trkpt>
      <trkpt lat="39.9896700" lon="-4.5826800">
        <ele>460.9</ele>
        <time>2022-03-01T17:03:46Z</time>
      </trkpt>
      <trkpt lat="39.9896210" lon="-4.5826180">
        <ele>461.0</ele>
        <time>2022-03-01T17:03:47Z</time>
      </trkpt>
      <trkpt lat="39.9895710" lon="-4.5825490">
        <ele>461.1</ele>
        <time>2022-03-01T17:03:48Z</time>
      </trkpt>
      <trkpt lat="39.9895240" lon="-4.5824790">
        <ele>461.1</ele>
        <time>2022-03-01T17:03:49Z</time>
      </trkpt>
      <trkpt lat="39.9894760" lon="-4.5824130">
        <ele>461.2</ele>
        <time>2022-03-01T17:03:50Z</time>
      </trkpt>
      <trkpt lat="39.9894250" lon="-4.5823410">
        <ele>461.3</ele>
        <time>2022-03-01T17:03:51Z</time>
      </trkpt>
      <trkpt lat="39.9893760" lon="-4.5822840">
        <ele>461.3</ele>
        <time>2022-03-01T17:03:52Z</time>
      </trkpt>
      <trkpt lat="39.9893270" lon="-4.5822140">
        <ele>461.4</ele>
        <time>2022-03-01T17:03:53Z</time>
      </trkpt>
      <trkpt lat="39.9892780" lon="-4.5821410">
        <ele>461.4</ele>
        <time>2022-03-01T17:03:54Z</time>
      </trkpt>
      <trkpt lat="39.9892290" lon="-4.5820750">
        <ele>461.5</ele>
        <time>2022-03-01T17:03:55Z</time>
      </trkpt>
      <trkpt lat="39.9891780" lon="-4.5820070">
        <ele>461.5</ele>
        <time>2022-03-01T17:03:56Z</time>
      </trkpt>
      <trkpt lat="39.9891280" lon="-4.5819420">
        <ele>461.6</ele>
        <time>2022-03-01T17:03:57Z</time>
      </trkpt>
      <trkpt lat="39.9890820" lon="-4.5818630">
        <ele>461.7</ele>
        <time>2022-03-01T17:03:58Z</time>
      </trkpt>
      <trkpt lat="39.9890250" lon="-4.5818070">
        <ele>461.7</ele>
        <time>2022-03-01T17:03:59Z</time>
      </trkpt>
      <trkpt lat="39.9889690" lon="-4.5817460">
        <ele>461.8</ele>
        <time>2022-03-01T17:04:00Z</time>
      </trkpt>
      <trkpt lat="39.9889220" lon="-4.5816790">
        <ele>461.9</ele>
        <time>2022-03-01T17:04:01Z</time>
      </trkpt>
      <trkpt lat="39.9888740" lon="-4.5816130">
        <ele>461.9</ele>
        <time>2022-03-01T17:04:02Z</time>
      </trkpt>
      <trkpt lat="39.9888270" lon="-4.5815440">
        <ele>462.0</ele>
        <time>2022-03-01T17:04:03Z</time>
      </trkpt>
      <trkpt lat="39.9887780" lon="-4.5814800">
        <ele>462.0</ele>
        <time>2022-03-01T17:04:04Z</time>
      </trkpt>
      <trkpt lat="39.9887280" lon="-4.5814090">
        <ele>462.1</ele>
        <time>2022-03-01T17:04:05Z</time>
      </trkpt>
      <trkpt lat="39.9886770" lon="-4.5813440">
        <ele>462.2</ele>
        <time>2022-03-01T17:04:06Z</time>
      </trkpt>
      <trkpt lat="39.9886280" lon="-4.5812680">
        <ele>462.3</ele>
        <time>2022-03-01T17:04:07Z</time>
      </trkpt>
      <trkpt lat="39.9885780" lon="-4.5812090">
        <ele>462.3</ele>
        <time>2022-03-01T17:04:08Z</time>
      </trkpt>
      <trkpt lat="39.9885210" lon="-4.5811300">
        <ele>462.4</ele>
        <time>2022-03-01T17:04:09Z</time>
      </trkpt>
      <trkpt lat="39.9884720" lon="-4.5810650">
        <ele>462.5</ele>
        <time>2022-03-01T17:04:10Z</time>
      </trkpt>
      <trkpt lat="39.9884250" lon="-4.5810030">
        <ele>462.6</ele>
        <time>2022-03-01T17:04:11Z</time>
      </trkpt>
      <trkpt lat="39.9883780" lon="-4.5809300">
        <ele>462.6</ele>
        <time>2022-03-01T17:04:12Z</time>
      </trkpt>
      <trkpt lat="39.9883270" lon="-4.5808620">
        <ele>462.7</ele>
        <time>2022-03-01T17:04:13Z</time>
      </trkpt>
      <trkpt lat="39.9882790" lon="-4.5807950">
        <ele>462.8</ele>
        <time>2022-03-01T17:04:14Z</time>
      </trkpt>
      <trkpt lat="39.9882310" lon="-4.5807280">
        <ele>462.8</ele>
        <time>2022-03-01T17:04:15Z</time>
      </trkpt>
      <trkpt lat="39.9881840" lon="-4.5806620">
        <ele>462.9</ele>
        <time>2022-03-01T17:04:16Z</time>
      </trkpt>
      <trkpt lat="39.9881270" lon="-4.5806040">
        <ele>462.9</ele>
        <time>2022-03-01T17:04:17Z</time>
      </trkpt>
      <trkpt lat="39.9880820" lon="-4.5805310">
        <ele>463.0</ele>
        <time>2022-03-01T17:04:18Z</time>
      </trkpt>
      <trkpt lat="39.9880330" lon="-4.5804670">
        <ele>463.1</ele>
        <time>2022-03-01T17:04:19Z</time>
      </trkpt>
      <trkpt lat="39.9879900" lon="-4.5803940">
        <ele>463.1</ele>
        <time>2022-03-01T17:04:20Z</time>
      </trkpt>
      <trkpt lat="39.9879440" lon="-4.5803360">
        <ele>463.2</ele>
        <time>2022-03-01T17:04:21Z</time>
      </trkpt>
      <trkpt lat="39.9878970" lon="-4.5802640">
        <ele>463.3</ele>
        <time>2022-03-01T17:04:22Z</time>
      </trkpt>
      <trkpt lat="39.9878490" lon="-4.5801970">
        <ele>463.3</ele>
        <time>2022-03-01T17:04:23Z</time>
      </trkpt>
      <trkpt lat="39.9877960" lon="-4.5801390">
        <ele>463.4</ele>
        <time>2022-03-01T17:04:24Z</time>
      </trkpt>
      <trkpt lat="39.9877460" lon="-4.5800720">
        <ele>463.4</ele>
        <time>2022-03-01T17:04:25Z</time>
      </trkpt>
      <trkpt lat="39.9876910" lon="-4.5800000">
        <ele>463.5</ele>
        <time>2022-03-01T17:04:26Z</time>
      </trkpt>
      <trkpt lat="39.9876500" lon="-4.5799320">
        <ele>463.5</ele>
        <time>2022-03-01T17:04:27Z</time>
      </trkpt>
      <trkpt lat="39.9876020" lon="-4.5798710">
        <ele>463.6</ele>
        <time>2022-03-01T17:04:28Z</time>
      </trkpt>
      <trkpt lat="39.9875570" lon="-4.5798080">
        <ele>463.6</ele>
        <time>2022-03-01T17:04:29Z</time>
      </trkpt>
      <trkpt lat="39.9875100" lon="-4.5797330">
        <ele>463.6</ele>
        <time>2022-03-01T17:04:30Z</time>
      </trkpt>
      <trkpt lat="39.9874620" lon="-4.5796660">
        <ele>463.7</ele>
        <time>2022-03-01T17:04:31Z</time>
      </trkpt>
      <trkpt lat="39.9874140" lon="-4.5796020">
        <ele>463.7</ele>
        <time>2022-03-01T17:04:32Z</time>
      </trkpt>
      <trkpt lat="39.9873660" lon="-4.5795340">
        <ele>463.7</ele>
        <time>2022-03-01T17:04:33Z</time>
      </trkpt>
      <trkpt lat="39.9873170" lon="-4.5794620">
        <ele>463.8</ele>
        <time>2022-03-01T17:04:34Z</time>
      </trkpt>
      <trkpt lat="39.9872680" lon="-4.5793930">
        <ele>463.8</ele>
        <time>2022-03-01T17:04:35Z</time>
      </trkpt>
      <trkpt lat="39.9872180" lon="-4.5793280">
        <ele>463.9</ele>
        <time>2022-03-01T17:04:36Z</time>
      </trkpt>
      <trkpt lat="39.9871660" lon="-4.5792580">
        <ele>463.9</ele>
        <time>2022-03-01T17:04:37Z</time>
      </trkpt>
      <trkpt lat="39.9871160" lon="-4.5791890">
        <ele>463.9</ele>
        <time>2022-03-01T17:04:38Z</time>
      </trkpt>
      <trkpt lat="39.9870670" lon="-4.5791200">
        <ele>464.0</ele>
        <time>2022-03-01T17:04:39Z</time>
      </trkpt>
      <trkpt lat="39.9870140" lon="-4.5790520">
        <ele>464.0</ele>
        <time>2022-03-01T17:04:40Z</time>
      </trkpt>
      <trkpt lat="39.9869640" lon="-4.5789820">
        <ele>464.0</ele>
        <time>2022-03-01T17:04:41Z</time>
      </trkpt>
      <trkpt lat="39.9869120" lon="-4.5789120">
        <ele>464.0</ele>
        <time>2022-03-01T17:04:42Z</time>
      </trkpt>
      <trkpt lat="39.9868590" lon="-4.5788430">
        <ele>464.1</ele>
        <time>2022-03-01T17:04:43Z</time>
      </trkpt>
      <trkpt lat="39.9868090" lon="-4.5787740">
        <ele>464.1</ele>
        <time>2022-03-01T17:04:44Z</time>
      </trkpt>
      <trkpt lat="39.9867570" lon="-4.5787060">
        <ele>464.1</ele>
        <time>2022-03-01T17:04:45Z</time>
      </trkpt>
      <trkpt lat="39.9867070" lon="-4.5786390">
        <ele>464.1</ele>
        <time>2022-03-01T17:04:46Z</time>
      </trkpt>
      <trkpt lat="39.9866570" lon="-4.5785660">
        <ele>464.1</ele>
        <time>2022-03-01T17:04:47Z</time>
      </trkpt>
      <trkpt lat="39.9866060" lon="-4.5784950">
        <ele>464.2</ele>
        <time>2022-03-01T17:04:48Z</time>
      </trkpt>
      <trkpt lat="39.9865570" lon="-4.5784260">
        <ele>464.2</ele>
        <time>2022-03-01T17:04:49Z</time>
      </trkpt>
      <trkpt lat="39.9865050" lon="-4.5783550">
        <ele>464.2</ele>
        <time>2022-03-01T17:04:50Z</time>
      </trkpt>
      <trkpt lat="39.9864550" lon="-4.5782900">
        <ele>464.2</ele>
        <time>2022-03-01T17:04:51Z</time>
      </trkpt>
      <trkpt lat="39.9864030" lon="-4.5782220">
        <ele>464.3</ele>
        <time>2022-03-01T17:04:52Z</time>
      </trkpt>
      <trkpt lat="39.9863540" lon="-4.5781520">
        <ele>464.3</ele>
        <time>2022-03-01T17:04:53Z</time>
      </trkpt>
      <trkpt lat="39.9863000" lon="-4.5780820">
        <ele>464.3</ele>
        <time>2022-03-01T17:04:54Z</time>
      </trkpt>
      <trkpt lat="39.9862470" lon="-4.5780140">
        <ele>464.4</ele>
        <time>2022-03-01T17:04:55Z</time>
      </trkpt>
      <trkpt lat="39.9861940" lon="-4.5779380">
        <ele>464.4</ele>
        <time>2022-03-01T17:04:56Z</time>
      </trkpt>
      <trkpt lat="39.9861410" lon="-4.5778650">
        <ele>464.4</ele>
        <time>2022-03-01T17:04:57Z</time>
      </trkpt>
      <trkpt lat="39.9860890" lon="-4.5777920">
        <ele>464.5</ele>
        <time>2022-03-01T17:04:58Z</time>
      </trkpt>
      <trkpt lat="39.9860410" lon="-4.5777240">
        <ele>464.5</ele>
        <time>2022-03-01T17:04:59Z</time>
      </trkpt>
      <trkpt lat="39.9859870" lon="-4.5776500">
        <ele>464.5</ele>
        <time>2022-03-01T17:05:00Z</time>
      </trkpt>
      <trkpt lat="39.9859320" lon="-4.5775810">
        <ele>464.6</ele>
        <time>2022-03-01T17:05:01Z</time>
      </trkpt>
      <trkpt lat="39.9858810" lon="-4.5775030">
        <ele>464.6</ele>
        <time>2022-03-01T17:05:02Z</time>
      </trkpt>
      <trkpt lat="39.9858270" lon="-4.5774330">
        <ele>464.6</ele>
        <time>2022-03-01T17:05:03Z</time>
      </trkpt>
      <trkpt lat="39.9857740" lon="-4.5773670">
        <ele>464.7</ele>
        <time>2022-03-01T17:05:04Z</time>
      </trkpt>
      <trkpt lat="39.9857290" lon="-4.5772950">
        <ele>464.7</ele>
        <time>2022-03-01T17:05:05Z</time>
      </trkpt>
      <trkpt lat="39.9856820" lon="-4.5772240">
        <ele>464.8</ele>
        <time>2022-03-01T17:05:06Z</time>
      </trkpt>
      <trkpt lat="39.9856270" lon="-4.5771530">
        <ele>464.9</ele>
        <time>2022-03-01T17:05:07Z</time>
      </trkpt>
      <trkpt lat="39.9855760" lon="-4.5770830">
        <ele>465.0</ele>
        <time>2022-03-01T17:05:08Z</time>
      </trkpt>
      <trkpt lat="39.9855240" lon="-4.5770160">
        <ele>465.1</ele>
        <time>2022-03-01T17:05:09Z</time>
      </trkpt>
      <trkpt lat="39.9854740" lon="-4.5769500">
        <ele>465.2</ele>
        <time>2022-03-01T17:05:10Z</time>
      </trkpt>
      <trkpt lat="39.9854220" lon="-4.5768850">
        <ele>465.3</ele>
        <time>2022-03-01T17:05:11Z</time>
      </trkpt>
      <trkpt lat="39.9853720" lon="-4.5768160">
        <ele>465.4</ele>
        <time>2022-03-01T17:05:12Z</time>
      </trkpt>
      <trkpt lat="39.9853270" lon="-4.5767480">
        <ele>465.4</ele>
        <time>2022-03-01T17:05:13Z</time>
      </trkpt>
      <trkpt lat="39.9852780" lon="-4.5766820">
        <ele>465.5</ele>
        <time>2022-03-01T17:05:14Z</time>
      </trkpt>
      <trkpt lat="39.9852280" lon="-4.5766180">
        <ele>465.6</ele>
        <time>2022-03-01T17:05:15Z</time>
      </trkpt>
      <trkpt lat="39.9851760" lon="-4.5765550">
        <ele>465.7</ele>
        <time>2022-03-01T17:05:16Z</time>
      </trkpt>
      <trkpt lat="39.9851290" lon="-4.5764890">
        <ele>465.8</ele>
        <time>2022-03-01T17:05:17Z</time>
      </trkpt>
      <trkpt lat="39.9850800" lon="-4.5764230">
        <ele>465.9</ele>
        <time>2022-03-01T17:05:18Z</time>
      </trkpt>
      <trkpt lat="39.9850340" lon="-4.5763640">
        <ele>466.0</ele>
        <time>2022-03-01T17:05:19Z</time>
      </trkpt>
      <trkpt lat="39.9849850" lon="-4.5763010">
        <ele>466.1</ele>
        <time>2022-03-01T17:05:20Z</time>
      </trkpt>
      <trkpt lat="39.9849330" lon="-4.5762390">
        <ele>466.2</ele>
        <time>2022-03-01T17:05:21Z</time>
      </trkpt>
      <trkpt lat="39.9848870" lon="-4.5761740">
        <ele>466.3</ele>
        <time>2022-03-01T17:05:22Z</time>
      </trkpt>
      <trkpt lat="39.9848400" lon="-4.5761120">
        <ele>466.4</ele>
        <time>2022-03-01T17:05:23Z</time>
      </trkpt>
      <trkpt lat="39.9847930" lon="-4.5760440">
        <ele>466.5</ele>
        <time>2022-03-01T17:05:24Z</time>
      </trkpt>
      <trkpt lat="39.9847470" lon="-4.5759820">
        <ele>466.6</ele>
        <time>2022-03-01T17:05:25Z</time>
      </trkpt>
      <trkpt lat="39.9847020" lon="-4.5759230">
        <ele>466.7</ele>
        <time>2022-03-01T17:05:26Z</time>
      </trkpt>
      <trkpt lat="39.9846570" lon="-4.5758600">
        <ele>466.8</ele>
        <time>2022-03-01T17:05:27Z</time>
      </trkpt>
      <trkpt lat="39.9846110" lon="-4.5757950">
        <ele>467.0</ele>
        <time>2022-03-01T17:05:28Z</time>
      </trkpt>
      <trkpt lat="39.9845660" lon="-4.5757310">
        <ele>467.1</ele>
        <time>2022-03-01T17:05:29Z</time>
      </trkpt>
      <trkpt lat="39.9845240" lon="-4.5756680">
        <ele>467.2</ele>
        <time>2022-03-01T17:05:30Z</time>
      </trkpt>
      <trkpt lat="39.9844800" lon="-4.5755990">
        <ele>467.3</ele>
        <time>2022-03-01T17:05:31Z</time>
      </trkpt>
      <trkpt lat="39.9844340" lon="-4.5755400">
        <ele>467.4</ele>
        <time>2022-03-01T17:05:32Z</time>
      </trkpt>
      <trkpt lat="39.9843910" lon="-4.5754830">
        <ele>467.5</ele>
        <time>2022-03-01T17:05:33Z</time>
      </trkpt>
      <trkpt lat="39.9843450" lon="-4.5754250">
        <ele>467.7</ele>
        <time>2022-03-01T17:05:34Z</time>
      </trkpt>
      <trkpt lat="39.9843050" lon="-4.5753650">
        <ele>467.8</ele>
        <time>2022-03-01T17:05:35Z</time>
      </trkpt>
      <trkpt lat="39.9842610" lon="-4.5752940">
        <ele>467.9</ele>
        <time>2022-03-01T17:05:36Z</time>
      </trkpt>
      <trkpt lat="39.9842220" lon="-4.5752370">
        <ele>468.0</ele>
        <time>2022-03-01T17:05:37Z</time>
      </trkpt>
      <trkpt lat="39.9841790" lon="-4.5751810">
        <ele>468.1</ele>
        <time>2022-03-01T17:05:38Z</time>
      </trkpt>
      <trkpt lat="39.9841410" lon="-4.5751190">
        <ele>468.2</ele>
        <time>2022-03-01T17:05:39Z</time>
      </trkpt>
      <trkpt lat="39.9841010" lon="-4.5750660">
        <ele>468.3</ele>
        <time>2022-03-01T17:05:40Z</time>
      </trkpt>
      <trkpt lat="39.9840610" lon="-4.5750010">
        <ele>468.4</ele>
        <time>2022-03-01T17:05:41Z</time>
      </trkpt>
      <trkpt lat="39.9840200" lon="-4.5749440">
        <ele>468.5</ele>
        <time>2022-03-01T17:05:42Z</time>
      </trkpt>
      <trkpt lat="39.9839760" lon="-4.5748900">
        <ele>468.6</ele>
        <time>2022-03-01T17:05:43Z</time>
      </trkpt>
      <trkpt lat="39.9839370" lon="-4.5748330">
        <ele>468.7</ele>
        <time>2022-03-01T17:05:44Z</time>
      </trkpt>
      <trkpt lat="39.9838970" lon="-4.5747700">
        <ele>468.8</ele>
        <time>2022-03-01T17:05:45Z</time>
      </trkpt>
      <trkpt lat="39.9838550" lon="-4.5747130">
        <ele>469.0</ele>
        <time>2022-03-01T17:05:46Z</time>
      </trkpt>
      <trkpt lat="39.9838140" lon="-4.5746450">
        <ele>469.1</ele>
        <time>2022-03-01T17:05:47Z</time>
      </trkpt>
      <trkpt lat="39.9837720" lon="-4.5745900">
        <ele>469.2</ele>
        <time>2022-03-01T17:05:48Z</time>
      </trkpt>
      <trkpt lat="39.9837310" lon="-4.5745310">
        <ele>469.3</ele>
        <time>2022-03-01T17:05:49Z</time>
      </trkpt>
      <trkpt lat="39.9836880" lon="-4.5744780">
        <ele>469.4</ele>
        <time>2022-03-01T17:05:50Z</time>
      </trkpt>
      <trkpt lat="39.9836490" lon="-4.5744170">
        <ele>469.5</ele>
        <time>2022-03-01T17:05:51Z</time>
      </trkpt>
      <trkpt lat="39.9836110" lon="-4.5743640">
        <ele>469.6</ele>
        <time>2022-03-01T17:05:52Z</time>
      </trkpt>
      <trkpt lat="39.9835700" lon="-4.5743150">
        <ele>469.6</ele>
        <time>2022-03-01T17:05:53Z</time>
      </trkpt>
      <trkpt lat="39.9835200" lon="-4.5742560">
        <ele>469.7</ele>
        <time>2022-03-01T17:05:54Z</time>
      </trkpt>
      <trkpt lat="39.9834720" lon="-4.5742020">
        <ele>469.8</ele>
        <time>2022-03-01T17:05:55Z</time>
      </trkpt>
      <trkpt lat="39.9834280" lon="-4.5741480">
        <ele>469.9</ele>
        <time>2022-03-01T17:05:56Z</time>
      </trkpt>
      <trkpt lat="39.9833850" lon="-4.5740970">
        <ele>469.9</ele>
        <time>2022-03-01T17:05:57Z</time>
      </trkpt>
      <trkpt lat="39.9833420" lon="-4.5740450">
        <ele>470.0</ele>
        <time>2022-03-01T17:05:58Z</time>
      </trkpt>
      <trkpt lat="39.9832990" lon="-4.5739860">
        <ele>470.0</ele>
        <time>2022-03-01T17:05:59Z</time>
      </trkpt>
      <trkpt lat="39.9832580" lon="-4.5739250">
        <ele>470.0</ele>
        <time>2022-03-01T17:06:00Z</time>
      </trkpt>
      <trkpt lat="39.9832150" lon="-4.5738610">
        <ele>470.1</ele>
        <time>2022-03-01T17:06:01Z</time>
      </trkpt>
      <trkpt lat="39.9831770" lon="-4.5738070">
        <ele>470.1</ele>
        <time>2022-03-01T17:06:02Z</time>
      </trkpt>
      <trkpt lat="39.9831370" lon="-4.5737490">
        <ele>470.2</ele>
        <time>2022-03-01T17:06:03Z</time>
      </trkpt>
      <trkpt lat="39.9830960" lon="-4.5736880">
        <ele>470.3</ele>
        <time>2022-03-01T17:06:04Z</time>
      </trkpt>
      <trkpt lat="39.9830620" lon="-4.5736440">
        <ele>470.4</ele>
        <time>2022-03-01T17:06:05Z</time>
      </trkpt>
      <trkpt lat="39.9830240" lon="-4.5735970">
        <ele>470.5</ele>
        <time>2022-03-01T17:06:06Z</time>
      </trkpt>
      <trkpt lat="39.9829820" lon="-4.5735520">
        <ele>470.6</ele>
        <time>2022-03-01T17:06:07Z</time>
      </trkpt>
      <trkpt lat="39.9829460" lon="-4.5734960">
        <ele>470.7</ele>
        <time>2022-03-01T17:06:08Z</time>
      </trkpt>
      <trkpt lat="39.9829090" lon="-4.5734470">
        <ele>470.9</ele>
        <time>2022-03-01T17:06:09Z</time>
      </trkpt>
      <trkpt lat="39.9828670" lon="-4.5734010">
        <ele>471.0</ele>
        <time>2022-03-01T17:06:10Z</time>
      </trkpt>
      <trkpt lat="39.9828290" lon="-4.5733520">
        <ele>471.2</ele>
        <time>2022-03-01T17:06:11Z</time>
      </trkpt>
      <trkpt lat="39.9827920" lon="-4.5733020">
        <ele>471.3</ele>
        <time>2022-03-01T17:06:12Z</time>
      </trkpt>
      <trkpt lat="39.9827580" lon="-4.5732520">
        <ele>471.5</ele>
        <time>2022-03-01T17:06:13Z</time>
      </trkpt>
      <trkpt lat="39.9827200" lon="-4.5732070">
        <ele>471.6</ele>
        <time>2022-03-01T17:06:14Z</time>
      </trkpt>
      <trkpt lat="39.9826830" lon="-4.5731610">
        <ele>471.8</ele>
        <time>2022-03-01T17:06:15Z</time>
      </trkpt>
      <trkpt lat="39.9826490" lon="-4.5731180">
        <ele>471.9</ele>
        <time>2022-03-01T17:06:16Z</time>
      </trkpt>
      <trkpt lat="39.9826140" lon="-4.5730690">
        <ele>472.1</ele>
        <time>2022-03-01T17:06:17Z</time>
      </trkpt>
      <trkpt lat="39.9825830" lon="-4.5730140">
        <ele>472.2</ele>
        <time>2022-03-01T17:06:18Z</time>
      </trkpt>
      <trkpt lat="39.9825510" lon="-4.5729630">
        <ele>472.4</ele>
        <time>2022-03-01T17:06:19Z</time>
      </trkpt>
      <trkpt lat="39.9825170" lon="-4.5729110">
        <ele>472.5</ele>
        <time>2022-03-01T17:06:20Z</time>
      </trkpt>
      <trkpt lat="39.9824830" lon="-4.5728590">
        <ele>472.7</ele>
        <time>2022-03-01T17:06:21Z</time>
      </trkpt>
      <trkpt lat="39.9824520" lon="-4.5728090">
        <ele>472.8</ele>
        <time>2022-03-01T17:06:22Z</time>
      </trkpt>
      <trkpt lat="39.9824170" lon="-4.5727670">
        <ele>473.0</ele>
        <time>2022-03-01T17:06:23Z</time>
      </trkpt>
      <trkpt lat="39.9823830" lon="-4.5727140">
        <ele>473.2</ele>
        <time>2022-03-01T17:06:24Z</time>
      </trkpt>
      <trkpt lat="39.9823490" lon="-4.5726630">
        <ele>473.4</ele>
        <time>2022-03-01T17:06:25Z</time>
      </trkpt>
      <trkpt lat="39.9823100" lon="-4.5726020">
        <ele>473.6</ele>
        <time>2022-03-01T17:06:26Z</time>
      </trkpt>
      <trkpt lat="39.9822750" lon="-4.5725530">
        <ele>473.8</ele>
        <time>2022-03-01T17:06:27Z</time>
      </trkpt>
      <trkpt lat="39.9822420" lon="-4.5725070">
        <ele>474.0</ele>
        <time>2022-03-01T17:06:28Z</time>
      </trkpt>
      <trkpt lat="39.9822100" lon="-4.5724460">
        <ele>474.3</ele>
        <time>2022-03-01T17:06:29Z</time>
      </trkpt>
      <trkpt lat="39.9821730" lon="-4.5723890">
        <ele>474.5</ele>
        <time>2022-03-01T17:06:30Z</time>
      </trkpt>
      <trkpt lat="39.9821360" lon="-4.5723420">
        <ele>474.8</ele>
        <time>2022-03-01T17:06:31Z</time>
      </trkpt>
      <trkpt lat="39.9821010" lon="-4.5722930">
        <ele>475.0</ele>
        <time>2022-03-01T17:06:32Z</time>
      </trkpt>
      <trkpt lat="39.9820660" lon="-4.5722470">
        <ele>475.2</ele>
        <time>2022-03-01T17:06:33Z</time>
      </trkpt>
      <trkpt lat="39.9820300" lon="-4.5722050">
        <ele>475.5</ele>
        <time>2022-03-01T17:06:34Z</time>
      </trkpt>
      <trkpt lat="39.9820030" lon="-4.5721560">
        <ele>475.7</ele>
        <time>2022-03-01T17:06:35Z</time>
      </trkpt>
      <trkpt lat="39.9819680" lon="-4.5721150">
        <ele>475.8</ele>
        <time>2022-03-01T17:06:36Z</time>
      </trkpt>
      <trkpt lat="39.9819360" lon="-4.5720720">
        <ele>476.0</ele>
        <time>2022-03-01T17:06:37Z</time>
      </trkpt>
      <trkpt lat="39.9819060" lon="-4.5720250">
        <ele>476.1</ele>
        <time>2022-03-01T17:06:38Z</time>
      </trkpt>
      <trkpt lat="39.9818750" lon="-4.5719750">
        <ele>476.3</ele>
        <time>2022-03-01T17:06:39Z</time>
      </trkpt>
      <trkpt lat="39.9818420" lon="-4.5719310">
        <ele>476.4</ele>
        <time>2022-03-01T17:06:40Z</time>
      </trkpt>
      <trkpt lat="39.9818130" lon="-4.5718870">
        <ele>476.6</ele>
        <time>2022-03-01T17:06:41Z</time>
      </trkpt>
      <trkpt lat="39.9817880" lon="-4.5718500">
        <ele>476.7</ele>
        <time>2022-03-01T17:06:42Z</time>
      </trkpt>
      <trkpt lat="39.9817610" lon="-4.5718110">
        <ele>476.9</ele>
        <time>2022-03-01T17:06:43Z</time>
      </trkpt>
      <trkpt lat="39.9817310" lon="-4.5717650">
        <ele>477.0</ele>
        <time>2022-03-01T17:06:44Z</time>
      </trkpt>
      <trkpt lat="39.9817020" lon="-4.5717380">
        <ele>477.2</ele>
        <time>2022-03-01T17:06:45Z</time>
      </trkpt>
      <trkpt lat="39.9816800" lon="-4.5716950">
        <ele>477.2</ele>
        <time>2022-03-01T17:06:46Z</time>
      </trkpt>
      <trkpt lat="39.9816550" lon="-4.5716740">
        <ele>477.3</ele>
        <time>2022-03-01T17:06:47Z</time>
      </trkpt>
      <trkpt lat="39.9816260" lon="-4.5716400">
        <ele>477.3</ele>
        <time>2022-03-01T17:06:48Z</time>
      </trkpt>
      <trkpt lat="39.9815880" lon="-4.5716000">
        <ele>477.4</ele>
        <time>2022-03-01T17:06:49Z</time>
      </trkpt>
      <trkpt lat="39.9815550" lon="-4.5715510">
        <ele>477.5</ele>
        <time>2022-03-01T17:06:50Z</time>
      </trkpt>
      <trkpt lat="39.9815270" lon="-4.5715070">
        <ele>477.6</ele>
        <time>2022-03-01T17:06:51Z</time>
      </trkpt>
      <trkpt lat="39.9814950" lon="-4.5714480">
        <ele>477.7</ele>
        <time>2022-03-01T17:06:52Z</time>
      </trkpt>
      <trkpt lat="39.9814570" lon="-4.5713910">
        <ele>477.8</ele>
        <time>2022-03-01T17:06:53Z</time>
      </trkpt>
      <trkpt lat="39.9814250" lon="-4.5713280">
        <ele>477.9</ele>
        <time>2022-03-01T17:06:54Z</time>
      </trkpt>
      <trkpt lat="39.9813970" lon="-4.5712740">
        <ele>478.0</ele>
        <time>2022-03-01T17:06:55Z</time>
      </trkpt>
      <trkpt lat="39.9813660" lon="-4.5712120">
        <ele>478.0</ele>
        <time>2022-03-01T17:06:56Z</time>
      </trkpt>
      <trkpt lat="39.9813380" lon="-4.5711430">
        <ele>478.1</ele>
        <time>2022-03-01T17:06:57Z</time>
      </trkpt>
      <trkpt lat="39.9813150" lon="-4.5711010">
        <ele>478.2</ele>
        <time>2022-03-01T17:06:58Z</time>
      </trkpt>
      <trkpt lat="39.9812920" lon="-4.5710250">
        <ele>478.1</ele>
        <time>2022-03-01T17:06:59Z</time>
      </trkpt>
      <trkpt lat="39.9812610" lon="-4.5709690">
        <ele>478.1</ele>
        <time>2022-03-01T17:07:00Z</time>
      </trkpt>
      <trkpt lat="39.9812280" lon="-4.5709000">
        <ele>478.0</ele>
        <time>2022-03-01T17:07:01Z</time>
      </trkpt>
      <trkpt lat="39.9812050" lon="-4.5708330">
        <ele>477.9</ele>
        <time>2022-03-01T17:07:02Z</time>
      </trkpt>
      <trkpt lat="39.9811810" lon="-4.5707700">
        <ele>477.8</ele>
        <time>2022-03-01T17:07:03Z</time>
      </trkpt>
      <trkpt lat="39.9811610" lon="-4.5706820">
        <ele>477.7</ele>
        <time>2022-03-01T17:07:04Z</time>
      </trkpt>
      <trkpt lat="39.9811230" lon="-4.5706270">
        <ele>477.6</ele>
        <time>2022-03-01T17:07:05Z</time>
      </trkpt>
      <trkpt lat="39.9810930" lon="-4.5705600">
        <ele>477.5</ele>
        <time>2022-03-01T17:07:06Z</time>
      </trkpt>
      <trkpt lat="39.9810490" lon="-4.5705020">
        <ele>477.4</ele>
        <time>2022-03-01T17:07:07Z</time>
      </trkpt>
      <trkpt lat="39.9810100" lon="-4.5704430">
        <ele>477.3</ele>
        <time>2022-03-01T17:07:08Z</time>
      </trkpt>
      <trkpt lat="39.9809800" lon="-4.5703740">
        <ele>477.3</ele>
        <time>2022-03-01T17:07:09Z</time>
      </trkpt>
      <trkpt lat="39.9809520" lon="-4.5703130">
        <ele>477.2</ele>
        <time>2022-03-01T17:07:10Z</time>
      </trkpt>
      <trkpt lat="39.9809210" lon="-4.5702400">
        <ele>477.2</ele>
        <time>2022-03-01T17:07:11Z</time>
      </trkpt>
      <trkpt lat="39.9808890" lon="-4.5701700">
        <ele>477.2</ele>
        <time>2022-03-01T17:07:12Z</time>
      </trkpt>
      <trkpt lat="39.9808650" lon="-4.5700980">
        <ele>477.1</ele>
        <time>2022-03-01T17:07:13Z</time>
      </trkpt>
      <trkpt lat="39.9808400" lon="-4.5700300">
        <ele>477.1</ele>
        <time>2022-03-01T17:07:14Z</time>
      </trkpt>
      <trkpt lat="39.9808110" lon="-4.5699590">
        <ele>477.1</ele>
        <time>2022-03-01T17:07:15Z</time>
      </trkpt>
      <trkpt lat="39.9807770" lon="-4.5698900">
        <ele>477.1</ele>
        <time>2022-03-01T17:07:16Z</time>
      </trkpt>
      <trkpt lat="39.9807510" lon="-4.5698220">
        <ele>477.1</ele>
        <time>2022-03-01T17:07:17Z</time>
      </trkpt>
      <trkpt lat="39.9807260" lon="-4.5697530">
        <ele>477.1</ele>
        <time>2022-03-01T17:07:18Z</time>
      </trkpt>
      <trkpt lat="39.9806970" lon="-4.5696970">
        <ele>477.2</ele>
        <time>2022-03-01T17:07:19Z</time>
      </trkpt>
      <trkpt lat="39.9806660" lon="-4.5696460">
        <ele>477.2</ele>
        <time>2022-03-01T17:07:20Z</time>
      </trkpt>
      <trkpt lat="39.9806370" lon="-4.5695790">
        <ele>477.3</ele>
        <time>2022-03-01T17:07:21Z</time>
      </trkpt>
      <trkpt lat="39.9806120" lon="-4.5695050">
        <ele>477.4</ele>
        <time>2022-03-01T17:07:22Z</time>
      </trkpt>
      <trkpt lat="39.9805810" lon="-4.5694450">
        <ele>477.5</ele>
        <time>2022-03-01T17:07:23Z</time>
      </trkpt>
      <trkpt lat="39.9805530" lon="-4.5693860">
        <ele>477.6</ele>
        <time>2022-03-01T17:07:24Z</time>
      </trkpt>
      <trkpt lat="39.9805280" lon="-4.5693120">
        <ele>477.7</ele>
        <time>2022-03-01T17:07:25Z</time>
      </trkpt>
      <trkpt lat="39.9804960" lon="-4.5692400">
        <ele>477.8</ele>
        <time>2022-03-01T17:07:26Z</time>
      </trkpt>
      <trkpt lat="39.9804630" lon="-4.5691800">
        <ele>477.9</ele>
        <time>2022-03-01T17:07:27Z</time>
      </trkpt>
      <trkpt lat="39.9804330" lon="-4.5691060">
        <ele>478.0</ele>
        <time>2022-03-01T17:07:28Z</time>
      </trkpt>
      <trkpt lat="39.9804000" lon="-4.5690380">
        <ele>478.1</ele>
        <time>2022-03-01T17:07:29Z</time>
      </trkpt>
      <trkpt lat="39.9803700" lon="-4.5689650">
        <ele>478.2</ele>
        <time>2022-03-01T17:07:30Z</time>
      </trkpt>
      <trkpt lat="39.9803370" lon="-4.5688960">
        <ele>478.3</ele>
        <time>2022-03-01T17:07:31Z</time>
      </trkpt>
      <trkpt lat="39.9803050" lon="-4.5688270">
        <ele>478.4</ele>
        <time>2022-03-01T17:07:32Z</time>
      </trkpt>
      <trkpt lat="39.9802690" lon="-4.5687580">
        <ele>478.5</ele>
        <time>2022-03-01T17:07:33Z</time>
      </trkpt>
      <trkpt lat="39.9802330" lon="-4.5686790">
        <ele>478.5</ele>
        <time>2022-03-01T17:07:34Z</time>
      </trkpt>
      <trkpt lat="39.9801990" lon="-4.5686110">
        <ele>478.6</ele>
        <time>2022-03-01T17:07:35Z</time>
      </trkpt>
      <trkpt lat="39.9801540" lon="-4.5685310">
        <ele>478.7</ele>
        <time>2022-03-01T17:07:36Z</time>
      </trkpt>
      <trkpt lat="39.9801180" lon="-4.5684660">
        <ele>478.8</ele>
        <time>2022-03-01T17:07:37Z</time>
      </trkpt>
      <trkpt lat="39.9800840" lon="-4.5683820">
        <ele>478.9</ele>
        <time>2022-03-01T17:07:38Z</time>
      </trkpt>
      <trkpt lat="39.9800520" lon="-4.5683030">
        <ele>479.0</ele>
        <time>2022-03-01T17:07:39Z</time>
      </trkpt>
      <trkpt lat="39.9800150" lon="-4.5682240">
        <ele>479.1</ele>
        <time>2022-03-01T17:07:40Z</time>
      </trkpt>
      <trkpt lat="39.9799730" lon="-4.5681460">
        <ele>479.2</ele>
        <time>2022-03-01T17:07:41Z</time>
      </trkpt>
      <trkpt lat="39.9799420" lon="-4.5680780">
        <ele>479.3</ele>
        <time>2022-03-01T17:07:42Z</time>
      </trkpt>
      <trkpt lat="39.9799040" lon="-4.5679980">
        <ele>479.4</ele>
        <time>2022-03-01T17:07:43Z</time>
      </trkpt>
      <trkpt lat="39.9798720" lon="-4.5679210">
        <ele>479.5</ele>
        <time>2022-03-01T17:07:44Z</time>
      </trkpt>
      <trkpt lat="39.9798320" lon="-4.5678350">
        <ele>479.6</ele>
        <time>2022-03-01T17:07:45Z</time>
      </trkpt>
      <trkpt lat="39.9798000" lon="-4.5677570">
        <ele>479.7</ele>
        <time>2022-03-01T17:07:46Z</time>
      </trkpt>
      <trkpt lat="39.9797580" lon="-4.5676750">
        <ele>479.8</ele>
        <time>2022-03-01T17:07:47Z</time>
      </trkpt>
      <trkpt lat="39.9797240" lon="-4.5675970">
        <ele>479.9</ele>
        <time>2022-03-01T17:07:48Z</time>
      </trkpt>
      <trkpt lat="39.9796910" lon="-4.5675230">
        <ele>480.0</ele>
        <time>2022-03-01T17:07:49Z</time>
      </trkpt>
      <trkpt lat="39.9796580" lon="-4.5674350">
        <ele>480.1</ele>
        <time>2022-03-01T17:07:50Z</time>
      </trkpt>
      <trkpt lat="39.9796190" lon="-4.5673520">
        <ele>480.2</ele>
        <time>2022-03-01T17:07:51Z</time>
      </trkpt>
      <trkpt lat="39.9795850" lon="-4.5672740">
        <ele>480.4</ele>
        <time>2022-03-01T17:07:52Z</time>
      </trkpt>
      <trkpt lat="39.9795480" lon="-4.5671920">
        <ele>480.5</ele>
        <time>2022-03-01T17:07:53Z</time>
      </trkpt>
      <trkpt lat="39.9795080" lon="-4.5671220">
        <ele>480.6</ele>
        <time>2022-03-01T17:07:54Z</time>
      </trkpt>
      <trkpt lat="39.9794730" lon="-4.5670340">
        <ele>480.7</ele>
        <time>2022-03-01T17:07:55Z</time>
      </trkpt>
      <trkpt lat="39.9794400" lon="-4.5669500">
        <ele>480.9</ele>
        <time>2022-03-01T17:07:56Z</time>
      </trkpt>
      <trkpt lat="39.9794070" lon="-4.5668730">
        <ele>481.0</ele>
        <time>2022-03-01T17:07:57Z</time>
      </trkpt>
      <trkpt lat="39.9793660" lon="-4.5667950">
        <ele>481.1</ele>
        <time>2022-03-01T17:07:58Z</time>
      </trkpt>
      <trkpt lat="39.9793310" lon="-4.5667250">
        <ele>481.2</ele>
        <time>2022-03-01T17:07:59Z</time>
      </trkpt>
      <trkpt lat="39.9792950" lon="-4.5666420">
        <ele>481.4</ele>
        <time>2022-03-01T17:08:00Z</time>
      </trkpt>
      <trkpt lat="39.9792600" lon="-4.5665650">
        <ele>481.5</ele>
        <time>2022-03-01T17:08:01Z</time>
      </trkpt>
      <trkpt lat="39.9792260" lon="-4.5664900">
        <ele>481.7</ele>
        <time>2022-03-01T17:08:02Z</time>
      </trkpt>
      <trkpt lat="39.9791850" lon="-4.5664120">
        <ele>481.8</ele>
        <time>2022-03-01T17:08:03Z</time>
      </trkpt>
      <trkpt lat="39.9791510" lon="-4.5663280">
        <ele>481.9</ele>
        <time>2022-03-01T17:08:04Z</time>
      </trkpt>
      <trkpt lat="39.9791160" lon="-4.5662480">
        <ele>482.1</ele>
        <time>2022-03-01T17:08:05Z</time>
      </trkpt>
      <trkpt lat="39.9790780" lon="-4.5661650">
        <ele>482.2</ele>
        <time>2022-03-01T17:08:06Z</time>
      </trkpt>
      <trkpt lat="39.9790390" lon="-4.5660890">
        <ele>482.3</ele>
        <time>2022-03-01T17:08:07Z</time>
      </trkpt>
      <trkpt lat="39.9790010" lon="-4.5660070">
        <ele>482.4</ele>
        <time>2022-03-01T17:08:08Z</time>
      </trkpt>
      <trkpt lat="39.9789650" lon="-4.5659330">
        <ele>482.5</ele>
        <time>2022-03-01T17:08:09Z</time>
      </trkpt>
      <trkpt lat="39.9789300" lon="-4.5658520">
        <ele>482.6</ele>
        <time>2022-03-01T17:08:10Z</time>
      </trkpt>
      <trkpt lat="39.9788890" lon="-4.5657780">
        <ele>482.8</ele>
        <time>2022-03-01T17:08:11Z</time>
      </trkpt>
      <trkpt lat="39.9788500" lon="-4.5657000">
        <ele>482.9</ele>
        <time>2022-03-01T17:08:12Z</time>
      </trkpt>
      <trkpt lat="39.9788170" lon="-4.5656260">
        <ele>483.0</ele>
        <time>2022-03-01T17:08:13Z</time>
      </trkpt>
      <trkpt lat="39.9787800" lon="-4.5655420">
        <ele>483.1</ele>
        <time>2022-03-01T17:08:14Z</time>
      </trkpt>
      <trkpt lat="39.9787430" lon="-4.5654710">
        <ele>483.2</ele>
        <time>2022-03-01T17:08:15Z</time>
      </trkpt>
      <trkpt lat="39.9787050" lon="-4.5653920">
        <ele>483.3</ele>
        <time>2022-03-01T17:08:16Z</time>
      </trkpt>
      <trkpt lat="39.9786680" lon="-4.5653190">
        <ele>483.4</ele>
        <time>2022-03-01T17:08:17Z</time>
      </trkpt>
      <trkpt lat="39.9786290" lon="-4.5652360">
        <ele>483.6</ele>
        <time>2022-03-01T17:08:18Z</time>
      </trkpt>
      <trkpt lat="39.9785950" lon="-4.5651600">
        <ele>483.7</ele>
        <time>2022-03-01T17:08:19Z</time>
      </trkpt>
      <trkpt lat="39.9785600" lon="-4.5650900">
        <ele>483.8</ele>
        <time>2022-03-01T17:08:20Z</time>
      </trkpt>
      <trkpt lat="39.9785230" lon="-4.5650120">
        <ele>483.9</ele>
        <time>2022-03-01T17:08:21Z</time>
      </trkpt>
      <trkpt lat="39.9784870" lon="-4.5649360">
        <ele>484.0</ele>
        <time>2022-03-01T17:08:22Z</time>
      </trkpt>
      <trkpt lat="39.9784510" lon="-4.5648560">
        <ele>484.1</ele>
        <time>2022-03-01T17:08:23Z</time>
      </trkpt>
      <trkpt lat="39.9784160" lon="-4.5647760">
        <ele>484.3</ele>
        <time>2022-03-01T17:08:24Z</time>
      </trkpt>
      <trkpt lat="39.9783790" lon="-4.5646990">
        <ele>484.4</ele>
        <time>2022-03-01T17:08:25Z</time>
      </trkpt>
      <trkpt lat="39.9783430" lon="-4.5646250">
        <ele>484.5</ele>
        <time>2022-03-01T17:08:26Z</time>
      </trkpt>
      <trkpt lat="39.9783080" lon="-4.5645440">
        <ele>484.6</ele>
        <time>2022-03-01T17:08:27Z</time>
      </trkpt>
      <trkpt lat="39.9782710" lon="-4.5644660">
        <ele>484.7</ele>
        <time>2022-03-01T17:08:28Z</time>
      </trkpt>
      <trkpt lat="39.9782360" lon="-4.5643910">
        <ele>484.8</ele>
        <time>2022-03-01T17:08:29Z</time>
      </trkpt>
      <trkpt lat="39.9781970" lon="-4.5643170">
        <ele>484.9</ele>
        <time>2022-03-01T17:08:30Z</time>
      </trkpt>
      <trkpt lat="39.9781660" lon="-4.5642360">
        <ele>484.9</ele>
        <time>2022-03-01T17:08:31Z</time>
      </trkpt>
      <trkpt lat="39.9781300" lon="-4.5641540">
        <ele>485.1</ele>
        <time>2022-03-01T17:08:32Z</time>
      </trkpt>
      <trkpt lat="39.9780920" lon="-4.5640740">
        <ele>485.2</ele>
        <time>2022-03-01T17:08:33Z</time>
      </trkpt>
      <trkpt lat="39.9780590" lon="-4.5640030">
        <ele>485.3</ele>
        <time>2022-03-01T17:08:34Z</time>
      </trkpt>
      <trkpt lat="39.9780260" lon="-4.5639210">
        <ele>485.4</ele>
        <time>2022-03-01T17:08:35Z</time>
      </trkpt>
      <trkpt lat="39.9779900" lon="-4.5638390">
        <ele>485.5</ele>
        <time>2022-03-01T17:08:36Z</time>
      </trkpt>
      <trkpt lat="39.9779540" lon="-4.5637670">
        <ele>485.5</ele>
        <time>2022-03-01T17:08:37Z</time>
      </trkpt>
      <trkpt lat="39.9779170" lon="-4.5636890">
        <ele>485.6</ele>
        <time>2022-03-01T17:08:38Z</time>
      </trkpt>
      <trkpt lat="39.9778810" lon="-4.5636100">
        <ele>485.6</ele>
        <time>2022-03-01T17:08:39Z</time>
      </trkpt>
      <trkpt lat="39.9778460" lon="-4.5635330">
        <ele>485.7</ele>
        <time>2022-03-01T17:08:40Z</time>
      </trkpt>
      <trkpt lat="39.9778080" lon="-4.5634560">
        <ele>485.7</ele>
        <time>2022-03-01T17:08:41Z</time>
      </trkpt>
      <trkpt lat="39.9777650" lon="-4.5633790">
        <ele>485.8</ele>
        <time>2022-03-01T17:08:42Z</time>
      </trkpt>
      <trkpt lat="39.9777290" lon="-4.5632870">
        <ele>485.8</ele>
        <time>2022-03-01T17:08:43Z</time>
      </trkpt>
      <trkpt lat="39.9776980" lon="-4.5632170">
        <ele>485.9</ele>
        <time>2022-03-01T17:08:44Z</time>
      </trkpt>
      <trkpt lat="39.9776560" lon="-4.5631340">
        <ele>485.9</ele>
        <time>2022-03-01T17:08:45Z</time>
      </trkpt>
      <trkpt lat="39.9776170" lon="-4.5630560">
        <ele>485.9</ele>
        <time>2022-03-01T17:08:46Z</time>
      </trkpt>
      <trkpt lat="39.9775790" lon="-4.5629730">
        <ele>485.9</ele>
        <time>2022-03-01T17:08:47Z</time>
      </trkpt>
      <trkpt lat="39.9775400" lon="-4.5628930">
        <ele>485.9</ele>
        <time>2022-03-01T17:08:48Z</time>
      </trkpt>
      <trkpt lat="39.9775010" lon="-4.5628130">
        <ele>485.9</ele>
        <time>2022-03-01T17:08:49Z</time>
      </trkpt>
      <trkpt lat="39.9774590" lon="-4.5627310">
        <ele>485.9</ele>
        <time>2022-03-01T17:08:50Z</time>
      </trkpt>
      <trkpt lat="39.9774090" lon="-4.5626580">
        <ele>485.9</ele>
        <time>2022-03-01T17:08:51Z</time>
      </trkpt>
      <trkpt lat="39.9773600" lon="-4.5625790">
        <ele>485.8</ele>
        <time>2022-03-01T17:08:52Z</time>
      </trkpt>
      <trkpt lat="39.9773150" lon="-4.5625110">
        <ele>485.8</ele>
        <time>2022-03-01T17:08:53Z</time>
      </trkpt>
      <trkpt lat="39.9772670" lon="-4.5624310">
        <ele>485.7</ele>
        <time>2022-03-01T17:08:54Z</time>
      </trkpt>
      <trkpt lat="39.9772190" lon="-4.5623550">
        <ele>485.6</ele>
        <time>2022-03-01T17:08:55Z</time>
      </trkpt>
      <trkpt lat="39.9771630" lon="-4.5622880">
        <ele>485.5</ele>
        <time>2022-03-01T17:08:56Z</time>
      </trkpt>
      <trkpt lat="39.9771040" lon="-4.5622170">
        <ele>485.3</ele>
        <time>2022-03-01T17:08:57Z</time>
      </trkpt>
      <trkpt lat="39.9770440" lon="-4.5621480">
        <ele>485.2</ele>
        <time>2022-03-01T17:08:58Z</time>
      </trkpt>
      <trkpt lat="39.9769820" lon="-4.5620830">
        <ele>485.1</ele>
        <time>2022-03-01T17:08:59Z</time>
      </trkpt>
      <trkpt lat="39.9769190" lon="-4.5620170">
        <ele>484.9</ele>
        <time>2022-03-01T17:09:00Z</time>
      </trkpt>
      <trkpt lat="39.9768540" lon="-4.5619560">
        <ele>484.7</ele>
        <time>2022-03-01T17:09:01Z</time>
      </trkpt>
      <trkpt lat="39.9767880" lon="-4.5618960">
        <ele>484.6</ele>
        <time>2022-03-01T17:09:02Z</time>
      </trkpt>
      <trkpt lat="39.9767200" lon="-4.5618460">
        <ele>484.4</ele>
        <time>2022-03-01T17:09:03Z</time>
      </trkpt>
      <trkpt lat="39.9766480" lon="-4.5617910">
        <ele>484.2</ele>
        <time>2022-03-01T17:09:04Z</time>
      </trkpt>
      <trkpt lat="39.9765760" lon="-4.5617340">
        <ele>483.9</ele>
        <time>2022-03-01T17:09:05Z</time>
      </trkpt>
      <trkpt lat="39.9765080" lon="-4.5616840">
        <ele>483.7</ele>
        <time>2022-03-01T17:09:06Z</time>
      </trkpt>
      <trkpt lat="39.9764390" lon="-4.5616370">
        <ele>483.5</ele>
        <time>2022-03-01T17:09:07Z</time>
      </trkpt>
      <trkpt lat="39.9763680" lon="-4.5615870">
        <ele>483.2</ele>
        <time>2022-03-01T17:09:08Z</time>
      </trkpt>
      <trkpt lat="39.9762960" lon="-4.5615400">
        <ele>483.0</ele>
        <time>2022-03-01T17:09:09Z</time>
      </trkpt>
      <trkpt lat="39.9762190" lon="-4.5614900">
        <ele>482.7</ele>
        <time>2022-03-01T17:09:10Z</time>
      </trkpt>
      <trkpt lat="39.9761460" lon="-4.5614380">
        <ele>482.4</ele>
        <time>2022-03-01T17:09:11Z</time>
      </trkpt>
      <trkpt lat="39.9760690" lon="-4.5613850">
        <ele>482.1</ele>
        <time>2022-03-01T17:09:12Z</time>
      </trkpt>
      <trkpt lat="39.9759850" lon="-4.5613290">
        <ele>481.7</ele>
        <time>2022-03-01T17:09:13Z</time>
      </trkpt>
      <trkpt lat="39.9759050" lon="-4.5612740">
        <ele>481.4</ele>
        <time>2022-03-01T17:09:14Z</time>
      </trkpt>
      <trkpt lat="39.9758250" lon="-4.5612230">
        <ele>481.1</ele>
        <time>2022-03-01T17:09:15Z</time>
      </trkpt>
      <trkpt lat="39.9757430" lon="-4.5611680">
        <ele>480.7</ele>
        <time>2022-03-01T17:09:16Z</time>
      </trkpt>
      <trkpt lat="39.9756570" lon="-4.5611120">
        <ele>480.4</ele>
        <time>2022-03-01T17:09:17Z</time>
      </trkpt>
      <trkpt lat="39.9755710" lon="-4.5610550">
        <ele>480.0</ele>
        <time>2022-03-01T17:09:18Z</time>
      </trkpt>
      <trkpt lat="39.9754860" lon="-4.5610000">
        <ele>479.7</ele>
        <time>2022-03-01T17:09:19Z</time>
      </trkpt>
      <trkpt lat="39.9754000" lon="-4.5609460">
        <ele>479.3</ele>
        <time>2022-03-01T17:09:20Z</time>
      </trkpt>
      <trkpt lat="39.9753150" lon="-4.5608930">
        <ele>479.0</ele>
        <time>2022-03-01T17:09:21Z</time>
      </trkpt>
      <trkpt lat="39.9752290" lon="-4.5608360">
        <ele>478.7</ele>
        <time>2022-03-01T17:09:22Z</time>
      </trkpt>
      <trkpt lat="39.9751430" lon="-4.5607910">
        <ele>478.4</ele>
        <time>2022-03-01T17:09:23Z</time>
      </trkpt>
      <trkpt lat="39.9750620" lon="-4.5607330">
        <ele>478.1</ele>
        <time>2022-03-01T17:09:24Z</time>
      </trkpt>
      <trkpt lat="39.9749790" lon="-4.5606790">
        <ele>477.8</ele>
        <time>2022-03-01T17:09:25Z</time>
      </trkpt>
      <trkpt lat="39.9748950" lon="-4.5606240">
        <ele>477.5</ele>
        <time>2022-03-01T17:09:26Z</time>
      </trkpt>
      <trkpt lat="39.9748120" lon="-4.5605700">
        <ele>477.2</ele>
        <time>2022-03-01T17:09:27Z</time>
      </trkpt>
      <trkpt lat="39.9747280" lon="-4.5605140">
        <ele>476.9</ele>
        <time>2022-03-01T17:09:28Z</time>
      </trkpt>
      <trkpt lat="39.9746480" lon="-4.5604610">
        <ele>476.7</ele>
        <time>2022-03-01T17:09:29Z</time>
      </trkpt>
      <trkpt lat="39.9745660" lon="-4.5604150">
        <ele>476.4</ele>
        <time>2022-03-01T17:09:30Z</time>
      </trkpt>
      <trkpt lat="39.9744860" lon="-4.5603620">
        <ele>476.2</ele>
        <time>2022-03-01T17:09:31Z</time>
      </trkpt>
      <trkpt lat="39.9744120" lon="-4.5603200">
        <ele>476.0</ele>
        <time>2022-03-01T17:09:32Z</time>
      </trkpt>
      <trkpt lat="39.9743290" lon="-4.5602610">
        <ele>475.8</ele>
        <time>2022-03-01T17:09:33Z</time>
      </trkpt>
      <trkpt lat="39.9742600" lon="-4.5602230">
        <ele>475.6</ele>
        <time>2022-03-01T17:09:34Z</time>
      </trkpt>
      <trkpt lat="39.9741770" lon="-4.5601690">
        <ele>475.4</ele>
        <time>2022-03-01T17:09:35Z</time>
      </trkpt>
      <trkpt lat="39.9741100" lon="-4.5601330">
        <ele>475.3</ele>
        <time>2022-03-01T17:09:36Z</time>
      </trkpt>
      <trkpt lat="39.9740330" lon="-4.5600820">
        <ele>475.1</ele>
        <time>2022-03-01T17:09:37Z</time>
      </trkpt>
      <trkpt lat="39.9739540" lon="-4.5600310">
        <ele>475.0</ele>
        <time>2022-03-01T17:09:38Z</time>
      </trkpt>
      <trkpt lat="39.9738790" lon="-4.5599860">
        <ele>474.9</ele>
        <time>2022-03-01T17:09:39Z</time>
      </trkpt>
      <trkpt lat="39.9738010" lon="-4.5599360">
        <ele>474.8</ele>
        <time>2022-03-01T17:09:40Z</time>
      </trkpt>
      <trkpt lat="39.9737200" lon="-4.5598800">
        <ele>474.7</ele>
        <time>2022-03-01T17:09:41Z</time>
      </trkpt>
      <trkpt lat="39.9736470" lon="-4.5598290">
        <ele>474.6</ele>
        <time>2022-03-01T17:09:42Z</time>
      </trkpt>
      <trkpt lat="39.9735710" lon="-4.5597840">
        <ele>474.6</ele>
        <time>2022-03-01T17:09:43Z</time>
      </trkpt>
      <trkpt lat="39.9734940" lon="-4.5597360">
        <ele>474.5</ele>
        <time>2022-03-01T17:09:44Z</time>
      </trkpt>
      <trkpt lat="39.9734210" lon="-4.5596910">
        <ele>474.5</ele>
        <time>2022-03-01T17:09:45Z</time>
      </trkpt>
      <trkpt lat="39.9733460" lon="-4.5596410">
        <ele>474.4</ele>
        <time>2022-03-01T17:09:46Z</time>
      </trkpt>
      <trkpt lat="39.9732720" lon="-4.5595940">
        <ele>474.4</ele>
        <time>2022-03-01T17:09:47Z</time>
      </trkpt>
      <trkpt lat="39.9731980" lon="-4.5595450">
        <ele>474.4</ele>
        <time>2022-03-01T17:09:48Z</time>
      </trkpt>
      <trkpt lat="39.9731230" lon="-4.5594970">
        <ele>474.4</ele>
        <time>2022-03-01T17:09:49Z</time>
      </trkpt>
      <trkpt lat="39.9730520" lon="-4.5594510">
        <ele>474.4</ele>
        <time>2022-03-01T17:09:50Z</time>
      </trkpt>
      <trkpt lat="39.9729800" lon="-4.5594060">
        <ele>474.4</ele>
        <time>2022-03-01T17:09:51Z</time>
      </trkpt>
      <trkpt lat="39.9729100" lon="-4.5593600">
        <ele>474.4</ele>
        <time>2022-03-01T17:09:52Z</time>
      </trkpt>
      <trkpt lat="39.9728420" lon="-4.5593160">
        <ele>474.5</ele>
        <time>2022-03-01T17:09:53Z</time>
      </trkpt>
      <trkpt lat="39.9727720" lon="-4.5592700">
        <ele>474.5</ele>
        <time>2022-03-01T17:09:54Z</time>
      </trkpt>
      <trkpt lat="39.9727030" lon="-4.5592260">
        <ele>474.6</ele>
        <time>2022-03-01T17:09:55Z</time>
      </trkpt>
      <trkpt lat="39.9726350" lon="-4.5591860">
        <ele>474.7</ele>
        <time>2022-03-01T17:09:56Z</time>
      </trkpt>
      <trkpt lat="39.9725700" lon="-4.5591450">
        <ele>474.7</ele>
        <time>2022-03-01T17:09:57Z</time>
      </trkpt>
      <trkpt lat="39.9725050" lon="-4.5591000">
        <ele>474.8</ele>
        <time>2022-03-01T17:09:58Z</time>
      </trkpt>
      <trkpt lat="39.9724380" lon="-4.5590600">
        <ele>474.9</ele>
        <time>2022-03-01T17:09:59Z</time>
      </trkpt>
      <trkpt lat="39.9723720" lon="-4.5590190">
        <ele>475.0</ele>
        <time>2022-03-01T17:10:00Z</time>
      </trkpt>
      <trkpt lat="39.9723070" lon="-4.5589750">
        <ele>475.1</ele>
        <time>2022-03-01T17:10:01Z</time>
      </trkpt>
      <trkpt lat="39.9722440" lon="-4.5589330">
        <ele>475.2</ele>
        <time>2022-03-01T17:10:02Z</time>
      </trkpt>
      <trkpt lat="39.9721810" lon="-4.5588910">
        <ele>475.4</ele>
        <time>2022-03-01T17:10:03Z</time>
      </trkpt>
      <trkpt lat="39.9721220" lon="-4.5588560">
        <ele>475.5</ele>
        <time>2022-03-01T17:10:04Z</time>
      </trkpt>
      <trkpt lat="39.9720600" lon="-4.5588130">
        <ele>475.6</ele>
        <time>2022-03-01T17:10:05Z</time>
      </trkpt>
      <trkpt lat="39.9719990" lon="-4.5587730">
        <ele>475.8</ele>
        <time>2022-03-01T17:10:06Z</time>
      </trkpt>
      <trkpt lat="39.9719390" lon="-4.5587340">
        <ele>475.9</ele>
        <time>2022-03-01T17:10:07Z</time>
      </trkpt>
      <trkpt lat="39.9718810" lon="-4.5586950">
        <ele>476.1</ele>
        <time>2022-03-01T17:10:08Z</time>
      </trkpt>
      <trkpt lat="39.9718190" lon="-4.5586550">
        <ele>476.2</ele>
        <time>2022-03-01T17:10:09Z</time>
      </trkpt>
      <trkpt lat="39.9717620" lon="-4.5586160">
        <ele>476.4</ele>
        <time>2022-03-01T17:10:10Z</time>
      </trkpt>
      <trkpt lat="39.9717030" lon="-4.5585800">
        <ele>476.6</ele>
        <time>2022-03-01T17:10:11Z</time>
      </trkpt>
      <trkpt lat="39.9716360" lon="-4.5585540">
        <ele>476.7</ele>
        <time>2022-03-01T17:10:12Z</time>
      </trkpt>
      <trkpt lat="39.9715760" lon="-4.5585130">
        <ele>476.9</ele>
        <time>2022-03-01T17:10:13Z</time>
      </trkpt>
      <trkpt lat="39.9715180" lon="-4.5584770">
        <ele>477.1</ele>
        <time>2022-03-01T17:10:14Z</time>
      </trkpt>
      <trkpt lat="39.9714630" lon="-4.5584430">
        <ele>477.3</ele>
        <time>2022-03-01T17:10:15Z</time>
      </trkpt>
      <trkpt lat="39.9714070" lon="-4.5584070">
        <ele>477.5</ele>
        <time>2022-03-01T17:10:16Z</time>
      </trkpt>
      <trkpt lat="39.9713490" lon="-4.5583700">
        <ele>477.7</ele>
        <time>2022-03-01T17:10:17Z</time>
      </trkpt>
      <trkpt lat="39.9712990" lon="-4.5583380">
        <ele>477.9</ele>
        <time>2022-03-01T17:10:18Z</time>
      </trkpt>
      <trkpt lat="39.9712440" lon="-4.5583040">
        <ele>478.1</ele>
        <time>2022-03-01T17:10:19Z</time>
      </trkpt>
      <trkpt lat="39.9711910" lon="-4.5582670">
        <ele>478.3</ele>
        <time>2022-03-01T17:10:20Z</time>
      </trkpt>
      <trkpt lat="39.9711370" lon="-4.5582330">
        <ele>478.5</ele>
        <time>2022-03-01T17:10:21Z</time>
      </trkpt>
      <trkpt lat="39.9710850" lon="-4.5582030">
        <ele>478.7</ele>
        <time>2022-03-01T17:10:22Z</time>
      </trkpt>
      <trkpt lat="39.9710370" lon="-4.5581720">
        <ele>478.8</ele>
        <time>2022-03-01T17:10:23Z</time>
      </trkpt>
      <trkpt lat="39.9709870" lon="-4.5581460">
        <ele>479.0</ele>
        <time>2022-03-01T17:10:24Z</time>
      </trkpt>
      <trkpt lat="39.9709420" lon="-4.5581220">
        <ele>479.1</ele>
        <time>2022-03-01T17:10:25Z</time>
      </trkpt>
      <trkpt lat="39.9708900" lon="-4.5580820">
        <ele>479.3</ele>
        <time>2022-03-01T17:10:26Z</time>
      </trkpt>
      <trkpt lat="39.9708430" lon="-4.5580500">
        <ele>479.5</ele>
        <time>2022-03-01T17:10:27Z</time>
      </trkpt>
      <trkpt lat="39.9707930" lon="-4.5580170">
        <ele>479.7</ele>
        <time>2022-03-01T17:10:28Z</time>
      </trkpt>
      <trkpt lat="39.9707510" lon="-4.5579850">
        <ele>479.9</ele>
        <time>2022-03-01T17:10:29Z</time>
      </trkpt>
      <trkpt lat="39.9707020" lon="-4.5579580">
        <ele>480.2</ele>
        <time>2022-03-01T17:10:30Z</time>
      </trkpt>
      <trkpt lat="39.9706600" lon="-4.5579360">
        <ele>480.3</ele>
        <time>2022-03-01T17:10:31Z</time>
      </trkpt>
      <trkpt lat="39.9706170" lon="-4.5579060">
        <ele>480.5</ele>
        <time>2022-03-01T17:10:32Z</time>
      </trkpt>
      <trkpt lat="39.9705790" lon="-4.5578790">
        <ele>480.7</ele>
        <time>2022-03-01T17:10:33Z</time>
      </trkpt>
      <trkpt lat="39.9705340" lon="-4.5578470">
        <ele>480.9</ele>
        <time>2022-03-01T17:10:34Z</time>
      </trkpt>
      <trkpt lat="39.9704860" lon="-4.5578210">
        <ele>481.1</ele>
        <time>2022-03-01T17:10:35Z</time>
      </trkpt>
      <trkpt lat="39.9704460" lon="-4.5578000">
        <ele>481.2</ele>
        <time>2022-03-01T17:10:36Z</time>
      </trkpt>
      <trkpt lat="39.9704010" lon="-4.5577730">
        <ele>481.4</ele>
        <time>2022-03-01T17:10:37Z</time>
      </trkpt>
      <trkpt lat="39.9703610" lon="-4.5577500">
        <ele>481.6</ele>
        <time>2022-03-01T17:10:38Z</time>
      </trkpt>
      <trkpt lat="39.9703120" lon="-4.5577320">
        <ele>481.8</ele>
        <time>2022-03-01T17:10:39Z</time>
      </trkpt>
      <trkpt lat="39.9702680" lon="-4.5577040">
        <ele>482.0</ele>
        <time>2022-03-01T17:10:40Z</time>
      </trkpt>
      <trkpt lat="39.9702210" lon="-4.5576820">
        <ele>482.2</ele>
        <time>2022-03-01T17:10:41Z</time>
      </trkpt>
      <trkpt lat="39.9701750" lon="-4.5576590">
        <ele>482.4</ele>
        <time>2022-03-01T17:10:42Z</time>
      </trkpt>
      <trkpt lat="39.9701270" lon="-4.5576420">
        <ele>482.6</ele>
        <time>2022-03-01T17:10:43Z</time>
      </trkpt>
      <trkpt lat="39.9700720" lon="-4.5576170">
        <ele>482.9</ele>
        <time>2022-03-01T17:10:44Z</time>
      </trkpt>
      <trkpt lat="39.9700210" lon="-4.5575980">
        <ele>483.1</ele>
        <time>2022-03-01T17:10:45Z</time>
      </trkpt>
      <trkpt lat="39.9699670" lon="-4.5575770">
        <ele>483.4</ele>
        <time>2022-03-01T17:10:46Z</time>
      </trkpt>
      <trkpt lat="39.9699140" lon="-4.5575640">
        <ele>483.6</ele>
        <time>2022-03-01T17:10:47Z</time>
      </trkpt>
      <trkpt lat="39.9698640" lon="-4.5575480">
        <ele>483.8</ele>
        <time>2022-03-01T17:10:48Z</time>
      </trkpt>
      <trkpt lat="39.9698170" lon="-4.5575350">
        <ele>484.1</ele>
        <time>2022-03-01T17:10:49Z</time>
      </trkpt>
      <trkpt lat="39.9697720" lon="-4.5575250">
        <ele>484.3</ele>
        <time>2022-03-01T17:10:50Z</time>
      </trkpt>
      <trkpt lat="39.9697270" lon="-4.5575170">
        <ele>484.5</ele>
        <time>2022-03-01T17:10:51Z</time>
      </trkpt>
      <trkpt lat="39.9696730" lon="-4.5575100">
        <ele>484.8</ele>
        <time>2022-03-01T17:10:52Z</time>
      </trkpt>
      <trkpt lat="39.9696230" lon="-4.5575110">
        <ele>485.0</ele>
        <time>2022-03-01T17:10:53Z</time>
      </trkpt>
      <trkpt lat="39.9695710" lon="-4.5575050">
        <ele>485.3</ele>
        <time>2022-03-01T17:10:54Z</time>
      </trkpt>
      <trkpt lat="39.9695250" lon="-4.5575020">
        <ele>485.5</ele>
        <time>2022-03-01T17:10:55Z</time>
      </trkpt>
      <trkpt lat="39.9694710" lon="-4.5575010">
        <ele>485.7</ele>
        <time>2022-03-01T17:10:56Z</time>
      </trkpt>
      <trkpt lat="39.9694180" lon="-4.5575040">
        <ele>486.0</ele>
        <time>2022-03-01T17:10:57Z</time>
      </trkpt>
      <trkpt lat="39.9693690" lon="-4.5575030">
        <ele>486.2</ele>
        <time>2022-03-01T17:10:58Z</time>
      </trkpt>
      <trkpt lat="39.9693230" lon="-4.5575090">
        <ele>486.4</ele>
        <time>2022-03-01T17:10:59Z</time>
      </trkpt>
      <trkpt lat="39.9692780" lon="-4.5575190">
        <ele>486.7</ele>
        <time>2022-03-01T17:11:00Z</time>
      </trkpt>
      <trkpt lat="39.9692300" lon="-4.5575190">
        <ele>486.9</ele>
        <time>2022-03-01T17:11:01Z</time>
      </trkpt>
      <trkpt lat="39.9691810" lon="-4.5575190">
        <ele>487.1</ele>
        <time>2022-03-01T17:11:02Z</time>
      </trkpt>
      <trkpt lat="39.9691300" lon="-4.5575250">
        <ele>487.3</ele>
        <time>2022-03-01T17:11:03Z</time>
      </trkpt>
      <trkpt lat="39.9690890" lon="-4.5575380">
        <ele>487.5</ele>
        <time>2022-03-01T17:11:04Z</time>
      </trkpt>
      <trkpt lat="39.9690430" lon="-4.5575430">
        <ele>487.6</ele>
        <time>2022-03-01T17:11:05Z</time>
      </trkpt>
      <trkpt lat="39.9689980" lon="-4.5575540">
        <ele>487.8</ele>
        <time>2022-03-01T17:11:06Z</time>
      </trkpt>
      <trkpt lat="39.9689450" lon="-4.5575550">
        <ele>488.0</ele>
        <time>2022-03-01T17:11:07Z</time>
      </trkpt>
      <trkpt lat="39.9689000" lon="-4.5575600">
        <ele>488.2</ele>
        <time>2022-03-01T17:11:08Z</time>
      </trkpt>
      <trkpt lat="39.9688550" lon="-4.5575770">
        <ele>488.3</ele>
        <time>2022-03-01T17:11:09Z</time>
      </trkpt>
      <trkpt lat="39.9688070" lon="-4.5575950">
        <ele>488.5</ele>
        <time>2022-03-01T17:11:10Z</time>
      </trkpt>
      <trkpt lat="39.9687560" lon="-4.5575940">
        <ele>488.7</ele>
        <time>2022-03-01T17:11:11Z</time>
      </trkpt>
      <trkpt lat="39.9687060" lon="-4.5575940">
        <ele>488.8</ele>
        <time>2022-03-01T17:11:12Z</time>
      </trkpt>
      <trkpt lat="39.9686610" lon="-4.5576140">
        <ele>489.0</ele>
        <time>2022-03-01T17:11:13Z</time>
      </trkpt>
      <trkpt lat="39.9686150" lon="-4.5576230">
        <ele>489.1</ele>
        <time>2022-03-01T17:11:14Z</time>
      </trkpt>
      <trkpt lat="39.9685650" lon="-4.5576320">
        <ele>489.2</ele>
        <time>2022-03-01T17:11:15Z</time>
      </trkpt>
      <trkpt lat="39.9685100" lon="-4.5576460">
        <ele>489.4</ele>
        <time>2022-03-01T17:11:16Z</time>
      </trkpt>
      <trkpt lat="39.9684580" lon="-4.5576530">
        <ele>489.5</ele>
        <time>2022-03-01T17:11:17Z</time>
      </trkpt>
      <trkpt lat="39.9684080" lon="-4.5576630">
        <ele>489.6</ele>
        <time>2022-03-01T17:11:18Z</time>
      </trkpt>
      <trkpt lat="39.9683500" lon="-4.5576720">
        <ele>489.7</ele>
        <time>2022-03-01T17:11:19Z</time>
      </trkpt>
      <trkpt lat="39.9682970" lon="-4.5576840">
        <ele>489.7</ele>
        <time>2022-03-01T17:11:20Z</time>
      </trkpt>
      <trkpt lat="39.9682450" lon="-4.5576970">
        <ele>489.7</ele>
        <time>2022-03-01T17:11:21Z</time>
      </trkpt>
      <trkpt lat="39.9681940" lon="-4.5577090">
        <ele>489.7</ele>
        <time>2022-03-01T17:11:22Z</time>
      </trkpt>
      <trkpt lat="39.9681410" lon="-4.5577210">
        <ele>489.7</ele>
        <time>2022-03-01T17:11:23Z</time>
      </trkpt>
      <trkpt lat="39.9680830" lon="-4.5577350">
        <ele>489.8</ele>
        <time>2022-03-01T17:11:24Z</time>
      </trkpt>
      <trkpt lat="39.9680240" lon="-4.5577490">
        <ele>489.8</ele>
        <time>2022-03-01T17:11:25Z</time>
      </trkpt>
      <trkpt lat="39.9679710" lon="-4.5577640">
        <ele>489.8</ele>
        <time>2022-03-01T17:11:26Z</time>
      </trkpt>
      <trkpt lat="39.9679110" lon="-4.5577820">
        <ele>489.8</ele>
        <time>2022-03-01T17:11:27Z</time>
      </trkpt>
      <trkpt lat="39.9678520" lon="-4.5577950">
        <ele>489.8</ele>
        <time>2022-03-01T17:11:28Z</time>
      </trkpt>
      <trkpt lat="39.9677980" lon="-4.5578180">
        <ele>489.8</ele>
        <time>2022-03-01T17:11:29Z</time>
      </trkpt>
      <trkpt lat="39.9677350" lon="-4.5578330">
        <ele>489.8</ele>
        <time>2022-03-01T17:11:30Z</time>
      </trkpt>
      <trkpt lat="39.9676750" lon="-4.5578450">
        <ele>489.8</ele>
        <time>2022-03-01T17:11:31Z</time>
      </trkpt>
      <trkpt lat="39.9676090" lon="-4.5578720">
        <ele>489.8</ele>
        <time>2022-03-01T17:11:32Z</time>
      </trkpt>
      <trkpt lat="39.9675510" lon="-4.5578880">
        <ele>489.7</ele>
        <time>2022-03-01T17:11:33Z</time>
      </trkpt>
      <trkpt lat="39.9674920" lon="-4.5579080">
        <ele>489.7</ele>
        <time>2022-03-01T17:11:34Z</time>
      </trkpt>
      <trkpt lat="39.9674110" lon="-4.5579320">
        <ele>489.6</ele>
        <time>2022-03-01T17:11:35Z</time>
      </trkpt>
      <trkpt lat="39.9673450" lon="-4.5579570">
        <ele>489.5</ele>
        <time>2022-03-01T17:11:36Z</time>
      </trkpt>
      <trkpt lat="39.9672760" lon="-4.5579790">
        <ele>489.3</ele>
        <time>2022-03-01T17:11:37Z</time>
      </trkpt>
      <trkpt lat="39.9672020" lon="-4.5580030">
        <ele>489.2</ele>
        <time>2022-03-01T17:11:38Z</time>
      </trkpt>
      <trkpt lat="39.9671360" lon="-4.5580360">
        <ele>489.1</ele>
        <time>2022-03-01T17:11:39Z</time>
      </trkpt>
      <trkpt lat="39.9670590" lon="-4.5580590">
        <ele>488.9</ele>
        <time>2022-03-01T17:11:40Z</time>
      </trkpt>
      <trkpt lat="39.9669820" lon="-4.5580830">
        <ele>488.7</ele>
        <time>2022-03-01T17:11:41Z</time>
      </trkpt>
      <trkpt lat="39.9669020" lon="-4.5581080">
        <ele>488.5</ele>
        <time>2022-03-01T17:11:42Z</time>
      </trkpt>
      <trkpt lat="39.9668240" lon="-4.5581400">
        <ele>488.3</ele>
        <time>2022-03-01T17:11:43Z</time>
      </trkpt>
      <trkpt lat="39.9667530" lon="-4.5581720">
        <ele>488.2</ele>
        <time>2022-03-01T17:11:44Z</time>
      </trkpt>
      <trkpt lat="39.9666790" lon="-4.5582020">
        <ele>488.0</ele>
        <time>2022-03-01T17:11:45Z</time>
      </trkpt>
      <trkpt lat="39.9665890" lon="-4.5582260">
        <ele>487.9</ele>
        <time>2022-03-01T17:11:46Z</time>
      </trkpt>
      <trkpt lat="39.9665140" lon="-4.5582570">
        <ele>487.8</ele>
        <time>2022-03-01T17:11:47Z</time>
      </trkpt>
      <trkpt lat="39.9664450" lon="-4.5582930">
        <ele>487.6</ele>
        <time>2022-03-01T17:11:48Z</time>
      </trkpt>
      <trkpt lat="39.9663660" lon="-4.5583140">
        <ele>487.4</ele>
        <time>2022-03-01T17:11:49Z</time>
      </trkpt>
      <trkpt lat="39.9662880" lon="-4.5583420">
        <ele>487.3</ele>
        <time>2022-03-01T17:11:50Z</time>
      </trkpt>
      <trkpt lat="39.9662140" lon="-4.5583660">
        <ele>487.2</ele>
        <time>2022-03-01T17:11:51Z</time>
      </trkpt>
      <trkpt lat="39.9661330" lon="-4.5583890">
        <ele>487.1</ele>
        <time>2022-03-01T17:11:52Z</time>
      </trkpt>
      <trkpt lat="39.9660450" lon="-4.5584190">
        <ele>487.0</ele>
        <time>2022-03-01T17:11:53Z</time>
      </trkpt>
      <trkpt lat="39.9659740" lon="-4.5584420">
        <ele>487.0</ele>
        <time>2022-03-01T17:11:54Z</time>
      </trkpt>
      <trkpt lat="39.9658980" lon="-4.5584690">
        <ele>487.0</ele>
        <time>2022-03-01T17:11:55Z</time>
      </trkpt>
      <trkpt lat="39.9658270" lon="-4.5584990">
        <ele>487.0</ele>
        <time>2022-03-01T17:11:56Z</time>
      </trkpt>
      <trkpt lat="39.9657500" lon="-4.5585230">
        <ele>487.0</ele>
        <time>2022-03-01T17:11:57Z</time>
      </trkpt>
      <trkpt lat="39.9656770" lon="-4.5585490">
        <ele>487.0</ele>
        <time>2022-03-01T17:11:58Z</time>
      </trkpt>
      <trkpt lat="39.9656060" lon="-4.5585760">
        <ele>487.1</ele>
        <time>2022-03-01T17:11:59Z</time>
      </trkpt>
      <trkpt lat="39.9655360" lon="-4.5586030">
        <ele>487.1</ele>
        <time>2022-03-01T17:12:00Z</time>
      </trkpt>
      <trkpt lat="39.9654700" lon="-4.5586290">
        <ele>487.2</ele>
        <time>2022-03-01T17:12:01Z</time>
      </trkpt>
      <trkpt lat="39.9654030" lon="-4.5586530">
        <ele>487.3</ele>
        <time>2022-03-01T17:12:02Z</time>
      </trkpt>
      <trkpt lat="39.9653380" lon="-4.5586760">
        <ele>487.4</ele>
        <time>2022-03-01T17:12:03Z</time>
      </trkpt>
      <trkpt lat="39.9652780" lon="-4.5587010">
        <ele>487.5</ele>
        <time>2022-03-01T17:12:04Z</time>
      </trkpt>
      <trkpt lat="39.9652120" lon="-4.5587240">
        <ele>487.5</ele>
        <time>2022-03-01T17:12:05Z</time>
      </trkpt>
      <trkpt lat="39.9651500" lon="-4.5587420">
        <ele>487.6</ele>
        <time>2022-03-01T17:12:06Z</time>
      </trkpt>
      <trkpt lat="39.9650940" lon="-4.5587650">
        <ele>487.7</ele>
        <time>2022-03-01T17:12:07Z</time>
      </trkpt>
      <trkpt lat="39.9650360" lon="-4.5587850">
        <ele>487.8</ele>
        <time>2022-03-01T17:12:08Z</time>
      </trkpt>
      <trkpt lat="39.9649780" lon="-4.5588030">
        <ele>487.9</ele>
        <time>2022-03-01T17:12:09Z</time>
      </trkpt>
      <trkpt lat="39.9649160" lon="-4.5588220">
        <ele>488.0</ele>
        <time>2022-03-01T17:12:10Z</time>
      </trkpt>
      <trkpt lat="39.9648600" lon="-4.5588470">
        <ele>488.1</ele>
        <time>2022-03-01T17:12:11Z</time>
      </trkpt>
      <trkpt lat="39.9647980" lon="-4.5588740">
        <ele>488.2</ele>
        <time>2022-03-01T17:12:12Z</time>
      </trkpt>
      <trkpt lat="39.9647400" lon="-4.5588920">
        <ele>488.4</ele>
        <time>2022-03-01T17:12:13Z</time>
      </trkpt>
      <trkpt lat="39.9646860" lon="-4.5589150">
        <ele>488.5</ele>
        <time>2022-03-01T17:12:14Z</time>
      </trkpt>
      <trkpt lat="39.9646260" lon="-4.5589380">
        <ele>488.6</ele>
        <time>2022-03-01T17:12:15Z</time>
      </trkpt>
      <trkpt lat="39.9645650" lon="-4.5589530">
        <ele>488.7</ele>
        <time>2022-03-01T17:12:16Z</time>
      </trkpt>
      <trkpt lat="39.9645070" lon="-4.5589770">
        <ele>488.8</ele>
        <time>2022-03-01T17:12:17Z</time>
      </trkpt>
      <trkpt lat="39.9644490" lon="-4.5589950">
        <ele>488.9</ele>
        <time>2022-03-01T17:12:18Z</time>
      </trkpt>
      <trkpt lat="39.9643960" lon="-4.5590220">
        <ele>489.0</ele>
        <time>2022-03-01T17:12:19Z</time>
      </trkpt>
      <trkpt lat="39.9643310" lon="-4.5590330">
        <ele>489.2</ele>
        <time>2022-03-01T17:12:20Z</time>
      </trkpt>
      <trkpt lat="39.9642720" lon="-4.5590530">
        <ele>489.3</ele>
        <time>2022-03-01T17:12:21Z</time>
      </trkpt>
      <trkpt lat="39.9642200" lon="-4.5590720">
        <ele>489.4</ele>
        <time>2022-03-01T17:12:22Z</time>
      </trkpt>
      <trkpt lat="39.9641640" lon="-4.5590940">
        <ele>489.5</ele>
        <time>2022-03-01T17:12:23Z</time>
      </trkpt>
      <trkpt lat="39.9641120" lon="-4.5591160">
        <ele>489.6</ele>
        <time>2022-03-01T17:12:24Z</time>
      </trkpt>
      <trkpt lat="39.9640580" lon="-4.5591320">
        <ele>489.7</ele>
        <time>2022-03-01T17:12:25Z</time>
      </trkpt>
      <trkpt lat="39.9640080" lon="-4.5591490">
        <ele>489.9</ele>
        <time>2022-03-01T17:12:26Z</time>
      </trkpt>
      <trkpt lat="39.9639520" lon="-4.5591770">
        <ele>490.0</ele>
        <time>2022-03-01T17:12:27Z</time>
      </trkpt>
      <trkpt lat="39.9638960" lon="-4.5591860">
        <ele>490.1</ele>
        <time>2022-03-01T17:12:28Z</time>
      </trkpt>
      <trkpt lat="39.9638430" lon="-4.5592060">
        <ele>490.3</ele>
        <time>2022-03-01T17:12:29Z</time>
      </trkpt>
      <trkpt lat="39.9637900" lon="-4.5592270">
        <ele>490.4</ele>
        <time>2022-03-01T17:12:30Z</time>
      </trkpt>
      <trkpt lat="39.9637350" lon="-4.5592460">
        <ele>490.5</ele>
        <time>2022-03-01T17:12:31Z</time>
      </trkpt>
      <trkpt lat="39.9636810" lon="-4.5592630">
        <ele>490.6</ele>
        <time>2022-03-01T17:12:32Z</time>
      </trkpt>
      <trkpt lat="39.9636260" lon="-4.5592830">
        <ele>490.8</ele>
        <time>2022-03-01T17:12:33Z</time>
      </trkpt>
      <trkpt lat="39.9635670" lon="-4.5593020">
        <ele>490.9</ele>
        <time>2022-03-01T17:12:34Z</time>
      </trkpt>
      <trkpt lat="39.9635140" lon="-4.5593220">
        <ele>491.0</ele>
        <time>2022-03-01T17:12:35Z</time>
      </trkpt>
      <trkpt lat="39.9634610" lon="-4.5593400">
        <ele>491.1</ele>
        <time>2022-03-01T17:12:36Z</time>
      </trkpt>
      <trkpt lat="39.9634050" lon="-4.5593610">
        <ele>491.2</ele>
        <time>2022-03-01T17:12:37Z</time>
      </trkpt>
      <trkpt lat="39.9633490" lon="-4.5593840">
        <ele>491.4</ele>
        <time>2022-03-01T17:12:38Z</time>
      </trkpt>
      <trkpt lat="39.9632980" lon="-4.5593990">
        <ele>491.5</ele>
        <time>2022-03-01T17:12:39Z</time>
      </trkpt>
      <trkpt lat="39.9632450" lon="-4.5594180">
        <ele>491.6</ele>
        <time>2022-03-01T17:12:40Z</time>
      </trkpt>
      <trkpt lat="39.9631880" lon="-4.5594370">
        <ele>491.7</ele>
        <time>2022-03-01T17:12:41Z</time>
      </trkpt>
      <trkpt lat="39.9631380" lon="-4.5594570">
        <ele>491.8</ele>
        <time>2022-03-01T17:12:42Z</time>
      </trkpt>
      <trkpt lat="39.9630860" lon="-4.5594760">
        <ele>491.9</ele>
        <time>2022-03-01T17:12:43Z</time>
      </trkpt>
      <trkpt lat="39.9630350" lon="-4.5594950">
        <ele>492.0</ele>
        <time>2022-03-01T17:12:44Z</time>
      </trkpt>
      <trkpt lat="39.9629820" lon="-4.5595120">
        <ele>492.1</ele>
        <time>2022-03-01T17:12:45Z</time>
      </trkpt>
      <trkpt lat="39.9629210" lon="-4.5595340">
        <ele>492.2</ele>
        <time>2022-03-01T17:12:46Z</time>
      </trkpt>
      <trkpt lat="39.9628710" lon="-4.5595530">
        <ele>492.3</ele>
        <time>2022-03-01T17:12:47Z</time>
      </trkpt>
      <trkpt lat="39.9628120" lon="-4.5595750">
        <ele>492.4</ele>
        <time>2022-03-01T17:12:48Z</time>
      </trkpt>
      <trkpt lat="39.9627520" lon="-4.5595910">
        <ele>492.5</ele>
        <time>2022-03-01T17:12:49Z</time>
      </trkpt>
      <trkpt lat="39.9626950" lon="-4.5596130">
        <ele>492.6</ele>
        <time>2022-03-01T17:12:50Z</time>
      </trkpt>
      <trkpt lat="39.9626370" lon="-4.5596330">
        <ele>492.7</ele>
        <time>2022-03-01T17:12:51Z</time>
      </trkpt>
      <trkpt lat="39.9625800" lon="-4.5596570">
        <ele>492.8</ele>
        <time>2022-03-01T17:12:52Z</time>
      </trkpt>
      <trkpt lat="39.9625210" lon="-4.5596790">
        <ele>493.0</ele>
        <time>2022-03-01T17:12:53Z</time>
      </trkpt>
      <trkpt lat="39.9624610" lon="-4.5596990">
        <ele>493.1</ele>
        <time>2022-03-01T17:12:54Z</time>
      </trkpt>
      <trkpt lat="39.9624030" lon="-4.5597180">
        <ele>493.2</ele>
        <time>2022-03-01T17:12:55Z</time>
      </trkpt>
      <trkpt lat="39.9623450" lon="-4.5597400">
        <ele>493.3</ele>
        <time>2022-03-01T17:12:56Z</time>
      </trkpt>
      <trkpt lat="39.9622840" lon="-4.5597600">
        <ele>493.4</ele>
        <time>2022-03-01T17:12:57Z</time>
      </trkpt>
      <trkpt lat="39.9622250" lon="-4.5597810">
        <ele>493.5</ele>
        <time>2022-03-01T17:12:58Z</time>
      </trkpt>
      <trkpt lat="39.9621690" lon="-4.5598010">
        <ele>493.6</ele>
        <time>2022-03-01T17:12:59Z</time>
      </trkpt>
      <trkpt lat="39.9621100" lon="-4.5598220">
        <ele>493.7</ele>
        <time>2022-03-01T17:13:00Z</time>
      </trkpt>
      <trkpt lat="39.9620540" lon="-4.5598440">
        <ele>493.8</ele>
        <time>2022-03-01T17:13:01Z</time>
      </trkpt>
      <trkpt lat="39.9619980" lon="-4.5598620">
        <ele>493.8</ele>
        <time>2022-03-01T17:13:02Z</time>
      </trkpt>
      <trkpt lat="39.9619380" lon="-4.5598840">
        <ele>493.9</ele>
        <time>2022-03-01T17:13:03Z</time>
      </trkpt>
      <trkpt lat="39.9618790" lon="-4.5599060">
        <ele>494.0</ele>
        <time>2022-03-01T17:13:04Z</time>
      </trkpt>
      <trkpt lat="39.9618220" lon="-4.5599300">
        <ele>494.1</ele>
        <time>2022-03-01T17:13:05Z</time>
      </trkpt>
      <trkpt lat="39.9617640" lon="-4.5599520">
        <ele>494.1</ele>
        <time>2022-03-01T17:13:06Z</time>
      </trkpt>
      <trkpt lat="39.9617060" lon="-4.5599700">
        <ele>494.2</ele>
        <time>2022-03-01T17:13:07Z</time>
      </trkpt>
      <trkpt lat="39.9616480" lon="-4.5599930">
        <ele>494.2</ele>
        <time>2022-03-01T17:13:08Z</time>
      </trkpt>
      <trkpt lat="39.9615800" lon="-4.5600180">
        <ele>494.3</ele>
        <time>2022-03-01T17:13:09Z</time>
      </trkpt>
      <trkpt lat="39.9615150" lon="-4.5600410">
        <ele>494.3</ele>
        <time>2022-03-01T17:13:10Z</time>
      </trkpt>
      <trkpt lat="39.9614490" lon="-4.5600670">
        <ele>494.3</ele>
        <time>2022-03-01T17:13:11Z</time>
      </trkpt>
      <trkpt lat="39.9613840" lon="-4.5600910">
        <ele>494.3</ele>
        <time>2022-03-01T17:13:12Z</time>
      </trkpt>
      <trkpt lat="39.9613130" lon="-4.5601130">
        <ele>494.3</ele>
        <time>2022-03-01T17:13:13Z</time>
      </trkpt>
      <trkpt lat="39.9612430" lon="-4.5601400">
        <ele>494.3</ele>
        <time>2022-03-01T17:13:14Z</time>
      </trkpt>
      <trkpt lat="39.9611820" lon="-4.5601600">
        <ele>494.3</ele>
        <time>2022-03-01T17:13:15Z</time>
      </trkpt>
      <trkpt lat="39.9611120" lon="-4.5601830">
        <ele>494.3</ele>
        <time>2022-03-01T17:13:16Z</time>
      </trkpt>
      <trkpt lat="39.9610430" lon="-4.5602040">
        <ele>494.3</ele>
        <time>2022-03-01T17:13:17Z</time>
      </trkpt>
      <trkpt lat="39.9609790" lon="-4.5602320">
        <ele>494.3</ele>
        <time>2022-03-01T17:13:18Z</time>
      </trkpt>
      <trkpt lat="39.9609120" lon="-4.5602530">
        <ele>494.2</ele>
        <time>2022-03-01T17:13:19Z</time>
      </trkpt>
      <trkpt lat="39.9608410" lon="-4.5602750">
        <ele>494.2</ele>
        <time>2022-03-01T17:13:20Z</time>
      </trkpt>
      <trkpt lat="39.9607710" lon="-4.5603020">
        <ele>494.1</ele>
        <time>2022-03-01T17:13:21Z</time>
      </trkpt>
      <trkpt lat="39.9607030" lon="-4.5603250">
        <ele>494.0</ele>
        <time>2022-03-01T17:13:22Z</time>
      </trkpt>
      <trkpt lat="39.9606380" lon="-4.5603480">
        <ele>493.9</ele>
        <time>2022-03-01T17:13:23Z</time>
      </trkpt>
      <trkpt lat="39.9605670" lon="-4.5603720">
        <ele>493.8</ele>
        <time>2022-03-01T17:13:24Z</time>
      </trkpt>
      <trkpt lat="39.9605010" lon="-4.5604050">
        <ele>493.7</ele>
        <time>2022-03-01T17:13:25Z</time>
      </trkpt>
      <trkpt lat="39.9604380" lon="-4.5604360">
        <ele>493.6</ele>
        <time>2022-03-01T17:13:26Z</time>
      </trkpt>
      <trkpt lat="39.9603760" lon="-4.5604710">
        <ele>493.5</ele>
        <time>2022-03-01T17:13:27Z</time>
      </trkpt>
      <trkpt lat="39.9603100" lon="-4.5605030">
        <ele>493.3</ele>
        <time>2022-03-01T17:13:28Z</time>
      </trkpt>
      <trkpt lat="39.9602440" lon="-4.5605500">
        <ele>493.2</ele>
        <time>2022-03-01T17:13:29Z</time>
      </trkpt>
      <trkpt lat="39.9601860" lon="-4.5606020">
        <ele>493.0</ele>
        <time>2022-03-01T17:13:30Z</time>
      </trkpt>
      <trkpt lat="39.9601290" lon="-4.5606460">
        <ele>492.8</ele>
        <time>2022-03-01T17:13:31Z</time>
      </trkpt>
      <trkpt lat="39.9600660" lon="-4.5606750">
        <ele>492.7</ele>
        <time>2022-03-01T17:13:32Z</time>
      </trkpt>
      <trkpt lat="39.9600130" lon="-4.5607180">
        <ele>492.5</ele>
        <time>2022-03-01T17:13:33Z</time>
      </trkpt>
      <trkpt lat="39.9599560" lon="-4.5607550">
        <ele>492.3</ele>
        <time>2022-03-01T17:13:34Z</time>
      </trkpt>
      <trkpt lat="39.9598930" lon="-4.5607990">
        <ele>492.1</ele>
        <time>2022-03-01T17:13:35Z</time>
      </trkpt>
      <trkpt lat="39.9598470" lon="-4.5608540">
        <ele>491.9</ele>
        <time>2022-03-01T17:13:36Z</time>
      </trkpt>
      <trkpt lat="39.9597810" lon="-4.5609090">
        <ele>491.6</ele>
        <time>2022-03-01T17:13:37Z</time>
      </trkpt>
      <trkpt lat="39.9597220" lon="-4.5609510">
        <ele>491.4</ele>
        <time>2022-03-01T17:13:38Z</time>
      </trkpt>
      <trkpt lat="39.9596720" lon="-4.5609980">
        <ele>491.2</ele>
        <time>2022-03-01T17:13:39Z</time>
      </trkpt>
      <trkpt lat="39.9596190" lon="-4.5610630">
        <ele>490.9</ele>
        <time>2022-03-01T17:13:40Z</time>
      </trkpt>
      <trkpt lat="39.9595650" lon="-4.5611120">
        <ele>490.6</ele>
        <time>2022-03-01T17:13:41Z</time>
      </trkpt>
      <trkpt lat="39.9595000" lon="-4.5611600">
        <ele>490.3</ele>
        <time>2022-03-01T17:13:42Z</time>
      </trkpt>
      <trkpt lat="39.9594330" lon="-4.5612190">
        <ele>490.0</ele>
        <time>2022-03-01T17:13:43Z</time>
      </trkpt>
      <trkpt lat="39.9593680" lon="-4.5612680">
        <ele>489.7</ele>
        <time>2022-03-01T17:13:44Z</time>
      </trkpt>
      <trkpt lat="39.9593050" lon="-4.5613240">
        <ele>489.3</ele>
        <time>2022-03-01T17:13:45Z</time>
      </trkpt>
      <trkpt lat="39.9592390" lon="-4.5613860">
        <ele>488.9</ele>
        <time>2022-03-01T17:13:46Z</time>
      </trkpt>
      <trkpt lat="39.9591750" lon="-4.5614390">
        <ele>488.6</ele>
        <time>2022-03-01T17:13:47Z</time>
      </trkpt>
      <trkpt lat="39.9591000" lon="-4.5615050">
        <ele>488.1</ele>
        <time>2022-03-01T17:13:48Z</time>
      </trkpt>
      <trkpt lat="39.9590300" lon="-4.5615690">
        <ele>487.6</ele>
        <time>2022-03-01T17:13:49Z</time>
      </trkpt>
      <trkpt lat="39.9589720" lon="-4.5616200">
        <ele>487.2</ele>
        <time>2022-03-01T17:13:50Z</time>
      </trkpt>
      <trkpt lat="39.9589030" lon="-4.5616820">
        <ele>486.8</ele>
        <time>2022-03-01T17:13:51Z</time>
      </trkpt>
      <trkpt lat="39.9588380" lon="-4.5617400">
        <ele>486.4</ele>
        <time>2022-03-01T17:13:52Z</time>
      </trkpt>
      <trkpt lat="39.9587660" lon="-4.5618050">
        <ele>485.9</ele>
        <time>2022-03-01T17:13:53Z</time>
      </trkpt>
      <trkpt lat="39.9586930" lon="-4.5618720">
        <ele>485.4</ele>
        <time>2022-03-01T17:13:54Z</time>
      </trkpt>
      <trkpt lat="39.9586180" lon="-4.5619400">
        <ele>484.9</ele>
        <time>2022-03-01T17:13:55Z</time>
      </trkpt>
      <trkpt lat="39.9585380" lon="-4.5620110">
        <ele>484.3</ele>
        <time>2022-03-01T17:13:56Z</time>
      </trkpt>
      <trkpt lat="39.9584670" lon="-4.5620750">
        <ele>483.9</ele>
        <time>2022-03-01T17:13:57Z</time>
      </trkpt>
      <trkpt lat="39.9583950" lon="-4.5621430">
        <ele>483.3</ele>
        <time>2022-03-01T17:13:58Z</time>
      </trkpt>
      <trkpt lat="39.9583170" lon="-4.5622120">
        <ele>482.8</ele>
        <time>2022-03-01T17:13:59Z</time>
      </trkpt>
      <trkpt lat="39.9582410" lon="-4.5622790">
        <ele>482.2</ele>
        <time>2022-03-01T17:14:00Z</time>
      </trkpt>
      <trkpt lat="39.9581610" lon="-4.5623510">
        <ele>481.6</ele>
        <time>2022-03-01T17:14:01Z</time>
      </trkpt>
      <trkpt lat="39.9580810" lon="-4.5624200">
        <ele>481.0</ele>
        <time>2022-03-01T17:14:02Z</time>
      </trkpt>
      <trkpt lat="39.9580010" lon="-4.5624910">
        <ele>480.5</ele>
        <time>2022-03-01T17:14:03Z</time>
      </trkpt>
      <trkpt lat="39.9579230" lon="-4.5625640">
        <ele>479.9</ele>
        <time>2022-03-01T17:14:04Z</time>
      </trkpt>
      <trkpt lat="39.9578410" lon="-4.5626350">
        <ele>479.3</ele>
        <time>2022-03-01T17:14:05Z</time>
      </trkpt>
      <trkpt lat="39.9577590" lon="-4.5627080">
        <ele>478.7</ele>
        <time>2022-03-01T17:14:06Z</time>
      </trkpt>
      <trkpt lat="39.9576760" lon="-4.5627820">
        <ele>478.1</ele>
        <time>2022-03-01T17:14:07Z</time>
      </trkpt>
      <trkpt lat="39.9575930" lon="-4.5628600">
        <ele>477.5</ele>
        <time>2022-03-01T17:14:08Z</time>
      </trkpt>
      <trkpt lat="39.9575140" lon="-4.5629320">
        <ele>477.0</ele>
        <time>2022-03-01T17:14:09Z</time>
      </trkpt>
      <trkpt lat="39.9574290" lon="-4.5630070">
        <ele>476.4</ele>
        <time>2022-03-01T17:14:10Z</time>
      </trkpt>
      <trkpt lat="39.9573480" lon="-4.5630810">
        <ele>475.8</ele>
        <time>2022-03-01T17:14:11Z</time>
      </trkpt>
      <trkpt lat="39.9572650" lon="-4.5631570">
        <ele>475.2</ele>
        <time>2022-03-01T17:14:12Z</time>
      </trkpt>
      <trkpt lat="39.9571820" lon="-4.5632310">
        <ele>474.7</ele>
        <time>2022-03-01T17:14:13Z</time>
      </trkpt>
      <trkpt lat="39.9570950" lon="-4.5633050">
        <ele>474.1</ele>
        <time>2022-03-01T17:14:14Z</time>
      </trkpt>
      <trkpt lat="39.9570120" lon="-4.5633800">
        <ele>473.5</ele>
        <time>2022-03-01T17:14:15Z</time>
      </trkpt>
      <trkpt lat="39.9569280" lon="-4.5634590">
        <ele>473.0</ele>
        <time>2022-03-01T17:14:16Z</time>
      </trkpt>
      <trkpt lat="39.9568450" lon="-4.5635340">
        <ele>472.4</ele>
        <time>2022-03-01T17:14:17Z</time>
      </trkpt>
      <trkpt lat="39.9567620" lon="-4.5636080">
        <ele>471.9</ele>
        <time>2022-03-01T17:14:18Z</time>
      </trkpt>
      <trkpt lat="39.9566780" lon="-4.5636820">
        <ele>471.3</ele>
        <time>2022-03-01T17:14:19Z</time>
      </trkpt>
      <trkpt lat="39.9565900" lon="-4.5637600">
        <ele>470.8</ele>
        <time>2022-03-01T17:14:20Z</time>
      </trkpt>
      <trkpt lat="39.9565130" lon="-4.5638310">
        <ele>470.3</ele>
        <time>2022-03-01T17:14:21Z</time>
      </trkpt>
      <trkpt lat="39.9564280" lon="-4.5639090">
        <ele>469.8</ele>
        <time>2022-03-01T17:14:22Z</time>
      </trkpt>
      <trkpt lat="39.9563490" lon="-4.5639780">
        <ele>469.4</ele>
        <time>2022-03-01T17:14:23Z</time>
      </trkpt>
      <trkpt lat="39.9562660" lon="-4.5640550">
        <ele>469.0</ele>
        <time>2022-03-01T17:14:24Z</time>
      </trkpt>
      <trkpt lat="39.9561860" lon="-4.5641300">
        <ele>468.6</ele>
        <time>2022-03-01T17:14:25Z</time>
      </trkpt>
      <trkpt lat="39.9561020" lon="-4.5642050">
        <ele>468.2</ele>
        <time>2022-03-01T17:14:26Z</time>
      </trkpt>
      <trkpt lat="39.9560190" lon="-4.5642780">
        <ele>467.7</ele>
        <time>2022-03-01T17:14:27Z</time>
      </trkpt>
      <trkpt lat="39.9559380" lon="-4.5643520">
        <ele>467.3</ele>
        <time>2022-03-01T17:14:28Z</time>
      </trkpt>
      <trkpt lat="39.9558510" lon="-4.5644270">
        <ele>466.9</ele>
        <time>2022-03-01T17:14:29Z</time>
      </trkpt>
      <trkpt lat="39.9557690" lon="-4.5645000">
        <ele>466.6</ele>
        <time>2022-03-01T17:14:30Z</time>
      </trkpt>
      <trkpt lat="39.9556890" lon="-4.5645730">
        <ele>466.2</ele>
        <time>2022-03-01T17:14:31Z</time>
      </trkpt>
      <trkpt lat="39.9556020" lon="-4.5646470">
        <ele>465.8</ele>
        <time>2022-03-01T17:14:32Z</time>
      </trkpt>
      <trkpt lat="39.9555230" lon="-4.5647190">
        <ele>465.5</ele>
        <time>2022-03-01T17:14:33Z</time>
      </trkpt>
      <trkpt lat="39.9554400" lon="-4.5647930">
        <ele>465.2</ele>
        <time>2022-03-01T17:14:34Z</time>
      </trkpt>
      <trkpt lat="39.9553590" lon="-4.5648670">
        <ele>464.9</ele>
        <time>2022-03-01T17:14:35Z</time>
      </trkpt>
      <trkpt lat="39.9552770" lon="-4.5649370">
        <ele>464.6</ele>
        <time>2022-03-01T17:14:36Z</time>
      </trkpt>
      <trkpt lat="39.9551960" lon="-4.5650070">
        <ele>464.3</ele>
        <time>2022-03-01T17:14:37Z</time>
      </trkpt>
      <trkpt lat="39.9551150" lon="-4.5650770">
        <ele>464.0</ele>
        <time>2022-03-01T17:14:38Z</time>
      </trkpt>
      <trkpt lat="39.9550340" lon="-4.5651500">
        <ele>463.7</ele>
        <time>2022-03-01T17:14:39Z</time>
      </trkpt>
      <trkpt lat="39.9549510" lon="-4.5652210">
        <ele>463.4</ele>
        <time>2022-03-01T17:14:40Z</time>
      </trkpt>
      <trkpt lat="39.9548710" lon="-4.5652920">
        <ele>463.1</ele>
        <time>2022-03-01T17:14:41Z</time>
      </trkpt>
      <trkpt lat="39.9547940" lon="-4.5653620">
        <ele>462.8</ele>
        <time>2022-03-01T17:14:42Z</time>
      </trkpt>
      <trkpt lat="39.9547150" lon="-4.5654330">
        <ele>462.5</ele>
        <time>2022-03-01T17:14:43Z</time>
      </trkpt>
      <trkpt lat="39.9546380" lon="-4.5655020">
        <ele>462.3</ele>
        <time>2022-03-01T17:14:44Z</time>
      </trkpt>
      <trkpt lat="39.9545620" lon="-4.5655710">
        <ele>462.0</ele>
        <time>2022-03-01T17:14:45Z</time>
      </trkpt>
      <trkpt lat="39.9544850" lon="-4.5656390">
        <ele>461.7</ele>
        <time>2022-03-01T17:14:46Z</time>
      </trkpt>
      <trkpt lat="39.9544170" lon="-4.5657020">
        <ele>461.4</ele>
        <time>2022-03-01T17:14:47Z</time>
      </trkpt>
      <trkpt lat="39.9543440" lon="-4.5657690">
        <ele>461.1</ele>
        <time>2022-03-01T17:14:48Z</time>
      </trkpt>
      <trkpt lat="39.9542740" lon="-4.5658360">
        <ele>460.8</ele>
        <time>2022-03-01T17:14:49Z</time>
      </trkpt>
      <trkpt lat="39.9542010" lon="-4.5659020">
        <ele>460.5</ele>
        <time>2022-03-01T17:14:50Z</time>
      </trkpt>
      <trkpt lat="39.9541380" lon="-4.5659700">
        <ele>460.3</ele>
        <time>2022-03-01T17:14:51Z</time>
      </trkpt>
      <trkpt lat="39.9540770" lon="-4.5660420">
        <ele>460.1</ele>
        <time>2022-03-01T17:14:52Z</time>
      </trkpt>
      <trkpt lat="39.9540110" lon="-4.5661080">
        <ele>459.8</ele>
        <time>2022-03-01T17:14:53Z</time>
      </trkpt>
      <trkpt lat="39.9539470" lon="-4.5661690">
        <ele>459.6</ele>
        <time>2022-03-01T17:14:54Z</time>
      </trkpt>
      <trkpt lat="39.9538780" lon="-4.5662280">
        <ele>459.4</ele>
        <time>2022-03-01T17:14:55Z</time>
      </trkpt>
      <trkpt lat="39.9538190" lon="-4.5662960">
        <ele>459.1</ele>
        <time>2022-03-01T17:14:56Z</time>
      </trkpt>
      <trkpt lat="39.9537710" lon="-4.5663710">
        <ele>458.8</ele>
        <time>2022-03-01T17:14:57Z</time>
      </trkpt>
      <trkpt lat="39.9537140" lon="-4.5664400">
        <ele>458.5</ele>
        <time>2022-03-01T17:14:58Z</time>
      </trkpt>
      <trkpt lat="39.9536590" lon="-4.5665180">
        <ele>458.3</ele>
        <time>2022-03-01T17:14:59Z</time>
      </trkpt>
      <trkpt lat="39.9536010" lon="-4.5665800">
        <ele>458.0</ele>
        <time>2022-03-01T17:15:00Z</time>
      </trkpt>
      <trkpt lat="39.9535230" lon="-4.5666450">
        <ele>457.7</ele>
        <time>2022-03-01T17:15:01Z</time>
      </trkpt>
      <trkpt lat="39.9534650" lon="-4.5667160">
        <ele>457.4</ele>
        <time>2022-03-01T17:15:02Z</time>
      </trkpt>
      <trkpt lat="39.9534130" lon="-4.5667870">
        <ele>457.1</ele>
        <time>2022-03-01T17:15:03Z</time>
      </trkpt>
      <trkpt lat="39.9533400" lon="-4.5668510">
        <ele>456.8</ele>
        <time>2022-03-01T17:15:04Z</time>
      </trkpt>
      <trkpt lat="39.9532780" lon="-4.5669150">
        <ele>456.5</ele>
        <time>2022-03-01T17:15:05Z</time>
      </trkpt>
      <trkpt lat="39.9532300" lon="-4.5669810">
        <ele>456.2</ele>
        <time>2022-03-01T17:15:06Z</time>
      </trkpt>
      <trkpt lat="39.9531570" lon="-4.5670460">
        <ele>455.9</ele>
        <time>2022-03-01T17:15:07Z</time>
      </trkpt>
      <trkpt lat="39.9530910" lon="-4.5671130">
        <ele>455.6</ele>
        <time>2022-03-01T17:15:08Z</time>
      </trkpt>
      <trkpt lat="39.9530220" lon="-4.5671810">
        <ele>455.3</ele>
        <time>2022-03-01T17:15:09Z</time>
      </trkpt>
      <trkpt lat="39.9529430" lon="-4.5672470">
        <ele>454.9</ele>
        <time>2022-03-01T17:15:10Z</time>
      </trkpt>
      <trkpt lat="39.9528520" lon="-4.5673040">
        <ele>454.6</ele>
        <time>2022-03-01T17:15:11Z</time>
      </trkpt>
      <trkpt lat="39.9527640" lon="-4.5673590">
        <ele>454.4</ele>
        <time>2022-03-01T17:15:12Z</time>
      </trkpt>
      <trkpt lat="39.9526780" lon="-4.5674120">
        <ele>454.1</ele>
        <time>2022-03-01T17:15:13Z</time>
      </trkpt>
      <trkpt lat="39.9525930" lon="-4.5674690">
        <ele>453.8</ele>
        <time>2022-03-01T17:15:14Z</time>
      </trkpt>
      <trkpt lat="39.9525120" lon="-4.5675350">
        <ele>453.5</ele>
        <time>2022-03-01T17:15:15Z</time>
      </trkpt>
      <trkpt lat="39.9524370" lon="-4.5676010">
        <ele>453.1</ele>
        <time>2022-03-01T17:15:16Z</time>
      </trkpt>
      <trkpt lat="39.9523640" lon="-4.5676650">
        <ele>452.7</ele>
        <time>2022-03-01T17:15:17Z</time>
      </trkpt>
      <trkpt lat="39.9522850" lon="-4.5677300">
        <ele>452.3</ele>
        <time>2022-03-01T17:15:18Z</time>
      </trkpt>
      <trkpt lat="39.9522080" lon="-4.5677890">
        <ele>451.9</ele>
        <time>2022-03-01T17:15:19Z</time>
      </trkpt>
      <trkpt lat="39.9521340" lon="-4.5678540">
        <ele>451.5</ele>
        <time>2022-03-01T17:15:20Z</time>
      </trkpt>
      <trkpt lat="39.9520620" lon="-4.5679160">
        <ele>451.2</ele>
        <time>2022-03-01T17:15:21Z</time>
      </trkpt>
      <trkpt lat="39.9519930" lon="-4.5679790">
        <ele>450.9</ele>
        <time>2022-03-01T17:15:22Z</time>
      </trkpt>
      <trkpt lat="39.9519330" lon="-4.5680420">
        <ele>450.6</ele>
        <time>2022-03-01T17:15:23Z</time>
      </trkpt>
      <trkpt lat="39.9518730" lon="-4.5681060">
        <ele>450.4</ele>
        <time>2022-03-01T17:15:24Z</time>
      </trkpt>
      <trkpt lat="39.9518040" lon="-4.5681660">
        <ele>450.1</ele>
        <time>2022-03-01T17:15:25Z</time>
      </trkpt>
      <trkpt lat="39.9517420" lon="-4.5682270">
        <ele>449.9</ele>
        <time>2022-03-01T17:15:26Z</time>
      </trkpt>
      <trkpt lat="39.9516800" lon="-4.5682850">
        <ele>449.7</ele>
        <time>2022-03-01T17:15:27Z</time>
      </trkpt>
      <trkpt lat="39.9516220" lon="-4.5683480">
        <ele>449.6</ele>
        <time>2022-03-01T17:15:28Z</time>
      </trkpt>
      <trkpt lat="39.9515500" lon="-4.5684050">
        <ele>449.4</ele>
        <time>2022-03-01T17:15:29Z</time>
      </trkpt>
      <trkpt lat="39.9514970" lon="-4.5684570">
        <ele>449.3</ele>
        <time>2022-03-01T17:15:30Z</time>
      </trkpt>
      <trkpt lat="39.9514340" lon="-4.5685110">
        <ele>449.3</ele>
        <time>2022-03-01T17:15:31Z</time>
      </trkpt>
      <trkpt lat="39.9513760" lon="-4.5685630">
        <ele>449.2</ele>
        <time>2022-03-01T17:15:32Z</time>
      </trkpt>
      <trkpt lat="39.9513110" lon="-4.5686170">
        <ele>449.2</ele>
        <time>2022-03-01T17:15:33Z</time>
      </trkpt>
      <trkpt lat="39.9512580" lon="-4.5686690">
        <ele>449.2</ele>
        <time>2022-03-01T17:15:34Z</time>
      </trkpt>
      <trkpt lat="39.9511890" lon="-4.5687250">
        <ele>449.1</ele>
        <time>2022-03-01T17:15:35Z</time>
      </trkpt>
      <trkpt lat="39.9511240" lon="-4.5687730">
        <ele>449.1</ele>
        <time>2022-03-01T17:15:36Z</time>
      </trkpt>
      <trkpt lat="39.9510670" lon="-4.5688200">
        <ele>449.1</ele>
        <time>2022-03-01T17:15:37Z</time>
      </trkpt>
      <trkpt lat="39.9510080" lon="-4.5688680">
        <ele>449.1</ele>
        <time>2022-03-01T17:15:38Z</time>
      </trkpt>
      <trkpt lat="39.9509460" lon="-4.5689170">
        <ele>449.2</ele>
        <time>2022-03-01T17:15:39Z</time>
      </trkpt>
      <trkpt lat="39.9508940" lon="-4.5689690">
        <ele>449.2</ele>
        <time>2022-03-01T17:15:40Z</time>
      </trkpt>
      <trkpt lat="39.9508320" lon="-4.5690120">
        <ele>449.2</ele>
        <time>2022-03-01T17:15:41Z</time>
      </trkpt>
      <trkpt lat="39.9507840" lon="-4.5690520">
        <ele>449.2</ele>
        <time>2022-03-01T17:15:42Z</time>
      </trkpt>
      <trkpt lat="39.9507280" lon="-4.5690900">
        <ele>449.1</ele>
        <time>2022-03-01T17:15:43Z</time>
      </trkpt>
      <trkpt lat="39.9506680" lon="-4.5691160">
        <ele>449.0</ele>
        <time>2022-03-01T17:15:44Z</time>
      </trkpt>
      <trkpt lat="39.9506170" lon="-4.5691420">
        <ele>449.0</ele>
        <time>2022-03-01T17:15:45Z</time>
      </trkpt>
      <trkpt lat="39.9505630" lon="-4.5691510">
        <ele>448.9</ele>
        <time>2022-03-01T17:15:46Z</time>
      </trkpt>
      <trkpt lat="39.9504970" lon="-4.5691510">
        <ele>448.8</ele>
        <time>2022-03-01T17:15:47Z</time>
      </trkpt>
      <trkpt lat="39.9504260" lon="-4.5691430">
        <ele>448.8</ele>
        <time>2022-03-01T17:15:48Z</time>
      </trkpt>
      <trkpt lat="39.9503610" lon="-4.5691370">
        <ele>448.6</ele>
        <time>2022-03-01T17:15:49Z</time>
      </trkpt>
      <trkpt lat="39.9502920" lon="-4.5691150">
        <ele>448.4</ele>
        <time>2022-03-01T17:15:50Z</time>
      </trkpt>
      <trkpt lat="39.9502180" lon="-4.5690970">
        <ele>448.2</ele>
        <time>2022-03-01T17:15:51Z</time>
      </trkpt>
      <trkpt lat="39.9501370" lon="-4.5690710">
        <ele>447.8</ele>
        <time>2022-03-01T17:15:52Z</time>
      </trkpt>
      <trkpt lat="39.9500550" lon="-4.5690290">
        <ele>447.2</ele>
        <time>2022-03-01T17:15:53Z</time>
      </trkpt>
      <trkpt lat="39.9499870" lon="-4.5689700">
        <ele>446.7</ele>
        <time>2022-03-01T17:15:54Z</time>
      </trkpt>
      <trkpt lat="39.9499220" lon="-4.5688970">
        <ele>446.1</ele>
        <time>2022-03-01T17:15:55Z</time>
      </trkpt>
      <trkpt lat="39.9498560" lon="-4.5688240">
        <ele>445.5</ele>
        <time>2022-03-01T17:15:56Z</time>
      </trkpt>
      <trkpt lat="39.9497920" lon="-4.5687310">
        <ele>444.7</ele>
        <time>2022-03-01T17:15:57Z</time>
      </trkpt>
      <trkpt lat="39.9497370" lon="-4.5686260">
        <ele>443.9</ele>
        <time>2022-03-01T17:15:58Z</time>
      </trkpt>
      <trkpt lat="39.9496980" lon="-4.5684990">
        <ele>443.1</ele>
        <time>2022-03-01T17:15:59Z</time>
      </trkpt>
      <trkpt lat="39.9496780" lon="-4.5683420">
        <ele>442.1</ele>
        <time>2022-03-01T17:16:00Z</time>
      </trkpt>
      <trkpt lat="39.9496660" lon="-4.5681840">
        <ele>441.0</ele>
        <time>2022-03-01T17:16:01Z</time>
      </trkpt>
      <trkpt lat="39.9496780" lon="-4.5680220">
        <ele>440.0</ele>
        <time>2022-03-01T17:16:02Z</time>
      </trkpt>
      <trkpt lat="39.9497020" lon="-4.5678690">
        <ele>438.9</ele>
        <time>2022-03-01T17:16:03Z</time>
      </trkpt>
      <trkpt lat="39.9497370" lon="-4.5677190">
        <ele>437.8</ele>
        <time>2022-03-01T17:16:04Z</time>
      </trkpt>
      <trkpt lat="39.9497790" lon="-4.5675670">
        <ele>436.7</ele>
        <time>2022-03-01T17:16:05Z</time>
      </trkpt>
      <trkpt lat="39.9498260" lon="-4.5674100">
        <ele>435.7</ele>
        <time>2022-03-01T17:16:06Z</time>
      </trkpt>
      <trkpt lat="39.9498750" lon="-4.5672510">
        <ele>434.8</ele>
        <time>2022-03-01T17:16:07Z</time>
      </trkpt>
      <trkpt lat="39.9499140" lon="-4.5670890">
        <ele>433.9</ele>
        <time>2022-03-01T17:16:08Z</time>
      </trkpt>
      <trkpt lat="39.9499250" lon="-4.5669340">
        <ele>433.1</ele>
        <time>2022-03-01T17:16:09Z</time>
      </trkpt>
      <trkpt lat="39.9498990" lon="-4.5667800">
        <ele>432.2</ele>
        <time>2022-03-01T17:16:10Z</time>
      </trkpt>
      <trkpt lat="39.9498340" lon="-4.5666490">
        <ele>431.3</ele>
        <time>2022-03-01T17:16:11Z</time>
      </trkpt>
      <trkpt lat="39.9497530" lon="-4.5665540">
        <ele>431.2</ele>
        <time>2022-03-01T17:16:12Z</time>
      </trkpt>
      <trkpt lat="39.9496650" lon="-4.5664780">
        <ele>431.2</ele>
        <time>2022-03-01T17:16:13Z</time>
      </trkpt>
      <trkpt lat="39.9495740" lon="-4.5664180">
        <ele>431.2</ele>
        <time>2022-03-01T17:16:14Z</time>
      </trkpt>
      <trkpt lat="39.9494930" lon="-4.5663650">
        <ele>431.2</ele>
        <time>2022-03-01T17:16:15Z</time>
      </trkpt>
      <trkpt lat="39.9494130" lon="-4.5663260">
        <ele>431.4</ele>
        <time>2022-03-01T17:16:16Z</time>
      </trkpt>
      <trkpt lat="39.9493430" lon="-4.5662960">
        <ele>431.6</ele>
        <time>2022-03-01T17:16:17Z</time>
      </trkpt>
      <trkpt lat="39.9492810" lon="-4.5662880">
        <ele>431.8</ele>
        <time>2022-03-01T17:16:18Z</time>
      </trkpt>
      <trkpt lat="39.9492280" lon="-4.5662820">
        <ele>431.9</ele>
        <time>2022-03-01T17:16:19Z</time>
      </trkpt>
      <trkpt lat="39.9491880" lon="-4.5662860">
        <ele>432.0</ele>
        <time>2022-03-01T17:16:20Z</time>
      </trkpt>
      <trkpt lat="39.9491550" lon="-4.5662880">
        <ele>432.1</ele>
        <time>2022-03-01T17:16:21Z</time>
      </trkpt>
      <trkpt lat="39.9491200" lon="-4.5662930">
        <ele>432.2</ele>
        <time>2022-03-01T17:16:22Z</time>
      </trkpt>
      <trkpt lat="39.9491090" lon="-4.5662950">
        <ele>432.3</ele>
        <time>2022-03-01T17:16:23Z</time>
      </trkpt>
      <trkpt lat="39.9490930" lon="-4.5663030">
        <ele>432.3</ele>
        <time>2022-03-01T17:16:24Z</time>
      </trkpt>
      <trkpt lat="39.9490810" lon="-4.5663080">
        <ele>432.4</ele>
        <time>2022-03-01T17:16:25Z</time>
      </trkpt>
      <trkpt lat="39.9490750" lon="-4.5663060">
        <ele>432.4</ele>
        <time>2022-03-01T17:16:26Z</time>
      </trkpt>
      <trkpt lat="39.9490690" lon="-4.5663060">
        <ele>432.4</ele>
        <time>2022-03-01T17:16:27Z</time>
      </trkpt>
      <trkpt lat="39.9490660" lon="-4.5663060">
        <ele>432.4</ele>
        <time>2022-03-01T17:16:28Z</time>
      </trkpt>
      <trkpt lat="39.9490630" lon="-4.5663050">
        <ele>432.4</ele>
        <time>2022-03-01T17:16:29Z</time>
      </trkpt>
      <trkpt lat="39.9490610" lon="-4.5663070">
        <ele>432.5</ele>
        <time>2022-03-01T17:16:30Z</time>
      </trkpt>
      <trkpt lat="39.9490530" lon="-4.5663130">
        <ele>432.5</ele>
        <time>2022-03-01T17:16:31Z</time>
      </trkpt>
      <trkpt lat="39.9490230" lon="-4.5663310">
        <ele>432.6</ele>
        <time>2022-03-01T17:16:32Z</time>
      </trkpt>
      <trkpt lat="39.9490130" lon="-4.5663370">
        <ele>432.6</ele>
        <time>2022-03-01T17:16:33Z</time>
      </trkpt>
      <trkpt lat="39.9489870" lon="-4.5663580">
        <ele>432.7</ele>
        <time>2022-03-01T17:16:34Z</time>
      </trkpt>
      <trkpt lat="39.9489770" lon="-4.5663660">
        <ele>432.8</ele>
        <time>2022-03-01T17:16:35Z</time>
      </trkpt>
      <trkpt lat="39.9489490" lon="-4.5663780">
        <ele>432.9</ele>
        <time>2022-03-01T17:16:36Z</time>
      </trkpt>
      <trkpt lat="39.9489240" lon="-4.5664030">
        <ele>433.0</ele>
        <time>2022-03-01T17:16:37Z</time>
      </trkpt>
      <trkpt lat="39.9489140" lon="-4.5664110">
        <ele>433.0</ele>
        <time>2022-03-01T17:16:38Z</time>
      </trkpt>
      <trkpt lat="39.9488810" lon="-4.5664250">
        <ele>433.2</ele>
        <time>2022-03-01T17:16:39Z</time>
      </trkpt>
      <trkpt lat="39.9488390" lon="-4.5664370">
        <ele>433.3</ele>
        <time>2022-03-01T17:16:40Z</time>
      </trkpt>
      <trkpt lat="39.9487970" lon="-4.5664510">
        <ele>433.4</ele>
        <time>2022-03-01T17:16:41Z</time>
      </trkpt>
      <trkpt lat="39.9487490" lon="-4.5664670">
        <ele>433.6</ele>
        <time>2022-03-01T17:16:42Z</time>
      </trkpt>
      <trkpt lat="39.9486980" lon="-4.5664810">
        <ele>433.6</ele>
        <time>2022-03-01T17:16:43Z</time>
      </trkpt>
      <trkpt lat="39.9486760" lon="-4.5665100">
        <ele>433.7</ele>
        <time>2022-03-01T17:16:44Z</time>
      </trkpt>
      <trkpt lat="39.9486440" lon="-4.5665230">
        <ele>433.7</ele>
        <time>2022-03-01T17:16:45Z</time>
      </trkpt>
      <trkpt lat="39.9485920" lon="-4.5665380">
        <ele>433.9</ele>
        <time>2022-03-01T17:16:46Z</time>
      </trkpt>
      <trkpt lat="39.9485470" lon="-4.5665540">
        <ele>434.1</ele>
        <time>2022-03-01T17:16:47Z</time>
      </trkpt>
      <trkpt lat="39.9484960" lon="-4.5665640">
        <ele>434.2</ele>
        <time>2022-03-01T17:16:48Z</time>
      </trkpt>
      <trkpt lat="39.9484520" lon="-4.5665790">
        <ele>434.4</ele>
        <time>2022-03-01T17:16:49Z</time>
      </trkpt>
      <trkpt lat="39.9484000" lon="-4.5665900">
        <ele>434.6</ele>
        <time>2022-03-01T17:16:50Z</time>
      </trkpt>
      <trkpt lat="39.9483440" lon="-4.5666010">
        <ele>434.8</ele>
        <time>2022-03-01T17:16:51Z</time>
      </trkpt>
      <trkpt lat="39.9482960" lon="-4.5666120">
        <ele>435.0</ele>
        <time>2022-03-01T17:16:52Z</time>
      </trkpt>
      <trkpt lat="39.9482470" lon="-4.5666300">
        <ele>435.2</ele>
        <time>2022-03-01T17:16:53Z</time>
      </trkpt>
      <trkpt lat="39.9481940" lon="-4.5666490">
        <ele>435.4</ele>
        <time>2022-03-01T17:16:54Z</time>
      </trkpt>
      <trkpt lat="39.9481390" lon="-4.5666610">
        <ele>435.7</ele>
        <time>2022-03-01T17:16:55Z</time>
      </trkpt>
      <trkpt lat="39.9480830" lon="-4.5666740">
        <ele>435.9</ele>
        <time>2022-03-01T17:16:56Z</time>
      </trkpt>
      <trkpt lat="39.9480320" lon="-4.5666910">
        <ele>436.1</ele>
        <time>2022-03-01T17:16:57Z</time>
      </trkpt>
      <trkpt lat="39.9479770" lon="-4.5667020">
        <ele>436.2</ele>
        <time>2022-03-01T17:16:58Z</time>
      </trkpt>
      <trkpt lat="39.9479230" lon="-4.5667160">
        <ele>436.4</ele>
        <time>2022-03-01T17:16:59Z</time>
      </trkpt>
      <trkpt lat="39.9478650" lon="-4.5667260">
        <ele>436.6</ele>
        <time>2022-03-01T17:17:00Z</time>
      </trkpt>
      <trkpt lat="39.9478140" lon="-4.5667390">
        <ele>436.8</ele>
        <time>2022-03-01T17:17:01Z</time>
      </trkpt>
      <trkpt lat="39.9477700" lon="-4.5667540">
        <ele>437.0</ele>
        <time>2022-03-01T17:17:02Z</time>
      </trkpt>
      <trkpt lat="39.9477180" lon="-4.5667580">
        <ele>437.2</ele>
        <time>2022-03-01T17:17:03Z</time>
      </trkpt>
      <trkpt lat="39.9476700" lon="-4.5667590">
        <ele>437.3</ele>
        <time>2022-03-01T17:17:04Z</time>
      </trkpt>
      <trkpt lat="39.9476180" lon="-4.5667630">
        <ele>437.5</ele>
        <time>2022-03-01T17:17:05Z</time>
      </trkpt>
      <trkpt lat="39.9475680" lon="-4.5667640">
        <ele>437.6</ele>
        <time>2022-03-01T17:17:06Z</time>
      </trkpt>
      <trkpt lat="39.9475230" lon="-4.5667690">
        <ele>437.8</ele>
        <time>2022-03-01T17:17:07Z</time>
      </trkpt>
      <trkpt lat="39.9474660" lon="-4.5667660">
        <ele>438.0</ele>
        <time>2022-03-01T17:17:08Z</time>
      </trkpt>
      <trkpt lat="39.9474200" lon="-4.5667560">
        <ele>438.1</ele>
        <time>2022-03-01T17:17:09Z</time>
      </trkpt>
      <trkpt lat="39.9473690" lon="-4.5667550">
        <ele>438.2</ele>
        <time>2022-03-01T17:17:10Z</time>
      </trkpt>
      <trkpt lat="39.9473110" lon="-4.5667420">
        <ele>438.4</ele>
        <time>2022-03-01T17:17:11Z</time>
      </trkpt>
      <trkpt lat="39.9472330" lon="-4.5667150">
        <ele>438.7</ele>
        <time>2022-03-01T17:17:12Z</time>
      </trkpt>
      <trkpt lat="39.9471740" lon="-4.5667070">
        <ele>438.8</ele>
        <time>2022-03-01T17:17:13Z</time>
      </trkpt>
      <trkpt lat="39.9471100" lon="-4.5667000">
        <ele>439.0</ele>
        <time>2022-03-01T17:17:14Z</time>
      </trkpt>
      <trkpt lat="39.9470520" lon="-4.5666790">
        <ele>439.2</ele>
        <time>2022-03-01T17:17:15Z</time>
      </trkpt>
      <trkpt lat="39.9469920" lon="-4.5666590">
        <ele>439.4</ele>
        <time>2022-03-01T17:17:16Z</time>
      </trkpt>
      <trkpt lat="39.9469370" lon="-4.5666500">
        <ele>439.5</ele>
        <time>2022-03-01T17:17:17Z</time>
      </trkpt>
      <trkpt lat="39.9468780" lon="-4.5666400">
        <ele>439.7</ele>
        <time>2022-03-01T17:17:18Z</time>
      </trkpt>
      <trkpt lat="39.9468210" lon="-4.5666280">
        <ele>439.8</ele>
        <time>2022-03-01T17:17:19Z</time>
      </trkpt>
      <trkpt lat="39.9467660" lon="-4.5666100">
        <ele>439.9</ele>
        <time>2022-03-01T17:17:20Z</time>
      </trkpt>
      <trkpt lat="39.9467130" lon="-4.5666020">
        <ele>440.0</ele>
        <time>2022-03-01T17:17:21Z</time>
      </trkpt>
      <trkpt lat="39.9466610" lon="-4.5665960">
        <ele>440.1</ele>
        <time>2022-03-01T17:17:22Z</time>
      </trkpt>
      <trkpt lat="39.9466040" lon="-4.5665750">
        <ele>440.2</ele>
        <time>2022-03-01T17:17:23Z</time>
      </trkpt>
      <trkpt lat="39.9465560" lon="-4.5665750">
        <ele>440.3</ele>
        <time>2022-03-01T17:17:24Z</time>
      </trkpt>
      <trkpt lat="39.9465090" lon="-4.5665750">
        <ele>440.4</ele>
        <time>2022-03-01T17:17:25Z</time>
      </trkpt>
      <trkpt lat="39.9464560" lon="-4.5665640">
        <ele>440.5</ele>
        <time>2022-03-01T17:17:26Z</time>
      </trkpt>
      <trkpt lat="39.9464020" lon="-4.5665490">
        <ele>440.6</ele>
        <time>2022-03-01T17:17:27Z</time>
      </trkpt>
      <trkpt lat="39.9463510" lon="-4.5665390">
        <ele>440.7</ele>
        <time>2022-03-01T17:17:28Z</time>
      </trkpt>
      <trkpt lat="39.9462990" lon="-4.5665360">
        <ele>440.9</ele>
        <time>2022-03-01T17:17:29Z</time>
      </trkpt>
      <trkpt lat="39.9462450" lon="-4.5665380">
        <ele>441.1</ele>
        <time>2022-03-01T17:17:30Z</time>
      </trkpt>
      <trkpt lat="39.9461920" lon="-4.5665410">
        <ele>441.2</ele>
        <time>2022-03-01T17:17:31Z</time>
      </trkpt>
      <trkpt lat="39.9461270" lon="-4.5665450">
        <ele>441.4</ele>
        <time>2022-03-01T17:17:32Z</time>
      </trkpt>
      <trkpt lat="39.9460740" lon="-4.5665570">
        <ele>441.5</ele>
        <time>2022-03-01T17:17:33Z</time>
      </trkpt>
      <trkpt lat="39.9459990" lon="-4.5665770">
        <ele>441.6</ele>
        <time>2022-03-01T17:17:34Z</time>
      </trkpt>
      <trkpt lat="39.9459410" lon="-4.5666060">
        <ele>441.6</ele>
        <time>2022-03-01T17:17:35Z</time>
      </trkpt>
      <trkpt lat="39.9458860" lon="-4.5666370">
        <ele>441.6</ele>
        <time>2022-03-01T17:17:36Z</time>
      </trkpt>
      <trkpt lat="39.9458340" lon="-4.5666720">
        <ele>441.5</ele>
        <time>2022-03-01T17:17:37Z</time>
      </trkpt>
      <trkpt lat="39.9457840" lon="-4.5667120">
        <ele>441.5</ele>
        <time>2022-03-01T17:17:38Z</time>
      </trkpt>
      <trkpt lat="39.9457290" lon="-4.5667360">
        <ele>441.5</ele>
        <time>2022-03-01T17:17:39Z</time>
      </trkpt>
      <trkpt lat="39.9456670" lon="-4.5667690">
        <ele>441.4</ele>
        <time>2022-03-01T17:17:40Z</time>
      </trkpt>
      <trkpt lat="39.9456070" lon="-4.5668050">
        <ele>441.4</ele>
        <time>2022-03-01T17:17:41Z</time>
      </trkpt>
      <trkpt lat="39.9455530" lon="-4.5668510">
        <ele>441.4</ele>
        <time>2022-03-01T17:17:42Z</time>
      </trkpt>
      <trkpt lat="39.9454820" lon="-4.5668850">
        <ele>441.3</ele>
        <time>2022-03-01T17:17:43Z</time>
      </trkpt>
      <trkpt lat="39.9454280" lon="-4.5669200">
        <ele>441.3</ele>
        <time>2022-03-01T17:17:44Z</time>
      </trkpt>
      <trkpt lat="39.9453670" lon="-4.5669530">
        <ele>441.2</ele>
        <time>2022-03-01T17:17:45Z</time>
      </trkpt>
      <trkpt lat="39.9453070" lon="-4.5669800">
        <ele>441.2</ele>
        <time>2022-03-01T17:17:46Z</time>
      </trkpt>
      <trkpt lat="39.9452430" lon="-4.5670050">
        <ele>441.2</ele>
        <time>2022-03-01T17:17:47Z</time>
      </trkpt>
      <trkpt lat="39.9451780" lon="-4.5670260">
        <ele>441.1</ele>
        <time>2022-03-01T17:17:48Z</time>
      </trkpt>
      <trkpt lat="39.9451140" lon="-4.5670470">
        <ele>441.1</ele>
        <time>2022-03-01T17:17:49Z</time>
      </trkpt>
      <trkpt lat="39.9450400" lon="-4.5670670">
        <ele>441.0</ele>
        <time>2022-03-01T17:17:50Z</time>
      </trkpt>
      <trkpt lat="39.9449680" lon="-4.5670780">
        <ele>441.0</ele>
        <time>2022-03-01T17:17:51Z</time>
      </trkpt>
      <trkpt lat="39.9449020" lon="-4.5670840">
        <ele>440.9</ele>
        <time>2022-03-01T17:17:52Z</time>
      </trkpt>
      <trkpt lat="39.9448500" lon="-4.5671000">
        <ele>440.9</ele>
        <time>2022-03-01T17:17:53Z</time>
      </trkpt>
      <trkpt lat="39.9447790" lon="-4.5671080">
        <ele>440.9</ele>
        <time>2022-03-01T17:17:54Z</time>
      </trkpt>
      <trkpt lat="39.9447180" lon="-4.5671030">
        <ele>440.8</ele>
        <time>2022-03-01T17:17:55Z</time>
      </trkpt>
      <trkpt lat="39.9446600" lon="-4.5670980">
        <ele>440.8</ele>
        <time>2022-03-01T17:17:56Z</time>
      </trkpt>
      <trkpt lat="39.9445810" lon="-4.5670870">
        <ele>440.8</ele>
        <time>2022-03-01T17:17:57Z</time>
      </trkpt>
      <trkpt lat="39.9445300" lon="-4.5670990">
        <ele>440.7</ele>
        <time>2022-03-01T17:17:58Z</time>
      </trkpt>
      <trkpt lat="39.9444830" lon="-4.5670930">
        <ele>440.7</ele>
        <time>2022-03-01T17:17:59Z</time>
      </trkpt>
      <trkpt lat="39.9444260" lon="-4.5670870">
        <ele>440.7</ele>
        <time>2022-03-01T17:18:00Z</time>
      </trkpt>
      <trkpt lat="39.9443660" lon="-4.5670790">
        <ele>440.7</ele>
        <time>2022-03-01T17:18:01Z</time>
      </trkpt>
      <trkpt lat="39.9443000" lon="-4.5670680">
        <ele>440.6</ele>
        <time>2022-03-01T17:18:02Z</time>
      </trkpt>
      <trkpt lat="39.9442440" lon="-4.5670650">
        <ele>440.6</ele>
        <time>2022-03-01T17:18:03Z</time>
      </trkpt>
      <trkpt lat="39.9441810" lon="-4.5670610">
        <ele>440.7</ele>
        <time>2022-03-01T17:18:04Z</time>
      </trkpt>
      <trkpt lat="39.9441220" lon="-4.5670440">
        <ele>440.7</ele>
        <time>2022-03-01T17:18:05Z</time>
      </trkpt>
      <trkpt lat="39.9440680" lon="-4.5670400">
        <ele>440.7</ele>
        <time>2022-03-01T17:18:06Z</time>
      </trkpt>
      <trkpt lat="39.9440140" lon="-4.5670330">
        <ele>440.7</ele>
        <time>2022-03-01T17:18:07Z</time>
      </trkpt>
      <trkpt lat="39.9439530" lon="-4.5670220">
        <ele>440.7</ele>
        <time>2022-03-01T17:18:08Z</time>
      </trkpt>
      <trkpt lat="39.9439030" lon="-4.5670310">
        <ele>440.8</ele>
        <time>2022-03-01T17:18:09Z</time>
      </trkpt>
      <trkpt lat="39.9438450" lon="-4.5670400">
        <ele>440.8</ele>
        <time>2022-03-01T17:18:10Z</time>
      </trkpt>
      <trkpt lat="39.9438000" lon="-4.5670360">
        <ele>440.8</ele>
        <time>2022-03-01T17:18:11Z</time>
      </trkpt>
      <trkpt lat="39.9437510" lon="-4.5670300">
        <ele>440.8</ele>
        <time>2022-03-01T17:18:12Z</time>
      </trkpt>
      <trkpt lat="39.9436910" lon="-4.5670220">
        <ele>440.8</ele>
        <time>2022-03-01T17:18:13Z</time>
      </trkpt>
      <trkpt lat="39.9436180" lon="-4.5670060">
        <ele>440.8</ele>
        <time>2022-03-01T17:18:14Z</time>
      </trkpt>
      <trkpt lat="39.9435560" lon="-4.5669970">
        <ele>440.8</ele>
        <time>2022-03-01T17:18:15Z</time>
      </trkpt>
      <trkpt lat="39.9434940" lon="-4.5669910">
        <ele>440.8</ele>
        <time>2022-03-01T17:18:16Z</time>
      </trkpt>
      <trkpt lat="39.9434390" lon="-4.5669850">
        <ele>440.8</ele>
        <time>2022-03-01T17:18:17Z</time>
      </trkpt>
      <trkpt lat="39.9433780" lon="-4.5669590">
        <ele>440.8</ele>
        <time>2022-03-01T17:18:18Z</time>
      </trkpt>
      <trkpt lat="39.9433200" lon="-4.5669460">
        <ele>440.8</ele>
        <time>2022-03-01T17:18:19Z</time>
      </trkpt>
      <trkpt lat="39.9432650" lon="-4.5669380">
        <ele>440.7</ele>
        <time>2022-03-01T17:18:20Z</time>
      </trkpt>
      <trkpt lat="39.9432090" lon="-4.5669240">
        <ele>440.7</ele>
        <time>2022-03-01T17:18:21Z</time>
      </trkpt>
      <trkpt lat="39.9431550" lon="-4.5669170">
        <ele>440.6</ele>
        <time>2022-03-01T17:18:22Z</time>
      </trkpt>
      <trkpt lat="39.9430930" lon="-4.5669070">
        <ele>440.6</ele>
        <time>2022-03-01T17:18:23Z</time>
      </trkpt>
      <trkpt lat="39.9430280" lon="-4.5668950">
        <ele>440.5</ele>
        <time>2022-03-01T17:18:24Z</time>
      </trkpt>
      <trkpt lat="39.9429650" lon="-4.5668880">
        <ele>440.5</ele>
        <time>2022-03-01T17:18:25Z</time>
      </trkpt>
      <trkpt lat="39.9429050" lon="-4.5668790">
        <ele>440.4</ele>
        <time>2022-03-01T17:18:26Z</time>
      </trkpt>
      <trkpt lat="39.9428460" lon="-4.5668630">
        <ele>440.3</ele>
        <time>2022-03-01T17:18:27Z</time>
      </trkpt>
      <trkpt lat="39.9427820" lon="-4.5668500">
        <ele>440.2</ele>
        <time>2022-03-01T17:18:28Z</time>
      </trkpt>
      <trkpt lat="39.9427180" lon="-4.5668520">
        <ele>440.1</ele>
        <time>2022-03-01T17:18:29Z</time>
      </trkpt>
      <trkpt lat="39.9426600" lon="-4.5668420">
        <ele>440.0</ele>
        <time>2022-03-01T17:18:30Z</time>
      </trkpt>
      <trkpt lat="39.9425980" lon="-4.5668420">
        <ele>439.9</ele>
        <time>2022-03-01T17:18:31Z</time>
      </trkpt>
      <trkpt lat="39.9425300" lon="-4.5668380">
        <ele>439.8</ele>
        <time>2022-03-01T17:18:32Z</time>
      </trkpt>
      <trkpt lat="39.9424650" lon="-4.5668310">
        <ele>439.7</ele>
        <time>2022-03-01T17:18:33Z</time>
      </trkpt>
      <trkpt lat="39.9424020" lon="-4.5668200">
        <ele>439.6</ele>
        <time>2022-03-01T17:18:34Z</time>
      </trkpt>
      <trkpt lat="39.9423430" lon="-4.5668150">
        <ele>439.5</ele>
        <time>2022-03-01T17:18:35Z</time>
      </trkpt>
      <trkpt lat="39.9422770" lon="-4.5668040">
        <ele>439.5</ele>
        <time>2022-03-01T17:18:36Z</time>
      </trkpt>
      <trkpt lat="39.9422130" lon="-4.5667900">
        <ele>439.4</ele>
        <time>2022-03-01T17:18:37Z</time>
      </trkpt>
      <trkpt lat="39.9421540" lon="-4.5667900">
        <ele>439.3</ele>
        <time>2022-03-01T17:18:38Z</time>
      </trkpt>
      <trkpt lat="39.9420980" lon="-4.5667840">
        <ele>439.2</ele>
        <time>2022-03-01T17:18:39Z</time>
      </trkpt>
      <trkpt lat="39.9420440" lon="-4.5667750">
        <ele>439.1</ele>
        <time>2022-03-01T17:18:40Z</time>
      </trkpt>
      <trkpt lat="39.9419920" lon="-4.5667640">
        <ele>439.1</ele>
        <time>2022-03-01T17:18:41Z</time>
      </trkpt>
      <trkpt lat="39.9419370" lon="-4.5667570">
        <ele>439.0</ele>
        <time>2022-03-01T17:18:42Z</time>
      </trkpt>
      <trkpt lat="39.9418890" lon="-4.5667540">
        <ele>438.9</ele>
        <time>2022-03-01T17:18:43Z</time>
      </trkpt>
      <trkpt lat="39.9418470" lon="-4.5667480">
        <ele>438.9</ele>
        <time>2022-03-01T17:18:44Z</time>
      </trkpt>
      <trkpt lat="39.9417940" lon="-4.5667320">
        <ele>438.8</ele>
        <time>2022-03-01T17:18:45Z</time>
      </trkpt>
      <trkpt lat="39.9417370" lon="-4.5667280">
        <ele>438.7</ele>
        <time>2022-03-01T17:18:46Z</time>
      </trkpt>
      <trkpt lat="39.9416790" lon="-4.5667300">
        <ele>438.6</ele>
        <time>2022-03-01T17:18:47Z</time>
      </trkpt>
      <trkpt lat="39.9416280" lon="-4.5667320">
        <ele>438.5</ele>
        <time>2022-03-01T17:18:48Z</time>
      </trkpt>
      <trkpt lat="39.9415800" lon="-4.5667340">
        <ele>438.4</ele>
        <time>2022-03-01T17:18:49Z</time>
      </trkpt>
      <trkpt lat="39.9415180" lon="-4.5667390">
        <ele>438.4</ele>
        <time>2022-03-01T17:18:50Z</time>
      </trkpt>
      <trkpt lat="39.9414440" lon="-4.5666930">
        <ele>438.3</ele>
        <time>2022-03-01T17:18:51Z</time>
      </trkpt>
      <trkpt lat="39.9413830" lon="-4.5666970">
        <ele>438.2</ele>
        <time>2022-03-01T17:18:52Z</time>
      </trkpt>
      <trkpt lat="39.9413200" lon="-4.5666830">
        <ele>438.1</ele>
        <time>2022-03-01T17:18:53Z</time>
      </trkpt>
      <trkpt lat="39.9412730" lon="-4.5666890">
        <ele>438.0</ele>
        <time>2022-03-01T17:18:54Z</time>
      </trkpt>
      <trkpt lat="39.9412210" lon="-4.5667270">
        <ele>437.9</ele>
        <time>2022-03-01T17:18:55Z</time>
      </trkpt>
      <trkpt lat="39.9411730" lon="-4.5667780">
        <ele>437.8</ele>
        <time>2022-03-01T17:18:56Z</time>
      </trkpt>
      <trkpt lat="39.9411110" lon="-4.5668250">
        <ele>437.7</ele>
        <time>2022-03-01T17:18:57Z</time>
      </trkpt>
      <trkpt lat="39.9410700" lon="-4.5668690">
        <ele>437.6</ele>
        <time>2022-03-01T17:18:58Z</time>
      </trkpt>
      <trkpt lat="39.9410150" lon="-4.5669220">
        <ele>437.4</ele>
        <time>2022-03-01T17:18:59Z</time>
      </trkpt>
      <trkpt lat="39.9409620" lon="-4.5669660">
        <ele>437.3</ele>
        <time>2022-03-01T17:19:00Z</time>
      </trkpt>
      <trkpt lat="39.9409060" lon="-4.5670000">
        <ele>437.3</ele>
        <time>2022-03-01T17:19:01Z</time>
      </trkpt>
      <trkpt lat="39.9408350" lon="-4.5669890">
        <ele>437.2</ele>
        <time>2022-03-01T17:19:02Z</time>
      </trkpt>
      <trkpt lat="39.9407730" lon="-4.5669520">
        <ele>437.0</ele>
        <time>2022-03-01T17:19:03Z</time>
      </trkpt>
      <trkpt lat="39.9407190" lon="-4.5668810">
        <ele>436.9</ele>
        <time>2022-03-01T17:19:04Z</time>
      </trkpt>
      <trkpt lat="39.9406610" lon="-4.5667910">
        <ele>436.9</ele>
        <time>2022-03-01T17:19:05Z</time>
      </trkpt>
      <trkpt lat="39.9406010" lon="-4.5667250">
        <ele>436.8</ele>
        <time>2022-03-01T17:19:06Z</time>
      </trkpt>
      <trkpt lat="39.9405600" lon="-4.5666260">
        <ele>436.8</ele>
        <time>2022-03-01T17:19:07Z</time>
      </trkpt>
      <trkpt lat="39.9405210" lon="-4.5665260">
        <ele>436.7</ele>
        <time>2022-03-01T17:19:08Z</time>
      </trkpt>
      <trkpt lat="39.9404770" lon="-4.5664360">
        <ele>436.7</ele>
        <time>2022-03-01T17:19:09Z</time>
      </trkpt>
      <trkpt lat="39.9404290" lon="-4.5663490">
        <ele>436.7</ele>
        <time>2022-03-01T17:19:10Z</time>
      </trkpt>
      <trkpt lat="39.9403770" lon="-4.5662600">
        <ele>436.6</ele>
        <time>2022-03-01T17:19:11Z</time>
      </trkpt>
      <trkpt lat="39.9403160" lon="-4.5661940">
        <ele>436.6</ele>
        <time>2022-03-01T17:19:12Z</time>
      </trkpt>
      <trkpt lat="39.9402450" lon="-4.5661360">
        <ele>436.5</ele>
        <time>2022-03-01T17:19:13Z</time>
      </trkpt>
      <trkpt lat="39.9401860" lon="-4.5660780">
        <ele>436.4</ele>
        <time>2022-03-01T17:19:14Z</time>
      </trkpt>
      <trkpt lat="39.9401210" lon="-4.5660110">
        <ele>436.2</ele>
        <time>2022-03-01T17:19:15Z</time>
      </trkpt>
      <trkpt lat="39.9400530" lon="-4.5659570">
        <ele>436.1</ele>
        <time>2022-03-01T17:19:16Z</time>
      </trkpt>
      <trkpt lat="39.9399840" lon="-4.5658990">
        <ele>435.9</ele>
        <time>2022-03-01T17:19:17Z</time>
      </trkpt>
      <trkpt lat="39.9399170" lon="-4.5658390">
        <ele>435.8</ele>
        <time>2022-03-01T17:19:18Z</time>
      </trkpt>
      <trkpt lat="39.9398540" lon="-4.5658000">
        <ele>435.6</ele>
        <time>2022-03-01T17:19:19Z</time>
      </trkpt>
      <trkpt lat="39.9397880" lon="-4.5657200">
        <ele>435.5</ele>
        <time>2022-03-01T17:19:20Z</time>
      </trkpt>
      <trkpt lat="39.9397190" lon="-4.5656630">
        <ele>435.3</ele>
        <time>2022-03-01T17:19:21Z</time>
      </trkpt>
      <trkpt lat="39.9396500" lon="-4.5656180">
        <ele>435.1</ele>
        <time>2022-03-01T17:19:22Z</time>
      </trkpt>
      <trkpt lat="39.9395820" lon="-4.5655650">
        <ele>435.0</ele>
        <time>2022-03-01T17:19:23Z</time>
      </trkpt>
      <trkpt lat="39.9395170" lon="-4.5655130">
        <ele>434.8</ele>
        <time>2022-03-01T17:19:24Z</time>
      </trkpt>
      <trkpt lat="39.9394510" lon="-4.5654560">
        <ele>434.7</ele>
        <time>2022-03-01T17:19:25Z</time>
      </trkpt>
      <trkpt lat="39.9393880" lon="-4.5654010">
        <ele>434.5</ele>
        <time>2022-03-01T17:19:26Z</time>
      </trkpt>
      <trkpt lat="39.9393250" lon="-4.5653320">
        <ele>434.3</ele>
        <time>2022-03-01T17:19:27Z</time>
      </trkpt>
      <trkpt lat="39.9392580" lon="-4.5652900">
        <ele>434.2</ele>
        <time>2022-03-01T17:19:28Z</time>
      </trkpt>
      <trkpt lat="39.9391920" lon="-4.5652460">
        <ele>434.0</ele>
        <time>2022-03-01T17:19:29Z</time>
      </trkpt>
      <trkpt lat="39.9391280" lon="-4.5651960">
        <ele>433.9</ele>
        <time>2022-03-01T17:19:30Z</time>
      </trkpt>
      <trkpt lat="39.9390580" lon="-4.5651370">
        <ele>433.7</ele>
        <time>2022-03-01T17:19:31Z</time>
      </trkpt>
      <trkpt lat="39.9389890" lon="-4.5650760">
        <ele>433.5</ele>
        <time>2022-03-01T17:19:32Z</time>
      </trkpt>
      <trkpt lat="39.9389250" lon="-4.5650270">
        <ele>433.3</ele>
        <time>2022-03-01T17:19:33Z</time>
      </trkpt>
      <trkpt lat="39.9388510" lon="-4.5649630">
        <ele>433.1</ele>
        <time>2022-03-01T17:19:34Z</time>
      </trkpt>
      <trkpt lat="39.9387790" lon="-4.5649060">
        <ele>433.0</ele>
        <time>2022-03-01T17:19:35Z</time>
      </trkpt>
      <trkpt lat="39.9387020" lon="-4.5648420">
        <ele>432.8</ele>
        <time>2022-03-01T17:19:36Z</time>
      </trkpt>
      <trkpt lat="39.9386290" lon="-4.5647810">
        <ele>432.6</ele>
        <time>2022-03-01T17:19:37Z</time>
      </trkpt>
      <trkpt lat="39.9385580" lon="-4.5647230">
        <ele>432.5</ele>
        <time>2022-03-01T17:19:38Z</time>
      </trkpt>
      <trkpt lat="39.9384870" lon="-4.5646660">
        <ele>432.3</ele>
        <time>2022-03-01T17:19:39Z</time>
      </trkpt>
      <trkpt lat="39.9384170" lon="-4.5646070">
        <ele>432.1</ele>
        <time>2022-03-01T17:19:40Z</time>
      </trkpt>
      <trkpt lat="39.9383470" lon="-4.5645470">
        <ele>431.9</ele>
        <time>2022-03-01T17:19:41Z</time>
      </trkpt>
      <trkpt lat="39.9382740" lon="-4.5644860">
        <ele>431.7</ele>
        <time>2022-03-01T17:19:42Z</time>
      </trkpt>
      <trkpt lat="39.9381950" lon="-4.5644230">
        <ele>431.5</ele>
        <time>2022-03-01T17:19:43Z</time>
      </trkpt>
      <trkpt lat="39.9381180" lon="-4.5643620">
        <ele>431.3</ele>
        <time>2022-03-01T17:19:44Z</time>
      </trkpt>
      <trkpt lat="39.9380410" lon="-4.5643010">
        <ele>431.1</ele>
        <time>2022-03-01T17:19:45Z</time>
      </trkpt>
      <trkpt lat="39.9379630" lon="-4.5642390">
        <ele>430.9</ele>
        <time>2022-03-01T17:19:46Z</time>
      </trkpt>
      <trkpt lat="39.9378860" lon="-4.5641740">
        <ele>430.8</ele>
        <time>2022-03-01T17:19:47Z</time>
      </trkpt>
      <trkpt lat="39.9378090" lon="-4.5641070">
        <ele>430.6</ele>
        <time>2022-03-01T17:19:48Z</time>
      </trkpt>
      <trkpt lat="39.9377340" lon="-4.5640460">
        <ele>430.4</ele>
        <time>2022-03-01T17:19:49Z</time>
      </trkpt>
      <trkpt lat="39.9376500" lon="-4.5639760">
        <ele>430.2</ele>
        <time>2022-03-01T17:19:50Z</time>
      </trkpt>
      <trkpt lat="39.9375700" lon="-4.5639070">
        <ele>430.0</ele>
        <time>2022-03-01T17:19:51Z</time>
      </trkpt>
      <trkpt lat="39.9374900" lon="-4.5638390">
        <ele>429.8</ele>
        <time>2022-03-01T17:19:52Z</time>
      </trkpt>
      <trkpt lat="39.9374070" lon="-4.5637660">
        <ele>429.6</ele>
        <time>2022-03-01T17:19:53Z</time>
      </trkpt>
      <trkpt lat="39.9373280" lon="-4.5637000">
        <ele>429.3</ele>
        <time>2022-03-01T17:19:54Z</time>
      </trkpt>
      <trkpt lat="39.9372470" lon="-4.5636310">
        <ele>429.1</ele>
        <time>2022-03-01T17:19:55Z</time>
      </trkpt>
      <trkpt lat="39.9371690" lon="-4.5635680">
        <ele>428.9</ele>
        <time>2022-03-01T17:19:56Z</time>
      </trkpt>
      <trkpt lat="39.9370890" lon="-4.5635000">
        <ele>428.6</ele>
        <time>2022-03-01T17:19:57Z</time>
      </trkpt>
      <trkpt lat="39.9370070" lon="-4.5634330">
        <ele>428.3</ele>
        <time>2022-03-01T17:19:58Z</time>
      </trkpt>
      <trkpt lat="39.9369260" lon="-4.5633760">
        <ele>428.1</ele>
        <time>2022-03-01T17:19:59Z</time>
      </trkpt>
      <trkpt lat="39.9368430" lon="-4.5633050">
        <ele>427.8</ele>
        <time>2022-03-01T17:20:00Z</time>
      </trkpt>
      <trkpt lat="39.9367590" lon="-4.5632410">
        <ele>427.6</ele>
        <time>2022-03-01T17:20:01Z</time>
      </trkpt>
      <trkpt lat="39.9366740" lon="-4.5631810">
        <ele>427.4</ele>
        <time>2022-03-01T17:20:02Z</time>
      </trkpt>
      <trkpt lat="39.9365880" lon="-4.5631170">
        <ele>427.3</ele>
        <time>2022-03-01T17:20:03Z</time>
      </trkpt>
      <trkpt lat="39.9365080" lon="-4.5630490">
        <ele>427.0</ele>
        <time>2022-03-01T17:20:04Z</time>
      </trkpt>
      <trkpt lat="39.9364230" lon="-4.5629830">
        <ele>426.7</ele>
        <time>2022-03-01T17:20:05Z</time>
      </trkpt>
      <trkpt lat="39.9363380" lon="-4.5629100">
        <ele>426.4</ele>
        <time>2022-03-01T17:20:06Z</time>
      </trkpt>
      <trkpt lat="39.9362530" lon="-4.5628450">
        <ele>426.1</ele>
        <time>2022-03-01T17:20:07Z</time>
      </trkpt>
      <trkpt lat="39.9361620" lon="-4.5627830">
        <ele>425.8</ele>
        <time>2022-03-01T17:20:08Z</time>
      </trkpt>
      <trkpt lat="39.9360670" lon="-4.5627200">
        <ele>425.4</ele>
        <time>2022-03-01T17:20:09Z</time>
      </trkpt>
      <trkpt lat="39.9359810" lon="-4.5626420">
        <ele>425.1</ele>
        <time>2022-03-01T17:20:10Z</time>
      </trkpt>
      <trkpt lat="39.9358930" lon="-4.5625670">
        <ele>424.7</ele>
        <time>2022-03-01T17:20:11Z</time>
      </trkpt>
      <trkpt lat="39.9358080" lon="-4.5624980">
        <ele>424.3</ele>
        <time>2022-03-01T17:20:12Z</time>
      </trkpt>
      <trkpt lat="39.9357280" lon="-4.5624260">
        <ele>424.0</ele>
        <time>2022-03-01T17:20:13Z</time>
      </trkpt>
      <trkpt lat="39.9356370" lon="-4.5623450">
        <ele>423.6</ele>
        <time>2022-03-01T17:20:14Z</time>
      </trkpt>
      <trkpt lat="39.9355440" lon="-4.5622660">
        <ele>423.2</ele>
        <time>2022-03-01T17:20:15Z</time>
      </trkpt>
      <trkpt lat="39.9354550" lon="-4.5621860">
        <ele>422.9</ele>
        <time>2022-03-01T17:20:16Z</time>
      </trkpt>
      <trkpt lat="39.9353660" lon="-4.5621110">
        <ele>422.6</ele>
        <time>2022-03-01T17:20:17Z</time>
      </trkpt>
      <trkpt lat="39.9352830" lon="-4.5620410">
        <ele>422.3</ele>
        <time>2022-03-01T17:20:18Z</time>
      </trkpt>
      <trkpt lat="39.9351900" lon="-4.5619680">
        <ele>421.9</ele>
        <time>2022-03-01T17:20:19Z</time>
      </trkpt>
      <trkpt lat="39.9350970" lon="-4.5618920">
        <ele>421.6</ele>
        <time>2022-03-01T17:20:20Z</time>
      </trkpt>
      <trkpt lat="39.9350120" lon="-4.5618250">
        <ele>421.3</ele>
        <time>2022-03-01T17:20:21Z</time>
      </trkpt>
      <trkpt lat="39.9349220" lon="-4.5617570">
        <ele>421.0</ele>
        <time>2022-03-01T17:20:22Z</time>
      </trkpt>
      <trkpt lat="39.9348320" lon="-4.5616820">
        <ele>420.8</ele>
        <time>2022-03-01T17:20:23Z</time>
      </trkpt>
      <trkpt lat="39.9347370" lon="-4.5616110">
        <ele>420.5</ele>
        <time>2022-03-01T17:20:24Z</time>
      </trkpt>
      <trkpt lat="39.9346500" lon="-4.5615350">
        <ele>420.3</ele>
        <time>2022-03-01T17:20:25Z</time>
      </trkpt>
      <trkpt lat="39.9345630" lon="-4.5614610">
        <ele>420.1</ele>
        <time>2022-03-01T17:20:26Z</time>
      </trkpt>
      <trkpt lat="39.9344760" lon="-4.5613940">
        <ele>419.8</ele>
        <time>2022-03-01T17:20:27Z</time>
      </trkpt>
      <trkpt lat="39.9343900" lon="-4.5613200">
        <ele>419.6</ele>
        <time>2022-03-01T17:20:28Z</time>
      </trkpt>
      <trkpt lat="39.9343040" lon="-4.5612570">
        <ele>419.4</ele>
        <time>2022-03-01T17:20:29Z</time>
      </trkpt>
      <trkpt lat="39.9342150" lon="-4.5611830">
        <ele>419.1</ele>
        <time>2022-03-01T17:20:30Z</time>
      </trkpt>
      <trkpt lat="39.9341270" lon="-4.5611110">
        <ele>418.9</ele>
        <time>2022-03-01T17:20:31Z</time>
      </trkpt>
      <trkpt lat="39.9340400" lon="-4.5610430">
        <ele>418.7</ele>
        <time>2022-03-01T17:20:32Z</time>
      </trkpt>
      <trkpt lat="39.9339520" lon="-4.5609750">
        <ele>418.5</ele>
        <time>2022-03-01T17:20:33Z</time>
      </trkpt>
      <trkpt lat="39.9338620" lon="-4.5609020">
        <ele>418.2</ele>
        <time>2022-03-01T17:20:34Z</time>
      </trkpt>
      <trkpt lat="39.9337750" lon="-4.5608260">
        <ele>418.0</ele>
        <time>2022-03-01T17:20:35Z</time>
      </trkpt>
      <trkpt lat="39.9336850" lon="-4.5607520">
        <ele>417.8</ele>
        <time>2022-03-01T17:20:36Z</time>
      </trkpt>
      <trkpt lat="39.9335960" lon="-4.5606790">
        <ele>417.6</ele>
        <time>2022-03-01T17:20:37Z</time>
      </trkpt>
      <trkpt lat="39.9335090" lon="-4.5606110">
        <ele>417.4</ele>
        <time>2022-03-01T17:20:38Z</time>
      </trkpt>
      <trkpt lat="39.9334180" lon="-4.5605400">
        <ele>417.3</ele>
        <time>2022-03-01T17:20:39Z</time>
      </trkpt>
      <trkpt lat="39.9333300" lon="-4.5604740">
        <ele>417.1</ele>
        <time>2022-03-01T17:20:40Z</time>
      </trkpt>
      <trkpt lat="39.9332420" lon="-4.5604060">
        <ele>417.0</ele>
        <time>2022-03-01T17:20:41Z</time>
      </trkpt>
      <trkpt lat="39.9331550" lon="-4.5603330">
        <ele>416.9</ele>
        <time>2022-03-01T17:20:42Z</time>
      </trkpt>
      <trkpt lat="39.9330690" lon="-4.5602620">
        <ele>416.8</ele>
        <time>2022-03-01T17:20:43Z</time>
      </trkpt>
      <trkpt lat="39.9329860" lon="-4.5601890">
        <ele>416.7</ele>
        <time>2022-03-01T17:20:44Z</time>
      </trkpt>
      <trkpt lat="39.9328990" lon="-4.5601190">
        <ele>416.6</ele>
        <time>2022-03-01T17:20:45Z</time>
      </trkpt>
      <trkpt lat="39.9328160" lon="-4.5600500">
        <ele>416.5</ele>
        <time>2022-03-01T17:20:46Z</time>
      </trkpt>
      <trkpt lat="39.9327310" lon="-4.5599820">
        <ele>416.4</ele>
        <time>2022-03-01T17:20:47Z</time>
      </trkpt>
      <trkpt lat="39.9326470" lon="-4.5599120">
        <ele>416.3</ele>
        <time>2022-03-01T17:20:48Z</time>
      </trkpt>
      <trkpt lat="39.9325630" lon="-4.5598440">
        <ele>416.2</ele>
        <time>2022-03-01T17:20:49Z</time>
      </trkpt>
      <trkpt lat="39.9324790" lon="-4.5597770">
        <ele>416.1</ele>
        <time>2022-03-01T17:20:50Z</time>
      </trkpt>
      <trkpt lat="39.9323960" lon="-4.5597080">
        <ele>416.0</ele>
        <time>2022-03-01T17:20:51Z</time>
      </trkpt>
      <trkpt lat="39.9323130" lon="-4.5596440">
        <ele>415.9</ele>
        <time>2022-03-01T17:20:52Z</time>
      </trkpt>
      <trkpt lat="39.9322310" lon="-4.5595730">
        <ele>415.8</ele>
        <time>2022-03-01T17:20:53Z</time>
      </trkpt>
      <trkpt lat="39.9321500" lon="-4.5595100">
        <ele>415.7</ele>
        <time>2022-03-01T17:20:54Z</time>
      </trkpt>
      <trkpt lat="39.9320680" lon="-4.5594400">
        <ele>415.6</ele>
        <time>2022-03-01T17:20:55Z</time>
      </trkpt>
      <trkpt lat="39.9319870" lon="-4.5593740">
        <ele>415.5</ele>
        <time>2022-03-01T17:20:56Z</time>
      </trkpt>
      <trkpt lat="39.9319070" lon="-4.5593100">
        <ele>415.4</ele>
        <time>2022-03-01T17:20:57Z</time>
      </trkpt>
      <trkpt lat="39.9318280" lon="-4.5592420">
        <ele>415.4</ele>
        <time>2022-03-01T17:20:58Z</time>
      </trkpt>
      <trkpt lat="39.9317480" lon="-4.5591790">
        <ele>415.3</ele>
        <time>2022-03-01T17:20:59Z</time>
      </trkpt>
      <trkpt lat="39.9316680" lon="-4.5591120">
        <ele>415.2</ele>
        <time>2022-03-01T17:21:00Z</time>
      </trkpt>
      <trkpt lat="39.9315890" lon="-4.5590470">
        <ele>415.1</ele>
        <time>2022-03-01T17:21:01Z</time>
      </trkpt>
      <trkpt lat="39.9315110" lon="-4.5589820">
        <ele>415.0</ele>
        <time>2022-03-01T17:21:02Z</time>
      </trkpt>
      <trkpt lat="39.9314290" lon="-4.5589170">
        <ele>414.9</ele>
        <time>2022-03-01T17:21:03Z</time>
      </trkpt>
      <trkpt lat="39.9313470" lon="-4.5588500">
        <ele>414.8</ele>
        <time>2022-03-01T17:21:04Z</time>
      </trkpt>
      <trkpt lat="39.9312670" lon="-4.5587850">
        <ele>414.8</ele>
        <time>2022-03-01T17:21:05Z</time>
      </trkpt>
      <trkpt lat="39.9311860" lon="-4.5587190">
        <ele>414.6</ele>
        <time>2022-03-01T17:21:06Z</time>
      </trkpt>
      <trkpt lat="39.9311010" lon="-4.5586440">
        <ele>414.5</ele>
        <time>2022-03-01T17:21:07Z</time>
      </trkpt>
      <trkpt lat="39.9310200" lon="-4.5585790">
        <ele>414.4</ele>
        <time>2022-03-01T17:21:08Z</time>
      </trkpt>
      <trkpt lat="39.9309400" lon="-4.5585120">
        <ele>414.3</ele>
        <time>2022-03-01T17:21:09Z</time>
      </trkpt>
      <trkpt lat="39.9308600" lon="-4.5584500">
        <ele>414.2</ele>
        <time>2022-03-01T17:21:10Z</time>
      </trkpt>
      <trkpt lat="39.9307780" lon="-4.5583870">
        <ele>414.0</ele>
        <time>2022-03-01T17:21:11Z</time>
      </trkpt>
      <trkpt lat="39.9307030" lon="-4.5583230">
        <ele>413.9</ele>
        <time>2022-03-01T17:21:12Z</time>
      </trkpt>
      <trkpt lat="39.9306220" lon="-4.5582570">
        <ele>413.9</ele>
        <time>2022-03-01T17:21:13Z</time>
      </trkpt>
      <trkpt lat="39.9305450" lon="-4.5581920">
        <ele>413.9</ele>
        <time>2022-03-01T17:21:14Z</time>
      </trkpt>
      <trkpt lat="39.9304680" lon="-4.5581320">
        <ele>413.8</ele>
        <time>2022-03-01T17:21:15Z</time>
      </trkpt>
      <trkpt lat="39.9303900" lon="-4.5580700">
        <ele>413.7</ele>
        <time>2022-03-01T17:21:16Z</time>
      </trkpt>
      <trkpt lat="39.9303140" lon="-4.5580050">
        <ele>413.6</ele>
        <time>2022-03-01T17:21:17Z</time>
      </trkpt>
      <trkpt lat="39.9302350" lon="-4.5579400">
        <ele>413.5</ele>
        <time>2022-03-01T17:21:18Z</time>
      </trkpt>
      <trkpt lat="39.9301570" lon="-4.5578760">
        <ele>413.4</ele>
        <time>2022-03-01T17:21:19Z</time>
      </trkpt>
      <trkpt lat="39.9300790" lon="-4.5578130">
        <ele>413.4</ele>
        <time>2022-03-01T17:21:20Z</time>
      </trkpt>
      <trkpt lat="39.9299990" lon="-4.5577530">
        <ele>413.3</ele>
        <time>2022-03-01T17:21:21Z</time>
      </trkpt>
      <trkpt lat="39.9299220" lon="-4.5576880">
        <ele>413.2</ele>
        <time>2022-03-01T17:21:22Z</time>
      </trkpt>
      <trkpt lat="39.9298490" lon="-4.5576250">
        <ele>413.1</ele>
        <time>2022-03-01T17:21:23Z</time>
      </trkpt>
      <trkpt lat="39.9297750" lon="-4.5575640">
        <ele>413.0</ele>
        <time>2022-03-01T17:21:24Z</time>
      </trkpt>
      <trkpt lat="39.9297000" lon="-4.5575030">
        <ele>412.9</ele>
        <time>2022-03-01T17:21:25Z</time>
      </trkpt>
      <trkpt lat="39.9296160" lon="-4.5574390">
        <ele>412.8</ele>
        <time>2022-03-01T17:21:26Z</time>
      </trkpt>
      <trkpt lat="39.9295410" lon="-4.5573750">
        <ele>412.7</ele>
        <time>2022-03-01T17:21:27Z</time>
      </trkpt>
      <trkpt lat="39.9294650" lon="-4.5573140">
        <ele>412.6</ele>
        <time>2022-03-01T17:21:28Z</time>
      </trkpt>
      <trkpt lat="39.9293910" lon="-4.5572500">
        <ele>412.5</ele>
        <time>2022-03-01T17:21:29Z</time>
      </trkpt>
      <trkpt lat="39.9293120" lon="-4.5571890">
        <ele>412.4</ele>
        <time>2022-03-01T17:21:30Z</time>
      </trkpt>
      <trkpt lat="39.9292330" lon="-4.5571290">
        <ele>412.3</ele>
        <time>2022-03-01T17:21:31Z</time>
      </trkpt>
      <trkpt lat="39.9291550" lon="-4.5570650">
        <ele>412.2</ele>
        <time>2022-03-01T17:21:32Z</time>
      </trkpt>
      <trkpt lat="39.9290790" lon="-4.5570030">
        <ele>412.1</ele>
        <time>2022-03-01T17:21:33Z</time>
      </trkpt>
      <trkpt lat="39.9290080" lon="-4.5569470">
        <ele>412.0</ele>
        <time>2022-03-01T17:21:34Z</time>
      </trkpt>
      <trkpt lat="39.9289310" lon="-4.5568850">
        <ele>411.9</ele>
        <time>2022-03-01T17:21:35Z</time>
      </trkpt>
      <trkpt lat="39.9288540" lon="-4.5568230">
        <ele>411.8</ele>
        <time>2022-03-01T17:21:36Z</time>
      </trkpt>
      <trkpt lat="39.9287760" lon="-4.5567630">
        <ele>411.7</ele>
        <time>2022-03-01T17:21:37Z</time>
      </trkpt>
      <trkpt lat="39.9287010" lon="-4.5567020">
        <ele>411.6</ele>
        <time>2022-03-01T17:21:38Z</time>
      </trkpt>
      <trkpt lat="39.9286260" lon="-4.5566380">
        <ele>411.5</ele>
        <time>2022-03-01T17:21:39Z</time>
      </trkpt>
      <trkpt lat="39.9285510" lon="-4.5565770">
        <ele>411.4</ele>
        <time>2022-03-01T17:21:40Z</time>
      </trkpt>
      <trkpt lat="39.9284750" lon="-4.5565180">
        <ele>411.3</ele>
        <time>2022-03-01T17:21:41Z</time>
      </trkpt>
      <trkpt lat="39.9284060" lon="-4.5564660">
        <ele>411.2</ele>
        <time>2022-03-01T17:21:42Z</time>
      </trkpt>
      <trkpt lat="39.9283260" lon="-4.5564000">
        <ele>411.1</ele>
        <time>2022-03-01T17:21:43Z</time>
      </trkpt>
      <trkpt lat="39.9282500" lon="-4.5563410">
        <ele>411.0</ele>
        <time>2022-03-01T17:21:44Z</time>
      </trkpt>
      <trkpt lat="39.9281750" lon="-4.5562700">
        <ele>410.9</ele>
        <time>2022-03-01T17:21:45Z</time>
      </trkpt>
      <trkpt lat="39.9280970" lon="-4.5562090">
        <ele>410.8</ele>
        <time>2022-03-01T17:21:46Z</time>
      </trkpt>
      <trkpt lat="39.9280160" lon="-4.5561400">
        <ele>410.7</ele>
        <time>2022-03-01T17:21:47Z</time>
      </trkpt>
      <trkpt lat="39.9279380" lon="-4.5560750">
        <ele>410.6</ele>
        <time>2022-03-01T17:21:48Z</time>
      </trkpt>
      <trkpt lat="39.9278650" lon="-4.5560190">
        <ele>410.5</ele>
        <time>2022-03-01T17:21:49Z</time>
      </trkpt>
      <trkpt lat="39.9277890" lon="-4.5559600">
        <ele>410.4</ele>
        <time>2022-03-01T17:21:50Z</time>
      </trkpt>
      <trkpt lat="39.9277130" lon="-4.5558980">
        <ele>410.3</ele>
        <time>2022-03-01T17:21:51Z</time>
      </trkpt>
      <trkpt lat="39.9276420" lon="-4.5558430">
        <ele>410.3</ele>
        <time>2022-03-01T17:21:52Z</time>
      </trkpt>
      <trkpt lat="39.9275660" lon="-4.5557780">
        <ele>410.2</ele>
        <time>2022-03-01T17:21:53Z</time>
      </trkpt>
      <trkpt lat="39.9274940" lon="-4.5557230">
        <ele>410.2</ele>
        <time>2022-03-01T17:21:54Z</time>
      </trkpt>
      <trkpt lat="39.9274200" lon="-4.5556590">
        <ele>410.1</ele>
        <time>2022-03-01T17:21:55Z</time>
      </trkpt>
      <trkpt lat="39.9273450" lon="-4.5556010">
        <ele>410.1</ele>
        <time>2022-03-01T17:21:56Z</time>
      </trkpt>
      <trkpt lat="39.9272730" lon="-4.5555430">
        <ele>410.1</ele>
        <time>2022-03-01T17:21:57Z</time>
      </trkpt>
      <trkpt lat="39.9272000" lon="-4.5554870">
        <ele>410.0</ele>
        <time>2022-03-01T17:21:58Z</time>
      </trkpt>
      <trkpt lat="39.9271320" lon="-4.5554300">
        <ele>410.0</ele>
        <time>2022-03-01T17:21:59Z</time>
      </trkpt>
      <trkpt lat="39.9270570" lon="-4.5553740">
        <ele>410.0</ele>
        <time>2022-03-01T17:22:00Z</time>
      </trkpt>
      <trkpt lat="39.9269820" lon="-4.5553090">
        <ele>410.1</ele>
        <time>2022-03-01T17:22:01Z</time>
      </trkpt>
      <trkpt lat="39.9269150" lon="-4.5552540">
        <ele>410.1</ele>
        <time>2022-03-01T17:22:02Z</time>
      </trkpt>
      <trkpt lat="39.9268450" lon="-4.5551960">
        <ele>410.1</ele>
        <time>2022-03-01T17:22:03Z</time>
      </trkpt>
      <trkpt lat="39.9267780" lon="-4.5551430">
        <ele>410.1</ele>
        <time>2022-03-01T17:22:04Z</time>
      </trkpt>
      <trkpt lat="39.9267100" lon="-4.5550890">
        <ele>410.2</ele>
        <time>2022-03-01T17:22:05Z</time>
      </trkpt>
      <trkpt lat="39.9266410" lon="-4.5550310">
        <ele>410.2</ele>
        <time>2022-03-01T17:22:06Z</time>
      </trkpt>
      <trkpt lat="39.9265750" lon="-4.5549780">
        <ele>410.2</ele>
        <time>2022-03-01T17:22:07Z</time>
      </trkpt>
      <trkpt lat="39.9265080" lon="-4.5549230">
        <ele>410.2</ele>
        <time>2022-03-01T17:22:08Z</time>
      </trkpt>
      <trkpt lat="39.9264420" lon="-4.5548660">
        <ele>410.2</ele>
        <time>2022-03-01T17:22:09Z</time>
      </trkpt>
      <trkpt lat="39.9263760" lon="-4.5548140">
        <ele>410.3</ele>
        <time>2022-03-01T17:22:10Z</time>
      </trkpt>
      <trkpt lat="39.9263110" lon="-4.5547600">
        <ele>410.3</ele>
        <time>2022-03-01T17:22:11Z</time>
      </trkpt>
      <trkpt lat="39.9262460" lon="-4.5547100">
        <ele>410.3</ele>
        <time>2022-03-01T17:22:12Z</time>
      </trkpt>
      <trkpt lat="39.9261810" lon="-4.5546560">
        <ele>410.3</ele>
        <time>2022-03-01T17:22:13Z</time>
      </trkpt>
      <trkpt lat="39.9261180" lon="-4.5546050">
        <ele>410.3</ele>
        <time>2022-03-01T17:22:14Z</time>
      </trkpt>
      <trkpt lat="39.9260530" lon="-4.5545530">
        <ele>410.4</ele>
        <time>2022-03-01T17:22:15Z</time>
      </trkpt>
      <trkpt lat="39.9259880" lon="-4.5545010">
        <ele>410.4</ele>
        <time>2022-03-01T17:22:16Z</time>
      </trkpt>
      <trkpt lat="39.9259230" lon="-4.5544480">
        <ele>410.4</ele>
        <time>2022-03-01T17:22:17Z</time>
      </trkpt>
      <trkpt lat="39.9258590" lon="-4.5543970">
        <ele>410.4</ele>
        <time>2022-03-01T17:22:18Z</time>
      </trkpt>
      <trkpt lat="39.9257980" lon="-4.5543460">
        <ele>410.4</ele>
        <time>2022-03-01T17:22:19Z</time>
      </trkpt>
      <trkpt lat="39.9257360" lon="-4.5542990">
        <ele>410.4</ele>
        <time>2022-03-01T17:22:20Z</time>
      </trkpt>
      <trkpt lat="39.9256710" lon="-4.5542410">
        <ele>410.5</ele>
        <time>2022-03-01T17:22:21Z</time>
      </trkpt>
      <trkpt lat="39.9256080" lon="-4.5541860">
        <ele>410.5</ele>
        <time>2022-03-01T17:22:22Z</time>
      </trkpt>
      <trkpt lat="39.9255440" lon="-4.5541350">
        <ele>410.5</ele>
        <time>2022-03-01T17:22:23Z</time>
      </trkpt>
      <trkpt lat="39.9254800" lon="-4.5540830">
        <ele>410.5</ele>
        <time>2022-03-01T17:22:24Z</time>
      </trkpt>
      <trkpt lat="39.9254160" lon="-4.5540290">
        <ele>410.6</ele>
        <time>2022-03-01T17:22:25Z</time>
      </trkpt>
      <trkpt lat="39.9253540" lon="-4.5539820">
        <ele>410.6</ele>
        <time>2022-03-01T17:22:26Z</time>
      </trkpt>
      <trkpt lat="39.9252900" lon="-4.5539350">
        <ele>410.6</ele>
        <time>2022-03-01T17:22:27Z</time>
      </trkpt>
      <trkpt lat="39.9252220" lon="-4.5538840">
        <ele>410.7</ele>
        <time>2022-03-01T17:22:28Z</time>
      </trkpt>
      <trkpt lat="39.9251590" lon="-4.5538310">
        <ele>410.7</ele>
        <time>2022-03-01T17:22:29Z</time>
      </trkpt>
      <trkpt lat="39.9250940" lon="-4.5537840">
        <ele>410.7</ele>
        <time>2022-03-01T17:22:30Z</time>
      </trkpt>
      <trkpt lat="39.9250340" lon="-4.5537270">
        <ele>410.7</ele>
        <time>2022-03-01T17:22:31Z</time>
      </trkpt>
      <trkpt lat="39.9249700" lon="-4.5536740">
        <ele>410.7</ele>
        <time>2022-03-01T17:22:32Z</time>
      </trkpt>
      <trkpt lat="39.9249040" lon="-4.5536210">
        <ele>410.7</ele>
        <time>2022-03-01T17:22:33Z</time>
      </trkpt>
      <trkpt lat="39.9248410" lon="-4.5535770">
        <ele>410.7</ele>
        <time>2022-03-01T17:22:34Z</time>
      </trkpt>
      <trkpt lat="39.9247760" lon="-4.5535220">
        <ele>410.7</ele>
        <time>2022-03-01T17:22:35Z</time>
      </trkpt>
      <trkpt lat="39.9247150" lon="-4.5534650">
        <ele>410.8</ele>
        <time>2022-03-01T17:22:36Z</time>
      </trkpt>
      <trkpt lat="39.9246490" lon="-4.5534110">
        <ele>410.8</ele>
        <time>2022-03-01T17:22:37Z</time>
      </trkpt>
      <trkpt lat="39.9245880" lon="-4.5533610">
        <ele>410.8</ele>
        <time>2022-03-01T17:22:38Z</time>
      </trkpt>
      <trkpt lat="39.9245250" lon="-4.5533050">
        <ele>410.8</ele>
        <time>2022-03-01T17:22:39Z</time>
      </trkpt>
      <trkpt lat="39.9244610" lon="-4.5532530">
        <ele>410.9</ele>
        <time>2022-03-01T17:22:40Z</time>
      </trkpt>
      <trkpt lat="39.9243990" lon="-4.5532030">
        <ele>410.9</ele>
        <time>2022-03-01T17:22:41Z</time>
      </trkpt>
      <trkpt lat="39.9243320" lon="-4.5531520">
        <ele>410.9</ele>
        <time>2022-03-01T17:22:42Z</time>
      </trkpt>
      <trkpt lat="39.9242690" lon="-4.5531040">
        <ele>410.8</ele>
        <time>2022-03-01T17:22:43Z</time>
      </trkpt>
      <trkpt lat="39.9242060" lon="-4.5530510">
        <ele>410.8</ele>
        <time>2022-03-01T17:22:44Z</time>
      </trkpt>
      <trkpt lat="39.9241410" lon="-4.5529980">
        <ele>410.8</ele>
        <time>2022-03-01T17:22:45Z</time>
      </trkpt>
      <trkpt lat="39.9240760" lon="-4.5529450">
        <ele>410.7</ele>
        <time>2022-03-01T17:22:46Z</time>
      </trkpt>
      <trkpt lat="39.9240130" lon="-4.5528930">
        <ele>410.7</ele>
        <time>2022-03-01T17:22:47Z</time>
      </trkpt>
      <trkpt lat="39.9239490" lon="-4.5528390">
        <ele>410.6</ele>
        <time>2022-03-01T17:22:48Z</time>
      </trkpt>
      <trkpt lat="39.9238840" lon="-4.5527850">
        <ele>410.6</ele>
        <time>2022-03-01T17:22:49Z</time>
      </trkpt>
      <trkpt lat="39.9238170" lon="-4.5527320">
        <ele>410.5</ele>
        <time>2022-03-01T17:22:50Z</time>
      </trkpt>
      <trkpt lat="39.9237520" lon="-4.5526790">
        <ele>410.4</ele>
        <time>2022-03-01T17:22:51Z</time>
      </trkpt>
      <trkpt lat="39.9236840" lon="-4.5526220">
        <ele>410.4</ele>
        <time>2022-03-01T17:22:52Z</time>
      </trkpt>
      <trkpt lat="39.9236160" lon="-4.5525660">
        <ele>410.3</ele>
        <time>2022-03-01T17:22:53Z</time>
      </trkpt>
      <trkpt lat="39.9235480" lon="-4.5525090">
        <ele>410.1</ele>
        <time>2022-03-01T17:22:54Z</time>
      </trkpt>
      <trkpt lat="39.9234790" lon="-4.5524540">
        <ele>410.0</ele>
        <time>2022-03-01T17:22:55Z</time>
      </trkpt>
      <trkpt lat="39.9234080" lon="-4.5524010">
        <ele>409.9</ele>
        <time>2022-03-01T17:22:56Z</time>
      </trkpt>
      <trkpt lat="39.9233400" lon="-4.5523410">
        <ele>409.7</ele>
        <time>2022-03-01T17:22:57Z</time>
      </trkpt>
      <trkpt lat="39.9232710" lon="-4.5522830">
        <ele>409.6</ele>
        <time>2022-03-01T17:22:58Z</time>
      </trkpt>
      <trkpt lat="39.9232000" lon="-4.5522270">
        <ele>409.4</ele>
        <time>2022-03-01T17:22:59Z</time>
      </trkpt>
      <trkpt lat="39.9231310" lon="-4.5521690">
        <ele>409.3</ele>
        <time>2022-03-01T17:23:00Z</time>
      </trkpt>
      <trkpt lat="39.9230580" lon="-4.5521060">
        <ele>409.1</ele>
        <time>2022-03-01T17:23:01Z</time>
      </trkpt>
      <trkpt lat="39.9229860" lon="-4.5520470">
        <ele>408.9</ele>
        <time>2022-03-01T17:23:02Z</time>
      </trkpt>
      <trkpt lat="39.9229110" lon="-4.5519990">
        <ele>408.7</ele>
        <time>2022-03-01T17:23:03Z</time>
      </trkpt>
      <trkpt lat="39.9228390" lon="-4.5519370">
        <ele>408.4</ele>
        <time>2022-03-01T17:23:04Z</time>
      </trkpt>
      <trkpt lat="39.9227610" lon="-4.5518790">
        <ele>408.2</ele>
        <time>2022-03-01T17:23:05Z</time>
      </trkpt>
      <trkpt lat="39.9226860" lon="-4.5518190">
        <ele>408.0</ele>
        <time>2022-03-01T17:23:06Z</time>
      </trkpt>
      <trkpt lat="39.9226110" lon="-4.5517580">
        <ele>407.8</ele>
        <time>2022-03-01T17:23:07Z</time>
      </trkpt>
      <trkpt lat="39.9225350" lon="-4.5516950">
        <ele>407.5</ele>
        <time>2022-03-01T17:23:08Z</time>
      </trkpt>
      <trkpt lat="39.9224590" lon="-4.5516330">
        <ele>407.3</ele>
        <time>2022-03-01T17:23:09Z</time>
      </trkpt>
      <trkpt lat="39.9223830" lon="-4.5515710">
        <ele>407.1</ele>
        <time>2022-03-01T17:23:10Z</time>
      </trkpt>
      <trkpt lat="39.9223070" lon="-4.5515110">
        <ele>406.9</ele>
        <time>2022-03-01T17:23:11Z</time>
      </trkpt>
      <trkpt lat="39.9222300" lon="-4.5514490">
        <ele>406.7</ele>
        <time>2022-03-01T17:23:12Z</time>
      </trkpt>
      <trkpt lat="39.9221510" lon="-4.5513880">
        <ele>406.6</ele>
        <time>2022-03-01T17:23:13Z</time>
      </trkpt>
      <trkpt lat="39.9220730" lon="-4.5513230">
        <ele>406.4</ele>
        <time>2022-03-01T17:23:14Z</time>
      </trkpt>
      <trkpt lat="39.9219950" lon="-4.5512620">
        <ele>406.2</ele>
        <time>2022-03-01T17:23:15Z</time>
      </trkpt>
      <trkpt lat="39.9219160" lon="-4.5512010">
        <ele>406.0</ele>
        <time>2022-03-01T17:23:16Z</time>
      </trkpt>
      <trkpt lat="39.9218390" lon="-4.5511430">
        <ele>405.9</ele>
        <time>2022-03-01T17:23:17Z</time>
      </trkpt>
      <trkpt lat="39.9217630" lon="-4.5510840">
        <ele>405.8</ele>
        <time>2022-03-01T17:23:18Z</time>
      </trkpt>
      <trkpt lat="39.9216850" lon="-4.5510210">
        <ele>405.7</ele>
        <time>2022-03-01T17:23:19Z</time>
      </trkpt>
      <trkpt lat="39.9216110" lon="-4.5509650">
        <ele>405.6</ele>
        <time>2022-03-01T17:23:20Z</time>
      </trkpt>
      <trkpt lat="39.9215330" lon="-4.5509040">
        <ele>405.4</ele>
        <time>2022-03-01T17:23:21Z</time>
      </trkpt>
      <trkpt lat="39.9214590" lon="-4.5508350">
        <ele>405.3</ele>
        <time>2022-03-01T17:23:22Z</time>
      </trkpt>
      <trkpt lat="39.9213830" lon="-4.5507740">
        <ele>405.2</ele>
        <time>2022-03-01T17:23:23Z</time>
      </trkpt>
      <trkpt lat="39.9213090" lon="-4.5507130">
        <ele>405.2</ele>
        <time>2022-03-01T17:23:24Z</time>
      </trkpt>
      <trkpt lat="39.9212340" lon="-4.5506520">
        <ele>405.1</ele>
        <time>2022-03-01T17:23:25Z</time>
      </trkpt>
      <trkpt lat="39.9211590" lon="-4.5505900">
        <ele>405.0</ele>
        <time>2022-03-01T17:23:26Z</time>
      </trkpt>
      <trkpt lat="39.9210830" lon="-4.5505270">
        <ele>405.0</ele>
        <time>2022-03-01T17:23:27Z</time>
      </trkpt>
      <trkpt lat="39.9210080" lon="-4.5504660">
        <ele>404.9</ele>
        <time>2022-03-01T17:23:28Z</time>
      </trkpt>
      <trkpt lat="39.9209360" lon="-4.5504110">
        <ele>404.9</ele>
        <time>2022-03-01T17:23:29Z</time>
      </trkpt>
      <trkpt lat="39.9208580" lon="-4.5503520">
        <ele>404.8</ele>
        <time>2022-03-01T17:23:30Z</time>
      </trkpt>
      <trkpt lat="39.9207850" lon="-4.5503000">
        <ele>404.8</ele>
        <time>2022-03-01T17:23:31Z</time>
      </trkpt>
      <trkpt lat="39.9207100" lon="-4.5502470">
        <ele>404.7</ele>
        <time>2022-03-01T17:23:32Z</time>
      </trkpt>
      <trkpt lat="39.9206380" lon="-4.5501860">
        <ele>404.6</ele>
        <time>2022-03-01T17:23:33Z</time>
      </trkpt>
      <trkpt lat="39.9205660" lon="-4.5501280">
        <ele>404.6</ele>
        <time>2022-03-01T17:23:34Z</time>
      </trkpt>
      <trkpt lat="39.9204910" lon="-4.5500680">
        <ele>404.5</ele>
        <time>2022-03-01T17:23:35Z</time>
      </trkpt>
      <trkpt lat="39.9204180" lon="-4.5500090">
        <ele>404.5</ele>
        <time>2022-03-01T17:23:36Z</time>
      </trkpt>
      <trkpt lat="39.9203440" lon="-4.5499510">
        <ele>404.4</ele>
        <time>2022-03-01T17:23:37Z</time>
      </trkpt>
      <trkpt lat="39.9202720" lon="-4.5498910">
        <ele>404.4</ele>
        <time>2022-03-01T17:23:38Z</time>
      </trkpt>
      <trkpt lat="39.9201960" lon="-4.5498310">
        <ele>404.3</ele>
        <time>2022-03-01T17:23:39Z</time>
      </trkpt>
      <trkpt lat="39.9201200" lon="-4.5497660">
        <ele>404.2</ele>
        <time>2022-03-01T17:23:40Z</time>
      </trkpt>
      <trkpt lat="39.9200440" lon="-4.5497000">
        <ele>404.2</ele>
        <time>2022-03-01T17:23:41Z</time>
      </trkpt>
      <trkpt lat="39.9199670" lon="-4.5496370">
        <ele>404.1</ele>
        <time>2022-03-01T17:23:42Z</time>
      </trkpt>
      <trkpt lat="39.9198920" lon="-4.5495730">
        <ele>404.1</ele>
        <time>2022-03-01T17:23:43Z</time>
      </trkpt>
      <trkpt lat="39.9198150" lon="-4.5495100">
        <ele>404.0</ele>
        <time>2022-03-01T17:23:44Z</time>
      </trkpt>
      <trkpt lat="39.9197370" lon="-4.5494450">
        <ele>404.0</ele>
        <time>2022-03-01T17:23:45Z</time>
      </trkpt>
      <trkpt lat="39.9196600" lon="-4.5493830">
        <ele>403.9</ele>
        <time>2022-03-01T17:23:46Z</time>
      </trkpt>
      <trkpt lat="39.9195830" lon="-4.5493200">
        <ele>403.9</ele>
        <time>2022-03-01T17:23:47Z</time>
      </trkpt>
      <trkpt lat="39.9195060" lon="-4.5492540">
        <ele>403.8</ele>
        <time>2022-03-01T17:23:48Z</time>
      </trkpt>
      <trkpt lat="39.9194300" lon="-4.5491880">
        <ele>403.8</ele>
        <time>2022-03-01T17:23:49Z</time>
      </trkpt>
      <trkpt lat="39.9193530" lon="-4.5491240">
        <ele>403.8</ele>
        <time>2022-03-01T17:23:50Z</time>
      </trkpt>
      <trkpt lat="39.9192770" lon="-4.5490600">
        <ele>403.7</ele>
        <time>2022-03-01T17:23:51Z</time>
      </trkpt>
      <trkpt lat="39.9192020" lon="-4.5489960">
        <ele>403.6</ele>
        <time>2022-03-01T17:23:52Z</time>
      </trkpt>
      <trkpt lat="39.9191250" lon="-4.5489340">
        <ele>403.6</ele>
        <time>2022-03-01T17:23:53Z</time>
      </trkpt>
      <trkpt lat="39.9190500" lon="-4.5488700">
        <ele>403.5</ele>
        <time>2022-03-01T17:23:54Z</time>
      </trkpt>
      <trkpt lat="39.9189750" lon="-4.5488090">
        <ele>403.5</ele>
        <time>2022-03-01T17:23:55Z</time>
      </trkpt>
      <trkpt lat="39.9188980" lon="-4.5487460">
        <ele>403.4</ele>
        <time>2022-03-01T17:23:56Z</time>
      </trkpt>
      <trkpt lat="39.9188220" lon="-4.5486840">
        <ele>403.3</ele>
        <time>2022-03-01T17:23:57Z</time>
      </trkpt>
      <trkpt lat="39.9187460" lon="-4.5486200">
        <ele>403.2</ele>
        <time>2022-03-01T17:23:58Z</time>
      </trkpt>
      <trkpt lat="39.9186690" lon="-4.5485530">
        <ele>403.2</ele>
        <time>2022-03-01T17:23:59Z</time>
      </trkpt>
      <trkpt lat="39.9185920" lon="-4.5484920">
        <ele>403.1</ele>
        <time>2022-03-01T17:24:00Z</time>
      </trkpt>
      <trkpt lat="39.9185150" lon="-4.5484280">
        <ele>403.0</ele>
        <time>2022-03-01T17:24:01Z</time>
      </trkpt>
      <trkpt lat="39.9184390" lon="-4.5483660">
        <ele>403.0</ele>
        <time>2022-03-01T17:24:02Z</time>
      </trkpt>
      <trkpt lat="39.9183590" lon="-4.5483010">
        <ele>402.9</ele>
        <time>2022-03-01T17:24:03Z</time>
      </trkpt>
      <trkpt lat="39.9182830" lon="-4.5482410">
        <ele>402.9</ele>
        <time>2022-03-01T17:24:04Z</time>
      </trkpt>
      <trkpt lat="39.9182060" lon="-4.5481790">
        <ele>402.8</ele>
        <time>2022-03-01T17:24:05Z</time>
      </trkpt>
      <trkpt lat="39.9181290" lon="-4.5481170">
        <ele>402.8</ele>
        <time>2022-03-01T17:24:06Z</time>
      </trkpt>
      <trkpt lat="39.9180520" lon="-4.5480520">
        <ele>402.8</ele>
        <time>2022-03-01T17:24:07Z</time>
      </trkpt>
      <trkpt lat="39.9179770" lon="-4.5479900">
        <ele>402.7</ele>
        <time>2022-03-01T17:24:08Z</time>
      </trkpt>
      <trkpt lat="39.9179030" lon="-4.5479310">
        <ele>402.7</ele>
        <time>2022-03-01T17:24:09Z</time>
      </trkpt>
      <trkpt lat="39.9178290" lon="-4.5478720">
        <ele>402.6</ele>
        <time>2022-03-01T17:24:10Z</time>
      </trkpt>
      <trkpt lat="39.9177520" lon="-4.5478110">
        <ele>402.6</ele>
        <time>2022-03-01T17:24:11Z</time>
      </trkpt>
      <trkpt lat="39.9176750" lon="-4.5477480">
        <ele>402.5</ele>
        <time>2022-03-01T17:24:12Z</time>
      </trkpt>
      <trkpt lat="39.9176000" lon="-4.5476870">
        <ele>402.5</ele>
        <time>2022-03-01T17:24:13Z</time>
      </trkpt>
      <trkpt lat="39.9175220" lon="-4.5476250">
        <ele>402.4</ele>
        <time>2022-03-01T17:24:14Z</time>
      </trkpt>
      <trkpt lat="39.9174460" lon="-4.5475600">
        <ele>402.4</ele>
        <time>2022-03-01T17:24:15Z</time>
      </trkpt>
      <trkpt lat="39.9173670" lon="-4.5475030">
        <ele>402.4</ele>
        <time>2022-03-01T17:24:16Z</time>
      </trkpt>
      <trkpt lat="39.9172900" lon="-4.5474390">
        <ele>402.3</ele>
        <time>2022-03-01T17:24:17Z</time>
      </trkpt>
      <trkpt lat="39.9172130" lon="-4.5473800">
        <ele>402.3</ele>
        <time>2022-03-01T17:24:18Z</time>
      </trkpt>
      <trkpt lat="39.9171360" lon="-4.5473190">
        <ele>402.3</ele>
        <time>2022-03-01T17:24:19Z</time>
      </trkpt>
      <trkpt lat="39.9170600" lon="-4.5472610">
        <ele>402.3</ele>
        <time>2022-03-01T17:24:20Z</time>
      </trkpt>
      <trkpt lat="39.9169850" lon="-4.5472020">
        <ele>402.2</ele>
        <time>2022-03-01T17:24:21Z</time>
      </trkpt>
      <trkpt lat="39.9169090" lon="-4.5471440">
        <ele>402.2</ele>
        <time>2022-03-01T17:24:22Z</time>
      </trkpt>
      <trkpt lat="39.9168350" lon="-4.5470830">
        <ele>402.2</ele>
        <time>2022-03-01T17:24:23Z</time>
      </trkpt>
      <trkpt lat="39.9167610" lon="-4.5470220">
        <ele>402.2</ele>
        <time>2022-03-01T17:24:24Z</time>
      </trkpt>
      <trkpt lat="39.9166860" lon="-4.5469620">
        <ele>402.2</ele>
        <time>2022-03-01T17:24:25Z</time>
      </trkpt>
      <trkpt lat="39.9166130" lon="-4.5469080">
        <ele>402.2</ele>
        <time>2022-03-01T17:24:26Z</time>
      </trkpt>
      <trkpt lat="39.9165340" lon="-4.5468570">
        <ele>402.1</ele>
        <time>2022-03-01T17:24:27Z</time>
      </trkpt>
      <trkpt lat="39.9164590" lon="-4.5467950">
        <ele>402.1</ele>
        <time>2022-03-01T17:24:28Z</time>
      </trkpt>
      <trkpt lat="39.9163860" lon="-4.5467370">
        <ele>402.1</ele>
        <time>2022-03-01T17:24:29Z</time>
      </trkpt>
      <trkpt lat="39.9163130" lon="-4.5466810">
        <ele>402.1</ele>
        <time>2022-03-01T17:24:30Z</time>
      </trkpt>
      <trkpt lat="39.9162380" lon="-4.5466190">
        <ele>402.0</ele>
        <time>2022-03-01T17:24:31Z</time>
      </trkpt>
      <trkpt lat="39.9161650" lon="-4.5465590">
        <ele>402.0</ele>
        <time>2022-03-01T17:24:32Z</time>
      </trkpt>
      <trkpt lat="39.9160920" lon="-4.5464950">
        <ele>402.0</ele>
        <time>2022-03-01T17:24:33Z</time>
      </trkpt>
      <trkpt lat="39.9160170" lon="-4.5464340">
        <ele>402.0</ele>
        <time>2022-03-01T17:24:34Z</time>
      </trkpt>
      <trkpt lat="39.9159430" lon="-4.5463720">
        <ele>402.0</ele>
        <time>2022-03-01T17:24:35Z</time>
      </trkpt>
      <trkpt lat="39.9158660" lon="-4.5463090">
        <ele>402.0</ele>
        <time>2022-03-01T17:24:36Z</time>
      </trkpt>
      <trkpt lat="39.9157960" lon="-4.5462500">
        <ele>402.0</ele>
        <time>2022-03-01T17:24:37Z</time>
      </trkpt>
      <trkpt lat="39.9157270" lon="-4.5461860">
        <ele>402.0</ele>
        <time>2022-03-01T17:24:38Z</time>
      </trkpt>
      <trkpt lat="39.9156530" lon="-4.5461270">
        <ele>402.0</ele>
        <time>2022-03-01T17:24:39Z</time>
      </trkpt>
      <trkpt lat="39.9155820" lon="-4.5460670">
        <ele>402.0</ele>
        <time>2022-03-01T17:24:40Z</time>
      </trkpt>
      <trkpt lat="39.9155100" lon="-4.5460070">
        <ele>401.9</ele>
        <time>2022-03-01T17:24:41Z</time>
      </trkpt>
      <trkpt lat="39.9154380" lon="-4.5459510">
        <ele>401.9</ele>
        <time>2022-03-01T17:24:42Z</time>
      </trkpt>
      <trkpt lat="39.9153690" lon="-4.5458950">
        <ele>401.8</ele>
        <time>2022-03-01T17:24:43Z</time>
      </trkpt>
      <trkpt lat="39.9153010" lon="-4.5458380">
        <ele>401.8</ele>
        <time>2022-03-01T17:24:44Z</time>
      </trkpt>
      <trkpt lat="39.9152310" lon="-4.5457800">
        <ele>401.8</ele>
        <time>2022-03-01T17:24:45Z</time>
      </trkpt>
      <trkpt lat="39.9151630" lon="-4.5457210">
        <ele>401.7</ele>
        <time>2022-03-01T17:24:46Z</time>
      </trkpt>
      <trkpt lat="39.9150930" lon="-4.5456620">
        <ele>401.7</ele>
        <time>2022-03-01T17:24:47Z</time>
      </trkpt>
      <trkpt lat="39.9150240" lon="-4.5456090">
        <ele>401.7</ele>
        <time>2022-03-01T17:24:48Z</time>
      </trkpt>
      <trkpt lat="39.9149560" lon="-4.5455550">
        <ele>401.6</ele>
        <time>2022-03-01T17:24:49Z</time>
      </trkpt>
      <trkpt lat="39.9148870" lon="-4.5455010">
        <ele>401.6</ele>
        <time>2022-03-01T17:24:50Z</time>
      </trkpt>
      <trkpt lat="39.9148180" lon="-4.5454410">
        <ele>401.6</ele>
        <time>2022-03-01T17:24:51Z</time>
      </trkpt>
      <trkpt lat="39.9147500" lon="-4.5453830">
        <ele>401.5</ele>
        <time>2022-03-01T17:24:52Z</time>
      </trkpt>
      <trkpt lat="39.9146820" lon="-4.5453290">
        <ele>401.5</ele>
        <time>2022-03-01T17:24:53Z</time>
      </trkpt>
      <trkpt lat="39.9146120" lon="-4.5452740">
        <ele>401.5</ele>
        <time>2022-03-01T17:24:54Z</time>
      </trkpt>
      <trkpt lat="39.9145430" lon="-4.5452200">
        <ele>401.4</ele>
        <time>2022-03-01T17:24:55Z</time>
      </trkpt>
      <trkpt lat="39.9144740" lon="-4.5451600">
        <ele>401.4</ele>
        <time>2022-03-01T17:24:56Z</time>
      </trkpt>
      <trkpt lat="39.9144030" lon="-4.5451020">
        <ele>401.4</ele>
        <time>2022-03-01T17:24:57Z</time>
      </trkpt>
      <trkpt lat="39.9143330" lon="-4.5450430">
        <ele>401.4</ele>
        <time>2022-03-01T17:24:58Z</time>
      </trkpt>
      <trkpt lat="39.9142640" lon="-4.5449870">
        <ele>401.4</ele>
        <time>2022-03-01T17:24:59Z</time>
      </trkpt>
      <trkpt lat="39.9141960" lon="-4.5449300">
        <ele>401.4</ele>
        <time>2022-03-01T17:25:00Z</time>
      </trkpt>
      <trkpt lat="39.9141270" lon="-4.5448740">
        <ele>401.4</ele>
        <time>2022-03-01T17:25:01Z</time>
      </trkpt>
      <trkpt lat="39.9140580" lon="-4.5448170">
        <ele>401.4</ele>
        <time>2022-03-01T17:25:02Z</time>
      </trkpt>
      <trkpt lat="39.9139910" lon="-4.5447640">
        <ele>401.4</ele>
        <time>2022-03-01T17:25:03Z</time>
      </trkpt>
      <trkpt lat="39.9139230" lon="-4.5447100">
        <ele>401.4</ele>
        <time>2022-03-01T17:25:04Z</time>
      </trkpt>
      <trkpt lat="39.9138550" lon="-4.5446530">
        <ele>401.4</ele>
        <time>2022-03-01T17:25:05Z</time>
      </trkpt>
      <trkpt lat="39.9137890" lon="-4.5446000">
        <ele>401.4</ele>
        <time>2022-03-01T17:25:06Z</time>
      </trkpt>
      <trkpt lat="39.9137230" lon="-4.5445440">
        <ele>401.5</ele>
        <time>2022-03-01T17:25:07Z</time>
      </trkpt>
      <trkpt lat="39.9136560" lon="-4.5444900">
        <ele>401.5</ele>
        <time>2022-03-01T17:25:08Z</time>
      </trkpt>
      <trkpt lat="39.9135880" lon="-4.5444290">
        <ele>401.5</ele>
        <time>2022-03-01T17:25:09Z</time>
      </trkpt>
      <trkpt lat="39.9135210" lon="-4.5443760">
        <ele>401.6</ele>
        <time>2022-03-01T17:25:10Z</time>
      </trkpt>
      <trkpt lat="39.9134570" lon="-4.5443230">
        <ele>401.6</ele>
        <time>2022-03-01T17:25:11Z</time>
      </trkpt>
      <trkpt lat="39.9133940" lon="-4.5442700">
        <ele>401.7</ele>
        <time>2022-03-01T17:25:12Z</time>
      </trkpt>
      <trkpt lat="39.9133270" lon="-4.5442160">
        <ele>401.7</ele>
        <time>2022-03-01T17:25:13Z</time>
      </trkpt>
      <trkpt lat="39.9132630" lon="-4.5441650">
        <ele>401.7</ele>
        <time>2022-03-01T17:25:14Z</time>
      </trkpt>
      <trkpt lat="39.9131970" lon="-4.5441090">
        <ele>401.8</ele>
        <time>2022-03-01T17:25:15Z</time>
      </trkpt>
      <trkpt lat="39.9131410" lon="-4.5440620">
        <ele>401.9</ele>
        <time>2022-03-01T17:25:16Z</time>
      </trkpt>
      <trkpt lat="39.9130840" lon="-4.5440190">
        <ele>401.9</ele>
        <time>2022-03-01T17:25:17Z</time>
      </trkpt>
      <trkpt lat="39.9130270" lon="-4.5439700">
        <ele>402.0</ele>
        <time>2022-03-01T17:25:18Z</time>
      </trkpt>
      <trkpt lat="39.9129660" lon="-4.5439200">
        <ele>402.0</ele>
        <time>2022-03-01T17:25:19Z</time>
      </trkpt>
      <trkpt lat="39.9129070" lon="-4.5438780">
        <ele>402.1</ele>
        <time>2022-03-01T17:25:20Z</time>
      </trkpt>
      <trkpt lat="39.9128450" lon="-4.5438320">
        <ele>402.2</ele>
        <time>2022-03-01T17:25:21Z</time>
      </trkpt>
      <trkpt lat="39.9127840" lon="-4.5437860">
        <ele>402.3</ele>
        <time>2022-03-01T17:25:22Z</time>
      </trkpt>
      <trkpt lat="39.9127240" lon="-4.5437330">
        <ele>402.4</ele>
        <time>2022-03-01T17:25:23Z</time>
      </trkpt>
      <trkpt lat="39.9126720" lon="-4.5436780">
        <ele>402.4</ele>
        <time>2022-03-01T17:25:24Z</time>
      </trkpt>
      <trkpt lat="39.9126090" lon="-4.5436290">
        <ele>402.5</ele>
        <time>2022-03-01T17:25:25Z</time>
      </trkpt>
      <trkpt lat="39.9125480" lon="-4.5435870">
        <ele>402.6</ele>
        <time>2022-03-01T17:25:26Z</time>
      </trkpt>
      <trkpt lat="39.9124840" lon="-4.5435340">
        <ele>402.6</ele>
        <time>2022-03-01T17:25:27Z</time>
      </trkpt>
      <trkpt lat="39.9124280" lon="-4.5434890">
        <ele>402.6</ele>
        <time>2022-03-01T17:25:28Z</time>
      </trkpt>
      <trkpt lat="39.9123640" lon="-4.5434330">
        <ele>402.7</ele>
        <time>2022-03-01T17:25:29Z</time>
      </trkpt>
      <trkpt lat="39.9123020" lon="-4.5433840">
        <ele>402.7</ele>
        <time>2022-03-01T17:25:30Z</time>
      </trkpt>
      <trkpt lat="39.9122470" lon="-4.5433410">
        <ele>402.8</ele>
        <time>2022-03-01T17:25:31Z</time>
      </trkpt>
      <trkpt lat="39.9121850" lon="-4.5432890">
        <ele>402.9</ele>
        <time>2022-03-01T17:25:32Z</time>
      </trkpt>
      <trkpt lat="39.9121250" lon="-4.5432410">
        <ele>403.0</ele>
        <time>2022-03-01T17:25:33Z</time>
      </trkpt>
      <trkpt lat="39.9120660" lon="-4.5431800">
        <ele>403.0</ele>
        <time>2022-03-01T17:25:34Z</time>
      </trkpt>
      <trkpt lat="39.9120020" lon="-4.5431270">
        <ele>403.1</ele>
        <time>2022-03-01T17:25:35Z</time>
      </trkpt>
      <trkpt lat="39.9119400" lon="-4.5430730">
        <ele>403.2</ele>
        <time>2022-03-01T17:25:36Z</time>
      </trkpt>
      <trkpt lat="39.9118760" lon="-4.5430200">
        <ele>403.3</ele>
        <time>2022-03-01T17:25:37Z</time>
      </trkpt>
      <trkpt lat="39.9118120" lon="-4.5429730">
        <ele>403.4</ele>
        <time>2022-03-01T17:25:38Z</time>
      </trkpt>
      <trkpt lat="39.9117470" lon="-4.5429210">
        <ele>403.4</ele>
        <time>2022-03-01T17:25:39Z</time>
      </trkpt>
      <trkpt lat="39.9116860" lon="-4.5428720">
        <ele>403.5</ele>
        <time>2022-03-01T17:25:40Z</time>
      </trkpt>
      <trkpt lat="39.9116220" lon="-4.5428190">
        <ele>403.6</ele>
        <time>2022-03-01T17:25:41Z</time>
      </trkpt>
      <trkpt lat="39.9115560" lon="-4.5427680">
        <ele>403.7</ele>
        <time>2022-03-01T17:25:42Z</time>
      </trkpt>
      <trkpt lat="39.9114920" lon="-4.5427210">
        <ele>403.7</ele>
        <time>2022-03-01T17:25:43Z</time>
      </trkpt>
      <trkpt lat="39.9114280" lon="-4.5426680">
        <ele>403.8</ele>
        <time>2022-03-01T17:25:44Z</time>
      </trkpt>
      <trkpt lat="39.9113640" lon="-4.5426220">
        <ele>403.9</ele>
        <time>2022-03-01T17:25:45Z</time>
      </trkpt>
      <trkpt lat="39.9113010" lon="-4.5425730">
        <ele>404.0</ele>
        <time>2022-03-01T17:25:46Z</time>
      </trkpt>
      <trkpt lat="39.9112370" lon="-4.5425220">
        <ele>404.1</ele>
        <time>2022-03-01T17:25:47Z</time>
      </trkpt>
      <trkpt lat="39.9111700" lon="-4.5424580">
        <ele>404.2</ele>
        <time>2022-03-01T17:25:48Z</time>
      </trkpt>
      <trkpt lat="39.9111080" lon="-4.5424060">
        <ele>404.2</ele>
        <time>2022-03-01T17:25:49Z</time>
      </trkpt>
      <trkpt lat="39.9110450" lon="-4.5423560">
        <ele>404.3</ele>
        <time>2022-03-01T17:25:50Z</time>
      </trkpt>
      <trkpt lat="39.9109820" lon="-4.5423000">
        <ele>404.3</ele>
        <time>2022-03-01T17:25:51Z</time>
      </trkpt>
      <trkpt lat="39.9109180" lon="-4.5422500">
        <ele>404.4</ele>
        <time>2022-03-01T17:25:52Z</time>
      </trkpt>
      <trkpt lat="39.9108550" lon="-4.5421860">
        <ele>404.4</ele>
        <time>2022-03-01T17:25:53Z</time>
      </trkpt>
      <trkpt lat="39.9107930" lon="-4.5421330">
        <ele>404.5</ele>
        <time>2022-03-01T17:25:54Z</time>
      </trkpt>
      <trkpt lat="39.9107320" lon="-4.5420740">
        <ele>404.5</ele>
        <time>2022-03-01T17:25:55Z</time>
      </trkpt>
      <trkpt lat="39.9106740" lon="-4.5420120">
        <ele>404.6</ele>
        <time>2022-03-01T17:25:56Z</time>
      </trkpt>
      <trkpt lat="39.9106160" lon="-4.5419570">
        <ele>404.6</ele>
        <time>2022-03-01T17:25:57Z</time>
      </trkpt>
      <trkpt lat="39.9105490" lon="-4.5418950">
        <ele>404.6</ele>
        <time>2022-03-01T17:25:58Z</time>
      </trkpt>
      <trkpt lat="39.9104860" lon="-4.5418310">
        <ele>404.6</ele>
        <time>2022-03-01T17:25:59Z</time>
      </trkpt>
      <trkpt lat="39.9104260" lon="-4.5417760">
        <ele>404.6</ele>
        <time>2022-03-01T17:26:00Z</time>
      </trkpt>
      <trkpt lat="39.9103640" lon="-4.5417160">
        <ele>404.5</ele>
        <time>2022-03-01T17:26:01Z</time>
      </trkpt>
      <trkpt lat="39.9103010" lon="-4.5416550">
        <ele>404.5</ele>
        <time>2022-03-01T17:26:02Z</time>
      </trkpt>
      <trkpt lat="39.9102400" lon="-4.5415950">
        <ele>404.5</ele>
        <time>2022-03-01T17:26:03Z</time>
      </trkpt>
      <trkpt lat="39.9101780" lon="-4.5415300">
        <ele>404.4</ele>
        <time>2022-03-01T17:26:04Z</time>
      </trkpt>
      <trkpt lat="39.9101170" lon="-4.5414660">
        <ele>404.4</ele>
        <time>2022-03-01T17:26:05Z</time>
      </trkpt>
      <trkpt lat="39.9100540" lon="-4.5413970">
        <ele>404.3</ele>
        <time>2022-03-01T17:26:06Z</time>
      </trkpt>
      <trkpt lat="39.9099930" lon="-4.5413300">
        <ele>404.2</ele>
        <time>2022-03-01T17:26:07Z</time>
      </trkpt>
      <trkpt lat="39.9099340" lon="-4.5412700">
        <ele>404.2</ele>
        <time>2022-03-01T17:26:08Z</time>
      </trkpt>
      <trkpt lat="39.9098720" lon="-4.5412000">
        <ele>404.0</ele>
        <time>2022-03-01T17:26:09Z</time>
      </trkpt>
      <trkpt lat="39.9098070" lon="-4.5411300">
        <ele>403.9</ele>
        <time>2022-03-01T17:26:10Z</time>
      </trkpt>
      <trkpt lat="39.9097440" lon="-4.5410540">
        <ele>403.8</ele>
        <time>2022-03-01T17:26:11Z</time>
      </trkpt>
      <trkpt lat="39.9096820" lon="-4.5409830">
        <ele>403.7</ele>
        <time>2022-03-01T17:26:12Z</time>
      </trkpt>
      <trkpt lat="39.9096130" lon="-4.5409130">
        <ele>403.5</ele>
        <time>2022-03-01T17:26:13Z</time>
      </trkpt>
      <trkpt lat="39.9095470" lon="-4.5408400">
        <ele>403.4</ele>
        <time>2022-03-01T17:26:14Z</time>
      </trkpt>
      <trkpt lat="39.9094810" lon="-4.5407660">
        <ele>403.3</ele>
        <time>2022-03-01T17:26:15Z</time>
      </trkpt>
      <trkpt lat="39.9094160" lon="-4.5406920">
        <ele>403.2</ele>
        <time>2022-03-01T17:26:16Z</time>
      </trkpt>
      <trkpt lat="39.9093470" lon="-4.5406200">
        <ele>403.1</ele>
        <time>2022-03-01T17:26:17Z</time>
      </trkpt>
      <trkpt lat="39.9092790" lon="-4.5405460">
        <ele>402.9</ele>
        <time>2022-03-01T17:26:18Z</time>
      </trkpt>
      <trkpt lat="39.9092100" lon="-4.5404650">
        <ele>402.8</ele>
        <time>2022-03-01T17:26:19Z</time>
      </trkpt>
      <trkpt lat="39.9091440" lon="-4.5403920">
        <ele>402.6</ele>
        <time>2022-03-01T17:26:20Z</time>
      </trkpt>
      <trkpt lat="39.9090740" lon="-4.5403110">
        <ele>402.5</ele>
        <time>2022-03-01T17:26:21Z</time>
      </trkpt>
      <trkpt lat="39.9090040" lon="-4.5402360">
        <ele>402.3</ele>
        <time>2022-03-01T17:26:22Z</time>
      </trkpt>
      <trkpt lat="39.9089340" lon="-4.5401570">
        <ele>402.2</ele>
        <time>2022-03-01T17:26:23Z</time>
      </trkpt>
      <trkpt lat="39.9088640" lon="-4.5400790">
        <ele>402.1</ele>
        <time>2022-03-01T17:26:24Z</time>
      </trkpt>
      <trkpt lat="39.9087930" lon="-4.5400040">
        <ele>401.9</ele>
        <time>2022-03-01T17:26:25Z</time>
      </trkpt>
      <trkpt lat="39.9087210" lon="-4.5399230">
        <ele>401.8</ele>
        <time>2022-03-01T17:26:26Z</time>
      </trkpt>
      <trkpt lat="39.9086540" lon="-4.5398460">
        <ele>401.7</ele>
        <time>2022-03-01T17:26:27Z</time>
      </trkpt>
      <trkpt lat="39.9085880" lon="-4.5397620">
        <ele>401.6</ele>
        <time>2022-03-01T17:26:28Z</time>
      </trkpt>
      <trkpt lat="39.9085240" lon="-4.5396830">
        <ele>401.6</ele>
        <time>2022-03-01T17:26:29Z</time>
      </trkpt>
      <trkpt lat="39.9084610" lon="-4.5395980">
        <ele>401.5</ele>
        <time>2022-03-01T17:26:30Z</time>
      </trkpt>
      <trkpt lat="39.9083990" lon="-4.5395150">
        <ele>401.5</ele>
        <time>2022-03-01T17:26:31Z</time>
      </trkpt>
      <trkpt lat="39.9083300" lon="-4.5394350">
        <ele>401.5</ele>
        <time>2022-03-01T17:26:32Z</time>
      </trkpt>
      <trkpt lat="39.9082670" lon="-4.5393490">
        <ele>401.5</ele>
        <time>2022-03-01T17:26:33Z</time>
      </trkpt>
      <trkpt lat="39.9082070" lon="-4.5392650">
        <ele>401.6</ele>
        <time>2022-03-01T17:26:34Z</time>
      </trkpt>
      <trkpt lat="39.9081470" lon="-4.5391760">
        <ele>401.6</ele>
        <time>2022-03-01T17:26:35Z</time>
      </trkpt>
      <trkpt lat="39.9080860" lon="-4.5390890">
        <ele>401.6</ele>
        <time>2022-03-01T17:26:36Z</time>
      </trkpt>
      <trkpt lat="39.9080270" lon="-4.5389980">
        <ele>401.6</ele>
        <time>2022-03-01T17:26:37Z</time>
      </trkpt>
      <trkpt lat="39.9079680" lon="-4.5389090">
        <ele>401.6</ele>
        <time>2022-03-01T17:26:38Z</time>
      </trkpt>
      <trkpt lat="39.9079110" lon="-4.5388200">
        <ele>401.7</ele>
        <time>2022-03-01T17:26:39Z</time>
      </trkpt>
      <trkpt lat="39.9078570" lon="-4.5387310">
        <ele>401.8</ele>
        <time>2022-03-01T17:26:40Z</time>
      </trkpt>
      <trkpt lat="39.9078020" lon="-4.5386450">
        <ele>401.8</ele>
        <time>2022-03-01T17:26:41Z</time>
      </trkpt>
      <trkpt lat="39.9077490" lon="-4.5385590">
        <ele>401.9</ele>
        <time>2022-03-01T17:26:42Z</time>
      </trkpt>
      <trkpt lat="39.9076990" lon="-4.5384720">
        <ele>402.0</ele>
        <time>2022-03-01T17:26:43Z</time>
      </trkpt>
      <trkpt lat="39.9076500" lon="-4.5383890">
        <ele>402.1</ele>
        <time>2022-03-01T17:26:44Z</time>
      </trkpt>
      <trkpt lat="39.9076010" lon="-4.5383030">
        <ele>402.2</ele>
        <time>2022-03-01T17:26:45Z</time>
      </trkpt>
      <trkpt lat="39.9075500" lon="-4.5382200">
        <ele>402.3</ele>
        <time>2022-03-01T17:26:46Z</time>
      </trkpt>
      <trkpt lat="39.9075020" lon="-4.5381410">
        <ele>402.4</ele>
        <time>2022-03-01T17:26:47Z</time>
      </trkpt>
      <trkpt lat="39.9074570" lon="-4.5380620">
        <ele>402.5</ele>
        <time>2022-03-01T17:26:48Z</time>
      </trkpt>
      <trkpt lat="39.9074100" lon="-4.5379810">
        <ele>402.6</ele>
        <time>2022-03-01T17:26:49Z</time>
      </trkpt>
      <trkpt lat="39.9073670" lon="-4.5378960">
        <ele>402.6</ele>
        <time>2022-03-01T17:26:50Z</time>
      </trkpt>
      <trkpt lat="39.9073250" lon="-4.5378120">
        <ele>402.7</ele>
        <time>2022-03-01T17:26:51Z</time>
      </trkpt>
      <trkpt lat="39.9072800" lon="-4.5377180">
        <ele>402.9</ele>
        <time>2022-03-01T17:26:52Z</time>
      </trkpt>
      <trkpt lat="39.9072370" lon="-4.5376250">
        <ele>403.0</ele>
        <time>2022-03-01T17:26:53Z</time>
      </trkpt>
      <trkpt lat="39.9071950" lon="-4.5375380">
        <ele>403.1</ele>
        <time>2022-03-01T17:26:54Z</time>
      </trkpt>
      <trkpt lat="39.9071550" lon="-4.5374380">
        <ele>403.2</ele>
        <time>2022-03-01T17:26:55Z</time>
      </trkpt>
      <trkpt lat="39.9071200" lon="-4.5373430">
        <ele>403.4</ele>
        <time>2022-03-01T17:26:56Z</time>
      </trkpt>
      <trkpt lat="39.9070870" lon="-4.5372380">
        <ele>403.5</ele>
        <time>2022-03-01T17:26:57Z</time>
      </trkpt>
      <trkpt lat="39.9070510" lon="-4.5371470">
        <ele>403.7</ele>
        <time>2022-03-01T17:26:58Z</time>
      </trkpt>
      <trkpt lat="39.9070180" lon="-4.5370520">
        <ele>403.9</ele>
        <time>2022-03-01T17:26:59Z</time>
      </trkpt>
      <trkpt lat="39.9069810" lon="-4.5369670">
        <ele>404.0</ele>
        <time>2022-03-01T17:27:00Z</time>
      </trkpt>
      <trkpt lat="39.9069490" lon="-4.5368720">
        <ele>404.2</ele>
        <time>2022-03-01T17:27:01Z</time>
      </trkpt>
      <trkpt lat="39.9069220" lon="-4.5367830">
        <ele>404.3</ele>
        <time>2022-03-01T17:27:02Z</time>
      </trkpt>
      <trkpt lat="39.9068820" lon="-4.5367110">
        <ele>404.4</ele>
        <time>2022-03-01T17:27:03Z</time>
      </trkpt>
      <trkpt lat="39.9068600" lon="-4.5366040">
        <ele>404.5</ele>
        <time>2022-03-01T17:27:04Z</time>
      </trkpt>
      <trkpt lat="39.9068260" lon="-4.5365110">
        <ele>404.6</ele>
        <time>2022-03-01T17:27:05Z</time>
      </trkpt>
      <trkpt lat="39.9068010" lon="-4.5364150">
        <ele>404.7</ele>
        <time>2022-03-01T17:27:06Z</time>
      </trkpt>
      <trkpt lat="39.9067690" lon="-4.5363310">
        <ele>404.8</ele>
        <time>2022-03-01T17:27:07Z</time>
      </trkpt>
      <trkpt lat="39.9067420" lon="-4.5362380">
        <ele>404.9</ele>
        <time>2022-03-01T17:27:08Z</time>
      </trkpt>
      <trkpt lat="39.9067150" lon="-4.5361490">
        <ele>405.0</ele>
        <time>2022-03-01T17:27:09Z</time>
      </trkpt>
      <trkpt lat="39.9066890" lon="-4.5360660">
        <ele>405.2</ele>
        <time>2022-03-01T17:27:10Z</time>
      </trkpt>
      <trkpt lat="39.9066610" lon="-4.5359720">
        <ele>405.3</ele>
        <time>2022-03-01T17:27:11Z</time>
      </trkpt>
      <trkpt lat="39.9066400" lon="-4.5358760">
        <ele>405.4</ele>
        <time>2022-03-01T17:27:12Z</time>
      </trkpt>
      <trkpt lat="39.9066210" lon="-4.5357810">
        <ele>405.5</ele>
        <time>2022-03-01T17:27:13Z</time>
      </trkpt>
      <trkpt lat="39.9065920" lon="-4.5356990">
        <ele>405.7</ele>
        <time>2022-03-01T17:27:14Z</time>
      </trkpt>
      <trkpt lat="39.9065730" lon="-4.5356140">
        <ele>405.8</ele>
        <time>2022-03-01T17:27:15Z</time>
      </trkpt>
      <trkpt lat="39.9065520" lon="-4.5355220">
        <ele>405.9</ele>
        <time>2022-03-01T17:27:16Z</time>
      </trkpt>
      <trkpt lat="39.9065370" lon="-4.5354310">
        <ele>406.0</ele>
        <time>2022-03-01T17:27:17Z</time>
      </trkpt>
      <trkpt lat="39.9065210" lon="-4.5353440">
        <ele>406.1</ele>
        <time>2022-03-01T17:27:18Z</time>
      </trkpt>
      <trkpt lat="39.9064950" lon="-4.5352600">
        <ele>406.2</ele>
        <time>2022-03-01T17:27:19Z</time>
      </trkpt>
      <trkpt lat="39.9064740" lon="-4.5351730">
        <ele>406.2</ele>
        <time>2022-03-01T17:27:20Z</time>
      </trkpt>
      <trkpt lat="39.9064600" lon="-4.5350790">
        <ele>406.3</ele>
        <time>2022-03-01T17:27:21Z</time>
      </trkpt>
      <trkpt lat="39.9064390" lon="-4.5349950">
        <ele>406.4</ele>
        <time>2022-03-01T17:27:22Z</time>
      </trkpt>
      <trkpt lat="39.9064220" lon="-4.5349120">
        <ele>406.5</ele>
        <time>2022-03-01T17:27:23Z</time>
      </trkpt>
      <trkpt lat="39.9064060" lon="-4.5348180">
        <ele>406.6</ele>
        <time>2022-03-01T17:27:24Z</time>
      </trkpt>
      <trkpt lat="39.9063880" lon="-4.5347280">
        <ele>406.6</ele>
        <time>2022-03-01T17:27:25Z</time>
      </trkpt>
      <trkpt lat="39.9063740" lon="-4.5346350">
        <ele>406.7</ele>
        <time>2022-03-01T17:27:26Z</time>
      </trkpt>
      <trkpt lat="39.9063570" lon="-4.5345460">
        <ele>406.8</ele>
        <time>2022-03-01T17:27:27Z</time>
      </trkpt>
      <trkpt lat="39.9063430" lon="-4.5344600">
        <ele>406.8</ele>
        <time>2022-03-01T17:27:28Z</time>
      </trkpt>
      <trkpt lat="39.9063290" lon="-4.5343710">
        <ele>406.9</ele>
        <time>2022-03-01T17:27:29Z</time>
      </trkpt>
      <trkpt lat="39.9063170" lon="-4.5342820">
        <ele>407.0</ele>
        <time>2022-03-01T17:27:30Z</time>
      </trkpt>
      <trkpt lat="39.9063080" lon="-4.5341950">
        <ele>407.0</ele>
        <time>2022-03-01T17:27:31Z</time>
      </trkpt>
      <trkpt lat="39.9062960" lon="-4.5341030">
        <ele>407.0</ele>
        <time>2022-03-01T17:27:32Z</time>
      </trkpt>
      <trkpt lat="39.9062890" lon="-4.5340160">
        <ele>407.1</ele>
        <time>2022-03-01T17:27:33Z</time>
      </trkpt>
      <trkpt lat="39.9062800" lon="-4.5339200">
        <ele>407.1</ele>
        <time>2022-03-01T17:27:34Z</time>
      </trkpt>
      <trkpt lat="39.9062710" lon="-4.5338240">
        <ele>407.2</ele>
        <time>2022-03-01T17:27:35Z</time>
      </trkpt>
      <trkpt lat="39.9062610" lon="-4.5337250">
        <ele>407.2</ele>
        <time>2022-03-01T17:27:36Z</time>
      </trkpt>
      <trkpt lat="39.9062580" lon="-4.5336290">
        <ele>407.2</ele>
        <time>2022-03-01T17:27:37Z</time>
      </trkpt>
      <trkpt lat="39.9062530" lon="-4.5335280">
        <ele>407.2</ele>
        <time>2022-03-01T17:27:38Z</time>
      </trkpt>
      <trkpt lat="39.9062510" lon="-4.5334270">
        <ele>407.3</ele>
        <time>2022-03-01T17:27:39Z</time>
      </trkpt>
      <trkpt lat="39.9062470" lon="-4.5333200">
        <ele>407.3</ele>
        <time>2022-03-01T17:27:40Z</time>
      </trkpt>
      <trkpt lat="39.9062430" lon="-4.5332180">
        <ele>407.3</ele>
        <time>2022-03-01T17:27:41Z</time>
      </trkpt>
      <trkpt lat="39.9062370" lon="-4.5331160">
        <ele>407.3</ele>
        <time>2022-03-01T17:27:42Z</time>
      </trkpt>
      <trkpt lat="39.9062310" lon="-4.5330120">
        <ele>407.2</ele>
        <time>2022-03-01T17:27:43Z</time>
      </trkpt>
      <trkpt lat="39.9062270" lon="-4.5329020">
        <ele>407.2</ele>
        <time>2022-03-01T17:27:44Z</time>
      </trkpt>
      <trkpt lat="39.9062230" lon="-4.5327900">
        <ele>407.2</ele>
        <time>2022-03-01T17:27:45Z</time>
      </trkpt>
      <trkpt lat="39.9062180" lon="-4.5326800">
        <ele>407.2</ele>
        <time>2022-03-01T17:27:46Z</time>
      </trkpt>
      <trkpt lat="39.9062120" lon="-4.5325700">
        <ele>407.1</ele>
        <time>2022-03-01T17:27:47Z</time>
      </trkpt>
      <trkpt lat="39.9062070" lon="-4.5324650">
        <ele>407.1</ele>
        <time>2022-03-01T17:27:48Z</time>
      </trkpt>
      <trkpt lat="39.9062020" lon="-4.5323580">
        <ele>407.1</ele>
        <time>2022-03-01T17:27:49Z</time>
      </trkpt>
      <trkpt lat="39.9061970" lon="-4.5322530">
        <ele>407.0</ele>
        <time>2022-03-01T17:27:50Z</time>
      </trkpt>
      <trkpt lat="39.9061960" lon="-4.5321430">
        <ele>407.0</ele>
        <time>2022-03-01T17:27:51Z</time>
      </trkpt>
      <trkpt lat="39.9061930" lon="-4.5320340">
        <ele>407.0</ele>
        <time>2022-03-01T17:27:52Z</time>
      </trkpt>
      <trkpt lat="39.9061880" lon="-4.5319310">
        <ele>406.9</ele>
        <time>2022-03-01T17:27:53Z</time>
      </trkpt>
      <trkpt lat="39.9061840" lon="-4.5318240">
        <ele>406.9</ele>
        <time>2022-03-01T17:27:54Z</time>
      </trkpt>
      <trkpt lat="39.9061820" lon="-4.5317190">
        <ele>406.9</ele>
        <time>2022-03-01T17:27:55Z</time>
      </trkpt>
      <trkpt lat="39.9061750" lon="-4.5316120">
        <ele>406.8</ele>
        <time>2022-03-01T17:27:56Z</time>
      </trkpt>
      <trkpt lat="39.9061700" lon="-4.5315000">
        <ele>406.8</ele>
        <time>2022-03-01T17:27:57Z</time>
      </trkpt>
      <trkpt lat="39.9061590" lon="-4.5314000">
        <ele>406.8</ele>
        <time>2022-03-01T17:27:58Z</time>
      </trkpt>
      <trkpt lat="39.9061550" lon="-4.5312920">
        <ele>406.7</ele>
        <time>2022-03-01T17:27:59Z</time>
      </trkpt>
      <trkpt lat="39.9061530" lon="-4.5311840">
        <ele>406.7</ele>
        <time>2022-03-01T17:28:00Z</time>
      </trkpt>
      <trkpt lat="39.9061480" lon="-4.5310800">
        <ele>406.6</ele>
        <time>2022-03-01T17:28:01Z</time>
      </trkpt>
      <trkpt lat="39.9061500" lon="-4.5309760">
        <ele>406.6</ele>
        <time>2022-03-01T17:28:02Z</time>
      </trkpt>
      <trkpt lat="39.9061440" lon="-4.5308760">
        <ele>406.5</ele>
        <time>2022-03-01T17:28:03Z</time>
      </trkpt>
      <trkpt lat="39.9061410" lon="-4.5307730">
        <ele>406.5</ele>
        <time>2022-03-01T17:28:04Z</time>
      </trkpt>
      <trkpt lat="39.9061420" lon="-4.5306660">
        <ele>406.5</ele>
        <time>2022-03-01T17:28:05Z</time>
      </trkpt>
      <trkpt lat="39.9061340" lon="-4.5305680">
        <ele>406.4</ele>
        <time>2022-03-01T17:28:06Z</time>
      </trkpt>
      <trkpt lat="39.9061290" lon="-4.5304650">
        <ele>406.4</ele>
        <time>2022-03-01T17:28:07Z</time>
      </trkpt>
      <trkpt lat="39.9061220" lon="-4.5303690">
        <ele>406.4</ele>
        <time>2022-03-01T17:28:08Z</time>
      </trkpt>
      <trkpt lat="39.9061160" lon="-4.5302740">
        <ele>406.3</ele>
        <time>2022-03-01T17:28:09Z</time>
      </trkpt>
      <trkpt lat="39.9061130" lon="-4.5301780">
        <ele>406.3</ele>
        <time>2022-03-01T17:28:10Z</time>
      </trkpt>
      <trkpt lat="39.9061090" lon="-4.5300760">
        <ele>406.3</ele>
        <time>2022-03-01T17:28:11Z</time>
      </trkpt>
      <trkpt lat="39.9061040" lon="-4.5299770">
        <ele>406.3</ele>
        <time>2022-03-01T17:28:12Z</time>
      </trkpt>
      <trkpt lat="39.9060970" lon="-4.5298780">
        <ele>406.3</ele>
        <time>2022-03-01T17:28:13Z</time>
      </trkpt>
      <trkpt lat="39.9060910" lon="-4.5297800">
        <ele>406.3</ele>
        <time>2022-03-01T17:28:14Z</time>
      </trkpt>
      <trkpt lat="39.9060860" lon="-4.5296820">
        <ele>406.3</ele>
        <time>2022-03-01T17:28:15Z</time>
      </trkpt>
      <trkpt lat="39.9060840" lon="-4.5295810">
        <ele>406.3</ele>
        <time>2022-03-01T17:28:16Z</time>
      </trkpt>
      <trkpt lat="39.9060770" lon="-4.5294810">
        <ele>406.3</ele>
        <time>2022-03-01T17:28:17Z</time>
      </trkpt>
      <trkpt lat="39.9060720" lon="-4.5293800">
        <ele>406.3</ele>
        <time>2022-03-01T17:28:18Z</time>
      </trkpt>
      <trkpt lat="39.9060640" lon="-4.5292830">
        <ele>406.3</ele>
        <time>2022-03-01T17:28:19Z</time>
      </trkpt>
      <trkpt lat="39.9060610" lon="-4.5291720">
        <ele>406.3</ele>
        <time>2022-03-01T17:28:20Z</time>
      </trkpt>
      <trkpt lat="39.9060550" lon="-4.5290630">
        <ele>406.4</ele>
        <time>2022-03-01T17:28:21Z</time>
      </trkpt>
      <trkpt lat="39.9060500" lon="-4.5289630">
        <ele>406.5</ele>
        <time>2022-03-01T17:28:22Z</time>
      </trkpt>
      <trkpt lat="39.9060470" lon="-4.5288550">
        <ele>406.6</ele>
        <time>2022-03-01T17:28:23Z</time>
      </trkpt>
      <trkpt lat="39.9060430" lon="-4.5287490">
        <ele>406.7</ele>
        <time>2022-03-01T17:28:24Z</time>
      </trkpt>
      <trkpt lat="39.9060380" lon="-4.5286410">
        <ele>406.8</ele>
        <time>2022-03-01T17:28:25Z</time>
      </trkpt>
      <trkpt lat="39.9060340" lon="-4.5285450">
        <ele>406.9</ele>
        <time>2022-03-01T17:28:26Z</time>
      </trkpt>
      <trkpt lat="39.9060340" lon="-4.5284410">
        <ele>407.0</ele>
        <time>2022-03-01T17:28:27Z</time>
      </trkpt>
      <trkpt lat="39.9060290" lon="-4.5283440">
        <ele>407.2</ele>
        <time>2022-03-01T17:28:28Z</time>
      </trkpt>
      <trkpt lat="39.9060300" lon="-4.5282400">
        <ele>407.3</ele>
        <time>2022-03-01T17:28:29Z</time>
      </trkpt>
      <trkpt lat="39.9060340" lon="-4.5281370">
        <ele>407.5</ele>
        <time>2022-03-01T17:28:30Z</time>
      </trkpt>
      <trkpt lat="39.9060280" lon="-4.5280420">
        <ele>407.7</ele>
        <time>2022-03-01T17:28:31Z</time>
      </trkpt>
      <trkpt lat="39.9060220" lon="-4.5279500">
        <ele>407.8</ele>
        <time>2022-03-01T17:28:32Z</time>
      </trkpt>
      <trkpt lat="39.9060160" lon="-4.5278590">
        <ele>408.0</ele>
        <time>2022-03-01T17:28:33Z</time>
      </trkpt>
      <trkpt lat="39.9060100" lon="-4.5277700">
        <ele>408.1</ele>
        <time>2022-03-01T17:28:34Z</time>
      </trkpt>
      <trkpt lat="39.9060070" lon="-4.5276770">
        <ele>408.3</ele>
        <time>2022-03-01T17:28:35Z</time>
      </trkpt>
      <trkpt lat="39.9060080" lon="-4.5275880">
        <ele>408.5</ele>
        <time>2022-03-01T17:28:36Z</time>
      </trkpt>
      <trkpt lat="39.9060050" lon="-4.5274960">
        <ele>408.6</ele>
        <time>2022-03-01T17:28:37Z</time>
      </trkpt>
      <trkpt lat="39.9060020" lon="-4.5274120">
        <ele>408.8</ele>
        <time>2022-03-01T17:28:38Z</time>
      </trkpt>
      <trkpt lat="39.9059990" lon="-4.5273260">
        <ele>408.9</ele>
        <time>2022-03-01T17:28:39Z</time>
      </trkpt>
      <trkpt lat="39.9059950" lon="-4.5272420">
        <ele>409.1</ele>
        <time>2022-03-01T17:28:40Z</time>
      </trkpt>
      <trkpt lat="39.9059890" lon="-4.5271580">
        <ele>409.2</ele>
        <time>2022-03-01T17:28:41Z</time>
      </trkpt>
      <trkpt lat="39.9059840" lon="-4.5270740">
        <ele>409.4</ele>
        <time>2022-03-01T17:28:42Z</time>
      </trkpt>
      <trkpt lat="39.9059800" lon="-4.5269900">
        <ele>409.5</ele>
        <time>2022-03-01T17:28:43Z</time>
      </trkpt>
      <trkpt lat="39.9059760" lon="-4.5269040">
        <ele>409.7</ele>
        <time>2022-03-01T17:28:44Z</time>
      </trkpt>
      <trkpt lat="39.9059700" lon="-4.5268140">
        <ele>409.8</ele>
        <time>2022-03-01T17:28:45Z</time>
      </trkpt>
      <trkpt lat="39.9059710" lon="-4.5267250">
        <ele>410.0</ele>
        <time>2022-03-01T17:28:46Z</time>
      </trkpt>
      <trkpt lat="39.9059670" lon="-4.5266370">
        <ele>410.1</ele>
        <time>2022-03-01T17:28:47Z</time>
      </trkpt>
      <trkpt lat="39.9059630" lon="-4.5265480">
        <ele>410.2</ele>
        <time>2022-03-01T17:28:48Z</time>
      </trkpt>
      <trkpt lat="39.9059610" lon="-4.5264580">
        <ele>410.3</ele>
        <time>2022-03-01T17:28:49Z</time>
      </trkpt>
      <trkpt lat="39.9059550" lon="-4.5263710">
        <ele>410.4</ele>
        <time>2022-03-01T17:28:50Z</time>
      </trkpt>
      <trkpt lat="39.9059540" lon="-4.5262780">
        <ele>410.5</ele>
        <time>2022-03-01T17:28:51Z</time>
      </trkpt>
      <trkpt lat="39.9059480" lon="-4.5261870">
        <ele>410.6</ele>
        <time>2022-03-01T17:28:52Z</time>
      </trkpt>
      <trkpt lat="39.9059480" lon="-4.5260930">
        <ele>410.7</ele>
        <time>2022-03-01T17:28:53Z</time>
      </trkpt>
      <trkpt lat="39.9059420" lon="-4.5259990">
        <ele>410.8</ele>
        <time>2022-03-01T17:28:54Z</time>
      </trkpt>
      <trkpt lat="39.9059390" lon="-4.5259080">
        <ele>410.9</ele>
        <time>2022-03-01T17:28:55Z</time>
      </trkpt>
      <trkpt lat="39.9059330" lon="-4.5258140">
        <ele>411.0</ele>
        <time>2022-03-01T17:28:56Z</time>
      </trkpt>
      <trkpt lat="39.9059310" lon="-4.5257210">
        <ele>411.1</ele>
        <time>2022-03-01T17:28:57Z</time>
      </trkpt>
      <trkpt lat="39.9059260" lon="-4.5256300">
        <ele>411.2</ele>
        <time>2022-03-01T17:28:58Z</time>
      </trkpt>
      <trkpt lat="39.9059200" lon="-4.5255400">
        <ele>411.2</ele>
        <time>2022-03-01T17:28:59Z</time>
      </trkpt>
      <trkpt lat="39.9059140" lon="-4.5254420">
        <ele>411.3</ele>
        <time>2022-03-01T17:29:00Z</time>
      </trkpt>
      <trkpt lat="39.9059200" lon="-4.5253440">
        <ele>411.4</ele>
        <time>2022-03-01T17:29:01Z</time>
      </trkpt>
      <trkpt lat="39.9059070" lon="-4.5252660">
        <ele>411.4</ele>
        <time>2022-03-01T17:29:02Z</time>
      </trkpt>
      <trkpt lat="39.9059030" lon="-4.5251770">
        <ele>411.4</ele>
        <time>2022-03-01T17:29:03Z</time>
      </trkpt>
      <trkpt lat="39.9058970" lon="-4.5250830">
        <ele>411.5</ele>
        <time>2022-03-01T17:29:04Z</time>
      </trkpt>
      <trkpt lat="39.9058950" lon="-4.5249880">
        <ele>411.5</ele>
        <time>2022-03-01T17:29:05Z</time>
      </trkpt>
      <trkpt lat="39.9058840" lon="-4.5249100">
        <ele>411.5</ele>
        <time>2022-03-01T17:29:06Z</time>
      </trkpt>
      <trkpt lat="39.9058780" lon="-4.5248150">
        <ele>411.5</ele>
        <time>2022-03-01T17:29:07Z</time>
      </trkpt>
      <trkpt lat="39.9058710" lon="-4.5247280">
        <ele>411.5</ele>
        <time>2022-03-01T17:29:08Z</time>
      </trkpt>
      <trkpt lat="39.9058700" lon="-4.5246410">
        <ele>411.5</ele>
        <time>2022-03-01T17:29:09Z</time>
      </trkpt>
      <trkpt lat="39.9058670" lon="-4.5245580">
        <ele>411.5</ele>
        <time>2022-03-01T17:29:10Z</time>
      </trkpt>
      <trkpt lat="39.9058600" lon="-4.5244780">
        <ele>411.5</ele>
        <time>2022-03-01T17:29:11Z</time>
      </trkpt>
      <trkpt lat="39.9058580" lon="-4.5243970">
        <ele>411.5</ele>
        <time>2022-03-01T17:29:12Z</time>
      </trkpt>
      <trkpt lat="39.9058510" lon="-4.5243160">
        <ele>411.4</ele>
        <time>2022-03-01T17:29:13Z</time>
      </trkpt>
      <trkpt lat="39.9058350" lon="-4.5242380">
        <ele>411.4</ele>
        <time>2022-03-01T17:29:14Z</time>
      </trkpt>
      <trkpt lat="39.9058320" lon="-4.5241510">
        <ele>411.4</ele>
        <time>2022-03-01T17:29:15Z</time>
      </trkpt>
      <trkpt lat="39.9058260" lon="-4.5240620">
        <ele>411.3</ele>
        <time>2022-03-01T17:29:16Z</time>
      </trkpt>
      <trkpt lat="39.9058040" lon="-4.5239710">
        <ele>411.3</ele>
        <time>2022-03-01T17:29:17Z</time>
      </trkpt>
      <trkpt lat="39.9058010" lon="-4.5238670">
        <ele>411.2</ele>
        <time>2022-03-01T17:29:18Z</time>
      </trkpt>
      <trkpt lat="39.9058050" lon="-4.5237590">
        <ele>411.1</ele>
        <time>2022-03-01T17:29:19Z</time>
      </trkpt>
      <trkpt lat="39.9057960" lon="-4.5236490">
        <ele>411.0</ele>
        <time>2022-03-01T17:29:20Z</time>
      </trkpt>
      <trkpt lat="39.9057930" lon="-4.5235370">
        <ele>410.9</ele>
        <time>2022-03-01T17:29:21Z</time>
      </trkpt>
      <trkpt lat="39.9057910" lon="-4.5234320">
        <ele>410.8</ele>
        <time>2022-03-01T17:29:22Z</time>
      </trkpt>
      <trkpt lat="39.9057830" lon="-4.5233180">
        <ele>410.6</ele>
        <time>2022-03-01T17:29:23Z</time>
      </trkpt>
      <trkpt lat="39.9057810" lon="-4.5232000">
        <ele>410.5</ele>
        <time>2022-03-01T17:29:24Z</time>
      </trkpt>
      <trkpt lat="39.9057740" lon="-4.5230970">
        <ele>410.3</ele>
        <time>2022-03-01T17:29:25Z</time>
      </trkpt>
      <trkpt lat="39.9057610" lon="-4.5229680">
        <ele>410.1</ele>
        <time>2022-03-01T17:29:26Z</time>
      </trkpt>
      <trkpt lat="39.9057610" lon="-4.5228590">
        <ele>409.9</ele>
        <time>2022-03-01T17:29:27Z</time>
      </trkpt>
      <trkpt lat="39.9057660" lon="-4.5227380">
        <ele>409.7</ele>
        <time>2022-03-01T17:29:28Z</time>
      </trkpt>
      <trkpt lat="39.9057660" lon="-4.5226180">
        <ele>409.5</ele>
        <time>2022-03-01T17:29:29Z</time>
      </trkpt>
      <trkpt lat="39.9057560" lon="-4.5225030">
        <ele>409.3</ele>
        <time>2022-03-01T17:29:30Z</time>
      </trkpt>
      <trkpt lat="39.9057500" lon="-4.5223820">
        <ele>409.1</ele>
        <time>2022-03-01T17:29:31Z</time>
      </trkpt>
      <trkpt lat="39.9057460" lon="-4.5222620">
        <ele>408.9</ele>
        <time>2022-03-01T17:29:32Z</time>
      </trkpt>
      <trkpt lat="39.9057400" lon="-4.5221440">
        <ele>408.6</ele>
        <time>2022-03-01T17:29:33Z</time>
      </trkpt>
      <trkpt lat="39.9057320" lon="-4.5220210">
        <ele>408.4</ele>
        <time>2022-03-01T17:29:34Z</time>
      </trkpt>
      <trkpt lat="39.9057290" lon="-4.5218960">
        <ele>408.0</ele>
        <time>2022-03-01T17:29:35Z</time>
      </trkpt>
      <trkpt lat="39.9057270" lon="-4.5217690">
        <ele>407.7</ele>
        <time>2022-03-01T17:29:36Z</time>
      </trkpt>
      <trkpt lat="39.9057180" lon="-4.5216460">
        <ele>407.4</ele>
        <time>2022-03-01T17:29:37Z</time>
      </trkpt>
      <trkpt lat="39.9057130" lon="-4.5215210">
        <ele>407.1</ele>
        <time>2022-03-01T17:29:38Z</time>
      </trkpt>
      <trkpt lat="39.9057070" lon="-4.5213920">
        <ele>406.7</ele>
        <time>2022-03-01T17:29:39Z</time>
      </trkpt>
      <trkpt lat="39.9057070" lon="-4.5212610">
        <ele>406.3</ele>
        <time>2022-03-01T17:29:40Z</time>
      </trkpt>
      <trkpt lat="39.9057050" lon="-4.5211280">
        <ele>405.9</ele>
        <time>2022-03-01T17:29:41Z</time>
      </trkpt>
      <trkpt lat="39.9057010" lon="-4.5209970">
        <ele>405.6</ele>
        <time>2022-03-01T17:29:42Z</time>
      </trkpt>
      <trkpt lat="39.9056960" lon="-4.5208630">
        <ele>405.2</ele>
        <time>2022-03-01T17:29:43Z</time>
      </trkpt>
      <trkpt lat="39.9056900" lon="-4.5207300">
        <ele>404.8</ele>
        <time>2022-03-01T17:29:44Z</time>
      </trkpt>
      <trkpt lat="39.9056830" lon="-4.5205940">
        <ele>404.4</ele>
        <time>2022-03-01T17:29:45Z</time>
      </trkpt>
      <trkpt lat="39.9056770" lon="-4.5204590">
        <ele>404.0</ele>
        <time>2022-03-01T17:29:46Z</time>
      </trkpt>
      <trkpt lat="39.9056710" lon="-4.5203190">
        <ele>403.6</ele>
        <time>2022-03-01T17:29:47Z</time>
      </trkpt>
      <trkpt lat="39.9056660" lon="-4.5201800">
        <ele>403.3</ele>
        <time>2022-03-01T17:29:48Z</time>
      </trkpt>
      <trkpt lat="39.9056620" lon="-4.5200410">
        <ele>402.9</ele>
        <time>2022-03-01T17:29:49Z</time>
      </trkpt>
      <trkpt lat="39.9056560" lon="-4.5199020">
        <ele>402.6</ele>
        <time>2022-03-01T17:29:50Z</time>
      </trkpt>
      <trkpt lat="39.9056480" lon="-4.5197670">
        <ele>402.2</ele>
        <time>2022-03-01T17:29:51Z</time>
      </trkpt>
      <trkpt lat="39.9056420" lon="-4.5196290">
        <ele>401.9</ele>
        <time>2022-03-01T17:29:52Z</time>
      </trkpt>
      <trkpt lat="39.9056360" lon="-4.5194900">
        <ele>401.6</ele>
        <time>2022-03-01T17:29:53Z</time>
      </trkpt>
      <trkpt lat="39.9056290" lon="-4.5193530">
        <ele>401.3</ele>
        <time>2022-03-01T17:29:54Z</time>
      </trkpt>
      <trkpt lat="39.9056220" lon="-4.5192170">
        <ele>401.1</ele>
        <time>2022-03-01T17:29:55Z</time>
      </trkpt>
      <trkpt lat="39.9056190" lon="-4.5190790">
        <ele>400.8</ele>
        <time>2022-03-01T17:29:56Z</time>
      </trkpt>
      <trkpt lat="39.9056100" lon="-4.5189450">
        <ele>400.5</ele>
        <time>2022-03-01T17:29:57Z</time>
      </trkpt>
      <trkpt lat="39.9056200" lon="-4.5188090">
        <ele>400.3</ele>
        <time>2022-03-01T17:29:58Z</time>
      </trkpt>
      <trkpt lat="39.9056080" lon="-4.5186730">
        <ele>400.1</ele>
        <time>2022-03-01T17:29:59Z</time>
      </trkpt>
      <trkpt lat="39.9055990" lon="-4.5185400">
        <ele>399.8</ele>
        <time>2022-03-01T17:30:00Z</time>
      </trkpt>
      <trkpt lat="39.9055930" lon="-4.5184110">
        <ele>399.6</ele>
        <time>2022-03-01T17:30:01Z</time>
      </trkpt>
      <trkpt lat="39.9055880" lon="-4.5182790">
        <ele>399.5</ele>
        <time>2022-03-01T17:30:02Z</time>
      </trkpt>
      <trkpt lat="39.9055830" lon="-4.5181500">
        <ele>399.4</ele>
        <time>2022-03-01T17:30:03Z</time>
      </trkpt>
      <trkpt lat="39.9055810" lon="-4.5180220">
        <ele>399.2</ele>
        <time>2022-03-01T17:30:04Z</time>
      </trkpt>
      <trkpt lat="39.9055750" lon="-4.5178940">
        <ele>399.1</ele>
        <time>2022-03-01T17:30:05Z</time>
      </trkpt>
      <trkpt lat="39.9055640" lon="-4.5177620">
        <ele>399.0</ele>
        <time>2022-03-01T17:30:06Z</time>
      </trkpt>
      <trkpt lat="39.9055550" lon="-4.5176420">
        <ele>398.9</ele>
        <time>2022-03-01T17:30:07Z</time>
      </trkpt>
      <trkpt lat="39.9055560" lon="-4.5175180">
        <ele>398.9</ele>
        <time>2022-03-01T17:30:08Z</time>
      </trkpt>
      <trkpt lat="39.9055490" lon="-4.5173980">
        <ele>398.9</ele>
        <time>2022-03-01T17:30:09Z</time>
      </trkpt>
      <trkpt lat="39.9055410" lon="-4.5172800">
        <ele>398.9</ele>
        <time>2022-03-01T17:30:10Z</time>
      </trkpt>
      <trkpt lat="39.9055400" lon="-4.5171470">
        <ele>398.9</ele>
        <time>2022-03-01T17:30:11Z</time>
      </trkpt>
      <trkpt lat="39.9055340" lon="-4.5170280">
        <ele>398.9</ele>
        <time>2022-03-01T17:30:12Z</time>
      </trkpt>
      <trkpt lat="39.9055270" lon="-4.5169070">
        <ele>398.9</ele>
        <time>2022-03-01T17:30:13Z</time>
      </trkpt>
      <trkpt lat="39.9055190" lon="-4.5168010">
        <ele>398.9</ele>
        <time>2022-03-01T17:30:14Z</time>
      </trkpt>
      <trkpt lat="39.9055170" lon="-4.5166780">
        <ele>399.0</ele>
        <time>2022-03-01T17:30:15Z</time>
      </trkpt>
      <trkpt lat="39.9055140" lon="-4.5165600">
        <ele>399.0</ele>
        <time>2022-03-01T17:30:16Z</time>
      </trkpt>
      <trkpt lat="39.9055070" lon="-4.5164470">
        <ele>399.0</ele>
        <time>2022-03-01T17:30:17Z</time>
      </trkpt>
      <trkpt lat="39.9055060" lon="-4.5163310">
        <ele>399.0</ele>
        <time>2022-03-01T17:30:18Z</time>
      </trkpt>
      <trkpt lat="39.9055030" lon="-4.5162140">
        <ele>399.1</ele>
        <time>2022-03-01T17:30:19Z</time>
      </trkpt>
      <trkpt lat="39.9054970" lon="-4.5160960">
        <ele>399.1</ele>
        <time>2022-03-01T17:30:20Z</time>
      </trkpt>
      <trkpt lat="39.9054910" lon="-4.5159810">
        <ele>399.1</ele>
        <time>2022-03-01T17:30:21Z</time>
      </trkpt>
      <trkpt lat="39.9054840" lon="-4.5158740">
        <ele>399.2</ele>
        <time>2022-03-01T17:30:22Z</time>
      </trkpt>
      <trkpt lat="39.9054810" lon="-4.5157590">
        <ele>399.2</ele>
        <time>2022-03-01T17:30:23Z</time>
      </trkpt>
      <trkpt lat="39.9054750" lon="-4.5156470">
        <ele>399.2</ele>
        <time>2022-03-01T17:30:24Z</time>
      </trkpt>
      <trkpt lat="39.9054710" lon="-4.5155330">
        <ele>399.2</ele>
        <time>2022-03-01T17:30:25Z</time>
      </trkpt>
      <trkpt lat="39.9054640" lon="-4.5154190">
        <ele>399.2</ele>
        <time>2022-03-01T17:30:26Z</time>
      </trkpt>
      <trkpt lat="39.9054600" lon="-4.5153110">
        <ele>399.2</ele>
        <time>2022-03-01T17:30:27Z</time>
      </trkpt>
      <trkpt lat="39.9054560" lon="-4.5151980">
        <ele>399.2</ele>
        <time>2022-03-01T17:30:28Z</time>
      </trkpt>
      <trkpt lat="39.9054520" lon="-4.5150850">
        <ele>399.2</ele>
        <time>2022-03-01T17:30:29Z</time>
      </trkpt>
      <trkpt lat="39.9054490" lon="-4.5149730">
        <ele>399.2</ele>
        <time>2022-03-01T17:30:30Z</time>
      </trkpt>
      <trkpt lat="39.9054430" lon="-4.5148700">
        <ele>399.2</ele>
        <time>2022-03-01T17:30:31Z</time>
      </trkpt>
      <trkpt lat="39.9054400" lon="-4.5147540">
        <ele>399.2</ele>
        <time>2022-03-01T17:30:32Z</time>
      </trkpt>
      <trkpt lat="39.9054350" lon="-4.5146410">
        <ele>399.2</ele>
        <time>2022-03-01T17:30:33Z</time>
      </trkpt>
      <trkpt lat="39.9054290" lon="-4.5145360">
        <ele>399.3</ele>
        <time>2022-03-01T17:30:34Z</time>
      </trkpt>
      <trkpt lat="39.9054240" lon="-4.5144270">
        <ele>399.3</ele>
        <time>2022-03-01T17:30:35Z</time>
      </trkpt>
      <trkpt lat="39.9054210" lon="-4.5143200">
        <ele>399.3</ele>
        <time>2022-03-01T17:30:36Z</time>
      </trkpt>
      <trkpt lat="39.9054150" lon="-4.5142100">
        <ele>399.3</ele>
        <time>2022-03-01T17:30:37Z</time>
      </trkpt>
      <trkpt lat="39.9054100" lon="-4.5140990">
        <ele>399.3</ele>
        <time>2022-03-01T17:30:38Z</time>
      </trkpt>
      <trkpt lat="39.9054080" lon="-4.5139870">
        <ele>399.3</ele>
        <time>2022-03-01T17:30:39Z</time>
      </trkpt>
      <trkpt lat="39.9054030" lon="-4.5138800">
        <ele>399.3</ele>
        <time>2022-03-01T17:30:40Z</time>
      </trkpt>
      <trkpt lat="39.9053950" lon="-4.5137790">
        <ele>399.3</ele>
        <time>2022-03-01T17:30:41Z</time>
      </trkpt>
      <trkpt lat="39.9053880" lon="-4.5136680">
        <ele>399.4</ele>
        <time>2022-03-01T17:30:42Z</time>
      </trkpt>
      <trkpt lat="39.9053850" lon="-4.5135630">
        <ele>399.4</ele>
        <time>2022-03-01T17:30:43Z</time>
      </trkpt>
      <trkpt lat="39.9053820" lon="-4.5134550">
        <ele>399.5</ele>
        <time>2022-03-01T17:30:44Z</time>
      </trkpt>
      <trkpt lat="39.9053710" lon="-4.5133560">
        <ele>399.6</ele>
        <time>2022-03-01T17:30:45Z</time>
      </trkpt>
      <trkpt lat="39.9053690" lon="-4.5132480">
        <ele>399.6</ele>
        <time>2022-03-01T17:30:46Z</time>
      </trkpt>
      <trkpt lat="39.9053660" lon="-4.5131430">
        <ele>399.7</ele>
        <time>2022-03-01T17:30:47Z</time>
      </trkpt>
      <trkpt lat="39.9053620" lon="-4.5130450">
        <ele>399.7</ele>
        <time>2022-03-01T17:30:48Z</time>
      </trkpt>
      <trkpt lat="39.9053580" lon="-4.5129440">
        <ele>399.8</ele>
        <time>2022-03-01T17:30:49Z</time>
      </trkpt>
      <trkpt lat="39.9053520" lon="-4.5128450">
        <ele>399.9</ele>
        <time>2022-03-01T17:30:50Z</time>
      </trkpt>
      <trkpt lat="39.9053420" lon="-4.5127500">
        <ele>400.0</ele>
        <time>2022-03-01T17:30:51Z</time>
      </trkpt>
      <trkpt lat="39.9053400" lon="-4.5126450">
        <ele>400.1</ele>
        <time>2022-03-01T17:30:52Z</time>
      </trkpt>
      <trkpt lat="39.9053370" lon="-4.5125390">
        <ele>400.3</ele>
        <time>2022-03-01T17:30:53Z</time>
      </trkpt>
      <trkpt lat="39.9053330" lon="-4.5124410">
        <ele>400.4</ele>
        <time>2022-03-01T17:30:54Z</time>
      </trkpt>
      <trkpt lat="39.9053280" lon="-4.5123450">
        <ele>400.5</ele>
        <time>2022-03-01T17:30:55Z</time>
      </trkpt>
      <trkpt lat="39.9053220" lon="-4.5122460">
        <ele>400.6</ele>
        <time>2022-03-01T17:30:56Z</time>
      </trkpt>
      <trkpt lat="39.9053130" lon="-4.5121570">
        <ele>400.7</ele>
        <time>2022-03-01T17:30:57Z</time>
      </trkpt>
      <trkpt lat="39.9053080" lon="-4.5120630">
        <ele>400.9</ele>
        <time>2022-03-01T17:30:58Z</time>
      </trkpt>
      <trkpt lat="39.9053070" lon="-4.5119690">
        <ele>401.0</ele>
        <time>2022-03-01T17:30:59Z</time>
      </trkpt>
      <trkpt lat="39.9053030" lon="-4.5118730">
        <ele>401.1</ele>
        <time>2022-03-01T17:31:00Z</time>
      </trkpt>
      <trkpt lat="39.9052990" lon="-4.5117780">
        <ele>401.2</ele>
        <time>2022-03-01T17:31:01Z</time>
      </trkpt>
      <trkpt lat="39.9052980" lon="-4.5116900">
        <ele>401.3</ele>
        <time>2022-03-01T17:31:02Z</time>
      </trkpt>
      <trkpt lat="39.9052900" lon="-4.5115920">
        <ele>401.5</ele>
        <time>2022-03-01T17:31:03Z</time>
      </trkpt>
      <trkpt lat="39.9052860" lon="-4.5114960">
        <ele>401.6</ele>
        <time>2022-03-01T17:31:04Z</time>
      </trkpt>
      <trkpt lat="39.9052860" lon="-4.5114010">
        <ele>401.7</ele>
        <time>2022-03-01T17:31:05Z</time>
      </trkpt>
      <trkpt lat="39.9052800" lon="-4.5113050">
        <ele>401.7</ele>
        <time>2022-03-01T17:31:06Z</time>
      </trkpt>
      <trkpt lat="39.9052760" lon="-4.5112080">
        <ele>401.8</ele>
        <time>2022-03-01T17:31:07Z</time>
      </trkpt>
      <trkpt lat="39.9052760" lon="-4.5111090">
        <ele>401.9</ele>
        <time>2022-03-01T17:31:08Z</time>
      </trkpt>
      <trkpt lat="39.9052700" lon="-4.5110150">
        <ele>402.0</ele>
        <time>2022-03-01T17:31:09Z</time>
      </trkpt>
      <trkpt lat="39.9052670" lon="-4.5109150">
        <ele>402.1</ele>
        <time>2022-03-01T17:31:10Z</time>
      </trkpt>
      <trkpt lat="39.9052650" lon="-4.5108160">
        <ele>402.1</ele>
        <time>2022-03-01T17:31:11Z</time>
      </trkpt>
      <trkpt lat="39.9052530" lon="-4.5107260">
        <ele>402.2</ele>
        <time>2022-03-01T17:31:12Z</time>
      </trkpt>
      <trkpt lat="39.9052560" lon="-4.5106210">
        <ele>402.2</ele>
        <time>2022-03-01T17:31:13Z</time>
      </trkpt>
      <trkpt lat="39.9052500" lon="-4.5105290">
        <ele>402.3</ele>
        <time>2022-03-01T17:31:14Z</time>
      </trkpt>
      <trkpt lat="39.9052440" lon="-4.5104270">
        <ele>402.3</ele>
        <time>2022-03-01T17:31:15Z</time>
      </trkpt>
      <trkpt lat="39.9052430" lon="-4.5103310">
        <ele>402.3</ele>
        <time>2022-03-01T17:31:16Z</time>
      </trkpt>
      <trkpt lat="39.9052400" lon="-4.5102310">
        <ele>402.4</ele>
        <time>2022-03-01T17:31:17Z</time>
      </trkpt>
      <trkpt lat="39.9052320" lon="-4.5101380">
        <ele>402.4</ele>
        <time>2022-03-01T17:31:18Z</time>
      </trkpt>
      <trkpt lat="39.9052300" lon="-4.5100400">
        <ele>402.4</ele>
        <time>2022-03-01T17:31:19Z</time>
      </trkpt>
      <trkpt lat="39.9052270" lon="-4.5099410">
        <ele>402.5</ele>
        <time>2022-03-01T17:31:20Z</time>
      </trkpt>
      <trkpt lat="39.9052200" lon="-4.5098400">
        <ele>402.5</ele>
        <time>2022-03-01T17:31:21Z</time>
      </trkpt>
      <trkpt lat="39.9052140" lon="-4.5097410">
        <ele>402.5</ele>
        <time>2022-03-01T17:31:22Z</time>
      </trkpt>
      <trkpt lat="39.9052110" lon="-4.5096350">
        <ele>402.5</ele>
        <time>2022-03-01T17:31:23Z</time>
      </trkpt>
      <trkpt lat="39.9052060" lon="-4.5095390">
        <ele>402.5</ele>
        <time>2022-03-01T17:31:24Z</time>
      </trkpt>
      <trkpt lat="39.9051990" lon="-4.5094360">
        <ele>402.5</ele>
        <time>2022-03-01T17:31:25Z</time>
      </trkpt>
      <trkpt lat="39.9051960" lon="-4.5093370">
        <ele>402.5</ele>
        <time>2022-03-01T17:31:26Z</time>
      </trkpt>
      <trkpt lat="39.9051910" lon="-4.5092440">
        <ele>402.5</ele>
        <time>2022-03-01T17:31:27Z</time>
      </trkpt>
      <trkpt lat="39.9051860" lon="-4.5091400">
        <ele>402.5</ele>
        <time>2022-03-01T17:31:28Z</time>
      </trkpt>
      <trkpt lat="39.9051830" lon="-4.5090460">
        <ele>402.5</ele>
        <time>2022-03-01T17:31:29Z</time>
      </trkpt>
      <trkpt lat="39.9051730" lon="-4.5089500">
        <ele>402.5</ele>
        <time>2022-03-01T17:31:30Z</time>
      </trkpt>
      <trkpt lat="39.9051610" lon="-4.5088470">
        <ele>402.5</ele>
        <time>2022-03-01T17:31:31Z</time>
      </trkpt>
      <trkpt lat="39.9051640" lon="-4.5087300">
        <ele>402.5</ele>
        <time>2022-03-01T17:31:32Z</time>
      </trkpt>
      <trkpt lat="39.9051620" lon="-4.5086290">
        <ele>402.5</ele>
        <time>2022-03-01T17:31:33Z</time>
      </trkpt>
      <trkpt lat="39.9051550" lon="-4.5085330">
        <ele>402.5</ele>
        <time>2022-03-01T17:31:34Z</time>
      </trkpt>
      <trkpt lat="39.9051540" lon="-4.5084190">
        <ele>402.5</ele>
        <time>2022-03-01T17:31:35Z</time>
      </trkpt>
      <trkpt lat="39.9051530" lon="-4.5083040">
        <ele>402.5</ele>
        <time>2022-03-01T17:31:36Z</time>
      </trkpt>
      <trkpt lat="39.9051470" lon="-4.5082100">
        <ele>402.5</ele>
        <time>2022-03-01T17:31:37Z</time>
      </trkpt>
      <trkpt lat="39.9051420" lon="-4.5081030">
        <ele>402.4</ele>
        <time>2022-03-01T17:31:38Z</time>
      </trkpt>
      <trkpt lat="39.9051380" lon="-4.5079920">
        <ele>402.4</ele>
        <time>2022-03-01T17:31:39Z</time>
      </trkpt>
      <trkpt lat="39.9051310" lon="-4.5078850">
        <ele>402.3</ele>
        <time>2022-03-01T17:31:40Z</time>
      </trkpt>
      <trkpt lat="39.9051280" lon="-4.5077750">
        <ele>402.3</ele>
        <time>2022-03-01T17:31:41Z</time>
      </trkpt>
      <trkpt lat="39.9051240" lon="-4.5076650">
        <ele>402.2</ele>
        <time>2022-03-01T17:31:42Z</time>
      </trkpt>
      <trkpt lat="39.9051180" lon="-4.5075580">
        <ele>402.2</ele>
        <time>2022-03-01T17:31:43Z</time>
      </trkpt>
      <trkpt lat="39.9051090" lon="-4.5074570">
        <ele>402.1</ele>
        <time>2022-03-01T17:31:44Z</time>
      </trkpt>
      <trkpt lat="39.9051060" lon="-4.5073440">
        <ele>402.1</ele>
        <time>2022-03-01T17:31:45Z</time>
      </trkpt>
      <trkpt lat="39.9050980" lon="-4.5072410">
        <ele>402.0</ele>
        <time>2022-03-01T17:31:46Z</time>
      </trkpt>
      <trkpt lat="39.9050960" lon="-4.5071300">
        <ele>401.9</ele>
        <time>2022-03-01T17:31:47Z</time>
      </trkpt>
      <trkpt lat="39.9050940" lon="-4.5070170">
        <ele>401.9</ele>
        <time>2022-03-01T17:31:48Z</time>
      </trkpt>
      <trkpt lat="39.9050890" lon="-4.5069080">
        <ele>401.8</ele>
        <time>2022-03-01T17:31:49Z</time>
      </trkpt>
      <trkpt lat="39.9050810" lon="-4.5068000">
        <ele>401.7</ele>
        <time>2022-03-01T17:31:50Z</time>
      </trkpt>
      <trkpt lat="39.9050780" lon="-4.5066850">
        <ele>401.7</ele>
        <time>2022-03-01T17:31:51Z</time>
      </trkpt>
      <trkpt lat="39.9050740" lon="-4.5065770">
        <ele>401.6</ele>
        <time>2022-03-01T17:31:52Z</time>
      </trkpt>
      <trkpt lat="39.9050690" lon="-4.5064690">
        <ele>401.5</ele>
        <time>2022-03-01T17:31:53Z</time>
      </trkpt>
      <trkpt lat="39.9050640" lon="-4.5063600">
        <ele>401.4</ele>
        <time>2022-03-01T17:31:54Z</time>
      </trkpt>
      <trkpt lat="39.9050560" lon="-4.5062520">
        <ele>401.3</ele>
        <time>2022-03-01T17:31:55Z</time>
      </trkpt>
      <trkpt lat="39.9050520" lon="-4.5061380">
        <ele>401.2</ele>
        <time>2022-03-01T17:31:56Z</time>
      </trkpt>
      <trkpt lat="39.9050440" lon="-4.5060290">
        <ele>401.1</ele>
        <time>2022-03-01T17:31:57Z</time>
      </trkpt>
      <trkpt lat="39.9050400" lon="-4.5059190">
        <ele>401.1</ele>
        <time>2022-03-01T17:31:58Z</time>
      </trkpt>
      <trkpt lat="39.9050330" lon="-4.5058120">
        <ele>401.0</ele>
        <time>2022-03-01T17:31:59Z</time>
      </trkpt>
      <trkpt lat="39.9050290" lon="-4.5056980">
        <ele>401.0</ele>
        <time>2022-03-01T17:32:00Z</time>
      </trkpt>
      <trkpt lat="39.9050220" lon="-4.5055880">
        <ele>400.9</ele>
        <time>2022-03-01T17:32:01Z</time>
      </trkpt>
      <trkpt lat="39.9050190" lon="-4.5054760">
        <ele>400.9</ele>
        <time>2022-03-01T17:32:02Z</time>
      </trkpt>
      <trkpt lat="39.9050140" lon="-4.5053630">
        <ele>400.8</ele>
        <time>2022-03-01T17:32:03Z</time>
      </trkpt>
      <trkpt lat="39.9050070" lon="-4.5052500">
        <ele>400.8</ele>
        <time>2022-03-01T17:32:04Z</time>
      </trkpt>
      <trkpt lat="39.9050030" lon="-4.5051340">
        <ele>400.8</ele>
        <time>2022-03-01T17:32:05Z</time>
      </trkpt>
      <trkpt lat="39.9049980" lon="-4.5050240">
        <ele>400.8</ele>
        <time>2022-03-01T17:32:06Z</time>
      </trkpt>
      <trkpt lat="39.9049950" lon="-4.5049130">
        <ele>400.8</ele>
        <time>2022-03-01T17:32:07Z</time>
      </trkpt>
      <trkpt lat="39.9049910" lon="-4.5047960">
        <ele>400.8</ele>
        <time>2022-03-01T17:32:08Z</time>
      </trkpt>
      <trkpt lat="39.9049870" lon="-4.5046860">
        <ele>400.8</ele>
        <time>2022-03-01T17:32:09Z</time>
      </trkpt>
      <trkpt lat="39.9049800" lon="-4.5045760">
        <ele>400.8</ele>
        <time>2022-03-01T17:32:10Z</time>
      </trkpt>
      <trkpt lat="39.9049730" lon="-4.5044700">
        <ele>400.9</ele>
        <time>2022-03-01T17:32:11Z</time>
      </trkpt>
      <trkpt lat="39.9049660" lon="-4.5043590">
        <ele>401.0</ele>
        <time>2022-03-01T17:32:12Z</time>
      </trkpt>
      <trkpt lat="39.9049610" lon="-4.5042540">
        <ele>401.1</ele>
        <time>2022-03-01T17:32:13Z</time>
      </trkpt>
      <trkpt lat="39.9049540" lon="-4.5041490">
        <ele>401.2</ele>
        <time>2022-03-01T17:32:14Z</time>
      </trkpt>
      <trkpt lat="39.9049470" lon="-4.5040450">
        <ele>401.4</ele>
        <time>2022-03-01T17:32:15Z</time>
      </trkpt>
      <trkpt lat="39.9049450" lon="-4.5039400">
        <ele>401.5</ele>
        <time>2022-03-01T17:32:16Z</time>
      </trkpt>
      <trkpt lat="39.9049370" lon="-4.5038420">
        <ele>401.7</ele>
        <time>2022-03-01T17:32:17Z</time>
      </trkpt>
      <trkpt lat="39.9049250" lon="-4.5037460">
        <ele>401.9</ele>
        <time>2022-03-01T17:32:18Z</time>
      </trkpt>
      <trkpt lat="39.9049170" lon="-4.5036540">
        <ele>402.0</ele>
        <time>2022-03-01T17:32:19Z</time>
      </trkpt>
      <trkpt lat="39.9049010" lon="-4.5035570">
        <ele>402.2</ele>
        <time>2022-03-01T17:32:20Z</time>
      </trkpt>
      <trkpt lat="39.9049030" lon="-4.5034620">
        <ele>402.4</ele>
        <time>2022-03-01T17:32:21Z</time>
      </trkpt>
      <trkpt lat="39.9048860" lon="-4.5033800">
        <ele>402.6</ele>
        <time>2022-03-01T17:32:22Z</time>
      </trkpt>
      <trkpt lat="39.9048760" lon="-4.5032960">
        <ele>402.8</ele>
        <time>2022-03-01T17:32:23Z</time>
      </trkpt>
      <trkpt lat="39.9048670" lon="-4.5032080">
        <ele>403.0</ele>
        <time>2022-03-01T17:32:24Z</time>
      </trkpt>
      <trkpt lat="39.9048530" lon="-4.5031280">
        <ele>403.2</ele>
        <time>2022-03-01T17:32:25Z</time>
      </trkpt>
      <trkpt lat="39.9048520" lon="-4.5030420">
        <ele>403.4</ele>
        <time>2022-03-01T17:32:26Z</time>
      </trkpt>
      <trkpt lat="39.9048310" lon="-4.5029760">
        <ele>403.6</ele>
        <time>2022-03-01T17:32:27Z</time>
      </trkpt>
      <trkpt lat="39.9048230" lon="-4.5028970">
        <ele>403.9</ele>
        <time>2022-03-01T17:32:28Z</time>
      </trkpt>
      <trkpt lat="39.9048110" lon="-4.5028260">
        <ele>404.1</ele>
        <time>2022-03-01T17:32:29Z</time>
      </trkpt>
      <trkpt lat="39.9048020" lon="-4.5027560">
        <ele>404.3</ele>
        <time>2022-03-01T17:32:30Z</time>
      </trkpt>
      <trkpt lat="39.9047910" lon="-4.5026780">
        <ele>404.5</ele>
        <time>2022-03-01T17:32:31Z</time>
      </trkpt>
      <trkpt lat="39.9047820" lon="-4.5026110">
        <ele>404.6</ele>
        <time>2022-03-01T17:32:32Z</time>
      </trkpt>
      <trkpt lat="39.9047680" lon="-4.5025450">
        <ele>404.8</ele>
        <time>2022-03-01T17:32:33Z</time>
      </trkpt>
      <trkpt lat="39.9047630" lon="-4.5024650">
        <ele>405.0</ele>
        <time>2022-03-01T17:32:34Z</time>
      </trkpt>
      <trkpt lat="39.9047480" lon="-4.5023990">
        <ele>405.2</ele>
        <time>2022-03-01T17:32:35Z</time>
      </trkpt>
      <trkpt lat="39.9047370" lon="-4.5023210">
        <ele>405.5</ele>
        <time>2022-03-01T17:32:36Z</time>
      </trkpt>
      <trkpt lat="39.9047230" lon="-4.5022500">
        <ele>405.7</ele>
        <time>2022-03-01T17:32:37Z</time>
      </trkpt>
      <trkpt lat="39.9047100" lon="-4.5021750">
        <ele>405.9</ele>
        <time>2022-03-01T17:32:38Z</time>
      </trkpt>
      <trkpt lat="39.9047010" lon="-4.5021050">
        <ele>406.0</ele>
        <time>2022-03-01T17:32:39Z</time>
      </trkpt>
      <trkpt lat="39.9046800" lon="-4.5020410">
        <ele>406.2</ele>
        <time>2022-03-01T17:32:40Z</time>
      </trkpt>
      <trkpt lat="39.9046680" lon="-4.5019620">
        <ele>406.4</ele>
        <time>2022-03-01T17:32:41Z</time>
      </trkpt>
      <trkpt lat="39.9046570" lon="-4.5018820">
        <ele>406.6</ele>
        <time>2022-03-01T17:32:42Z</time>
      </trkpt>
      <trkpt lat="39.9046420" lon="-4.5018130">
        <ele>406.8</ele>
        <time>2022-03-01T17:32:43Z</time>
      </trkpt>
      <trkpt lat="39.9046260" lon="-4.5017400">
        <ele>406.9</ele>
        <time>2022-03-01T17:32:44Z</time>
      </trkpt>
      <trkpt lat="39.9046180" lon="-4.5016610">
        <ele>407.1</ele>
        <time>2022-03-01T17:32:45Z</time>
      </trkpt>
      <trkpt lat="39.9046000" lon="-4.5015950">
        <ele>407.3</ele>
        <time>2022-03-01T17:32:46Z</time>
      </trkpt>
      <trkpt lat="39.9045800" lon="-4.5015280">
        <ele>407.4</ele>
        <time>2022-03-01T17:32:47Z</time>
      </trkpt>
      <trkpt lat="39.9045720" lon="-4.5014590">
        <ele>407.5</ele>
        <time>2022-03-01T17:32:48Z</time>
      </trkpt>
      <trkpt lat="39.9045480" lon="-4.5013870">
        <ele>407.7</ele>
        <time>2022-03-01T17:32:49Z</time>
      </trkpt>
      <trkpt lat="39.9045360" lon="-4.5013150">
        <ele>407.8</ele>
        <time>2022-03-01T17:32:50Z</time>
      </trkpt>
      <trkpt lat="39.9045190" lon="-4.5012460">
        <ele>408.0</ele>
        <time>2022-03-01T17:32:51Z</time>
      </trkpt>
      <trkpt lat="39.9044980" lon="-4.5011720">
        <ele>408.2</ele>
        <time>2022-03-01T17:32:52Z</time>
      </trkpt>
      <trkpt lat="39.9044710" lon="-4.5011030">
        <ele>408.3</ele>
        <time>2022-03-01T17:32:53Z</time>
      </trkpt>
      <trkpt lat="39.9044560" lon="-4.5010470">
        <ele>408.5</ele>
        <time>2022-03-01T17:32:54Z</time>
      </trkpt>
      <trkpt lat="39.9044440" lon="-4.5009630">
        <ele>408.7</ele>
        <time>2022-03-01T17:32:55Z</time>
      </trkpt>
      <trkpt lat="39.9044260" lon="-4.5008920">
        <ele>408.8</ele>
        <time>2022-03-01T17:32:56Z</time>
      </trkpt>
      <trkpt lat="39.9044060" lon="-4.5008210">
        <ele>409.0</ele>
        <time>2022-03-01T17:32:57Z</time>
      </trkpt>
      <trkpt lat="39.9043880" lon="-4.5007470">
        <ele>409.1</ele>
        <time>2022-03-01T17:32:58Z</time>
      </trkpt>
      <trkpt lat="39.9043730" lon="-4.5006710">
        <ele>409.3</ele>
        <time>2022-03-01T17:32:59Z</time>
      </trkpt>
      <trkpt lat="39.9043550" lon="-4.5005950">
        <ele>409.4</ele>
        <time>2022-03-01T17:33:00Z</time>
      </trkpt>
      <trkpt lat="39.9043330" lon="-4.5005270">
        <ele>409.6</ele>
        <time>2022-03-01T17:33:01Z</time>
      </trkpt>
      <trkpt lat="39.9043130" lon="-4.5004510">
        <ele>409.8</ele>
        <time>2022-03-01T17:33:02Z</time>
      </trkpt>
      <trkpt lat="39.9042940" lon="-4.5003740">
        <ele>409.9</ele>
        <time>2022-03-01T17:33:03Z</time>
      </trkpt>
      <trkpt lat="39.9042760" lon="-4.5002960">
        <ele>410.1</ele>
        <time>2022-03-01T17:33:04Z</time>
      </trkpt>
      <trkpt lat="39.9042550" lon="-4.5002150">
        <ele>410.3</ele>
        <time>2022-03-01T17:33:05Z</time>
      </trkpt>
      <trkpt lat="39.9042330" lon="-4.5001380">
        <ele>410.4</ele>
        <time>2022-03-01T17:33:06Z</time>
      </trkpt>
      <trkpt lat="39.9042140" lon="-4.5000610">
        <ele>410.5</ele>
        <time>2022-03-01T17:33:07Z</time>
      </trkpt>
      <trkpt lat="39.9041910" lon="-4.4999820">
        <ele>410.6</ele>
        <time>2022-03-01T17:33:08Z</time>
      </trkpt>
      <trkpt lat="39.9041710" lon="-4.4999020">
        <ele>410.8</ele>
        <time>2022-03-01T17:33:09Z</time>
      </trkpt>
      <trkpt lat="39.9041500" lon="-4.4998220">
        <ele>410.9</ele>
        <time>2022-03-01T17:33:10Z</time>
      </trkpt>
      <trkpt lat="39.9041300" lon="-4.4997410">
        <ele>411.0</ele>
        <time>2022-03-01T17:33:11Z</time>
      </trkpt>
      <trkpt lat="39.9041060" lon="-4.4996660">
        <ele>411.1</ele>
        <time>2022-03-01T17:33:12Z</time>
      </trkpt>
      <trkpt lat="39.9040860" lon="-4.4995870">
        <ele>411.2</ele>
        <time>2022-03-01T17:33:13Z</time>
      </trkpt>
      <trkpt lat="39.9040640" lon="-4.4995080">
        <ele>411.3</ele>
        <time>2022-03-01T17:33:14Z</time>
      </trkpt>
      <trkpt lat="39.9040400" lon="-4.4994270">
        <ele>411.4</ele>
        <time>2022-03-01T17:33:15Z</time>
      </trkpt>
      <trkpt lat="39.9040210" lon="-4.4993420">
        <ele>411.5</ele>
        <time>2022-03-01T17:33:16Z</time>
      </trkpt>
      <trkpt lat="39.9039960" lon="-4.4992640">
        <ele>411.6</ele>
        <time>2022-03-01T17:33:17Z</time>
      </trkpt>
      <trkpt lat="39.9039720" lon="-4.4991860">
        <ele>411.7</ele>
        <time>2022-03-01T17:33:18Z</time>
      </trkpt>
      <trkpt lat="39.9039490" lon="-4.4991070">
        <ele>411.8</ele>
        <time>2022-03-01T17:33:19Z</time>
      </trkpt>
      <trkpt lat="39.9039260" lon="-4.4990260">
        <ele>411.9</ele>
        <time>2022-03-01T17:33:20Z</time>
      </trkpt>
      <trkpt lat="39.9039060" lon="-4.4989420">
        <ele>412.0</ele>
        <time>2022-03-01T17:33:21Z</time>
      </trkpt>
      <trkpt lat="39.9038850" lon="-4.4988600">
        <ele>412.2</ele>
        <time>2022-03-01T17:33:22Z</time>
      </trkpt>
      <trkpt lat="39.9038640" lon="-4.4987760">
        <ele>412.3</ele>
        <time>2022-03-01T17:33:23Z</time>
      </trkpt>
      <trkpt lat="39.9038460" lon="-4.4986920">
        <ele>412.4</ele>
        <time>2022-03-01T17:33:24Z</time>
      </trkpt>
      <trkpt lat="39.9038180" lon="-4.4986110">
        <ele>412.6</ele>
        <time>2022-03-01T17:33:25Z</time>
      </trkpt>
      <trkpt lat="39.9037950" lon="-4.4985270">
        <ele>412.7</ele>
        <time>2022-03-01T17:33:26Z</time>
      </trkpt>
      <trkpt lat="39.9037720" lon="-4.4984420">
        <ele>412.8</ele>
        <time>2022-03-01T17:33:27Z</time>
      </trkpt>
      <trkpt lat="39.9037500" lon="-4.4983610">
        <ele>413.0</ele>
        <time>2022-03-01T17:33:28Z</time>
      </trkpt>
      <trkpt lat="39.9037310" lon="-4.4982780">
        <ele>413.1</ele>
        <time>2022-03-01T17:33:29Z</time>
      </trkpt>
      <trkpt lat="39.9037070" lon="-4.4981970">
        <ele>413.3</ele>
        <time>2022-03-01T17:33:30Z</time>
      </trkpt>
      <trkpt lat="39.9036840" lon="-4.4981200">
        <ele>413.4</ele>
        <time>2022-03-01T17:33:31Z</time>
      </trkpt>
      <trkpt lat="39.9036590" lon="-4.4980360">
        <ele>413.6</ele>
        <time>2022-03-01T17:33:32Z</time>
      </trkpt>
      <trkpt lat="39.9036390" lon="-4.4979540">
        <ele>413.8</ele>
        <time>2022-03-01T17:33:33Z</time>
      </trkpt>
      <trkpt lat="39.9036180" lon="-4.4978730">
        <ele>414.0</ele>
        <time>2022-03-01T17:33:34Z</time>
      </trkpt>
      <trkpt lat="39.9036000" lon="-4.4977880">
        <ele>414.2</ele>
        <time>2022-03-01T17:33:35Z</time>
      </trkpt>
      <trkpt lat="39.9035770" lon="-4.4977090">
        <ele>414.4</ele>
        <time>2022-03-01T17:33:36Z</time>
      </trkpt>
      <trkpt lat="39.9035550" lon="-4.4976290">
        <ele>414.6</ele>
        <time>2022-03-01T17:33:37Z</time>
      </trkpt>
      <trkpt lat="39.9035340" lon="-4.4975440">
        <ele>414.8</ele>
        <time>2022-03-01T17:33:38Z</time>
      </trkpt>
      <trkpt lat="39.9035120" lon="-4.4974650">
        <ele>415.0</ele>
        <time>2022-03-01T17:33:39Z</time>
      </trkpt>
      <trkpt lat="39.9034910" lon="-4.4973800">
        <ele>415.2</ele>
        <time>2022-03-01T17:33:40Z</time>
      </trkpt>
      <trkpt lat="39.9034710" lon="-4.4972970">
        <ele>415.5</ele>
        <time>2022-03-01T17:33:41Z</time>
      </trkpt>
      <trkpt lat="39.9034460" lon="-4.4972260">
        <ele>415.7</ele>
        <time>2022-03-01T17:33:42Z</time>
      </trkpt>
      <trkpt lat="39.9034280" lon="-4.4971450">
        <ele>415.9</ele>
        <time>2022-03-01T17:33:43Z</time>
      </trkpt>
      <trkpt lat="39.9034090" lon="-4.4970720">
        <ele>416.1</ele>
        <time>2022-03-01T17:33:44Z</time>
      </trkpt>
      <trkpt lat="39.9033860" lon="-4.4969980">
        <ele>416.3</ele>
        <time>2022-03-01T17:33:45Z</time>
      </trkpt>
      <trkpt lat="39.9033660" lon="-4.4969240">
        <ele>416.5</ele>
        <time>2022-03-01T17:33:46Z</time>
      </trkpt>
      <trkpt lat="39.9033480" lon="-4.4968480">
        <ele>416.7</ele>
        <time>2022-03-01T17:33:47Z</time>
      </trkpt>
      <trkpt lat="39.9033230" lon="-4.4967750">
        <ele>416.9</ele>
        <time>2022-03-01T17:33:48Z</time>
      </trkpt>
      <trkpt lat="39.9033020" lon="-4.4967040">
        <ele>417.1</ele>
        <time>2022-03-01T17:33:49Z</time>
      </trkpt>
      <trkpt lat="39.9032820" lon="-4.4966270">
        <ele>417.3</ele>
        <time>2022-03-01T17:33:50Z</time>
      </trkpt>
      <trkpt lat="39.9032620" lon="-4.4965520">
        <ele>417.5</ele>
        <time>2022-03-01T17:33:51Z</time>
      </trkpt>
      <trkpt lat="39.9032420" lon="-4.4964750">
        <ele>417.7</ele>
        <time>2022-03-01T17:33:52Z</time>
      </trkpt>
      <trkpt lat="39.9032210" lon="-4.4963980">
        <ele>418.0</ele>
        <time>2022-03-01T17:33:53Z</time>
      </trkpt>
      <trkpt lat="39.9031990" lon="-4.4963240">
        <ele>418.2</ele>
        <time>2022-03-01T17:33:54Z</time>
      </trkpt>
      <trkpt lat="39.9031810" lon="-4.4962510">
        <ele>418.4</ele>
        <time>2022-03-01T17:33:55Z</time>
      </trkpt>
      <trkpt lat="39.9031640" lon="-4.4961720">
        <ele>418.6</ele>
        <time>2022-03-01T17:33:56Z</time>
      </trkpt>
      <trkpt lat="39.9031410" lon="-4.4960980">
        <ele>418.8</ele>
        <time>2022-03-01T17:33:57Z</time>
      </trkpt>
      <trkpt lat="39.9031210" lon="-4.4960270">
        <ele>419.0</ele>
        <time>2022-03-01T17:33:58Z</time>
      </trkpt>
      <trkpt lat="39.9031010" lon="-4.4959530">
        <ele>419.2</ele>
        <time>2022-03-01T17:33:59Z</time>
      </trkpt>
      <trkpt lat="39.9030800" lon="-4.4958800">
        <ele>419.4</ele>
        <time>2022-03-01T17:34:00Z</time>
      </trkpt>
      <trkpt lat="39.9030620" lon="-4.4958040">
        <ele>419.6</ele>
        <time>2022-03-01T17:34:01Z</time>
      </trkpt>
      <trkpt lat="39.9030430" lon="-4.4957380">
        <ele>419.8</ele>
        <time>2022-03-01T17:34:02Z</time>
      </trkpt>
      <trkpt lat="39.9030220" lon="-4.4956670">
        <ele>420.0</ele>
        <time>2022-03-01T17:34:03Z</time>
      </trkpt>
      <trkpt lat="39.9030040" lon="-4.4955950">
        <ele>420.2</ele>
        <time>2022-03-01T17:34:04Z</time>
      </trkpt>
      <trkpt lat="39.9029770" lon="-4.4955330">
        <ele>420.3</ele>
        <time>2022-03-01T17:34:05Z</time>
      </trkpt>
      <trkpt lat="39.9029610" lon="-4.4954550">
        <ele>420.5</ele>
        <time>2022-03-01T17:34:06Z</time>
      </trkpt>
      <trkpt lat="39.9029460" lon="-4.4953790">
        <ele>420.7</ele>
        <time>2022-03-01T17:34:07Z</time>
      </trkpt>
      <trkpt lat="39.9029220" lon="-4.4953060">
        <ele>420.9</ele>
        <time>2022-03-01T17:34:08Z</time>
      </trkpt>
      <trkpt lat="39.9029030" lon="-4.4952260">
        <ele>421.1</ele>
        <time>2022-03-01T17:34:09Z</time>
      </trkpt>
      <trkpt lat="39.9028800" lon="-4.4951550">
        <ele>421.2</ele>
        <time>2022-03-01T17:34:10Z</time>
      </trkpt>
      <trkpt lat="39.9028630" lon="-4.4950780">
        <ele>421.4</ele>
        <time>2022-03-01T17:34:11Z</time>
      </trkpt>
      <trkpt lat="39.9028370" lon="-4.4950060">
        <ele>421.5</ele>
        <time>2022-03-01T17:34:12Z</time>
      </trkpt>
      <trkpt lat="39.9028190" lon="-4.4949350">
        <ele>421.7</ele>
        <time>2022-03-01T17:34:13Z</time>
      </trkpt>
      <trkpt lat="39.9027940" lon="-4.4948580">
        <ele>421.9</ele>
        <time>2022-03-01T17:34:14Z</time>
      </trkpt>
      <trkpt lat="39.9027750" lon="-4.4947800">
        <ele>422.0</ele>
        <time>2022-03-01T17:34:15Z</time>
      </trkpt>
      <trkpt lat="39.9027540" lon="-4.4947020">
        <ele>422.2</ele>
        <time>2022-03-01T17:34:16Z</time>
      </trkpt>
      <trkpt lat="39.9027360" lon="-4.4946290">
        <ele>422.3</ele>
        <time>2022-03-01T17:34:17Z</time>
      </trkpt>
      <trkpt lat="39.9027150" lon="-4.4945490">
        <ele>422.4</ele>
        <time>2022-03-01T17:34:18Z</time>
      </trkpt>
      <trkpt lat="39.9026970" lon="-4.4944700">
        <ele>422.6</ele>
        <time>2022-03-01T17:34:19Z</time>
      </trkpt>
      <trkpt lat="39.9026730" lon="-4.4943940">
        <ele>422.7</ele>
        <time>2022-03-01T17:34:20Z</time>
      </trkpt>
      <trkpt lat="39.9026550" lon="-4.4943200">
        <ele>422.8</ele>
        <time>2022-03-01T17:34:21Z</time>
      </trkpt>
      <trkpt lat="39.9026290" lon="-4.4942430">
        <ele>422.9</ele>
        <time>2022-03-01T17:34:22Z</time>
      </trkpt>
      <trkpt lat="39.9026010" lon="-4.4941550">
        <ele>423.1</ele>
        <time>2022-03-01T17:34:23Z</time>
      </trkpt>
      <trkpt lat="39.9025850" lon="-4.4940820">
        <ele>423.2</ele>
        <time>2022-03-01T17:34:24Z</time>
      </trkpt>
      <trkpt lat="39.9025640" lon="-4.4940060">
        <ele>423.3</ele>
        <time>2022-03-01T17:34:25Z</time>
      </trkpt>
      <trkpt lat="39.9025480" lon="-4.4939240">
        <ele>423.4</ele>
        <time>2022-03-01T17:34:26Z</time>
      </trkpt>
      <trkpt lat="39.9025250" lon="-4.4938440">
        <ele>423.5</ele>
        <time>2022-03-01T17:34:27Z</time>
      </trkpt>
      <trkpt lat="39.9024940" lon="-4.4937710">
        <ele>423.6</ele>
        <time>2022-03-01T17:34:28Z</time>
      </trkpt>
      <trkpt lat="39.9024820" lon="-4.4936910">
        <ele>423.7</ele>
        <time>2022-03-01T17:34:29Z</time>
      </trkpt>
      <trkpt lat="39.9024610" lon="-4.4936120">
        <ele>423.8</ele>
        <time>2022-03-01T17:34:30Z</time>
      </trkpt>
      <trkpt lat="39.9024360" lon="-4.4935270">
        <ele>423.9</ele>
        <time>2022-03-01T17:34:31Z</time>
      </trkpt>
      <trkpt lat="39.9024170" lon="-4.4934410">
        <ele>424.0</ele>
        <time>2022-03-01T17:34:32Z</time>
      </trkpt>
      <trkpt lat="39.9023950" lon="-4.4933580">
        <ele>424.1</ele>
        <time>2022-03-01T17:34:33Z</time>
      </trkpt>
      <trkpt lat="39.9023690" lon="-4.4932700">
        <ele>424.2</ele>
        <time>2022-03-01T17:34:34Z</time>
      </trkpt>
      <trkpt lat="39.9023450" lon="-4.4931940">
        <ele>424.2</ele>
        <time>2022-03-01T17:34:35Z</time>
      </trkpt>
      <trkpt lat="39.9023220" lon="-4.4931180">
        <ele>424.3</ele>
        <time>2022-03-01T17:34:36Z</time>
      </trkpt>
      <trkpt lat="39.9023030" lon="-4.4930380">
        <ele>424.4</ele>
        <time>2022-03-01T17:34:37Z</time>
      </trkpt>
      <trkpt lat="39.9022790" lon="-4.4929630">
        <ele>424.4</ele>
        <time>2022-03-01T17:34:38Z</time>
      </trkpt>
      <trkpt lat="39.9022570" lon="-4.4928760">
        <ele>424.5</ele>
        <time>2022-03-01T17:34:39Z</time>
      </trkpt>
      <trkpt lat="39.9022360" lon="-4.4927950">
        <ele>424.6</ele>
        <time>2022-03-01T17:34:40Z</time>
      </trkpt>
      <trkpt lat="39.9022130" lon="-4.4927170">
        <ele>424.6</ele>
        <time>2022-03-01T17:34:41Z</time>
      </trkpt>
      <trkpt lat="39.9021890" lon="-4.4926380">
        <ele>424.7</ele>
        <time>2022-03-01T17:34:42Z</time>
      </trkpt>
      <trkpt lat="39.9021660" lon="-4.4925590">
        <ele>424.7</ele>
        <time>2022-03-01T17:34:43Z</time>
      </trkpt>
      <trkpt lat="39.9021450" lon="-4.4924740">
        <ele>424.8</ele>
        <time>2022-03-01T17:34:44Z</time>
      </trkpt>
      <trkpt lat="39.9021210" lon="-4.4923940">
        <ele>424.8</ele>
        <time>2022-03-01T17:34:45Z</time>
      </trkpt>
      <trkpt lat="39.9020980" lon="-4.4923120">
        <ele>424.8</ele>
        <time>2022-03-01T17:34:46Z</time>
      </trkpt>
      <trkpt lat="39.9020760" lon="-4.4922310">
        <ele>424.8</ele>
        <time>2022-03-01T17:34:47Z</time>
      </trkpt>
      <trkpt lat="39.9020580" lon="-4.4921520">
        <ele>424.9</ele>
        <time>2022-03-01T17:34:48Z</time>
      </trkpt>
      <trkpt lat="39.9020360" lon="-4.4920670">
        <ele>424.9</ele>
        <time>2022-03-01T17:34:49Z</time>
      </trkpt>
      <trkpt lat="39.9020140" lon="-4.4919870">
        <ele>424.9</ele>
        <time>2022-03-01T17:34:50Z</time>
      </trkpt>
      <trkpt lat="39.9019890" lon="-4.4919070">
        <ele>425.0</ele>
        <time>2022-03-01T17:34:51Z</time>
      </trkpt>
      <trkpt lat="39.9019640" lon="-4.4918320">
        <ele>425.0</ele>
        <time>2022-03-01T17:34:52Z</time>
      </trkpt>
      <trkpt lat="39.9019520" lon="-4.4917440">
        <ele>425.0</ele>
        <time>2022-03-01T17:34:53Z</time>
      </trkpt>
      <trkpt lat="39.9019280" lon="-4.4916540">
        <ele>425.0</ele>
        <time>2022-03-01T17:34:54Z</time>
      </trkpt>
      <trkpt lat="39.9019040" lon="-4.4915690">
        <ele>425.1</ele>
        <time>2022-03-01T17:34:55Z</time>
      </trkpt>
      <trkpt lat="39.9018830" lon="-4.4914880">
        <ele>425.1</ele>
        <time>2022-03-01T17:34:56Z</time>
      </trkpt>
      <trkpt lat="39.9018590" lon="-4.4914090">
        <ele>425.2</ele>
        <time>2022-03-01T17:34:57Z</time>
      </trkpt>
      <trkpt lat="39.9018370" lon="-4.4913250">
        <ele>425.2</ele>
        <time>2022-03-01T17:34:58Z</time>
      </trkpt>
      <trkpt lat="39.9018180" lon="-4.4912490">
        <ele>425.2</ele>
        <time>2022-03-01T17:34:59Z</time>
      </trkpt>
      <trkpt lat="39.9017890" lon="-4.4911700">
        <ele>425.3</ele>
        <time>2022-03-01T17:35:00Z</time>
      </trkpt>
      <trkpt lat="39.9017690" lon="-4.4910890">
        <ele>425.3</ele>
        <time>2022-03-01T17:35:01Z</time>
      </trkpt>
      <trkpt lat="39.9017480" lon="-4.4910090">
        <ele>425.3</ele>
        <time>2022-03-01T17:35:02Z</time>
      </trkpt>
      <trkpt lat="39.9017250" lon="-4.4909280">
        <ele>425.2</ele>
        <time>2022-03-01T17:35:03Z</time>
      </trkpt>
      <trkpt lat="39.9017040" lon="-4.4908480">
        <ele>425.2</ele>
        <time>2022-03-01T17:35:04Z</time>
      </trkpt>
      <trkpt lat="39.9016840" lon="-4.4907650">
        <ele>425.2</ele>
        <time>2022-03-01T17:35:05Z</time>
      </trkpt>
      <trkpt lat="39.9016630" lon="-4.4906900">
        <ele>425.3</ele>
        <time>2022-03-01T17:35:06Z</time>
      </trkpt>
      <trkpt lat="39.9016400" lon="-4.4906100">
        <ele>425.3</ele>
        <time>2022-03-01T17:35:07Z</time>
      </trkpt>
      <trkpt lat="39.9016200" lon="-4.4905300">
        <ele>425.4</ele>
        <time>2022-03-01T17:35:08Z</time>
      </trkpt>
      <trkpt lat="39.9015990" lon="-4.4904480">
        <ele>425.4</ele>
        <time>2022-03-01T17:35:09Z</time>
      </trkpt>
      <trkpt lat="39.9015770" lon="-4.4903640">
        <ele>425.4</ele>
        <time>2022-03-01T17:35:10Z</time>
      </trkpt>
      <trkpt lat="39.9015530" lon="-4.4902900">
        <ele>425.5</ele>
        <time>2022-03-01T17:35:11Z</time>
      </trkpt>
      <trkpt lat="39.9015310" lon="-4.4902070">
        <ele>425.5</ele>
        <time>2022-03-01T17:35:12Z</time>
      </trkpt>
      <trkpt lat="39.9015060" lon="-4.4901360">
        <ele>425.6</ele>
        <time>2022-03-01T17:35:13Z</time>
      </trkpt>
      <trkpt lat="39.9014860" lon="-4.4900530">
        <ele>425.6</ele>
        <time>2022-03-01T17:35:14Z</time>
      </trkpt>
      <trkpt lat="39.9014680" lon="-4.4899710">
        <ele>425.6</ele>
        <time>2022-03-01T17:35:15Z</time>
      </trkpt>
      <trkpt lat="39.9014440" lon="-4.4898890">
        <ele>425.7</ele>
        <time>2022-03-01T17:35:16Z</time>
      </trkpt>
      <trkpt lat="39.9014240" lon="-4.4898140">
        <ele>425.7</ele>
        <time>2022-03-01T17:35:17Z</time>
      </trkpt>
      <trkpt lat="39.9014020" lon="-4.4897330">
        <ele>425.7</ele>
        <time>2022-03-01T17:35:18Z</time>
      </trkpt>
      <trkpt lat="39.9013790" lon="-4.4896640">
        <ele>425.8</ele>
        <time>2022-03-01T17:35:19Z</time>
      </trkpt>
      <trkpt lat="39.9013570" lon="-4.4895880">
        <ele>425.8</ele>
        <time>2022-03-01T17:35:20Z</time>
      </trkpt>
      <trkpt lat="39.9013320" lon="-4.4895110">
        <ele>425.9</ele>
        <time>2022-03-01T17:35:21Z</time>
      </trkpt>
      <trkpt lat="39.9013130" lon="-4.4894260">
        <ele>426.0</ele>
        <time>2022-03-01T17:35:22Z</time>
      </trkpt>
      <trkpt lat="39.9012960" lon="-4.4893530">
        <ele>426.1</ele>
        <time>2022-03-01T17:35:23Z</time>
      </trkpt>
      <trkpt lat="39.9012770" lon="-4.4892810">
        <ele>426.1</ele>
        <time>2022-03-01T17:35:24Z</time>
      </trkpt>
      <trkpt lat="39.9012530" lon="-4.4891970">
        <ele>426.2</ele>
        <time>2022-03-01T17:35:25Z</time>
      </trkpt>
      <trkpt lat="39.9012330" lon="-4.4891270">
        <ele>426.2</ele>
        <time>2022-03-01T17:35:26Z</time>
      </trkpt>
      <trkpt lat="39.9012110" lon="-4.4890460">
        <ele>426.3</ele>
        <time>2022-03-01T17:35:27Z</time>
      </trkpt>
      <trkpt lat="39.9011890" lon="-4.4889670">
        <ele>426.3</ele>
        <time>2022-03-01T17:35:28Z</time>
      </trkpt>
      <trkpt lat="39.9011670" lon="-4.4888920">
        <ele>426.4</ele>
        <time>2022-03-01T17:35:29Z</time>
      </trkpt>
      <trkpt lat="39.9011350" lon="-4.4888220">
        <ele>426.5</ele>
        <time>2022-03-01T17:35:30Z</time>
      </trkpt>
      <trkpt lat="39.9011250" lon="-4.4887360">
        <ele>426.6</ele>
        <time>2022-03-01T17:35:31Z</time>
      </trkpt>
      <trkpt lat="39.9011060" lon="-4.4886600">
        <ele>426.7</ele>
        <time>2022-03-01T17:35:32Z</time>
      </trkpt>
      <trkpt lat="39.9010900" lon="-4.4885810">
        <ele>426.8</ele>
        <time>2022-03-01T17:35:33Z</time>
      </trkpt>
      <trkpt lat="39.9010710" lon="-4.4885040">
        <ele>426.9</ele>
        <time>2022-03-01T17:35:34Z</time>
      </trkpt>
      <trkpt lat="39.9010500" lon="-4.4884250">
        <ele>427.0</ele>
        <time>2022-03-01T17:35:35Z</time>
      </trkpt>
      <trkpt lat="39.9010300" lon="-4.4883530">
        <ele>427.1</ele>
        <time>2022-03-01T17:35:36Z</time>
      </trkpt>
      <trkpt lat="39.9010080" lon="-4.4882800">
        <ele>427.2</ele>
        <time>2022-03-01T17:35:37Z</time>
      </trkpt>
      <trkpt lat="39.9009880" lon="-4.4882050">
        <ele>427.3</ele>
        <time>2022-03-01T17:35:38Z</time>
      </trkpt>
      <trkpt lat="39.9009690" lon="-4.4881250">
        <ele>427.4</ele>
        <time>2022-03-01T17:35:39Z</time>
      </trkpt>
      <trkpt lat="39.9009510" lon="-4.4880470">
        <ele>427.5</ele>
        <time>2022-03-01T17:35:40Z</time>
      </trkpt>
      <trkpt lat="39.9009310" lon="-4.4879680">
        <ele>427.6</ele>
        <time>2022-03-01T17:35:41Z</time>
      </trkpt>
      <trkpt lat="39.9009090" lon="-4.4878900">
        <ele>427.7</ele>
        <time>2022-03-01T17:35:42Z</time>
      </trkpt>
      <trkpt lat="39.9008880" lon="-4.4878170">
        <ele>427.8</ele>
        <time>2022-03-01T17:35:43Z</time>
      </trkpt>
      <trkpt lat="39.9008690" lon="-4.4877400">
        <ele>427.9</ele>
        <time>2022-03-01T17:35:44Z</time>
      </trkpt>
      <trkpt lat="39.9008470" lon="-4.4876630">
        <ele>428.0</ele>
        <time>2022-03-01T17:35:45Z</time>
      </trkpt>
      <trkpt lat="39.9008240" lon="-4.4875820">
        <ele>428.1</ele>
        <time>2022-03-01T17:35:46Z</time>
      </trkpt>
      <trkpt lat="39.9008010" lon="-4.4875100">
        <ele>428.2</ele>
        <time>2022-03-01T17:35:47Z</time>
      </trkpt>
      <trkpt lat="39.9007830" lon="-4.4874310">
        <ele>428.3</ele>
        <time>2022-03-01T17:35:48Z</time>
      </trkpt>
      <trkpt lat="39.9007630" lon="-4.4873510">
        <ele>428.4</ele>
        <time>2022-03-01T17:35:49Z</time>
      </trkpt>
      <trkpt lat="39.9007400" lon="-4.4872760">
        <ele>428.4</ele>
        <time>2022-03-01T17:35:50Z</time>
      </trkpt>
      <trkpt lat="39.9007180" lon="-4.4871980">
        <ele>428.5</ele>
        <time>2022-03-01T17:35:51Z</time>
      </trkpt>
      <trkpt lat="39.9006990" lon="-4.4871180">
        <ele>428.6</ele>
        <time>2022-03-01T17:35:52Z</time>
      </trkpt>
      <trkpt lat="39.9006780" lon="-4.4870390">
        <ele>428.7</ele>
        <time>2022-03-01T17:35:53Z</time>
      </trkpt>
      <trkpt lat="39.9006550" lon="-4.4869530">
        <ele>428.8</ele>
        <time>2022-03-01T17:35:54Z</time>
      </trkpt>
      <trkpt lat="39.9006340" lon="-4.4868760">
        <ele>429.0</ele>
        <time>2022-03-01T17:35:55Z</time>
      </trkpt>
      <trkpt lat="39.9006120" lon="-4.4867910">
        <ele>429.1</ele>
        <time>2022-03-01T17:35:56Z</time>
      </trkpt>
      <trkpt lat="39.9005920" lon="-4.4867110">
        <ele>429.2</ele>
        <time>2022-03-01T17:35:57Z</time>
      </trkpt>
      <trkpt lat="39.9005700" lon="-4.4866300">
        <ele>429.3</ele>
        <time>2022-03-01T17:35:58Z</time>
      </trkpt>
      <trkpt lat="39.9005440" lon="-4.4865510">
        <ele>429.4</ele>
        <time>2022-03-01T17:35:59Z</time>
      </trkpt>
      <trkpt lat="39.9005250" lon="-4.4864770">
        <ele>429.6</ele>
        <time>2022-03-01T17:36:00Z</time>
      </trkpt>
      <trkpt lat="39.9005050" lon="-4.4863940">
        <ele>429.7</ele>
        <time>2022-03-01T17:36:01Z</time>
      </trkpt>
      <trkpt lat="39.9004820" lon="-4.4863170">
        <ele>429.8</ele>
        <time>2022-03-01T17:36:02Z</time>
      </trkpt>
      <trkpt lat="39.9004620" lon="-4.4862290">
        <ele>429.9</ele>
        <time>2022-03-01T17:36:03Z</time>
      </trkpt>
      <trkpt lat="39.9004400" lon="-4.4861510">
        <ele>430.0</ele>
        <time>2022-03-01T17:36:04Z</time>
      </trkpt>
      <trkpt lat="39.9004210" lon="-4.4860690">
        <ele>430.1</ele>
        <time>2022-03-01T17:36:05Z</time>
      </trkpt>
      <trkpt lat="39.9003950" lon="-4.4859870">
        <ele>430.2</ele>
        <time>2022-03-01T17:36:06Z</time>
      </trkpt>
      <trkpt lat="39.9003700" lon="-4.4859030">
        <ele>430.2</ele>
        <time>2022-03-01T17:36:07Z</time>
      </trkpt>
      <trkpt lat="39.9003490" lon="-4.4858220">
        <ele>430.3</ele>
        <time>2022-03-01T17:36:08Z</time>
      </trkpt>
      <trkpt lat="39.9003250" lon="-4.4857450">
        <ele>430.4</ele>
        <time>2022-03-01T17:36:09Z</time>
      </trkpt>
      <trkpt lat="39.9003020" lon="-4.4856620">
        <ele>430.5</ele>
        <time>2022-03-01T17:36:10Z</time>
      </trkpt>
      <trkpt lat="39.9002780" lon="-4.4855820">
        <ele>430.6</ele>
        <time>2022-03-01T17:36:11Z</time>
      </trkpt>
      <trkpt lat="39.9002610" lon="-4.4854960">
        <ele>430.7</ele>
        <time>2022-03-01T17:36:12Z</time>
      </trkpt>
      <trkpt lat="39.9002380" lon="-4.4854190">
        <ele>430.8</ele>
        <time>2022-03-01T17:36:13Z</time>
      </trkpt>
      <trkpt lat="39.9002180" lon="-4.4853380">
        <ele>431.0</ele>
        <time>2022-03-01T17:36:14Z</time>
      </trkpt>
      <trkpt lat="39.9001980" lon="-4.4852570">
        <ele>431.1</ele>
        <time>2022-03-01T17:36:15Z</time>
      </trkpt>
      <trkpt lat="39.9001780" lon="-4.4851800">
        <ele>431.2</ele>
        <time>2022-03-01T17:36:16Z</time>
      </trkpt>
      <trkpt lat="39.9001560" lon="-4.4851050">
        <ele>431.3</ele>
        <time>2022-03-01T17:36:17Z</time>
      </trkpt>
      <trkpt lat="39.9001360" lon="-4.4850270">
        <ele>431.5</ele>
        <time>2022-03-01T17:36:18Z</time>
      </trkpt>
      <trkpt lat="39.9001160" lon="-4.4849490">
        <ele>431.6</ele>
        <time>2022-03-01T17:36:19Z</time>
      </trkpt>
      <trkpt lat="39.9000870" lon="-4.4848880">
        <ele>431.7</ele>
        <time>2022-03-01T17:36:20Z</time>
      </trkpt>
      <trkpt lat="39.9000720" lon="-4.4847900">
        <ele>431.9</ele>
        <time>2022-03-01T17:36:21Z</time>
      </trkpt>
      <trkpt lat="39.9000470" lon="-4.4847300">
        <ele>432.0</ele>
        <time>2022-03-01T17:36:22Z</time>
      </trkpt>
      <trkpt lat="39.9000290" lon="-4.4846530">
        <ele>432.1</ele>
        <time>2022-03-01T17:36:23Z</time>
      </trkpt>
      <trkpt lat="39.9000120" lon="-4.4845760">
        <ele>432.3</ele>
        <time>2022-03-01T17:36:24Z</time>
      </trkpt>
      <trkpt lat="39.8999910" lon="-4.4845050">
        <ele>432.4</ele>
        <time>2022-03-01T17:36:25Z</time>
      </trkpt>
      <trkpt lat="39.8999670" lon="-4.4844310">
        <ele>432.6</ele>
        <time>2022-03-01T17:36:26Z</time>
      </trkpt>
      <trkpt lat="39.8999500" lon="-4.4843660">
        <ele>432.8</ele>
        <time>2022-03-01T17:36:27Z</time>
      </trkpt>
      <trkpt lat="39.8999270" lon="-4.4842960">
        <ele>433.0</ele>
        <time>2022-03-01T17:36:28Z</time>
      </trkpt>
      <trkpt lat="39.8999100" lon="-4.4842300">
        <ele>433.1</ele>
        <time>2022-03-01T17:36:29Z</time>
      </trkpt>
      <trkpt lat="39.8998920" lon="-4.4841640">
        <ele>433.3</ele>
        <time>2022-03-01T17:36:30Z</time>
      </trkpt>
      <trkpt lat="39.8998750" lon="-4.4841000">
        <ele>433.4</ele>
        <time>2022-03-01T17:36:31Z</time>
      </trkpt>
      <trkpt lat="39.8998560" lon="-4.4840290">
        <ele>433.6</ele>
        <time>2022-03-01T17:36:32Z</time>
      </trkpt>
      <trkpt lat="39.8998380" lon="-4.4839690">
        <ele>433.8</ele>
        <time>2022-03-01T17:36:33Z</time>
      </trkpt>
      <trkpt lat="39.8998200" lon="-4.4838950">
        <ele>434.0</ele>
        <time>2022-03-01T17:36:34Z</time>
      </trkpt>
      <trkpt lat="39.8998010" lon="-4.4838290">
        <ele>434.2</ele>
        <time>2022-03-01T17:36:35Z</time>
      </trkpt>
      <trkpt lat="39.8997870" lon="-4.4837630">
        <ele>434.3</ele>
        <time>2022-03-01T17:36:36Z</time>
      </trkpt>
      <trkpt lat="39.8997700" lon="-4.4836950">
        <ele>434.5</ele>
        <time>2022-03-01T17:36:37Z</time>
      </trkpt>
      <trkpt lat="39.8997500" lon="-4.4836310">
        <ele>434.7</ele>
        <time>2022-03-01T17:36:38Z</time>
      </trkpt>
      <trkpt lat="39.8997320" lon="-4.4835650">
        <ele>434.9</ele>
        <time>2022-03-01T17:36:39Z</time>
      </trkpt>
      <trkpt lat="39.8997120" lon="-4.4835030">
        <ele>435.1</ele>
        <time>2022-03-01T17:36:40Z</time>
      </trkpt>
      <trkpt lat="39.8996970" lon="-4.4834360">
        <ele>435.2</ele>
        <time>2022-03-01T17:36:41Z</time>
      </trkpt>
      <trkpt lat="39.8996790" lon="-4.4833720">
        <ele>435.4</ele>
        <time>2022-03-01T17:36:42Z</time>
      </trkpt>
      <trkpt lat="39.8996590" lon="-4.4833130">
        <ele>435.6</ele>
        <time>2022-03-01T17:36:43Z</time>
      </trkpt>
      <trkpt lat="39.8996460" lon="-4.4832470">
        <ele>435.7</ele>
        <time>2022-03-01T17:36:44Z</time>
      </trkpt>
      <trkpt lat="39.8996290" lon="-4.4831840">
        <ele>435.9</ele>
        <time>2022-03-01T17:36:45Z</time>
      </trkpt>
      <trkpt lat="39.8996160" lon="-4.4831210">
        <ele>436.0</ele>
        <time>2022-03-01T17:36:46Z</time>
      </trkpt>
      <trkpt lat="39.8995940" lon="-4.4830560">
        <ele>436.2</ele>
        <time>2022-03-01T17:36:47Z</time>
      </trkpt>
      <trkpt lat="39.8995780" lon="-4.4829970">
        <ele>436.4</ele>
        <time>2022-03-01T17:36:48Z</time>
      </trkpt>
      <trkpt lat="39.8995620" lon="-4.4829380">
        <ele>436.5</ele>
        <time>2022-03-01T17:36:49Z</time>
      </trkpt>
      <trkpt lat="39.8995440" lon="-4.4828730">
        <ele>436.7</ele>
        <time>2022-03-01T17:36:50Z</time>
      </trkpt>
      <trkpt lat="39.8995250" lon="-4.4828020">
        <ele>436.9</ele>
        <time>2022-03-01T17:36:51Z</time>
      </trkpt>
      <trkpt lat="39.8995020" lon="-4.4827580">
        <ele>437.1</ele>
        <time>2022-03-01T17:36:52Z</time>
      </trkpt>
      <trkpt lat="39.8994910" lon="-4.4826770">
        <ele>437.3</ele>
        <time>2022-03-01T17:36:53Z</time>
      </trkpt>
      <trkpt lat="39.8994720" lon="-4.4826260">
        <ele>437.4</ele>
        <time>2022-03-01T17:36:54Z</time>
      </trkpt>
      <trkpt lat="39.8994550" lon="-4.4825590">
        <ele>437.6</ele>
        <time>2022-03-01T17:36:55Z</time>
      </trkpt>
      <trkpt lat="39.8994390" lon="-4.4824990">
        <ele>437.8</ele>
        <time>2022-03-01T17:36:56Z</time>
      </trkpt>
      <trkpt lat="39.8994230" lon="-4.4824300">
        <ele>438.0</ele>
        <time>2022-03-01T17:36:57Z</time>
      </trkpt>
      <trkpt lat="39.8994190" lon="-4.4823690">
        <ele>438.2</ele>
        <time>2022-03-01T17:36:58Z</time>
      </trkpt>
      <trkpt lat="39.8993950" lon="-4.4823090">
        <ele>438.4</ele>
        <time>2022-03-01T17:36:59Z</time>
      </trkpt>
      <trkpt lat="39.8993770" lon="-4.4822550">
        <ele>438.5</ele>
        <time>2022-03-01T17:37:00Z</time>
      </trkpt>
      <trkpt lat="39.8993590" lon="-4.4821950">
        <ele>438.7</ele>
        <time>2022-03-01T17:37:01Z</time>
      </trkpt>
      <trkpt lat="39.8993450" lon="-4.4821350">
        <ele>438.9</ele>
        <time>2022-03-01T17:37:02Z</time>
      </trkpt>
      <trkpt lat="39.8993360" lon="-4.4820670">
        <ele>439.1</ele>
        <time>2022-03-01T17:37:03Z</time>
      </trkpt>
      <trkpt lat="39.8993180" lon="-4.4820120">
        <ele>439.3</ele>
        <time>2022-03-01T17:37:04Z</time>
      </trkpt>
      <trkpt lat="39.8992990" lon="-4.4819440">
        <ele>439.5</ele>
        <time>2022-03-01T17:37:05Z</time>
      </trkpt>
      <trkpt lat="39.8992820" lon="-4.4818830">
        <ele>439.7</ele>
        <time>2022-03-01T17:37:06Z</time>
      </trkpt>
      <trkpt lat="39.8992660" lon="-4.4818150">
        <ele>439.9</ele>
        <time>2022-03-01T17:37:07Z</time>
      </trkpt>
      <trkpt lat="39.8992480" lon="-4.4817560">
        <ele>440.1</ele>
        <time>2022-03-01T17:37:08Z</time>
      </trkpt>
      <trkpt lat="39.8992340" lon="-4.4816920">
        <ele>440.2</ele>
        <time>2022-03-01T17:37:09Z</time>
      </trkpt>
      <trkpt lat="39.8992160" lon="-4.4816290">
        <ele>440.5</ele>
        <time>2022-03-01T17:37:10Z</time>
      </trkpt>
      <trkpt lat="39.8992030" lon="-4.4815690">
        <ele>440.6</ele>
        <time>2022-03-01T17:37:11Z</time>
      </trkpt>
      <trkpt lat="39.8991830" lon="-4.4815090">
        <ele>440.8</ele>
        <time>2022-03-01T17:37:12Z</time>
      </trkpt>
      <trkpt lat="39.8991670" lon="-4.4814460">
        <ele>441.1</ele>
        <time>2022-03-01T17:37:13Z</time>
      </trkpt>
      <trkpt lat="39.8991480" lon="-4.4813820">
        <ele>441.3</ele>
        <time>2022-03-01T17:37:14Z</time>
      </trkpt>
      <trkpt lat="39.8991300" lon="-4.4813230">
        <ele>441.5</ele>
        <time>2022-03-01T17:37:15Z</time>
      </trkpt>
      <trkpt lat="39.8991120" lon="-4.4812620">
        <ele>441.7</ele>
        <time>2022-03-01T17:37:16Z</time>
      </trkpt>
      <trkpt lat="39.8990960" lon="-4.4812000">
        <ele>441.9</ele>
        <time>2022-03-01T17:37:17Z</time>
      </trkpt>
      <trkpt lat="39.8990810" lon="-4.4811360">
        <ele>442.1</ele>
        <time>2022-03-01T17:37:18Z</time>
      </trkpt>
      <trkpt lat="39.8990600" lon="-4.4810830">
        <ele>442.3</ele>
        <time>2022-03-01T17:37:19Z</time>
      </trkpt>
      <trkpt lat="39.8990440" lon="-4.4810080">
        <ele>442.5</ele>
        <time>2022-03-01T17:37:20Z</time>
      </trkpt>
      <trkpt lat="39.8990270" lon="-4.4809430">
        <ele>442.7</ele>
        <time>2022-03-01T17:37:21Z</time>
      </trkpt>
      <trkpt lat="39.8990100" lon="-4.4808810">
        <ele>442.9</ele>
        <time>2022-03-01T17:37:22Z</time>
      </trkpt>
      <trkpt lat="39.8989910" lon="-4.4808190">
        <ele>443.1</ele>
        <time>2022-03-01T17:37:23Z</time>
      </trkpt>
      <trkpt lat="39.8989730" lon="-4.4807580">
        <ele>443.4</ele>
        <time>2022-03-01T17:37:24Z</time>
      </trkpt>
      <trkpt lat="39.8989560" lon="-4.4806940">
        <ele>443.6</ele>
        <time>2022-03-01T17:37:25Z</time>
      </trkpt>
      <trkpt lat="39.8989390" lon="-4.4806360">
        <ele>443.8</ele>
        <time>2022-03-01T17:37:26Z</time>
      </trkpt>
      <trkpt lat="39.8989260" lon="-4.4805730">
        <ele>444.0</ele>
        <time>2022-03-01T17:37:27Z</time>
      </trkpt>
      <trkpt lat="39.8989060" lon="-4.4805170">
        <ele>444.2</ele>
        <time>2022-03-01T17:37:28Z</time>
      </trkpt>
      <trkpt lat="39.8988880" lon="-4.4804660">
        <ele>444.4</ele>
        <time>2022-03-01T17:37:29Z</time>
      </trkpt>
      <trkpt lat="39.8988780" lon="-4.4803990">
        <ele>444.6</ele>
        <time>2022-03-01T17:37:30Z</time>
      </trkpt>
      <trkpt lat="39.8988580" lon="-4.4803420">
        <ele>444.8</ele>
        <time>2022-03-01T17:37:31Z</time>
      </trkpt>
      <trkpt lat="39.8988440" lon="-4.4802770">
        <ele>445.1</ele>
        <time>2022-03-01T17:37:32Z</time>
      </trkpt>
      <trkpt lat="39.8988270" lon="-4.4802280">
        <ele>445.3</ele>
        <time>2022-03-01T17:37:33Z</time>
      </trkpt>
      <trkpt lat="39.8988140" lon="-4.4801660">
        <ele>445.5</ele>
        <time>2022-03-01T17:37:34Z</time>
      </trkpt>
      <trkpt lat="39.8987970" lon="-4.4801050">
        <ele>445.8</ele>
        <time>2022-03-01T17:37:35Z</time>
      </trkpt>
      <trkpt lat="39.8987820" lon="-4.4800550">
        <ele>446.0</ele>
        <time>2022-03-01T17:37:36Z</time>
      </trkpt>
      <trkpt lat="39.8987700" lon="-4.4799970">
        <ele>446.2</ele>
        <time>2022-03-01T17:37:37Z</time>
      </trkpt>
      <trkpt lat="39.8987520" lon="-4.4799340">
        <ele>446.5</ele>
        <time>2022-03-01T17:37:38Z</time>
      </trkpt>
      <trkpt lat="39.8987340" lon="-4.4798850">
        <ele>446.7</ele>
        <time>2022-03-01T17:37:39Z</time>
      </trkpt>
      <trkpt lat="39.8987160" lon="-4.4798320">
        <ele>447.0</ele>
        <time>2022-03-01T17:37:40Z</time>
      </trkpt>
      <trkpt lat="39.8987090" lon="-4.4797700">
        <ele>447.3</ele>
        <time>2022-03-01T17:37:41Z</time>
      </trkpt>
      <trkpt lat="39.8986900" lon="-4.4797120">
        <ele>447.6</ele>
        <time>2022-03-01T17:37:42Z</time>
      </trkpt>
      <trkpt lat="39.8986770" lon="-4.4796560">
        <ele>447.8</ele>
        <time>2022-03-01T17:37:43Z</time>
      </trkpt>
      <trkpt lat="39.8986620" lon="-4.4795990">
        <ele>448.1</ele>
        <time>2022-03-01T17:37:44Z</time>
      </trkpt>
      <trkpt lat="39.8986490" lon="-4.4795420">
        <ele>448.3</ele>
        <time>2022-03-01T17:37:45Z</time>
      </trkpt>
      <trkpt lat="39.8986340" lon="-4.4794850">
        <ele>448.6</ele>
        <time>2022-03-01T17:37:46Z</time>
      </trkpt>
      <trkpt lat="39.8986230" lon="-4.4794400">
        <ele>448.8</ele>
        <time>2022-03-01T17:37:47Z</time>
      </trkpt>
      <trkpt lat="39.8986100" lon="-4.4793810">
        <ele>449.1</ele>
        <time>2022-03-01T17:37:48Z</time>
      </trkpt>
      <trkpt lat="39.8985920" lon="-4.4793290">
        <ele>449.3</ele>
        <time>2022-03-01T17:37:49Z</time>
      </trkpt>
      <trkpt lat="39.8985770" lon="-4.4792690">
        <ele>449.6</ele>
        <time>2022-03-01T17:37:50Z</time>
      </trkpt>
      <trkpt lat="39.8985650" lon="-4.4792090">
        <ele>449.9</ele>
        <time>2022-03-01T17:37:51Z</time>
      </trkpt>
      <trkpt lat="39.8985490" lon="-4.4791540">
        <ele>450.2</ele>
        <time>2022-03-01T17:37:52Z</time>
      </trkpt>
      <trkpt lat="39.8985350" lon="-4.4790880">
        <ele>450.5</ele>
        <time>2022-03-01T17:37:53Z</time>
      </trkpt>
      <trkpt lat="39.8985170" lon="-4.4790310">
        <ele>450.7</ele>
        <time>2022-03-01T17:37:54Z</time>
      </trkpt>
      <trkpt lat="39.8984990" lon="-4.4789710">
        <ele>451.0</ele>
        <time>2022-03-01T17:37:55Z</time>
      </trkpt>
      <trkpt lat="39.8984830" lon="-4.4789100">
        <ele>451.3</ele>
        <time>2022-03-01T17:37:56Z</time>
      </trkpt>
      <trkpt lat="39.8984670" lon="-4.4788500">
        <ele>451.5</ele>
        <time>2022-03-01T17:37:57Z</time>
      </trkpt>
      <trkpt lat="39.8984470" lon="-4.4787910">
        <ele>451.8</ele>
        <time>2022-03-01T17:37:58Z</time>
      </trkpt>
      <trkpt lat="39.8984310" lon="-4.4787220">
        <ele>452.1</ele>
        <time>2022-03-01T17:37:59Z</time>
      </trkpt>
      <trkpt lat="39.8984130" lon="-4.4786580">
        <ele>452.4</ele>
        <time>2022-03-01T17:38:00Z</time>
      </trkpt>
      <trkpt lat="39.8984000" lon="-4.4785940">
        <ele>452.7</ele>
        <time>2022-03-01T17:38:01Z</time>
      </trkpt>
      <trkpt lat="39.8983820" lon="-4.4785300">
        <ele>453.0</ele>
        <time>2022-03-01T17:38:02Z</time>
      </trkpt>
      <trkpt lat="39.8983640" lon="-4.4784670">
        <ele>453.2</ele>
        <time>2022-03-01T17:38:03Z</time>
      </trkpt>
      <trkpt lat="39.8983490" lon="-4.4784040">
        <ele>453.5</ele>
        <time>2022-03-01T17:38:04Z</time>
      </trkpt>
      <trkpt lat="39.8983300" lon="-4.4783400">
        <ele>453.8</ele>
        <time>2022-03-01T17:38:05Z</time>
      </trkpt>
      <trkpt lat="39.8983130" lon="-4.4782760">
        <ele>454.1</ele>
        <time>2022-03-01T17:38:06Z</time>
      </trkpt>
      <trkpt lat="39.8982930" lon="-4.4782140">
        <ele>454.4</ele>
        <time>2022-03-01T17:38:07Z</time>
      </trkpt>
      <trkpt lat="39.8982770" lon="-4.4781510">
        <ele>454.7</ele>
        <time>2022-03-01T17:38:08Z</time>
      </trkpt>
      <trkpt lat="39.8982580" lon="-4.4780850">
        <ele>455.0</ele>
        <time>2022-03-01T17:38:09Z</time>
      </trkpt>
      <trkpt lat="39.8982390" lon="-4.4780210">
        <ele>455.2</ele>
        <time>2022-03-01T17:38:10Z</time>
      </trkpt>
      <trkpt lat="39.8982240" lon="-4.4779570">
        <ele>455.5</ele>
        <time>2022-03-01T17:38:11Z</time>
      </trkpt>
      <trkpt lat="39.8982050" lon="-4.4778950">
        <ele>455.8</ele>
        <time>2022-03-01T17:38:12Z</time>
      </trkpt>
      <trkpt lat="39.8981850" lon="-4.4778240">
        <ele>456.2</ele>
        <time>2022-03-01T17:38:13Z</time>
      </trkpt>
      <trkpt lat="39.8981680" lon="-4.4777590">
        <ele>456.5</ele>
        <time>2022-03-01T17:38:14Z</time>
      </trkpt>
      <trkpt lat="39.8981510" lon="-4.4776870">
        <ele>456.8</ele>
        <time>2022-03-01T17:38:15Z</time>
      </trkpt>
      <trkpt lat="39.8981330" lon="-4.4776200">
        <ele>457.1</ele>
        <time>2022-03-01T17:38:16Z</time>
      </trkpt>
      <trkpt lat="39.8981150" lon="-4.4775520">
        <ele>457.4</ele>
        <time>2022-03-01T17:38:17Z</time>
      </trkpt>
      <trkpt lat="39.8980940" lon="-4.4774890">
        <ele>457.7</ele>
        <time>2022-03-01T17:38:18Z</time>
      </trkpt>
      <trkpt lat="39.8980730" lon="-4.4774230">
        <ele>458.1</ele>
        <time>2022-03-01T17:38:19Z</time>
      </trkpt>
      <trkpt lat="39.8980580" lon="-4.4773590">
        <ele>458.4</ele>
        <time>2022-03-01T17:38:20Z</time>
      </trkpt>
      <trkpt lat="39.8980420" lon="-4.4772920">
        <ele>458.7</ele>
        <time>2022-03-01T17:38:21Z</time>
      </trkpt>
      <trkpt lat="39.8980240" lon="-4.4772280">
        <ele>458.9</ele>
        <time>2022-03-01T17:38:22Z</time>
      </trkpt>
      <trkpt lat="39.8980030" lon="-4.4771680">
        <ele>459.2</ele>
        <time>2022-03-01T17:38:23Z</time>
      </trkpt>
      <trkpt lat="39.8979850" lon="-4.4771040">
        <ele>459.5</ele>
        <time>2022-03-01T17:38:24Z</time>
      </trkpt>
      <trkpt lat="39.8979710" lon="-4.4770460">
        <ele>459.7</ele>
        <time>2022-03-01T17:38:25Z</time>
      </trkpt>
      <trkpt lat="39.8979530" lon="-4.4769780">
        <ele>460.0</ele>
        <time>2022-03-01T17:38:26Z</time>
      </trkpt>
      <trkpt lat="39.8979350" lon="-4.4769200">
        <ele>460.3</ele>
        <time>2022-03-01T17:38:27Z</time>
      </trkpt>
      <trkpt lat="39.8979150" lon="-4.4768530">
        <ele>460.6</ele>
        <time>2022-03-01T17:38:28Z</time>
      </trkpt>
      <trkpt lat="39.8979070" lon="-4.4767950">
        <ele>460.8</ele>
        <time>2022-03-01T17:38:29Z</time>
      </trkpt>
      <trkpt lat="39.8978850" lon="-4.4767440">
        <ele>461.0</ele>
        <time>2022-03-01T17:38:30Z</time>
      </trkpt>
      <trkpt lat="39.8978720" lon="-4.4766750">
        <ele>461.3</ele>
        <time>2022-03-01T17:38:31Z</time>
      </trkpt>
      <trkpt lat="39.8978540" lon="-4.4766240">
        <ele>461.6</ele>
        <time>2022-03-01T17:38:32Z</time>
      </trkpt>
      <trkpt lat="39.8978300" lon="-4.4765610">
        <ele>461.8</ele>
        <time>2022-03-01T17:38:33Z</time>
      </trkpt>
      <trkpt lat="39.8978130" lon="-4.4765030">
        <ele>462.1</ele>
        <time>2022-03-01T17:38:34Z</time>
      </trkpt>
      <trkpt lat="39.8978040" lon="-4.4764370">
        <ele>462.4</ele>
        <time>2022-03-01T17:38:35Z</time>
      </trkpt>
      <trkpt lat="39.8977940" lon="-4.4763800">
        <ele>462.6</ele>
        <time>2022-03-01T17:38:36Z</time>
      </trkpt>
      <trkpt lat="39.8977730" lon="-4.4763250">
        <ele>462.8</ele>
        <time>2022-03-01T17:38:37Z</time>
      </trkpt>
      <trkpt lat="39.8977590" lon="-4.4762620">
        <ele>463.1</ele>
        <time>2022-03-01T17:38:38Z</time>
      </trkpt>
      <trkpt lat="39.8977410" lon="-4.4762150">
        <ele>463.3</ele>
        <time>2022-03-01T17:38:39Z</time>
      </trkpt>
      <trkpt lat="39.8977290" lon="-4.4761560">
        <ele>463.5</ele>
        <time>2022-03-01T17:38:40Z</time>
      </trkpt>
      <trkpt lat="39.8977150" lon="-4.4760970">
        <ele>463.7</ele>
        <time>2022-03-01T17:38:41Z</time>
      </trkpt>
      <trkpt lat="39.8976990" lon="-4.4760390">
        <ele>464.0</ele>
        <time>2022-03-01T17:38:42Z</time>
      </trkpt>
      <trkpt lat="39.8976830" lon="-4.4759850">
        <ele>464.2</ele>
        <time>2022-03-01T17:38:43Z</time>
      </trkpt>
      <trkpt lat="39.8976680" lon="-4.4759330">
        <ele>464.4</ele>
        <time>2022-03-01T17:38:44Z</time>
      </trkpt>
      <trkpt lat="39.8976580" lon="-4.4758770">
        <ele>464.6</ele>
        <time>2022-03-01T17:38:45Z</time>
      </trkpt>
      <trkpt lat="39.8976410" lon="-4.4758240">
        <ele>464.8</ele>
        <time>2022-03-01T17:38:46Z</time>
      </trkpt>
      <trkpt lat="39.8976220" lon="-4.4757610">
        <ele>465.0</ele>
        <time>2022-03-01T17:38:47Z</time>
      </trkpt>
      <trkpt lat="39.8976100" lon="-4.4757030">
        <ele>465.2</ele>
        <time>2022-03-01T17:38:48Z</time>
      </trkpt>
      <trkpt lat="39.8975970" lon="-4.4756490">
        <ele>465.4</ele>
        <time>2022-03-01T17:38:49Z</time>
      </trkpt>
      <trkpt lat="39.8975800" lon="-4.4755940">
        <ele>465.6</ele>
        <time>2022-03-01T17:38:50Z</time>
      </trkpt>
      <trkpt lat="39.8975660" lon="-4.4755440">
        <ele>465.8</ele>
        <time>2022-03-01T17:38:51Z</time>
      </trkpt>
      <trkpt lat="39.8975530" lon="-4.4754860">
        <ele>466.0</ele>
        <time>2022-03-01T17:38:52Z</time>
      </trkpt>
      <trkpt lat="39.8975380" lon="-4.4754250">
        <ele>466.2</ele>
        <time>2022-03-01T17:38:53Z</time>
      </trkpt>
      <trkpt lat="39.8975130" lon="-4.4753680">
        <ele>466.4</ele>
        <time>2022-03-01T17:38:54Z</time>
      </trkpt>
      <trkpt lat="39.8974960" lon="-4.4753110">
        <ele>466.6</ele>
        <time>2022-03-01T17:38:55Z</time>
      </trkpt>
      <trkpt lat="39.8974850" lon="-4.4752520">
        <ele>466.8</ele>
        <time>2022-03-01T17:38:56Z</time>
      </trkpt>
      <trkpt lat="39.8974690" lon="-4.4751970">
        <ele>466.9</ele>
        <time>2022-03-01T17:38:57Z</time>
      </trkpt>
      <trkpt lat="39.8974540" lon="-4.4751390">
        <ele>467.1</ele>
        <time>2022-03-01T17:38:58Z</time>
      </trkpt>
      <trkpt lat="39.8974360" lon="-4.4750750">
        <ele>467.3</ele>
        <time>2022-03-01T17:38:59Z</time>
      </trkpt>
      <trkpt lat="39.8974140" lon="-4.4750150">
        <ele>467.5</ele>
        <time>2022-03-01T17:39:00Z</time>
      </trkpt>
      <trkpt lat="39.8974050" lon="-4.4749470">
        <ele>467.6</ele>
        <time>2022-03-01T17:39:01Z</time>
      </trkpt>
      <trkpt lat="39.8973880" lon="-4.4748870">
        <ele>467.8</ele>
        <time>2022-03-01T17:39:02Z</time>
      </trkpt>
      <trkpt lat="39.8973680" lon="-4.4748310">
        <ele>468.0</ele>
        <time>2022-03-01T17:39:03Z</time>
      </trkpt>
      <trkpt lat="39.8973480" lon="-4.4747640">
        <ele>468.1</ele>
        <time>2022-03-01T17:39:04Z</time>
      </trkpt>
      <trkpt lat="39.8973300" lon="-4.4747050">
        <ele>468.3</ele>
        <time>2022-03-01T17:39:05Z</time>
      </trkpt>
      <trkpt lat="39.8973110" lon="-4.4746410">
        <ele>468.5</ele>
        <time>2022-03-01T17:39:06Z</time>
      </trkpt>
      <trkpt lat="39.8972920" lon="-4.4745720">
        <ele>468.6</ele>
        <time>2022-03-01T17:39:07Z</time>
      </trkpt>
      <trkpt lat="39.8972730" lon="-4.4745060">
        <ele>468.8</ele>
        <time>2022-03-01T17:39:08Z</time>
      </trkpt>
      <trkpt lat="39.8972570" lon="-4.4744420">
        <ele>469.0</ele>
        <time>2022-03-01T17:39:09Z</time>
      </trkpt>
      <trkpt lat="39.8972390" lon="-4.4743790">
        <ele>469.1</ele>
        <time>2022-03-01T17:39:10Z</time>
      </trkpt>
      <trkpt lat="39.8972160" lon="-4.4743130">
        <ele>469.3</ele>
        <time>2022-03-01T17:39:11Z</time>
      </trkpt>
      <trkpt lat="39.8972030" lon="-4.4742480">
        <ele>469.4</ele>
        <time>2022-03-01T17:39:12Z</time>
      </trkpt>
      <trkpt lat="39.8971730" lon="-4.4741860">
        <ele>469.6</ele>
        <time>2022-03-01T17:39:13Z</time>
      </trkpt>
      <trkpt lat="39.8971680" lon="-4.4741090">
        <ele>469.7</ele>
        <time>2022-03-01T17:39:14Z</time>
      </trkpt>
      <trkpt lat="39.8971470" lon="-4.4740430">
        <ele>469.9</ele>
        <time>2022-03-01T17:39:15Z</time>
      </trkpt>
      <trkpt lat="39.8971260" lon="-4.4739840">
        <ele>470.0</ele>
        <time>2022-03-01T17:39:16Z</time>
      </trkpt>
      <trkpt lat="39.8971110" lon="-4.4739060">
        <ele>470.1</ele>
        <time>2022-03-01T17:39:17Z</time>
      </trkpt>
      <trkpt lat="39.8970950" lon="-4.4738360">
        <ele>470.3</ele>
        <time>2022-03-01T17:39:18Z</time>
      </trkpt>
      <trkpt lat="39.8970740" lon="-4.4737680">
        <ele>470.4</ele>
        <time>2022-03-01T17:39:19Z</time>
      </trkpt>
      <trkpt lat="39.8970520" lon="-4.4736930">
        <ele>470.5</ele>
        <time>2022-03-01T17:39:20Z</time>
      </trkpt>
      <trkpt lat="39.8970360" lon="-4.4736260">
        <ele>470.7</ele>
        <time>2022-03-01T17:39:21Z</time>
      </trkpt>
      <trkpt lat="39.8970190" lon="-4.4735610">
        <ele>470.8</ele>
        <time>2022-03-01T17:39:22Z</time>
      </trkpt>
      <trkpt lat="39.8970010" lon="-4.4734910">
        <ele>471.0</ele>
        <time>2022-03-01T17:39:23Z</time>
      </trkpt>
      <trkpt lat="39.8969810" lon="-4.4734180">
        <ele>471.0</ele>
        <time>2022-03-01T17:39:24Z</time>
      </trkpt>
      <trkpt lat="39.8969640" lon="-4.4733490">
        <ele>471.1</ele>
        <time>2022-03-01T17:39:25Z</time>
      </trkpt>
      <trkpt lat="39.8969430" lon="-4.4732770">
        <ele>471.2</ele>
        <time>2022-03-01T17:39:26Z</time>
      </trkpt>
      <trkpt lat="39.8969240" lon="-4.4732050">
        <ele>471.3</ele>
        <time>2022-03-01T17:39:27Z</time>
      </trkpt>
      <trkpt lat="39.8969050" lon="-4.4731340">
        <ele>471.4</ele>
        <time>2022-03-01T17:39:28Z</time>
      </trkpt>
      <trkpt lat="39.8968810" lon="-4.4730610">
        <ele>471.4</ele>
        <time>2022-03-01T17:39:29Z</time>
      </trkpt>
      <trkpt lat="39.8968640" lon="-4.4729910">
        <ele>471.5</ele>
        <time>2022-03-01T17:39:30Z</time>
      </trkpt>
      <trkpt lat="39.8968470" lon="-4.4729200">
        <ele>471.6</ele>
        <time>2022-03-01T17:39:31Z</time>
      </trkpt>
      <trkpt lat="39.8968270" lon="-4.4728420">
        <ele>471.7</ele>
        <time>2022-03-01T17:39:32Z</time>
      </trkpt>
      <trkpt lat="39.8968040" lon="-4.4727750">
        <ele>471.7</ele>
        <time>2022-03-01T17:39:33Z</time>
      </trkpt>
      <trkpt lat="39.8967830" lon="-4.4727060">
        <ele>471.8</ele>
        <time>2022-03-01T17:39:34Z</time>
      </trkpt>
      <trkpt lat="39.8967630" lon="-4.4726300">
        <ele>471.9</ele>
        <time>2022-03-01T17:39:35Z</time>
      </trkpt>
      <trkpt lat="39.8967450" lon="-4.4725540">
        <ele>472.0</ele>
        <time>2022-03-01T17:39:36Z</time>
      </trkpt>
      <trkpt lat="39.8967230" lon="-4.4724780">
        <ele>472.0</ele>
        <time>2022-03-01T17:39:37Z</time>
      </trkpt>
      <trkpt lat="39.8967040" lon="-4.4723980">
        <ele>472.1</ele>
        <time>2022-03-01T17:39:38Z</time>
      </trkpt>
      <trkpt lat="39.8966870" lon="-4.4723290">
        <ele>472.1</ele>
        <time>2022-03-01T17:39:39Z</time>
      </trkpt>
      <trkpt lat="39.8966650" lon="-4.4722560">
        <ele>472.2</ele>
        <time>2022-03-01T17:39:40Z</time>
      </trkpt>
      <trkpt lat="39.8966420" lon="-4.4721840">
        <ele>472.3</ele>
        <time>2022-03-01T17:39:41Z</time>
      </trkpt>
      <trkpt lat="39.8966200" lon="-4.4721040">
        <ele>472.3</ele>
        <time>2022-03-01T17:39:42Z</time>
      </trkpt>
      <trkpt lat="39.8965990" lon="-4.4720250">
        <ele>472.4</ele>
        <time>2022-03-01T17:39:43Z</time>
      </trkpt>
      <trkpt lat="39.8965800" lon="-4.4719460">
        <ele>472.5</ele>
        <time>2022-03-01T17:39:44Z</time>
      </trkpt>
      <trkpt lat="39.8965560" lon="-4.4718680">
        <ele>472.6</ele>
        <time>2022-03-01T17:39:45Z</time>
      </trkpt>
      <trkpt lat="39.8965360" lon="-4.4717890">
        <ele>472.7</ele>
        <time>2022-03-01T17:39:46Z</time>
      </trkpt>
      <trkpt lat="39.8965170" lon="-4.4717100">
        <ele>472.8</ele>
        <time>2022-03-01T17:39:47Z</time>
      </trkpt>
      <trkpt lat="39.8964950" lon="-4.4716340">
        <ele>472.9</ele>
        <time>2022-03-01T17:39:48Z</time>
      </trkpt>
      <trkpt lat="39.8964740" lon="-4.4715530">
        <ele>473.1</ele>
        <time>2022-03-01T17:39:49Z</time>
      </trkpt>
      <trkpt lat="39.8964590" lon="-4.4714710">
        <ele>473.2</ele>
        <time>2022-03-01T17:39:50Z</time>
      </trkpt>
      <trkpt lat="39.8964320" lon="-4.4713960">
        <ele>473.3</ele>
        <time>2022-03-01T17:39:51Z</time>
      </trkpt>
      <trkpt lat="39.8964140" lon="-4.4713130">
        <ele>473.5</ele>
        <time>2022-03-01T17:39:52Z</time>
      </trkpt>
      <trkpt lat="39.8963950" lon="-4.4712360">
        <ele>473.6</ele>
        <time>2022-03-01T17:39:53Z</time>
      </trkpt>
      <trkpt lat="39.8963660" lon="-4.4711530">
        <ele>473.8</ele>
        <time>2022-03-01T17:39:54Z</time>
      </trkpt>
      <trkpt lat="39.8963450" lon="-4.4710770">
        <ele>474.0</ele>
        <time>2022-03-01T17:39:55Z</time>
      </trkpt>
      <trkpt lat="39.8963270" lon="-4.4709890">
        <ele>474.2</ele>
        <time>2022-03-01T17:39:56Z</time>
      </trkpt>
      <trkpt lat="39.8963060" lon="-4.4709110">
        <ele>474.4</ele>
        <time>2022-03-01T17:39:57Z</time>
      </trkpt>
      <trkpt lat="39.8962830" lon="-4.4708290">
        <ele>474.6</ele>
        <time>2022-03-01T17:39:58Z</time>
      </trkpt>
      <trkpt lat="39.8962600" lon="-4.4707460">
        <ele>474.8</ele>
        <time>2022-03-01T17:39:59Z</time>
      </trkpt>
      <trkpt lat="39.8962400" lon="-4.4706600">
        <ele>475.0</ele>
        <time>2022-03-01T17:40:00Z</time>
      </trkpt>
      <trkpt lat="39.8962160" lon="-4.4705800">
        <ele>475.2</ele>
        <time>2022-03-01T17:40:01Z</time>
      </trkpt>
      <trkpt lat="39.8961940" lon="-4.4705020">
        <ele>475.5</ele>
        <time>2022-03-01T17:40:02Z</time>
      </trkpt>
      <trkpt lat="39.8961690" lon="-4.4704220">
        <ele>475.7</ele>
        <time>2022-03-01T17:40:03Z</time>
      </trkpt>
      <trkpt lat="39.8961480" lon="-4.4703430">
        <ele>476.0</ele>
        <time>2022-03-01T17:40:04Z</time>
      </trkpt>
      <trkpt lat="39.8961250" lon="-4.4702600">
        <ele>476.3</ele>
        <time>2022-03-01T17:40:05Z</time>
      </trkpt>
      <trkpt lat="39.8961040" lon="-4.4701770">
        <ele>476.5</ele>
        <time>2022-03-01T17:40:06Z</time>
      </trkpt>
      <trkpt lat="39.8960850" lon="-4.4700920">
        <ele>476.8</ele>
        <time>2022-03-01T17:40:07Z</time>
      </trkpt>
      <trkpt lat="39.8960600" lon="-4.4700100">
        <ele>477.1</ele>
        <time>2022-03-01T17:40:08Z</time>
      </trkpt>
      <trkpt lat="39.8960370" lon="-4.4699300">
        <ele>477.5</ele>
        <time>2022-03-01T17:40:09Z</time>
      </trkpt>
      <trkpt lat="39.8960140" lon="-4.4698480">
        <ele>477.8</ele>
        <time>2022-03-01T17:40:10Z</time>
      </trkpt>
      <trkpt lat="39.8959870" lon="-4.4697750">
        <ele>478.1</ele>
        <time>2022-03-01T17:40:11Z</time>
      </trkpt>
      <trkpt lat="39.8959620" lon="-4.4696970">
        <ele>478.4</ele>
        <time>2022-03-01T17:40:12Z</time>
      </trkpt>
      <trkpt lat="39.8959440" lon="-4.4696030">
        <ele>478.7</ele>
        <time>2022-03-01T17:40:13Z</time>
      </trkpt>
      <trkpt lat="39.8959240" lon="-4.4695280">
        <ele>479.0</ele>
        <time>2022-03-01T17:40:14Z</time>
      </trkpt>
      <trkpt lat="39.8959010" lon="-4.4694520">
        <ele>479.3</ele>
        <time>2022-03-01T17:40:15Z</time>
      </trkpt>
      <trkpt lat="39.8958810" lon="-4.4693670">
        <ele>479.7</ele>
        <time>2022-03-01T17:40:16Z</time>
      </trkpt>
      <trkpt lat="39.8958610" lon="-4.4692910">
        <ele>480.0</ele>
        <time>2022-03-01T17:40:17Z</time>
      </trkpt>
      <trkpt lat="39.8958400" lon="-4.4692090">
        <ele>480.4</ele>
        <time>2022-03-01T17:40:18Z</time>
      </trkpt>
      <trkpt lat="39.8958200" lon="-4.4691350">
        <ele>480.7</ele>
        <time>2022-03-01T17:40:19Z</time>
      </trkpt>
      <trkpt lat="39.8957970" lon="-4.4690580">
        <ele>481.1</ele>
        <time>2022-03-01T17:40:20Z</time>
      </trkpt>
      <trkpt lat="39.8957780" lon="-4.4689820">
        <ele>481.5</ele>
        <time>2022-03-01T17:40:21Z</time>
      </trkpt>
      <trkpt lat="39.8957560" lon="-4.4689010">
        <ele>481.9</ele>
        <time>2022-03-01T17:40:22Z</time>
      </trkpt>
      <trkpt lat="39.8957350" lon="-4.4688280">
        <ele>482.2</ele>
        <time>2022-03-01T17:40:23Z</time>
      </trkpt>
      <trkpt lat="39.8957150" lon="-4.4687600">
        <ele>482.6</ele>
        <time>2022-03-01T17:40:24Z</time>
      </trkpt>
      <trkpt lat="39.8956940" lon="-4.4686860">
        <ele>483.0</ele>
        <time>2022-03-01T17:40:25Z</time>
      </trkpt>
      <trkpt lat="39.8956750" lon="-4.4686150">
        <ele>483.3</ele>
        <time>2022-03-01T17:40:26Z</time>
      </trkpt>
      <trkpt lat="39.8956590" lon="-4.4685370">
        <ele>483.7</ele>
        <time>2022-03-01T17:40:27Z</time>
      </trkpt>
      <trkpt lat="39.8956370" lon="-4.4684680">
        <ele>484.1</ele>
        <time>2022-03-01T17:40:28Z</time>
      </trkpt>
      <trkpt lat="39.8956180" lon="-4.4683990">
        <ele>484.5</ele>
        <time>2022-03-01T17:40:29Z</time>
      </trkpt>
      <trkpt lat="39.8955980" lon="-4.4683300">
        <ele>484.8</ele>
        <time>2022-03-01T17:40:30Z</time>
      </trkpt>
      <trkpt lat="39.8955780" lon="-4.4682640">
        <ele>485.2</ele>
        <time>2022-03-01T17:40:31Z</time>
      </trkpt>
      <trkpt lat="39.8955590" lon="-4.4682000">
        <ele>485.6</ele>
        <time>2022-03-01T17:40:32Z</time>
      </trkpt>
      <trkpt lat="39.8955340" lon="-4.4681400">
        <ele>485.9</ele>
        <time>2022-03-01T17:40:33Z</time>
      </trkpt>
      <trkpt lat="39.8955120" lon="-4.4680800">
        <ele>486.3</ele>
        <time>2022-03-01T17:40:34Z</time>
      </trkpt>
      <trkpt lat="39.8954970" lon="-4.4680170">
        <ele>486.6</ele>
        <time>2022-03-01T17:40:35Z</time>
      </trkpt>
      <trkpt lat="39.8954760" lon="-4.4679570">
        <ele>486.9</ele>
        <time>2022-03-01T17:40:36Z</time>
      </trkpt>
      <trkpt lat="39.8954530" lon="-4.4678870">
        <ele>487.3</ele>
        <time>2022-03-01T17:40:37Z</time>
      </trkpt>
      <trkpt lat="39.8954310" lon="-4.4678290">
        <ele>487.7</ele>
        <time>2022-03-01T17:40:38Z</time>
      </trkpt>
      <trkpt lat="39.8954100" lon="-4.4677680">
        <ele>488.0</ele>
        <time>2022-03-01T17:40:39Z</time>
      </trkpt>
      <trkpt lat="39.8953870" lon="-4.4677020">
        <ele>488.4</ele>
        <time>2022-03-01T17:40:40Z</time>
      </trkpt>
      <trkpt lat="39.8953640" lon="-4.4676450">
        <ele>488.7</ele>
        <time>2022-03-01T17:40:41Z</time>
      </trkpt>
      <trkpt lat="39.8953380" lon="-4.4675800">
        <ele>489.1</ele>
        <time>2022-03-01T17:40:42Z</time>
      </trkpt>
      <trkpt lat="39.8953140" lon="-4.4675170">
        <ele>489.4</ele>
        <time>2022-03-01T17:40:43Z</time>
      </trkpt>
      <trkpt lat="39.8952870" lon="-4.4674460">
        <ele>489.8</ele>
        <time>2022-03-01T17:40:44Z</time>
      </trkpt>
      <trkpt lat="39.8952570" lon="-4.4673860">
        <ele>490.1</ele>
        <time>2022-03-01T17:40:45Z</time>
      </trkpt>
      <trkpt lat="39.8952280" lon="-4.4673220">
        <ele>490.5</ele>
        <time>2022-03-01T17:40:46Z</time>
      </trkpt>
      <trkpt lat="39.8952010" lon="-4.4672560">
        <ele>490.9</ele>
        <time>2022-03-01T17:40:47Z</time>
      </trkpt>
      <trkpt lat="39.8951640" lon="-4.4671940">
        <ele>491.3</ele>
        <time>2022-03-01T17:40:48Z</time>
      </trkpt>
      <trkpt lat="39.8951390" lon="-4.4671360">
        <ele>491.6</ele>
        <time>2022-03-01T17:40:49Z</time>
      </trkpt>
      <trkpt lat="39.8951050" lon="-4.4670750">
        <ele>492.0</ele>
        <time>2022-03-01T17:40:50Z</time>
      </trkpt>
      <trkpt lat="39.8950740" lon="-4.4670120">
        <ele>492.4</ele>
        <time>2022-03-01T17:40:51Z</time>
      </trkpt>
      <trkpt lat="39.8950380" lon="-4.4669490">
        <ele>492.7</ele>
        <time>2022-03-01T17:40:52Z</time>
      </trkpt>
      <trkpt lat="39.8950070" lon="-4.4668830">
        <ele>493.1</ele>
        <time>2022-03-01T17:40:53Z</time>
      </trkpt>
      <trkpt lat="39.8949650" lon="-4.4668210">
        <ele>493.5</ele>
        <time>2022-03-01T17:40:54Z</time>
      </trkpt>
      <trkpt lat="39.8949400" lon="-4.4667490">
        <ele>493.9</ele>
        <time>2022-03-01T17:40:55Z</time>
      </trkpt>
      <trkpt lat="39.8949040" lon="-4.4666920">
        <ele>494.3</ele>
        <time>2022-03-01T17:40:56Z</time>
      </trkpt>
      <trkpt lat="39.8948690" lon="-4.4666260">
        <ele>494.7</ele>
        <time>2022-03-01T17:40:57Z</time>
      </trkpt>
      <trkpt lat="39.8948330" lon="-4.4665670">
        <ele>495.0</ele>
        <time>2022-03-01T17:40:58Z</time>
      </trkpt>
      <trkpt lat="39.8948030" lon="-4.4665030">
        <ele>495.3</ele>
        <time>2022-03-01T17:40:59Z</time>
      </trkpt>
      <trkpt lat="39.8947640" lon="-4.4664430">
        <ele>495.6</ele>
        <time>2022-03-01T17:41:00Z</time>
      </trkpt>
      <trkpt lat="39.8947250" lon="-4.4663850">
        <ele>495.9</ele>
        <time>2022-03-01T17:41:01Z</time>
      </trkpt>
      <trkpt lat="39.8946880" lon="-4.4663310">
        <ele>496.2</ele>
        <time>2022-03-01T17:41:02Z</time>
      </trkpt>
      <trkpt lat="39.8946460" lon="-4.4662730">
        <ele>496.5</ele>
        <time>2022-03-01T17:41:03Z</time>
      </trkpt>
      <trkpt lat="39.8946130" lon="-4.4661990">
        <ele>496.9</ele>
        <time>2022-03-01T17:41:04Z</time>
      </trkpt>
      <trkpt lat="39.8945730" lon="-4.4661450">
        <ele>497.2</ele>
        <time>2022-03-01T17:41:05Z</time>
      </trkpt>
      <trkpt lat="39.8945390" lon="-4.4660890">
        <ele>497.5</ele>
        <time>2022-03-01T17:41:06Z</time>
      </trkpt>
      <trkpt lat="39.8945000" lon="-4.4660340">
        <ele>497.8</ele>
        <time>2022-03-01T17:41:07Z</time>
      </trkpt>
      <trkpt lat="39.8944560" lon="-4.4659790">
        <ele>498.1</ele>
        <time>2022-03-01T17:41:08Z</time>
      </trkpt>
      <trkpt lat="39.8944150" lon="-4.4659330">
        <ele>498.4</ele>
        <time>2022-03-01T17:41:09Z</time>
      </trkpt>
      <trkpt lat="39.8943780" lon="-4.4658820">
        <ele>498.6</ele>
        <time>2022-03-01T17:41:10Z</time>
      </trkpt>
      <trkpt lat="39.8943330" lon="-4.4658290">
        <ele>498.9</ele>
        <time>2022-03-01T17:41:11Z</time>
      </trkpt>
      <trkpt lat="39.8942960" lon="-4.4657680">
        <ele>499.1</ele>
        <time>2022-03-01T17:41:12Z</time>
      </trkpt>
      <trkpt lat="39.8942550" lon="-4.4657140">
        <ele>499.4</ele>
        <time>2022-03-01T17:41:13Z</time>
      </trkpt>
      <trkpt lat="39.8942150" lon="-4.4656560">
        <ele>499.5</ele>
        <time>2022-03-01T17:41:14Z</time>
      </trkpt>
      <trkpt lat="39.8941730" lon="-4.4656020">
        <ele>499.7</ele>
        <time>2022-03-01T17:41:15Z</time>
      </trkpt>
      <trkpt lat="39.8941350" lon="-4.4655400">
        <ele>499.9</ele>
        <time>2022-03-01T17:41:16Z</time>
      </trkpt>
      <trkpt lat="39.8940930" lon="-4.4654790">
        <ele>500.1</ele>
        <time>2022-03-01T17:41:17Z</time>
      </trkpt>
      <trkpt lat="39.8940520" lon="-4.4654210">
        <ele>500.3</ele>
        <time>2022-03-01T17:41:18Z</time>
      </trkpt>
      <trkpt lat="39.8940120" lon="-4.4653630">
        <ele>500.4</ele>
        <time>2022-03-01T17:41:19Z</time>
      </trkpt>
      <trkpt lat="39.8939720" lon="-4.4653000">
        <ele>500.6</ele>
        <time>2022-03-01T17:41:20Z</time>
      </trkpt>
      <trkpt lat="39.8939370" lon="-4.4652380">
        <ele>500.7</ele>
        <time>2022-03-01T17:41:21Z</time>
      </trkpt>
      <trkpt lat="39.8938950" lon="-4.4651760">
        <ele>500.9</ele>
        <time>2022-03-01T17:41:22Z</time>
      </trkpt>
      <trkpt lat="39.8938560" lon="-4.4651150">
        <ele>501.0</ele>
        <time>2022-03-01T17:41:23Z</time>
      </trkpt>
      <trkpt lat="39.8938150" lon="-4.4650510">
        <ele>501.1</ele>
        <time>2022-03-01T17:41:24Z</time>
      </trkpt>
      <trkpt lat="39.8937790" lon="-4.4649880">
        <ele>501.2</ele>
        <time>2022-03-01T17:41:25Z</time>
      </trkpt>
      <trkpt lat="39.8937390" lon="-4.4649260">
        <ele>501.3</ele>
        <time>2022-03-01T17:41:26Z</time>
      </trkpt>
      <trkpt lat="39.8936990" lon="-4.4648550">
        <ele>501.4</ele>
        <time>2022-03-01T17:41:27Z</time>
      </trkpt>
      <trkpt lat="39.8936610" lon="-4.4647750">
        <ele>501.4</ele>
        <time>2022-03-01T17:41:28Z</time>
      </trkpt>
      <trkpt lat="39.8936210" lon="-4.4646990">
        <ele>501.5</ele>
        <time>2022-03-01T17:41:29Z</time>
      </trkpt>
      <trkpt lat="39.8935870" lon="-4.4646280">
        <ele>501.5</ele>
        <time>2022-03-01T17:41:30Z</time>
      </trkpt>
      <trkpt lat="39.8935510" lon="-4.4645490">
        <ele>501.6</ele>
        <time>2022-03-01T17:41:31Z</time>
      </trkpt>
      <trkpt lat="39.8935130" lon="-4.4644720">
        <ele>501.6</ele>
        <time>2022-03-01T17:41:32Z</time>
      </trkpt>
      <trkpt lat="39.8934790" lon="-4.4643880">
        <ele>501.5</ele>
        <time>2022-03-01T17:41:33Z</time>
      </trkpt>
      <trkpt lat="39.8934420" lon="-4.4643110">
        <ele>501.5</ele>
        <time>2022-03-01T17:41:34Z</time>
      </trkpt>
      <trkpt lat="39.8934100" lon="-4.4642300">
        <ele>501.5</ele>
        <time>2022-03-01T17:41:35Z</time>
      </trkpt>
      <trkpt lat="39.8933780" lon="-4.4641500">
        <ele>501.4</ele>
        <time>2022-03-01T17:41:36Z</time>
      </trkpt>
      <trkpt lat="39.8933460" lon="-4.4640730">
        <ele>501.4</ele>
        <time>2022-03-01T17:41:37Z</time>
      </trkpt>
      <trkpt lat="39.8933130" lon="-4.4639810">
        <ele>501.3</ele>
        <time>2022-03-01T17:41:38Z</time>
      </trkpt>
      <trkpt lat="39.8932840" lon="-4.4638940">
        <ele>501.3</ele>
        <time>2022-03-01T17:41:39Z</time>
      </trkpt>
      <trkpt lat="39.8932550" lon="-4.4638110">
        <ele>501.2</ele>
        <time>2022-03-01T17:41:40Z</time>
      </trkpt>
      <trkpt lat="39.8932220" lon="-4.4637210">
        <ele>501.0</ele>
        <time>2022-03-01T17:41:41Z</time>
      </trkpt>
      <trkpt lat="39.8932040" lon="-4.4636320">
        <ele>500.9</ele>
        <time>2022-03-01T17:41:42Z</time>
      </trkpt>
      <trkpt lat="39.8931740" lon="-4.4635470">
        <ele>500.8</ele>
        <time>2022-03-01T17:41:43Z</time>
      </trkpt>
      <trkpt lat="39.8931530" lon="-4.4634600">
        <ele>500.7</ele>
        <time>2022-03-01T17:41:44Z</time>
      </trkpt>
      <trkpt lat="39.8931180" lon="-4.4633700">
        <ele>500.5</ele>
        <time>2022-03-01T17:41:45Z</time>
      </trkpt>
      <trkpt lat="39.8930940" lon="-4.4632820">
        <ele>500.5</ele>
        <time>2022-03-01T17:41:46Z</time>
      </trkpt>
      <trkpt lat="39.8930610" lon="-4.4631990">
        <ele>500.6</ele>
        <time>2022-03-01T17:41:47Z</time>
      </trkpt>
      <trkpt lat="39.8930360" lon="-4.4631050">
        <ele>500.7</ele>
        <time>2022-03-01T17:41:48Z</time>
      </trkpt>
      <trkpt lat="39.8930050" lon="-4.4630110">
        <ele>500.7</ele>
        <time>2022-03-01T17:41:49Z</time>
      </trkpt>
      <trkpt lat="39.8929630" lon="-4.4629270">
        <ele>500.8</ele>
        <time>2022-03-01T17:41:50Z</time>
      </trkpt>
      <trkpt lat="39.8929100" lon="-4.4628610">
        <ele>500.9</ele>
        <time>2022-03-01T17:41:51Z</time>
      </trkpt>
      <trkpt lat="39.8928540" lon="-4.4627940">
        <ele>500.7</ele>
        <time>2022-03-01T17:41:52Z</time>
      </trkpt>
      <trkpt lat="39.8927970" lon="-4.4627250">
        <ele>500.5</ele>
        <time>2022-03-01T17:41:53Z</time>
      </trkpt>
      <trkpt lat="39.8927280" lon="-4.4626790">
        <ele>500.2</ele>
        <time>2022-03-01T17:41:54Z</time>
      </trkpt>
      <trkpt lat="39.8926760" lon="-4.4626060">
        <ele>500.0</ele>
        <time>2022-03-01T17:41:55Z</time>
      </trkpt>
      <trkpt lat="39.8926160" lon="-4.4625270">
        <ele>499.8</ele>
        <time>2022-03-01T17:41:56Z</time>
      </trkpt>
      <trkpt lat="39.8925630" lon="-4.4624620">
        <ele>499.5</ele>
        <time>2022-03-01T17:41:57Z</time>
      </trkpt>
      <trkpt lat="39.8925050" lon="-4.4623920">
        <ele>499.2</ele>
        <time>2022-03-01T17:41:58Z</time>
      </trkpt>
      <trkpt lat="39.8924720" lon="-4.4623000">
        <ele>498.9</ele>
        <time>2022-03-01T17:41:59Z</time>
      </trkpt>
      <trkpt lat="39.8924110" lon="-4.4622390">
        <ele>498.6</ele>
        <time>2022-03-01T17:42:00Z</time>
      </trkpt>
      <trkpt lat="39.8923560" lon="-4.4621710">
        <ele>498.3</ele>
        <time>2022-03-01T17:42:01Z</time>
      </trkpt>
      <trkpt lat="39.8923010" lon="-4.4621020">
        <ele>497.9</ele>
        <time>2022-03-01T17:42:02Z</time>
      </trkpt>
      <trkpt lat="39.8922430" lon="-4.4620270">
        <ele>497.5</ele>
        <time>2022-03-01T17:42:03Z</time>
      </trkpt>
      <trkpt lat="39.8921880" lon="-4.4619550">
        <ele>497.2</ele>
        <time>2022-03-01T17:42:04Z</time>
      </trkpt>
      <trkpt lat="39.8921310" lon="-4.4618790">
        <ele>496.8</ele>
        <time>2022-03-01T17:42:05Z</time>
      </trkpt>
      <trkpt lat="39.8920750" lon="-4.4618120">
        <ele>496.5</ele>
        <time>2022-03-01T17:42:06Z</time>
      </trkpt>
      <trkpt lat="39.8920250" lon="-4.4617420">
        <ele>496.1</ele>
        <time>2022-03-01T17:42:07Z</time>
      </trkpt>
      <trkpt lat="39.8919650" lon="-4.4616630">
        <ele>495.7</ele>
        <time>2022-03-01T17:42:08Z</time>
      </trkpt>
      <trkpt lat="39.8919070" lon="-4.4615850">
        <ele>495.3</ele>
        <time>2022-03-01T17:42:09Z</time>
      </trkpt>
      <trkpt lat="39.8918460" lon="-4.4614890">
        <ele>494.8</ele>
        <time>2022-03-01T17:42:10Z</time>
      </trkpt>
      <trkpt lat="39.8917830" lon="-4.4614260">
        <ele>494.4</ele>
        <time>2022-03-01T17:42:11Z</time>
      </trkpt>
      <trkpt lat="39.8917200" lon="-4.4613490">
        <ele>493.9</ele>
        <time>2022-03-01T17:42:12Z</time>
      </trkpt>
      <trkpt lat="39.8916560" lon="-4.4612690">
        <ele>493.4</ele>
        <time>2022-03-01T17:42:13Z</time>
      </trkpt>
      <trkpt lat="39.8915890" lon="-4.4611870">
        <ele>492.9</ele>
        <time>2022-03-01T17:42:14Z</time>
      </trkpt>
      <trkpt lat="39.8915220" lon="-4.4611040">
        <ele>492.4</ele>
        <time>2022-03-01T17:42:15Z</time>
      </trkpt>
      <trkpt lat="39.8914570" lon="-4.4610210">
        <ele>491.9</ele>
        <time>2022-03-01T17:42:16Z</time>
      </trkpt>
      <trkpt lat="39.8913880" lon="-4.4609270">
        <ele>491.4</ele>
        <time>2022-03-01T17:42:17Z</time>
      </trkpt>
      <trkpt lat="39.8913210" lon="-4.4608410">
        <ele>490.9</ele>
        <time>2022-03-01T17:42:18Z</time>
      </trkpt>
      <trkpt lat="39.8912620" lon="-4.4607610">
        <ele>490.4</ele>
        <time>2022-03-01T17:42:19Z</time>
      </trkpt>
      <trkpt lat="39.8911970" lon="-4.4606780">
        <ele>489.9</ele>
        <time>2022-03-01T17:42:20Z</time>
      </trkpt>
      <trkpt lat="39.8911290" lon="-4.4605940">
        <ele>489.4</ele>
        <time>2022-03-01T17:42:21Z</time>
      </trkpt>
      <trkpt lat="39.8910620" lon="-4.4605140">
        <ele>489.0</ele>
        <time>2022-03-01T17:42:22Z</time>
      </trkpt>
      <trkpt lat="39.8909970" lon="-4.4604260">
        <ele>488.5</ele>
        <time>2022-03-01T17:42:23Z</time>
      </trkpt>
      <trkpt lat="39.8909290" lon="-4.4603350">
        <ele>488.0</ele>
        <time>2022-03-01T17:42:24Z</time>
      </trkpt>
      <trkpt lat="39.8908680" lon="-4.4602490">
        <ele>487.5</ele>
        <time>2022-03-01T17:42:25Z</time>
      </trkpt>
      <trkpt lat="39.8908020" lon="-4.4601580">
        <ele>487.0</ele>
        <time>2022-03-01T17:42:26Z</time>
      </trkpt>
      <trkpt lat="39.8907360" lon="-4.4600760">
        <ele>486.6</ele>
        <time>2022-03-01T17:42:27Z</time>
      </trkpt>
    </trkseg>
  </trk>
</gpx>
